<?xml version="1.0" encoding="utf-8"?>
<gpx xmlns:xsi="http://www.w3.org/2001/XMLSchema-instance" xmlns:xsd="http://www.w3.org/2001/XMLSchema" version="1.1" creator="Shapelink.com" xmlns="http://www.topografix.com/GPX/1/1" xmlns:gpxtpx="http://www.garmin.com/xmlschemas/TrackPointExtension/v1">
  <metadata>
    <name>Mtb 61.16 km, 2014-06-01</name>
    <desc></desc>
    <author><name>Mikael Blom</name></author> 
    <time>2014-06-01T09:47:19Z</time>
  </metadata>
  <trk>
    <name>Mtb 61.16 km, 2014-06-01</name>
    <trkseg>
      <trkpt lat="59.8969149" lon="17.7074585">
        <ele>26.5736</ele>
        <time>2014-06-01T09:47:19Z</time>
      </trkpt>
      <trkpt lat="59.8968574" lon="17.7073813">
        <ele>26.5736</ele>
        <time>2014-06-01T09:47:20Z</time>
      </trkpt>
      <trkpt lat="59.8967999" lon="17.7073045">
        <ele>26.5736</ele>
        <time>2014-06-01T09:47:21Z</time>
      </trkpt>
      <trkpt lat="59.8967429" lon="17.7072268">
        <ele>26.5736</ele>
        <time>2014-06-01T09:47:22Z</time>
      </trkpt>
      <trkpt lat="59.8966863" lon="17.7071475">
        <ele>26.5736</ele>
        <time>2014-06-01T09:47:23Z</time>
      </trkpt>
      <trkpt lat="59.8966289" lon="17.7070704">
        <ele>26.5736</ele>
        <time>2014-06-01T09:47:24Z</time>
      </trkpt>
      <trkpt lat="59.8965703" lon="17.7069954">
        <ele>26.5736</ele>
        <time>2014-06-01T09:47:25Z</time>
      </trkpt>
      <trkpt lat="59.8965114" lon="17.7069181">
        <ele>26.5736</ele>
        <time>2014-06-01T09:47:26Z</time>
      </trkpt>
      <trkpt lat="59.8964529" lon="17.7068376">
        <ele>26.5736</ele>
        <time>2014-06-01T09:47:27Z</time>
      </trkpt>
      <trkpt lat="59.8963943" lon="17.7067578">
        <ele>26.5736</ele>
        <time>2014-06-01T09:47:28Z</time>
      </trkpt>
      <trkpt lat="59.8963353" lon="17.7066796">
        <ele>26.5736</ele>
        <time>2014-06-01T09:47:29Z</time>
      </trkpt>
      <trkpt lat="59.8962772" lon="17.7066">
        <ele>26.5736</ele>
        <time>2014-06-01T09:47:30Z</time>
      </trkpt>
      <trkpt lat="59.8962191" lon="17.7065204">
        <ele>26.5736</ele>
        <time>2014-06-01T09:47:31Z</time>
      </trkpt>
      <trkpt lat="59.8961603" lon="17.7064425">
        <ele>26.5736</ele>
        <time>2014-06-01T09:47:32Z</time>
      </trkpt>
      <trkpt lat="59.896101" lon="17.7063647">
        <ele>26.5736</ele>
        <time>2014-06-01T09:47:33Z</time>
      </trkpt>
      <trkpt lat="59.8960419" lon="17.7062857">
        <ele>26.5736</ele>
        <time>2014-06-01T09:47:34Z</time>
      </trkpt>
      <trkpt lat="59.895983" lon="17.7062063">
        <ele>26.0929</ele>
        <time>2014-06-01T09:47:35Z</time>
      </trkpt>
      <trkpt lat="59.895924" lon="17.7061266">
        <ele>26.0929</ele>
        <time>2014-06-01T09:47:36Z</time>
      </trkpt>
      <trkpt lat="59.8958649" lon="17.7060478">
        <ele>26.0929</ele>
        <time>2014-06-01T09:47:37Z</time>
      </trkpt>
      <trkpt lat="59.8958056" lon="17.7059692">
        <ele>26.0929</ele>
        <time>2014-06-01T09:47:38Z</time>
      </trkpt>
      <trkpt lat="59.8957459" lon="17.7058904">
        <ele>26.0929</ele>
        <time>2014-06-01T09:47:39Z</time>
      </trkpt>
      <trkpt lat="59.8956863" lon="17.7058106">
        <ele>26.0929</ele>
        <time>2014-06-01T09:47:40Z</time>
      </trkpt>
      <trkpt lat="59.895627" lon="17.7057302">
        <ele>26.0929</ele>
        <time>2014-06-01T09:47:41Z</time>
      </trkpt>
      <trkpt lat="59.8955677" lon="17.7056493">
        <ele>26.0929</ele>
        <time>2014-06-01T09:47:42Z</time>
      </trkpt>
      <trkpt lat="59.8955085" lon="17.7055705">
        <ele>26.0929</ele>
        <time>2014-06-01T09:47:43Z</time>
      </trkpt>
      <trkpt lat="59.8954488" lon="17.7054963">
        <ele>26.0929</ele>
        <time>2014-06-01T09:47:44Z</time>
      </trkpt>
      <trkpt lat="59.8953878" lon="17.7054281">
        <ele>26.0929</ele>
        <time>2014-06-01T09:47:45Z</time>
      </trkpt>
      <trkpt lat="59.8953256" lon="17.7053631">
        <ele>26.0929</ele>
        <time>2014-06-01T09:47:46Z</time>
      </trkpt>
      <trkpt lat="59.8952635" lon="17.7052963">
        <ele>26.0929</ele>
        <time>2014-06-01T09:47:47Z</time>
      </trkpt>
      <trkpt lat="59.8952023" lon="17.7052241">
        <ele>26.0929</ele>
        <time>2014-06-01T09:47:48Z</time>
      </trkpt>
      <trkpt lat="59.8951432" lon="17.7051442">
        <ele>26.0929</ele>
        <time>2014-06-01T09:47:49Z</time>
      </trkpt>
      <trkpt lat="59.8950863" lon="17.7050573">
        <ele>26.0929</ele>
        <time>2014-06-01T09:47:50Z</time>
      </trkpt>
      <trkpt lat="59.8950304" lon="17.7049667">
        <ele>26.0929</ele>
        <time>2014-06-01T09:47:51Z</time>
      </trkpt>
      <trkpt lat="59.894974" lon="17.7048786">
        <ele>26.0929</ele>
        <time>2014-06-01T09:47:52Z</time>
      </trkpt>
      <trkpt lat="59.8949159" lon="17.7047963">
        <ele>26.0929</ele>
        <time>2014-06-01T09:47:53Z</time>
      </trkpt>
      <trkpt lat="59.8948568" lon="17.7047169">
        <ele>26.5736</ele>
        <time>2014-06-01T09:47:54Z</time>
      </trkpt>
      <trkpt lat="59.8947988" lon="17.7046353">
        <ele>26.5736</ele>
        <time>2014-06-01T09:47:55Z</time>
      </trkpt>
      <trkpt lat="59.8947422" lon="17.7045518">
        <ele>26.5736</ele>
        <time>2014-06-01T09:47:56Z</time>
      </trkpt>
      <trkpt lat="59.8946854" lon="17.7044706">
        <ele>26.5736</ele>
        <time>2014-06-01T09:47:57Z</time>
      </trkpt>
      <trkpt lat="59.8946274" lon="17.7043927">
        <ele>27.0543</ele>
        <time>2014-06-01T09:47:58Z</time>
      </trkpt>
      <trkpt lat="59.8945693" lon="17.7043151">
        <ele>27.0543</ele>
        <time>2014-06-01T09:47:59Z</time>
      </trkpt>
      <trkpt lat="59.8945111" lon="17.7042382">
        <ele>27.0543</ele>
        <time>2014-06-01T09:48:00Z</time>
      </trkpt>
      <trkpt lat="59.8944529" lon="17.7041628">
        <ele>27.0543</ele>
        <time>2014-06-01T09:48:01Z</time>
      </trkpt>
      <trkpt lat="59.8943954" lon="17.7040873">
        <ele>27.0543</ele>
        <time>2014-06-01T09:48:02Z</time>
      </trkpt>
      <trkpt lat="59.8943391" lon="17.7040113">
        <ele>27.5349</ele>
        <time>2014-06-01T09:48:03Z</time>
      </trkpt>
      <trkpt lat="59.8942842" lon="17.7039333">
        <ele>27.5349</ele>
        <time>2014-06-01T09:48:04Z</time>
      </trkpt>
      <trkpt lat="59.8942304" lon="17.7038552">
        <ele>27.5349</ele>
        <time>2014-06-01T09:48:05Z</time>
      </trkpt>
      <trkpt lat="59.8941763" lon="17.7037794">
        <ele>27.5349</ele>
        <time>2014-06-01T09:48:06Z</time>
      </trkpt>
      <trkpt lat="59.8941218" lon="17.7037049">
        <ele>27.5349</ele>
        <time>2014-06-01T09:48:07Z</time>
      </trkpt>
      <trkpt lat="59.8940672" lon="17.7036304">
        <ele>28.0155</ele>
        <time>2014-06-01T09:48:08Z</time>
      </trkpt>
      <trkpt lat="59.8940124" lon="17.7035568">
        <ele>28.0155</ele>
        <time>2014-06-01T09:48:09Z</time>
      </trkpt>
      <trkpt lat="59.8939576" lon="17.7034837">
        <ele>28.0155</ele>
        <time>2014-06-01T09:48:10Z</time>
      </trkpt>
      <trkpt lat="59.8939028" lon="17.7034105">
        <ele>28.0155</ele>
        <time>2014-06-01T09:48:11Z</time>
      </trkpt>
      <trkpt lat="59.8938484" lon="17.7033369">
        <ele>28.4962</ele>
        <time>2014-06-01T09:48:12Z</time>
      </trkpt>
      <trkpt lat="59.8937947" lon="17.7032614">
        <ele>28.4962</ele>
        <time>2014-06-01T09:48:13Z</time>
      </trkpt>
      <trkpt lat="59.8937406" lon="17.7031874">
        <ele>28.4962</ele>
        <time>2014-06-01T09:48:14Z</time>
      </trkpt>
      <trkpt lat="59.8936856" lon="17.7031155">
        <ele>28.4962</ele>
        <time>2014-06-01T09:48:15Z</time>
      </trkpt>
      <trkpt lat="59.8936305" lon="17.703043">
        <ele>28.4962</ele>
        <time>2014-06-01T09:48:16Z</time>
      </trkpt>
      <trkpt lat="59.8935748" lon="17.7029698">
        <ele>28.4962</ele>
        <time>2014-06-01T09:48:17Z</time>
      </trkpt>
      <trkpt lat="59.8935182" lon="17.7028971">
        <ele>28.4962</ele>
        <time>2014-06-01T09:48:18Z</time>
      </trkpt>
      <trkpt lat="59.8934611" lon="17.7028249">
        <ele>28.4962</ele>
        <time>2014-06-01T09:48:19Z</time>
      </trkpt>
      <trkpt lat="59.8934039" lon="17.7027533">
        <ele>28.4962</ele>
        <time>2014-06-01T09:48:20Z</time>
      </trkpt>
      <trkpt lat="59.8933468" lon="17.7026818">
        <ele>28.4962</ele>
        <time>2014-06-01T09:48:21Z</time>
      </trkpt>
      <trkpt lat="59.8932902" lon="17.7026096">
        <ele>28.4962</ele>
        <time>2014-06-01T09:48:22Z</time>
      </trkpt>
      <trkpt lat="59.8932347" lon="17.7025378">
        <ele>28.9769</ele>
        <time>2014-06-01T09:48:23Z</time>
      </trkpt>
      <trkpt lat="59.8931809" lon="17.7024671">
        <ele>28.9769</ele>
        <time>2014-06-01T09:48:24Z</time>
      </trkpt>
      <trkpt lat="59.8931283" lon="17.702399">
        <ele>28.9769</ele>
        <time>2014-06-01T09:48:25Z</time>
      </trkpt>
      <trkpt lat="59.8930769" lon="17.7023325">
        <ele>28.9769</ele>
        <time>2014-06-01T09:48:26Z</time>
      </trkpt>
      <trkpt lat="59.8930266" lon="17.7022658">
        <ele>28.9769</ele>
        <time>2014-06-01T09:48:27Z</time>
      </trkpt>
      <trkpt lat="59.8929771" lon="17.7022007">
        <ele>28.9769</ele>
        <time>2014-06-01T09:48:28Z</time>
      </trkpt>
      <trkpt lat="59.8929283" lon="17.702137">
        <ele>28.9769</ele>
        <time>2014-06-01T09:48:29Z</time>
      </trkpt>
      <trkpt lat="59.8928801" lon="17.7020746">
        <ele>28.9769</ele>
        <time>2014-06-01T09:48:30Z</time>
      </trkpt>
      <trkpt lat="59.8928319" lon="17.7020147">
        <ele>28.9769</ele>
        <time>2014-06-01T09:48:31Z</time>
      </trkpt>
      <trkpt lat="59.8927825" lon="17.701961">
        <ele>28.9769</ele>
        <time>2014-06-01T09:48:32Z</time>
      </trkpt>
      <trkpt lat="59.8927319" lon="17.7019142">
        <ele>28.9769</ele>
        <time>2014-06-01T09:48:33Z</time>
      </trkpt>
      <trkpt lat="59.8926823" lon="17.7018666">
        <ele>28.4962</ele>
        <time>2014-06-01T09:48:34Z</time>
      </trkpt>
      <trkpt lat="59.892635" lon="17.7018119">
        <ele>28.4962</ele>
        <time>2014-06-01T09:48:35Z</time>
      </trkpt>
      <trkpt lat="59.8925905" lon="17.7017504">
        <ele>28.4962</ele>
        <time>2014-06-01T09:48:36Z</time>
      </trkpt>
      <trkpt lat="59.8925481" lon="17.7016861">
        <ele>28.4962</ele>
        <time>2014-06-01T09:48:37Z</time>
      </trkpt>
      <trkpt lat="59.892508" lon="17.7016193">
        <ele>28.4962</ele>
        <time>2014-06-01T09:48:38Z</time>
      </trkpt>
      <trkpt lat="59.8924704" lon="17.7015508">
        <ele>28.4962</ele>
        <time>2014-06-01T09:48:39Z</time>
      </trkpt>
      <trkpt lat="59.8924337" lon="17.7014884">
        <ele>28.0155</ele>
        <time>2014-06-01T09:48:40Z</time>
      </trkpt>
      <trkpt lat="59.8923984" lon="17.7014375">
        <ele>28.0155</ele>
        <time>2014-06-01T09:48:41Z</time>
      </trkpt>
      <trkpt lat="59.8923666" lon="17.7013944">
        <ele>28.0155</ele>
        <time>2014-06-01T09:48:42Z</time>
      </trkpt>
      <trkpt lat="59.8923384" lon="17.7013563">
        <ele>28.0155</ele>
        <time>2014-06-01T09:48:43Z</time>
      </trkpt>
      <trkpt lat="59.8923156" lon="17.7013246">
        <ele>28.0155</ele>
        <time>2014-06-01T09:48:44Z</time>
      </trkpt>
      <trkpt lat="59.8922978" lon="17.7012962">
        <ele>28.0155</ele>
        <time>2014-06-01T09:48:45Z</time>
      </trkpt>
      <trkpt lat="59.8922879" lon="17.7012624">
        <ele>28.0155</ele>
        <time>2014-06-01T09:48:46Z</time>
      </trkpt>
      <trkpt lat="59.8922887" lon="17.7012303">
        <ele>28.0155</ele>
        <time>2014-06-01T09:48:47Z</time>
      </trkpt>
      <trkpt lat="59.8922985" lon="17.7012117">
        <ele>27.5349</ele>
        <time>2014-06-01T09:48:48Z</time>
      </trkpt>
      <trkpt lat="59.8923112" lon="17.7012054">
        <ele>27.0543</ele>
        <time>2014-06-01T09:48:49Z</time>
      </trkpt>
      <trkpt lat="59.8923248" lon="17.7012097">
        <ele>27.0543</ele>
        <time>2014-06-01T09:48:50Z</time>
      </trkpt>
      <trkpt lat="59.8923396" lon="17.7012172">
        <ele>26.5736</ele>
        <time>2014-06-01T09:48:51Z</time>
      </trkpt>
      <trkpt lat="59.8923564" lon="17.7012162">
        <ele>26.5736</ele>
        <time>2014-06-01T09:48:52Z</time>
      </trkpt>
      <trkpt lat="59.8923714" lon="17.7011945">
        <ele>26.0929</ele>
        <time>2014-06-01T09:48:53Z</time>
      </trkpt>
      <trkpt lat="59.8923797" lon="17.7011519">
        <ele>26.0929</ele>
        <time>2014-06-01T09:48:54Z</time>
      </trkpt>
      <trkpt lat="59.8923853" lon="17.7010996">
        <ele>26.0929</ele>
        <time>2014-06-01T09:48:55Z</time>
      </trkpt>
      <trkpt lat="59.8923925" lon="17.701044">
        <ele>25.6123</ele>
        <time>2014-06-01T09:48:56Z</time>
      </trkpt>
      <trkpt lat="59.8924039" lon="17.70099">
        <ele>25.6123</ele>
        <time>2014-06-01T09:48:57Z</time>
      </trkpt>
      <trkpt lat="59.8924227" lon="17.7009422">
        <ele>25.6123</ele>
        <time>2014-06-01T09:48:58Z</time>
      </trkpt>
      <trkpt lat="59.8924393" lon="17.7009081">
        <ele>25.6123</ele>
        <time>2014-06-01T09:48:59Z</time>
      </trkpt>
      <trkpt lat="59.8924549" lon="17.7008951">
        <ele>25.1317</ele>
        <time>2014-06-01T09:49:00Z</time>
      </trkpt>
      <trkpt lat="59.8924692" lon="17.700889">
        <ele>25.1317</ele>
        <time>2014-06-01T09:49:01Z</time>
      </trkpt>
      <trkpt lat="59.8924814" lon="17.7008686">
        <ele>25.1317</ele>
        <time>2014-06-01T09:49:02Z</time>
      </trkpt>
      <trkpt lat="59.8924919" lon="17.7008329">
        <ele>24.651</ele>
        <time>2014-06-01T09:49:03Z</time>
      </trkpt>
      <trkpt lat="59.8925026" lon="17.7007862">
        <ele>25.1317</ele>
        <time>2014-06-01T09:49:04Z</time>
      </trkpt>
      <trkpt lat="59.8925154" lon="17.700733">
        <ele>25.1317</ele>
        <time>2014-06-01T09:49:05Z</time>
      </trkpt>
      <trkpt lat="59.8925363" lon="17.7006796">
        <ele>25.1317</ele>
        <time>2014-06-01T09:49:06Z</time>
      </trkpt>
      <trkpt lat="59.8925624" lon="17.7006242">
        <ele>24.651</ele>
        <time>2014-06-01T09:49:07Z</time>
      </trkpt>
      <trkpt lat="59.8925895" lon="17.7005625">
        <ele>24.651</ele>
        <time>2014-06-01T09:49:08Z</time>
      </trkpt>
      <trkpt lat="59.892618" lon="17.7004966">
        <ele>24.651</ele>
        <time>2014-06-01T09:49:09Z</time>
      </trkpt>
      <trkpt lat="59.8926464" lon="17.7004284">
        <ele>24.651</ele>
        <time>2014-06-01T09:49:10Z</time>
      </trkpt>
      <trkpt lat="59.8926745" lon="17.7003578">
        <ele>24.651</ele>
        <time>2014-06-01T09:49:11Z</time>
      </trkpt>
      <trkpt lat="59.8927038" lon="17.7002855">
        <ele>24.651</ele>
        <time>2014-06-01T09:49:12Z</time>
      </trkpt>
      <trkpt lat="59.8927356" lon="17.7002154">
        <ele>24.651</ele>
        <time>2014-06-01T09:49:13Z</time>
      </trkpt>
      <trkpt lat="59.8927682" lon="17.7001461">
        <ele>24.651</ele>
        <time>2014-06-01T09:49:14Z</time>
      </trkpt>
      <trkpt lat="59.8928014" lon="17.7000735">
        <ele>24.651</ele>
        <time>2014-06-01T09:49:15Z</time>
      </trkpt>
      <trkpt lat="59.8928345" lon="17.6999978">
        <ele>24.651</ele>
        <time>2014-06-01T09:49:16Z</time>
      </trkpt>
      <trkpt lat="59.8928672" lon="17.6999217">
        <ele>24.651</ele>
        <time>2014-06-01T09:49:17Z</time>
      </trkpt>
      <trkpt lat="59.8929009" lon="17.6998462">
        <ele>25.1317</ele>
        <time>2014-06-01T09:49:18Z</time>
      </trkpt>
      <trkpt lat="59.8929355" lon="17.6997702">
        <ele>25.1317</ele>
        <time>2014-06-01T09:49:19Z</time>
      </trkpt>
      <trkpt lat="59.8929706" lon="17.6996937">
        <ele>25.1317</ele>
        <time>2014-06-01T09:49:20Z</time>
      </trkpt>
      <trkpt lat="59.8930074" lon="17.6996178">
        <ele>25.1317</ele>
        <time>2014-06-01T09:49:21Z</time>
      </trkpt>
      <trkpt lat="59.8930433" lon="17.6995406">
        <ele>25.1317</ele>
        <time>2014-06-01T09:49:22Z</time>
      </trkpt>
      <trkpt lat="59.8930775" lon="17.6994607">
        <ele>25.1317</ele>
        <time>2014-06-01T09:49:23Z</time>
      </trkpt>
      <trkpt lat="59.8931111" lon="17.6993803">
        <ele>25.6123</ele>
        <time>2014-06-01T09:49:24Z</time>
      </trkpt>
      <trkpt lat="59.8931453" lon="17.6993003">
        <ele>25.6123</ele>
        <time>2014-06-01T09:49:25Z</time>
      </trkpt>
      <trkpt lat="59.8931785" lon="17.6992195">
        <ele>25.6123</ele>
        <time>2014-06-01T09:49:26Z</time>
      </trkpt>
      <trkpt lat="59.8932044" lon="17.6991304">
        <ele>25.6123</ele>
        <time>2014-06-01T09:49:27Z</time>
      </trkpt>
      <trkpt lat="59.8932178" lon="17.6990325">
        <ele>25.6123</ele>
        <time>2014-06-01T09:49:28Z</time>
      </trkpt>
      <trkpt lat="59.893222" lon="17.698931">
        <ele>25.6123</ele>
        <time>2014-06-01T09:49:29Z</time>
      </trkpt>
      <trkpt lat="59.8932288" lon="17.6988291">
        <ele>26.0929</ele>
        <time>2014-06-01T09:49:30Z</time>
      </trkpt>
      <trkpt lat="59.8932479" lon="17.6987328">
        <ele>26.0929</ele>
        <time>2014-06-01T09:49:31Z</time>
      </trkpt>
      <trkpt lat="59.8932804" lon="17.6986506">
        <ele>26.0929</ele>
        <time>2014-06-01T09:49:32Z</time>
      </trkpt>
      <trkpt lat="59.8933208" lon="17.6985813">
        <ele>26.0929</ele>
        <time>2014-06-01T09:49:33Z</time>
      </trkpt>
      <trkpt lat="59.8933628" lon="17.6985145">
        <ele>26.5736</ele>
        <time>2014-06-01T09:49:34Z</time>
      </trkpt>
      <trkpt lat="59.8934042" lon="17.6984465">
        <ele>26.5736</ele>
        <time>2014-06-01T09:49:35Z</time>
      </trkpt>
      <trkpt lat="59.8934442" lon="17.6983749">
        <ele>26.5736</ele>
        <time>2014-06-01T09:49:36Z</time>
      </trkpt>
      <trkpt lat="59.8934823" lon="17.6982984">
        <ele>26.5736</ele>
        <time>2014-06-01T09:49:37Z</time>
      </trkpt>
      <trkpt lat="59.8935188" lon="17.6982176">
        <ele>26.5736</ele>
        <time>2014-06-01T09:49:38Z</time>
      </trkpt>
      <trkpt lat="59.893553" lon="17.6981321">
        <ele>26.5736</ele>
        <time>2014-06-01T09:49:39Z</time>
      </trkpt>
      <trkpt lat="59.893585" lon="17.6980415">
        <ele>27.0543</ele>
        <time>2014-06-01T09:49:40Z</time>
      </trkpt>
      <trkpt lat="59.8936135" lon="17.6979451">
        <ele>27.0543</ele>
        <time>2014-06-01T09:49:41Z</time>
      </trkpt>
      <trkpt lat="59.8936389" lon="17.6978444">
        <ele>27.0543</ele>
        <time>2014-06-01T09:49:42Z</time>
      </trkpt>
      <trkpt lat="59.8936611" lon="17.6977401">
        <ele>27.0543</ele>
        <time>2014-06-01T09:49:43Z</time>
      </trkpt>
      <trkpt lat="59.893681" lon="17.6976348">
        <ele>27.0543</ele>
        <time>2014-06-01T09:49:44Z</time>
      </trkpt>
      <trkpt lat="59.8937" lon="17.6975292">
        <ele>27.0543</ele>
        <time>2014-06-01T09:49:45Z</time>
      </trkpt>
      <trkpt lat="59.8937172" lon="17.6974219">
        <ele>27.0543</ele>
        <time>2014-06-01T09:49:46Z</time>
      </trkpt>
      <trkpt lat="59.8937322" lon="17.6973132">
        <ele>27.0543</ele>
        <time>2014-06-01T09:49:47Z</time>
      </trkpt>
      <trkpt lat="59.8937447" lon="17.6972032">
        <ele>26.5736</ele>
        <time>2014-06-01T09:49:48Z</time>
      </trkpt>
      <trkpt lat="59.8937555" lon="17.6970923">
        <ele>26.5736</ele>
        <time>2014-06-01T09:49:49Z</time>
      </trkpt>
      <trkpt lat="59.8937647" lon="17.696981">
        <ele>26.5736</ele>
        <time>2014-06-01T09:49:50Z</time>
      </trkpt>
      <trkpt lat="59.8937712" lon="17.6968697">
        <ele>26.5736</ele>
        <time>2014-06-01T09:49:51Z</time>
      </trkpt>
      <trkpt lat="59.8937764" lon="17.6967594">
        <ele>27.0543</ele>
        <time>2014-06-01T09:49:52Z</time>
      </trkpt>
      <trkpt lat="59.8937782" lon="17.696651">
        <ele>27.0543</ele>
        <time>2014-06-01T09:49:53Z</time>
      </trkpt>
      <trkpt lat="59.8937771" lon="17.6965435">
        <ele>27.0543</ele>
        <time>2014-06-01T09:49:54Z</time>
      </trkpt>
      <trkpt lat="59.8937789" lon="17.6964377">
        <ele>27.0543</ele>
        <time>2014-06-01T09:49:55Z</time>
      </trkpt>
      <trkpt lat="59.8937793" lon="17.6963321">
        <ele>26.0929</ele>
        <time>2014-06-01T09:49:56Z</time>
      </trkpt>
      <trkpt lat="59.8937798" lon="17.6962216">
        <ele>26.0929</ele>
        <time>2014-06-01T09:49:57Z</time>
      </trkpt>
      <trkpt lat="59.8937828" lon="17.696104">
        <ele>25.6123</ele>
        <time>2014-06-01T09:49:58Z</time>
      </trkpt>
      <trkpt lat="59.8937851" lon="17.6959816">
        <ele>25.1317</ele>
        <time>2014-06-01T09:49:59Z</time>
      </trkpt>
      <trkpt lat="59.8937875" lon="17.6958534">
        <ele>24.651</ele>
        <time>2014-06-01T09:50:00Z</time>
      </trkpt>
      <trkpt lat="59.8937907" lon="17.6957224">
        <ele>24.651</ele>
        <time>2014-06-01T09:50:01Z</time>
      </trkpt>
      <trkpt lat="59.8937942" lon="17.6955857">
        <ele>24.1703</ele>
        <time>2014-06-01T09:50:02Z</time>
      </trkpt>
      <trkpt lat="59.893797" lon="17.695442">
        <ele>23.6896</ele>
        <time>2014-06-01T09:50:03Z</time>
      </trkpt>
      <trkpt lat="59.8937991" lon="17.6952942">
        <ele>23.209</ele>
        <time>2014-06-01T09:50:04Z</time>
      </trkpt>
      <trkpt lat="59.8938014" lon="17.6951437">
        <ele>23.209</ele>
        <time>2014-06-01T09:50:05Z</time>
      </trkpt>
      <trkpt lat="59.8938032" lon="17.6949933">
        <ele>23.209</ele>
        <time>2014-06-01T09:50:06Z</time>
      </trkpt>
      <trkpt lat="59.8938052" lon="17.6948449">
        <ele>23.209</ele>
        <time>2014-06-01T09:50:07Z</time>
      </trkpt>
      <trkpt lat="59.8938073" lon="17.6946997">
        <ele>22.7283</ele>
        <time>2014-06-01T09:50:08Z</time>
      </trkpt>
      <trkpt lat="59.8938099" lon="17.6945577">
        <ele>22.7283</ele>
        <time>2014-06-01T09:50:09Z</time>
      </trkpt>
      <trkpt lat="59.8938159" lon="17.6944175">
        <ele>23.209</ele>
        <time>2014-06-01T09:50:10Z</time>
      </trkpt>
      <trkpt lat="59.8938209" lon="17.6942789">
        <ele>23.6896</ele>
        <time>2014-06-01T09:50:11Z</time>
      </trkpt>
      <trkpt lat="59.8938256" lon="17.6941414">
        <ele>23.6896</ele>
        <time>2014-06-01T09:50:12Z</time>
      </trkpt>
      <trkpt lat="59.8938312" lon="17.6940047">
        <ele>24.1703</ele>
        <time>2014-06-01T09:50:13Z</time>
      </trkpt>
      <trkpt lat="59.8938372" lon="17.6938689">
        <ele>24.1703</ele>
        <time>2014-06-01T09:50:14Z</time>
      </trkpt>
      <trkpt lat="59.8938429" lon="17.6937341">
        <ele>24.651</ele>
        <time>2014-06-01T09:50:15Z</time>
      </trkpt>
      <trkpt lat="59.8938478" lon="17.6936011">
        <ele>24.651</ele>
        <time>2014-06-01T09:50:16Z</time>
      </trkpt>
      <trkpt lat="59.8938527" lon="17.6934699">
        <ele>25.1317</ele>
        <time>2014-06-01T09:50:17Z</time>
      </trkpt>
      <trkpt lat="59.8938582" lon="17.6933406">
        <ele>25.1317</ele>
        <time>2014-06-01T09:50:18Z</time>
      </trkpt>
      <trkpt lat="59.8938638" lon="17.6932146">
        <ele>25.1317</ele>
        <time>2014-06-01T09:50:19Z</time>
      </trkpt>
      <trkpt lat="59.8938681" lon="17.6930884">
        <ele>25.1317</ele>
        <time>2014-06-01T09:50:20Z</time>
      </trkpt>
      <trkpt lat="59.8938719" lon="17.6929617">
        <ele>25.1317</ele>
        <time>2014-06-01T09:50:21Z</time>
      </trkpt>
      <trkpt lat="59.8938757" lon="17.6928337">
        <ele>25.1317</ele>
        <time>2014-06-01T09:50:22Z</time>
      </trkpt>
      <trkpt lat="59.8938803" lon="17.6927047">
        <ele>25.1317</ele>
        <time>2014-06-01T09:50:23Z</time>
      </trkpt>
      <trkpt lat="59.8938846" lon="17.6925757">
        <ele>25.6123</ele>
        <time>2014-06-01T09:50:24Z</time>
      </trkpt>
      <trkpt lat="59.8938867" lon="17.6924449">
        <ele>25.6123</ele>
        <time>2014-06-01T09:50:25Z</time>
      </trkpt>
      <trkpt lat="59.8938856" lon="17.6923144">
        <ele>26.0929</ele>
        <time>2014-06-01T09:50:26Z</time>
      </trkpt>
      <trkpt lat="59.8938854" lon="17.6921864">
        <ele>26.0929</ele>
        <time>2014-06-01T09:50:27Z</time>
      </trkpt>
      <trkpt lat="59.893883" lon="17.6920636">
        <ele>26.0929</ele>
        <time>2014-06-01T09:50:28Z</time>
      </trkpt>
      <trkpt lat="59.8938808" lon="17.6919434">
        <ele>26.0929</ele>
        <time>2014-06-01T09:50:29Z</time>
      </trkpt>
      <trkpt lat="59.8938794" lon="17.6918259">
        <ele>26.0929</ele>
        <time>2014-06-01T09:50:30Z</time>
      </trkpt>
      <trkpt lat="59.8938814" lon="17.6917119">
        <ele>26.0929</ele>
        <time>2014-06-01T09:50:31Z</time>
      </trkpt>
      <trkpt lat="59.8938861" lon="17.691601">
        <ele>26.0929</ele>
        <time>2014-06-01T09:50:32Z</time>
      </trkpt>
      <trkpt lat="59.8938907" lon="17.6914902">
        <ele>26.0929</ele>
        <time>2014-06-01T09:50:33Z</time>
      </trkpt>
      <trkpt lat="59.8938963" lon="17.6913784">
        <ele>26.0929</ele>
        <time>2014-06-01T09:50:34Z</time>
      </trkpt>
      <trkpt lat="59.8939036" lon="17.6912685">
        <ele>26.0929</ele>
        <time>2014-06-01T09:50:35Z</time>
      </trkpt>
      <trkpt lat="59.8939121" lon="17.6911577">
        <ele>26.0929</ele>
        <time>2014-06-01T09:50:36Z</time>
      </trkpt>
      <trkpt lat="59.893923" lon="17.6910488">
        <ele>26.0929</ele>
        <time>2014-06-01T09:50:37Z</time>
      </trkpt>
      <trkpt lat="59.8939358" lon="17.6909405">
        <ele>26.0929</ele>
        <time>2014-06-01T09:50:38Z</time>
      </trkpt>
      <trkpt lat="59.8939522" lon="17.6908318">
        <ele>26.0929</ele>
        <time>2014-06-01T09:50:39Z</time>
      </trkpt>
      <trkpt lat="59.8939696" lon="17.6907238">
        <ele>26.0929</ele>
        <time>2014-06-01T09:50:40Z</time>
      </trkpt>
      <trkpt lat="59.8939866" lon="17.6906145">
        <ele>26.0929</ele>
        <time>2014-06-01T09:50:41Z</time>
      </trkpt>
      <trkpt lat="59.8940021" lon="17.6905025">
        <ele>26.5736</ele>
        <time>2014-06-01T09:50:42Z</time>
      </trkpt>
      <trkpt lat="59.8940166" lon="17.6903916">
        <ele>27.0543</ele>
        <time>2014-06-01T09:50:43Z</time>
      </trkpt>
      <trkpt lat="59.8940353" lon="17.6902832">
        <ele>27.5349</ele>
        <time>2014-06-01T09:50:44Z</time>
      </trkpt>
      <trkpt lat="59.8940478" lon="17.6901795">
        <ele>28.0155</ele>
        <time>2014-06-01T09:50:45Z</time>
      </trkpt>
      <trkpt lat="59.8940601" lon="17.6900761">
        <ele>28.0155</ele>
        <time>2014-06-01T09:50:46Z</time>
      </trkpt>
      <trkpt lat="59.8940752" lon="17.6899714">
        <ele>28.0155</ele>
        <time>2014-06-01T09:50:47Z</time>
      </trkpt>
      <trkpt lat="59.8940912" lon="17.6898673">
        <ele>28.0155</ele>
        <time>2014-06-01T09:50:48Z</time>
      </trkpt>
      <trkpt lat="59.8941057" lon="17.6897633">
        <ele>28.0155</ele>
        <time>2014-06-01T09:50:49Z</time>
      </trkpt>
      <trkpt lat="59.8941191" lon="17.6896558">
        <ele>27.5349</ele>
        <time>2014-06-01T09:50:50Z</time>
      </trkpt>
      <trkpt lat="59.8941348" lon="17.6895431">
        <ele>27.5349</ele>
        <time>2014-06-01T09:50:51Z</time>
      </trkpt>
      <trkpt lat="59.8941493" lon="17.689429">
        <ele>28.0155</ele>
        <time>2014-06-01T09:50:52Z</time>
      </trkpt>
      <trkpt lat="59.8941631" lon="17.6893129">
        <ele>28.0155</ele>
        <time>2014-06-01T09:50:53Z</time>
      </trkpt>
      <trkpt lat="59.8941776" lon="17.6891965">
        <ele>28.4962</ele>
        <time>2014-06-01T09:50:54Z</time>
      </trkpt>
      <trkpt lat="59.8941923" lon="17.6890787">
        <ele>28.4962</ele>
        <time>2014-06-01T09:50:55Z</time>
      </trkpt>
      <trkpt lat="59.8942083" lon="17.6889591">
        <ele>28.4962</ele>
        <time>2014-06-01T09:50:56Z</time>
      </trkpt>
      <trkpt lat="59.8942242" lon="17.6888378">
        <ele>28.4962</ele>
        <time>2014-06-01T09:50:57Z</time>
      </trkpt>
      <trkpt lat="59.8942394" lon="17.6887153">
        <ele>28.4962</ele>
        <time>2014-06-01T09:50:58Z</time>
      </trkpt>
      <trkpt lat="59.8942573" lon="17.6885939">
        <ele>28.4962</ele>
        <time>2014-06-01T09:50:59Z</time>
      </trkpt>
      <trkpt lat="59.8942798" lon="17.6884703">
        <ele>28.0155</ele>
        <time>2014-06-01T09:51:00Z</time>
      </trkpt>
      <trkpt lat="59.8943046" lon="17.6883421">
        <ele>27.5349</ele>
        <time>2014-06-01T09:51:01Z</time>
      </trkpt>
      <trkpt lat="59.8943321" lon="17.6882112">
        <ele>27.5349</ele>
        <time>2014-06-01T09:51:02Z</time>
      </trkpt>
      <trkpt lat="59.8943617" lon="17.6880801">
        <ele>27.0543</ele>
        <time>2014-06-01T09:51:03Z</time>
      </trkpt>
      <trkpt lat="59.8943928" lon="17.6879479">
        <ele>27.0543</ele>
        <time>2014-06-01T09:51:04Z</time>
      </trkpt>
      <trkpt lat="59.8944238" lon="17.687815">
        <ele>27.0543</ele>
        <time>2014-06-01T09:51:05Z</time>
      </trkpt>
      <trkpt lat="59.8944538" lon="17.6876818">
        <ele>26.5736</ele>
        <time>2014-06-01T09:51:06Z</time>
      </trkpt>
      <trkpt lat="59.8944831" lon="17.6875469">
        <ele>26.5736</ele>
        <time>2014-06-01T09:51:07Z</time>
      </trkpt>
      <trkpt lat="59.8945107" lon="17.6874109">
        <ele>26.5736</ele>
        <time>2014-06-01T09:51:08Z</time>
      </trkpt>
      <trkpt lat="59.8945379" lon="17.6872751">
        <ele>26.5736</ele>
        <time>2014-06-01T09:51:09Z</time>
      </trkpt>
      <trkpt lat="59.8945655" lon="17.6871393">
        <ele>26.5736</ele>
        <time>2014-06-01T09:51:10Z</time>
      </trkpt>
      <trkpt lat="59.8945916" lon="17.6870026">
        <ele>26.5736</ele>
        <time>2014-06-01T09:51:11Z</time>
      </trkpt>
      <trkpt lat="59.8946149" lon="17.6868644">
        <ele>26.5736</ele>
        <time>2014-06-01T09:51:12Z</time>
      </trkpt>
      <trkpt lat="59.894636" lon="17.686725">
        <ele>26.5736</ele>
        <time>2014-06-01T09:51:13Z</time>
      </trkpt>
      <trkpt lat="59.8946562" lon="17.6865844">
        <ele>26.5736</ele>
        <time>2014-06-01T09:51:14Z</time>
      </trkpt>
      <trkpt lat="59.894676" lon="17.6864416">
        <ele>26.5736</ele>
        <time>2014-06-01T09:51:15Z</time>
      </trkpt>
      <trkpt lat="59.894694" lon="17.686297">
        <ele>27.0543</ele>
        <time>2014-06-01T09:51:16Z</time>
      </trkpt>
      <trkpt lat="59.894709" lon="17.6861517">
        <ele>27.0543</ele>
        <time>2014-06-01T09:51:17Z</time>
      </trkpt>
      <trkpt lat="59.8947201" lon="17.6860059">
        <ele>27.0543</ele>
        <time>2014-06-01T09:51:18Z</time>
      </trkpt>
      <trkpt lat="59.8947297" lon="17.685861">
        <ele>27.5349</ele>
        <time>2014-06-01T09:51:19Z</time>
      </trkpt>
      <trkpt lat="59.8947398" lon="17.6857196">
        <ele>27.5349</ele>
        <time>2014-06-01T09:51:20Z</time>
      </trkpt>
      <trkpt lat="59.8947486" lon="17.6855807">
        <ele>27.5349</ele>
        <time>2014-06-01T09:51:21Z</time>
      </trkpt>
      <trkpt lat="59.8947572" lon="17.6854449">
        <ele>27.5349</ele>
        <time>2014-06-01T09:51:22Z</time>
      </trkpt>
      <trkpt lat="59.8947641" lon="17.6853093">
        <ele>27.5349</ele>
        <time>2014-06-01T09:51:23Z</time>
      </trkpt>
      <trkpt lat="59.8947722" lon="17.6851716">
        <ele>27.5349</ele>
        <time>2014-06-01T09:51:24Z</time>
      </trkpt>
      <trkpt lat="59.8947857" lon="17.6850349">
        <ele>27.5349</ele>
        <time>2014-06-01T09:51:25Z</time>
      </trkpt>
      <trkpt lat="59.8947976" lon="17.6848996">
        <ele>27.0543</ele>
        <time>2014-06-01T09:51:26Z</time>
      </trkpt>
      <trkpt lat="59.8948096" lon="17.6847638">
        <ele>27.0543</ele>
        <time>2014-06-01T09:51:27Z</time>
      </trkpt>
      <trkpt lat="59.8948209" lon="17.6846297">
        <ele>26.5736</ele>
        <time>2014-06-01T09:51:28Z</time>
      </trkpt>
      <trkpt lat="59.8948313" lon="17.6844981">
        <ele>26.5736</ele>
        <time>2014-06-01T09:51:29Z</time>
      </trkpt>
      <trkpt lat="59.8948416" lon="17.6843707">
        <ele>26.5736</ele>
        <time>2014-06-01T09:51:30Z</time>
      </trkpt>
      <trkpt lat="59.8948525" lon="17.6842469">
        <ele>26.0929</ele>
        <time>2014-06-01T09:51:31Z</time>
      </trkpt>
      <trkpt lat="59.8948631" lon="17.6841225">
        <ele>26.0929</ele>
        <time>2014-06-01T09:51:32Z</time>
      </trkpt>
      <trkpt lat="59.8948764" lon="17.6839968">
        <ele>25.6123</ele>
        <time>2014-06-01T09:51:33Z</time>
      </trkpt>
      <trkpt lat="59.8948978" lon="17.6838699">
        <ele>25.1317</ele>
        <time>2014-06-01T09:51:34Z</time>
      </trkpt>
      <trkpt lat="59.8949273" lon="17.683744">
        <ele>25.1317</ele>
        <time>2014-06-01T09:51:35Z</time>
      </trkpt>
      <trkpt lat="59.8949698" lon="17.6836227">
        <ele>25.1317</ele>
        <time>2014-06-01T09:51:36Z</time>
      </trkpt>
      <trkpt lat="59.8950224" lon="17.6835154">
        <ele>25.1317</ele>
        <time>2014-06-01T09:51:37Z</time>
      </trkpt>
      <trkpt lat="59.8950818" lon="17.6834191">
        <ele>25.1317</ele>
        <time>2014-06-01T09:51:38Z</time>
      </trkpt>
      <trkpt lat="59.8951417" lon="17.6833346">
        <ele>25.1317</ele>
        <time>2014-06-01T09:51:39Z</time>
      </trkpt>
      <trkpt lat="59.8952003" lon="17.6832588">
        <ele>25.1317</ele>
        <time>2014-06-01T09:51:40Z</time>
      </trkpt>
      <trkpt lat="59.8952578" lon="17.6831868">
        <ele>25.1317</ele>
        <time>2014-06-01T09:51:41Z</time>
      </trkpt>
      <trkpt lat="59.8953147" lon="17.6831145">
        <ele>25.1317</ele>
        <time>2014-06-01T09:51:42Z</time>
      </trkpt>
      <trkpt lat="59.8953698" lon="17.6830412">
        <ele>25.1317</ele>
        <time>2014-06-01T09:51:43Z</time>
      </trkpt>
      <trkpt lat="59.8954255" lon="17.6829682">
        <ele>25.6123</ele>
        <time>2014-06-01T09:51:44Z</time>
      </trkpt>
      <trkpt lat="59.8954847" lon="17.6828968">
        <ele>26.0929</ele>
        <time>2014-06-01T09:51:45Z</time>
      </trkpt>
      <trkpt lat="59.8955435" lon="17.6828305">
        <ele>26.5736</ele>
        <time>2014-06-01T09:51:46Z</time>
      </trkpt>
      <trkpt lat="59.8956029" lon="17.6827699">
        <ele>27.0543</ele>
        <time>2014-06-01T09:51:47Z</time>
      </trkpt>
      <trkpt lat="59.8956621" lon="17.6827217">
        <ele>27.5349</ele>
        <time>2014-06-01T09:51:48Z</time>
      </trkpt>
      <trkpt lat="59.8957199" lon="17.6826844">
        <ele>28.0155</ele>
        <time>2014-06-01T09:51:49Z</time>
      </trkpt>
      <trkpt lat="59.8957797" lon="17.6826503">
        <ele>28.4962</ele>
        <time>2014-06-01T09:51:50Z</time>
      </trkpt>
      <trkpt lat="59.8958374" lon="17.682617">
        <ele>28.4962</ele>
        <time>2014-06-01T09:51:51Z</time>
      </trkpt>
      <trkpt lat="59.895893" lon="17.6825813">
        <ele>28.9769</ele>
        <time>2014-06-01T09:51:52Z</time>
      </trkpt>
      <trkpt lat="59.8959482" lon="17.6825364">
        <ele>28.9769</ele>
        <time>2014-06-01T09:51:53Z</time>
      </trkpt>
      <trkpt lat="59.8960048" lon="17.6824834">
        <ele>29.4575</ele>
        <time>2014-06-01T09:51:54Z</time>
      </trkpt>
      <trkpt lat="59.8960622" lon="17.6824302">
        <ele>29.4575</ele>
        <time>2014-06-01T09:51:55Z</time>
      </trkpt>
      <trkpt lat="59.8961209" lon="17.6823788">
        <ele>28.9769</ele>
        <time>2014-06-01T09:51:56Z</time>
      </trkpt>
      <trkpt lat="59.8961789" lon="17.6823246">
        <ele>28.4962</ele>
        <time>2014-06-01T09:51:57Z</time>
      </trkpt>
      <trkpt lat="59.8962356" lon="17.6822624">
        <ele>28.0155</ele>
        <time>2014-06-01T09:51:58Z</time>
      </trkpt>
      <trkpt lat="59.8962926" lon="17.6821941">
        <ele>27.5349</ele>
        <time>2014-06-01T09:51:59Z</time>
      </trkpt>
      <trkpt lat="59.8963511" lon="17.6821246">
        <ele>26.5736</ele>
        <time>2014-06-01T09:52:00Z</time>
      </trkpt>
      <trkpt lat="59.8964145" lon="17.6820501">
        <ele>26.5736</ele>
        <time>2014-06-01T09:52:01Z</time>
      </trkpt>
      <trkpt lat="59.8964786" lon="17.6819741">
        <ele>26.0929</ele>
        <time>2014-06-01T09:52:02Z</time>
      </trkpt>
      <trkpt lat="59.896542" lon="17.6818951">
        <ele>26.0929</ele>
        <time>2014-06-01T09:52:03Z</time>
      </trkpt>
      <trkpt lat="59.8966056" lon="17.6818143">
        <ele>26.0929</ele>
        <time>2014-06-01T09:52:04Z</time>
      </trkpt>
      <trkpt lat="59.8966698" lon="17.6817293">
        <ele>26.5736</ele>
        <time>2014-06-01T09:52:05Z</time>
      </trkpt>
      <trkpt lat="59.8967305" lon="17.6816402">
        <ele>26.5736</ele>
        <time>2014-06-01T09:52:06Z</time>
      </trkpt>
      <trkpt lat="59.8967889" lon="17.6815457">
        <ele>26.0929</ele>
        <time>2014-06-01T09:52:07Z</time>
      </trkpt>
      <trkpt lat="59.8968468" lon="17.6814434">
        <ele>26.5736</ele>
        <time>2014-06-01T09:52:08Z</time>
      </trkpt>
      <trkpt lat="59.8969028" lon="17.6813356">
        <ele>26.5736</ele>
        <time>2014-06-01T09:52:09Z</time>
      </trkpt>
      <trkpt lat="59.8969573" lon="17.6812277">
        <ele>26.5736</ele>
        <time>2014-06-01T09:52:10Z</time>
      </trkpt>
      <trkpt lat="59.8970112" lon="17.681121">
        <ele>26.5736</ele>
        <time>2014-06-01T09:52:11Z</time>
      </trkpt>
      <trkpt lat="59.8970625" lon="17.6810092">
        <ele>27.0543</ele>
        <time>2014-06-01T09:52:12Z</time>
      </trkpt>
      <trkpt lat="59.8971108" lon="17.6808917">
        <ele>27.0543</ele>
        <time>2014-06-01T09:52:13Z</time>
      </trkpt>
      <trkpt lat="59.8971582" lon="17.6807732">
        <ele>27.0543</ele>
        <time>2014-06-01T09:52:14Z</time>
      </trkpt>
      <trkpt lat="59.8972042" lon="17.6806539">
        <ele>27.0543</ele>
        <time>2014-06-01T09:52:15Z</time>
      </trkpt>
      <trkpt lat="59.8972485" lon="17.6805327">
        <ele>27.5349</ele>
        <time>2014-06-01T09:52:16Z</time>
      </trkpt>
      <trkpt lat="59.8972928" lon="17.6804136">
        <ele>27.5349</ele>
        <time>2014-06-01T09:52:17Z</time>
      </trkpt>
      <trkpt lat="59.8973381" lon="17.680297">
        <ele>27.5349</ele>
        <time>2014-06-01T09:52:18Z</time>
      </trkpt>
      <trkpt lat="59.8973822" lon="17.6801787">
        <ele>27.5349</ele>
        <time>2014-06-01T09:52:19Z</time>
      </trkpt>
      <trkpt lat="59.8974257" lon="17.6800599">
        <ele>28.0155</ele>
        <time>2014-06-01T09:52:20Z</time>
      </trkpt>
      <trkpt lat="59.8974691" lon="17.6799427">
        <ele>28.0155</ele>
        <time>2014-06-01T09:52:21Z</time>
      </trkpt>
      <trkpt lat="59.8975116" lon="17.6798261">
        <ele>28.0155</ele>
        <time>2014-06-01T09:52:22Z</time>
      </trkpt>
      <trkpt lat="59.8975541" lon="17.6797126">
        <ele>28.0155</ele>
        <time>2014-06-01T09:52:23Z</time>
      </trkpt>
      <trkpt lat="59.8975961" lon="17.6796034">
        <ele>28.0155</ele>
        <time>2014-06-01T09:52:24Z</time>
      </trkpt>
      <trkpt lat="59.8976369" lon="17.6794947">
        <ele>28.0155</ele>
        <time>2014-06-01T09:52:25Z</time>
      </trkpt>
      <trkpt lat="59.8976774" lon="17.6793864">
        <ele>28.0155</ele>
        <time>2014-06-01T09:52:26Z</time>
      </trkpt>
      <trkpt lat="59.8977181" lon="17.6792796">
        <ele>28.4962</ele>
        <time>2014-06-01T09:52:27Z</time>
      </trkpt>
      <trkpt lat="59.8977586" lon="17.6791734">
        <ele>28.4962</ele>
        <time>2014-06-01T09:52:28Z</time>
      </trkpt>
      <trkpt lat="59.8977991" lon="17.6790679">
        <ele>28.4962</ele>
        <time>2014-06-01T09:52:29Z</time>
      </trkpt>
      <trkpt lat="59.8978391" lon="17.6789617">
        <ele>28.4962</ele>
        <time>2014-06-01T09:52:30Z</time>
      </trkpt>
      <trkpt lat="59.8978787" lon="17.6788547">
        <ele>28.4962</ele>
        <time>2014-06-01T09:52:31Z</time>
      </trkpt>
      <trkpt lat="59.8979183" lon="17.6787483">
        <ele>28.4962</ele>
        <time>2014-06-01T09:52:32Z</time>
      </trkpt>
      <trkpt lat="59.8979574" lon="17.6786419">
        <ele>28.4962</ele>
        <time>2014-06-01T09:52:33Z</time>
      </trkpt>
      <trkpt lat="59.8979942" lon="17.6785347">
        <ele>28.4962</ele>
        <time>2014-06-01T09:52:34Z</time>
      </trkpt>
      <trkpt lat="59.8980307" lon="17.6784286">
        <ele>28.4962</ele>
        <time>2014-06-01T09:52:35Z</time>
      </trkpt>
      <trkpt lat="59.8980664" lon="17.6783235">
        <ele>28.4962</ele>
        <time>2014-06-01T09:52:36Z</time>
      </trkpt>
      <trkpt lat="59.8981005" lon="17.6782177">
        <ele>28.4962</ele>
        <time>2014-06-01T09:52:37Z</time>
      </trkpt>
      <trkpt lat="59.898132" lon="17.6781088">
        <ele>28.4962</ele>
        <time>2014-06-01T09:52:38Z</time>
      </trkpt>
      <trkpt lat="59.8981615" lon="17.6779951">
        <ele>28.4962</ele>
        <time>2014-06-01T09:52:39Z</time>
      </trkpt>
      <trkpt lat="59.8981885" lon="17.6778775">
        <ele>28.4962</ele>
        <time>2014-06-01T09:52:40Z</time>
      </trkpt>
      <trkpt lat="59.8982135" lon="17.6777577">
        <ele>28.4962</ele>
        <time>2014-06-01T09:52:41Z</time>
      </trkpt>
      <trkpt lat="59.8982374" lon="17.6776355">
        <ele>28.0155</ele>
        <time>2014-06-01T09:52:42Z</time>
      </trkpt>
      <trkpt lat="59.8982595" lon="17.6775117">
        <ele>28.0155</ele>
        <time>2014-06-01T09:52:43Z</time>
      </trkpt>
      <trkpt lat="59.8982796" lon="17.6773868">
        <ele>28.0155</ele>
        <time>2014-06-01T09:52:44Z</time>
      </trkpt>
      <trkpt lat="59.8982974" lon="17.6772613">
        <ele>28.4962</ele>
        <time>2014-06-01T09:52:45Z</time>
      </trkpt>
      <trkpt lat="59.8983135" lon="17.6771362">
        <ele>28.4962</ele>
        <time>2014-06-01T09:52:46Z</time>
      </trkpt>
      <trkpt lat="59.8983283" lon="17.6770128">
        <ele>28.4962</ele>
        <time>2014-06-01T09:52:47Z</time>
      </trkpt>
      <trkpt lat="59.8983405" lon="17.6768912">
        <ele>28.4962</ele>
        <time>2014-06-01T09:52:48Z</time>
      </trkpt>
      <trkpt lat="59.8983512" lon="17.6767725">
        <ele>28.4962</ele>
        <time>2014-06-01T09:52:49Z</time>
      </trkpt>
      <trkpt lat="59.8983616" lon="17.6766562">
        <ele>28.9769</ele>
        <time>2014-06-01T09:52:50Z</time>
      </trkpt>
      <trkpt lat="59.898371" lon="17.6765409">
        <ele>28.9769</ele>
        <time>2014-06-01T09:52:51Z</time>
      </trkpt>
      <trkpt lat="59.8983799" lon="17.6764257">
        <ele>28.9769</ele>
        <time>2014-06-01T09:52:52Z</time>
      </trkpt>
      <trkpt lat="59.898388" lon="17.6763098">
        <ele>29.4575</ele>
        <time>2014-06-01T09:52:53Z</time>
      </trkpt>
      <trkpt lat="59.8983955" lon="17.6761937">
        <ele>29.4575</ele>
        <time>2014-06-01T09:52:54Z</time>
      </trkpt>
      <trkpt lat="59.8984037" lon="17.6760784">
        <ele>29.4575</ele>
        <time>2014-06-01T09:52:55Z</time>
      </trkpt>
      <trkpt lat="59.8984099" lon="17.6759645">
        <ele>29.4575</ele>
        <time>2014-06-01T09:52:56Z</time>
      </trkpt>
      <trkpt lat="59.898414" lon="17.6758525">
        <ele>29.9381</ele>
        <time>2014-06-01T09:52:57Z</time>
      </trkpt>
      <trkpt lat="59.8984181" lon="17.6757423">
        <ele>29.9381</ele>
        <time>2014-06-01T09:52:58Z</time>
      </trkpt>
      <trkpt lat="59.8984228" lon="17.675635">
        <ele>30.4188</ele>
        <time>2014-06-01T09:52:59Z</time>
      </trkpt>
      <trkpt lat="59.8984294" lon="17.675532">
        <ele>30.4188</ele>
        <time>2014-06-01T09:53:00Z</time>
      </trkpt>
      <trkpt lat="59.8984387" lon="17.6754308">
        <ele>30.4188</ele>
        <time>2014-06-01T09:53:01Z</time>
      </trkpt>
      <trkpt lat="59.8984504" lon="17.6753303">
        <ele>30.4188</ele>
        <time>2014-06-01T09:53:02Z</time>
      </trkpt>
      <trkpt lat="59.8984674" lon="17.6752299">
        <ele>30.4188</ele>
        <time>2014-06-01T09:53:03Z</time>
      </trkpt>
      <trkpt lat="59.8984916" lon="17.6751314">
        <ele>30.4188</ele>
        <time>2014-06-01T09:53:04Z</time>
      </trkpt>
      <trkpt lat="59.8985227" lon="17.6750372">
        <ele>30.8995</ele>
        <time>2014-06-01T09:53:05Z</time>
      </trkpt>
      <trkpt lat="59.8985596" lon="17.6749485">
        <ele>30.8995</ele>
        <time>2014-06-01T09:53:06Z</time>
      </trkpt>
      <trkpt lat="59.898601" lon="17.674866">
        <ele>31.3801</ele>
        <time>2014-06-01T09:53:07Z</time>
      </trkpt>
      <trkpt lat="59.8986461" lon="17.6747936">
        <ele>31.3801</ele>
        <time>2014-06-01T09:53:08Z</time>
      </trkpt>
      <trkpt lat="59.8986925" lon="17.6747284">
        <ele>31.3801</ele>
        <time>2014-06-01T09:53:09Z</time>
      </trkpt>
      <trkpt lat="59.8987383" lon="17.674673">
        <ele>31.8607</ele>
        <time>2014-06-01T09:53:10Z</time>
      </trkpt>
      <trkpt lat="59.8987847" lon="17.6746148">
        <ele>31.8607</ele>
        <time>2014-06-01T09:53:11Z</time>
      </trkpt>
      <trkpt lat="59.898831" lon="17.67456">
        <ele>31.8607</ele>
        <time>2014-06-01T09:53:12Z</time>
      </trkpt>
      <trkpt lat="59.8988764" lon="17.6745068">
        <ele>31.8607</ele>
        <time>2014-06-01T09:53:13Z</time>
      </trkpt>
      <trkpt lat="59.8989202" lon="17.6744506">
        <ele>32.3416</ele>
        <time>2014-06-01T09:53:14Z</time>
      </trkpt>
      <trkpt lat="59.898965" lon="17.6743839">
        <ele>32.3416</ele>
        <time>2014-06-01T09:53:15Z</time>
      </trkpt>
      <trkpt lat="59.8990061" lon="17.6742995">
        <ele>32.3416</ele>
        <time>2014-06-01T09:53:16Z</time>
      </trkpt>
      <trkpt lat="59.8990433" lon="17.6742025">
        <ele>32.3416</ele>
        <time>2014-06-01T09:53:17Z</time>
      </trkpt>
      <trkpt lat="59.8990729" lon="17.6740909">
        <ele>32.3416</ele>
        <time>2014-06-01T09:53:18Z</time>
      </trkpt>
      <trkpt lat="59.8990963" lon="17.6739709">
        <ele>31.8607</ele>
        <time>2014-06-01T09:53:19Z</time>
      </trkpt>
      <trkpt lat="59.8991137" lon="17.6738494">
        <ele>31.8607</ele>
        <time>2014-06-01T09:53:20Z</time>
      </trkpt>
      <trkpt lat="59.8991201" lon="17.6737279">
        <ele>31.8607</ele>
        <time>2014-06-01T09:53:21Z</time>
      </trkpt>
      <trkpt lat="59.8991215" lon="17.6736053">
        <ele>31.8607</ele>
        <time>2014-06-01T09:53:22Z</time>
      </trkpt>
      <trkpt lat="59.8991245" lon="17.6734877">
        <ele>31.8607</ele>
        <time>2014-06-01T09:53:23Z</time>
      </trkpt>
      <trkpt lat="59.8991314" lon="17.6733754">
        <ele>32.3416</ele>
        <time>2014-06-01T09:53:24Z</time>
      </trkpt>
      <trkpt lat="59.8991377" lon="17.6732679">
        <ele>31.8607</ele>
        <time>2014-06-01T09:53:25Z</time>
      </trkpt>
      <trkpt lat="59.8991501" lon="17.6731595">
        <ele>32.3416</ele>
        <time>2014-06-01T09:53:26Z</time>
      </trkpt>
      <trkpt lat="59.8991594" lon="17.6730455">
        <ele>31.8607</ele>
        <time>2014-06-01T09:53:27Z</time>
      </trkpt>
      <trkpt lat="59.8991737" lon="17.6729261">
        <ele>31.3801</ele>
        <time>2014-06-01T09:53:28Z</time>
      </trkpt>
      <trkpt lat="59.8991967" lon="17.6728045">
        <ele>31.3801</ele>
        <time>2014-06-01T09:53:29Z</time>
      </trkpt>
      <trkpt lat="59.8992237" lon="17.6726833">
        <ele>31.3801</ele>
        <time>2014-06-01T09:53:30Z</time>
      </trkpt>
      <trkpt lat="59.8992497" lon="17.6725605">
        <ele>31.3801</ele>
        <time>2014-06-01T09:53:31Z</time>
      </trkpt>
      <trkpt lat="59.8992743" lon="17.6724357">
        <ele>31.3801</ele>
        <time>2014-06-01T09:53:32Z</time>
      </trkpt>
      <trkpt lat="59.8992952" lon="17.6723067">
        <ele>30.8995</ele>
        <time>2014-06-01T09:53:33Z</time>
      </trkpt>
      <trkpt lat="59.8993128" lon="17.6721741">
        <ele>30.4188</ele>
        <time>2014-06-01T09:53:34Z</time>
      </trkpt>
      <trkpt lat="59.8993272" lon="17.6720362">
        <ele>30.4188</ele>
        <time>2014-06-01T09:53:35Z</time>
      </trkpt>
      <trkpt lat="59.8993366" lon="17.671898">
        <ele>29.4575</ele>
        <time>2014-06-01T09:53:36Z</time>
      </trkpt>
      <trkpt lat="59.8993397" lon="17.6717582">
        <ele>28.9769</ele>
        <time>2014-06-01T09:53:37Z</time>
      </trkpt>
      <trkpt lat="59.899336" lon="17.6716152">
        <ele>28.9769</ele>
        <time>2014-06-01T09:53:38Z</time>
      </trkpt>
      <trkpt lat="59.8993381" lon="17.6714659">
        <ele>28.9769</ele>
        <time>2014-06-01T09:53:39Z</time>
      </trkpt>
      <trkpt lat="59.8993288" lon="17.6713245">
        <ele>28.0155</ele>
        <time>2014-06-01T09:53:40Z</time>
      </trkpt>
      <trkpt lat="59.8993214" lon="17.6711837">
        <ele>28.0155</ele>
        <time>2014-06-01T09:53:41Z</time>
      </trkpt>
      <trkpt lat="59.8993122" lon="17.6710475">
        <ele>27.0543</ele>
        <time>2014-06-01T09:53:42Z</time>
      </trkpt>
      <trkpt lat="59.8993056" lon="17.670901">
        <ele>27.5349</ele>
        <time>2014-06-01T09:53:43Z</time>
      </trkpt>
      <trkpt lat="59.8992989" lon="17.6707609">
        <ele>27.5349</ele>
        <time>2014-06-01T09:53:44Z</time>
      </trkpt>
      <trkpt lat="59.8993097" lon="17.6706522">
        <ele>27.5349</ele>
        <time>2014-06-01T09:53:45Z</time>
      </trkpt>
      <trkpt lat="59.8993331" lon="17.6705471">
        <ele>27.5349</ele>
        <time>2014-06-01T09:53:46Z</time>
      </trkpt>
      <trkpt lat="59.8993545" lon="17.6704434">
        <ele>27.5349</ele>
        <time>2014-06-01T09:53:47Z</time>
      </trkpt>
      <trkpt lat="59.899381" lon="17.6703513">
        <ele>27.0543</ele>
        <time>2014-06-01T09:53:48Z</time>
      </trkpt>
      <trkpt lat="59.8994076" lon="17.6702765">
        <ele>26.5736</ele>
        <time>2014-06-01T09:53:49Z</time>
      </trkpt>
      <trkpt lat="59.8994297" lon="17.6701991">
        <ele>26.0929</ele>
        <time>2014-06-01T09:53:50Z</time>
      </trkpt>
      <trkpt lat="59.8994433" lon="17.6701129">
        <ele>25.6123</ele>
        <time>2014-06-01T09:53:51Z</time>
      </trkpt>
      <trkpt lat="59.8994543" lon="17.670041">
        <ele>25.6123</ele>
        <time>2014-06-01T09:53:52Z</time>
      </trkpt>
      <trkpt lat="59.8994588" lon="17.6699964">
        <ele>25.6123</ele>
        <time>2014-06-01T09:53:53Z</time>
      </trkpt>
      <trkpt lat="59.8994651" lon="17.6699613">
        <ele>25.6123</ele>
        <time>2014-06-01T09:53:54Z</time>
      </trkpt>
      <trkpt lat="59.8994702" lon="17.6699318">
        <ele>26.0929</ele>
        <time>2014-06-01T09:53:55Z</time>
      </trkpt>
      <trkpt lat="59.8994749" lon="17.669911">
        <ele>26.0929</ele>
        <time>2014-06-01T09:53:56Z</time>
      </trkpt>
      <trkpt lat="59.8994952" lon="17.6698995">
        <ele>28.0155</ele>
        <time>2014-06-01T09:53:57Z</time>
      </trkpt>
      <trkpt lat="59.899505" lon="17.6698887">
        <ele>28.9769</ele>
        <time>2014-06-01T09:53:58Z</time>
      </trkpt>
      <trkpt lat="59.8995116" lon="17.6698752">
        <ele>29.4575</ele>
        <time>2014-06-01T09:53:59Z</time>
      </trkpt>
      <trkpt lat="59.8995149" lon="17.6698655">
        <ele>29.9381</ele>
        <time>2014-06-01T09:54:00Z</time>
      </trkpt>
      <trkpt lat="59.8995128" lon="17.6698625">
        <ele>30.4188</ele>
        <time>2014-06-01T09:54:01Z</time>
      </trkpt>
      <trkpt lat="59.8995107" lon="17.6698678">
        <ele>30.4188</ele>
        <time>2014-06-01T09:54:02Z</time>
      </trkpt>
      <trkpt lat="59.8995141" lon="17.6697891">
        <ele>33.7834</ele>
        <time>2014-06-01T09:54:22Z</time>
      </trkpt>
      <trkpt lat="59.8995158" lon="17.6697491">
        <ele>33.7834</ele>
        <time>2014-06-01T09:54:23Z</time>
      </trkpt>
      <trkpt lat="59.899524" lon="17.6697012">
        <ele>34.2642</ele>
        <time>2014-06-01T09:54:24Z</time>
      </trkpt>
      <trkpt lat="59.8995292" lon="17.6696481">
        <ele>34.7449</ele>
        <time>2014-06-01T09:54:25Z</time>
      </trkpt>
      <trkpt lat="59.8995287" lon="17.669596">
        <ele>34.7449</ele>
        <time>2014-06-01T09:54:26Z</time>
      </trkpt>
      <trkpt lat="59.8995232" lon="17.6695422">
        <ele>34.7449</ele>
        <time>2014-06-01T09:54:27Z</time>
      </trkpt>
      <trkpt lat="59.8995148" lon="17.6694919">
        <ele>35.2255</ele>
        <time>2014-06-01T09:54:28Z</time>
      </trkpt>
      <trkpt lat="59.8995065" lon="17.6694313">
        <ele>35.7061</ele>
        <time>2014-06-01T09:54:29Z</time>
      </trkpt>
      <trkpt lat="59.8994919" lon="17.6693665">
        <ele>36.6675</ele>
        <time>2014-06-01T09:54:30Z</time>
      </trkpt>
      <trkpt lat="59.8994882" lon="17.6693116">
        <ele>37.1481</ele>
        <time>2014-06-01T09:54:31Z</time>
      </trkpt>
      <trkpt lat="59.8994774" lon="17.6692585">
        <ele>36.6675</ele>
        <time>2014-06-01T09:54:32Z</time>
      </trkpt>
      <trkpt lat="59.8994635" lon="17.6691967">
        <ele>36.6675</ele>
        <time>2014-06-01T09:54:33Z</time>
      </trkpt>
      <trkpt lat="59.8994566" lon="17.6691286">
        <ele>37.1481</ele>
        <time>2014-06-01T09:54:34Z</time>
      </trkpt>
      <trkpt lat="59.8994495" lon="17.669039">
        <ele>38.1094</ele>
        <time>2014-06-01T09:54:35Z</time>
      </trkpt>
      <trkpt lat="59.8994403" lon="17.6689398">
        <ele>38.1094</ele>
        <time>2014-06-01T09:54:36Z</time>
      </trkpt>
      <trkpt lat="59.8994266" lon="17.668849">
        <ele>37.6287</ele>
        <time>2014-06-01T09:54:37Z</time>
      </trkpt>
      <trkpt lat="59.8994065" lon="17.6687609">
        <ele>36.6675</ele>
        <time>2014-06-01T09:54:38Z</time>
      </trkpt>
      <trkpt lat="59.8993807" lon="17.6686849">
        <ele>35.7061</ele>
        <time>2014-06-01T09:54:39Z</time>
      </trkpt>
      <trkpt lat="59.8993465" lon="17.6686207">
        <ele>34.2642</ele>
        <time>2014-06-01T09:54:40Z</time>
      </trkpt>
      <trkpt lat="59.8993082" lon="17.6685727">
        <ele>33.3029</ele>
        <time>2014-06-01T09:54:41Z</time>
      </trkpt>
      <trkpt lat="59.8992649" lon="17.6685465">
        <ele>31.8607</ele>
        <time>2014-06-01T09:54:42Z</time>
      </trkpt>
      <trkpt lat="59.8992212" lon="17.6685434">
        <ele>29.9381</ele>
        <time>2014-06-01T09:54:43Z</time>
      </trkpt>
      <trkpt lat="59.8991699" lon="17.6685448">
        <ele>29.4575</ele>
        <time>2014-06-01T09:54:44Z</time>
      </trkpt>
      <trkpt lat="59.899111" lon="17.6685636">
        <ele>29.9381</ele>
        <time>2014-06-01T09:54:45Z</time>
      </trkpt>
      <trkpt lat="59.8990573" lon="17.6685625">
        <ele>28.4962</ele>
        <time>2014-06-01T09:54:46Z</time>
      </trkpt>
      <trkpt lat="59.8990103" lon="17.6685765">
        <ele>25.6123</ele>
        <time>2014-06-01T09:54:47Z</time>
      </trkpt>
      <trkpt lat="59.8989662" lon="17.6685656">
        <ele>24.1703</ele>
        <time>2014-06-01T09:54:48Z</time>
      </trkpt>
      <trkpt lat="59.8989412" lon="17.6685305">
        <ele>23.209</ele>
        <time>2014-06-01T09:54:49Z</time>
      </trkpt>
      <trkpt lat="59.8989215" lon="17.668478">
        <ele>22.7283</ele>
        <time>2014-06-01T09:54:50Z</time>
      </trkpt>
      <trkpt lat="59.8989087" lon="17.6684072">
        <ele>23.209</ele>
        <time>2014-06-01T09:54:51Z</time>
      </trkpt>
      <trkpt lat="59.8989041" lon="17.6683125">
        <ele>23.6896</ele>
        <time>2014-06-01T09:54:52Z</time>
      </trkpt>
      <trkpt lat="59.8988942" lon="17.6682206">
        <ele>23.209</ele>
        <time>2014-06-01T09:54:53Z</time>
      </trkpt>
      <trkpt lat="59.8988786" lon="17.6681301">
        <ele>23.209</ele>
        <time>2014-06-01T09:54:54Z</time>
      </trkpt>
      <trkpt lat="59.8988578" lon="17.6680465">
        <ele>23.6896</ele>
        <time>2014-06-01T09:54:55Z</time>
      </trkpt>
      <trkpt lat="59.8988371" lon="17.6679544">
        <ele>24.1703</ele>
        <time>2014-06-01T09:54:56Z</time>
      </trkpt>
      <trkpt lat="59.8988206" lon="17.6678783">
        <ele>24.1703</ele>
        <time>2014-06-01T09:54:57Z</time>
      </trkpt>
      <trkpt lat="59.8988106" lon="17.6678102">
        <ele>24.1703</ele>
        <time>2014-06-01T09:54:58Z</time>
      </trkpt>
      <trkpt lat="59.8988179" lon="17.6677436">
        <ele>24.651</ele>
        <time>2014-06-01T09:54:59Z</time>
      </trkpt>
      <trkpt lat="59.8988314" lon="17.6676779">
        <ele>24.651</ele>
        <time>2014-06-01T09:55:00Z</time>
      </trkpt>
      <trkpt lat="59.8988403" lon="17.667604">
        <ele>24.651</ele>
        <time>2014-06-01T09:55:01Z</time>
      </trkpt>
      <trkpt lat="59.8988337" lon="17.6675168">
        <ele>25.6123</ele>
        <time>2014-06-01T09:55:02Z</time>
      </trkpt>
      <trkpt lat="59.8988179" lon="17.667432">
        <ele>26.5736</ele>
        <time>2014-06-01T09:55:03Z</time>
      </trkpt>
      <trkpt lat="59.8988093" lon="17.6673483">
        <ele>27.0543</ele>
        <time>2014-06-01T09:55:04Z</time>
      </trkpt>
      <trkpt lat="59.8988025" lon="17.6672727">
        <ele>28.0155</ele>
        <time>2014-06-01T09:55:05Z</time>
      </trkpt>
      <trkpt lat="59.8988077" lon="17.6671976">
        <ele>29.4575</ele>
        <time>2014-06-01T09:55:06Z</time>
      </trkpt>
      <trkpt lat="59.898807" lon="17.6671199">
        <ele>30.4188</ele>
        <time>2014-06-01T09:55:07Z</time>
      </trkpt>
      <trkpt lat="59.8987958" lon="17.6670376">
        <ele>30.8995</ele>
        <time>2014-06-01T09:55:08Z</time>
      </trkpt>
      <trkpt lat="59.8987808" lon="17.6669488">
        <ele>32.3416</ele>
        <time>2014-06-01T09:55:09Z</time>
      </trkpt>
      <trkpt lat="59.8987657" lon="17.6668716">
        <ele>32.3416</ele>
        <time>2014-06-01T09:55:10Z</time>
      </trkpt>
      <trkpt lat="59.8987472" lon="17.6667929">
        <ele>32.8223</ele>
        <time>2014-06-01T09:55:11Z</time>
      </trkpt>
      <trkpt lat="59.8987283" lon="17.6667252">
        <ele>34.2642</ele>
        <time>2014-06-01T09:55:12Z</time>
      </trkpt>
      <trkpt lat="59.8987068" lon="17.6666677">
        <ele>34.2642</ele>
        <time>2014-06-01T09:55:13Z</time>
      </trkpt>
      <trkpt lat="59.8986795" lon="17.6666019">
        <ele>35.2255</ele>
        <time>2014-06-01T09:55:14Z</time>
      </trkpt>
      <trkpt lat="59.8986451" lon="17.6665328">
        <ele>35.2255</ele>
        <time>2014-06-01T09:55:15Z</time>
      </trkpt>
      <trkpt lat="59.8986089" lon="17.6664776">
        <ele>34.7449</ele>
        <time>2014-06-01T09:55:16Z</time>
      </trkpt>
      <trkpt lat="59.8985672" lon="17.6664289">
        <ele>35.2255</ele>
        <time>2014-06-01T09:55:17Z</time>
      </trkpt>
      <trkpt lat="59.8985201" lon="17.6663916">
        <ele>34.7449</ele>
        <time>2014-06-01T09:55:18Z</time>
      </trkpt>
      <trkpt lat="59.8984716" lon="17.6663596">
        <ele>33.7834</ele>
        <time>2014-06-01T09:55:19Z</time>
      </trkpt>
      <trkpt lat="59.8984161" lon="17.6663303">
        <ele>32.8223</ele>
        <time>2014-06-01T09:55:20Z</time>
      </trkpt>
      <trkpt lat="59.898361" lon="17.6663051">
        <ele>31.8607</ele>
        <time>2014-06-01T09:55:21Z</time>
      </trkpt>
      <trkpt lat="59.8983074" lon="17.6662839">
        <ele>30.8995</ele>
        <time>2014-06-01T09:55:22Z</time>
      </trkpt>
      <trkpt lat="59.8982543" lon="17.666264">
        <ele>29.4575</ele>
        <time>2014-06-01T09:55:23Z</time>
      </trkpt>
      <trkpt lat="59.8982058" lon="17.6662429">
        <ele>28.0155</ele>
        <time>2014-06-01T09:55:24Z</time>
      </trkpt>
      <trkpt lat="59.89816" lon="17.6662423">
        <ele>24.651</ele>
        <time>2014-06-01T09:55:25Z</time>
      </trkpt>
      <trkpt lat="59.8981115" lon="17.666261">
        <ele>22.2476</ele>
        <time>2014-06-01T09:55:26Z</time>
      </trkpt>
      <trkpt lat="59.8980633" lon="17.6662714">
        <ele>19.8444</ele>
        <time>2014-06-01T09:55:27Z</time>
      </trkpt>
      <trkpt lat="59.8980116" lon="17.6662786">
        <ele>18.8831</ele>
        <time>2014-06-01T09:55:28Z</time>
      </trkpt>
      <trkpt lat="59.8979566" lon="17.6662879">
        <ele>18.4023</ele>
        <time>2014-06-01T09:55:29Z</time>
      </trkpt>
      <trkpt lat="59.8978966" lon="17.6662943">
        <ele>18.4023</ele>
        <time>2014-06-01T09:55:30Z</time>
      </trkpt>
      <trkpt lat="59.8978354" lon="17.6662969">
        <ele>18.8831</ele>
        <time>2014-06-01T09:55:31Z</time>
      </trkpt>
      <trkpt lat="59.8977743" lon="17.6662992">
        <ele>18.8831</ele>
        <time>2014-06-01T09:55:32Z</time>
      </trkpt>
      <trkpt lat="59.8977131" lon="17.6663041">
        <ele>18.8831</ele>
        <time>2014-06-01T09:55:33Z</time>
      </trkpt>
      <trkpt lat="59.8976529" lon="17.6663113">
        <ele>18.8831</ele>
        <time>2014-06-01T09:55:34Z</time>
      </trkpt>
      <trkpt lat="59.8975938" lon="17.6663134">
        <ele>19.8444</ele>
        <time>2014-06-01T09:55:35Z</time>
      </trkpt>
      <trkpt lat="59.8975387" lon="17.6663159">
        <ele>20.325</ele>
        <time>2014-06-01T09:55:36Z</time>
      </trkpt>
      <trkpt lat="59.8974869" lon="17.6663154">
        <ele>20.8057</ele>
        <time>2014-06-01T09:55:37Z</time>
      </trkpt>
      <trkpt lat="59.8974366" lon="17.6663153">
        <ele>21.2864</ele>
        <time>2014-06-01T09:55:38Z</time>
      </trkpt>
      <trkpt lat="59.8973873" lon="17.6663227">
        <ele>21.2864</ele>
        <time>2014-06-01T09:55:39Z</time>
      </trkpt>
      <trkpt lat="59.8973403" lon="17.666335">
        <ele>21.767</ele>
        <time>2014-06-01T09:55:40Z</time>
      </trkpt>
      <trkpt lat="59.8972975" lon="17.6663478">
        <ele>22.2476</ele>
        <time>2014-06-01T09:55:41Z</time>
      </trkpt>
      <trkpt lat="59.8972603" lon="17.6663557">
        <ele>22.7283</ele>
        <time>2014-06-01T09:55:42Z</time>
      </trkpt>
      <trkpt lat="59.8972245" lon="17.6663604">
        <ele>23.209</ele>
        <time>2014-06-01T09:55:43Z</time>
      </trkpt>
      <trkpt lat="59.8971889" lon="17.6663573">
        <ele>23.6896</ele>
        <time>2014-06-01T09:55:44Z</time>
      </trkpt>
      <trkpt lat="59.8971602" lon="17.6663544">
        <ele>24.1703</ele>
        <time>2014-06-01T09:55:45Z</time>
      </trkpt>
      <trkpt lat="59.8971273" lon="17.6663544">
        <ele>24.651</ele>
        <time>2014-06-01T09:55:46Z</time>
      </trkpt>
      <trkpt lat="59.8970911" lon="17.6663579">
        <ele>24.651</ele>
        <time>2014-06-01T09:55:47Z</time>
      </trkpt>
      <trkpt lat="59.8970592" lon="17.6663582">
        <ele>24.1703</ele>
        <time>2014-06-01T09:55:48Z</time>
      </trkpt>
      <trkpt lat="59.8970269" lon="17.6663706">
        <ele>24.1703</ele>
        <time>2014-06-01T09:55:49Z</time>
      </trkpt>
      <trkpt lat="59.8969963" lon="17.6663748">
        <ele>23.6896</ele>
        <time>2014-06-01T09:55:50Z</time>
      </trkpt>
      <trkpt lat="59.8969714" lon="17.6663707">
        <ele>23.209</ele>
        <time>2014-06-01T09:55:51Z</time>
      </trkpt>
      <trkpt lat="59.8969492" lon="17.6663655">
        <ele>22.7283</ele>
        <time>2014-06-01T09:55:52Z</time>
      </trkpt>
      <trkpt lat="59.8969221" lon="17.6663642">
        <ele>22.2476</ele>
        <time>2014-06-01T09:55:53Z</time>
      </trkpt>
      <trkpt lat="59.896892" lon="17.6663585">
        <ele>21.767</ele>
        <time>2014-06-01T09:55:54Z</time>
      </trkpt>
      <trkpt lat="59.8968632" lon="17.6663521">
        <ele>22.2476</ele>
        <time>2014-06-01T09:55:55Z</time>
      </trkpt>
      <trkpt lat="59.8968406" lon="17.6663475">
        <ele>22.2476</ele>
        <time>2014-06-01T09:55:56Z</time>
      </trkpt>
      <trkpt lat="59.8968201" lon="17.6663401">
        <ele>22.2476</ele>
        <time>2014-06-01T09:55:57Z</time>
      </trkpt>
      <trkpt lat="59.8968046" lon="17.6663284">
        <ele>22.2476</ele>
        <time>2014-06-01T09:55:58Z</time>
      </trkpt>
      <trkpt lat="59.8967933" lon="17.6663061">
        <ele>22.2476</ele>
        <time>2014-06-01T09:55:59Z</time>
      </trkpt>
      <trkpt lat="59.896779" lon="17.6662676">
        <ele>22.2476</ele>
        <time>2014-06-01T09:56:00Z</time>
      </trkpt>
      <trkpt lat="59.8967605" lon="17.66623">
        <ele>21.767</ele>
        <time>2014-06-01T09:56:01Z</time>
      </trkpt>
      <trkpt lat="59.8967354" lon="17.666192">
        <ele>22.2476</ele>
        <time>2014-06-01T09:56:02Z</time>
      </trkpt>
      <trkpt lat="59.8967072" lon="17.666158">
        <ele>22.2476</ele>
        <time>2014-06-01T09:56:03Z</time>
      </trkpt>
      <trkpt lat="59.8966801" lon="17.6661165">
        <ele>22.2476</ele>
        <time>2014-06-01T09:56:04Z</time>
      </trkpt>
      <trkpt lat="59.8966621" lon="17.6660738">
        <ele>22.2476</ele>
        <time>2014-06-01T09:56:05Z</time>
      </trkpt>
      <trkpt lat="59.8966503" lon="17.6660143">
        <ele>22.7283</ele>
        <time>2014-06-01T09:56:06Z</time>
      </trkpt>
      <trkpt lat="59.8966388" lon="17.6659544">
        <ele>22.2476</ele>
        <time>2014-06-01T09:56:07Z</time>
      </trkpt>
      <trkpt lat="59.8966186" lon="17.6658851">
        <ele>21.767</ele>
        <time>2014-06-01T09:56:08Z</time>
      </trkpt>
      <trkpt lat="59.896587" lon="17.6658004">
        <ele>21.767</ele>
        <time>2014-06-01T09:56:09Z</time>
      </trkpt>
      <trkpt lat="59.8965514" lon="17.665704">
        <ele>21.767</ele>
        <time>2014-06-01T09:56:10Z</time>
      </trkpt>
      <trkpt lat="59.8965148" lon="17.6656014">
        <ele>21.2864</ele>
        <time>2014-06-01T09:56:11Z</time>
      </trkpt>
      <trkpt lat="59.8964775" lon="17.6654965">
        <ele>21.2864</ele>
        <time>2014-06-01T09:56:12Z</time>
      </trkpt>
      <trkpt lat="59.8964383" lon="17.6653891">
        <ele>21.2864</ele>
        <time>2014-06-01T09:56:13Z</time>
      </trkpt>
      <trkpt lat="59.8963985" lon="17.6652773">
        <ele>20.8057</ele>
        <time>2014-06-01T09:56:14Z</time>
      </trkpt>
      <trkpt lat="59.896357" lon="17.6651611">
        <ele>20.8057</ele>
        <time>2014-06-01T09:56:15Z</time>
      </trkpt>
      <trkpt lat="59.896314" lon="17.6650433">
        <ele>21.2864</ele>
        <time>2014-06-01T09:56:16Z</time>
      </trkpt>
      <trkpt lat="59.8962704" lon="17.664924">
        <ele>20.8057</ele>
        <time>2014-06-01T09:56:17Z</time>
      </trkpt>
      <trkpt lat="59.8962265" lon="17.6648031">
        <ele>20.8057</ele>
        <time>2014-06-01T09:56:18Z</time>
      </trkpt>
      <trkpt lat="59.8961827" lon="17.6646799">
        <ele>20.8057</ele>
        <time>2014-06-01T09:56:19Z</time>
      </trkpt>
      <trkpt lat="59.8961385" lon="17.6645551">
        <ele>20.8057</ele>
        <time>2014-06-01T09:56:20Z</time>
      </trkpt>
      <trkpt lat="59.896094" lon="17.6644295">
        <ele>20.8057</ele>
        <time>2014-06-01T09:56:21Z</time>
      </trkpt>
      <trkpt lat="59.8960493" lon="17.664304">
        <ele>20.8057</ele>
        <time>2014-06-01T09:56:22Z</time>
      </trkpt>
      <trkpt lat="59.8960041" lon="17.6641791">
        <ele>20.325</ele>
        <time>2014-06-01T09:56:23Z</time>
      </trkpt>
      <trkpt lat="59.8959584" lon="17.6640548">
        <ele>20.325</ele>
        <time>2014-06-01T09:56:24Z</time>
      </trkpt>
      <trkpt lat="59.8959128" lon="17.6639296">
        <ele>20.325</ele>
        <time>2014-06-01T09:56:25Z</time>
      </trkpt>
      <trkpt lat="59.8958674" lon="17.6638049">
        <ele>20.325</ele>
        <time>2014-06-01T09:56:26Z</time>
      </trkpt>
      <trkpt lat="59.8958222" lon="17.6636798">
        <ele>20.325</ele>
        <time>2014-06-01T09:56:27Z</time>
      </trkpt>
      <trkpt lat="59.8957777" lon="17.6635539">
        <ele>20.325</ele>
        <time>2014-06-01T09:56:28Z</time>
      </trkpt>
      <trkpt lat="59.8957337" lon="17.6634281">
        <ele>20.325</ele>
        <time>2014-06-01T09:56:29Z</time>
      </trkpt>
      <trkpt lat="59.8956893" lon="17.6633051">
        <ele>20.325</ele>
        <time>2014-06-01T09:56:30Z</time>
      </trkpt>
      <trkpt lat="59.8956448" lon="17.6631838">
        <ele>20.325</ele>
        <time>2014-06-01T09:56:31Z</time>
      </trkpt>
      <trkpt lat="59.8956012" lon="17.6630626">
        <ele>20.325</ele>
        <time>2014-06-01T09:56:32Z</time>
      </trkpt>
      <trkpt lat="59.895558" lon="17.6629412">
        <ele>20.325</ele>
        <time>2014-06-01T09:56:33Z</time>
      </trkpt>
      <trkpt lat="59.8955142" lon="17.6628209">
        <ele>20.325</ele>
        <time>2014-06-01T09:56:34Z</time>
      </trkpt>
      <trkpt lat="59.89547" lon="17.6627018">
        <ele>19.8444</ele>
        <time>2014-06-01T09:56:35Z</time>
      </trkpt>
      <trkpt lat="59.8954261" lon="17.6625824">
        <ele>19.8444</ele>
        <time>2014-06-01T09:56:36Z</time>
      </trkpt>
      <trkpt lat="59.8953827" lon="17.6624628">
        <ele>19.8444</ele>
        <time>2014-06-01T09:56:37Z</time>
      </trkpt>
      <trkpt lat="59.8953387" lon="17.6623463">
        <ele>19.8444</ele>
        <time>2014-06-01T09:56:38Z</time>
      </trkpt>
      <trkpt lat="59.8952939" lon="17.6622354">
        <ele>19.8444</ele>
        <time>2014-06-01T09:56:39Z</time>
      </trkpt>
      <trkpt lat="59.8952494" lon="17.6621294">
        <ele>19.8444</ele>
        <time>2014-06-01T09:56:40Z</time>
      </trkpt>
      <trkpt lat="59.8952065" lon="17.6620261">
        <ele>19.8444</ele>
        <time>2014-06-01T09:56:41Z</time>
      </trkpt>
      <trkpt lat="59.8951669" lon="17.6619206">
        <ele>19.8444</ele>
        <time>2014-06-01T09:56:42Z</time>
      </trkpt>
      <trkpt lat="59.8951277" lon="17.6618155">
        <ele>19.8444</ele>
        <time>2014-06-01T09:56:43Z</time>
      </trkpt>
      <trkpt lat="59.8950889" lon="17.6617097">
        <ele>19.8444</ele>
        <time>2014-06-01T09:56:44Z</time>
      </trkpt>
      <trkpt lat="59.895053" lon="17.6616006">
        <ele>19.8444</ele>
        <time>2014-06-01T09:56:45Z</time>
      </trkpt>
      <trkpt lat="59.8950195" lon="17.6614907">
        <ele>20.325</ele>
        <time>2014-06-01T09:56:46Z</time>
      </trkpt>
      <trkpt lat="59.8949844" lon="17.6613845">
        <ele>20.8057</ele>
        <time>2014-06-01T09:56:47Z</time>
      </trkpt>
      <trkpt lat="59.8949489" lon="17.6612818">
        <ele>20.8057</ele>
        <time>2014-06-01T09:56:48Z</time>
      </trkpt>
      <trkpt lat="59.8949138" lon="17.6611807">
        <ele>21.2864</ele>
        <time>2014-06-01T09:56:49Z</time>
      </trkpt>
      <trkpt lat="59.8948792" lon="17.6610813">
        <ele>21.767</ele>
        <time>2014-06-01T09:56:50Z</time>
      </trkpt>
      <trkpt lat="59.8948458" lon="17.6609872">
        <ele>22.2476</ele>
        <time>2014-06-01T09:56:51Z</time>
      </trkpt>
      <trkpt lat="59.8948132" lon="17.6608991">
        <ele>22.2476</ele>
        <time>2014-06-01T09:56:52Z</time>
      </trkpt>
      <trkpt lat="59.8947807" lon="17.6608129">
        <ele>22.2476</ele>
        <time>2014-06-01T09:56:53Z</time>
      </trkpt>
      <trkpt lat="59.8947491" lon="17.6607276">
        <ele>22.7283</ele>
        <time>2014-06-01T09:56:54Z</time>
      </trkpt>
      <trkpt lat="59.8947179" lon="17.6606446">
        <ele>22.7283</ele>
        <time>2014-06-01T09:56:55Z</time>
      </trkpt>
      <trkpt lat="59.8946865" lon="17.6605635">
        <ele>22.7283</ele>
        <time>2014-06-01T09:56:56Z</time>
      </trkpt>
      <trkpt lat="59.8946568" lon="17.6604829">
        <ele>22.7283</ele>
        <time>2014-06-01T09:56:57Z</time>
      </trkpt>
      <trkpt lat="59.894628" lon="17.6604029">
        <ele>22.7283</ele>
        <time>2014-06-01T09:56:58Z</time>
      </trkpt>
      <trkpt lat="59.8946002" lon="17.6603218">
        <ele>22.2476</ele>
        <time>2014-06-01T09:56:59Z</time>
      </trkpt>
      <trkpt lat="59.8945723" lon="17.6602388">
        <ele>22.2476</ele>
        <time>2014-06-01T09:57:00Z</time>
      </trkpt>
      <trkpt lat="59.8945439" lon="17.6601545">
        <ele>22.2476</ele>
        <time>2014-06-01T09:57:01Z</time>
      </trkpt>
      <trkpt lat="59.8945127" lon="17.6600704">
        <ele>22.2476</ele>
        <time>2014-06-01T09:57:02Z</time>
      </trkpt>
      <trkpt lat="59.8944788" lon="17.6599853">
        <ele>22.2476</ele>
        <time>2014-06-01T09:57:03Z</time>
      </trkpt>
      <trkpt lat="59.8944445" lon="17.6598943">
        <ele>21.767</ele>
        <time>2014-06-01T09:57:04Z</time>
      </trkpt>
      <trkpt lat="59.8944107" lon="17.6597948">
        <ele>21.2864</ele>
        <time>2014-06-01T09:57:05Z</time>
      </trkpt>
      <trkpt lat="59.8943749" lon="17.6596906">
        <ele>21.2864</ele>
        <time>2014-06-01T09:57:06Z</time>
      </trkpt>
      <trkpt lat="59.8943368" lon="17.6595827">
        <ele>20.8057</ele>
        <time>2014-06-01T09:57:07Z</time>
      </trkpt>
      <trkpt lat="59.8942969" lon="17.6594723">
        <ele>20.8057</ele>
        <time>2014-06-01T09:57:08Z</time>
      </trkpt>
      <trkpt lat="59.8942559" lon="17.6593606">
        <ele>20.325</ele>
        <time>2014-06-01T09:57:09Z</time>
      </trkpt>
      <trkpt lat="59.8942135" lon="17.6592481">
        <ele>20.325</ele>
        <time>2014-06-01T09:57:10Z</time>
      </trkpt>
      <trkpt lat="59.8941739" lon="17.6591151">
        <ele>19.8444</ele>
        <time>2014-06-01T09:57:11Z</time>
      </trkpt>
      <trkpt lat="59.8941363" lon="17.6590147">
        <ele>19.3638</ele>
        <time>2014-06-01T09:57:12Z</time>
      </trkpt>
      <trkpt lat="59.8940968" lon="17.6588799">
        <ele>19.3638</ele>
        <time>2014-06-01T09:57:13Z</time>
      </trkpt>
      <trkpt lat="59.8940383" lon="17.6587499">
        <ele>19.3638</ele>
        <time>2014-06-01T09:57:14Z</time>
      </trkpt>
      <trkpt lat="59.8940113" lon="17.6586711">
        <ele>18.8831</ele>
        <time>2014-06-01T09:57:15Z</time>
      </trkpt>
      <trkpt lat="59.8939657" lon="17.6585454">
        <ele>18.4023</ele>
        <time>2014-06-01T09:57:16Z</time>
      </trkpt>
      <trkpt lat="59.8939304" lon="17.6584306">
        <ele>18.8831</ele>
        <time>2014-06-01T09:57:17Z</time>
      </trkpt>
      <trkpt lat="59.8938997" lon="17.6583282">
        <ele>19.3638</ele>
        <time>2014-06-01T09:57:18Z</time>
      </trkpt>
      <trkpt lat="59.8938722" lon="17.658239">
        <ele>19.8444</ele>
        <time>2014-06-01T09:57:19Z</time>
      </trkpt>
      <trkpt lat="59.8938441" lon="17.6581501">
        <ele>19.8444</ele>
        <time>2014-06-01T09:57:20Z</time>
      </trkpt>
      <trkpt lat="59.8938159" lon="17.6580641">
        <ele>20.325</ele>
        <time>2014-06-01T09:57:21Z</time>
      </trkpt>
      <trkpt lat="59.893789" lon="17.6579864">
        <ele>20.8057</ele>
        <time>2014-06-01T09:57:22Z</time>
      </trkpt>
      <trkpt lat="59.8937629" lon="17.6579132">
        <ele>20.8057</ele>
        <time>2014-06-01T09:57:23Z</time>
      </trkpt>
      <trkpt lat="59.8937378" lon="17.6578426">
        <ele>21.2864</ele>
        <time>2014-06-01T09:57:24Z</time>
      </trkpt>
      <trkpt lat="59.8937124" lon="17.6577717">
        <ele>21.2864</ele>
        <time>2014-06-01T09:57:25Z</time>
      </trkpt>
      <trkpt lat="59.8936868" lon="17.6577014">
        <ele>21.767</ele>
        <time>2014-06-01T09:57:26Z</time>
      </trkpt>
      <trkpt lat="59.8936631" lon="17.657636">
        <ele>22.2476</ele>
        <time>2014-06-01T09:57:27Z</time>
      </trkpt>
      <trkpt lat="59.8936398" lon="17.6575714">
        <ele>22.2476</ele>
        <time>2014-06-01T09:57:28Z</time>
      </trkpt>
      <trkpt lat="59.8936171" lon="17.6575087">
        <ele>22.7283</ele>
        <time>2014-06-01T09:57:29Z</time>
      </trkpt>
      <trkpt lat="59.8935949" lon="17.6574469">
        <ele>22.7283</ele>
        <time>2014-06-01T09:57:30Z</time>
      </trkpt>
      <trkpt lat="59.8935736" lon="17.6573856">
        <ele>23.209</ele>
        <time>2014-06-01T09:57:31Z</time>
      </trkpt>
      <trkpt lat="59.8935535" lon="17.6573249">
        <ele>23.6896</ele>
        <time>2014-06-01T09:57:32Z</time>
      </trkpt>
      <trkpt lat="59.8935349" lon="17.6572632">
        <ele>23.6896</ele>
        <time>2014-06-01T09:57:33Z</time>
      </trkpt>
      <trkpt lat="59.8935162" lon="17.6572026">
        <ele>24.1703</ele>
        <time>2014-06-01T09:57:34Z</time>
      </trkpt>
      <trkpt lat="59.8934958" lon="17.6571455">
        <ele>24.651</ele>
        <time>2014-06-01T09:57:35Z</time>
      </trkpt>
      <trkpt lat="59.8934741" lon="17.6570898">
        <ele>24.651</ele>
        <time>2014-06-01T09:57:36Z</time>
      </trkpt>
      <trkpt lat="59.8934528" lon="17.6570325">
        <ele>24.651</ele>
        <time>2014-06-01T09:57:37Z</time>
      </trkpt>
      <trkpt lat="59.8934313" lon="17.6569742">
        <ele>25.1317</ele>
        <time>2014-06-01T09:57:38Z</time>
      </trkpt>
      <trkpt lat="59.8934093" lon="17.6569191">
        <ele>25.1317</ele>
        <time>2014-06-01T09:57:39Z</time>
      </trkpt>
      <trkpt lat="59.8933868" lon="17.6568639">
        <ele>25.1317</ele>
        <time>2014-06-01T09:57:40Z</time>
      </trkpt>
      <trkpt lat="59.893365" lon="17.6568058">
        <ele>25.6123</ele>
        <time>2014-06-01T09:57:41Z</time>
      </trkpt>
      <trkpt lat="59.8933447" lon="17.6567451">
        <ele>25.6123</ele>
        <time>2014-06-01T09:57:42Z</time>
      </trkpt>
      <trkpt lat="59.8933236" lon="17.6566841">
        <ele>25.6123</ele>
        <time>2014-06-01T09:57:43Z</time>
      </trkpt>
      <trkpt lat="59.8933001" lon="17.6566248">
        <ele>26.0929</ele>
        <time>2014-06-01T09:57:44Z</time>
      </trkpt>
      <trkpt lat="59.8932749" lon="17.6565665">
        <ele>26.0929</ele>
        <time>2014-06-01T09:57:45Z</time>
      </trkpt>
      <trkpt lat="59.8932492" lon="17.6565108">
        <ele>26.0929</ele>
        <time>2014-06-01T09:57:46Z</time>
      </trkpt>
      <trkpt lat="59.893227" lon="17.6564498">
        <ele>26.0929</ele>
        <time>2014-06-01T09:57:47Z</time>
      </trkpt>
      <trkpt lat="59.8932184" lon="17.656383">
        <ele>26.0929</ele>
        <time>2014-06-01T09:57:48Z</time>
      </trkpt>
      <trkpt lat="59.8932283" lon="17.6563233">
        <ele>26.0929</ele>
        <time>2014-06-01T09:57:49Z</time>
      </trkpt>
      <trkpt lat="59.8932529" lon="17.6562769">
        <ele>26.0929</ele>
        <time>2014-06-01T09:57:50Z</time>
      </trkpt>
      <trkpt lat="59.8932872" lon="17.6562515">
        <ele>26.0929</ele>
        <time>2014-06-01T09:57:51Z</time>
      </trkpt>
      <trkpt lat="59.8933264" lon="17.6562494">
        <ele>26.0929</ele>
        <time>2014-06-01T09:57:52Z</time>
      </trkpt>
      <trkpt lat="59.8933686" lon="17.6562587">
        <ele>25.6123</ele>
        <time>2014-06-01T09:57:53Z</time>
      </trkpt>
      <trkpt lat="59.8934124" lon="17.6562638">
        <ele>25.6123</ele>
        <time>2014-06-01T09:57:54Z</time>
      </trkpt>
      <trkpt lat="59.8934582" lon="17.6562575">
        <ele>25.6123</ele>
        <time>2014-06-01T09:57:55Z</time>
      </trkpt>
      <trkpt lat="59.8935043" lon="17.6562413">
        <ele>25.6123</ele>
        <time>2014-06-01T09:57:56Z</time>
      </trkpt>
      <trkpt lat="59.8935495" lon="17.6562173">
        <ele>25.6123</ele>
        <time>2014-06-01T09:57:57Z</time>
      </trkpt>
      <trkpt lat="59.8935924" lon="17.6561878">
        <ele>25.6123</ele>
        <time>2014-06-01T09:57:58Z</time>
      </trkpt>
      <trkpt lat="59.8936355" lon="17.6561597">
        <ele>25.6123</ele>
        <time>2014-06-01T09:57:59Z</time>
      </trkpt>
      <trkpt lat="59.8936814" lon="17.6561313">
        <ele>25.6123</ele>
        <time>2014-06-01T09:58:00Z</time>
      </trkpt>
      <trkpt lat="59.8937286" lon="17.6561006">
        <ele>25.6123</ele>
        <time>2014-06-01T09:58:01Z</time>
      </trkpt>
      <trkpt lat="59.8937756" lon="17.6560651">
        <ele>26.0929</ele>
        <time>2014-06-01T09:58:02Z</time>
      </trkpt>
      <trkpt lat="59.8938219" lon="17.656025">
        <ele>26.0929</ele>
        <time>2014-06-01T09:58:03Z</time>
      </trkpt>
      <trkpt lat="59.8938669" lon="17.6559867">
        <ele>26.0929</ele>
        <time>2014-06-01T09:58:04Z</time>
      </trkpt>
      <trkpt lat="59.89391" lon="17.6559542">
        <ele>26.5736</ele>
        <time>2014-06-01T09:58:05Z</time>
      </trkpt>
      <trkpt lat="59.8939534" lon="17.655925">
        <ele>26.5736</ele>
        <time>2014-06-01T09:58:06Z</time>
      </trkpt>
      <trkpt lat="59.8939972" lon="17.6558941">
        <ele>26.5736</ele>
        <time>2014-06-01T09:58:07Z</time>
      </trkpt>
      <trkpt lat="59.8940419" lon="17.6558635">
        <ele>26.5736</ele>
        <time>2014-06-01T09:58:08Z</time>
      </trkpt>
      <trkpt lat="59.8940887" lon="17.6558346">
        <ele>26.5736</ele>
        <time>2014-06-01T09:58:09Z</time>
      </trkpt>
      <trkpt lat="59.8941367" lon="17.6558038">
        <ele>26.5736</ele>
        <time>2014-06-01T09:58:10Z</time>
      </trkpt>
      <trkpt lat="59.8941848" lon="17.6557685">
        <ele>26.5736</ele>
        <time>2014-06-01T09:58:11Z</time>
      </trkpt>
      <trkpt lat="59.8942312" lon="17.6557253">
        <ele>26.5736</ele>
        <time>2014-06-01T09:58:12Z</time>
      </trkpt>
      <trkpt lat="59.8942765" lon="17.6556743">
        <ele>27.0543</ele>
        <time>2014-06-01T09:58:13Z</time>
      </trkpt>
      <trkpt lat="59.8943202" lon="17.65562">
        <ele>27.0543</ele>
        <time>2014-06-01T09:58:14Z</time>
      </trkpt>
      <trkpt lat="59.8943617" lon="17.6555651">
        <ele>27.0543</ele>
        <time>2014-06-01T09:58:15Z</time>
      </trkpt>
      <trkpt lat="59.8944023" lon="17.6555073">
        <ele>27.0543</ele>
        <time>2014-06-01T09:58:16Z</time>
      </trkpt>
      <trkpt lat="59.8944424" lon="17.6554486">
        <ele>27.0543</ele>
        <time>2014-06-01T09:58:17Z</time>
      </trkpt>
      <trkpt lat="59.8944823" lon="17.6553888">
        <ele>27.0543</ele>
        <time>2014-06-01T09:58:18Z</time>
      </trkpt>
      <trkpt lat="59.8945211" lon="17.6553236">
        <ele>27.0543</ele>
        <time>2014-06-01T09:58:19Z</time>
      </trkpt>
      <trkpt lat="59.8945609" lon="17.6552567">
        <ele>27.0543</ele>
        <time>2014-06-01T09:58:20Z</time>
      </trkpt>
      <trkpt lat="59.8946025" lon="17.6551925">
        <ele>27.0543</ele>
        <time>2014-06-01T09:58:21Z</time>
      </trkpt>
      <trkpt lat="59.8946437" lon="17.6551286">
        <ele>27.0543</ele>
        <time>2014-06-01T09:58:22Z</time>
      </trkpt>
      <trkpt lat="59.8946823" lon="17.6550616">
        <ele>27.0543</ele>
        <time>2014-06-01T09:58:23Z</time>
      </trkpt>
      <trkpt lat="59.8947165" lon="17.6549917">
        <ele>27.0543</ele>
        <time>2014-06-01T09:58:24Z</time>
      </trkpt>
      <trkpt lat="59.8947439" lon="17.6549167">
        <ele>27.0543</ele>
        <time>2014-06-01T09:58:25Z</time>
      </trkpt>
      <trkpt lat="59.8947605" lon="17.6548333">
        <ele>27.0543</ele>
        <time>2014-06-01T09:58:26Z</time>
      </trkpt>
      <trkpt lat="59.8947671" lon="17.6547462">
        <ele>27.5349</ele>
        <time>2014-06-01T09:58:27Z</time>
      </trkpt>
      <trkpt lat="59.8947675" lon="17.6546638">
        <ele>28.0155</ele>
        <time>2014-06-01T09:58:28Z</time>
      </trkpt>
      <trkpt lat="59.8947655" lon="17.6545873">
        <ele>28.0155</ele>
        <time>2014-06-01T09:58:29Z</time>
      </trkpt>
      <trkpt lat="59.8947637" lon="17.6545089">
        <ele>28.4962</ele>
        <time>2014-06-01T09:58:30Z</time>
      </trkpt>
      <trkpt lat="59.8947666" lon="17.6544266">
        <ele>28.4962</ele>
        <time>2014-06-01T09:58:31Z</time>
      </trkpt>
      <trkpt lat="59.8947775" lon="17.6543447">
        <ele>28.4962</ele>
        <time>2014-06-01T09:58:32Z</time>
      </trkpt>
      <trkpt lat="59.8947963" lon="17.654269">
        <ele>28.4962</ele>
        <time>2014-06-01T09:58:33Z</time>
      </trkpt>
      <trkpt lat="59.8948224" lon="17.6542021">
        <ele>28.9769</ele>
        <time>2014-06-01T09:58:34Z</time>
      </trkpt>
      <trkpt lat="59.8948542" lon="17.6541475">
        <ele>28.9769</ele>
        <time>2014-06-01T09:58:35Z</time>
      </trkpt>
      <trkpt lat="59.8948924" lon="17.6541064">
        <ele>28.4962</ele>
        <time>2014-06-01T09:58:36Z</time>
      </trkpt>
      <trkpt lat="59.8949364" lon="17.6540772">
        <ele>28.4962</ele>
        <time>2014-06-01T09:58:37Z</time>
      </trkpt>
      <trkpt lat="59.8949812" lon="17.6540573">
        <ele>28.9769</ele>
        <time>2014-06-01T09:58:38Z</time>
      </trkpt>
      <trkpt lat="59.8950239" lon="17.6540447">
        <ele>28.9769</ele>
        <time>2014-06-01T09:58:39Z</time>
      </trkpt>
      <trkpt lat="59.8950647" lon="17.6540412">
        <ele>28.9769</ele>
        <time>2014-06-01T09:58:40Z</time>
      </trkpt>
      <trkpt lat="59.895103" lon="17.6540474">
        <ele>29.4575</ele>
        <time>2014-06-01T09:58:41Z</time>
      </trkpt>
      <trkpt lat="59.8951381" lon="17.6540552">
        <ele>28.9769</ele>
        <time>2014-06-01T09:58:42Z</time>
      </trkpt>
      <trkpt lat="59.8951758" lon="17.6540552">
        <ele>28.9769</ele>
        <time>2014-06-01T09:58:43Z</time>
      </trkpt>
      <trkpt lat="59.8952139" lon="17.6540345">
        <ele>28.9769</ele>
        <time>2014-06-01T09:58:44Z</time>
      </trkpt>
      <trkpt lat="59.8952474" lon="17.6539881">
        <ele>28.9769</ele>
        <time>2014-06-01T09:58:45Z</time>
      </trkpt>
      <trkpt lat="59.8952738" lon="17.6539286">
        <ele>28.9769</ele>
        <time>2014-06-01T09:58:46Z</time>
      </trkpt>
      <trkpt lat="59.895296" lon="17.6538695">
        <ele>28.9769</ele>
        <time>2014-06-01T09:58:47Z</time>
      </trkpt>
      <trkpt lat="59.8953153" lon="17.6538154">
        <ele>28.9769</ele>
        <time>2014-06-01T09:58:48Z</time>
      </trkpt>
      <trkpt lat="59.8953339" lon="17.6537597">
        <ele>28.9769</ele>
        <time>2014-06-01T09:58:49Z</time>
      </trkpt>
      <trkpt lat="59.8953505" lon="17.6536925">
        <ele>28.4962</ele>
        <time>2014-06-01T09:58:50Z</time>
      </trkpt>
      <trkpt lat="59.895363" lon="17.653615">
        <ele>28.4962</ele>
        <time>2014-06-01T09:58:51Z</time>
      </trkpt>
      <trkpt lat="59.8953724" lon="17.6535342">
        <ele>28.4962</ele>
        <time>2014-06-01T09:58:52Z</time>
      </trkpt>
      <trkpt lat="59.8953812" lon="17.6534553">
        <ele>28.4962</ele>
        <time>2014-06-01T09:58:53Z</time>
      </trkpt>
      <trkpt lat="59.8953903" lon="17.6533771">
        <ele>28.0155</ele>
        <time>2014-06-01T09:58:54Z</time>
      </trkpt>
      <trkpt lat="59.8953972" lon="17.6533002">
        <ele>28.0155</ele>
        <time>2014-06-01T09:58:55Z</time>
      </trkpt>
      <trkpt lat="59.8954033" lon="17.6532283">
        <ele>28.0155</ele>
        <time>2014-06-01T09:58:56Z</time>
      </trkpt>
      <trkpt lat="59.8954076" lon="17.6531583">
        <ele>28.0155</ele>
        <time>2014-06-01T09:58:57Z</time>
      </trkpt>
      <trkpt lat="59.8954083" lon="17.6530859">
        <ele>28.4962</ele>
        <time>2014-06-01T09:58:58Z</time>
      </trkpt>
      <trkpt lat="59.8954019" lon="17.6530132">
        <ele>28.4962</ele>
        <time>2014-06-01T09:58:59Z</time>
      </trkpt>
      <trkpt lat="59.8953895" lon="17.6529366">
        <ele>28.4962</ele>
        <time>2014-06-01T09:59:00Z</time>
      </trkpt>
      <trkpt lat="59.8953736" lon="17.6528521">
        <ele>28.4962</ele>
        <time>2014-06-01T09:59:01Z</time>
      </trkpt>
      <trkpt lat="59.8953537" lon="17.6527663">
        <ele>28.4962</ele>
        <time>2014-06-01T09:59:02Z</time>
      </trkpt>
      <trkpt lat="59.8953287" lon="17.6526845">
        <ele>28.9769</ele>
        <time>2014-06-01T09:59:03Z</time>
      </trkpt>
      <trkpt lat="59.8953003" lon="17.6526063">
        <ele>28.9769</ele>
        <time>2014-06-01T09:59:04Z</time>
      </trkpt>
      <trkpt lat="59.8952718" lon="17.6525266">
        <ele>29.4575</ele>
        <time>2014-06-01T09:59:05Z</time>
      </trkpt>
      <trkpt lat="59.8952433" lon="17.6524461">
        <ele>29.4575</ele>
        <time>2014-06-01T09:59:06Z</time>
      </trkpt>
      <trkpt lat="59.8952146" lon="17.6523653">
        <ele>29.4575</ele>
        <time>2014-06-01T09:59:07Z</time>
      </trkpt>
      <trkpt lat="59.8951848" lon="17.6522845">
        <ele>29.9381</ele>
        <time>2014-06-01T09:59:08Z</time>
      </trkpt>
      <trkpt lat="59.8951556" lon="17.6522032">
        <ele>29.9381</ele>
        <time>2014-06-01T09:59:09Z</time>
      </trkpt>
      <trkpt lat="59.8951281" lon="17.6521213">
        <ele>30.4188</ele>
        <time>2014-06-01T09:59:10Z</time>
      </trkpt>
      <trkpt lat="59.8951013" lon="17.6520397">
        <ele>30.4188</ele>
        <time>2014-06-01T09:59:11Z</time>
      </trkpt>
      <trkpt lat="59.8950748" lon="17.6519587">
        <ele>30.8995</ele>
        <time>2014-06-01T09:59:12Z</time>
      </trkpt>
      <trkpt lat="59.8950481" lon="17.6518764">
        <ele>30.8995</ele>
        <time>2014-06-01T09:59:13Z</time>
      </trkpt>
      <trkpt lat="59.89502" lon="17.651794">
        <ele>30.8995</ele>
        <time>2014-06-01T09:59:14Z</time>
      </trkpt>
      <trkpt lat="59.8949893" lon="17.6517156">
        <ele>30.8995</ele>
        <time>2014-06-01T09:59:15Z</time>
      </trkpt>
      <trkpt lat="59.8949595" lon="17.6516395">
        <ele>31.3801</ele>
        <time>2014-06-01T09:59:16Z</time>
      </trkpt>
      <trkpt lat="59.894933" lon="17.651565">
        <ele>31.3801</ele>
        <time>2014-06-01T09:59:17Z</time>
      </trkpt>
      <trkpt lat="59.8949077" lon="17.6514934">
        <ele>31.8607</ele>
        <time>2014-06-01T09:59:18Z</time>
      </trkpt>
      <trkpt lat="59.8948834" lon="17.6514237">
        <ele>31.8607</ele>
        <time>2014-06-01T09:59:19Z</time>
      </trkpt>
      <trkpt lat="59.8948589" lon="17.6513515">
        <ele>31.8607</ele>
        <time>2014-06-01T09:59:20Z</time>
      </trkpt>
      <trkpt lat="59.8948331" lon="17.6512775">
        <ele>31.8607</ele>
        <time>2014-06-01T09:59:21Z</time>
      </trkpt>
      <trkpt lat="59.894807" lon="17.6512041">
        <ele>31.8607</ele>
        <time>2014-06-01T09:59:22Z</time>
      </trkpt>
      <trkpt lat="59.8947821" lon="17.6511331">
        <ele>31.8607</ele>
        <time>2014-06-01T09:59:23Z</time>
      </trkpt>
      <trkpt lat="59.8947598" lon="17.651071">
        <ele>31.8607</ele>
        <time>2014-06-01T09:59:24Z</time>
      </trkpt>
      <trkpt lat="59.8947372" lon="17.6510189">
        <ele>31.8607</ele>
        <time>2014-06-01T09:59:25Z</time>
      </trkpt>
      <trkpt lat="59.8947093" lon="17.6509716">
        <ele>31.8607</ele>
        <time>2014-06-01T09:59:26Z</time>
      </trkpt>
      <trkpt lat="59.8946776" lon="17.6509238">
        <ele>31.8607</ele>
        <time>2014-06-01T09:59:27Z</time>
      </trkpt>
      <trkpt lat="59.8946454" lon="17.6508746">
        <ele>31.8607</ele>
        <time>2014-06-01T09:59:28Z</time>
      </trkpt>
      <trkpt lat="59.8946129" lon="17.6508274">
        <ele>31.8607</ele>
        <time>2014-06-01T09:59:29Z</time>
      </trkpt>
      <trkpt lat="59.8945791" lon="17.6507819">
        <ele>32.3416</ele>
        <time>2014-06-01T09:59:30Z</time>
      </trkpt>
      <trkpt lat="59.894544" lon="17.6507363">
        <ele>32.3416</ele>
        <time>2014-06-01T09:59:31Z</time>
      </trkpt>
      <trkpt lat="59.8945098" lon="17.6506902">
        <ele>32.3416</ele>
        <time>2014-06-01T09:59:32Z</time>
      </trkpt>
      <trkpt lat="59.8944785" lon="17.6506392">
        <ele>32.8223</ele>
        <time>2014-06-01T09:59:33Z</time>
      </trkpt>
      <trkpt lat="59.8944584" lon="17.6505771">
        <ele>32.8223</ele>
        <time>2014-06-01T09:59:34Z</time>
      </trkpt>
      <trkpt lat="59.8944593" lon="17.6505036">
        <ele>32.8223</ele>
        <time>2014-06-01T09:59:35Z</time>
      </trkpt>
      <trkpt lat="59.894479" lon="17.6504332">
        <ele>32.8223</ele>
        <time>2014-06-01T09:59:36Z</time>
      </trkpt>
      <trkpt lat="59.8945086" lon="17.65037">
        <ele>32.8223</ele>
        <time>2014-06-01T09:59:37Z</time>
      </trkpt>
      <trkpt lat="59.8945407" lon="17.6503068">
        <ele>32.8223</ele>
        <time>2014-06-01T09:59:38Z</time>
      </trkpt>
      <trkpt lat="59.8945724" lon="17.6502399">
        <ele>32.8223</ele>
        <time>2014-06-01T09:59:39Z</time>
      </trkpt>
      <trkpt lat="59.8946029" lon="17.6501674">
        <ele>32.8223</ele>
        <time>2014-06-01T09:59:40Z</time>
      </trkpt>
      <trkpt lat="59.8946335" lon="17.650092">
        <ele>32.8223</ele>
        <time>2014-06-01T09:59:41Z</time>
      </trkpt>
      <trkpt lat="59.8946662" lon="17.6500173">
        <ele>32.8223</ele>
        <time>2014-06-01T09:59:42Z</time>
      </trkpt>
      <trkpt lat="59.8947004" lon="17.6499433">
        <ele>32.8223</ele>
        <time>2014-06-01T09:59:43Z</time>
      </trkpt>
      <trkpt lat="59.8947351" lon="17.6498682">
        <ele>33.3029</ele>
        <time>2014-06-01T09:59:44Z</time>
      </trkpt>
      <trkpt lat="59.8947693" lon="17.6497922">
        <ele>33.3029</ele>
        <time>2014-06-01T09:59:45Z</time>
      </trkpt>
      <trkpt lat="59.8948043" lon="17.6497142">
        <ele>33.3029</ele>
        <time>2014-06-01T09:59:46Z</time>
      </trkpt>
      <trkpt lat="59.8948378" lon="17.649633">
        <ele>33.3029</ele>
        <time>2014-06-01T09:59:47Z</time>
      </trkpt>
      <trkpt lat="59.8948707" lon="17.64955">
        <ele>33.3029</ele>
        <time>2014-06-01T09:59:48Z</time>
      </trkpt>
      <trkpt lat="59.8949034" lon="17.649467">
        <ele>33.3029</ele>
        <time>2014-06-01T09:59:49Z</time>
      </trkpt>
      <trkpt lat="59.8949357" lon="17.6493832">
        <ele>33.3029</ele>
        <time>2014-06-01T09:59:50Z</time>
      </trkpt>
      <trkpt lat="59.8949682" lon="17.6492999">
        <ele>33.7834</ele>
        <time>2014-06-01T09:59:51Z</time>
      </trkpt>
      <trkpt lat="59.8950003" lon="17.6492185">
        <ele>33.7834</ele>
        <time>2014-06-01T09:59:52Z</time>
      </trkpt>
      <trkpt lat="59.8950319" lon="17.6491382">
        <ele>33.7834</ele>
        <time>2014-06-01T09:59:53Z</time>
      </trkpt>
      <trkpt lat="59.8950643" lon="17.6490585">
        <ele>33.7834</ele>
        <time>2014-06-01T09:59:54Z</time>
      </trkpt>
      <trkpt lat="59.8950963" lon="17.6489802">
        <ele>33.3029</ele>
        <time>2014-06-01T09:59:55Z</time>
      </trkpt>
      <trkpt lat="59.8951265" lon="17.6489011">
        <ele>33.3029</ele>
        <time>2014-06-01T09:59:56Z</time>
      </trkpt>
      <trkpt lat="59.8951553" lon="17.648822">
        <ele>33.3029</ele>
        <time>2014-06-01T09:59:57Z</time>
      </trkpt>
      <trkpt lat="59.8951843" lon="17.6487428">
        <ele>32.8223</ele>
        <time>2014-06-01T09:59:58Z</time>
      </trkpt>
      <trkpt lat="59.8952132" lon="17.6486627">
        <ele>32.8223</ele>
        <time>2014-06-01T09:59:59Z</time>
      </trkpt>
      <trkpt lat="59.8952413" lon="17.6485799">
        <ele>32.3416</ele>
        <time>2014-06-01T10:00:00Z</time>
      </trkpt>
      <trkpt lat="59.8952648" lon="17.6484927">
        <ele>32.3416</ele>
        <time>2014-06-01T10:00:01Z</time>
      </trkpt>
      <trkpt lat="59.8952822" lon="17.6484016">
        <ele>32.3416</ele>
        <time>2014-06-01T10:00:02Z</time>
      </trkpt>
      <trkpt lat="59.8952957" lon="17.6483099">
        <ele>31.8607</ele>
        <time>2014-06-01T10:00:03Z</time>
      </trkpt>
      <trkpt lat="59.89531" lon="17.6482208">
        <ele>31.8607</ele>
        <time>2014-06-01T10:00:04Z</time>
      </trkpt>
      <trkpt lat="59.8953232" lon="17.6481311">
        <ele>31.8607</ele>
        <time>2014-06-01T10:00:05Z</time>
      </trkpt>
      <trkpt lat="59.8953345" lon="17.6480398">
        <ele>31.8607</ele>
        <time>2014-06-01T10:00:06Z</time>
      </trkpt>
      <trkpt lat="59.8953442" lon="17.647951">
        <ele>32.3416</ele>
        <time>2014-06-01T10:00:07Z</time>
      </trkpt>
      <trkpt lat="59.8953541" lon="17.6478644">
        <ele>32.3416</ele>
        <time>2014-06-01T10:00:08Z</time>
      </trkpt>
      <trkpt lat="59.8953646" lon="17.6477795">
        <ele>32.8223</ele>
        <time>2014-06-01T10:00:09Z</time>
      </trkpt>
      <trkpt lat="59.8953757" lon="17.6476971">
        <ele>33.3029</ele>
        <time>2014-06-01T10:00:10Z</time>
      </trkpt>
      <trkpt lat="59.8953864" lon="17.6476174">
        <ele>33.7834</ele>
        <time>2014-06-01T10:00:11Z</time>
      </trkpt>
      <trkpt lat="59.8953929" lon="17.647538">
        <ele>33.7834</ele>
        <time>2014-06-01T10:00:12Z</time>
      </trkpt>
      <trkpt lat="59.8953982" lon="17.6474593">
        <ele>33.7834</ele>
        <time>2014-06-01T10:00:13Z</time>
      </trkpt>
      <trkpt lat="59.8954054" lon="17.6473814">
        <ele>34.2642</ele>
        <time>2014-06-01T10:00:14Z</time>
      </trkpt>
      <trkpt lat="59.8954115" lon="17.6473023">
        <ele>34.2642</ele>
        <time>2014-06-01T10:00:15Z</time>
      </trkpt>
      <trkpt lat="59.8954163" lon="17.6472248">
        <ele>34.2642</ele>
        <time>2014-06-01T10:00:16Z</time>
      </trkpt>
      <trkpt lat="59.8954203" lon="17.6471506">
        <ele>34.2642</ele>
        <time>2014-06-01T10:00:17Z</time>
      </trkpt>
      <trkpt lat="59.8954236" lon="17.6470779">
        <ele>34.2642</ele>
        <time>2014-06-01T10:00:18Z</time>
      </trkpt>
      <trkpt lat="59.8954287" lon="17.6470055">
        <ele>34.2642</ele>
        <time>2014-06-01T10:00:19Z</time>
      </trkpt>
      <trkpt lat="59.8954359" lon="17.646933">
        <ele>33.7834</ele>
        <time>2014-06-01T10:00:20Z</time>
      </trkpt>
      <trkpt lat="59.8954449" lon="17.6468604">
        <ele>33.7834</ele>
        <time>2014-06-01T10:00:21Z</time>
      </trkpt>
      <trkpt lat="59.8954542" lon="17.6467854">
        <ele>33.7834</ele>
        <time>2014-06-01T10:00:22Z</time>
      </trkpt>
      <trkpt lat="59.8954638" lon="17.6467094">
        <ele>33.7834</ele>
        <time>2014-06-01T10:00:23Z</time>
      </trkpt>
      <trkpt lat="59.8954725" lon="17.6466352">
        <ele>33.3029</ele>
        <time>2014-06-01T10:00:24Z</time>
      </trkpt>
      <trkpt lat="59.8954821" lon="17.6465585">
        <ele>33.3029</ele>
        <time>2014-06-01T10:00:25Z</time>
      </trkpt>
      <trkpt lat="59.8954919" lon="17.646473">
        <ele>33.3029</ele>
        <time>2014-06-01T10:00:26Z</time>
      </trkpt>
      <trkpt lat="59.8955028" lon="17.6463809">
        <ele>33.3029</ele>
        <time>2014-06-01T10:00:27Z</time>
      </trkpt>
      <trkpt lat="59.8955164" lon="17.6462829">
        <ele>32.8223</ele>
        <time>2014-06-01T10:00:28Z</time>
      </trkpt>
      <trkpt lat="59.8955277" lon="17.6461846">
        <ele>32.3416</ele>
        <time>2014-06-01T10:00:29Z</time>
      </trkpt>
      <trkpt lat="59.8955301" lon="17.6460877">
        <ele>31.8607</ele>
        <time>2014-06-01T10:00:30Z</time>
      </trkpt>
      <trkpt lat="59.8955095" lon="17.6460031">
        <ele>31.3801</ele>
        <time>2014-06-01T10:00:31Z</time>
      </trkpt>
      <trkpt lat="59.8954703" lon="17.6459489">
        <ele>30.8995</ele>
        <time>2014-06-01T10:00:32Z</time>
      </trkpt>
      <trkpt lat="59.8954193" lon="17.6459194">
        <ele>30.8995</ele>
        <time>2014-06-01T10:00:33Z</time>
      </trkpt>
      <trkpt lat="59.8953716" lon="17.6458714">
        <ele>30.4188</ele>
        <time>2014-06-01T10:00:34Z</time>
      </trkpt>
      <trkpt lat="59.8953402" lon="17.6457875">
        <ele>29.9381</ele>
        <time>2014-06-01T10:00:35Z</time>
      </trkpt>
      <trkpt lat="59.8953297" lon="17.6456853">
        <ele>29.9381</ele>
        <time>2014-06-01T10:00:36Z</time>
      </trkpt>
      <trkpt lat="59.8953354" lon="17.6455769">
        <ele>29.9381</ele>
        <time>2014-06-01T10:00:37Z</time>
      </trkpt>
      <trkpt lat="59.8953462" lon="17.6454681">
        <ele>29.9381</ele>
        <time>2014-06-01T10:00:38Z</time>
      </trkpt>
      <trkpt lat="59.8953565" lon="17.6453562">
        <ele>29.9381</ele>
        <time>2014-06-01T10:00:39Z</time>
      </trkpt>
      <trkpt lat="59.895366" lon="17.6452403">
        <ele>30.4188</ele>
        <time>2014-06-01T10:00:40Z</time>
      </trkpt>
      <trkpt lat="59.8953755" lon="17.6451231">
        <ele>30.8995</ele>
        <time>2014-06-01T10:00:41Z</time>
      </trkpt>
      <trkpt lat="59.8953862" lon="17.6450077">
        <ele>30.8995</ele>
        <time>2014-06-01T10:00:42Z</time>
      </trkpt>
      <trkpt lat="59.8953966" lon="17.644893">
        <ele>30.8995</ele>
        <time>2014-06-01T10:00:43Z</time>
      </trkpt>
      <trkpt lat="59.8954075" lon="17.6447771">
        <ele>31.3801</ele>
        <time>2014-06-01T10:00:44Z</time>
      </trkpt>
      <trkpt lat="59.8954183" lon="17.6446605">
        <ele>31.3801</ele>
        <time>2014-06-01T10:00:45Z</time>
      </trkpt>
      <trkpt lat="59.8954281" lon="17.644545">
        <ele>31.3801</ele>
        <time>2014-06-01T10:00:46Z</time>
      </trkpt>
      <trkpt lat="59.8954386" lon="17.64443">
        <ele>31.3801</ele>
        <time>2014-06-01T10:00:47Z</time>
      </trkpt>
      <trkpt lat="59.8954489" lon="17.6443145">
        <ele>31.3801</ele>
        <time>2014-06-01T10:00:48Z</time>
      </trkpt>
      <trkpt lat="59.8954584" lon="17.6441983">
        <ele>31.3801</ele>
        <time>2014-06-01T10:00:49Z</time>
      </trkpt>
      <trkpt lat="59.895468" lon="17.6440822">
        <ele>31.3801</ele>
        <time>2014-06-01T10:00:50Z</time>
      </trkpt>
      <trkpt lat="59.8954769" lon="17.6439675">
        <ele>31.3801</ele>
        <time>2014-06-01T10:00:51Z</time>
      </trkpt>
      <trkpt lat="59.895486" lon="17.643853">
        <ele>31.3801</ele>
        <time>2014-06-01T10:00:52Z</time>
      </trkpt>
      <trkpt lat="59.8954944" lon="17.643739">
        <ele>31.3801</ele>
        <time>2014-06-01T10:00:53Z</time>
      </trkpt>
      <trkpt lat="59.8955007" lon="17.6436269">
        <ele>31.3801</ele>
        <time>2014-06-01T10:00:54Z</time>
      </trkpt>
      <trkpt lat="59.8955067" lon="17.6435152">
        <ele>30.8995</ele>
        <time>2014-06-01T10:00:55Z</time>
      </trkpt>
      <trkpt lat="59.8955129" lon="17.6434047">
        <ele>30.4188</ele>
        <time>2014-06-01T10:00:56Z</time>
      </trkpt>
      <trkpt lat="59.8955205" lon="17.6432954">
        <ele>30.4188</ele>
        <time>2014-06-01T10:00:57Z</time>
      </trkpt>
      <trkpt lat="59.8955293" lon="17.6431853">
        <ele>29.9381</ele>
        <time>2014-06-01T10:00:58Z</time>
      </trkpt>
      <trkpt lat="59.8955371" lon="17.6430733">
        <ele>29.9381</ele>
        <time>2014-06-01T10:00:59Z</time>
      </trkpt>
      <trkpt lat="59.8955461" lon="17.6429573">
        <ele>30.4188</ele>
        <time>2014-06-01T10:01:00Z</time>
      </trkpt>
      <trkpt lat="59.8955545" lon="17.6428418">
        <ele>30.4188</ele>
        <time>2014-06-01T10:01:01Z</time>
      </trkpt>
      <trkpt lat="59.8955629" lon="17.6427276">
        <ele>30.4188</ele>
        <time>2014-06-01T10:01:02Z</time>
      </trkpt>
      <trkpt lat="59.8955721" lon="17.6426128">
        <ele>30.4188</ele>
        <time>2014-06-01T10:01:03Z</time>
      </trkpt>
      <trkpt lat="59.8955832" lon="17.6424985">
        <ele>30.4188</ele>
        <time>2014-06-01T10:01:04Z</time>
      </trkpt>
      <trkpt lat="59.8955914" lon="17.6423833">
        <ele>30.4188</ele>
        <time>2014-06-01T10:01:05Z</time>
      </trkpt>
      <trkpt lat="59.8955986" lon="17.6422704">
        <ele>30.4188</ele>
        <time>2014-06-01T10:01:06Z</time>
      </trkpt>
      <trkpt lat="59.8956055" lon="17.6421584">
        <ele>30.4188</ele>
        <time>2014-06-01T10:01:07Z</time>
      </trkpt>
      <trkpt lat="59.8956125" lon="17.6420452">
        <ele>30.4188</ele>
        <time>2014-06-01T10:01:08Z</time>
      </trkpt>
      <trkpt lat="59.8956202" lon="17.6419322">
        <ele>30.8995</ele>
        <time>2014-06-01T10:01:09Z</time>
      </trkpt>
      <trkpt lat="59.8956293" lon="17.6418197">
        <ele>30.8995</ele>
        <time>2014-06-01T10:01:10Z</time>
      </trkpt>
      <trkpt lat="59.8956381" lon="17.6417084">
        <ele>30.8995</ele>
        <time>2014-06-01T10:01:11Z</time>
      </trkpt>
      <trkpt lat="59.8956473" lon="17.6415971">
        <ele>30.8995</ele>
        <time>2014-06-01T10:01:12Z</time>
      </trkpt>
      <trkpt lat="59.8956566" lon="17.6414868">
        <ele>31.3801</ele>
        <time>2014-06-01T10:01:13Z</time>
      </trkpt>
      <trkpt lat="59.8956648" lon="17.6413773">
        <ele>31.3801</ele>
        <time>2014-06-01T10:01:14Z</time>
      </trkpt>
      <trkpt lat="59.8956726" lon="17.6412685">
        <ele>30.8995</ele>
        <time>2014-06-01T10:01:15Z</time>
      </trkpt>
      <trkpt lat="59.895681" lon="17.6411601">
        <ele>30.8995</ele>
        <time>2014-06-01T10:01:16Z</time>
      </trkpt>
      <trkpt lat="59.8956918" lon="17.6410525">
        <ele>30.8995</ele>
        <time>2014-06-01T10:01:17Z</time>
      </trkpt>
      <trkpt lat="59.8957022" lon="17.6409448">
        <ele>31.3801</ele>
        <time>2014-06-01T10:01:18Z</time>
      </trkpt>
      <trkpt lat="59.895711" lon="17.6408387">
        <ele>31.3801</ele>
        <time>2014-06-01T10:01:19Z</time>
      </trkpt>
      <trkpt lat="59.8957194" lon="17.6407341">
        <ele>31.3801</ele>
        <time>2014-06-01T10:01:20Z</time>
      </trkpt>
      <trkpt lat="59.8957285" lon="17.6406339">
        <ele>31.3801</ele>
        <time>2014-06-01T10:01:21Z</time>
      </trkpt>
      <trkpt lat="59.89574" lon="17.6405386">
        <ele>31.3801</ele>
        <time>2014-06-01T10:01:22Z</time>
      </trkpt>
      <trkpt lat="59.8957521" lon="17.640447">
        <ele>31.3801</ele>
        <time>2014-06-01T10:01:23Z</time>
      </trkpt>
      <trkpt lat="59.8957648" lon="17.6403531">
        <ele>31.3801</ele>
        <time>2014-06-01T10:01:24Z</time>
      </trkpt>
      <trkpt lat="59.8957771" lon="17.6402645">
        <ele>31.3801</ele>
        <time>2014-06-01T10:01:25Z</time>
      </trkpt>
      <trkpt lat="59.8957917" lon="17.6401775">
        <ele>30.8995</ele>
        <time>2014-06-01T10:01:26Z</time>
      </trkpt>
      <trkpt lat="59.8958082" lon="17.6400863">
        <ele>30.8995</ele>
        <time>2014-06-01T10:01:27Z</time>
      </trkpt>
      <trkpt lat="59.8958254" lon="17.6399911">
        <ele>30.8995</ele>
        <time>2014-06-01T10:01:28Z</time>
      </trkpt>
      <trkpt lat="59.8958438" lon="17.6398974">
        <ele>30.8995</ele>
        <time>2014-06-01T10:01:29Z</time>
      </trkpt>
      <trkpt lat="59.8958652" lon="17.6398058">
        <ele>30.8995</ele>
        <time>2014-06-01T10:01:30Z</time>
      </trkpt>
      <trkpt lat="59.895886" lon="17.639713">
        <ele>30.8995</ele>
        <time>2014-06-01T10:01:31Z</time>
      </trkpt>
      <trkpt lat="59.8959027" lon="17.6396161">
        <ele>31.3801</ele>
        <time>2014-06-01T10:01:32Z</time>
      </trkpt>
      <trkpt lat="59.8959182" lon="17.6395182">
        <ele>31.3801</ele>
        <time>2014-06-01T10:01:33Z</time>
      </trkpt>
      <trkpt lat="59.8959331" lon="17.6394194">
        <ele>31.3801</ele>
        <time>2014-06-01T10:01:34Z</time>
      </trkpt>
      <trkpt lat="59.8959468" lon="17.6393233">
        <ele>31.3801</ele>
        <time>2014-06-01T10:01:35Z</time>
      </trkpt>
      <trkpt lat="59.8959576" lon="17.6392339">
        <ele>30.8995</ele>
        <time>2014-06-01T10:01:36Z</time>
      </trkpt>
      <trkpt lat="59.8959652" lon="17.6391489">
        <ele>30.4188</ele>
        <time>2014-06-01T10:01:37Z</time>
      </trkpt>
      <trkpt lat="59.8959769" lon="17.639067">
        <ele>30.8995</ele>
        <time>2014-06-01T10:01:38Z</time>
      </trkpt>
      <trkpt lat="59.8959932" lon="17.638989">
        <ele>31.3801</ele>
        <time>2014-06-01T10:01:39Z</time>
      </trkpt>
      <trkpt lat="59.8960095" lon="17.6389172">
        <ele>31.8607</ele>
        <time>2014-06-01T10:01:40Z</time>
      </trkpt>
      <trkpt lat="59.8960249" lon="17.6388508">
        <ele>32.3416</ele>
        <time>2014-06-01T10:01:41Z</time>
      </trkpt>
      <trkpt lat="59.896041" lon="17.6387871">
        <ele>32.8223</ele>
        <time>2014-06-01T10:01:42Z</time>
      </trkpt>
      <trkpt lat="59.896057" lon="17.6387253">
        <ele>33.3029</ele>
        <time>2014-06-01T10:01:43Z</time>
      </trkpt>
      <trkpt lat="59.89608" lon="17.6386726">
        <ele>33.7834</ele>
        <time>2014-06-01T10:01:44Z</time>
      </trkpt>
      <trkpt lat="59.8961123" lon="17.6386376">
        <ele>34.2642</ele>
        <time>2014-06-01T10:01:45Z</time>
      </trkpt>
      <trkpt lat="59.8961503" lon="17.6386255">
        <ele>34.2642</ele>
        <time>2014-06-01T10:01:46Z</time>
      </trkpt>
      <trkpt lat="59.8961946" lon="17.6386325">
        <ele>33.7834</ele>
        <time>2014-06-01T10:01:47Z</time>
      </trkpt>
      <trkpt lat="59.896241" lon="17.6386516">
        <ele>33.7834</ele>
        <time>2014-06-01T10:01:48Z</time>
      </trkpt>
      <trkpt lat="59.8962898" lon="17.6386734">
        <ele>33.3029</ele>
        <time>2014-06-01T10:01:49Z</time>
      </trkpt>
      <trkpt lat="59.8963395" lon="17.6386991">
        <ele>32.8223</ele>
        <time>2014-06-01T10:01:50Z</time>
      </trkpt>
      <trkpt lat="59.8963923" lon="17.6387334">
        <ele>32.3416</ele>
        <time>2014-06-01T10:01:51Z</time>
      </trkpt>
      <trkpt lat="59.8964469" lon="17.6387754">
        <ele>31.8607</ele>
        <time>2014-06-01T10:01:52Z</time>
      </trkpt>
      <trkpt lat="59.8965029" lon="17.6388183">
        <ele>31.3801</ele>
        <time>2014-06-01T10:01:53Z</time>
      </trkpt>
      <trkpt lat="59.8965596" lon="17.638846">
        <ele>30.8995</ele>
        <time>2014-06-01T10:01:54Z</time>
      </trkpt>
      <trkpt lat="59.8966154" lon="17.6388376">
        <ele>30.8995</ele>
        <time>2014-06-01T10:01:55Z</time>
      </trkpt>
      <trkpt lat="59.896665" lon="17.6387895">
        <ele>30.8995</ele>
        <time>2014-06-01T10:01:56Z</time>
      </trkpt>
      <trkpt lat="59.8967018" lon="17.6387046">
        <ele>30.4188</ele>
        <time>2014-06-01T10:01:57Z</time>
      </trkpt>
      <trkpt lat="59.8967269" lon="17.6385982">
        <ele>30.4188</ele>
        <time>2014-06-01T10:01:58Z</time>
      </trkpt>
      <trkpt lat="59.8967482" lon="17.6384843">
        <ele>30.8995</ele>
        <time>2014-06-01T10:01:59Z</time>
      </trkpt>
      <trkpt lat="59.8967704" lon="17.6383694">
        <ele>30.8995</ele>
        <time>2014-06-01T10:02:00Z</time>
      </trkpt>
      <trkpt lat="59.8967926" lon="17.6382557">
        <ele>30.8995</ele>
        <time>2014-06-01T10:02:01Z</time>
      </trkpt>
      <trkpt lat="59.8968145" lon="17.6381428">
        <ele>31.3801</ele>
        <time>2014-06-01T10:02:02Z</time>
      </trkpt>
      <trkpt lat="59.8968381" lon="17.638032">
        <ele>31.3801</ele>
        <time>2014-06-01T10:02:03Z</time>
      </trkpt>
      <trkpt lat="59.8968621" lon="17.6379248">
        <ele>31.3801</ele>
        <time>2014-06-01T10:02:04Z</time>
      </trkpt>
      <trkpt lat="59.8968848" lon="17.6378211">
        <ele>31.8607</ele>
        <time>2014-06-01T10:02:05Z</time>
      </trkpt>
      <trkpt lat="59.8969054" lon="17.6377212">
        <ele>31.8607</ele>
        <time>2014-06-01T10:02:06Z</time>
      </trkpt>
      <trkpt lat="59.8969233" lon="17.637624">
        <ele>32.3416</ele>
        <time>2014-06-01T10:02:07Z</time>
      </trkpt>
      <trkpt lat="59.8969395" lon="17.6375291">
        <ele>31.8607</ele>
        <time>2014-06-01T10:02:08Z</time>
      </trkpt>
      <trkpt lat="59.8969548" lon="17.6374325">
        <ele>31.8607</ele>
        <time>2014-06-01T10:02:09Z</time>
      </trkpt>
      <trkpt lat="59.8969723" lon="17.6373381">
        <ele>31.3801</ele>
        <time>2014-06-01T10:02:10Z</time>
      </trkpt>
      <trkpt lat="59.8969896" lon="17.6372504">
        <ele>30.8995</ele>
        <time>2014-06-01T10:02:11Z</time>
      </trkpt>
      <trkpt lat="59.8970043" lon="17.637173">
        <ele>30.8995</ele>
        <time>2014-06-01T10:02:12Z</time>
      </trkpt>
      <trkpt lat="59.8970164" lon="17.6371058">
        <ele>30.8995</ele>
        <time>2014-06-01T10:02:13Z</time>
      </trkpt>
      <trkpt lat="59.8970307" lon="17.6370432">
        <ele>30.8995</ele>
        <time>2014-06-01T10:02:14Z</time>
      </trkpt>
      <trkpt lat="59.8970546" lon="17.63699">
        <ele>30.8995</ele>
        <time>2014-06-01T10:02:15Z</time>
      </trkpt>
      <trkpt lat="59.8970882" lon="17.6369561">
        <ele>30.8995</ele>
        <time>2014-06-01T10:02:16Z</time>
      </trkpt>
      <trkpt lat="59.8971283" lon="17.6369375">
        <ele>30.8995</ele>
        <time>2014-06-01T10:02:17Z</time>
      </trkpt>
      <trkpt lat="59.8971723" lon="17.6369195">
        <ele>30.8995</ele>
        <time>2014-06-01T10:02:18Z</time>
      </trkpt>
      <trkpt lat="59.8972174" lon="17.6368956">
        <ele>30.8995</ele>
        <time>2014-06-01T10:02:19Z</time>
      </trkpt>
      <trkpt lat="59.8972633" lon="17.6368593">
        <ele>30.4188</ele>
        <time>2014-06-01T10:02:20Z</time>
      </trkpt>
      <trkpt lat="59.8973085" lon="17.6368003">
        <ele>30.4188</ele>
        <time>2014-06-01T10:02:21Z</time>
      </trkpt>
      <trkpt lat="59.8973493" lon="17.6367188">
        <ele>30.4188</ele>
        <time>2014-06-01T10:02:22Z</time>
      </trkpt>
      <trkpt lat="59.8973846" lon="17.6366214">
        <ele>30.4188</ele>
        <time>2014-06-01T10:02:23Z</time>
      </trkpt>
      <trkpt lat="59.8974173" lon="17.6365149">
        <ele>30.4188</ele>
        <time>2014-06-01T10:02:24Z</time>
      </trkpt>
      <trkpt lat="59.8974508" lon="17.6364035">
        <ele>29.9381</ele>
        <time>2014-06-01T10:02:25Z</time>
      </trkpt>
      <trkpt lat="59.8974857" lon="17.6362901">
        <ele>29.9381</ele>
        <time>2014-06-01T10:02:26Z</time>
      </trkpt>
      <trkpt lat="59.897524" lon="17.6361792">
        <ele>29.9381</ele>
        <time>2014-06-01T10:02:27Z</time>
      </trkpt>
      <trkpt lat="59.8975632" lon="17.6360692">
        <ele>29.9381</ele>
        <time>2014-06-01T10:02:28Z</time>
      </trkpt>
      <trkpt lat="59.8976006" lon="17.6359579">
        <ele>29.4575</ele>
        <time>2014-06-01T10:02:29Z</time>
      </trkpt>
      <trkpt lat="59.8976369" lon="17.6358462">
        <ele>29.4575</ele>
        <time>2014-06-01T10:02:30Z</time>
      </trkpt>
      <trkpt lat="59.8976722" lon="17.635735">
        <ele>28.9769</ele>
        <time>2014-06-01T10:02:31Z</time>
      </trkpt>
      <trkpt lat="59.8977069" lon="17.6356237">
        <ele>28.9769</ele>
        <time>2014-06-01T10:02:32Z</time>
      </trkpt>
      <trkpt lat="59.8977423" lon="17.635514">
        <ele>28.4962</ele>
        <time>2014-06-01T10:02:33Z</time>
      </trkpt>
      <trkpt lat="59.8977809" lon="17.6354073">
        <ele>28.4962</ele>
        <time>2014-06-01T10:02:34Z</time>
      </trkpt>
      <trkpt lat="59.8978234" lon="17.6353064">
        <ele>28.0155</ele>
        <time>2014-06-01T10:02:35Z</time>
      </trkpt>
      <trkpt lat="59.8978696" lon="17.6352123">
        <ele>28.0155</ele>
        <time>2014-06-01T10:02:36Z</time>
      </trkpt>
      <trkpt lat="59.8979171" lon="17.6351212">
        <ele>27.5349</ele>
        <time>2014-06-01T10:02:37Z</time>
      </trkpt>
      <trkpt lat="59.8979633" lon="17.6350282">
        <ele>27.5349</ele>
        <time>2014-06-01T10:02:38Z</time>
      </trkpt>
      <trkpt lat="59.8980051" lon="17.6349286">
        <ele>27.5349</ele>
        <time>2014-06-01T10:02:39Z</time>
      </trkpt>
      <trkpt lat="59.8980399" lon="17.6348257">
        <ele>27.5349</ele>
        <time>2014-06-01T10:02:40Z</time>
      </trkpt>
      <trkpt lat="59.8980654" lon="17.634725">
        <ele>28.0155</ele>
        <time>2014-06-01T10:02:41Z</time>
      </trkpt>
      <trkpt lat="59.8980864" lon="17.6346277">
        <ele>28.0155</ele>
        <time>2014-06-01T10:02:42Z</time>
      </trkpt>
      <trkpt lat="59.8981031" lon="17.6345328">
        <ele>28.0155</ele>
        <time>2014-06-01T10:02:43Z</time>
      </trkpt>
      <trkpt lat="59.8981145" lon="17.6344419">
        <ele>28.0155</ele>
        <time>2014-06-01T10:02:44Z</time>
      </trkpt>
      <trkpt lat="59.8981224" lon="17.6343502">
        <ele>28.0155</ele>
        <time>2014-06-01T10:02:45Z</time>
      </trkpt>
      <trkpt lat="59.8981312" lon="17.6342538">
        <ele>28.0155</ele>
        <time>2014-06-01T10:02:46Z</time>
      </trkpt>
      <trkpt lat="59.8981425" lon="17.6341557">
        <ele>28.0155</ele>
        <time>2014-06-01T10:02:47Z</time>
      </trkpt>
      <trkpt lat="59.8981544" lon="17.6340561">
        <ele>28.0155</ele>
        <time>2014-06-01T10:02:48Z</time>
      </trkpt>
      <trkpt lat="59.898166" lon="17.6339552">
        <ele>28.0155</ele>
        <time>2014-06-01T10:02:49Z</time>
      </trkpt>
      <trkpt lat="59.8981753" lon="17.6338555">
        <ele>28.0155</ele>
        <time>2014-06-01T10:02:50Z</time>
      </trkpt>
      <trkpt lat="59.8981856" lon="17.633759">
        <ele>28.0155</ele>
        <time>2014-06-01T10:02:51Z</time>
      </trkpt>
      <trkpt lat="59.8981968" lon="17.6336666">
        <ele>28.4962</ele>
        <time>2014-06-01T10:02:52Z</time>
      </trkpt>
      <trkpt lat="59.898208" lon="17.6335765">
        <ele>28.4962</ele>
        <time>2014-06-01T10:02:53Z</time>
      </trkpt>
      <trkpt lat="59.8982178" lon="17.6334839">
        <ele>28.4962</ele>
        <time>2014-06-01T10:02:54Z</time>
      </trkpt>
      <trkpt lat="59.8982268" lon="17.6333907">
        <ele>28.4962</ele>
        <time>2014-06-01T10:02:55Z</time>
      </trkpt>
      <trkpt lat="59.8982358" lon="17.6332998">
        <ele>28.4962</ele>
        <time>2014-06-01T10:02:56Z</time>
      </trkpt>
      <trkpt lat="59.8982457" lon="17.6332098">
        <ele>28.9769</ele>
        <time>2014-06-01T10:02:57Z</time>
      </trkpt>
      <trkpt lat="59.898257" lon="17.6331222">
        <ele>28.9769</ele>
        <time>2014-06-01T10:02:58Z</time>
      </trkpt>
      <trkpt lat="59.898271" lon="17.6330354">
        <ele>29.4575</ele>
        <time>2014-06-01T10:02:59Z</time>
      </trkpt>
      <trkpt lat="59.8982876" lon="17.6329489">
        <ele>29.4575</ele>
        <time>2014-06-01T10:03:00Z</time>
      </trkpt>
      <trkpt lat="59.8983086" lon="17.6328645">
        <ele>29.9381</ele>
        <time>2014-06-01T10:03:01Z</time>
      </trkpt>
      <trkpt lat="59.8983375" lon="17.6327836">
        <ele>29.9381</ele>
        <time>2014-06-01T10:03:02Z</time>
      </trkpt>
      <trkpt lat="59.8983713" lon="17.6327089">
        <ele>30.4188</ele>
        <time>2014-06-01T10:03:03Z</time>
      </trkpt>
      <trkpt lat="59.8984094" lon="17.6326433">
        <ele>30.8995</ele>
        <time>2014-06-01T10:03:04Z</time>
      </trkpt>
      <trkpt lat="59.8984516" lon="17.6325894">
        <ele>30.8995</ele>
        <time>2014-06-01T10:03:05Z</time>
      </trkpt>
      <trkpt lat="59.8984962" lon="17.6325457">
        <ele>31.3801</ele>
        <time>2014-06-01T10:03:06Z</time>
      </trkpt>
      <trkpt lat="59.898543" lon="17.6325131">
        <ele>31.3801</ele>
        <time>2014-06-01T10:03:07Z</time>
      </trkpt>
      <trkpt lat="59.8985901" lon="17.6324867">
        <ele>31.8607</ele>
        <time>2014-06-01T10:03:08Z</time>
      </trkpt>
      <trkpt lat="59.8986353" lon="17.6324589">
        <ele>32.3416</ele>
        <time>2014-06-01T10:03:09Z</time>
      </trkpt>
      <trkpt lat="59.8986786" lon="17.6324281">
        <ele>32.8223</ele>
        <time>2014-06-01T10:03:10Z</time>
      </trkpt>
      <trkpt lat="59.8987205" lon="17.6324006">
        <ele>33.3029</ele>
        <time>2014-06-01T10:03:11Z</time>
      </trkpt>
      <trkpt lat="59.8987612" lon="17.6323769">
        <ele>33.7834</ele>
        <time>2014-06-01T10:03:12Z</time>
      </trkpt>
      <trkpt lat="59.8988004" lon="17.6323514">
        <ele>33.7834</ele>
        <time>2014-06-01T10:03:13Z</time>
      </trkpt>
      <trkpt lat="59.8988377" lon="17.6323234">
        <ele>34.2642</ele>
        <time>2014-06-01T10:03:14Z</time>
      </trkpt>
      <trkpt lat="59.8988723" lon="17.6322908">
        <ele>34.2642</ele>
        <time>2014-06-01T10:03:15Z</time>
      </trkpt>
      <trkpt lat="59.898906" lon="17.632252">
        <ele>34.7449</ele>
        <time>2014-06-01T10:03:16Z</time>
      </trkpt>
      <trkpt lat="59.8989389" lon="17.63221">
        <ele>34.7449</ele>
        <time>2014-06-01T10:03:17Z</time>
      </trkpt>
      <trkpt lat="59.8989715" lon="17.6321645">
        <ele>34.7449</ele>
        <time>2014-06-01T10:03:18Z</time>
      </trkpt>
      <trkpt lat="59.899003" lon="17.6321147">
        <ele>34.7449</ele>
        <time>2014-06-01T10:03:19Z</time>
      </trkpt>
      <trkpt lat="59.8990356" lon="17.632065">
        <ele>34.2642</ele>
        <time>2014-06-01T10:03:20Z</time>
      </trkpt>
      <trkpt lat="59.8990668" lon="17.6320082">
        <ele>34.2642</ele>
        <time>2014-06-01T10:03:21Z</time>
      </trkpt>
      <trkpt lat="59.899095" lon="17.6319408">
        <ele>34.2642</ele>
        <time>2014-06-01T10:03:22Z</time>
      </trkpt>
      <trkpt lat="59.8991221" lon="17.6318693">
        <ele>34.2642</ele>
        <time>2014-06-01T10:03:23Z</time>
      </trkpt>
      <trkpt lat="59.8991386" lon="17.631791">
        <ele>33.7834</ele>
        <time>2014-06-01T10:03:24Z</time>
      </trkpt>
      <trkpt lat="59.8991356" lon="17.6317101">
        <ele>33.7834</ele>
        <time>2014-06-01T10:03:25Z</time>
      </trkpt>
      <trkpt lat="59.8991173" lon="17.6316345">
        <ele>32.8223</ele>
        <time>2014-06-01T10:03:26Z</time>
      </trkpt>
      <trkpt lat="59.8990925" lon="17.6315611">
        <ele>32.8223</ele>
        <time>2014-06-01T10:03:27Z</time>
      </trkpt>
      <trkpt lat="59.8990618" lon="17.6314874">
        <ele>32.3416</ele>
        <time>2014-06-01T10:03:28Z</time>
      </trkpt>
      <trkpt lat="59.8990279" lon="17.6314074">
        <ele>31.8607</ele>
        <time>2014-06-01T10:03:29Z</time>
      </trkpt>
      <trkpt lat="59.8989937" lon="17.6313218">
        <ele>31.3801</ele>
        <time>2014-06-01T10:03:30Z</time>
      </trkpt>
      <trkpt lat="59.8989594" lon="17.6312322">
        <ele>31.3801</ele>
        <time>2014-06-01T10:03:31Z</time>
      </trkpt>
      <trkpt lat="59.8989242" lon="17.6311457">
        <ele>31.3801</ele>
        <time>2014-06-01T10:03:32Z</time>
      </trkpt>
      <trkpt lat="59.8988873" lon="17.6310628">
        <ele>30.8995</ele>
        <time>2014-06-01T10:03:33Z</time>
      </trkpt>
      <trkpt lat="59.8988448" lon="17.6309802">
        <ele>31.3801</ele>
        <time>2014-06-01T10:03:34Z</time>
      </trkpt>
      <trkpt lat="59.8988011" lon="17.6308935">
        <ele>31.3801</ele>
        <time>2014-06-01T10:03:35Z</time>
      </trkpt>
      <trkpt lat="59.8987611" lon="17.630801">
        <ele>31.3801</ele>
        <time>2014-06-01T10:03:36Z</time>
      </trkpt>
      <trkpt lat="59.8987257" lon="17.6307048">
        <ele>31.3801</ele>
        <time>2014-06-01T10:03:37Z</time>
      </trkpt>
      <trkpt lat="59.8986923" lon="17.6306033">
        <ele>31.3801</ele>
        <time>2014-06-01T10:03:38Z</time>
      </trkpt>
      <trkpt lat="59.8986606" lon="17.6304981">
        <ele>31.3801</ele>
        <time>2014-06-01T10:03:39Z</time>
      </trkpt>
      <trkpt lat="59.8986274" lon="17.6303971">
        <ele>31.3801</ele>
        <time>2014-06-01T10:03:40Z</time>
      </trkpt>
      <trkpt lat="59.8985912" lon="17.6303018">
        <ele>31.8607</ele>
        <time>2014-06-01T10:03:41Z</time>
      </trkpt>
      <trkpt lat="59.8985575" lon="17.6302076">
        <ele>32.3416</ele>
        <time>2014-06-01T10:03:42Z</time>
      </trkpt>
      <trkpt lat="59.8985268" lon="17.6301153">
        <ele>32.8223</ele>
        <time>2014-06-01T10:03:43Z</time>
      </trkpt>
      <trkpt lat="59.8984943" lon="17.6300267">
        <ele>33.3029</ele>
        <time>2014-06-01T10:03:44Z</time>
      </trkpt>
      <trkpt lat="59.8984618" lon="17.6299408">
        <ele>33.7834</ele>
        <time>2014-06-01T10:03:45Z</time>
      </trkpt>
      <trkpt lat="59.8984315" lon="17.6298558">
        <ele>33.7834</ele>
        <time>2014-06-01T10:03:46Z</time>
      </trkpt>
      <trkpt lat="59.8984026" lon="17.6297698">
        <ele>34.2642</ele>
        <time>2014-06-01T10:03:47Z</time>
      </trkpt>
      <trkpt lat="59.8983741" lon="17.6296811">
        <ele>34.2642</ele>
        <time>2014-06-01T10:03:48Z</time>
      </trkpt>
      <trkpt lat="59.8983435" lon="17.6295869">
        <ele>33.7834</ele>
        <time>2014-06-01T10:03:49Z</time>
      </trkpt>
      <trkpt lat="59.8983109" lon="17.6294883">
        <ele>33.7834</ele>
        <time>2014-06-01T10:03:50Z</time>
      </trkpt>
      <trkpt lat="59.8982788" lon="17.629386">
        <ele>33.7834</ele>
        <time>2014-06-01T10:03:51Z</time>
      </trkpt>
      <trkpt lat="59.8982489" lon="17.6292803">
        <ele>33.7834</ele>
        <time>2014-06-01T10:03:52Z</time>
      </trkpt>
      <trkpt lat="59.8982219" lon="17.6291746">
        <ele>34.2642</ele>
        <time>2014-06-01T10:03:53Z</time>
      </trkpt>
      <trkpt lat="59.8981964" lon="17.6290688">
        <ele>33.7834</ele>
        <time>2014-06-01T10:03:54Z</time>
      </trkpt>
      <trkpt lat="59.8981736" lon="17.6289576">
        <ele>34.2642</ele>
        <time>2014-06-01T10:03:55Z</time>
      </trkpt>
      <trkpt lat="59.898155" lon="17.6288471">
        <ele>34.2642</ele>
        <time>2014-06-01T10:03:56Z</time>
      </trkpt>
      <trkpt lat="59.8981378" lon="17.6287441">
        <ele>34.7449</ele>
        <time>2014-06-01T10:03:57Z</time>
      </trkpt>
      <trkpt lat="59.8981203" lon="17.6286463">
        <ele>34.7449</ele>
        <time>2014-06-01T10:03:58Z</time>
      </trkpt>
      <trkpt lat="59.8981027" lon="17.6285466">
        <ele>34.7449</ele>
        <time>2014-06-01T10:03:59Z</time>
      </trkpt>
      <trkpt lat="59.8980839" lon="17.6284416">
        <ele>34.7449</ele>
        <time>2014-06-01T10:04:00Z</time>
      </trkpt>
      <trkpt lat="59.8980628" lon="17.6283332">
        <ele>34.7449</ele>
        <time>2014-06-01T10:04:01Z</time>
      </trkpt>
      <trkpt lat="59.8980382" lon="17.628223">
        <ele>35.2255</ele>
        <time>2014-06-01T10:04:02Z</time>
      </trkpt>
      <trkpt lat="59.8980104" lon="17.6281109">
        <ele>35.2255</ele>
        <time>2014-06-01T10:04:03Z</time>
      </trkpt>
      <trkpt lat="59.8979803" lon="17.627997">
        <ele>35.2255</ele>
        <time>2014-06-01T10:04:04Z</time>
      </trkpt>
      <trkpt lat="59.8979482" lon="17.6278813">
        <ele>34.7449</ele>
        <time>2014-06-01T10:04:05Z</time>
      </trkpt>
      <trkpt lat="59.8979113" lon="17.6277661">
        <ele>34.7449</ele>
        <time>2014-06-01T10:04:06Z</time>
      </trkpt>
      <trkpt lat="59.8978659" lon="17.6276548">
        <ele>34.2642</ele>
        <time>2014-06-01T10:04:07Z</time>
      </trkpt>
      <trkpt lat="59.8978187" lon="17.6275409">
        <ele>34.2642</ele>
        <time>2014-06-01T10:04:08Z</time>
      </trkpt>
      <trkpt lat="59.8977759" lon="17.6274187">
        <ele>33.7834</ele>
        <time>2014-06-01T10:04:09Z</time>
      </trkpt>
      <trkpt lat="59.8977354" lon="17.6272922">
        <ele>33.3029</ele>
        <time>2014-06-01T10:04:10Z</time>
      </trkpt>
      <trkpt lat="59.8976918" lon="17.6271668">
        <ele>32.8223</ele>
        <time>2014-06-01T10:04:11Z</time>
      </trkpt>
      <trkpt lat="59.8976472" lon="17.6270492">
        <ele>32.8223</ele>
        <time>2014-06-01T10:04:12Z</time>
      </trkpt>
      <trkpt lat="59.8976017" lon="17.6269434">
        <ele>32.3416</ele>
        <time>2014-06-01T10:04:13Z</time>
      </trkpt>
      <trkpt lat="59.8975536" lon="17.6268447">
        <ele>31.8607</ele>
        <time>2014-06-01T10:04:14Z</time>
      </trkpt>
      <trkpt lat="59.8975033" lon="17.6267498">
        <ele>31.8607</ele>
        <time>2014-06-01T10:04:15Z</time>
      </trkpt>
      <trkpt lat="59.8974505" lon="17.6266603">
        <ele>31.3801</ele>
        <time>2014-06-01T10:04:16Z</time>
      </trkpt>
      <trkpt lat="59.8973973" lon="17.6265716">
        <ele>30.8995</ele>
        <time>2014-06-01T10:04:17Z</time>
      </trkpt>
      <trkpt lat="59.8973432" lon="17.626485">
        <ele>30.8995</ele>
        <time>2014-06-01T10:04:18Z</time>
      </trkpt>
      <trkpt lat="59.8972884" lon="17.6264026">
        <ele>30.4188</ele>
        <time>2014-06-01T10:04:19Z</time>
      </trkpt>
      <trkpt lat="59.8972331" lon="17.6263233">
        <ele>29.9381</ele>
        <time>2014-06-01T10:04:20Z</time>
      </trkpt>
      <trkpt lat="59.8971754" lon="17.6262498">
        <ele>29.4575</ele>
        <time>2014-06-01T10:04:21Z</time>
      </trkpt>
      <trkpt lat="59.8971159" lon="17.6261836">
        <ele>29.4575</ele>
        <time>2014-06-01T10:04:22Z</time>
      </trkpt>
      <trkpt lat="59.8970551" lon="17.6261293">
        <ele>28.9769</ele>
        <time>2014-06-01T10:04:23Z</time>
      </trkpt>
      <trkpt lat="59.8969947" lon="17.6260893">
        <ele>28.4962</ele>
        <time>2014-06-01T10:04:24Z</time>
      </trkpt>
      <trkpt lat="59.8969413" lon="17.6260515">
        <ele>28.4962</ele>
        <time>2014-06-01T10:04:25Z</time>
      </trkpt>
      <trkpt lat="59.8968927" lon="17.626009">
        <ele>28.0155</ele>
        <time>2014-06-01T10:04:26Z</time>
      </trkpt>
      <trkpt lat="59.8968442" lon="17.6259661">
        <ele>28.0155</ele>
        <time>2014-06-01T10:04:27Z</time>
      </trkpt>
      <trkpt lat="59.8967936" lon="17.6259289">
        <ele>28.0155</ele>
        <time>2014-06-01T10:04:28Z</time>
      </trkpt>
      <trkpt lat="59.8967414" lon="17.6258978">
        <ele>27.5349</ele>
        <time>2014-06-01T10:04:29Z</time>
      </trkpt>
      <trkpt lat="59.8966888" lon="17.6258703">
        <ele>27.5349</ele>
        <time>2014-06-01T10:04:30Z</time>
      </trkpt>
      <trkpt lat="59.896635" lon="17.6258495">
        <ele>27.5349</ele>
        <time>2014-06-01T10:04:31Z</time>
      </trkpt>
      <trkpt lat="59.8965803" lon="17.6258355">
        <ele>27.0543</ele>
        <time>2014-06-01T10:04:32Z</time>
      </trkpt>
      <trkpt lat="59.8965202" lon="17.6258125">
        <ele>27.0543</ele>
        <time>2014-06-01T10:04:33Z</time>
      </trkpt>
      <trkpt lat="59.8964589" lon="17.6257784">
        <ele>27.5349</ele>
        <time>2014-06-01T10:04:34Z</time>
      </trkpt>
      <trkpt lat="59.8963991" lon="17.6257506">
        <ele>28.0155</ele>
        <time>2014-06-01T10:04:35Z</time>
      </trkpt>
      <trkpt lat="59.8963446" lon="17.6257195">
        <ele>28.4962</ele>
        <time>2014-06-01T10:04:36Z</time>
      </trkpt>
      <trkpt lat="59.8962939" lon="17.6256745">
        <ele>28.0155</ele>
        <time>2014-06-01T10:04:37Z</time>
      </trkpt>
      <trkpt lat="59.8962509" lon="17.6256237">
        <ele>28.0155</ele>
        <time>2014-06-01T10:04:38Z</time>
      </trkpt>
      <trkpt lat="59.8962019" lon="17.6255748">
        <ele>28.0155</ele>
        <time>2014-06-01T10:04:39Z</time>
      </trkpt>
      <trkpt lat="59.8961451" lon="17.6255324">
        <ele>27.5349</ele>
        <time>2014-06-01T10:04:40Z</time>
      </trkpt>
      <trkpt lat="59.8960834" lon="17.6255065">
        <ele>27.5349</ele>
        <time>2014-06-01T10:04:41Z</time>
      </trkpt>
      <trkpt lat="59.8960187" lon="17.6254999">
        <ele>27.0543</ele>
        <time>2014-06-01T10:04:42Z</time>
      </trkpt>
      <trkpt lat="59.8959561" lon="17.6254938">
        <ele>27.0543</ele>
        <time>2014-06-01T10:04:43Z</time>
      </trkpt>
      <trkpt lat="59.8958981" lon="17.6254896">
        <ele>26.5736</ele>
        <time>2014-06-01T10:04:44Z</time>
      </trkpt>
      <trkpt lat="59.8958483" lon="17.6254817">
        <ele>26.5736</ele>
        <time>2014-06-01T10:04:45Z</time>
      </trkpt>
      <trkpt lat="59.8958052" lon="17.625452">
        <ele>25.6123</ele>
        <time>2014-06-01T10:04:46Z</time>
      </trkpt>
      <trkpt lat="59.8957623" lon="17.6254164">
        <ele>25.6123</ele>
        <time>2014-06-01T10:04:47Z</time>
      </trkpt>
      <trkpt lat="59.8957193" lon="17.6253893">
        <ele>25.1317</ele>
        <time>2014-06-01T10:04:48Z</time>
      </trkpt>
      <trkpt lat="59.8956805" lon="17.6253641">
        <ele>24.651</ele>
        <time>2014-06-01T10:04:49Z</time>
      </trkpt>
      <trkpt lat="59.8956487" lon="17.6253329">
        <ele>24.1703</ele>
        <time>2014-06-01T10:04:50Z</time>
      </trkpt>
      <trkpt lat="59.8956178" lon="17.6252894">
        <ele>23.209</ele>
        <time>2014-06-01T10:04:51Z</time>
      </trkpt>
      <trkpt lat="59.8955867" lon="17.6252347">
        <ele>22.2476</ele>
        <time>2014-06-01T10:04:52Z</time>
      </trkpt>
      <trkpt lat="59.8955531" lon="17.6251814">
        <ele>21.767</ele>
        <time>2014-06-01T10:04:53Z</time>
      </trkpt>
      <trkpt lat="59.8955202" lon="17.6251319">
        <ele>21.2864</ele>
        <time>2014-06-01T10:04:54Z</time>
      </trkpt>
      <trkpt lat="59.8954949" lon="17.6250838">
        <ele>20.8057</ele>
        <time>2014-06-01T10:04:55Z</time>
      </trkpt>
      <trkpt lat="59.8954841" lon="17.6250314">
        <ele>20.325</ele>
        <time>2014-06-01T10:04:56Z</time>
      </trkpt>
      <trkpt lat="59.8954861" lon="17.6249716">
        <ele>19.8444</ele>
        <time>2014-06-01T10:04:57Z</time>
      </trkpt>
      <trkpt lat="59.8954924" lon="17.624902">
        <ele>19.3638</ele>
        <time>2014-06-01T10:04:58Z</time>
      </trkpt>
      <trkpt lat="59.8955019" lon="17.6248206">
        <ele>18.8831</ele>
        <time>2014-06-01T10:04:59Z</time>
      </trkpt>
      <trkpt lat="59.8955089" lon="17.6247342">
        <ele>18.8831</ele>
        <time>2014-06-01T10:05:00Z</time>
      </trkpt>
      <trkpt lat="59.8955142" lon="17.6246416">
        <ele>18.8831</ele>
        <time>2014-06-01T10:05:01Z</time>
      </trkpt>
      <trkpt lat="59.8955194" lon="17.6245463">
        <ele>18.8831</ele>
        <time>2014-06-01T10:05:02Z</time>
      </trkpt>
      <trkpt lat="59.8955266" lon="17.6244517">
        <ele>19.3638</ele>
        <time>2014-06-01T10:05:03Z</time>
      </trkpt>
      <trkpt lat="59.8955374" lon="17.6243644">
        <ele>19.3638</ele>
        <time>2014-06-01T10:05:04Z</time>
      </trkpt>
      <trkpt lat="59.8955536" lon="17.6242898">
        <ele>19.8444</ele>
        <time>2014-06-01T10:05:05Z</time>
      </trkpt>
      <trkpt lat="59.8955723" lon="17.6242266">
        <ele>20.325</ele>
        <time>2014-06-01T10:05:06Z</time>
      </trkpt>
      <trkpt lat="59.8955923" lon="17.6241743">
        <ele>20.8057</ele>
        <time>2014-06-01T10:05:07Z</time>
      </trkpt>
      <trkpt lat="59.8956119" lon="17.6241288">
        <ele>21.2864</ele>
        <time>2014-06-01T10:05:08Z</time>
      </trkpt>
      <trkpt lat="59.8956344" lon="17.6240918">
        <ele>21.767</ele>
        <time>2014-06-01T10:05:09Z</time>
      </trkpt>
      <trkpt lat="59.8956585" lon="17.6240639">
        <ele>22.2476</ele>
        <time>2014-06-01T10:05:10Z</time>
      </trkpt>
      <trkpt lat="59.8956815" lon="17.6240354">
        <ele>22.2476</ele>
        <time>2014-06-01T10:05:11Z</time>
      </trkpt>
      <trkpt lat="59.8957048" lon="17.6240083">
        <ele>22.7283</ele>
        <time>2014-06-01T10:05:12Z</time>
      </trkpt>
      <trkpt lat="59.8957253" lon="17.62398">
        <ele>23.209</ele>
        <time>2014-06-01T10:05:13Z</time>
      </trkpt>
      <trkpt lat="59.8957357" lon="17.6239537">
        <ele>24.1703</ele>
        <time>2014-06-01T10:05:14Z</time>
      </trkpt>
      <trkpt lat="59.8957432" lon="17.6239348">
        <ele>24.651</ele>
        <time>2014-06-01T10:05:15Z</time>
      </trkpt>
      <trkpt lat="59.8957549" lon="17.6239199">
        <ele>25.1317</ele>
        <time>2014-06-01T10:05:16Z</time>
      </trkpt>
      <trkpt lat="59.8957694" lon="17.6239097">
        <ele>25.1317</ele>
        <time>2014-06-01T10:05:17Z</time>
      </trkpt>
      <trkpt lat="59.8957837" lon="17.6239002">
        <ele>25.6123</ele>
        <time>2014-06-01T10:05:18Z</time>
      </trkpt>
      <trkpt lat="59.895798" lon="17.6238897">
        <ele>25.6123</ele>
        <time>2014-06-01T10:05:19Z</time>
      </trkpt>
      <trkpt lat="59.8958146" lon="17.6238749">
        <ele>25.6123</ele>
        <time>2014-06-01T10:05:20Z</time>
      </trkpt>
      <trkpt lat="59.8958316" lon="17.6238581">
        <ele>26.0929</ele>
        <time>2014-06-01T10:05:21Z</time>
      </trkpt>
      <trkpt lat="59.8958476" lon="17.6238372">
        <ele>26.5736</ele>
        <time>2014-06-01T10:05:22Z</time>
      </trkpt>
      <trkpt lat="59.8958606" lon="17.6238174">
        <ele>26.5736</ele>
        <time>2014-06-01T10:05:23Z</time>
      </trkpt>
      <trkpt lat="59.8958728" lon="17.6237977">
        <ele>27.0543</ele>
        <time>2014-06-01T10:05:24Z</time>
      </trkpt>
      <trkpt lat="59.8958841" lon="17.6237791">
        <ele>27.0543</ele>
        <time>2014-06-01T10:05:25Z</time>
      </trkpt>
      <trkpt lat="59.8958964" lon="17.6237635">
        <ele>27.5349</ele>
        <time>2014-06-01T10:05:26Z</time>
      </trkpt>
      <trkpt lat="59.8959095" lon="17.6237469">
        <ele>27.5349</ele>
        <time>2014-06-01T10:05:27Z</time>
      </trkpt>
      <trkpt lat="59.8959229" lon="17.6237289">
        <ele>27.5349</ele>
        <time>2014-06-01T10:05:28Z</time>
      </trkpt>
      <trkpt lat="59.8959363" lon="17.6237089">
        <ele>28.0155</ele>
        <time>2014-06-01T10:05:29Z</time>
      </trkpt>
      <trkpt lat="59.895952" lon="17.6236872">
        <ele>28.0155</ele>
        <time>2014-06-01T10:05:30Z</time>
      </trkpt>
      <trkpt lat="59.8959647" lon="17.6236625">
        <ele>28.0155</ele>
        <time>2014-06-01T10:05:31Z</time>
      </trkpt>
      <trkpt lat="59.8959746" lon="17.6236387">
        <ele>28.4962</ele>
        <time>2014-06-01T10:05:32Z</time>
      </trkpt>
      <trkpt lat="59.8959825" lon="17.6236173">
        <ele>28.4962</ele>
        <time>2014-06-01T10:05:33Z</time>
      </trkpt>
      <trkpt lat="59.8959918" lon="17.6235967">
        <ele>28.9769</ele>
        <time>2014-06-01T10:05:34Z</time>
      </trkpt>
      <trkpt lat="59.8960021" lon="17.6235749">
        <ele>28.9769</ele>
        <time>2014-06-01T10:05:35Z</time>
      </trkpt>
      <trkpt lat="59.8960095" lon="17.6235558">
        <ele>28.9769</ele>
        <time>2014-06-01T10:05:36Z</time>
      </trkpt>
      <trkpt lat="59.8960171" lon="17.6235385">
        <ele>28.9769</ele>
        <time>2014-06-01T10:05:37Z</time>
      </trkpt>
      <trkpt lat="59.8960299" lon="17.6235205">
        <ele>28.9769</ele>
        <time>2014-06-01T10:05:38Z</time>
      </trkpt>
      <trkpt lat="59.8960446" lon="17.6235018">
        <ele>28.9769</ele>
        <time>2014-06-01T10:05:39Z</time>
      </trkpt>
      <trkpt lat="59.8960581" lon="17.6234806">
        <ele>29.4575</ele>
        <time>2014-06-01T10:05:40Z</time>
      </trkpt>
      <trkpt lat="59.8960717" lon="17.6234609">
        <ele>29.4575</ele>
        <time>2014-06-01T10:05:41Z</time>
      </trkpt>
      <trkpt lat="59.8960856" lon="17.6234411">
        <ele>29.4575</ele>
        <time>2014-06-01T10:05:42Z</time>
      </trkpt>
      <trkpt lat="59.8960991" lon="17.6234174">
        <ele>29.4575</ele>
        <time>2014-06-01T10:05:43Z</time>
      </trkpt>
      <trkpt lat="59.8961135" lon="17.623391">
        <ele>29.4575</ele>
        <time>2014-06-01T10:05:44Z</time>
      </trkpt>
      <trkpt lat="59.896126" lon="17.6233605">
        <ele>29.4575</ele>
        <time>2014-06-01T10:05:45Z</time>
      </trkpt>
      <trkpt lat="59.8961399" lon="17.623328">
        <ele>29.4575</ele>
        <time>2014-06-01T10:05:46Z</time>
      </trkpt>
      <trkpt lat="59.8961545" lon="17.6232943">
        <ele>29.4575</ele>
        <time>2014-06-01T10:05:47Z</time>
      </trkpt>
      <trkpt lat="59.8961643" lon="17.623253">
        <ele>29.4575</ele>
        <time>2014-06-01T10:05:48Z</time>
      </trkpt>
      <trkpt lat="59.8961699" lon="17.6232101">
        <ele>29.4575</ele>
        <time>2014-06-01T10:05:49Z</time>
      </trkpt>
      <trkpt lat="59.8961731" lon="17.6231686">
        <ele>29.4575</ele>
        <time>2014-06-01T10:05:50Z</time>
      </trkpt>
      <trkpt lat="59.8961762" lon="17.6231263">
        <ele>29.9381</ele>
        <time>2014-06-01T10:05:51Z</time>
      </trkpt>
      <trkpt lat="59.8961778" lon="17.6230869">
        <ele>29.9381</ele>
        <time>2014-06-01T10:05:52Z</time>
      </trkpt>
      <trkpt lat="59.8961767" lon="17.6230505">
        <ele>30.4188</ele>
        <time>2014-06-01T10:05:53Z</time>
      </trkpt>
      <trkpt lat="59.8961737" lon="17.6230134">
        <ele>30.4188</ele>
        <time>2014-06-01T10:05:54Z</time>
      </trkpt>
      <trkpt lat="59.896169" lon="17.6229764">
        <ele>30.8995</ele>
        <time>2014-06-01T10:05:55Z</time>
      </trkpt>
      <trkpt lat="59.8961632" lon="17.6229399">
        <ele>30.8995</ele>
        <time>2014-06-01T10:05:56Z</time>
      </trkpt>
      <trkpt lat="59.8961546" lon="17.6229053">
        <ele>30.8995</ele>
        <time>2014-06-01T10:05:57Z</time>
      </trkpt>
      <trkpt lat="59.8961437" lon="17.6228706">
        <ele>31.3801</ele>
        <time>2014-06-01T10:05:58Z</time>
      </trkpt>
      <trkpt lat="59.8961327" lon="17.6228413">
        <ele>31.8607</ele>
        <time>2014-06-01T10:05:59Z</time>
      </trkpt>
      <trkpt lat="59.8961203" lon="17.6228222">
        <ele>32.3416</ele>
        <time>2014-06-01T10:06:00Z</time>
      </trkpt>
      <trkpt lat="59.8961078" lon="17.6228083">
        <ele>32.8223</ele>
        <time>2014-06-01T10:06:01Z</time>
      </trkpt>
      <trkpt lat="59.896097" lon="17.6227965">
        <ele>32.8223</ele>
        <time>2014-06-01T10:06:02Z</time>
      </trkpt>
      <trkpt lat="59.8960864" lon="17.6227846">
        <ele>33.3029</ele>
        <time>2014-06-01T10:06:03Z</time>
      </trkpt>
      <trkpt lat="59.8960742" lon="17.622771">
        <ele>33.7834</ele>
        <time>2014-06-01T10:06:04Z</time>
      </trkpt>
      <trkpt lat="59.8960608" lon="17.6227586">
        <ele>34.2642</ele>
        <time>2014-06-01T10:06:05Z</time>
      </trkpt>
      <trkpt lat="59.8960481" lon="17.6227415">
        <ele>34.2642</ele>
        <time>2014-06-01T10:06:06Z</time>
      </trkpt>
      <trkpt lat="59.8960369" lon="17.622718">
        <ele>34.7449</ele>
        <time>2014-06-01T10:06:07Z</time>
      </trkpt>
      <trkpt lat="59.8960255" lon="17.6226915">
        <ele>34.7449</ele>
        <time>2014-06-01T10:06:08Z</time>
      </trkpt>
      <trkpt lat="59.8960136" lon="17.6226641">
        <ele>35.2255</ele>
        <time>2014-06-01T10:06:09Z</time>
      </trkpt>
      <trkpt lat="59.8960016" lon="17.6226373">
        <ele>35.2255</ele>
        <time>2014-06-01T10:06:10Z</time>
      </trkpt>
      <trkpt lat="59.8959885" lon="17.6226089">
        <ele>35.2255</ele>
        <time>2014-06-01T10:06:11Z</time>
      </trkpt>
      <trkpt lat="59.8959721" lon="17.6225838">
        <ele>35.7061</ele>
        <time>2014-06-01T10:06:12Z</time>
      </trkpt>
      <trkpt lat="59.8959539" lon="17.6225596">
        <ele>36.1868</ele>
        <time>2014-06-01T10:06:13Z</time>
      </trkpt>
      <trkpt lat="59.8959365" lon="17.6225348">
        <ele>36.1868</ele>
        <time>2014-06-01T10:06:14Z</time>
      </trkpt>
      <trkpt lat="59.8959201" lon="17.6225114">
        <ele>36.6675</ele>
        <time>2014-06-01T10:06:15Z</time>
      </trkpt>
      <trkpt lat="59.8959054" lon="17.6224854">
        <ele>37.1481</ele>
        <time>2014-06-01T10:06:16Z</time>
      </trkpt>
      <trkpt lat="59.8958938" lon="17.6224581">
        <ele>37.1481</ele>
        <time>2014-06-01T10:06:17Z</time>
      </trkpt>
      <trkpt lat="59.8958824" lon="17.6224342">
        <ele>37.6287</ele>
        <time>2014-06-01T10:06:18Z</time>
      </trkpt>
      <trkpt lat="59.895868" lon="17.6224114">
        <ele>37.6287</ele>
        <time>2014-06-01T10:06:19Z</time>
      </trkpt>
      <trkpt lat="59.8958513" lon="17.6223893">
        <ele>38.1094</ele>
        <time>2014-06-01T10:06:20Z</time>
      </trkpt>
      <trkpt lat="59.8958348" lon="17.6223643">
        <ele>38.1094</ele>
        <time>2014-06-01T10:06:21Z</time>
      </trkpt>
      <trkpt lat="59.8958188" lon="17.6223409">
        <ele>38.5901</ele>
        <time>2014-06-01T10:06:22Z</time>
      </trkpt>
      <trkpt lat="59.8958028" lon="17.6223146">
        <ele>38.5901</ele>
        <time>2014-06-01T10:06:23Z</time>
      </trkpt>
      <trkpt lat="59.8957872" lon="17.6222877">
        <ele>39.0707</ele>
        <time>2014-06-01T10:06:24Z</time>
      </trkpt>
      <trkpt lat="59.8957722" lon="17.6222617">
        <ele>39.0707</ele>
        <time>2014-06-01T10:06:25Z</time>
      </trkpt>
      <trkpt lat="59.895757" lon="17.6222347">
        <ele>39.5513</ele>
        <time>2014-06-01T10:06:26Z</time>
      </trkpt>
      <trkpt lat="59.8957426" lon="17.6222108">
        <ele>39.5513</ele>
        <time>2014-06-01T10:06:27Z</time>
      </trkpt>
      <trkpt lat="59.8957292" lon="17.6221896">
        <ele>40.0321</ele>
        <time>2014-06-01T10:06:28Z</time>
      </trkpt>
      <trkpt lat="59.8957166" lon="17.6221745">
        <ele>40.0321</ele>
        <time>2014-06-01T10:06:29Z</time>
      </trkpt>
      <trkpt lat="59.8957034" lon="17.6221603">
        <ele>40.0321</ele>
        <time>2014-06-01T10:06:30Z</time>
      </trkpt>
      <trkpt lat="59.8956914" lon="17.6221416">
        <ele>40.0321</ele>
        <time>2014-06-01T10:06:31Z</time>
      </trkpt>
      <trkpt lat="59.8956795" lon="17.6221259">
        <ele>40.5128</ele>
        <time>2014-06-01T10:06:32Z</time>
      </trkpt>
      <trkpt lat="59.8956655" lon="17.6221194">
        <ele>40.5128</ele>
        <time>2014-06-01T10:06:33Z</time>
      </trkpt>
      <trkpt lat="59.8956511" lon="17.6221188">
        <ele>40.9934</ele>
        <time>2014-06-01T10:06:34Z</time>
      </trkpt>
      <trkpt lat="59.895638" lon="17.622116">
        <ele>40.9934</ele>
        <time>2014-06-01T10:06:35Z</time>
      </trkpt>
      <trkpt lat="59.8956254" lon="17.6221074">
        <ele>40.9934</ele>
        <time>2014-06-01T10:06:36Z</time>
      </trkpt>
      <trkpt lat="59.8956114" lon="17.6220969">
        <ele>41.474</ele>
        <time>2014-06-01T10:06:37Z</time>
      </trkpt>
      <trkpt lat="59.8955958" lon="17.6220908">
        <ele>41.474</ele>
        <time>2014-06-01T10:06:38Z</time>
      </trkpt>
      <trkpt lat="59.8955803" lon="17.6220851">
        <ele>41.9547</ele>
        <time>2014-06-01T10:06:39Z</time>
      </trkpt>
      <trkpt lat="59.8955663" lon="17.6220777">
        <ele>41.9547</ele>
        <time>2014-06-01T10:06:40Z</time>
      </trkpt>
      <trkpt lat="59.8955521" lon="17.6220728">
        <ele>42.4354</ele>
        <time>2014-06-01T10:06:41Z</time>
      </trkpt>
      <trkpt lat="59.8955369" lon="17.622068">
        <ele>42.4354</ele>
        <time>2014-06-01T10:06:42Z</time>
      </trkpt>
      <trkpt lat="59.8955225" lon="17.622063">
        <ele>42.916</ele>
        <time>2014-06-01T10:06:43Z</time>
      </trkpt>
      <trkpt lat="59.8955093" lon="17.6220554">
        <ele>42.916</ele>
        <time>2014-06-01T10:06:44Z</time>
      </trkpt>
      <trkpt lat="59.8954979" lon="17.6220427">
        <ele>43.3966</ele>
        <time>2014-06-01T10:06:45Z</time>
      </trkpt>
      <trkpt lat="59.8954883" lon="17.6220283">
        <ele>43.3966</ele>
        <time>2014-06-01T10:06:46Z</time>
      </trkpt>
      <trkpt lat="59.8954774" lon="17.6220127">
        <ele>43.3966</ele>
        <time>2014-06-01T10:06:47Z</time>
      </trkpt>
      <trkpt lat="59.8954643" lon="17.6220007">
        <ele>43.8773</ele>
        <time>2014-06-01T10:06:48Z</time>
      </trkpt>
      <trkpt lat="59.8954494" lon="17.6219955">
        <ele>44.358</ele>
        <time>2014-06-01T10:06:49Z</time>
      </trkpt>
      <trkpt lat="59.8954355" lon="17.6219873">
        <ele>44.358</ele>
        <time>2014-06-01T10:06:50Z</time>
      </trkpt>
      <trkpt lat="59.8954236" lon="17.6219752">
        <ele>44.8386</ele>
        <time>2014-06-01T10:06:51Z</time>
      </trkpt>
      <trkpt lat="59.8954117" lon="17.6219665">
        <ele>44.8386</ele>
        <time>2014-06-01T10:06:52Z</time>
      </trkpt>
      <trkpt lat="59.8953996" lon="17.6219582">
        <ele>45.3192</ele>
        <time>2014-06-01T10:06:53Z</time>
      </trkpt>
      <trkpt lat="59.8953864" lon="17.6219503">
        <ele>45.3192</ele>
        <time>2014-06-01T10:06:54Z</time>
      </trkpt>
      <trkpt lat="59.8953737" lon="17.6219462">
        <ele>45.7999</ele>
        <time>2014-06-01T10:06:55Z</time>
      </trkpt>
      <trkpt lat="59.8953617" lon="17.6219473">
        <ele>45.7999</ele>
        <time>2014-06-01T10:06:56Z</time>
      </trkpt>
      <trkpt lat="59.89535" lon="17.6219489">
        <ele>45.7999</ele>
        <time>2014-06-01T10:06:57Z</time>
      </trkpt>
      <trkpt lat="59.8953379" lon="17.6219472">
        <ele>46.2806</ele>
        <time>2014-06-01T10:06:58Z</time>
      </trkpt>
      <trkpt lat="59.8953318" lon="17.6219458">
        <ele>46.7612</ele>
        <time>2014-06-01T10:06:59Z</time>
      </trkpt>
      <trkpt lat="59.8953309" lon="17.6219489">
        <ele>46.7612</ele>
        <time>2014-06-01T10:07:00Z</time>
      </trkpt>
      <trkpt lat="59.8953296" lon="17.6219526">
        <ele>46.7612</ele>
        <time>2014-06-01T10:07:01Z</time>
      </trkpt>
      <trkpt lat="59.8952272" lon="17.6219479">
        <ele>47.7225</ele>
        <time>2014-06-01T10:07:21Z</time>
      </trkpt>
      <trkpt lat="59.8952144" lon="17.6219576">
        <ele>47.7225</ele>
        <time>2014-06-01T10:07:22Z</time>
      </trkpt>
      <trkpt lat="59.8951994" lon="17.6219603">
        <ele>48.2034</ele>
        <time>2014-06-01T10:07:23Z</time>
      </trkpt>
      <trkpt lat="59.8951841" lon="17.6219537">
        <ele>48.2034</ele>
        <time>2014-06-01T10:07:24Z</time>
      </trkpt>
      <trkpt lat="59.8951692" lon="17.6219405">
        <ele>48.2034</ele>
        <time>2014-06-01T10:07:25Z</time>
      </trkpt>
      <trkpt lat="59.8951521" lon="17.6219256">
        <ele>48.2034</ele>
        <time>2014-06-01T10:07:26Z</time>
      </trkpt>
      <trkpt lat="59.8951343" lon="17.6219157">
        <ele>48.684</ele>
        <time>2014-06-01T10:07:27Z</time>
      </trkpt>
      <trkpt lat="59.8951174" lon="17.6219038">
        <ele>48.684</ele>
        <time>2014-06-01T10:07:28Z</time>
      </trkpt>
      <trkpt lat="59.8951018" lon="17.6218873">
        <ele>49.1646</ele>
        <time>2014-06-01T10:07:29Z</time>
      </trkpt>
      <trkpt lat="59.8950864" lon="17.6218755">
        <ele>49.1646</ele>
        <time>2014-06-01T10:07:30Z</time>
      </trkpt>
      <trkpt lat="59.8950698" lon="17.6218736">
        <ele>49.1646</ele>
        <time>2014-06-01T10:07:31Z</time>
      </trkpt>
      <trkpt lat="59.8950517" lon="17.6218788">
        <ele>49.6453</ele>
        <time>2014-06-01T10:07:32Z</time>
      </trkpt>
      <trkpt lat="59.8950314" lon="17.6218852">
        <ele>49.6453</ele>
        <time>2014-06-01T10:07:33Z</time>
      </trkpt>
      <trkpt lat="59.8950117" lon="17.6218905">
        <ele>50.126</ele>
        <time>2014-06-01T10:07:34Z</time>
      </trkpt>
      <trkpt lat="59.8949955" lon="17.6218969">
        <ele>50.126</ele>
        <time>2014-06-01T10:07:35Z</time>
      </trkpt>
      <trkpt lat="59.894981" lon="17.6219026">
        <ele>50.126</ele>
        <time>2014-06-01T10:07:36Z</time>
      </trkpt>
      <trkpt lat="59.8949664" lon="17.6219095">
        <ele>50.6066</ele>
        <time>2014-06-01T10:07:37Z</time>
      </trkpt>
      <trkpt lat="59.8949511" lon="17.621921">
        <ele>50.6066</ele>
        <time>2014-06-01T10:07:38Z</time>
      </trkpt>
      <trkpt lat="59.8949331" lon="17.6219332">
        <ele>50.6066</ele>
        <time>2014-06-01T10:07:39Z</time>
      </trkpt>
      <trkpt lat="59.8949138" lon="17.6219414">
        <ele>50.6066</ele>
        <time>2014-06-01T10:07:40Z</time>
      </trkpt>
      <trkpt lat="59.8948946" lon="17.6219478">
        <ele>51.0872</ele>
        <time>2014-06-01T10:07:41Z</time>
      </trkpt>
      <trkpt lat="59.8948758" lon="17.6219525">
        <ele>51.0872</ele>
        <time>2014-06-01T10:07:42Z</time>
      </trkpt>
      <trkpt lat="59.8948574" lon="17.6219576">
        <ele>51.0872</ele>
        <time>2014-06-01T10:07:43Z</time>
      </trkpt>
      <trkpt lat="59.8948392" lon="17.6219618">
        <ele>51.5679</ele>
        <time>2014-06-01T10:07:44Z</time>
      </trkpt>
      <trkpt lat="59.8948176" lon="17.6219633">
        <ele>51.5679</ele>
        <time>2014-06-01T10:07:45Z</time>
      </trkpt>
      <trkpt lat="59.8947915" lon="17.6219599">
        <ele>51.5679</ele>
        <time>2014-06-01T10:07:46Z</time>
      </trkpt>
      <trkpt lat="59.8947651" lon="17.6219536">
        <ele>52.0486</ele>
        <time>2014-06-01T10:07:47Z</time>
      </trkpt>
      <trkpt lat="59.8947418" lon="17.6219467">
        <ele>52.0486</ele>
        <time>2014-06-01T10:07:48Z</time>
      </trkpt>
      <trkpt lat="59.8947205" lon="17.6219414">
        <ele>52.5292</ele>
        <time>2014-06-01T10:07:49Z</time>
      </trkpt>
      <trkpt lat="59.8946972" lon="17.6219361">
        <ele>52.5292</ele>
        <time>2014-06-01T10:07:50Z</time>
      </trkpt>
      <trkpt lat="59.8946686" lon="17.621929">
        <ele>52.5292</ele>
        <time>2014-06-01T10:07:51Z</time>
      </trkpt>
      <trkpt lat="59.8946376" lon="17.6219199">
        <ele>52.5292</ele>
        <time>2014-06-01T10:07:52Z</time>
      </trkpt>
      <trkpt lat="59.8946092" lon="17.6219091">
        <ele>53.0098</ele>
        <time>2014-06-01T10:07:53Z</time>
      </trkpt>
      <trkpt lat="59.8945827" lon="17.621898">
        <ele>53.0098</ele>
        <time>2014-06-01T10:07:54Z</time>
      </trkpt>
      <trkpt lat="59.8945567" lon="17.621886">
        <ele>53.0098</ele>
        <time>2014-06-01T10:07:55Z</time>
      </trkpt>
      <trkpt lat="59.8945279" lon="17.6218733">
        <ele>53.4905</ele>
        <time>2014-06-01T10:07:56Z</time>
      </trkpt>
      <trkpt lat="59.8944968" lon="17.6218593">
        <ele>53.4905</ele>
        <time>2014-06-01T10:07:57Z</time>
      </trkpt>
      <trkpt lat="59.8944646" lon="17.6218412">
        <ele>53.9712</ele>
        <time>2014-06-01T10:07:58Z</time>
      </trkpt>
      <trkpt lat="59.8944317" lon="17.621821">
        <ele>53.9712</ele>
        <time>2014-06-01T10:07:59Z</time>
      </trkpt>
      <trkpt lat="59.8943974" lon="17.6217991">
        <ele>53.9712</ele>
        <time>2014-06-01T10:08:00Z</time>
      </trkpt>
      <trkpt lat="59.8943627" lon="17.6217778">
        <ele>54.4518</ele>
        <time>2014-06-01T10:08:01Z</time>
      </trkpt>
      <trkpt lat="59.89433" lon="17.6217598">
        <ele>54.4518</ele>
        <time>2014-06-01T10:08:02Z</time>
      </trkpt>
      <trkpt lat="59.8942964" lon="17.6217418">
        <ele>54.9324</ele>
        <time>2014-06-01T10:08:03Z</time>
      </trkpt>
      <trkpt lat="59.8942626" lon="17.6217241">
        <ele>54.9324</ele>
        <time>2014-06-01T10:08:04Z</time>
      </trkpt>
      <trkpt lat="59.8942273" lon="17.621705">
        <ele>54.9324</ele>
        <time>2014-06-01T10:08:05Z</time>
      </trkpt>
      <trkpt lat="59.8941896" lon="17.6216822">
        <ele>54.9324</ele>
        <time>2014-06-01T10:08:06Z</time>
      </trkpt>
      <trkpt lat="59.8941516" lon="17.6216583">
        <ele>54.9324</ele>
        <time>2014-06-01T10:08:07Z</time>
      </trkpt>
      <trkpt lat="59.894115" lon="17.6216365">
        <ele>55.4131</ele>
        <time>2014-06-01T10:08:08Z</time>
      </trkpt>
      <trkpt lat="59.8940796" lon="17.621613">
        <ele>55.4131</ele>
        <time>2014-06-01T10:08:09Z</time>
      </trkpt>
      <trkpt lat="59.8940462" lon="17.6215882">
        <ele>55.4131</ele>
        <time>2014-06-01T10:08:10Z</time>
      </trkpt>
      <trkpt lat="59.8940165" lon="17.6215635">
        <ele>54.9324</ele>
        <time>2014-06-01T10:08:11Z</time>
      </trkpt>
      <trkpt lat="59.8939929" lon="17.6215417">
        <ele>54.9324</ele>
        <time>2014-06-01T10:08:12Z</time>
      </trkpt>
      <trkpt lat="59.8939793" lon="17.6215323">
        <ele>55.4131</ele>
        <time>2014-06-01T10:08:13Z</time>
      </trkpt>
      <trkpt lat="59.8939721" lon="17.6215322">
        <ele>55.4131</ele>
        <time>2014-06-01T10:08:14Z</time>
      </trkpt>
      <trkpt lat="59.8939684" lon="17.6215304">
        <ele>55.4131</ele>
        <time>2014-06-01T10:08:15Z</time>
      </trkpt>
      <trkpt lat="59.8939651" lon="17.6215251">
        <ele>54.9324</ele>
        <time>2014-06-01T10:08:16Z</time>
      </trkpt>
      <trkpt lat="59.8939586" lon="17.6215148">
        <ele>54.9324</ele>
        <time>2014-06-01T10:08:17Z</time>
      </trkpt>
      <trkpt lat="59.893948" lon="17.6215063">
        <ele>54.9324</ele>
        <time>2014-06-01T10:08:18Z</time>
      </trkpt>
      <trkpt lat="59.8939336" lon="17.6215076">
        <ele>54.9324</ele>
        <time>2014-06-01T10:08:19Z</time>
      </trkpt>
      <trkpt lat="59.8939151" lon="17.6215141">
        <ele>54.9324</ele>
        <time>2014-06-01T10:08:20Z</time>
      </trkpt>
      <trkpt lat="59.8938932" lon="17.6215174">
        <ele>55.4131</ele>
        <time>2014-06-01T10:08:21Z</time>
      </trkpt>
      <trkpt lat="59.8938695" lon="17.6215164">
        <ele>55.4131</ele>
        <time>2014-06-01T10:08:22Z</time>
      </trkpt>
      <trkpt lat="59.8938455" lon="17.6215112">
        <ele>55.4131</ele>
        <time>2014-06-01T10:08:23Z</time>
      </trkpt>
      <trkpt lat="59.8938207" lon="17.6215049">
        <ele>55.4131</ele>
        <time>2014-06-01T10:08:24Z</time>
      </trkpt>
      <trkpt lat="59.8937992" lon="17.6215096">
        <ele>55.4131</ele>
        <time>2014-06-01T10:08:25Z</time>
      </trkpt>
      <trkpt lat="59.8937819" lon="17.6215286">
        <ele>55.4131</ele>
        <time>2014-06-01T10:08:26Z</time>
      </trkpt>
      <trkpt lat="59.8937607" lon="17.6215494">
        <ele>55.4131</ele>
        <time>2014-06-01T10:08:27Z</time>
      </trkpt>
      <trkpt lat="59.8937317" lon="17.6215605">
        <ele>54.9324</ele>
        <time>2014-06-01T10:08:28Z</time>
      </trkpt>
      <trkpt lat="59.893698" lon="17.6215696">
        <ele>53.9712</ele>
        <time>2014-06-01T10:08:29Z</time>
      </trkpt>
      <trkpt lat="59.8936591" lon="17.6215809">
        <ele>53.4905</ele>
        <time>2014-06-01T10:08:30Z</time>
      </trkpt>
      <trkpt lat="59.8936122" lon="17.6215843">
        <ele>52.5292</ele>
        <time>2014-06-01T10:08:31Z</time>
      </trkpt>
      <trkpt lat="59.8935582" lon="17.6215827">
        <ele>51.0872</ele>
        <time>2014-06-01T10:08:32Z</time>
      </trkpt>
      <trkpt lat="59.8934984" lon="17.6215857">
        <ele>50.126</ele>
        <time>2014-06-01T10:08:33Z</time>
      </trkpt>
      <trkpt lat="59.8934324" lon="17.6215951">
        <ele>49.1646</ele>
        <time>2014-06-01T10:08:34Z</time>
      </trkpt>
      <trkpt lat="59.8933612" lon="17.6216132">
        <ele>48.2034</ele>
        <time>2014-06-01T10:08:35Z</time>
      </trkpt>
      <trkpt lat="59.8932882" lon="17.6216359">
        <ele>47.7225</ele>
        <time>2014-06-01T10:08:36Z</time>
      </trkpt>
      <trkpt lat="59.8932132" lon="17.6216516">
        <ele>46.7612</ele>
        <time>2014-06-01T10:08:37Z</time>
      </trkpt>
      <trkpt lat="59.8931379" lon="17.6216503">
        <ele>46.2806</ele>
        <time>2014-06-01T10:08:38Z</time>
      </trkpt>
      <trkpt lat="59.8930645" lon="17.6216315">
        <ele>45.7999</ele>
        <time>2014-06-01T10:08:39Z</time>
      </trkpt>
      <trkpt lat="59.8929913" lon="17.6216061">
        <ele>44.8386</ele>
        <time>2014-06-01T10:08:40Z</time>
      </trkpt>
      <trkpt lat="59.8929185" lon="17.62158">
        <ele>44.358</ele>
        <time>2014-06-01T10:08:41Z</time>
      </trkpt>
      <trkpt lat="59.8928452" lon="17.6215493">
        <ele>43.3966</ele>
        <time>2014-06-01T10:08:42Z</time>
      </trkpt>
      <trkpt lat="59.8927692" lon="17.6215086">
        <ele>42.4354</ele>
        <time>2014-06-01T10:08:43Z</time>
      </trkpt>
      <trkpt lat="59.8926921" lon="17.6214592">
        <ele>41.474</ele>
        <time>2014-06-01T10:08:44Z</time>
      </trkpt>
      <trkpt lat="59.8926178" lon="17.6214035">
        <ele>40.5128</ele>
        <time>2014-06-01T10:08:45Z</time>
      </trkpt>
      <trkpt lat="59.892549" lon="17.6213455">
        <ele>40.0321</ele>
        <time>2014-06-01T10:08:46Z</time>
      </trkpt>
      <trkpt lat="59.8924859" lon="17.6212984">
        <ele>39.5513</ele>
        <time>2014-06-01T10:08:47Z</time>
      </trkpt>
      <trkpt lat="59.8924289" lon="17.6212734">
        <ele>39.0707</ele>
        <time>2014-06-01T10:08:48Z</time>
      </trkpt>
      <trkpt lat="59.8923756" lon="17.6212631">
        <ele>38.5901</ele>
        <time>2014-06-01T10:08:49Z</time>
      </trkpt>
      <trkpt lat="59.8923242" lon="17.6212486">
        <ele>37.6287</ele>
        <time>2014-06-01T10:08:50Z</time>
      </trkpt>
      <trkpt lat="59.8922698" lon="17.6211926">
        <ele>37.1481</ele>
        <time>2014-06-01T10:08:51Z</time>
      </trkpt>
      <trkpt lat="59.8922196" lon="17.6211656">
        <ele>36.1868</ele>
        <time>2014-06-01T10:08:52Z</time>
      </trkpt>
      <trkpt lat="59.8921692" lon="17.6211712">
        <ele>35.2255</ele>
        <time>2014-06-01T10:08:53Z</time>
      </trkpt>
      <trkpt lat="59.8921091" lon="17.6211791">
        <ele>34.2642</ele>
        <time>2014-06-01T10:08:54Z</time>
      </trkpt>
      <trkpt lat="59.8920466" lon="17.621205">
        <ele>32.3416</ele>
        <time>2014-06-01T10:08:55Z</time>
      </trkpt>
      <trkpt lat="59.8919866" lon="17.6212352">
        <ele>30.8995</ele>
        <time>2014-06-01T10:08:56Z</time>
      </trkpt>
      <trkpt lat="59.8919311" lon="17.6212678">
        <ele>28.9769</ele>
        <time>2014-06-01T10:08:57Z</time>
      </trkpt>
      <trkpt lat="59.8918823" lon="17.6213007">
        <ele>27.5349</ele>
        <time>2014-06-01T10:08:58Z</time>
      </trkpt>
      <trkpt lat="59.8918393" lon="17.6213717">
        <ele>24.651</ele>
        <time>2014-06-01T10:08:59Z</time>
      </trkpt>
      <trkpt lat="59.8918045" lon="17.6214711">
        <ele>22.2476</ele>
        <time>2014-06-01T10:09:00Z</time>
      </trkpt>
      <trkpt lat="59.8917711" lon="17.6215749">
        <ele>19.8444</ele>
        <time>2014-06-01T10:09:01Z</time>
      </trkpt>
      <trkpt lat="59.8917426" lon="17.621691">
        <ele>18.4023</ele>
        <time>2014-06-01T10:09:02Z</time>
      </trkpt>
      <trkpt lat="59.8916958" lon="17.6218037">
        <ele>16.4797</ele>
        <time>2014-06-01T10:09:03Z</time>
      </trkpt>
      <trkpt lat="59.8916409" lon="17.6219005">
        <ele>14.557</ele>
        <time>2014-06-01T10:09:04Z</time>
      </trkpt>
      <trkpt lat="59.8915829" lon="17.6219731">
        <ele>13.1151</ele>
        <time>2014-06-01T10:09:05Z</time>
      </trkpt>
      <trkpt lat="59.8915197" lon="17.6220269">
        <ele>11.6732</ele>
        <time>2014-06-01T10:09:06Z</time>
      </trkpt>
      <trkpt lat="59.8914565" lon="17.622063">
        <ele>10.7118</ele>
        <time>2014-06-01T10:09:07Z</time>
      </trkpt>
      <trkpt lat="59.8913975" lon="17.622114">
        <ele>9.75061</ele>
        <time>2014-06-01T10:09:08Z</time>
      </trkpt>
      <trkpt lat="59.891337" lon="17.6221909">
        <ele>9.2699</ele>
        <time>2014-06-01T10:09:09Z</time>
      </trkpt>
      <trkpt lat="59.8912765" lon="17.6222773">
        <ele>7.82788</ele>
        <time>2014-06-01T10:09:10Z</time>
      </trkpt>
      <trkpt lat="59.8912121" lon="17.6223652">
        <ele>7.34717</ele>
        <time>2014-06-01T10:09:11Z</time>
      </trkpt>
      <trkpt lat="59.8911479" lon="17.6224529">
        <ele>6.86646</ele>
        <time>2014-06-01T10:09:12Z</time>
      </trkpt>
      <trkpt lat="59.8910838" lon="17.6225404">
        <ele>5.90527</ele>
        <time>2014-06-01T10:09:13Z</time>
      </trkpt>
      <trkpt lat="59.891022" lon="17.6226312">
        <ele>4.94385</ele>
        <time>2014-06-01T10:09:14Z</time>
      </trkpt>
      <trkpt lat="59.8909548" lon="17.6227698">
        <ele>4.46326</ele>
        <time>2014-06-01T10:09:15Z</time>
      </trkpt>
      <trkpt lat="59.8908918" lon="17.6228751">
        <ele>3.98267</ele>
        <time>2014-06-01T10:09:16Z</time>
      </trkpt>
      <trkpt lat="59.890832" lon="17.6229703">
        <ele>3.50195</ele>
        <time>2014-06-01T10:09:17Z</time>
      </trkpt>
      <trkpt lat="59.8907742" lon="17.6230704">
        <ele>3.50195</ele>
        <time>2014-06-01T10:09:18Z</time>
      </trkpt>
      <trkpt lat="59.8907236" lon="17.6231677">
        <ele>3.50195</ele>
        <time>2014-06-01T10:09:19Z</time>
      </trkpt>
      <trkpt lat="59.8906748" lon="17.6232619">
        <ele>3.02124</ele>
        <time>2014-06-01T10:09:20Z</time>
      </trkpt>
      <trkpt lat="59.8906242" lon="17.6233522">
        <ele>3.02124</ele>
        <time>2014-06-01T10:09:21Z</time>
      </trkpt>
      <trkpt lat="59.8905712" lon="17.6234378">
        <ele>3.02124</ele>
        <time>2014-06-01T10:09:22Z</time>
      </trkpt>
      <trkpt lat="59.890518" lon="17.6235206">
        <ele>3.02124</ele>
        <time>2014-06-01T10:09:23Z</time>
      </trkpt>
      <trkpt lat="59.8904672" lon="17.6236092">
        <ele>3.50195</ele>
        <time>2014-06-01T10:09:24Z</time>
      </trkpt>
      <trkpt lat="59.8904185" lon="17.6237024">
        <ele>3.50195</ele>
        <time>2014-06-01T10:09:25Z</time>
      </trkpt>
      <trkpt lat="59.890362" lon="17.6237833">
        <ele>4.94385</ele>
        <time>2014-06-01T10:09:26Z</time>
      </trkpt>
      <trkpt lat="59.8903065" lon="17.6238615">
        <ele>5.90527</ele>
        <time>2014-06-01T10:09:27Z</time>
      </trkpt>
      <trkpt lat="59.8902448" lon="17.6239324">
        <ele>7.82788</ele>
        <time>2014-06-01T10:09:28Z</time>
      </trkpt>
      <trkpt lat="59.8901812" lon="17.6239945">
        <ele>9.2699</ele>
        <time>2014-06-01T10:09:29Z</time>
      </trkpt>
      <trkpt lat="59.8901186" lon="17.6240441">
        <ele>10.2312</ele>
        <time>2014-06-01T10:09:30Z</time>
      </trkpt>
      <trkpt lat="59.8900544" lon="17.6240758">
        <ele>11.1925</ele>
        <time>2014-06-01T10:09:31Z</time>
      </trkpt>
      <trkpt lat="59.8899884" lon="17.6240907">
        <ele>12.1538</ele>
        <time>2014-06-01T10:09:32Z</time>
      </trkpt>
      <trkpt lat="59.8899223" lon="17.6240971">
        <ele>13.1151</ele>
        <time>2014-06-01T10:09:33Z</time>
      </trkpt>
      <trkpt lat="59.889858" lon="17.6240996">
        <ele>13.5958</ele>
        <time>2014-06-01T10:09:34Z</time>
      </trkpt>
      <trkpt lat="59.8897943" lon="17.6241026">
        <ele>14.0764</ele>
        <time>2014-06-01T10:09:35Z</time>
      </trkpt>
      <trkpt lat="59.8897314" lon="17.6241032">
        <ele>14.557</ele>
        <time>2014-06-01T10:09:36Z</time>
      </trkpt>
      <trkpt lat="59.8896713" lon="17.6240981">
        <ele>15.5184</ele>
        <time>2014-06-01T10:09:37Z</time>
      </trkpt>
      <trkpt lat="59.889617" lon="17.624084">
        <ele>15.999</ele>
        <time>2014-06-01T10:09:38Z</time>
      </trkpt>
      <trkpt lat="59.8895667" lon="17.6240613">
        <ele>16.4797</ele>
        <time>2014-06-01T10:09:39Z</time>
      </trkpt>
      <trkpt lat="59.8895162" lon="17.624035">
        <ele>16.4797</ele>
        <time>2014-06-01T10:09:40Z</time>
      </trkpt>
      <trkpt lat="59.8894681" lon="17.6239894">
        <ele>16.4797</ele>
        <time>2014-06-01T10:09:41Z</time>
      </trkpt>
      <trkpt lat="59.8894305" lon="17.6239048">
        <ele>16.4797</ele>
        <time>2014-06-01T10:09:42Z</time>
      </trkpt>
      <trkpt lat="59.8894049" lon="17.6238152">
        <ele>16.9604</ele>
        <time>2014-06-01T10:09:43Z</time>
      </trkpt>
      <trkpt lat="59.8893836" lon="17.6237214">
        <ele>16.9604</ele>
        <time>2014-06-01T10:09:44Z</time>
      </trkpt>
      <trkpt lat="59.8893486" lon="17.6236398">
        <ele>17.4412</ele>
        <time>2014-06-01T10:09:45Z</time>
      </trkpt>
      <trkpt lat="59.8893038" lon="17.6235779">
        <ele>17.9218</ele>
        <time>2014-06-01T10:09:46Z</time>
      </trkpt>
      <trkpt lat="59.8892577" lon="17.6235237">
        <ele>17.9218</ele>
        <time>2014-06-01T10:09:47Z</time>
      </trkpt>
      <trkpt lat="59.8892147" lon="17.6234639">
        <ele>17.9218</ele>
        <time>2014-06-01T10:09:48Z</time>
      </trkpt>
      <trkpt lat="59.8891759" lon="17.6234004">
        <ele>17.9218</ele>
        <time>2014-06-01T10:09:49Z</time>
      </trkpt>
      <trkpt lat="59.8891411" lon="17.6233232">
        <ele>18.4023</ele>
        <time>2014-06-01T10:09:50Z</time>
      </trkpt>
      <trkpt lat="59.8891106" lon="17.62325">
        <ele>18.4023</ele>
        <time>2014-06-01T10:09:51Z</time>
      </trkpt>
      <trkpt lat="59.8890744" lon="17.6231838">
        <ele>18.4023</ele>
        <time>2014-06-01T10:09:52Z</time>
      </trkpt>
      <trkpt lat="59.8890283" lon="17.6231398">
        <ele>18.4023</ele>
        <time>2014-06-01T10:09:53Z</time>
      </trkpt>
      <trkpt lat="59.888983" lon="17.6230957">
        <ele>18.4023</ele>
        <time>2014-06-01T10:09:54Z</time>
      </trkpt>
      <trkpt lat="59.8889442" lon="17.6230476">
        <ele>18.4023</ele>
        <time>2014-06-01T10:09:55Z</time>
      </trkpt>
      <trkpt lat="59.8889106" lon="17.6229968">
        <ele>18.8831</ele>
        <time>2014-06-01T10:09:56Z</time>
      </trkpt>
      <trkpt lat="59.8888733" lon="17.6229512">
        <ele>19.3638</ele>
        <time>2014-06-01T10:09:57Z</time>
      </trkpt>
      <trkpt lat="59.8888366" lon="17.6229227">
        <ele>19.3638</ele>
        <time>2014-06-01T10:09:58Z</time>
      </trkpt>
      <trkpt lat="59.8888008" lon="17.6229108">
        <ele>19.3638</ele>
        <time>2014-06-01T10:09:59Z</time>
      </trkpt>
      <trkpt lat="59.8887676" lon="17.6229137">
        <ele>18.8831</ele>
        <time>2014-06-01T10:10:00Z</time>
      </trkpt>
      <trkpt lat="59.8887355" lon="17.6229253">
        <ele>18.8831</ele>
        <time>2014-06-01T10:10:01Z</time>
      </trkpt>
      <trkpt lat="59.8887066" lon="17.6229388">
        <ele>18.8831</ele>
        <time>2014-06-01T10:10:02Z</time>
      </trkpt>
      <trkpt lat="59.8886806" lon="17.6229502">
        <ele>18.8831</ele>
        <time>2014-06-01T10:10:03Z</time>
      </trkpt>
      <trkpt lat="59.8886564" lon="17.6229689">
        <ele>18.8831</ele>
        <time>2014-06-01T10:10:04Z</time>
      </trkpt>
      <trkpt lat="59.888631" lon="17.6229933">
        <ele>19.3638</ele>
        <time>2014-06-01T10:10:05Z</time>
      </trkpt>
      <trkpt lat="59.8886106" lon="17.6230097">
        <ele>19.3638</ele>
        <time>2014-06-01T10:10:06Z</time>
      </trkpt>
      <trkpt lat="59.8885888" lon="17.6230211">
        <ele>18.8831</ele>
        <time>2014-06-01T10:10:07Z</time>
      </trkpt>
      <trkpt lat="59.8885699" lon="17.6230257">
        <ele>18.8831</ele>
        <time>2014-06-01T10:10:08Z</time>
      </trkpt>
      <trkpt lat="59.8885545" lon="17.6230249">
        <ele>18.8831</ele>
        <time>2014-06-01T10:10:09Z</time>
      </trkpt>
      <trkpt lat="59.8885387" lon="17.6230237">
        <ele>18.8831</ele>
        <time>2014-06-01T10:10:10Z</time>
      </trkpt>
      <trkpt lat="59.8885224" lon="17.6230201">
        <ele>18.8831</ele>
        <time>2014-06-01T10:10:11Z</time>
      </trkpt>
      <trkpt lat="59.8885034" lon="17.6230253">
        <ele>19.8444</ele>
        <time>2014-06-01T10:10:12Z</time>
      </trkpt>
      <trkpt lat="59.8884838" lon="17.6230257">
        <ele>19.8444</ele>
        <time>2014-06-01T10:10:13Z</time>
      </trkpt>
      <trkpt lat="59.888463" lon="17.6230221">
        <ele>20.8057</ele>
        <time>2014-06-01T10:10:14Z</time>
      </trkpt>
      <trkpt lat="59.8884426" lon="17.6230238">
        <ele>21.767</ele>
        <time>2014-06-01T10:10:15Z</time>
      </trkpt>
      <trkpt lat="59.8884274" lon="17.6230249">
        <ele>21.767</ele>
        <time>2014-06-01T10:10:16Z</time>
      </trkpt>
      <trkpt lat="59.8884124" lon="17.6230265">
        <ele>21.767</ele>
        <time>2014-06-01T10:10:17Z</time>
      </trkpt>
      <trkpt lat="59.8883971" lon="17.62303">
        <ele>21.767</ele>
        <time>2014-06-01T10:10:18Z</time>
      </trkpt>
      <trkpt lat="59.8883865" lon="17.6230295">
        <ele>22.2476</ele>
        <time>2014-06-01T10:10:19Z</time>
      </trkpt>
      <trkpt lat="59.8883723" lon="17.6230248">
        <ele>22.2476</ele>
        <time>2014-06-01T10:10:20Z</time>
      </trkpt>
      <trkpt lat="59.8883594" lon="17.6230217">
        <ele>23.209</ele>
        <time>2014-06-01T10:10:21Z</time>
      </trkpt>
      <trkpt lat="59.8883453" lon="17.6230203">
        <ele>23.6896</ele>
        <time>2014-06-01T10:10:22Z</time>
      </trkpt>
      <trkpt lat="59.888331" lon="17.6230227">
        <ele>23.209</ele>
        <time>2014-06-01T10:10:23Z</time>
      </trkpt>
      <trkpt lat="59.8883162" lon="17.6230225">
        <ele>23.6896</ele>
        <time>2014-06-01T10:10:24Z</time>
      </trkpt>
      <trkpt lat="59.8883009" lon="17.6230221">
        <ele>23.6896</ele>
        <time>2014-06-01T10:10:25Z</time>
      </trkpt>
      <trkpt lat="59.8882875" lon="17.6230182">
        <ele>23.6896</ele>
        <time>2014-06-01T10:10:26Z</time>
      </trkpt>
      <trkpt lat="59.888274" lon="17.6230146">
        <ele>23.6896</ele>
        <time>2014-06-01T10:10:27Z</time>
      </trkpt>
      <trkpt lat="59.8882615" lon="17.6230164">
        <ele>24.651</ele>
        <time>2014-06-01T10:10:28Z</time>
      </trkpt>
      <trkpt lat="59.8882499" lon="17.6230177">
        <ele>24.651</ele>
        <time>2014-06-01T10:10:29Z</time>
      </trkpt>
      <trkpt lat="59.8882367" lon="17.6230169">
        <ele>25.1317</ele>
        <time>2014-06-01T10:10:30Z</time>
      </trkpt>
      <trkpt lat="59.8882227" lon="17.6230138">
        <ele>25.6123</ele>
        <time>2014-06-01T10:10:31Z</time>
      </trkpt>
      <trkpt lat="59.8882095" lon="17.6230139">
        <ele>25.1317</ele>
        <time>2014-06-01T10:10:32Z</time>
      </trkpt>
      <trkpt lat="59.8881937" lon="17.6230159">
        <ele>25.6123</ele>
        <time>2014-06-01T10:10:33Z</time>
      </trkpt>
      <trkpt lat="59.8881787" lon="17.6230191">
        <ele>25.6123</ele>
        <time>2014-06-01T10:10:34Z</time>
      </trkpt>
      <trkpt lat="59.888166" lon="17.623023">
        <ele>25.6123</ele>
        <time>2014-06-01T10:10:35Z</time>
      </trkpt>
      <trkpt lat="59.8881507" lon="17.6230305">
        <ele>26.0929</ele>
        <time>2014-06-01T10:10:36Z</time>
      </trkpt>
      <trkpt lat="59.8881362" lon="17.6230331">
        <ele>26.5736</ele>
        <time>2014-06-01T10:10:37Z</time>
      </trkpt>
      <trkpt lat="59.8881237" lon="17.623034">
        <ele>26.5736</ele>
        <time>2014-06-01T10:10:38Z</time>
      </trkpt>
      <trkpt lat="59.8881093" lon="17.6230347">
        <ele>27.0543</ele>
        <time>2014-06-01T10:10:39Z</time>
      </trkpt>
      <trkpt lat="59.8880933" lon="17.6230339">
        <ele>27.0543</ele>
        <time>2014-06-01T10:10:40Z</time>
      </trkpt>
      <trkpt lat="59.8880782" lon="17.6230305">
        <ele>27.5349</ele>
        <time>2014-06-01T10:10:41Z</time>
      </trkpt>
      <trkpt lat="59.8880627" lon="17.6230244">
        <ele>27.5349</ele>
        <time>2014-06-01T10:10:42Z</time>
      </trkpt>
      <trkpt lat="59.8880491" lon="17.623021">
        <ele>27.5349</ele>
        <time>2014-06-01T10:10:43Z</time>
      </trkpt>
      <trkpt lat="59.8880371" lon="17.6230154">
        <ele>27.0543</ele>
        <time>2014-06-01T10:10:44Z</time>
      </trkpt>
      <trkpt lat="59.8880239" lon="17.6230067">
        <ele>27.0543</ele>
        <time>2014-06-01T10:10:45Z</time>
      </trkpt>
      <trkpt lat="59.8880086" lon="17.6229983">
        <ele>27.0543</ele>
        <time>2014-06-01T10:10:46Z</time>
      </trkpt>
      <trkpt lat="59.8879889" lon="17.6229879">
        <ele>28.0155</ele>
        <time>2014-06-01T10:10:47Z</time>
      </trkpt>
      <trkpt lat="59.887965" lon="17.6229721">
        <ele>28.4962</ele>
        <time>2014-06-01T10:10:48Z</time>
      </trkpt>
      <trkpt lat="59.8879418" lon="17.6229493">
        <ele>28.9769</ele>
        <time>2014-06-01T10:10:49Z</time>
      </trkpt>
      <trkpt lat="59.8879213" lon="17.6229229">
        <ele>29.4575</ele>
        <time>2014-06-01T10:10:50Z</time>
      </trkpt>
      <trkpt lat="59.8879026" lon="17.6228921">
        <ele>29.9381</ele>
        <time>2014-06-01T10:10:51Z</time>
      </trkpt>
      <trkpt lat="59.8878823" lon="17.6228552">
        <ele>30.4188</ele>
        <time>2014-06-01T10:10:52Z</time>
      </trkpt>
      <trkpt lat="59.8878646" lon="17.6228135">
        <ele>30.8995</ele>
        <time>2014-06-01T10:10:53Z</time>
      </trkpt>
      <trkpt lat="59.8878508" lon="17.6227679">
        <ele>31.3801</ele>
        <time>2014-06-01T10:10:54Z</time>
      </trkpt>
      <trkpt lat="59.8878397" lon="17.6227217">
        <ele>31.8607</ele>
        <time>2014-06-01T10:10:55Z</time>
      </trkpt>
      <trkpt lat="59.8878325" lon="17.6226778">
        <ele>32.3416</ele>
        <time>2014-06-01T10:10:56Z</time>
      </trkpt>
      <trkpt lat="59.8878255" lon="17.6226379">
        <ele>32.8223</ele>
        <time>2014-06-01T10:10:57Z</time>
      </trkpt>
      <trkpt lat="59.8878166" lon="17.6225994">
        <ele>32.8223</ele>
        <time>2014-06-01T10:10:58Z</time>
      </trkpt>
      <trkpt lat="59.8878071" lon="17.6225622">
        <ele>32.8223</ele>
        <time>2014-06-01T10:10:59Z</time>
      </trkpt>
      <trkpt lat="59.8877973" lon="17.6225276">
        <ele>32.8223</ele>
        <time>2014-06-01T10:11:00Z</time>
      </trkpt>
      <trkpt lat="59.887786" lon="17.6224962">
        <ele>33.3029</ele>
        <time>2014-06-01T10:11:01Z</time>
      </trkpt>
      <trkpt lat="59.887774" lon="17.6224647">
        <ele>33.3029</ele>
        <time>2014-06-01T10:11:02Z</time>
      </trkpt>
      <trkpt lat="59.8877611" lon="17.6224304">
        <ele>33.7834</ele>
        <time>2014-06-01T10:11:03Z</time>
      </trkpt>
      <trkpt lat="59.8877478" lon="17.6223955">
        <ele>34.2642</ele>
        <time>2014-06-01T10:11:04Z</time>
      </trkpt>
      <trkpt lat="59.8877352" lon="17.6223619">
        <ele>34.7449</ele>
        <time>2014-06-01T10:11:05Z</time>
      </trkpt>
      <trkpt lat="59.8877218" lon="17.6223313">
        <ele>35.2255</ele>
        <time>2014-06-01T10:11:06Z</time>
      </trkpt>
      <trkpt lat="59.8877086" lon="17.622303">
        <ele>35.2255</ele>
        <time>2014-06-01T10:11:07Z</time>
      </trkpt>
      <trkpt lat="59.8876947" lon="17.6222719">
        <ele>35.7061</ele>
        <time>2014-06-01T10:11:08Z</time>
      </trkpt>
      <trkpt lat="59.887678" lon="17.6222333">
        <ele>35.2255</ele>
        <time>2014-06-01T10:11:09Z</time>
      </trkpt>
      <trkpt lat="59.8876524" lon="17.6221784">
        <ele>35.2255</ele>
        <time>2014-06-01T10:11:10Z</time>
      </trkpt>
      <trkpt lat="59.8876125" lon="17.6221074">
        <ele>34.2642</ele>
        <time>2014-06-01T10:11:11Z</time>
      </trkpt>
      <trkpt lat="59.8875601" lon="17.6220181">
        <ele>33.3029</ele>
        <time>2014-06-01T10:11:12Z</time>
      </trkpt>
      <trkpt lat="59.8875027" lon="17.6219101">
        <ele>32.3416</ele>
        <time>2014-06-01T10:11:13Z</time>
      </trkpt>
      <trkpt lat="59.8874372" lon="17.6217677">
        <ele>31.3801</ele>
        <time>2014-06-01T10:11:14Z</time>
      </trkpt>
      <trkpt lat="59.8873861" lon="17.6216878">
        <ele>30.8995</ele>
        <time>2014-06-01T10:11:15Z</time>
      </trkpt>
      <trkpt lat="59.8873329" lon="17.6216293">
        <ele>29.9381</ele>
        <time>2014-06-01T10:11:16Z</time>
      </trkpt>
      <trkpt lat="59.8872473" lon="17.6215874">
        <ele>28.9769</ele>
        <time>2014-06-01T10:11:17Z</time>
      </trkpt>
      <trkpt lat="59.8871597" lon="17.621578">
        <ele>28.0155</ele>
        <time>2014-06-01T10:11:18Z</time>
      </trkpt>
      <trkpt lat="59.8870732" lon="17.6215666">
        <ele>27.0543</ele>
        <time>2014-06-01T10:11:19Z</time>
      </trkpt>
      <trkpt lat="59.8869815" lon="17.6215547">
        <ele>26.0929</ele>
        <time>2014-06-01T10:11:20Z</time>
      </trkpt>
      <trkpt lat="59.8868953" lon="17.62156">
        <ele>24.651</ele>
        <time>2014-06-01T10:11:21Z</time>
      </trkpt>
      <trkpt lat="59.8867985" lon="17.621577">
        <ele>23.6896</ele>
        <time>2014-06-01T10:11:22Z</time>
      </trkpt>
      <trkpt lat="59.8866868" lon="17.6216014">
        <ele>23.209</ele>
        <time>2014-06-01T10:11:23Z</time>
      </trkpt>
      <trkpt lat="59.8865838" lon="17.6216444">
        <ele>22.7283</ele>
        <time>2014-06-01T10:11:24Z</time>
      </trkpt>
      <trkpt lat="59.8864831" lon="17.6216874">
        <ele>22.7283</ele>
        <time>2014-06-01T10:11:25Z</time>
      </trkpt>
      <trkpt lat="59.8863828" lon="17.6217306">
        <ele>22.2476</ele>
        <time>2014-06-01T10:11:26Z</time>
      </trkpt>
      <trkpt lat="59.8862878" lon="17.6217767">
        <ele>22.2476</ele>
        <time>2014-06-01T10:11:27Z</time>
      </trkpt>
      <trkpt lat="59.8861951" lon="17.6218252">
        <ele>21.767</ele>
        <time>2014-06-01T10:11:28Z</time>
      </trkpt>
      <trkpt lat="59.8861046" lon="17.6218723">
        <ele>21.767</ele>
        <time>2014-06-01T10:11:29Z</time>
      </trkpt>
      <trkpt lat="59.8860176" lon="17.6219226">
        <ele>21.767</ele>
        <time>2014-06-01T10:11:30Z</time>
      </trkpt>
      <trkpt lat="59.8859357" lon="17.6219764">
        <ele>21.767</ele>
        <time>2014-06-01T10:11:31Z</time>
      </trkpt>
      <trkpt lat="59.8858588" lon="17.6220328">
        <ele>21.767</ele>
        <time>2014-06-01T10:11:32Z</time>
      </trkpt>
      <trkpt lat="59.885788" lon="17.6220996">
        <ele>21.767</ele>
        <time>2014-06-01T10:11:33Z</time>
      </trkpt>
      <trkpt lat="59.8857264" lon="17.6221794">
        <ele>21.767</ele>
        <time>2014-06-01T10:11:34Z</time>
      </trkpt>
      <trkpt lat="59.885672" lon="17.6222695">
        <ele>21.767</ele>
        <time>2014-06-01T10:11:35Z</time>
      </trkpt>
      <trkpt lat="59.8856216" lon="17.6223627">
        <ele>21.767</ele>
        <time>2014-06-01T10:11:36Z</time>
      </trkpt>
      <trkpt lat="59.8855751" lon="17.6224538">
        <ele>21.767</ele>
        <time>2014-06-01T10:11:37Z</time>
      </trkpt>
      <trkpt lat="59.8855302" lon="17.6225445">
        <ele>21.767</ele>
        <time>2014-06-01T10:11:38Z</time>
      </trkpt>
      <trkpt lat="59.8854814" lon="17.6226193">
        <ele>21.2864</ele>
        <time>2014-06-01T10:11:39Z</time>
      </trkpt>
      <trkpt lat="59.8854266" lon="17.6226535">
        <ele>21.2864</ele>
        <time>2014-06-01T10:11:40Z</time>
      </trkpt>
      <trkpt lat="59.885372" lon="17.6226581">
        <ele>21.767</ele>
        <time>2014-06-01T10:11:41Z</time>
      </trkpt>
      <trkpt lat="59.8853171" lon="17.6226692">
        <ele>21.767</ele>
        <time>2014-06-01T10:11:42Z</time>
      </trkpt>
      <trkpt lat="59.8852628" lon="17.6226756">
        <ele>22.2476</ele>
        <time>2014-06-01T10:11:43Z</time>
      </trkpt>
      <trkpt lat="59.8852072" lon="17.6226855">
        <ele>22.7283</ele>
        <time>2014-06-01T10:11:44Z</time>
      </trkpt>
      <trkpt lat="59.8851509" lon="17.6227005">
        <ele>23.209</ele>
        <time>2014-06-01T10:11:45Z</time>
      </trkpt>
      <trkpt lat="59.8851001" lon="17.6227207">
        <ele>23.6896</ele>
        <time>2014-06-01T10:11:46Z</time>
      </trkpt>
      <trkpt lat="59.8850535" lon="17.6227503">
        <ele>24.1703</ele>
        <time>2014-06-01T10:11:47Z</time>
      </trkpt>
      <trkpt lat="59.8850088" lon="17.6227825">
        <ele>24.651</ele>
        <time>2014-06-01T10:11:48Z</time>
      </trkpt>
      <trkpt lat="59.8849645" lon="17.6228191">
        <ele>24.651</ele>
        <time>2014-06-01T10:11:49Z</time>
      </trkpt>
      <trkpt lat="59.8849191" lon="17.6228575">
        <ele>24.651</ele>
        <time>2014-06-01T10:11:50Z</time>
      </trkpt>
      <trkpt lat="59.8848718" lon="17.6228989">
        <ele>24.651</ele>
        <time>2014-06-01T10:11:51Z</time>
      </trkpt>
      <trkpt lat="59.8848246" lon="17.6229466">
        <ele>25.1317</ele>
        <time>2014-06-01T10:11:52Z</time>
      </trkpt>
      <trkpt lat="59.8847779" lon="17.6229988">
        <ele>25.1317</ele>
        <time>2014-06-01T10:11:53Z</time>
      </trkpt>
      <trkpt lat="59.8847293" lon="17.6230524">
        <ele>25.1317</ele>
        <time>2014-06-01T10:11:54Z</time>
      </trkpt>
      <trkpt lat="59.8846778" lon="17.6231077">
        <ele>24.651</ele>
        <time>2014-06-01T10:11:55Z</time>
      </trkpt>
      <trkpt lat="59.8846223" lon="17.6231648">
        <ele>24.651</ele>
        <time>2014-06-01T10:11:56Z</time>
      </trkpt>
      <trkpt lat="59.8845605" lon="17.6232216">
        <ele>24.1703</ele>
        <time>2014-06-01T10:11:57Z</time>
      </trkpt>
      <trkpt lat="59.8844918" lon="17.6232724">
        <ele>23.6896</ele>
        <time>2014-06-01T10:11:58Z</time>
      </trkpt>
      <trkpt lat="59.8844198" lon="17.6233175">
        <ele>23.6896</ele>
        <time>2014-06-01T10:11:59Z</time>
      </trkpt>
      <trkpt lat="59.8843478" lon="17.6233552">
        <ele>23.209</ele>
        <time>2014-06-01T10:12:00Z</time>
      </trkpt>
      <trkpt lat="59.8842744" lon="17.6233957">
        <ele>22.7283</ele>
        <time>2014-06-01T10:12:01Z</time>
      </trkpt>
      <trkpt lat="59.8841998" lon="17.6234466">
        <ele>22.2476</ele>
        <time>2014-06-01T10:12:02Z</time>
      </trkpt>
      <trkpt lat="59.8841215" lon="17.6235069">
        <ele>21.767</ele>
        <time>2014-06-01T10:12:03Z</time>
      </trkpt>
      <trkpt lat="59.8840413" lon="17.6235789">
        <ele>21.767</ele>
        <time>2014-06-01T10:12:04Z</time>
      </trkpt>
      <trkpt lat="59.8839672" lon="17.6236671">
        <ele>21.767</ele>
        <time>2014-06-01T10:12:05Z</time>
      </trkpt>
      <trkpt lat="59.8839016" lon="17.623763">
        <ele>22.2476</ele>
        <time>2014-06-01T10:12:06Z</time>
      </trkpt>
      <trkpt lat="59.8838423" lon="17.6238506">
        <ele>22.7283</ele>
        <time>2014-06-01T10:12:07Z</time>
      </trkpt>
      <trkpt lat="59.883786" lon="17.6239273">
        <ele>23.209</ele>
        <time>2014-06-01T10:12:08Z</time>
      </trkpt>
      <trkpt lat="59.8837388" lon="17.623991">
        <ele>23.6896</ele>
        <time>2014-06-01T10:12:09Z</time>
      </trkpt>
      <trkpt lat="59.8836977" lon="17.6240443">
        <ele>24.1703</ele>
        <time>2014-06-01T10:12:10Z</time>
      </trkpt>
      <trkpt lat="59.8836543" lon="17.6240887">
        <ele>24.651</ele>
        <time>2014-06-01T10:12:11Z</time>
      </trkpt>
      <trkpt lat="59.8836082" lon="17.6241271">
        <ele>24.651</ele>
        <time>2014-06-01T10:12:12Z</time>
      </trkpt>
      <trkpt lat="59.883562" lon="17.6241705">
        <ele>24.651</ele>
        <time>2014-06-01T10:12:13Z</time>
      </trkpt>
      <trkpt lat="59.8835159" lon="17.6242218">
        <ele>24.651</ele>
        <time>2014-06-01T10:12:14Z</time>
      </trkpt>
      <trkpt lat="59.8834695" lon="17.6242805">
        <ele>24.651</ele>
        <time>2014-06-01T10:12:15Z</time>
      </trkpt>
      <trkpt lat="59.8834245" lon="17.6243497">
        <ele>24.651</ele>
        <time>2014-06-01T10:12:16Z</time>
      </trkpt>
      <trkpt lat="59.8833832" lon="17.6244311">
        <ele>24.1703</ele>
        <time>2014-06-01T10:12:17Z</time>
      </trkpt>
      <trkpt lat="59.8833441" lon="17.6245209">
        <ele>24.1703</ele>
        <time>2014-06-01T10:12:18Z</time>
      </trkpt>
      <trkpt lat="59.8833056" lon="17.6246146">
        <ele>24.1703</ele>
        <time>2014-06-01T10:12:19Z</time>
      </trkpt>
      <trkpt lat="59.8832669" lon="17.624712">
        <ele>23.6896</ele>
        <time>2014-06-01T10:12:20Z</time>
      </trkpt>
      <trkpt lat="59.8832306" lon="17.6248135">
        <ele>23.6896</ele>
        <time>2014-06-01T10:12:21Z</time>
      </trkpt>
      <trkpt lat="59.8831962" lon="17.6249161">
        <ele>23.209</ele>
        <time>2014-06-01T10:12:22Z</time>
      </trkpt>
      <trkpt lat="59.8831591" lon="17.6250093">
        <ele>22.7283</ele>
        <time>2014-06-01T10:12:23Z</time>
      </trkpt>
      <trkpt lat="59.8831164" lon="17.6250917">
        <ele>22.7283</ele>
        <time>2014-06-01T10:12:24Z</time>
      </trkpt>
      <trkpt lat="59.8830703" lon="17.6251709">
        <ele>22.2476</ele>
        <time>2014-06-01T10:12:25Z</time>
      </trkpt>
      <trkpt lat="59.883022" lon="17.625249">
        <ele>21.767</ele>
        <time>2014-06-01T10:12:26Z</time>
      </trkpt>
      <trkpt lat="59.8829716" lon="17.6253263">
        <ele>21.2864</ele>
        <time>2014-06-01T10:12:27Z</time>
      </trkpt>
      <trkpt lat="59.8829188" lon="17.6254019">
        <ele>21.2864</ele>
        <time>2014-06-01T10:12:28Z</time>
      </trkpt>
      <trkpt lat="59.8828655" lon="17.6254753">
        <ele>21.2864</ele>
        <time>2014-06-01T10:12:29Z</time>
      </trkpt>
      <trkpt lat="59.8828108" lon="17.6255496">
        <ele>20.8057</ele>
        <time>2014-06-01T10:12:30Z</time>
      </trkpt>
      <trkpt lat="59.882753" lon="17.6256221">
        <ele>20.8057</ele>
        <time>2014-06-01T10:12:31Z</time>
      </trkpt>
      <trkpt lat="59.8826949" lon="17.6256889">
        <ele>20.8057</ele>
        <time>2014-06-01T10:12:32Z</time>
      </trkpt>
      <trkpt lat="59.8826371" lon="17.6257639">
        <ele>20.8057</ele>
        <time>2014-06-01T10:12:33Z</time>
      </trkpt>
      <trkpt lat="59.8825847" lon="17.6258266">
        <ele>20.325</ele>
        <time>2014-06-01T10:12:34Z</time>
      </trkpt>
      <trkpt lat="59.8825349" lon="17.6258968">
        <ele>20.325</ele>
        <time>2014-06-01T10:12:35Z</time>
      </trkpt>
      <trkpt lat="59.8824922" lon="17.6259739">
        <ele>20.325</ele>
        <time>2014-06-01T10:12:36Z</time>
      </trkpt>
      <trkpt lat="59.8824588" lon="17.626064">
        <ele>20.325</ele>
        <time>2014-06-01T10:12:37Z</time>
      </trkpt>
      <trkpt lat="59.8824463" lon="17.6261594">
        <ele>19.8444</ele>
        <time>2014-06-01T10:12:38Z</time>
      </trkpt>
      <trkpt lat="59.8824555" lon="17.6262583">
        <ele>19.8444</ele>
        <time>2014-06-01T10:12:39Z</time>
      </trkpt>
      <trkpt lat="59.8824689" lon="17.6263598">
        <ele>19.8444</ele>
        <time>2014-06-01T10:12:40Z</time>
      </trkpt>
      <trkpt lat="59.8824775" lon="17.6264602">
        <ele>19.8444</ele>
        <time>2014-06-01T10:12:41Z</time>
      </trkpt>
      <trkpt lat="59.8824834" lon="17.6265665">
        <ele>19.8444</ele>
        <time>2014-06-01T10:12:42Z</time>
      </trkpt>
      <trkpt lat="59.8824843" lon="17.6266647">
        <ele>20.325</ele>
        <time>2014-06-01T10:12:43Z</time>
      </trkpt>
      <trkpt lat="59.8824831" lon="17.6267593">
        <ele>20.325</ele>
        <time>2014-06-01T10:12:44Z</time>
      </trkpt>
      <trkpt lat="59.8824819" lon="17.6268508">
        <ele>20.8057</ele>
        <time>2014-06-01T10:12:45Z</time>
      </trkpt>
      <trkpt lat="59.88248" lon="17.6269377">
        <ele>21.2864</ele>
        <time>2014-06-01T10:12:46Z</time>
      </trkpt>
      <trkpt lat="59.8824772" lon="17.6270165">
        <ele>21.767</ele>
        <time>2014-06-01T10:12:47Z</time>
      </trkpt>
      <trkpt lat="59.8824726" lon="17.6270859">
        <ele>22.2476</ele>
        <time>2014-06-01T10:12:48Z</time>
      </trkpt>
      <trkpt lat="59.8824666" lon="17.6271469">
        <ele>22.7283</ele>
        <time>2014-06-01T10:12:49Z</time>
      </trkpt>
      <trkpt lat="59.882461" lon="17.6272034">
        <ele>23.209</ele>
        <time>2014-06-01T10:12:50Z</time>
      </trkpt>
      <trkpt lat="59.8824565" lon="17.627265">
        <ele>23.6896</ele>
        <time>2014-06-01T10:12:51Z</time>
      </trkpt>
      <trkpt lat="59.8824532" lon="17.6273239">
        <ele>24.1703</ele>
        <time>2014-06-01T10:12:52Z</time>
      </trkpt>
      <trkpt lat="59.8824479" lon="17.6273818">
        <ele>24.1703</ele>
        <time>2014-06-01T10:12:53Z</time>
      </trkpt>
      <trkpt lat="59.8824395" lon="17.6274438">
        <ele>24.651</ele>
        <time>2014-06-01T10:12:54Z</time>
      </trkpt>
      <trkpt lat="59.8824288" lon="17.6275102">
        <ele>25.1317</ele>
        <time>2014-06-01T10:12:55Z</time>
      </trkpt>
      <trkpt lat="59.8824164" lon="17.627578">
        <ele>25.1317</ele>
        <time>2014-06-01T10:12:56Z</time>
      </trkpt>
      <trkpt lat="59.8824017" lon="17.6276442">
        <ele>25.1317</ele>
        <time>2014-06-01T10:12:57Z</time>
      </trkpt>
      <trkpt lat="59.8823887" lon="17.6277022">
        <ele>25.1317</ele>
        <time>2014-06-01T10:12:58Z</time>
      </trkpt>
      <trkpt lat="59.8823738" lon="17.6277628">
        <ele>25.6123</ele>
        <time>2014-06-01T10:12:59Z</time>
      </trkpt>
      <trkpt lat="59.8823548" lon="17.6278216">
        <ele>26.0929</ele>
        <time>2014-06-01T10:13:00Z</time>
      </trkpt>
      <trkpt lat="59.8823374" lon="17.6278672">
        <ele>26.0929</ele>
        <time>2014-06-01T10:13:01Z</time>
      </trkpt>
      <trkpt lat="59.8823189" lon="17.6279063">
        <ele>26.5736</ele>
        <time>2014-06-01T10:13:02Z</time>
      </trkpt>
      <trkpt lat="59.882299" lon="17.6279418">
        <ele>26.5736</ele>
        <time>2014-06-01T10:13:03Z</time>
      </trkpt>
      <trkpt lat="59.8822806" lon="17.6279738">
        <ele>27.0543</ele>
        <time>2014-06-01T10:13:04Z</time>
      </trkpt>
      <trkpt lat="59.882263" lon="17.6280013">
        <ele>27.5349</ele>
        <time>2014-06-01T10:13:05Z</time>
      </trkpt>
      <trkpt lat="59.8822448" lon="17.628022">
        <ele>27.5349</ele>
        <time>2014-06-01T10:13:06Z</time>
      </trkpt>
      <trkpt lat="59.8822263" lon="17.628042">
        <ele>27.5349</ele>
        <time>2014-06-01T10:13:07Z</time>
      </trkpt>
      <trkpt lat="59.88221" lon="17.6280615">
        <ele>28.0155</ele>
        <time>2014-06-01T10:13:08Z</time>
      </trkpt>
      <trkpt lat="59.8821929" lon="17.628079">
        <ele>27.5349</ele>
        <time>2014-06-01T10:13:09Z</time>
      </trkpt>
      <trkpt lat="59.8821764" lon="17.6280925">
        <ele>28.0155</ele>
        <time>2014-06-01T10:13:10Z</time>
      </trkpt>
      <trkpt lat="59.8821624" lon="17.6280982">
        <ele>28.4962</ele>
        <time>2014-06-01T10:13:11Z</time>
      </trkpt>
      <trkpt lat="59.8821486" lon="17.6281033">
        <ele>28.4962</ele>
        <time>2014-06-01T10:13:12Z</time>
      </trkpt>
      <trkpt lat="59.8821355" lon="17.6281097">
        <ele>28.9769</ele>
        <time>2014-06-01T10:13:13Z</time>
      </trkpt>
      <trkpt lat="59.882121" lon="17.628114">
        <ele>28.4962</ele>
        <time>2014-06-01T10:13:14Z</time>
      </trkpt>
      <trkpt lat="59.8821081" lon="17.6281107">
        <ele>28.4962</ele>
        <time>2014-06-01T10:13:15Z</time>
      </trkpt>
      <trkpt lat="59.8820944" lon="17.6281059">
        <ele>28.4962</ele>
        <time>2014-06-01T10:13:16Z</time>
      </trkpt>
      <trkpt lat="59.8820786" lon="17.6281042">
        <ele>28.4962</ele>
        <time>2014-06-01T10:13:17Z</time>
      </trkpt>
      <trkpt lat="59.8820624" lon="17.628105">
        <ele>28.4962</ele>
        <time>2014-06-01T10:13:18Z</time>
      </trkpt>
      <trkpt lat="59.882045" lon="17.6281063">
        <ele>28.4962</ele>
        <time>2014-06-01T10:13:19Z</time>
      </trkpt>
      <trkpt lat="59.8820271" lon="17.6281091">
        <ele>28.4962</ele>
        <time>2014-06-01T10:13:20Z</time>
      </trkpt>
      <trkpt lat="59.8820084" lon="17.6281157">
        <ele>28.0155</ele>
        <time>2014-06-01T10:13:21Z</time>
      </trkpt>
      <trkpt lat="59.8819924" lon="17.6281184">
        <ele>28.0155</ele>
        <time>2014-06-01T10:13:22Z</time>
      </trkpt>
      <trkpt lat="59.8819765" lon="17.6281218">
        <ele>28.0155</ele>
        <time>2014-06-01T10:13:23Z</time>
      </trkpt>
      <trkpt lat="59.88196" lon="17.6281257">
        <ele>28.0155</ele>
        <time>2014-06-01T10:13:24Z</time>
      </trkpt>
      <trkpt lat="59.8819432" lon="17.6281293">
        <ele>27.5349</ele>
        <time>2014-06-01T10:13:25Z</time>
      </trkpt>
      <trkpt lat="59.8819261" lon="17.6281315">
        <ele>27.5349</ele>
        <time>2014-06-01T10:13:26Z</time>
      </trkpt>
      <trkpt lat="59.8819092" lon="17.6281381">
        <ele>27.5349</ele>
        <time>2014-06-01T10:13:27Z</time>
      </trkpt>
      <trkpt lat="59.8818921" lon="17.6281446">
        <ele>27.5349</ele>
        <time>2014-06-01T10:13:28Z</time>
      </trkpt>
      <trkpt lat="59.8818771" lon="17.6281509">
        <ele>27.5349</ele>
        <time>2014-06-01T10:13:29Z</time>
      </trkpt>
      <trkpt lat="59.8818601" lon="17.6281563">
        <ele>27.5349</ele>
        <time>2014-06-01T10:13:30Z</time>
      </trkpt>
      <trkpt lat="59.8818449" lon="17.6281607">
        <ele>27.5349</ele>
        <time>2014-06-01T10:13:31Z</time>
      </trkpt>
      <trkpt lat="59.8818334" lon="17.6281629">
        <ele>28.0155</ele>
        <time>2014-06-01T10:13:32Z</time>
      </trkpt>
      <trkpt lat="59.8818226" lon="17.6281635">
        <ele>28.0155</ele>
        <time>2014-06-01T10:13:33Z</time>
      </trkpt>
      <trkpt lat="59.8818108" lon="17.628164">
        <ele>28.0155</ele>
        <time>2014-06-01T10:13:34Z</time>
      </trkpt>
      <trkpt lat="59.8818" lon="17.6281573">
        <ele>28.0155</ele>
        <time>2014-06-01T10:13:35Z</time>
      </trkpt>
      <trkpt lat="59.8817884" lon="17.6281482">
        <ele>28.0155</ele>
        <time>2014-06-01T10:13:36Z</time>
      </trkpt>
      <trkpt lat="59.8817714" lon="17.6281439">
        <ele>28.0155</ele>
        <time>2014-06-01T10:13:37Z</time>
      </trkpt>
      <trkpt lat="59.8817525" lon="17.628139">
        <ele>28.0155</ele>
        <time>2014-06-01T10:13:38Z</time>
      </trkpt>
      <trkpt lat="59.8817372" lon="17.628132">
        <ele>28.0155</ele>
        <time>2014-06-01T10:13:39Z</time>
      </trkpt>
      <trkpt lat="59.8817227" lon="17.6281325">
        <ele>28.0155</ele>
        <time>2014-06-01T10:13:40Z</time>
      </trkpt>
      <trkpt lat="59.8817041" lon="17.6281381">
        <ele>28.0155</ele>
        <time>2014-06-01T10:13:41Z</time>
      </trkpt>
      <trkpt lat="59.8816853" lon="17.6281498">
        <ele>28.0155</ele>
        <time>2014-06-01T10:13:42Z</time>
      </trkpt>
      <trkpt lat="59.8816641" lon="17.6281604">
        <ele>28.0155</ele>
        <time>2014-06-01T10:13:43Z</time>
      </trkpt>
      <trkpt lat="59.8816383" lon="17.6281635">
        <ele>28.0155</ele>
        <time>2014-06-01T10:13:44Z</time>
      </trkpt>
      <trkpt lat="59.8816123" lon="17.6281602">
        <ele>28.4962</ele>
        <time>2014-06-01T10:13:45Z</time>
      </trkpt>
      <trkpt lat="59.8815902" lon="17.6281548">
        <ele>28.0155</ele>
        <time>2014-06-01T10:13:46Z</time>
      </trkpt>
      <trkpt lat="59.881566" lon="17.6281579">
        <ele>29.4575</ele>
        <time>2014-06-01T10:13:47Z</time>
      </trkpt>
      <trkpt lat="59.8815419" lon="17.6281629">
        <ele>30.4188</ele>
        <time>2014-06-01T10:13:48Z</time>
      </trkpt>
      <trkpt lat="59.88152" lon="17.6281665">
        <ele>31.3801</ele>
        <time>2014-06-01T10:13:49Z</time>
      </trkpt>
      <trkpt lat="59.8814968" lon="17.6281686">
        <ele>31.8607</ele>
        <time>2014-06-01T10:13:50Z</time>
      </trkpt>
      <trkpt lat="59.8814725" lon="17.6281687">
        <ele>32.8223</ele>
        <time>2014-06-01T10:13:51Z</time>
      </trkpt>
      <trkpt lat="59.8814481" lon="17.6281682">
        <ele>33.3029</ele>
        <time>2014-06-01T10:13:52Z</time>
      </trkpt>
      <trkpt lat="59.8814217" lon="17.6281665">
        <ele>34.2642</ele>
        <time>2014-06-01T10:13:53Z</time>
      </trkpt>
      <trkpt lat="59.8813943" lon="17.628162">
        <ele>34.7449</ele>
        <time>2014-06-01T10:13:54Z</time>
      </trkpt>
      <trkpt lat="59.8813672" lon="17.6281546">
        <ele>35.2255</ele>
        <time>2014-06-01T10:13:55Z</time>
      </trkpt>
      <trkpt lat="59.8813405" lon="17.6281423">
        <ele>35.7061</ele>
        <time>2014-06-01T10:13:56Z</time>
      </trkpt>
      <trkpt lat="59.8813164" lon="17.6281244">
        <ele>35.7061</ele>
        <time>2014-06-01T10:13:57Z</time>
      </trkpt>
      <trkpt lat="59.8812949" lon="17.6281085">
        <ele>36.1868</ele>
        <time>2014-06-01T10:13:58Z</time>
      </trkpt>
      <trkpt lat="59.8812782" lon="17.6280998">
        <ele>36.6675</ele>
        <time>2014-06-01T10:13:59Z</time>
      </trkpt>
      <trkpt lat="59.8812704" lon="17.6280967">
        <ele>36.6675</ele>
        <time>2014-06-01T10:14:00Z</time>
      </trkpt>
      <trkpt lat="59.8812684" lon="17.6280919">
        <ele>36.6675</ele>
        <time>2014-06-01T10:14:01Z</time>
      </trkpt>
      <trkpt lat="59.8812666" lon="17.6280841">
        <ele>36.6675</ele>
        <time>2014-06-01T10:14:02Z</time>
      </trkpt>
      <trkpt lat="59.8812643" lon="17.6280812">
        <ele>37.1481</ele>
        <time>2014-06-01T10:14:03Z</time>
      </trkpt>
      <trkpt lat="59.881264" lon="17.6280837">
        <ele>37.1481</ele>
        <time>2014-06-01T10:14:04Z</time>
      </trkpt>
      <trkpt lat="59.8811938" lon="17.6280832">
        <ele>41.474</ele>
        <time>2014-06-01T10:14:21Z</time>
      </trkpt>
      <trkpt lat="59.8811575" lon="17.6280619">
        <ele>40.9934</ele>
        <time>2014-06-01T10:14:22Z</time>
      </trkpt>
      <trkpt lat="59.8811139" lon="17.6280415">
        <ele>40.5128</ele>
        <time>2014-06-01T10:14:23Z</time>
      </trkpt>
      <trkpt lat="59.8810646" lon="17.6280255">
        <ele>40.0321</ele>
        <time>2014-06-01T10:14:24Z</time>
      </trkpt>
      <trkpt lat="59.8810099" lon="17.6280193">
        <ele>39.0707</ele>
        <time>2014-06-01T10:14:25Z</time>
      </trkpt>
      <trkpt lat="59.8809444" lon="17.6280169">
        <ele>38.1094</ele>
        <time>2014-06-01T10:14:26Z</time>
      </trkpt>
      <trkpt lat="59.8808673" lon="17.6280116">
        <ele>37.1481</ele>
        <time>2014-06-01T10:14:27Z</time>
      </trkpt>
      <trkpt lat="59.8807872" lon="17.6280039">
        <ele>36.6675</ele>
        <time>2014-06-01T10:14:28Z</time>
      </trkpt>
      <trkpt lat="59.88071" lon="17.627993">
        <ele>36.6675</ele>
        <time>2014-06-01T10:14:29Z</time>
      </trkpt>
      <trkpt lat="59.8806389" lon="17.6279852">
        <ele>36.6675</ele>
        <time>2014-06-01T10:14:30Z</time>
      </trkpt>
      <trkpt lat="59.8805752" lon="17.6279863">
        <ele>36.6675</ele>
        <time>2014-06-01T10:14:31Z</time>
      </trkpt>
      <trkpt lat="59.8805177" lon="17.6279961">
        <ele>36.6675</ele>
        <time>2014-06-01T10:14:32Z</time>
      </trkpt>
      <trkpt lat="59.8804639" lon="17.6280203">
        <ele>36.1868</ele>
        <time>2014-06-01T10:14:33Z</time>
      </trkpt>
      <trkpt lat="59.8804137" lon="17.6280685">
        <ele>35.2255</ele>
        <time>2014-06-01T10:14:34Z</time>
      </trkpt>
      <trkpt lat="59.8803691" lon="17.6281386">
        <ele>34.7449</ele>
        <time>2014-06-01T10:14:35Z</time>
      </trkpt>
      <trkpt lat="59.8803292" lon="17.6282179">
        <ele>33.7834</ele>
        <time>2014-06-01T10:14:36Z</time>
      </trkpt>
      <trkpt lat="59.8802925" lon="17.6282956">
        <ele>32.8223</ele>
        <time>2014-06-01T10:14:37Z</time>
      </trkpt>
      <trkpt lat="59.8802557" lon="17.6283671">
        <ele>31.8607</ele>
        <time>2014-06-01T10:14:38Z</time>
      </trkpt>
      <trkpt lat="59.8802122" lon="17.628437">
        <ele>30.4188</ele>
        <time>2014-06-01T10:14:39Z</time>
      </trkpt>
      <trkpt lat="59.8801556" lon="17.6285108">
        <ele>28.9769</ele>
        <time>2014-06-01T10:14:40Z</time>
      </trkpt>
      <trkpt lat="59.8800894" lon="17.62858">
        <ele>28.4962</ele>
        <time>2014-06-01T10:14:41Z</time>
      </trkpt>
      <trkpt lat="59.8800203" lon="17.6286359">
        <ele>27.5349</ele>
        <time>2014-06-01T10:14:42Z</time>
      </trkpt>
      <trkpt lat="59.8799505" lon="17.6286806">
        <ele>26.5736</ele>
        <time>2014-06-01T10:14:43Z</time>
      </trkpt>
      <trkpt lat="59.8798849" lon="17.6287043">
        <ele>25.6123</ele>
        <time>2014-06-01T10:14:44Z</time>
      </trkpt>
      <trkpt lat="59.8798277" lon="17.6287261">
        <ele>24.1703</ele>
        <time>2014-06-01T10:14:45Z</time>
      </trkpt>
      <trkpt lat="59.8797769" lon="17.6287507">
        <ele>23.209</ele>
        <time>2014-06-01T10:14:46Z</time>
      </trkpt>
      <trkpt lat="59.8797311" lon="17.6287777">
        <ele>22.2476</ele>
        <time>2014-06-01T10:14:47Z</time>
      </trkpt>
      <trkpt lat="59.8796853" lon="17.6288103">
        <ele>20.8057</ele>
        <time>2014-06-01T10:14:48Z</time>
      </trkpt>
      <trkpt lat="59.8796403" lon="17.6288491">
        <ele>20.325</ele>
        <time>2014-06-01T10:14:49Z</time>
      </trkpt>
      <trkpt lat="59.879601" lon="17.6288871">
        <ele>19.8444</ele>
        <time>2014-06-01T10:14:50Z</time>
      </trkpt>
      <trkpt lat="59.8795679" lon="17.6289173">
        <ele>18.8831</ele>
        <time>2014-06-01T10:14:51Z</time>
      </trkpt>
      <trkpt lat="59.8795393" lon="17.6289353">
        <ele>18.8831</ele>
        <time>2014-06-01T10:14:52Z</time>
      </trkpt>
      <trkpt lat="59.8795071" lon="17.6289582">
        <ele>18.8831</ele>
        <time>2014-06-01T10:14:53Z</time>
      </trkpt>
      <trkpt lat="59.8794759" lon="17.6289755">
        <ele>18.8831</ele>
        <time>2014-06-01T10:14:54Z</time>
      </trkpt>
      <trkpt lat="59.8794394" lon="17.6289823">
        <ele>18.4023</ele>
        <time>2014-06-01T10:14:55Z</time>
      </trkpt>
      <trkpt lat="59.8793942" lon="17.6289866">
        <ele>18.4023</ele>
        <time>2014-06-01T10:14:56Z</time>
      </trkpt>
      <trkpt lat="59.8793435" lon="17.6290047">
        <ele>17.9218</ele>
        <time>2014-06-01T10:14:57Z</time>
      </trkpt>
      <trkpt lat="59.8792887" lon="17.629045">
        <ele>17.4412</ele>
        <time>2014-06-01T10:14:58Z</time>
      </trkpt>
      <trkpt lat="59.8792388" lon="17.6290963">
        <ele>16.9604</ele>
        <time>2014-06-01T10:14:59Z</time>
      </trkpt>
      <trkpt lat="59.8791941" lon="17.6291347">
        <ele>15.5184</ele>
        <time>2014-06-01T10:15:00Z</time>
      </trkpt>
      <trkpt lat="59.8791549" lon="17.6291586">
        <ele>15.0377</ele>
        <time>2014-06-01T10:15:01Z</time>
      </trkpt>
      <trkpt lat="59.8791259" lon="17.6291663">
        <ele>14.557</ele>
        <time>2014-06-01T10:15:02Z</time>
      </trkpt>
      <trkpt lat="59.8791016" lon="17.629158">
        <ele>13.5958</ele>
        <time>2014-06-01T10:15:03Z</time>
      </trkpt>
      <trkpt lat="59.8790746" lon="17.6291446">
        <ele>13.1151</ele>
        <time>2014-06-01T10:15:04Z</time>
      </trkpt>
      <trkpt lat="59.8790543" lon="17.6290991">
        <ele>13.1151</ele>
        <time>2014-06-01T10:15:05Z</time>
      </trkpt>
      <trkpt lat="59.8790387" lon="17.6290285">
        <ele>13.1151</ele>
        <time>2014-06-01T10:15:06Z</time>
      </trkpt>
      <trkpt lat="59.8790392" lon="17.6289446">
        <ele>12.6344</ele>
        <time>2014-06-01T10:15:07Z</time>
      </trkpt>
      <trkpt lat="59.8790468" lon="17.6288616">
        <ele>12.6344</ele>
        <time>2014-06-01T10:15:08Z</time>
      </trkpt>
      <trkpt lat="59.8790579" lon="17.628773">
        <ele>13.1151</ele>
        <time>2014-06-01T10:15:09Z</time>
      </trkpt>
      <trkpt lat="59.8790632" lon="17.628672">
        <ele>13.5958</ele>
        <time>2014-06-01T10:15:10Z</time>
      </trkpt>
      <trkpt lat="59.8790674" lon="17.6285675">
        <ele>13.1151</ele>
        <time>2014-06-01T10:15:11Z</time>
      </trkpt>
      <trkpt lat="59.8790658" lon="17.6284551">
        <ele>12.1538</ele>
        <time>2014-06-01T10:15:12Z</time>
      </trkpt>
      <trkpt lat="59.8790584" lon="17.6283375">
        <ele>11.1925</ele>
        <time>2014-06-01T10:15:13Z</time>
      </trkpt>
      <trkpt lat="59.8790533" lon="17.6282101">
        <ele>11.1925</ele>
        <time>2014-06-01T10:15:14Z</time>
      </trkpt>
      <trkpt lat="59.8790503" lon="17.6280463">
        <ele>10.7118</ele>
        <time>2014-06-01T10:15:15Z</time>
      </trkpt>
      <trkpt lat="59.8790538" lon="17.6278941">
        <ele>11.1925</ele>
        <time>2014-06-01T10:15:16Z</time>
      </trkpt>
      <trkpt lat="59.8790532" lon="17.627766">
        <ele>11.1925</ele>
        <time>2014-06-01T10:15:17Z</time>
      </trkpt>
      <trkpt lat="59.8790481" lon="17.6276434">
        <ele>11.1925</ele>
        <time>2014-06-01T10:15:18Z</time>
      </trkpt>
      <trkpt lat="59.8790527" lon="17.6275401">
        <ele>10.7118</ele>
        <time>2014-06-01T10:15:19Z</time>
      </trkpt>
      <trkpt lat="59.8790713" lon="17.6274433">
        <ele>10.7118</ele>
        <time>2014-06-01T10:15:20Z</time>
      </trkpt>
      <trkpt lat="59.879086" lon="17.6273382">
        <ele>10.2312</ele>
        <time>2014-06-01T10:15:21Z</time>
      </trkpt>
      <trkpt lat="59.8790973" lon="17.6272332">
        <ele>10.2312</ele>
        <time>2014-06-01T10:15:22Z</time>
      </trkpt>
      <trkpt lat="59.8790993" lon="17.6271294">
        <ele>11.1925</ele>
        <time>2014-06-01T10:15:23Z</time>
      </trkpt>
      <trkpt lat="59.879104" lon="17.6270345">
        <ele>11.1925</ele>
        <time>2014-06-01T10:15:24Z</time>
      </trkpt>
      <trkpt lat="59.8791114" lon="17.6269449">
        <ele>11.6732</ele>
        <time>2014-06-01T10:15:25Z</time>
      </trkpt>
      <trkpt lat="59.8791172" lon="17.6268637">
        <ele>12.1538</ele>
        <time>2014-06-01T10:15:26Z</time>
      </trkpt>
      <trkpt lat="59.8791141" lon="17.6267874">
        <ele>13.1151</ele>
        <time>2014-06-01T10:15:27Z</time>
      </trkpt>
      <trkpt lat="59.8791093" lon="17.626709">
        <ele>13.5958</ele>
        <time>2014-06-01T10:15:28Z</time>
      </trkpt>
      <trkpt lat="59.879101" lon="17.6266295">
        <ele>13.5958</ele>
        <time>2014-06-01T10:15:29Z</time>
      </trkpt>
      <trkpt lat="59.8790928" lon="17.6265466">
        <ele>13.5958</ele>
        <time>2014-06-01T10:15:30Z</time>
      </trkpt>
      <trkpt lat="59.8790858" lon="17.6264696">
        <ele>14.0764</ele>
        <time>2014-06-01T10:15:31Z</time>
      </trkpt>
      <trkpt lat="59.8790865" lon="17.6264143">
        <ele>14.557</ele>
        <time>2014-06-01T10:15:32Z</time>
      </trkpt>
      <trkpt lat="59.8790869" lon="17.6263814">
        <ele>14.557</ele>
        <time>2014-06-01T10:15:33Z</time>
      </trkpt>
      <trkpt lat="59.8790869" lon="17.6263648">
        <ele>15.5184</ele>
        <time>2014-06-01T10:15:34Z</time>
      </trkpt>
      <trkpt lat="59.8790872" lon="17.6263624">
        <ele>15.5184</ele>
        <time>2014-06-01T10:15:35Z</time>
      </trkpt>
      <trkpt lat="59.8790861" lon="17.6263665">
        <ele>15.5184</ele>
        <time>2014-06-01T10:15:36Z</time>
      </trkpt>
      <trkpt lat="59.8790596" lon="17.6262603">
        <ele>17.9218</ele>
        <time>2014-06-01T10:15:43Z</time>
      </trkpt>
      <trkpt lat="59.8790582" lon="17.6262209">
        <ele>18.4023</ele>
        <time>2014-06-01T10:15:44Z</time>
      </trkpt>
      <trkpt lat="59.8790611" lon="17.626181">
        <ele>18.4023</ele>
        <time>2014-06-01T10:15:45Z</time>
      </trkpt>
      <trkpt lat="59.8790658" lon="17.6261373">
        <ele>17.9218</ele>
        <time>2014-06-01T10:15:46Z</time>
      </trkpt>
      <trkpt lat="59.879071" lon="17.6260847">
        <ele>18.4023</ele>
        <time>2014-06-01T10:15:47Z</time>
      </trkpt>
      <trkpt lat="59.8790786" lon="17.6260272">
        <ele>18.4023</ele>
        <time>2014-06-01T10:15:48Z</time>
      </trkpt>
      <trkpt lat="59.8790902" lon="17.6259677">
        <ele>18.8831</ele>
        <time>2014-06-01T10:15:49Z</time>
      </trkpt>
      <trkpt lat="59.8791047" lon="17.6259075">
        <ele>18.8831</ele>
        <time>2014-06-01T10:15:50Z</time>
      </trkpt>
      <trkpt lat="59.8791221" lon="17.6258516">
        <ele>19.3638</ele>
        <time>2014-06-01T10:15:51Z</time>
      </trkpt>
      <trkpt lat="59.8791414" lon="17.6258014">
        <ele>19.8444</ele>
        <time>2014-06-01T10:15:52Z</time>
      </trkpt>
      <trkpt lat="59.8791637" lon="17.6257495">
        <ele>20.325</ele>
        <time>2014-06-01T10:15:53Z</time>
      </trkpt>
      <trkpt lat="59.8791885" lon="17.625695">
        <ele>20.8057</ele>
        <time>2014-06-01T10:15:54Z</time>
      </trkpt>
      <trkpt lat="59.8792125" lon="17.6256459">
        <ele>21.2864</ele>
        <time>2014-06-01T10:15:55Z</time>
      </trkpt>
      <trkpt lat="59.8792337" lon="17.6256066">
        <ele>21.767</ele>
        <time>2014-06-01T10:15:56Z</time>
      </trkpt>
      <trkpt lat="59.8792523" lon="17.6255785">
        <ele>22.2476</ele>
        <time>2014-06-01T10:15:57Z</time>
      </trkpt>
      <trkpt lat="59.8792688" lon="17.6255583">
        <ele>22.7283</ele>
        <time>2014-06-01T10:15:58Z</time>
      </trkpt>
      <trkpt lat="59.8792873" lon="17.6255403">
        <ele>22.7283</ele>
        <time>2014-06-01T10:15:59Z</time>
      </trkpt>
      <trkpt lat="59.8793119" lon="17.6255162">
        <ele>22.7283</ele>
        <time>2014-06-01T10:16:00Z</time>
      </trkpt>
      <trkpt lat="59.8793374" lon="17.6254683">
        <ele>23.209</ele>
        <time>2014-06-01T10:16:01Z</time>
      </trkpt>
      <trkpt lat="59.8793545" lon="17.6253958">
        <ele>23.6896</ele>
        <time>2014-06-01T10:16:02Z</time>
      </trkpt>
      <trkpt lat="59.8793579" lon="17.6253087">
        <ele>23.209</ele>
        <time>2014-06-01T10:16:03Z</time>
      </trkpt>
      <trkpt lat="59.8793554" lon="17.6252143">
        <ele>23.209</ele>
        <time>2014-06-01T10:16:04Z</time>
      </trkpt>
      <trkpt lat="59.8793523" lon="17.6251164">
        <ele>22.7283</ele>
        <time>2014-06-01T10:16:05Z</time>
      </trkpt>
      <trkpt lat="59.8793531" lon="17.625014">
        <ele>22.7283</ele>
        <time>2014-06-01T10:16:06Z</time>
      </trkpt>
      <trkpt lat="59.879356" lon="17.6249079">
        <ele>22.7283</ele>
        <time>2014-06-01T10:16:07Z</time>
      </trkpt>
      <trkpt lat="59.8793544" lon="17.6247994">
        <ele>23.209</ele>
        <time>2014-06-01T10:16:08Z</time>
      </trkpt>
      <trkpt lat="59.8793461" lon="17.6246888">
        <ele>23.209</ele>
        <time>2014-06-01T10:16:09Z</time>
      </trkpt>
      <trkpt lat="59.879336" lon="17.6245792">
        <ele>23.209</ele>
        <time>2014-06-01T10:16:10Z</time>
      </trkpt>
      <trkpt lat="59.8793253" lon="17.6244732">
        <ele>23.6896</ele>
        <time>2014-06-01T10:16:11Z</time>
      </trkpt>
      <trkpt lat="59.8793141" lon="17.6243664">
        <ele>23.6896</ele>
        <time>2014-06-01T10:16:12Z</time>
      </trkpt>
      <trkpt lat="59.8793037" lon="17.6242569">
        <ele>23.6896</ele>
        <time>2014-06-01T10:16:13Z</time>
      </trkpt>
      <trkpt lat="59.879292" lon="17.6241468">
        <ele>24.1703</ele>
        <time>2014-06-01T10:16:14Z</time>
      </trkpt>
      <trkpt lat="59.8792788" lon="17.624034">
        <ele>24.1703</ele>
        <time>2014-06-01T10:16:15Z</time>
      </trkpt>
      <trkpt lat="59.8792651" lon="17.6239189">
        <ele>24.1703</ele>
        <time>2014-06-01T10:16:16Z</time>
      </trkpt>
      <trkpt lat="59.8792501" lon="17.6238053">
        <ele>24.1703</ele>
        <time>2014-06-01T10:16:17Z</time>
      </trkpt>
      <trkpt lat="59.879235" lon="17.6236942">
        <ele>24.1703</ele>
        <time>2014-06-01T10:16:18Z</time>
      </trkpt>
      <trkpt lat="59.8792192" lon="17.6235874">
        <ele>24.1703</ele>
        <time>2014-06-01T10:16:19Z</time>
      </trkpt>
      <trkpt lat="59.879202" lon="17.623481">
        <ele>24.651</ele>
        <time>2014-06-01T10:16:20Z</time>
      </trkpt>
      <trkpt lat="59.8791859" lon="17.6233781">
        <ele>25.1317</ele>
        <time>2014-06-01T10:16:21Z</time>
      </trkpt>
      <trkpt lat="59.8791699" lon="17.6232798">
        <ele>25.1317</ele>
        <time>2014-06-01T10:16:22Z</time>
      </trkpt>
      <trkpt lat="59.8791558" lon="17.6231854">
        <ele>25.6123</ele>
        <time>2014-06-01T10:16:23Z</time>
      </trkpt>
      <trkpt lat="59.8791443" lon="17.6230937">
        <ele>25.6123</ele>
        <time>2014-06-01T10:16:24Z</time>
      </trkpt>
      <trkpt lat="59.8791343" lon="17.6230052">
        <ele>25.6123</ele>
        <time>2014-06-01T10:16:25Z</time>
      </trkpt>
      <trkpt lat="59.8791244" lon="17.6229207">
        <ele>26.0929</ele>
        <time>2014-06-01T10:16:26Z</time>
      </trkpt>
      <trkpt lat="59.8791125" lon="17.6228424">
        <ele>26.0929</ele>
        <time>2014-06-01T10:16:27Z</time>
      </trkpt>
      <trkpt lat="59.8791043" lon="17.6227658">
        <ele>26.5736</ele>
        <time>2014-06-01T10:16:28Z</time>
      </trkpt>
      <trkpt lat="59.8791016" lon="17.6226856">
        <ele>26.5736</ele>
        <time>2014-06-01T10:16:29Z</time>
      </trkpt>
      <trkpt lat="59.8791003" lon="17.6226036">
        <ele>26.5736</ele>
        <time>2014-06-01T10:16:30Z</time>
      </trkpt>
      <trkpt lat="59.8790968" lon="17.6225204">
        <ele>26.5736</ele>
        <time>2014-06-01T10:16:31Z</time>
      </trkpt>
      <trkpt lat="59.8790905" lon="17.622433">
        <ele>26.5736</ele>
        <time>2014-06-01T10:16:32Z</time>
      </trkpt>
      <trkpt lat="59.879084" lon="17.6223388">
        <ele>26.5736</ele>
        <time>2014-06-01T10:16:33Z</time>
      </trkpt>
      <trkpt lat="59.879086" lon="17.6222416">
        <ele>26.0929</ele>
        <time>2014-06-01T10:16:34Z</time>
      </trkpt>
      <trkpt lat="59.8791043" lon="17.6221432">
        <ele>26.0929</ele>
        <time>2014-06-01T10:16:35Z</time>
      </trkpt>
      <trkpt lat="59.8791399" lon="17.6220555">
        <ele>26.0929</ele>
        <time>2014-06-01T10:16:36Z</time>
      </trkpt>
      <trkpt lat="59.8791863" lon="17.6219816">
        <ele>26.0929</ele>
        <time>2014-06-01T10:16:37Z</time>
      </trkpt>
      <trkpt lat="59.879236" lon="17.6219102">
        <ele>25.6123</ele>
        <time>2014-06-01T10:16:38Z</time>
      </trkpt>
      <trkpt lat="59.8792869" lon="17.6218381">
        <ele>25.1317</ele>
        <time>2014-06-01T10:16:39Z</time>
      </trkpt>
      <trkpt lat="59.8793383" lon="17.6217649">
        <ele>25.1317</ele>
        <time>2014-06-01T10:16:40Z</time>
      </trkpt>
      <trkpt lat="59.8793891" lon="17.6216918">
        <ele>24.651</ele>
        <time>2014-06-01T10:16:41Z</time>
      </trkpt>
      <trkpt lat="59.8794378" lon="17.6216178">
        <ele>24.651</ele>
        <time>2014-06-01T10:16:42Z</time>
      </trkpt>
      <trkpt lat="59.8794862" lon="17.6215431">
        <ele>24.651</ele>
        <time>2014-06-01T10:16:43Z</time>
      </trkpt>
      <trkpt lat="59.8795352" lon="17.6214702">
        <ele>24.651</ele>
        <time>2014-06-01T10:16:44Z</time>
      </trkpt>
      <trkpt lat="59.8795833" lon="17.6214024">
        <ele>25.1317</ele>
        <time>2014-06-01T10:16:45Z</time>
      </trkpt>
      <trkpt lat="59.879632" lon="17.6213434">
        <ele>25.1317</ele>
        <time>2014-06-01T10:16:46Z</time>
      </trkpt>
      <trkpt lat="59.8796823" lon="17.6212895">
        <ele>25.1317</ele>
        <time>2014-06-01T10:16:47Z</time>
      </trkpt>
      <trkpt lat="59.8797268" lon="17.6212264">
        <ele>25.1317</ele>
        <time>2014-06-01T10:16:48Z</time>
      </trkpt>
      <trkpt lat="59.8797605" lon="17.621148">
        <ele>25.1317</ele>
        <time>2014-06-01T10:16:49Z</time>
      </trkpt>
      <trkpt lat="59.879776" lon="17.6210579">
        <ele>24.651</ele>
        <time>2014-06-01T10:16:50Z</time>
      </trkpt>
      <trkpt lat="59.8797672" lon="17.6209707">
        <ele>24.651</ele>
        <time>2014-06-01T10:16:51Z</time>
      </trkpt>
      <trkpt lat="59.8797437" lon="17.6208907">
        <ele>24.651</ele>
        <time>2014-06-01T10:16:52Z</time>
      </trkpt>
      <trkpt lat="59.8797178" lon="17.6208097">
        <ele>24.651</ele>
        <time>2014-06-01T10:16:53Z</time>
      </trkpt>
      <trkpt lat="59.8796973" lon="17.6207195">
        <ele>24.651</ele>
        <time>2014-06-01T10:16:54Z</time>
      </trkpt>
      <trkpt lat="59.8796853" lon="17.6206218">
        <ele>24.651</ele>
        <time>2014-06-01T10:16:55Z</time>
      </trkpt>
      <trkpt lat="59.8796727" lon="17.620526">
        <ele>24.651</ele>
        <time>2014-06-01T10:16:56Z</time>
      </trkpt>
      <trkpt lat="59.8796527" lon="17.6204327">
        <ele>24.651</ele>
        <time>2014-06-01T10:16:57Z</time>
      </trkpt>
      <trkpt lat="59.8796315" lon="17.6203388">
        <ele>24.651</ele>
        <time>2014-06-01T10:16:58Z</time>
      </trkpt>
      <trkpt lat="59.8796131" lon="17.620244">
        <ele>24.651</ele>
        <time>2014-06-01T10:16:59Z</time>
      </trkpt>
      <trkpt lat="59.8795957" lon="17.6201499">
        <ele>25.1317</ele>
        <time>2014-06-01T10:17:00Z</time>
      </trkpt>
      <trkpt lat="59.879579" lon="17.6200574">
        <ele>25.1317</ele>
        <time>2014-06-01T10:17:01Z</time>
      </trkpt>
      <trkpt lat="59.8795601" lon="17.6199644">
        <ele>25.1317</ele>
        <time>2014-06-01T10:17:02Z</time>
      </trkpt>
      <trkpt lat="59.8795373" lon="17.6198567">
        <ele>25.1317</ele>
        <time>2014-06-01T10:17:03Z</time>
      </trkpt>
      <trkpt lat="59.8795171" lon="17.6197646">
        <ele>25.1317</ele>
        <time>2014-06-01T10:17:04Z</time>
      </trkpt>
      <trkpt lat="59.8794978" lon="17.6196754">
        <ele>25.1317</ele>
        <time>2014-06-01T10:17:05Z</time>
      </trkpt>
      <trkpt lat="59.8794792" lon="17.6195897">
        <ele>24.651</ele>
        <time>2014-06-01T10:17:06Z</time>
      </trkpt>
      <trkpt lat="59.8794598" lon="17.6195055">
        <ele>24.651</ele>
        <time>2014-06-01T10:17:07Z</time>
      </trkpt>
      <trkpt lat="59.8794382" lon="17.6194172">
        <ele>24.1703</ele>
        <time>2014-06-01T10:17:08Z</time>
      </trkpt>
      <trkpt lat="59.8794153" lon="17.6193237">
        <ele>24.1703</ele>
        <time>2014-06-01T10:17:09Z</time>
      </trkpt>
      <trkpt lat="59.8793907" lon="17.6192319">
        <ele>23.6896</ele>
        <time>2014-06-01T10:17:10Z</time>
      </trkpt>
      <trkpt lat="59.8793629" lon="17.6191444">
        <ele>23.6896</ele>
        <time>2014-06-01T10:17:11Z</time>
      </trkpt>
      <trkpt lat="59.8793362" lon="17.6190558">
        <ele>23.6896</ele>
        <time>2014-06-01T10:17:12Z</time>
      </trkpt>
      <trkpt lat="59.8793145" lon="17.618963">
        <ele>23.209</ele>
        <time>2014-06-01T10:17:13Z</time>
      </trkpt>
      <trkpt lat="59.8792993" lon="17.6188696">
        <ele>23.209</ele>
        <time>2014-06-01T10:17:14Z</time>
      </trkpt>
      <trkpt lat="59.8792915" lon="17.6187704">
        <ele>23.209</ele>
        <time>2014-06-01T10:17:15Z</time>
      </trkpt>
      <trkpt lat="59.8792979" lon="17.6186746">
        <ele>23.209</ele>
        <time>2014-06-01T10:17:16Z</time>
      </trkpt>
      <trkpt lat="59.879314" lon="17.618586">
        <ele>23.209</ele>
        <time>2014-06-01T10:17:17Z</time>
      </trkpt>
      <trkpt lat="59.8793278" lon="17.6184964">
        <ele>23.209</ele>
        <time>2014-06-01T10:17:18Z</time>
      </trkpt>
      <trkpt lat="59.8793269" lon="17.6184056">
        <ele>22.7283</ele>
        <time>2014-06-01T10:17:19Z</time>
      </trkpt>
      <trkpt lat="59.879315" lon="17.6183053">
        <ele>22.2476</ele>
        <time>2014-06-01T10:17:20Z</time>
      </trkpt>
      <trkpt lat="59.8792975" lon="17.618199">
        <ele>21.767</ele>
        <time>2014-06-01T10:17:21Z</time>
      </trkpt>
      <trkpt lat="59.879276" lon="17.6180943">
        <ele>21.767</ele>
        <time>2014-06-01T10:17:22Z</time>
      </trkpt>
      <trkpt lat="59.8792513" lon="17.6179887">
        <ele>21.2864</ele>
        <time>2014-06-01T10:17:23Z</time>
      </trkpt>
      <trkpt lat="59.8792241" lon="17.6178826">
        <ele>21.2864</ele>
        <time>2014-06-01T10:17:24Z</time>
      </trkpt>
      <trkpt lat="59.8791956" lon="17.6177747">
        <ele>21.2864</ele>
        <time>2014-06-01T10:17:25Z</time>
      </trkpt>
      <trkpt lat="59.8791694" lon="17.6176673">
        <ele>21.2864</ele>
        <time>2014-06-01T10:17:26Z</time>
      </trkpt>
      <trkpt lat="59.8791454" lon="17.6175598">
        <ele>21.2864</ele>
        <time>2014-06-01T10:17:27Z</time>
      </trkpt>
      <trkpt lat="59.8791301" lon="17.6174477">
        <ele>21.767</ele>
        <time>2014-06-01T10:17:28Z</time>
      </trkpt>
      <trkpt lat="59.8791324" lon="17.6173329">
        <ele>21.767</ele>
        <time>2014-06-01T10:17:29Z</time>
      </trkpt>
      <trkpt lat="59.8791503" lon="17.6172262">
        <ele>21.767</ele>
        <time>2014-06-01T10:17:30Z</time>
      </trkpt>
      <trkpt lat="59.8791786" lon="17.6171323">
        <ele>21.767</ele>
        <time>2014-06-01T10:17:31Z</time>
      </trkpt>
      <trkpt lat="59.8792114" lon="17.6170485">
        <ele>21.767</ele>
        <time>2014-06-01T10:17:32Z</time>
      </trkpt>
      <trkpt lat="59.879247" lon="17.6169707">
        <ele>21.767</ele>
        <time>2014-06-01T10:17:33Z</time>
      </trkpt>
      <trkpt lat="59.8792821" lon="17.6168946">
        <ele>21.767</ele>
        <time>2014-06-01T10:17:34Z</time>
      </trkpt>
      <trkpt lat="59.8793165" lon="17.6168192">
        <ele>21.767</ele>
        <time>2014-06-01T10:17:35Z</time>
      </trkpt>
      <trkpt lat="59.8793528" lon="17.6167475">
        <ele>21.767</ele>
        <time>2014-06-01T10:17:36Z</time>
      </trkpt>
      <trkpt lat="59.8793894" lon="17.6166785">
        <ele>21.767</ele>
        <time>2014-06-01T10:17:37Z</time>
      </trkpt>
      <trkpt lat="59.8794251" lon="17.6166099">
        <ele>21.767</ele>
        <time>2014-06-01T10:17:38Z</time>
      </trkpt>
      <trkpt lat="59.87946" lon="17.616542">
        <ele>21.767</ele>
        <time>2014-06-01T10:17:39Z</time>
      </trkpt>
      <trkpt lat="59.8794937" lon="17.6164731">
        <ele>21.767</ele>
        <time>2014-06-01T10:17:40Z</time>
      </trkpt>
      <trkpt lat="59.8795253" lon="17.6164041">
        <ele>21.2864</ele>
        <time>2014-06-01T10:17:41Z</time>
      </trkpt>
      <trkpt lat="59.8795538" lon="17.6163355">
        <ele>21.2864</ele>
        <time>2014-06-01T10:17:42Z</time>
      </trkpt>
      <trkpt lat="59.8795777" lon="17.6162679">
        <ele>20.8057</ele>
        <time>2014-06-01T10:17:43Z</time>
      </trkpt>
      <trkpt lat="59.8795893" lon="17.616196">
        <ele>20.8057</ele>
        <time>2014-06-01T10:17:44Z</time>
      </trkpt>
      <trkpt lat="59.8795855" lon="17.6161166">
        <ele>20.325</ele>
        <time>2014-06-01T10:17:45Z</time>
      </trkpt>
      <trkpt lat="59.8795798" lon="17.6160338">
        <ele>20.325</ele>
        <time>2014-06-01T10:17:46Z</time>
      </trkpt>
      <trkpt lat="59.8795674" lon="17.6159471">
        <ele>19.8444</ele>
        <time>2014-06-01T10:17:47Z</time>
      </trkpt>
      <trkpt lat="59.8795444" lon="17.6158529">
        <ele>19.8444</ele>
        <time>2014-06-01T10:17:48Z</time>
      </trkpt>
      <trkpt lat="59.8795182" lon="17.6157525">
        <ele>19.8444</ele>
        <time>2014-06-01T10:17:49Z</time>
      </trkpt>
      <trkpt lat="59.8794919" lon="17.6156469">
        <ele>19.8444</ele>
        <time>2014-06-01T10:17:50Z</time>
      </trkpt>
      <trkpt lat="59.8794647" lon="17.615537">
        <ele>19.8444</ele>
        <time>2014-06-01T10:17:51Z</time>
      </trkpt>
      <trkpt lat="59.8794372" lon="17.6154244">
        <ele>19.8444</ele>
        <time>2014-06-01T10:17:52Z</time>
      </trkpt>
      <trkpt lat="59.8794092" lon="17.6153085">
        <ele>19.3638</ele>
        <time>2014-06-01T10:17:53Z</time>
      </trkpt>
      <trkpt lat="59.8793829" lon="17.6151902">
        <ele>19.3638</ele>
        <time>2014-06-01T10:17:54Z</time>
      </trkpt>
      <trkpt lat="59.8793539" lon="17.6150706">
        <ele>18.8831</ele>
        <time>2014-06-01T10:17:55Z</time>
      </trkpt>
      <trkpt lat="59.8793238" lon="17.6149501">
        <ele>18.8831</ele>
        <time>2014-06-01T10:17:56Z</time>
      </trkpt>
      <trkpt lat="59.8792939" lon="17.6148284">
        <ele>18.8831</ele>
        <time>2014-06-01T10:17:57Z</time>
      </trkpt>
      <trkpt lat="59.8792627" lon="17.6147067">
        <ele>18.4023</ele>
        <time>2014-06-01T10:17:58Z</time>
      </trkpt>
      <trkpt lat="59.8792237" lon="17.6145699">
        <ele>18.4023</ele>
        <time>2014-06-01T10:17:59Z</time>
      </trkpt>
      <trkpt lat="59.8791896" lon="17.6144424">
        <ele>17.9218</ele>
        <time>2014-06-01T10:18:00Z</time>
      </trkpt>
      <trkpt lat="59.8791596" lon="17.614317">
        <ele>17.9218</ele>
        <time>2014-06-01T10:18:01Z</time>
      </trkpt>
      <trkpt lat="59.8791285" lon="17.6141941">
        <ele>17.9218</ele>
        <time>2014-06-01T10:18:02Z</time>
      </trkpt>
      <trkpt lat="59.8790979" lon="17.6140685">
        <ele>17.9218</ele>
        <time>2014-06-01T10:18:03Z</time>
      </trkpt>
      <trkpt lat="59.8790709" lon="17.613944">
        <ele>18.4023</ele>
        <time>2014-06-01T10:18:04Z</time>
      </trkpt>
      <trkpt lat="59.8790428" lon="17.6138168">
        <ele>18.4023</ele>
        <time>2014-06-01T10:18:05Z</time>
      </trkpt>
      <trkpt lat="59.8790109" lon="17.6136956">
        <ele>18.8831</ele>
        <time>2014-06-01T10:18:06Z</time>
      </trkpt>
      <trkpt lat="59.8789767" lon="17.6135751">
        <ele>18.8831</ele>
        <time>2014-06-01T10:18:07Z</time>
      </trkpt>
      <trkpt lat="59.8789421" lon="17.6134524">
        <ele>18.8831</ele>
        <time>2014-06-01T10:18:08Z</time>
      </trkpt>
      <trkpt lat="59.8789073" lon="17.6133301">
        <ele>19.3638</ele>
        <time>2014-06-01T10:18:09Z</time>
      </trkpt>
      <trkpt lat="59.878872" lon="17.6132096">
        <ele>19.3638</ele>
        <time>2014-06-01T10:18:10Z</time>
      </trkpt>
      <trkpt lat="59.8788367" lon="17.6130895">
        <ele>19.3638</ele>
        <time>2014-06-01T10:18:11Z</time>
      </trkpt>
      <trkpt lat="59.878801" lon="17.6129696">
        <ele>19.3638</ele>
        <time>2014-06-01T10:18:12Z</time>
      </trkpt>
      <trkpt lat="59.8787641" lon="17.6128502">
        <ele>19.3638</ele>
        <time>2014-06-01T10:18:13Z</time>
      </trkpt>
      <trkpt lat="59.8787264" lon="17.6127304">
        <ele>19.3638</ele>
        <time>2014-06-01T10:18:14Z</time>
      </trkpt>
      <trkpt lat="59.878689" lon="17.612609">
        <ele>19.3638</ele>
        <time>2014-06-01T10:18:15Z</time>
      </trkpt>
      <trkpt lat="59.8786508" lon="17.6124884">
        <ele>19.3638</ele>
        <time>2014-06-01T10:18:16Z</time>
      </trkpt>
      <trkpt lat="59.8786121" lon="17.6123695">
        <ele>19.3638</ele>
        <time>2014-06-01T10:18:17Z</time>
      </trkpt>
      <trkpt lat="59.8785749" lon="17.6122513">
        <ele>19.8444</ele>
        <time>2014-06-01T10:18:18Z</time>
      </trkpt>
      <trkpt lat="59.87854" lon="17.6121345">
        <ele>19.8444</ele>
        <time>2014-06-01T10:18:19Z</time>
      </trkpt>
      <trkpt lat="59.878507" lon="17.6120182">
        <ele>19.8444</ele>
        <time>2014-06-01T10:18:20Z</time>
      </trkpt>
      <trkpt lat="59.8784749" lon="17.6119047">
        <ele>19.8444</ele>
        <time>2014-06-01T10:18:21Z</time>
      </trkpt>
      <trkpt lat="59.8784425" lon="17.6117944">
        <ele>19.8444</ele>
        <time>2014-06-01T10:18:22Z</time>
      </trkpt>
      <trkpt lat="59.8784091" lon="17.611688">
        <ele>20.325</ele>
        <time>2014-06-01T10:18:23Z</time>
      </trkpt>
      <trkpt lat="59.8783735" lon="17.6115881">
        <ele>20.325</ele>
        <time>2014-06-01T10:18:24Z</time>
      </trkpt>
      <trkpt lat="59.8783352" lon="17.6114954">
        <ele>20.325</ele>
        <time>2014-06-01T10:18:25Z</time>
      </trkpt>
      <trkpt lat="59.8782941" lon="17.6114142">
        <ele>20.325</ele>
        <time>2014-06-01T10:18:26Z</time>
      </trkpt>
      <trkpt lat="59.87825" lon="17.6113478">
        <ele>20.325</ele>
        <time>2014-06-01T10:18:27Z</time>
      </trkpt>
      <trkpt lat="59.8782029" lon="17.611292">
        <ele>20.325</ele>
        <time>2014-06-01T10:18:28Z</time>
      </trkpt>
      <trkpt lat="59.8781547" lon="17.6112364">
        <ele>20.325</ele>
        <time>2014-06-01T10:18:29Z</time>
      </trkpt>
      <trkpt lat="59.8781076" lon="17.6111707">
        <ele>20.325</ele>
        <time>2014-06-01T10:18:30Z</time>
      </trkpt>
      <trkpt lat="59.8780629" lon="17.6110956">
        <ele>20.325</ele>
        <time>2014-06-01T10:18:31Z</time>
      </trkpt>
      <trkpt lat="59.8780215" lon="17.6110169">
        <ele>20.325</ele>
        <time>2014-06-01T10:18:32Z</time>
      </trkpt>
      <trkpt lat="59.8779853" lon="17.6109385">
        <ele>20.325</ele>
        <time>2014-06-01T10:18:33Z</time>
      </trkpt>
      <trkpt lat="59.8779532" lon="17.6108626">
        <ele>19.8444</ele>
        <time>2014-06-01T10:18:34Z</time>
      </trkpt>
      <trkpt lat="59.8779241" lon="17.6107868">
        <ele>19.8444</ele>
        <time>2014-06-01T10:18:35Z</time>
      </trkpt>
      <trkpt lat="59.8778956" lon="17.610708">
        <ele>19.3638</ele>
        <time>2014-06-01T10:18:36Z</time>
      </trkpt>
      <trkpt lat="59.8778666" lon="17.6106227">
        <ele>19.3638</ele>
        <time>2014-06-01T10:18:37Z</time>
      </trkpt>
      <trkpt lat="59.8778366" lon="17.6105304">
        <ele>18.8831</ele>
        <time>2014-06-01T10:18:38Z</time>
      </trkpt>
      <trkpt lat="59.877805" lon="17.6104335">
        <ele>18.4023</ele>
        <time>2014-06-01T10:18:39Z</time>
      </trkpt>
      <trkpt lat="59.8777727" lon="17.6103315">
        <ele>17.9218</ele>
        <time>2014-06-01T10:18:40Z</time>
      </trkpt>
      <trkpt lat="59.8777393" lon="17.6102222">
        <ele>17.4412</ele>
        <time>2014-06-01T10:18:41Z</time>
      </trkpt>
      <trkpt lat="59.8777055" lon="17.610106">
        <ele>16.9604</ele>
        <time>2014-06-01T10:18:42Z</time>
      </trkpt>
      <trkpt lat="59.8776702" lon="17.6099844">
        <ele>16.4797</ele>
        <time>2014-06-01T10:18:43Z</time>
      </trkpt>
      <trkpt lat="59.8776325" lon="17.6098581">
        <ele>15.999</ele>
        <time>2014-06-01T10:18:44Z</time>
      </trkpt>
      <trkpt lat="59.8775931" lon="17.6097285">
        <ele>15.5184</ele>
        <time>2014-06-01T10:18:45Z</time>
      </trkpt>
      <trkpt lat="59.8775557" lon="17.6095949">
        <ele>15.0377</ele>
        <time>2014-06-01T10:18:46Z</time>
      </trkpt>
      <trkpt lat="59.8775199" lon="17.609445">
        <ele>14.557</ele>
        <time>2014-06-01T10:18:47Z</time>
      </trkpt>
      <trkpt lat="59.8774812" lon="17.6093048">
        <ele>14.0764</ele>
        <time>2014-06-01T10:18:48Z</time>
      </trkpt>
      <trkpt lat="59.8774418" lon="17.6091645">
        <ele>14.0764</ele>
        <time>2014-06-01T10:18:49Z</time>
      </trkpt>
      <trkpt lat="59.8773999" lon="17.6090223">
        <ele>13.5958</ele>
        <time>2014-06-01T10:18:50Z</time>
      </trkpt>
      <trkpt lat="59.8773555" lon="17.6088772">
        <ele>13.5958</ele>
        <time>2014-06-01T10:18:51Z</time>
      </trkpt>
      <trkpt lat="59.8773087" lon="17.6087303">
        <ele>13.1151</ele>
        <time>2014-06-01T10:18:52Z</time>
      </trkpt>
      <trkpt lat="59.87726" lon="17.6085814">
        <ele>13.1151</ele>
        <time>2014-06-01T10:18:53Z</time>
      </trkpt>
      <trkpt lat="59.8772111" lon="17.6084288">
        <ele>12.6344</ele>
        <time>2014-06-01T10:18:54Z</time>
      </trkpt>
      <trkpt lat="59.8771632" lon="17.6082732">
        <ele>12.6344</ele>
        <time>2014-06-01T10:18:55Z</time>
      </trkpt>
      <trkpt lat="59.8771156" lon="17.6081154">
        <ele>12.1538</ele>
        <time>2014-06-01T10:18:56Z</time>
      </trkpt>
      <trkpt lat="59.877068" lon="17.6079553">
        <ele>12.1538</ele>
        <time>2014-06-01T10:18:57Z</time>
      </trkpt>
      <trkpt lat="59.8770197" lon="17.6077923">
        <ele>12.1538</ele>
        <time>2014-06-01T10:18:58Z</time>
      </trkpt>
      <trkpt lat="59.8769703" lon="17.6076269">
        <ele>11.6732</ele>
        <time>2014-06-01T10:18:59Z</time>
      </trkpt>
      <trkpt lat="59.8769206" lon="17.6074601">
        <ele>11.6732</ele>
        <time>2014-06-01T10:19:00Z</time>
      </trkpt>
      <trkpt lat="59.8768694" lon="17.6072934">
        <ele>11.6732</ele>
        <time>2014-06-01T10:19:01Z</time>
      </trkpt>
      <trkpt lat="59.876817" lon="17.6071271">
        <ele>11.1925</ele>
        <time>2014-06-01T10:19:02Z</time>
      </trkpt>
      <trkpt lat="59.8767669" lon="17.6069608">
        <ele>11.1925</ele>
        <time>2014-06-01T10:19:03Z</time>
      </trkpt>
      <trkpt lat="59.8767197" lon="17.6067987">
        <ele>11.1925</ele>
        <time>2014-06-01T10:19:04Z</time>
      </trkpt>
      <trkpt lat="59.8766716" lon="17.6066427">
        <ele>11.1925</ele>
        <time>2014-06-01T10:19:05Z</time>
      </trkpt>
      <trkpt lat="59.8766244" lon="17.6064914">
        <ele>11.1925</ele>
        <time>2014-06-01T10:19:06Z</time>
      </trkpt>
      <trkpt lat="59.8765784" lon="17.6063453">
        <ele>10.7118</ele>
        <time>2014-06-01T10:19:07Z</time>
      </trkpt>
      <trkpt lat="59.8765312" lon="17.6061991">
        <ele>10.7118</ele>
        <time>2014-06-01T10:19:08Z</time>
      </trkpt>
      <trkpt lat="59.8764829" lon="17.6060683">
        <ele>10.7118</ele>
        <time>2014-06-01T10:19:09Z</time>
      </trkpt>
      <trkpt lat="59.8764343" lon="17.6059429">
        <ele>10.7118</ele>
        <time>2014-06-01T10:19:10Z</time>
      </trkpt>
      <trkpt lat="59.8763844" lon="17.6058439">
        <ele>11.1925</ele>
        <time>2014-06-01T10:19:11Z</time>
      </trkpt>
      <trkpt lat="59.87634" lon="17.6057405">
        <ele>11.1925</ele>
        <time>2014-06-01T10:19:12Z</time>
      </trkpt>
      <trkpt lat="59.8762922" lon="17.6056429">
        <ele>11.1925</ele>
        <time>2014-06-01T10:19:13Z</time>
      </trkpt>
      <trkpt lat="59.87625" lon="17.6055526">
        <ele>11.1925</ele>
        <time>2014-06-01T10:19:14Z</time>
      </trkpt>
      <trkpt lat="59.8762152" lon="17.6054829">
        <ele>11.1925</ele>
        <time>2014-06-01T10:19:15Z</time>
      </trkpt>
      <trkpt lat="59.876185" lon="17.6054352">
        <ele>10.7118</ele>
        <time>2014-06-01T10:19:16Z</time>
      </trkpt>
      <trkpt lat="59.8761451" lon="17.6054736">
        <ele>10.7118</ele>
        <time>2014-06-01T10:19:17Z</time>
      </trkpt>
      <trkpt lat="59.8761114" lon="17.6055146">
        <ele>11.1925</ele>
        <time>2014-06-01T10:19:18Z</time>
      </trkpt>
      <trkpt lat="59.8760799" lon="17.6055833">
        <ele>10.7118</ele>
        <time>2014-06-01T10:19:19Z</time>
      </trkpt>
      <trkpt lat="59.8760422" lon="17.6056575">
        <ele>10.7118</ele>
        <time>2014-06-01T10:19:20Z</time>
      </trkpt>
      <trkpt lat="59.8759987" lon="17.6057357">
        <ele>10.2312</ele>
        <time>2014-06-01T10:19:21Z</time>
      </trkpt>
      <trkpt lat="59.8759474" lon="17.6058098">
        <ele>10.2312</ele>
        <time>2014-06-01T10:19:22Z</time>
      </trkpt>
      <trkpt lat="59.8758923" lon="17.6058823">
        <ele>9.75061</ele>
        <time>2014-06-01T10:19:23Z</time>
      </trkpt>
      <trkpt lat="59.8758374" lon="17.6059626">
        <ele>9.2699</ele>
        <time>2014-06-01T10:19:24Z</time>
      </trkpt>
      <trkpt lat="59.8757833" lon="17.606052">
        <ele>9.2699</ele>
        <time>2014-06-01T10:19:25Z</time>
      </trkpt>
      <trkpt lat="59.8757304" lon="17.6061458">
        <ele>9.2699</ele>
        <time>2014-06-01T10:19:26Z</time>
      </trkpt>
      <trkpt lat="59.8756815" lon="17.6062392">
        <ele>8.78918</ele>
        <time>2014-06-01T10:19:27Z</time>
      </trkpt>
      <trkpt lat="59.8756325" lon="17.6063327">
        <ele>8.78918</ele>
        <time>2014-06-01T10:19:28Z</time>
      </trkpt>
      <trkpt lat="59.8755895" lon="17.6064571">
        <ele>8.78918</ele>
        <time>2014-06-01T10:19:31Z</time>
      </trkpt>
      <trkpt lat="59.8755409" lon="17.6065498">
        <ele>8.78918</ele>
        <time>2014-06-01T10:19:32Z</time>
      </trkpt>
      <trkpt lat="59.8754916" lon="17.6066444">
        <ele>8.78918</ele>
        <time>2014-06-01T10:19:33Z</time>
      </trkpt>
      <trkpt lat="59.8754464" lon="17.6067438">
        <ele>8.78918</ele>
        <time>2014-06-01T10:19:34Z</time>
      </trkpt>
      <trkpt lat="59.8754065" lon="17.6068463">
        <ele>9.2699</ele>
        <time>2014-06-01T10:19:35Z</time>
      </trkpt>
      <trkpt lat="59.8753749" lon="17.606952">
        <ele>9.2699</ele>
        <time>2014-06-01T10:19:36Z</time>
      </trkpt>
      <trkpt lat="59.8753497" lon="17.6070592">
        <ele>9.75061</ele>
        <time>2014-06-01T10:19:37Z</time>
      </trkpt>
      <trkpt lat="59.8753222" lon="17.6071581">
        <ele>9.75061</ele>
        <time>2014-06-01T10:19:38Z</time>
      </trkpt>
      <trkpt lat="59.8752905" lon="17.6072467">
        <ele>10.2312</ele>
        <time>2014-06-01T10:19:39Z</time>
      </trkpt>
      <trkpt lat="59.8752559" lon="17.6073273">
        <ele>10.7118</ele>
        <time>2014-06-01T10:19:40Z</time>
      </trkpt>
      <trkpt lat="59.8752201" lon="17.6073995">
        <ele>10.7118</ele>
        <time>2014-06-01T10:19:41Z</time>
      </trkpt>
      <trkpt lat="59.8751813" lon="17.6074644">
        <ele>10.7118</ele>
        <time>2014-06-01T10:19:42Z</time>
      </trkpt>
      <trkpt lat="59.8751403" lon="17.6075249">
        <ele>11.1925</ele>
        <time>2014-06-01T10:19:43Z</time>
      </trkpt>
      <trkpt lat="59.8750998" lon="17.6075849">
        <ele>11.1925</ele>
        <time>2014-06-01T10:19:44Z</time>
      </trkpt>
      <trkpt lat="59.8750595" lon="17.6076454">
        <ele>11.1925</ele>
        <time>2014-06-01T10:19:45Z</time>
      </trkpt>
      <trkpt lat="59.8750176" lon="17.6077041">
        <ele>11.1925</ele>
        <time>2014-06-01T10:19:46Z</time>
      </trkpt>
      <trkpt lat="59.8749718" lon="17.6077575">
        <ele>11.1925</ele>
        <time>2014-06-01T10:19:47Z</time>
      </trkpt>
      <trkpt lat="59.8749224" lon="17.6078046">
        <ele>10.7118</ele>
        <time>2014-06-01T10:19:48Z</time>
      </trkpt>
      <trkpt lat="59.8748699" lon="17.6078415">
        <ele>10.7118</ele>
        <time>2014-06-01T10:19:49Z</time>
      </trkpt>
      <trkpt lat="59.874814" lon="17.6078781">
        <ele>11.1925</ele>
        <time>2014-06-01T10:19:50Z</time>
      </trkpt>
      <trkpt lat="59.8747553" lon="17.6079195">
        <ele>11.1925</ele>
        <time>2014-06-01T10:19:51Z</time>
      </trkpt>
      <trkpt lat="59.8746959" lon="17.60796">
        <ele>11.1925</ele>
        <time>2014-06-01T10:19:52Z</time>
      </trkpt>
      <trkpt lat="59.8746369" lon="17.6079956">
        <ele>11.1925</ele>
        <time>2014-06-01T10:19:53Z</time>
      </trkpt>
      <trkpt lat="59.8745777" lon="17.6080292">
        <ele>11.1925</ele>
        <time>2014-06-01T10:19:54Z</time>
      </trkpt>
      <trkpt lat="59.8745187" lon="17.6080619">
        <ele>11.6732</ele>
        <time>2014-06-01T10:19:55Z</time>
      </trkpt>
      <trkpt lat="59.874458" lon="17.6080954">
        <ele>11.6732</ele>
        <time>2014-06-01T10:19:56Z</time>
      </trkpt>
      <trkpt lat="59.8743966" lon="17.6081287">
        <ele>11.6732</ele>
        <time>2014-06-01T10:19:57Z</time>
      </trkpt>
      <trkpt lat="59.8743342" lon="17.6081616">
        <ele>12.1538</ele>
        <time>2014-06-01T10:19:58Z</time>
      </trkpt>
      <trkpt lat="59.874271" lon="17.6081947">
        <ele>12.1538</ele>
        <time>2014-06-01T10:19:59Z</time>
      </trkpt>
      <trkpt lat="59.8742079" lon="17.6082262">
        <ele>12.6344</ele>
        <time>2014-06-01T10:20:00Z</time>
      </trkpt>
      <trkpt lat="59.8741458" lon="17.6082584">
        <ele>12.6344</ele>
        <time>2014-06-01T10:20:01Z</time>
      </trkpt>
      <trkpt lat="59.874084" lon="17.6082916">
        <ele>12.6344</ele>
        <time>2014-06-01T10:20:02Z</time>
      </trkpt>
      <trkpt lat="59.8740204" lon="17.608319">
        <ele>12.6344</ele>
        <time>2014-06-01T10:20:03Z</time>
      </trkpt>
      <trkpt lat="59.8739576" lon="17.6083392">
        <ele>13.1151</ele>
        <time>2014-06-01T10:20:04Z</time>
      </trkpt>
      <trkpt lat="59.8738976" lon="17.6083651">
        <ele>13.1151</ele>
        <time>2014-06-01T10:20:05Z</time>
      </trkpt>
      <trkpt lat="59.8738404" lon="17.608404">
        <ele>13.1151</ele>
        <time>2014-06-01T10:20:06Z</time>
      </trkpt>
      <trkpt lat="59.8737856" lon="17.6084571">
        <ele>13.1151</ele>
        <time>2014-06-01T10:20:07Z</time>
      </trkpt>
      <trkpt lat="59.8737315" lon="17.6085184">
        <ele>13.1151</ele>
        <time>2014-06-01T10:20:08Z</time>
      </trkpt>
      <trkpt lat="59.8736779" lon="17.6085836">
        <ele>13.1151</ele>
        <time>2014-06-01T10:20:09Z</time>
      </trkpt>
      <trkpt lat="59.8736261" lon="17.6086529">
        <ele>13.1151</ele>
        <time>2014-06-01T10:20:10Z</time>
      </trkpt>
      <trkpt lat="59.8735719" lon="17.6087154">
        <ele>13.1151</ele>
        <time>2014-06-01T10:20:11Z</time>
      </trkpt>
      <trkpt lat="59.8735155" lon="17.6087677">
        <ele>13.1151</ele>
        <time>2014-06-01T10:20:12Z</time>
      </trkpt>
      <trkpt lat="59.873461" lon="17.6088192">
        <ele>13.1151</ele>
        <time>2014-06-01T10:20:13Z</time>
      </trkpt>
      <trkpt lat="59.8734084" lon="17.6088692">
        <ele>13.1151</ele>
        <time>2014-06-01T10:20:14Z</time>
      </trkpt>
      <trkpt lat="59.8733577" lon="17.6089199">
        <ele>13.1151</ele>
        <time>2014-06-01T10:20:15Z</time>
      </trkpt>
      <trkpt lat="59.8733082" lon="17.6089687">
        <ele>12.6344</ele>
        <time>2014-06-01T10:20:16Z</time>
      </trkpt>
      <trkpt lat="59.8732582" lon="17.6090101">
        <ele>12.1538</ele>
        <time>2014-06-01T10:20:17Z</time>
      </trkpt>
      <trkpt lat="59.8732076" lon="17.6090463">
        <ele>11.6732</ele>
        <time>2014-06-01T10:20:18Z</time>
      </trkpt>
      <trkpt lat="59.8731574" lon="17.6090831">
        <ele>11.1925</ele>
        <time>2014-06-01T10:20:19Z</time>
      </trkpt>
      <trkpt lat="59.8731065" lon="17.6091261">
        <ele>10.7118</ele>
        <time>2014-06-01T10:20:20Z</time>
      </trkpt>
      <trkpt lat="59.8730541" lon="17.6091717">
        <ele>10.2312</ele>
        <time>2014-06-01T10:20:21Z</time>
      </trkpt>
      <trkpt lat="59.8730004" lon="17.6092205">
        <ele>9.75061</ele>
        <time>2014-06-01T10:20:22Z</time>
      </trkpt>
      <trkpt lat="59.8729482" lon="17.6092773">
        <ele>9.75061</ele>
        <time>2014-06-01T10:20:23Z</time>
      </trkpt>
      <trkpt lat="59.8729025" lon="17.6093519">
        <ele>9.75061</ele>
        <time>2014-06-01T10:20:24Z</time>
      </trkpt>
      <trkpt lat="59.8728683" lon="17.6094462">
        <ele>10.2312</ele>
        <time>2014-06-01T10:20:25Z</time>
      </trkpt>
      <trkpt lat="59.8728431" lon="17.6095507">
        <ele>9.75061</ele>
        <time>2014-06-01T10:20:26Z</time>
      </trkpt>
      <trkpt lat="59.8728172" lon="17.6096613">
        <ele>9.75061</ele>
        <time>2014-06-01T10:20:27Z</time>
      </trkpt>
      <trkpt lat="59.8727858" lon="17.6097641">
        <ele>9.75061</ele>
        <time>2014-06-01T10:20:28Z</time>
      </trkpt>
      <trkpt lat="59.8727461" lon="17.6098587">
        <ele>9.75061</ele>
        <time>2014-06-01T10:20:29Z</time>
      </trkpt>
      <trkpt lat="59.8727019" lon="17.6099455">
        <ele>9.75061</ele>
        <time>2014-06-01T10:20:30Z</time>
      </trkpt>
      <trkpt lat="59.8726553" lon="17.6100306">
        <ele>9.75061</ele>
        <time>2014-06-01T10:20:31Z</time>
      </trkpt>
      <trkpt lat="59.8726069" lon="17.6101144">
        <ele>9.2699</ele>
        <time>2014-06-01T10:20:32Z</time>
      </trkpt>
      <trkpt lat="59.8725574" lon="17.6101935">
        <ele>9.2699</ele>
        <time>2014-06-01T10:20:33Z</time>
      </trkpt>
      <trkpt lat="59.8725076" lon="17.6102715">
        <ele>9.2699</ele>
        <time>2014-06-01T10:20:34Z</time>
      </trkpt>
      <trkpt lat="59.8724584" lon="17.6103515">
        <ele>9.2699</ele>
        <time>2014-06-01T10:20:35Z</time>
      </trkpt>
      <trkpt lat="59.8724099" lon="17.610432">
        <ele>9.2699</ele>
        <time>2014-06-01T10:20:36Z</time>
      </trkpt>
      <trkpt lat="59.8723623" lon="17.6105112">
        <ele>8.78918</ele>
        <time>2014-06-01T10:20:37Z</time>
      </trkpt>
      <trkpt lat="59.8723162" lon="17.6105951">
        <ele>8.78918</ele>
        <time>2014-06-01T10:20:38Z</time>
      </trkpt>
      <trkpt lat="59.8722715" lon="17.610683">
        <ele>8.78918</ele>
        <time>2014-06-01T10:20:39Z</time>
      </trkpt>
      <trkpt lat="59.8722259" lon="17.6107723">
        <ele>8.78918</ele>
        <time>2014-06-01T10:20:40Z</time>
      </trkpt>
      <trkpt lat="59.8721773" lon="17.6108589">
        <ele>8.78918</ele>
        <time>2014-06-01T10:20:41Z</time>
      </trkpt>
      <trkpt lat="59.8721293" lon="17.6109459">
        <ele>8.30859</ele>
        <time>2014-06-01T10:20:42Z</time>
      </trkpt>
      <trkpt lat="59.872081" lon="17.6110329">
        <ele>8.30859</ele>
        <time>2014-06-01T10:20:43Z</time>
      </trkpt>
      <trkpt lat="59.8720312" lon="17.6111195">
        <ele>8.30859</ele>
        <time>2014-06-01T10:20:44Z</time>
      </trkpt>
      <trkpt lat="59.8719824" lon="17.6112079">
        <ele>8.30859</ele>
        <time>2014-06-01T10:20:45Z</time>
      </trkpt>
      <trkpt lat="59.8719342" lon="17.611296">
        <ele>8.78918</ele>
        <time>2014-06-01T10:20:46Z</time>
      </trkpt>
      <trkpt lat="59.8718857" lon="17.6113852">
        <ele>8.30859</ele>
        <time>2014-06-01T10:20:47Z</time>
      </trkpt>
      <trkpt lat="59.8718376" lon="17.6114747">
        <ele>8.30859</ele>
        <time>2014-06-01T10:20:48Z</time>
      </trkpt>
      <trkpt lat="59.8717886" lon="17.6115608">
        <ele>8.30859</ele>
        <time>2014-06-01T10:20:49Z</time>
      </trkpt>
      <trkpt lat="59.8717401" lon="17.6116471">
        <ele>8.30859</ele>
        <time>2014-06-01T10:20:50Z</time>
      </trkpt>
      <trkpt lat="59.8716935" lon="17.6117384">
        <ele>8.30859</ele>
        <time>2014-06-01T10:20:51Z</time>
      </trkpt>
      <trkpt lat="59.8716478" lon="17.6118327">
        <ele>8.30859</ele>
        <time>2014-06-01T10:20:52Z</time>
      </trkpt>
      <trkpt lat="59.8716009" lon="17.6119263">
        <ele>8.30859</ele>
        <time>2014-06-01T10:20:53Z</time>
      </trkpt>
      <trkpt lat="59.8715531" lon="17.6120201">
        <ele>8.78918</ele>
        <time>2014-06-01T10:20:54Z</time>
      </trkpt>
      <trkpt lat="59.8715069" lon="17.6121176">
        <ele>8.78918</ele>
        <time>2014-06-01T10:20:55Z</time>
      </trkpt>
      <trkpt lat="59.8714609" lon="17.6122155">
        <ele>8.78918</ele>
        <time>2014-06-01T10:20:56Z</time>
      </trkpt>
      <trkpt lat="59.8714167" lon="17.6123144">
        <ele>9.2699</ele>
        <time>2014-06-01T10:20:57Z</time>
      </trkpt>
      <trkpt lat="59.8713717" lon="17.6124122">
        <ele>9.2699</ele>
        <time>2014-06-01T10:20:58Z</time>
      </trkpt>
      <trkpt lat="59.8713268" lon="17.6125096">
        <ele>9.75061</ele>
        <time>2014-06-01T10:20:59Z</time>
      </trkpt>
      <trkpt lat="59.8712841" lon="17.6126106">
        <ele>9.75061</ele>
        <time>2014-06-01T10:21:00Z</time>
      </trkpt>
      <trkpt lat="59.8712428" lon="17.6127124">
        <ele>10.2312</ele>
        <time>2014-06-01T10:21:01Z</time>
      </trkpt>
      <trkpt lat="59.8712033" lon="17.6128152">
        <ele>10.2312</ele>
        <time>2014-06-01T10:21:02Z</time>
      </trkpt>
      <trkpt lat="59.8711652" lon="17.612919">
        <ele>10.2312</ele>
        <time>2014-06-01T10:21:03Z</time>
      </trkpt>
      <trkpt lat="59.8711288" lon="17.6130241">
        <ele>10.7118</ele>
        <time>2014-06-01T10:21:04Z</time>
      </trkpt>
      <trkpt lat="59.8710966" lon="17.6131277">
        <ele>10.7118</ele>
        <time>2014-06-01T10:21:05Z</time>
      </trkpt>
      <trkpt lat="59.8710684" lon="17.6132323">
        <ele>10.7118</ele>
        <time>2014-06-01T10:21:06Z</time>
      </trkpt>
      <trkpt lat="59.8710429" lon="17.6133368">
        <ele>10.7118</ele>
        <time>2014-06-01T10:21:07Z</time>
      </trkpt>
      <trkpt lat="59.8710191" lon="17.6134456">
        <ele>10.7118</ele>
        <time>2014-06-01T10:21:08Z</time>
      </trkpt>
      <trkpt lat="59.8709961" lon="17.6135562">
        <ele>10.2312</ele>
        <time>2014-06-01T10:21:09Z</time>
      </trkpt>
      <trkpt lat="59.8709697" lon="17.6136877">
        <ele>10.2312</ele>
        <time>2014-06-01T10:21:10Z</time>
      </trkpt>
      <trkpt lat="59.8709418" lon="17.613837">
        <ele>10.7118</ele>
        <time>2014-06-01T10:21:11Z</time>
      </trkpt>
      <trkpt lat="59.8709161" lon="17.6139865">
        <ele>11.1925</ele>
        <time>2014-06-01T10:21:12Z</time>
      </trkpt>
      <trkpt lat="59.8708899" lon="17.6141321">
        <ele>11.6732</ele>
        <time>2014-06-01T10:21:13Z</time>
      </trkpt>
      <trkpt lat="59.8708605" lon="17.6142703">
        <ele>11.6732</ele>
        <time>2014-06-01T10:21:14Z</time>
      </trkpt>
      <trkpt lat="59.8708265" lon="17.6144029">
        <ele>12.1538</ele>
        <time>2014-06-01T10:21:15Z</time>
      </trkpt>
      <trkpt lat="59.8707902" lon="17.6145274">
        <ele>11.6732</ele>
        <time>2014-06-01T10:21:16Z</time>
      </trkpt>
      <trkpt lat="59.870756" lon="17.6146513">
        <ele>11.6732</ele>
        <time>2014-06-01T10:21:17Z</time>
      </trkpt>
      <trkpt lat="59.8707217" lon="17.6147753">
        <ele>11.6732</ele>
        <time>2014-06-01T10:21:18Z</time>
      </trkpt>
      <trkpt lat="59.8706838" lon="17.6148966">
        <ele>11.1925</ele>
        <time>2014-06-01T10:21:19Z</time>
      </trkpt>
      <trkpt lat="59.8706455" lon="17.61502">
        <ele>11.1925</ele>
        <time>2014-06-01T10:21:20Z</time>
      </trkpt>
      <trkpt lat="59.8706087" lon="17.6151495">
        <ele>11.1925</ele>
        <time>2014-06-01T10:21:21Z</time>
      </trkpt>
      <trkpt lat="59.8705715" lon="17.6152798">
        <ele>11.1925</ele>
        <time>2014-06-01T10:21:22Z</time>
      </trkpt>
      <trkpt lat="59.8705371" lon="17.6154137">
        <ele>10.7118</ele>
        <time>2014-06-01T10:21:23Z</time>
      </trkpt>
      <trkpt lat="59.8705065" lon="17.615551">
        <ele>10.2312</ele>
        <time>2014-06-01T10:21:24Z</time>
      </trkpt>
      <trkpt lat="59.8704775" lon="17.615687">
        <ele>9.75061</ele>
        <time>2014-06-01T10:21:25Z</time>
      </trkpt>
      <trkpt lat="59.8704492" lon="17.6158212">
        <ele>9.75061</ele>
        <time>2014-06-01T10:21:26Z</time>
      </trkpt>
      <trkpt lat="59.8704213" lon="17.6159535">
        <ele>9.75061</ele>
        <time>2014-06-01T10:21:27Z</time>
      </trkpt>
      <trkpt lat="59.8703897" lon="17.6160869">
        <ele>9.2699</ele>
        <time>2014-06-01T10:21:28Z</time>
      </trkpt>
      <trkpt lat="59.8703607" lon="17.6162185">
        <ele>9.2699</ele>
        <time>2014-06-01T10:21:29Z</time>
      </trkpt>
      <trkpt lat="59.8703325" lon="17.6163488">
        <ele>9.2699</ele>
        <time>2014-06-01T10:21:30Z</time>
      </trkpt>
      <trkpt lat="59.870297" lon="17.616475">
        <ele>8.78918</ele>
        <time>2014-06-01T10:21:31Z</time>
      </trkpt>
      <trkpt lat="59.8702617" lon="17.6166177">
        <ele>9.2699</ele>
        <time>2014-06-01T10:21:32Z</time>
      </trkpt>
      <trkpt lat="59.8702159" lon="17.616767">
        <ele>9.2699</ele>
        <time>2014-06-01T10:21:33Z</time>
      </trkpt>
      <trkpt lat="59.8701871" lon="17.6168935">
        <ele>9.75061</ele>
        <time>2014-06-01T10:21:34Z</time>
      </trkpt>
      <trkpt lat="59.8701655" lon="17.6170164">
        <ele>9.75061</ele>
        <time>2014-06-01T10:21:35Z</time>
      </trkpt>
      <trkpt lat="59.870141" lon="17.6171362">
        <ele>10.2312</ele>
        <time>2014-06-01T10:21:36Z</time>
      </trkpt>
      <trkpt lat="59.8701166" lon="17.6172571">
        <ele>10.7118</ele>
        <time>2014-06-01T10:21:37Z</time>
      </trkpt>
      <trkpt lat="59.8700934" lon="17.6173771">
        <ele>11.6732</ele>
        <time>2014-06-01T10:21:38Z</time>
      </trkpt>
      <trkpt lat="59.8700752" lon="17.6174983">
        <ele>12.1538</ele>
        <time>2014-06-01T10:21:39Z</time>
      </trkpt>
      <trkpt lat="59.8700592" lon="17.6176189">
        <ele>12.1538</ele>
        <time>2014-06-01T10:21:40Z</time>
      </trkpt>
      <trkpt lat="59.8700439" lon="17.6177365">
        <ele>12.6344</ele>
        <time>2014-06-01T10:21:41Z</time>
      </trkpt>
      <trkpt lat="59.8700313" lon="17.6178513">
        <ele>12.6344</ele>
        <time>2014-06-01T10:21:42Z</time>
      </trkpt>
      <trkpt lat="59.8700214" lon="17.617967">
        <ele>13.1151</ele>
        <time>2014-06-01T10:21:43Z</time>
      </trkpt>
      <trkpt lat="59.8700074" lon="17.6180773">
        <ele>13.1151</ele>
        <time>2014-06-01T10:21:44Z</time>
      </trkpt>
      <trkpt lat="59.8699922" lon="17.6181841">
        <ele>13.1151</ele>
        <time>2014-06-01T10:21:45Z</time>
      </trkpt>
      <trkpt lat="59.8699773" lon="17.6182876">
        <ele>13.1151</ele>
        <time>2014-06-01T10:21:46Z</time>
      </trkpt>
      <trkpt lat="59.8699657" lon="17.6183902">
        <ele>13.1151</ele>
        <time>2014-06-01T10:21:47Z</time>
      </trkpt>
      <trkpt lat="59.8699535" lon="17.6184913">
        <ele>13.1151</ele>
        <time>2014-06-01T10:21:48Z</time>
      </trkpt>
      <trkpt lat="59.8699364" lon="17.6185917">
        <ele>13.1151</ele>
        <time>2014-06-01T10:21:49Z</time>
      </trkpt>
      <trkpt lat="59.8699141" lon="17.6186901">
        <ele>13.1151</ele>
        <time>2014-06-01T10:21:50Z</time>
      </trkpt>
      <trkpt lat="59.8698944" lon="17.6187819">
        <ele>13.1151</ele>
        <time>2014-06-01T10:21:51Z</time>
      </trkpt>
      <trkpt lat="59.8698821" lon="17.618875">
        <ele>13.1151</ele>
        <time>2014-06-01T10:21:52Z</time>
      </trkpt>
      <trkpt lat="59.8698811" lon="17.6189724">
        <ele>13.1151</ele>
        <time>2014-06-01T10:21:53Z</time>
      </trkpt>
      <trkpt lat="59.8698889" lon="17.6190771">
        <ele>13.1151</ele>
        <time>2014-06-01T10:21:54Z</time>
      </trkpt>
      <trkpt lat="59.869899" lon="17.6191891">
        <ele>13.1151</ele>
        <time>2014-06-01T10:21:55Z</time>
      </trkpt>
      <trkpt lat="59.8699048" lon="17.6193066">
        <ele>13.1151</ele>
        <time>2014-06-01T10:21:56Z</time>
      </trkpt>
      <trkpt lat="59.8699048" lon="17.6194275">
        <ele>13.1151</ele>
        <time>2014-06-01T10:21:57Z</time>
      </trkpt>
      <trkpt lat="59.8699006" lon="17.619549">
        <ele>13.1151</ele>
        <time>2014-06-01T10:21:58Z</time>
      </trkpt>
      <trkpt lat="59.8698955" lon="17.6196759">
        <ele>13.1151</ele>
        <time>2014-06-01T10:21:59Z</time>
      </trkpt>
      <trkpt lat="59.8698893" lon="17.6198083">
        <ele>13.5958</ele>
        <time>2014-06-01T10:22:00Z</time>
      </trkpt>
      <trkpt lat="59.8698825" lon="17.6199393">
        <ele>13.5958</ele>
        <time>2014-06-01T10:22:01Z</time>
      </trkpt>
      <trkpt lat="59.8698753" lon="17.6200676">
        <ele>13.5958</ele>
        <time>2014-06-01T10:22:02Z</time>
      </trkpt>
      <trkpt lat="59.8698666" lon="17.6201966">
        <ele>13.5958</ele>
        <time>2014-06-01T10:22:03Z</time>
      </trkpt>
      <trkpt lat="59.8698566" lon="17.620327">
        <ele>13.5958</ele>
        <time>2014-06-01T10:22:04Z</time>
      </trkpt>
      <trkpt lat="59.8698452" lon="17.620454">
        <ele>14.0764</ele>
        <time>2014-06-01T10:22:05Z</time>
      </trkpt>
      <trkpt lat="59.8698305" lon="17.6205747">
        <ele>14.0764</ele>
        <time>2014-06-01T10:22:06Z</time>
      </trkpt>
      <trkpt lat="59.8698136" lon="17.6206916">
        <ele>13.5958</ele>
        <time>2014-06-01T10:22:07Z</time>
      </trkpt>
      <trkpt lat="59.8697959" lon="17.6208067">
        <ele>13.5958</ele>
        <time>2014-06-01T10:22:08Z</time>
      </trkpt>
      <trkpt lat="59.8697779" lon="17.620922">
        <ele>13.5958</ele>
        <time>2014-06-01T10:22:09Z</time>
      </trkpt>
      <trkpt lat="59.8697611" lon="17.6210386">
        <ele>13.5958</ele>
        <time>2014-06-01T10:22:10Z</time>
      </trkpt>
      <trkpt lat="59.8697426" lon="17.6211565">
        <ele>13.5958</ele>
        <time>2014-06-01T10:22:11Z</time>
      </trkpt>
      <trkpt lat="59.8697221" lon="17.6212735">
        <ele>13.5958</ele>
        <time>2014-06-01T10:22:12Z</time>
      </trkpt>
      <trkpt lat="59.8697011" lon="17.6213905">
        <ele>13.5958</ele>
        <time>2014-06-01T10:22:13Z</time>
      </trkpt>
      <trkpt lat="59.8696805" lon="17.6215091">
        <ele>13.5958</ele>
        <time>2014-06-01T10:22:14Z</time>
      </trkpt>
      <trkpt lat="59.8696593" lon="17.6216256">
        <ele>13.5958</ele>
        <time>2014-06-01T10:22:15Z</time>
      </trkpt>
      <trkpt lat="59.8696344" lon="17.6217344">
        <ele>13.5958</ele>
        <time>2014-06-01T10:22:16Z</time>
      </trkpt>
      <trkpt lat="59.8696034" lon="17.6218318">
        <ele>13.5958</ele>
        <time>2014-06-01T10:22:17Z</time>
      </trkpt>
      <trkpt lat="59.8695692" lon="17.6219209">
        <ele>13.5958</ele>
        <time>2014-06-01T10:22:18Z</time>
      </trkpt>
      <trkpt lat="59.8695355" lon="17.6220049">
        <ele>13.5958</ele>
        <time>2014-06-01T10:22:19Z</time>
      </trkpt>
      <trkpt lat="59.8695023" lon="17.6220855">
        <ele>13.1151</ele>
        <time>2014-06-01T10:22:20Z</time>
      </trkpt>
      <trkpt lat="59.8694685" lon="17.6221644">
        <ele>13.1151</ele>
        <time>2014-06-01T10:22:21Z</time>
      </trkpt>
      <trkpt lat="59.8694349" lon="17.6222461">
        <ele>12.6344</ele>
        <time>2014-06-01T10:22:22Z</time>
      </trkpt>
      <trkpt lat="59.8694044" lon="17.6223333">
        <ele>12.1538</ele>
        <time>2014-06-01T10:22:23Z</time>
      </trkpt>
      <trkpt lat="59.8693748" lon="17.6224217">
        <ele>12.1538</ele>
        <time>2014-06-01T10:22:24Z</time>
      </trkpt>
      <trkpt lat="59.8693468" lon="17.6225109">
        <ele>12.1538</ele>
        <time>2014-06-01T10:22:25Z</time>
      </trkpt>
      <trkpt lat="59.869322" lon="17.622598">
        <ele>11.6732</ele>
        <time>2014-06-01T10:22:26Z</time>
      </trkpt>
      <trkpt lat="59.8693017" lon="17.6226814">
        <ele>12.1538</ele>
        <time>2014-06-01T10:22:27Z</time>
      </trkpt>
      <trkpt lat="59.8692816" lon="17.6227631">
        <ele>11.6732</ele>
        <time>2014-06-01T10:22:28Z</time>
      </trkpt>
      <trkpt lat="59.8692574" lon="17.6228348">
        <ele>11.1925</ele>
        <time>2014-06-01T10:22:29Z</time>
      </trkpt>
      <trkpt lat="59.8692273" lon="17.622889">
        <ele>11.1925</ele>
        <time>2014-06-01T10:22:30Z</time>
      </trkpt>
      <trkpt lat="59.869191" lon="17.6229279">
        <ele>10.7118</ele>
        <time>2014-06-01T10:22:31Z</time>
      </trkpt>
      <trkpt lat="59.8691532" lon="17.6229642">
        <ele>10.7118</ele>
        <time>2014-06-01T10:22:32Z</time>
      </trkpt>
      <trkpt lat="59.8691221" lon="17.6230134">
        <ele>10.7118</ele>
        <time>2014-06-01T10:22:33Z</time>
      </trkpt>
      <trkpt lat="59.8690993" lon="17.6230875">
        <ele>11.1925</ele>
        <time>2014-06-01T10:22:34Z</time>
      </trkpt>
      <trkpt lat="59.869075" lon="17.6231722">
        <ele>11.6732</ele>
        <time>2014-06-01T10:22:35Z</time>
      </trkpt>
      <trkpt lat="59.8690375" lon="17.6232418">
        <ele>12.1538</ele>
        <time>2014-06-01T10:22:36Z</time>
      </trkpt>
      <trkpt lat="59.8689905" lon="17.6232931">
        <ele>12.6344</ele>
        <time>2014-06-01T10:22:37Z</time>
      </trkpt>
      <trkpt lat="59.8689407" lon="17.6233324">
        <ele>12.6344</ele>
        <time>2014-06-01T10:22:38Z</time>
      </trkpt>
      <trkpt lat="59.8688883" lon="17.6233702">
        <ele>13.1151</ele>
        <time>2014-06-01T10:22:39Z</time>
      </trkpt>
      <trkpt lat="59.8688328" lon="17.6234014">
        <ele>13.1151</ele>
        <time>2014-06-01T10:22:40Z</time>
      </trkpt>
      <trkpt lat="59.868774" lon="17.6234279">
        <ele>13.1151</ele>
        <time>2014-06-01T10:22:41Z</time>
      </trkpt>
      <trkpt lat="59.8687143" lon="17.6234614">
        <ele>13.1151</ele>
        <time>2014-06-01T10:22:42Z</time>
      </trkpt>
      <trkpt lat="59.8686532" lon="17.6234979">
        <ele>13.1151</ele>
        <time>2014-06-01T10:22:43Z</time>
      </trkpt>
      <trkpt lat="59.8685911" lon="17.6235345">
        <ele>13.1151</ele>
        <time>2014-06-01T10:22:44Z</time>
      </trkpt>
      <trkpt lat="59.8685148" lon="17.6235469">
        <ele>13.5958</ele>
        <time>2014-06-01T10:22:45Z</time>
      </trkpt>
      <trkpt lat="59.8684467" lon="17.6235568">
        <ele>14.0764</ele>
        <time>2014-06-01T10:22:46Z</time>
      </trkpt>
      <trkpt lat="59.8683845" lon="17.6235791">
        <ele>14.0764</ele>
        <time>2014-06-01T10:22:47Z</time>
      </trkpt>
      <trkpt lat="59.868327" lon="17.6236165">
        <ele>14.0764</ele>
        <time>2014-06-01T10:22:48Z</time>
      </trkpt>
      <trkpt lat="59.868272" lon="17.6236524">
        <ele>14.0764</ele>
        <time>2014-06-01T10:22:49Z</time>
      </trkpt>
      <trkpt lat="59.8682159" lon="17.623683">
        <ele>14.0764</ele>
        <time>2014-06-01T10:22:50Z</time>
      </trkpt>
      <trkpt lat="59.8681568" lon="17.6237048">
        <ele>14.0764</ele>
        <time>2014-06-01T10:22:51Z</time>
      </trkpt>
      <trkpt lat="59.8680975" lon="17.6237365">
        <ele>14.0764</ele>
        <time>2014-06-01T10:22:52Z</time>
      </trkpt>
      <trkpt lat="59.8680393" lon="17.6237718">
        <ele>14.0764</ele>
        <time>2014-06-01T10:22:53Z</time>
      </trkpt>
      <trkpt lat="59.8679814" lon="17.6238106">
        <ele>14.0764</ele>
        <time>2014-06-01T10:22:54Z</time>
      </trkpt>
      <trkpt lat="59.8679224" lon="17.6238468">
        <ele>14.0764</ele>
        <time>2014-06-01T10:22:55Z</time>
      </trkpt>
      <trkpt lat="59.86786" lon="17.6238914">
        <ele>14.0764</ele>
        <time>2014-06-01T10:22:56Z</time>
      </trkpt>
      <trkpt lat="59.8677987" lon="17.6239322">
        <ele>14.0764</ele>
        <time>2014-06-01T10:22:57Z</time>
      </trkpt>
      <trkpt lat="59.8677378" lon="17.6239712">
        <ele>14.0764</ele>
        <time>2014-06-01T10:22:58Z</time>
      </trkpt>
      <trkpt lat="59.8676762" lon="17.6240094">
        <ele>14.0764</ele>
        <time>2014-06-01T10:22:59Z</time>
      </trkpt>
      <trkpt lat="59.8676155" lon="17.6240505">
        <ele>14.0764</ele>
        <time>2014-06-01T10:23:00Z</time>
      </trkpt>
      <trkpt lat="59.8675587" lon="17.6241048">
        <ele>14.0764</ele>
        <time>2014-06-01T10:23:01Z</time>
      </trkpt>
      <trkpt lat="59.8675037" lon="17.6241577">
        <ele>14.0764</ele>
        <time>2014-06-01T10:23:02Z</time>
      </trkpt>
      <trkpt lat="59.8674516" lon="17.6242184">
        <ele>14.0764</ele>
        <time>2014-06-01T10:23:03Z</time>
      </trkpt>
      <trkpt lat="59.8674019" lon="17.6242835">
        <ele>14.0764</ele>
        <time>2014-06-01T10:23:04Z</time>
      </trkpt>
      <trkpt lat="59.8673529" lon="17.6243554">
        <ele>14.0764</ele>
        <time>2014-06-01T10:23:05Z</time>
      </trkpt>
      <trkpt lat="59.8673074" lon="17.6244364">
        <ele>14.0764</ele>
        <time>2014-06-01T10:23:06Z</time>
      </trkpt>
      <trkpt lat="59.8672638" lon="17.6245246">
        <ele>14.0764</ele>
        <time>2014-06-01T10:23:07Z</time>
      </trkpt>
      <trkpt lat="59.8672215" lon="17.6246193">
        <ele>14.0764</ele>
        <time>2014-06-01T10:23:08Z</time>
      </trkpt>
      <trkpt lat="59.8671828" lon="17.6247204">
        <ele>14.0764</ele>
        <time>2014-06-01T10:23:09Z</time>
      </trkpt>
      <trkpt lat="59.8671473" lon="17.624826">
        <ele>14.0764</ele>
        <time>2014-06-01T10:23:10Z</time>
      </trkpt>
      <trkpt lat="59.86711" lon="17.6249304">
        <ele>14.0764</ele>
        <time>2014-06-01T10:23:11Z</time>
      </trkpt>
      <trkpt lat="59.867069" lon="17.6250285">
        <ele>14.0764</ele>
        <time>2014-06-01T10:23:12Z</time>
      </trkpt>
      <trkpt lat="59.8670253" lon="17.6251171">
        <ele>14.0764</ele>
        <time>2014-06-01T10:23:13Z</time>
      </trkpt>
      <trkpt lat="59.8669806" lon="17.6251962">
        <ele>14.0764</ele>
        <time>2014-06-01T10:23:14Z</time>
      </trkpt>
      <trkpt lat="59.8669357" lon="17.6252729">
        <ele>13.5958</ele>
        <time>2014-06-01T10:23:15Z</time>
      </trkpt>
      <trkpt lat="59.8668896" lon="17.6253429">
        <ele>13.5958</ele>
        <time>2014-06-01T10:23:16Z</time>
      </trkpt>
      <trkpt lat="59.8668423" lon="17.6254043">
        <ele>13.5958</ele>
        <time>2014-06-01T10:23:17Z</time>
      </trkpt>
      <trkpt lat="59.8667957" lon="17.6254632">
        <ele>13.5958</ele>
        <time>2014-06-01T10:23:18Z</time>
      </trkpt>
      <trkpt lat="59.8667475" lon="17.6255123">
        <ele>13.5958</ele>
        <time>2014-06-01T10:23:19Z</time>
      </trkpt>
      <trkpt lat="59.8666988" lon="17.6255501">
        <ele>13.1151</ele>
        <time>2014-06-01T10:23:20Z</time>
      </trkpt>
      <trkpt lat="59.8666544" lon="17.6255958">
        <ele>13.1151</ele>
        <time>2014-06-01T10:23:21Z</time>
      </trkpt>
      <trkpt lat="59.8666186" lon="17.6256587">
        <ele>13.1151</ele>
        <time>2014-06-01T10:23:22Z</time>
      </trkpt>
      <trkpt lat="59.8665943" lon="17.6257354">
        <ele>13.1151</ele>
        <time>2014-06-01T10:23:23Z</time>
      </trkpt>
      <trkpt lat="59.8665805" lon="17.625817">
        <ele>13.1151</ele>
        <time>2014-06-01T10:23:24Z</time>
      </trkpt>
      <trkpt lat="59.8665725" lon="17.6258964">
        <ele>13.1151</ele>
        <time>2014-06-01T10:23:25Z</time>
      </trkpt>
      <trkpt lat="59.8665709" lon="17.6259737">
        <ele>13.1151</ele>
        <time>2014-06-01T10:23:26Z</time>
      </trkpt>
      <trkpt lat="59.8665746" lon="17.6260469">
        <ele>13.5958</ele>
        <time>2014-06-01T10:23:27Z</time>
      </trkpt>
      <trkpt lat="59.8665828" lon="17.6261119">
        <ele>13.5958</ele>
        <time>2014-06-01T10:23:28Z</time>
      </trkpt>
      <trkpt lat="59.866595" lon="17.6261707">
        <ele>13.5958</ele>
        <time>2014-06-01T10:23:29Z</time>
      </trkpt>
      <trkpt lat="59.866607" lon="17.6262256">
        <ele>13.5958</ele>
        <time>2014-06-01T10:23:30Z</time>
      </trkpt>
      <trkpt lat="59.8666191" lon="17.6262773">
        <ele>13.5958</ele>
        <time>2014-06-01T10:23:31Z</time>
      </trkpt>
      <trkpt lat="59.8666309" lon="17.6263274">
        <ele>13.5958</ele>
        <time>2014-06-01T10:23:32Z</time>
      </trkpt>
      <trkpt lat="59.8666407" lon="17.6263756">
        <ele>13.5958</ele>
        <time>2014-06-01T10:23:33Z</time>
      </trkpt>
      <trkpt lat="59.8666502" lon="17.62642">
        <ele>13.5958</ele>
        <time>2014-06-01T10:23:34Z</time>
      </trkpt>
      <trkpt lat="59.8666601" lon="17.626463">
        <ele>13.5958</ele>
        <time>2014-06-01T10:23:35Z</time>
      </trkpt>
      <trkpt lat="59.8666674" lon="17.6265063">
        <ele>13.5958</ele>
        <time>2014-06-01T10:23:36Z</time>
      </trkpt>
      <trkpt lat="59.8666707" lon="17.6265431">
        <ele>13.5958</ele>
        <time>2014-06-01T10:23:37Z</time>
      </trkpt>
      <trkpt lat="59.8666743" lon="17.6265768">
        <ele>13.5958</ele>
        <time>2014-06-01T10:23:38Z</time>
      </trkpt>
      <trkpt lat="59.866679" lon="17.6266048">
        <ele>13.5958</ele>
        <time>2014-06-01T10:23:39Z</time>
      </trkpt>
      <trkpt lat="59.8666844" lon="17.6266259">
        <ele>13.5958</ele>
        <time>2014-06-01T10:23:40Z</time>
      </trkpt>
      <trkpt lat="59.8666911" lon="17.6266476">
        <ele>13.1151</ele>
        <time>2014-06-01T10:23:41Z</time>
      </trkpt>
      <trkpt lat="59.8666973" lon="17.6266727">
        <ele>13.1151</ele>
        <time>2014-06-01T10:23:42Z</time>
      </trkpt>
      <trkpt lat="59.866704" lon="17.6266996">
        <ele>13.1151</ele>
        <time>2014-06-01T10:23:43Z</time>
      </trkpt>
      <trkpt lat="59.8667112" lon="17.6267308">
        <ele>13.1151</ele>
        <time>2014-06-01T10:23:44Z</time>
      </trkpt>
      <trkpt lat="59.8667149" lon="17.6267608">
        <ele>13.1151</ele>
        <time>2014-06-01T10:23:45Z</time>
      </trkpt>
      <trkpt lat="59.8667212" lon="17.626789">
        <ele>13.1151</ele>
        <time>2014-06-01T10:23:46Z</time>
      </trkpt>
      <trkpt lat="59.8667299" lon="17.6268147">
        <ele>12.6344</ele>
        <time>2014-06-01T10:23:47Z</time>
      </trkpt>
      <trkpt lat="59.8667455" lon="17.6268265">
        <ele>13.1151</ele>
        <time>2014-06-01T10:23:48Z</time>
      </trkpt>
      <trkpt lat="59.8667593" lon="17.6268062">
        <ele>13.1151</ele>
        <time>2014-06-01T10:23:49Z</time>
      </trkpt>
      <trkpt lat="59.8667668" lon="17.6267565">
        <ele>13.1151</ele>
        <time>2014-06-01T10:23:50Z</time>
      </trkpt>
      <trkpt lat="59.866775" lon="17.6267009">
        <ele>13.1151</ele>
        <time>2014-06-01T10:23:51Z</time>
      </trkpt>
      <trkpt lat="59.8667849" lon="17.6266515">
        <ele>13.1151</ele>
        <time>2014-06-01T10:23:52Z</time>
      </trkpt>
      <trkpt lat="59.8667864" lon="17.6266131">
        <ele>13.5958</ele>
        <time>2014-06-01T10:23:53Z</time>
      </trkpt>
      <trkpt lat="59.8667701" lon="17.626593">
        <ele>13.1151</ele>
        <time>2014-06-01T10:23:54Z</time>
      </trkpt>
      <trkpt lat="59.8667491" lon="17.6266002">
        <ele>13.5958</ele>
        <time>2014-06-01T10:23:55Z</time>
      </trkpt>
      <trkpt lat="59.8667245" lon="17.6266126">
        <ele>13.5958</ele>
        <time>2014-06-01T10:23:56Z</time>
      </trkpt>
      <trkpt lat="59.8666994" lon="17.6265934">
        <ele>13.5958</ele>
        <time>2014-06-01T10:23:57Z</time>
      </trkpt>
      <trkpt lat="59.8666815" lon="17.6265472">
        <ele>13.5958</ele>
        <time>2014-06-01T10:23:58Z</time>
      </trkpt>
      <trkpt lat="59.8666693" lon="17.6264881">
        <ele>13.5958</ele>
        <time>2014-06-01T10:23:59Z</time>
      </trkpt>
      <trkpt lat="59.8666579" lon="17.6264241">
        <ele>13.5958</ele>
        <time>2014-06-01T10:24:00Z</time>
      </trkpt>
      <trkpt lat="59.866646" lon="17.626358">
        <ele>13.5958</ele>
        <time>2014-06-01T10:24:01Z</time>
      </trkpt>
      <trkpt lat="59.8666366" lon="17.6262928">
        <ele>13.1151</ele>
        <time>2014-06-01T10:24:02Z</time>
      </trkpt>
      <trkpt lat="59.8666273" lon="17.6262386">
        <ele>13.1151</ele>
        <time>2014-06-01T10:24:03Z</time>
      </trkpt>
      <trkpt lat="59.8666169" lon="17.6261925">
        <ele>13.5958</ele>
        <time>2014-06-01T10:24:04Z</time>
      </trkpt>
      <trkpt lat="59.8666095" lon="17.6261479">
        <ele>13.5958</ele>
        <time>2014-06-01T10:24:05Z</time>
      </trkpt>
      <trkpt lat="59.866607" lon="17.6261101">
        <ele>13.5958</ele>
        <time>2014-06-01T10:24:06Z</time>
      </trkpt>
      <trkpt lat="59.8666042" lon="17.6260833">
        <ele>13.5958</ele>
        <time>2014-06-01T10:24:07Z</time>
      </trkpt>
      <trkpt lat="59.8665977" lon="17.6260632">
        <ele>13.5958</ele>
        <time>2014-06-01T10:24:08Z</time>
      </trkpt>
      <trkpt lat="59.8665911" lon="17.6260489">
        <ele>13.5958</ele>
        <time>2014-06-01T10:24:09Z</time>
      </trkpt>
      <trkpt lat="59.8665854" lon="17.6260441">
        <ele>13.5958</ele>
        <time>2014-06-01T10:24:10Z</time>
      </trkpt>
      <trkpt lat="59.8665792" lon="17.6260464">
        <ele>13.5958</ele>
        <time>2014-06-01T10:24:11Z</time>
      </trkpt>
      <trkpt lat="59.8665736" lon="17.6260505">
        <ele>13.5958</ele>
        <time>2014-06-01T10:24:12Z</time>
      </trkpt>
      <trkpt lat="59.8665707" lon="17.6260604">
        <ele>13.5958</ele>
        <time>2014-06-01T10:24:13Z</time>
      </trkpt>
      <trkpt lat="59.8665691" lon="17.6260706">
        <ele>13.5958</ele>
        <time>2014-06-01T10:24:14Z</time>
      </trkpt>
      <trkpt lat="59.8665693" lon="17.6260753">
        <ele>13.5958</ele>
        <time>2014-06-01T10:24:15Z</time>
      </trkpt>
      <trkpt lat="59.8665697" lon="17.6260785">
        <ele>13.5958</ele>
        <time>2014-06-01T10:24:16Z</time>
      </trkpt>
      <trkpt lat="59.8665485" lon="17.6262789">
        <ele>8.78918</ele>
        <time>2014-06-01T10:24:31Z</time>
      </trkpt>
      <trkpt lat="59.8665349" lon="17.6263044">
        <ele>8.78918</ele>
        <time>2014-06-01T10:24:32Z</time>
      </trkpt>
      <trkpt lat="59.866519" lon="17.626321">
        <ele>8.30859</ele>
        <time>2014-06-01T10:24:33Z</time>
      </trkpt>
      <trkpt lat="59.8664989" lon="17.6263332">
        <ele>7.34717</ele>
        <time>2014-06-01T10:24:34Z</time>
      </trkpt>
      <trkpt lat="59.8664813" lon="17.6263248">
        <ele>6.38586</ele>
        <time>2014-06-01T10:24:35Z</time>
      </trkpt>
      <trkpt lat="59.8664605" lon="17.6263132">
        <ele>4.46326</ele>
        <time>2014-06-01T10:24:36Z</time>
      </trkpt>
      <trkpt lat="59.8664493" lon="17.6263143">
        <ele>4.94385</ele>
        <time>2014-06-01T10:24:37Z</time>
      </trkpt>
      <trkpt lat="59.8664366" lon="17.626307">
        <ele>5.42456</ele>
        <time>2014-06-01T10:24:38Z</time>
      </trkpt>
      <trkpt lat="59.8664222" lon="17.6262981">
        <ele>5.42456</ele>
        <time>2014-06-01T10:24:39Z</time>
      </trkpt>
      <trkpt lat="59.8664076" lon="17.6262998">
        <ele>5.90527</ele>
        <time>2014-06-01T10:24:40Z</time>
      </trkpt>
      <trkpt lat="59.8663918" lon="17.6263142">
        <ele>5.90527</ele>
        <time>2014-06-01T10:24:41Z</time>
      </trkpt>
      <trkpt lat="59.8663716" lon="17.6263328">
        <ele>5.90527</ele>
        <time>2014-06-01T10:24:42Z</time>
      </trkpt>
      <trkpt lat="59.8663498" lon="17.6263529">
        <ele>6.38586</ele>
        <time>2014-06-01T10:24:43Z</time>
      </trkpt>
      <trkpt lat="59.866329" lon="17.6263858">
        <ele>6.38586</ele>
        <time>2014-06-01T10:24:44Z</time>
      </trkpt>
      <trkpt lat="59.866312" lon="17.6264358">
        <ele>6.38586</ele>
        <time>2014-06-01T10:24:45Z</time>
      </trkpt>
      <trkpt lat="59.8662936" lon="17.6264913">
        <ele>6.38586</ele>
        <time>2014-06-01T10:24:46Z</time>
      </trkpt>
      <trkpt lat="59.8662702" lon="17.6265523">
        <ele>6.38586</ele>
        <time>2014-06-01T10:24:47Z</time>
      </trkpt>
      <trkpt lat="59.8662426" lon="17.6266167">
        <ele>5.90527</ele>
        <time>2014-06-01T10:24:48Z</time>
      </trkpt>
      <trkpt lat="59.8662117" lon="17.6266828">
        <ele>6.38586</ele>
        <time>2014-06-01T10:24:49Z</time>
      </trkpt>
      <trkpt lat="59.8661768" lon="17.6267483">
        <ele>6.38586</ele>
        <time>2014-06-01T10:24:50Z</time>
      </trkpt>
      <trkpt lat="59.8661403" lon="17.6268138">
        <ele>6.38586</ele>
        <time>2014-06-01T10:24:51Z</time>
      </trkpt>
      <trkpt lat="59.8661021" lon="17.6268822">
        <ele>6.86646</ele>
        <time>2014-06-01T10:24:52Z</time>
      </trkpt>
      <trkpt lat="59.8660623" lon="17.6269518">
        <ele>6.86646</ele>
        <time>2014-06-01T10:24:53Z</time>
      </trkpt>
      <trkpt lat="59.8660201" lon="17.6270205">
        <ele>7.34717</ele>
        <time>2014-06-01T10:24:54Z</time>
      </trkpt>
      <trkpt lat="59.8659761" lon="17.6270903">
        <ele>7.34717</ele>
        <time>2014-06-01T10:24:55Z</time>
      </trkpt>
      <trkpt lat="59.8659321" lon="17.6271614">
        <ele>7.34717</ele>
        <time>2014-06-01T10:24:56Z</time>
      </trkpt>
      <trkpt lat="59.8658905" lon="17.6272338">
        <ele>7.34717</ele>
        <time>2014-06-01T10:24:57Z</time>
      </trkpt>
      <trkpt lat="59.8658502" lon="17.6273082">
        <ele>7.34717</ele>
        <time>2014-06-01T10:24:58Z</time>
      </trkpt>
      <trkpt lat="59.8658093" lon="17.6273828">
        <ele>7.82788</ele>
        <time>2014-06-01T10:24:59Z</time>
      </trkpt>
      <trkpt lat="59.8657671" lon="17.6274579">
        <ele>7.82788</ele>
        <time>2014-06-01T10:25:00Z</time>
      </trkpt>
      <trkpt lat="59.8657246" lon="17.6275347">
        <ele>7.82788</ele>
        <time>2014-06-01T10:25:01Z</time>
      </trkpt>
      <trkpt lat="59.865681" lon="17.6276121">
        <ele>7.82788</ele>
        <time>2014-06-01T10:25:02Z</time>
      </trkpt>
      <trkpt lat="59.8656374" lon="17.6276895">
        <ele>7.82788</ele>
        <time>2014-06-01T10:25:03Z</time>
      </trkpt>
      <trkpt lat="59.8655919" lon="17.6277766">
        <ele>7.82788</ele>
        <time>2014-06-01T10:25:04Z</time>
      </trkpt>
      <trkpt lat="59.8655419" lon="17.627847">
        <ele>8.30859</ele>
        <time>2014-06-01T10:25:05Z</time>
      </trkpt>
      <trkpt lat="59.865492" lon="17.6279147">
        <ele>8.30859</ele>
        <time>2014-06-01T10:25:06Z</time>
      </trkpt>
      <trkpt lat="59.8654422" lon="17.6279692">
        <ele>8.30859</ele>
        <time>2014-06-01T10:25:07Z</time>
      </trkpt>
      <trkpt lat="59.8654027" lon="17.6280204">
        <ele>8.30859</ele>
        <time>2014-06-01T10:25:08Z</time>
      </trkpt>
      <trkpt lat="59.8653736" lon="17.628077">
        <ele>8.30859</ele>
        <time>2014-06-01T10:25:09Z</time>
      </trkpt>
      <trkpt lat="59.8653583" lon="17.62815">
        <ele>8.30859</ele>
        <time>2014-06-01T10:25:10Z</time>
      </trkpt>
      <trkpt lat="59.8653613" lon="17.6282256">
        <ele>8.30859</ele>
        <time>2014-06-01T10:25:11Z</time>
      </trkpt>
      <trkpt lat="59.8653742" lon="17.6282909">
        <ele>8.30859</ele>
        <time>2014-06-01T10:25:12Z</time>
      </trkpt>
      <trkpt lat="59.8653918" lon="17.6283527">
        <ele>7.82788</ele>
        <time>2014-06-01T10:25:13Z</time>
      </trkpt>
      <trkpt lat="59.8654105" lon="17.6284135">
        <ele>8.30859</ele>
        <time>2014-06-01T10:25:14Z</time>
      </trkpt>
      <trkpt lat="59.8654288" lon="17.6284787">
        <ele>7.82788</ele>
        <time>2014-06-01T10:25:15Z</time>
      </trkpt>
      <trkpt lat="59.8654482" lon="17.6285458">
        <ele>7.82788</ele>
        <time>2014-06-01T10:25:16Z</time>
      </trkpt>
      <trkpt lat="59.8654685" lon="17.6286116">
        <ele>7.82788</ele>
        <time>2014-06-01T10:25:17Z</time>
      </trkpt>
      <trkpt lat="59.8654846" lon="17.6286785">
        <ele>8.30859</ele>
        <time>2014-06-01T10:25:18Z</time>
      </trkpt>
      <trkpt lat="59.8654956" lon="17.628737">
        <ele>8.30859</ele>
        <time>2014-06-01T10:25:19Z</time>
      </trkpt>
      <trkpt lat="59.8654981" lon="17.628788">
        <ele>8.30859</ele>
        <time>2014-06-01T10:25:20Z</time>
      </trkpt>
      <trkpt lat="59.8654908" lon="17.6288395">
        <ele>8.30859</ele>
        <time>2014-06-01T10:25:21Z</time>
      </trkpt>
      <trkpt lat="59.8654701" lon="17.6288902">
        <ele>8.30859</ele>
        <time>2014-06-01T10:25:22Z</time>
      </trkpt>
      <trkpt lat="59.8654401" lon="17.6289411">
        <ele>8.30859</ele>
        <time>2014-06-01T10:25:23Z</time>
      </trkpt>
      <trkpt lat="59.865406" lon="17.6290042">
        <ele>7.82788</ele>
        <time>2014-06-01T10:25:24Z</time>
      </trkpt>
      <trkpt lat="59.8653715" lon="17.6290782">
        <ele>8.30859</ele>
        <time>2014-06-01T10:25:25Z</time>
      </trkpt>
      <trkpt lat="59.8653361" lon="17.6291552">
        <ele>8.78918</ele>
        <time>2014-06-01T10:25:26Z</time>
      </trkpt>
      <trkpt lat="59.8653023" lon="17.6292337">
        <ele>8.78918</ele>
        <time>2014-06-01T10:25:27Z</time>
      </trkpt>
      <trkpt lat="59.8652655" lon="17.6293145">
        <ele>8.78918</ele>
        <time>2014-06-01T10:25:28Z</time>
      </trkpt>
      <trkpt lat="59.8652291" lon="17.6293935">
        <ele>8.30859</ele>
        <time>2014-06-01T10:25:29Z</time>
      </trkpt>
      <trkpt lat="59.8652002" lon="17.629473">
        <ele>8.30859</ele>
        <time>2014-06-01T10:25:30Z</time>
      </trkpt>
      <trkpt lat="59.8651793" lon="17.6295538">
        <ele>7.82788</ele>
        <time>2014-06-01T10:25:31Z</time>
      </trkpt>
      <trkpt lat="59.8651622" lon="17.6296388">
        <ele>7.82788</ele>
        <time>2014-06-01T10:25:32Z</time>
      </trkpt>
      <trkpt lat="59.8651421" lon="17.6297222">
        <ele>7.34717</ele>
        <time>2014-06-01T10:25:33Z</time>
      </trkpt>
      <trkpt lat="59.8651125" lon="17.6297848">
        <ele>7.34717</ele>
        <time>2014-06-01T10:25:34Z</time>
      </trkpt>
      <trkpt lat="59.8650473" lon="17.6298651">
        <ele>7.34717</ele>
        <time>2014-06-01T10:25:35Z</time>
      </trkpt>
      <trkpt lat="59.8650129" lon="17.6299071">
        <ele>7.34717</ele>
        <time>2014-06-01T10:25:36Z</time>
      </trkpt>
      <trkpt lat="59.8649786" lon="17.6299491">
        <ele>6.86646</ele>
        <time>2014-06-01T10:25:37Z</time>
      </trkpt>
      <trkpt lat="59.8648956" lon="17.6299618">
        <ele>5.42456</ele>
        <time>2014-06-01T10:25:40Z</time>
      </trkpt>
      <trkpt lat="59.8648238" lon="17.6300004">
        <ele>4.94385</ele>
        <time>2014-06-01T10:25:41Z</time>
      </trkpt>
      <trkpt lat="59.8647779" lon="17.6300619">
        <ele>5.42456</ele>
        <time>2014-06-01T10:25:42Z</time>
      </trkpt>
      <trkpt lat="59.8647295" lon="17.6301516">
        <ele>6.38586</ele>
        <time>2014-06-01T10:25:43Z</time>
      </trkpt>
      <trkpt lat="59.8646688" lon="17.6302244">
        <ele>6.86646</ele>
        <time>2014-06-01T10:25:44Z</time>
      </trkpt>
      <trkpt lat="59.8646206" lon="17.6302895">
        <ele>7.82788</ele>
        <time>2014-06-01T10:25:45Z</time>
      </trkpt>
      <trkpt lat="59.8645743" lon="17.6303477">
        <ele>8.30859</ele>
        <time>2014-06-01T10:25:46Z</time>
      </trkpt>
      <trkpt lat="59.8645325" lon="17.6304065">
        <ele>9.2699</ele>
        <time>2014-06-01T10:25:47Z</time>
      </trkpt>
      <trkpt lat="59.8644914" lon="17.6304598">
        <ele>9.2699</ele>
        <time>2014-06-01T10:25:48Z</time>
      </trkpt>
      <trkpt lat="59.8644521" lon="17.6305219">
        <ele>9.75061</ele>
        <time>2014-06-01T10:25:49Z</time>
      </trkpt>
      <trkpt lat="59.8644138" lon="17.6305901">
        <ele>10.2312</ele>
        <time>2014-06-01T10:25:50Z</time>
      </trkpt>
      <trkpt lat="59.8643725" lon="17.6306556">
        <ele>10.2312</ele>
        <time>2014-06-01T10:25:51Z</time>
      </trkpt>
      <trkpt lat="59.8643262" lon="17.6307245">
        <ele>10.7118</ele>
        <time>2014-06-01T10:25:52Z</time>
      </trkpt>
      <trkpt lat="59.8642751" lon="17.6307815">
        <ele>11.1925</ele>
        <time>2014-06-01T10:25:53Z</time>
      </trkpt>
      <trkpt lat="59.8642098" lon="17.6308512">
        <ele>11.6732</ele>
        <time>2014-06-01T10:25:54Z</time>
      </trkpt>
      <trkpt lat="59.8641477" lon="17.6309063">
        <ele>12.1538</ele>
        <time>2014-06-01T10:25:55Z</time>
      </trkpt>
      <trkpt lat="59.8640863" lon="17.630954">
        <ele>12.1538</ele>
        <time>2014-06-01T10:25:56Z</time>
      </trkpt>
      <trkpt lat="59.8640214" lon="17.6309992">
        <ele>12.6344</ele>
        <time>2014-06-01T10:25:57Z</time>
      </trkpt>
      <trkpt lat="59.863959" lon="17.6310395">
        <ele>13.1151</ele>
        <time>2014-06-01T10:25:58Z</time>
      </trkpt>
      <trkpt lat="59.8639005" lon="17.6310765">
        <ele>12.6344</ele>
        <time>2014-06-01T10:25:59Z</time>
      </trkpt>
      <trkpt lat="59.863842" lon="17.6311116">
        <ele>12.6344</ele>
        <time>2014-06-01T10:26:00Z</time>
      </trkpt>
      <trkpt lat="59.8637825" lon="17.6311451">
        <ele>12.6344</ele>
        <time>2014-06-01T10:26:01Z</time>
      </trkpt>
      <trkpt lat="59.8637239" lon="17.6311773">
        <ele>12.1538</ele>
        <time>2014-06-01T10:26:02Z</time>
      </trkpt>
      <trkpt lat="59.8636676" lon="17.6312">
        <ele>12.1538</ele>
        <time>2014-06-01T10:26:03Z</time>
      </trkpt>
      <trkpt lat="59.8635973" lon="17.6312643">
        <ele>12.6344</ele>
        <time>2014-06-01T10:26:04Z</time>
      </trkpt>
      <trkpt lat="59.8635456" lon="17.6312908">
        <ele>12.6344</ele>
        <time>2014-06-01T10:26:05Z</time>
      </trkpt>
      <trkpt lat="59.8634871" lon="17.6313314">
        <ele>12.6344</ele>
        <time>2014-06-01T10:26:06Z</time>
      </trkpt>
      <trkpt lat="59.8634235" lon="17.631378">
        <ele>13.1151</ele>
        <time>2014-06-01T10:26:07Z</time>
      </trkpt>
      <trkpt lat="59.8633654" lon="17.6314174">
        <ele>13.1151</ele>
        <time>2014-06-01T10:26:08Z</time>
      </trkpt>
      <trkpt lat="59.8633107" lon="17.6314601">
        <ele>13.1151</ele>
        <time>2014-06-01T10:26:09Z</time>
      </trkpt>
      <trkpt lat="59.8632552" lon="17.6315062">
        <ele>13.5958</ele>
        <time>2014-06-01T10:26:10Z</time>
      </trkpt>
      <trkpt lat="59.8632031" lon="17.6315419">
        <ele>13.1151</ele>
        <time>2014-06-01T10:26:11Z</time>
      </trkpt>
      <trkpt lat="59.8631506" lon="17.6315689">
        <ele>13.1151</ele>
        <time>2014-06-01T10:26:12Z</time>
      </trkpt>
      <trkpt lat="59.8631026" lon="17.6316019">
        <ele>13.5958</ele>
        <time>2014-06-01T10:26:13Z</time>
      </trkpt>
      <trkpt lat="59.8630382" lon="17.6315715">
        <ele>20.8057</ele>
        <time>2014-06-01T10:26:14Z</time>
      </trkpt>
      <trkpt lat="59.8629907" lon="17.6315998">
        <ele>21.2864</ele>
        <time>2014-06-01T10:26:15Z</time>
      </trkpt>
      <trkpt lat="59.8629446" lon="17.6316319">
        <ele>20.8057</ele>
        <time>2014-06-01T10:26:16Z</time>
      </trkpt>
      <trkpt lat="59.8628973" lon="17.6316621">
        <ele>20.8057</ele>
        <time>2014-06-01T10:26:17Z</time>
      </trkpt>
      <trkpt lat="59.8628474" lon="17.6316938">
        <ele>20.8057</ele>
        <time>2014-06-01T10:26:18Z</time>
      </trkpt>
      <trkpt lat="59.8627966" lon="17.6317256">
        <ele>21.2864</ele>
        <time>2014-06-01T10:26:19Z</time>
      </trkpt>
      <trkpt lat="59.8627459" lon="17.6317512">
        <ele>21.767</ele>
        <time>2014-06-01T10:26:20Z</time>
      </trkpt>
      <trkpt lat="59.8626946" lon="17.6317833">
        <ele>21.767</ele>
        <time>2014-06-01T10:26:21Z</time>
      </trkpt>
      <trkpt lat="59.8626391" lon="17.6318248">
        <ele>22.7283</ele>
        <time>2014-06-01T10:26:22Z</time>
      </trkpt>
      <trkpt lat="59.8625915" lon="17.6318598">
        <ele>21.767</ele>
        <time>2014-06-01T10:26:23Z</time>
      </trkpt>
      <trkpt lat="59.8625452" lon="17.6318896">
        <ele>20.8057</ele>
        <time>2014-06-01T10:26:24Z</time>
      </trkpt>
      <trkpt lat="59.8624945" lon="17.6319165">
        <ele>20.325</ele>
        <time>2014-06-01T10:26:25Z</time>
      </trkpt>
      <trkpt lat="59.8624487" lon="17.6319442">
        <ele>20.325</ele>
        <time>2014-06-01T10:26:26Z</time>
      </trkpt>
      <trkpt lat="59.8624103" lon="17.6319719">
        <ele>19.3638</ele>
        <time>2014-06-01T10:26:27Z</time>
      </trkpt>
      <trkpt lat="59.8623751" lon="17.6319942">
        <ele>19.3638</ele>
        <time>2014-06-01T10:26:28Z</time>
      </trkpt>
      <trkpt lat="59.8623408" lon="17.632019">
        <ele>18.8831</ele>
        <time>2014-06-01T10:26:29Z</time>
      </trkpt>
      <trkpt lat="59.8623039" lon="17.6320453">
        <ele>17.9218</ele>
        <time>2014-06-01T10:26:30Z</time>
      </trkpt>
      <trkpt lat="59.8622635" lon="17.6320574">
        <ele>17.9218</ele>
        <time>2014-06-01T10:26:31Z</time>
      </trkpt>
      <trkpt lat="59.8622242" lon="17.6320375">
        <ele>17.4412</ele>
        <time>2014-06-01T10:26:32Z</time>
      </trkpt>
      <trkpt lat="59.8621891" lon="17.6319921">
        <ele>16.9604</ele>
        <time>2014-06-01T10:26:33Z</time>
      </trkpt>
      <trkpt lat="59.8621564" lon="17.6319423">
        <ele>16.4797</ele>
        <time>2014-06-01T10:26:34Z</time>
      </trkpt>
      <trkpt lat="59.8621225" lon="17.6318973">
        <ele>15.999</ele>
        <time>2014-06-01T10:26:35Z</time>
      </trkpt>
      <trkpt lat="59.8620876" lon="17.6318562">
        <ele>15.0377</ele>
        <time>2014-06-01T10:26:36Z</time>
      </trkpt>
      <trkpt lat="59.8620516" lon="17.6318311">
        <ele>14.557</ele>
        <time>2014-06-01T10:26:37Z</time>
      </trkpt>
      <trkpt lat="59.8620123" lon="17.631829">
        <ele>14.557</ele>
        <time>2014-06-01T10:26:38Z</time>
      </trkpt>
      <trkpt lat="59.8619606" lon="17.6318538">
        <ele>15.0377</ele>
        <time>2014-06-01T10:26:39Z</time>
      </trkpt>
      <trkpt lat="59.8619213" lon="17.6318717">
        <ele>14.557</ele>
        <time>2014-06-01T10:26:40Z</time>
      </trkpt>
      <trkpt lat="59.8618777" lon="17.6318924">
        <ele>15.0377</ele>
        <time>2014-06-01T10:26:41Z</time>
      </trkpt>
      <trkpt lat="59.8618192" lon="17.6319274">
        <ele>15.0377</ele>
        <time>2014-06-01T10:26:42Z</time>
      </trkpt>
      <trkpt lat="59.8617501" lon="17.6319719">
        <ele>15.0377</ele>
        <time>2014-06-01T10:26:43Z</time>
      </trkpt>
      <trkpt lat="59.8616822" lon="17.6320076">
        <ele>15.0377</ele>
        <time>2014-06-01T10:26:44Z</time>
      </trkpt>
      <trkpt lat="59.8616251" lon="17.632017">
        <ele>15.0377</ele>
        <time>2014-06-01T10:26:45Z</time>
      </trkpt>
      <trkpt lat="59.8615699" lon="17.6320382">
        <ele>15.0377</ele>
        <time>2014-06-01T10:26:46Z</time>
      </trkpt>
      <trkpt lat="59.8615156" lon="17.6320719">
        <ele>14.557</ele>
        <time>2014-06-01T10:26:47Z</time>
      </trkpt>
      <trkpt lat="59.8614588" lon="17.6321079">
        <ele>14.0764</ele>
        <time>2014-06-01T10:26:48Z</time>
      </trkpt>
      <trkpt lat="59.8614058" lon="17.6321443">
        <ele>14.0764</ele>
        <time>2014-06-01T10:26:49Z</time>
      </trkpt>
      <trkpt lat="59.8613544" lon="17.6321765">
        <ele>13.5958</ele>
        <time>2014-06-01T10:26:50Z</time>
      </trkpt>
      <trkpt lat="59.8613047" lon="17.6322051">
        <ele>13.5958</ele>
        <time>2014-06-01T10:26:51Z</time>
      </trkpt>
      <trkpt lat="59.861255" lon="17.632236">
        <ele>13.5958</ele>
        <time>2014-06-01T10:26:52Z</time>
      </trkpt>
      <trkpt lat="59.8612074" lon="17.6322655">
        <ele>13.1151</ele>
        <time>2014-06-01T10:26:53Z</time>
      </trkpt>
      <trkpt lat="59.8611612" lon="17.6322916">
        <ele>13.1151</ele>
        <time>2014-06-01T10:26:54Z</time>
      </trkpt>
      <trkpt lat="59.8611181" lon="17.6323179">
        <ele>12.6344</ele>
        <time>2014-06-01T10:26:55Z</time>
      </trkpt>
      <trkpt lat="59.8610824" lon="17.632349">
        <ele>12.1538</ele>
        <time>2014-06-01T10:26:56Z</time>
      </trkpt>
      <trkpt lat="59.8610542" lon="17.6323893">
        <ele>12.1538</ele>
        <time>2014-06-01T10:26:57Z</time>
      </trkpt>
      <trkpt lat="59.8610354" lon="17.6324301">
        <ele>12.1538</ele>
        <time>2014-06-01T10:26:58Z</time>
      </trkpt>
      <trkpt lat="59.8610225" lon="17.6324695">
        <ele>11.6732</ele>
        <time>2014-06-01T10:26:59Z</time>
      </trkpt>
      <trkpt lat="59.8610164" lon="17.6325168">
        <ele>11.1925</ele>
        <time>2014-06-01T10:27:00Z</time>
      </trkpt>
      <trkpt lat="59.8610241" lon="17.6325717">
        <ele>10.7118</ele>
        <time>2014-06-01T10:27:01Z</time>
      </trkpt>
      <trkpt lat="59.8610437" lon="17.6326282">
        <ele>10.2312</ele>
        <time>2014-06-01T10:27:02Z</time>
      </trkpt>
      <trkpt lat="59.8610672" lon="17.6326874">
        <ele>9.75061</ele>
        <time>2014-06-01T10:27:03Z</time>
      </trkpt>
      <trkpt lat="59.8610955" lon="17.632748">
        <ele>9.75061</ele>
        <time>2014-06-01T10:27:04Z</time>
      </trkpt>
      <trkpt lat="59.8611255" lon="17.632806">
        <ele>9.75061</ele>
        <time>2014-06-01T10:27:05Z</time>
      </trkpt>
      <trkpt lat="59.8611575" lon="17.6328598">
        <ele>9.75061</ele>
        <time>2014-06-01T10:27:06Z</time>
      </trkpt>
      <trkpt lat="59.8611836" lon="17.6329219">
        <ele>10.2312</ele>
        <time>2014-06-01T10:27:07Z</time>
      </trkpt>
      <trkpt lat="59.8611951" lon="17.6330156">
        <ele>9.75061</ele>
        <time>2014-06-01T10:27:08Z</time>
      </trkpt>
      <trkpt lat="59.8611826" lon="17.6330829">
        <ele>10.2312</ele>
        <time>2014-06-01T10:27:09Z</time>
      </trkpt>
      <trkpt lat="59.8611438" lon="17.6331344">
        <ele>10.2312</ele>
        <time>2014-06-01T10:27:10Z</time>
      </trkpt>
      <trkpt lat="59.8611034" lon="17.6331672">
        <ele>11.1925</ele>
        <time>2014-06-01T10:27:11Z</time>
      </trkpt>
      <trkpt lat="59.8610643" lon="17.6332161">
        <ele>11.1925</ele>
        <time>2014-06-01T10:27:12Z</time>
      </trkpt>
      <trkpt lat="59.8610198" lon="17.6332616">
        <ele>11.6732</ele>
        <time>2014-06-01T10:27:13Z</time>
      </trkpt>
      <trkpt lat="59.8609675" lon="17.63329">
        <ele>12.6344</ele>
        <time>2014-06-01T10:27:14Z</time>
      </trkpt>
      <trkpt lat="59.8609122" lon="17.6333351">
        <ele>13.1151</ele>
        <time>2014-06-01T10:27:15Z</time>
      </trkpt>
      <trkpt lat="59.8608645" lon="17.6333843">
        <ele>12.6344</ele>
        <time>2014-06-01T10:27:16Z</time>
      </trkpt>
      <trkpt lat="59.8608116" lon="17.6334363">
        <ele>13.1151</ele>
        <time>2014-06-01T10:27:17Z</time>
      </trkpt>
      <trkpt lat="59.8607547" lon="17.6334813">
        <ele>13.5958</ele>
        <time>2014-06-01T10:27:18Z</time>
      </trkpt>
      <trkpt lat="59.8606921" lon="17.6335211">
        <ele>14.0764</ele>
        <time>2014-06-01T10:27:19Z</time>
      </trkpt>
      <trkpt lat="59.8606319" lon="17.6335839">
        <ele>16.4797</ele>
        <time>2014-06-01T10:27:20Z</time>
      </trkpt>
      <trkpt lat="59.8605702" lon="17.6336202">
        <ele>18.4023</ele>
        <time>2014-06-01T10:27:21Z</time>
      </trkpt>
      <trkpt lat="59.8605183" lon="17.6336688">
        <ele>20.325</ele>
        <time>2014-06-01T10:27:22Z</time>
      </trkpt>
      <trkpt lat="59.8604734" lon="17.633731">
        <ele>22.7283</ele>
        <time>2014-06-01T10:27:23Z</time>
      </trkpt>
      <trkpt lat="59.8604279" lon="17.633789">
        <ele>25.6123</ele>
        <time>2014-06-01T10:27:24Z</time>
      </trkpt>
      <trkpt lat="59.8603857" lon="17.6338156">
        <ele>23.6896</ele>
        <time>2014-06-01T10:27:25Z</time>
      </trkpt>
      <trkpt lat="59.8603504" lon="17.6338498">
        <ele>22.2476</ele>
        <time>2014-06-01T10:27:26Z</time>
      </trkpt>
      <trkpt lat="59.8603179" lon="17.6338922">
        <ele>21.2864</ele>
        <time>2014-06-01T10:27:27Z</time>
      </trkpt>
      <trkpt lat="59.8602881" lon="17.6339408">
        <ele>20.8057</ele>
        <time>2014-06-01T10:27:28Z</time>
      </trkpt>
      <trkpt lat="59.8602569" lon="17.6339823">
        <ele>20.325</ele>
        <time>2014-06-01T10:27:29Z</time>
      </trkpt>
      <trkpt lat="59.86022" lon="17.6340067">
        <ele>19.8444</ele>
        <time>2014-06-01T10:27:30Z</time>
      </trkpt>
      <trkpt lat="59.8601791" lon="17.634017">
        <ele>19.3638</ele>
        <time>2014-06-01T10:27:31Z</time>
      </trkpt>
      <trkpt lat="59.8601232" lon="17.6339906">
        <ele>19.3638</ele>
        <time>2014-06-01T10:27:32Z</time>
      </trkpt>
      <trkpt lat="59.860075" lon="17.6340101">
        <ele>19.3638</ele>
        <time>2014-06-01T10:27:33Z</time>
      </trkpt>
      <trkpt lat="59.8600176" lon="17.6340118">
        <ele>19.3638</ele>
        <time>2014-06-01T10:27:34Z</time>
      </trkpt>
      <trkpt lat="59.8599578" lon="17.6340124">
        <ele>18.8831</ele>
        <time>2014-06-01T10:27:35Z</time>
      </trkpt>
      <trkpt lat="59.8599057" lon="17.6340349">
        <ele>18.4023</ele>
        <time>2014-06-01T10:27:36Z</time>
      </trkpt>
      <trkpt lat="59.859857" lon="17.634076">
        <ele>18.4023</ele>
        <time>2014-06-01T10:27:37Z</time>
      </trkpt>
      <trkpt lat="59.8598144" lon="17.6341302">
        <ele>18.4023</ele>
        <time>2014-06-01T10:27:38Z</time>
      </trkpt>
      <trkpt lat="59.8597725" lon="17.6341826">
        <ele>18.4023</ele>
        <time>2014-06-01T10:27:39Z</time>
      </trkpt>
      <trkpt lat="59.859728" lon="17.6342461">
        <ele>18.4023</ele>
        <time>2014-06-01T10:27:40Z</time>
      </trkpt>
      <trkpt lat="59.8596846" lon="17.6343138">
        <ele>18.4023</ele>
        <time>2014-06-01T10:27:41Z</time>
      </trkpt>
      <trkpt lat="59.8596389" lon="17.6343879">
        <ele>18.4023</ele>
        <time>2014-06-01T10:27:42Z</time>
      </trkpt>
      <trkpt lat="59.8595886" lon="17.6344345">
        <ele>21.2864</ele>
        <time>2014-06-01T10:27:43Z</time>
      </trkpt>
      <trkpt lat="59.8595545" lon="17.6345153">
        <ele>21.2864</ele>
        <time>2014-06-01T10:27:44Z</time>
      </trkpt>
      <trkpt lat="59.8595123" lon="17.6345925">
        <ele>21.2864</ele>
        <time>2014-06-01T10:27:45Z</time>
      </trkpt>
      <trkpt lat="59.8594724" lon="17.6346712">
        <ele>21.2864</ele>
        <time>2014-06-01T10:27:46Z</time>
      </trkpt>
      <trkpt lat="59.8594291" lon="17.6347501">
        <ele>21.2864</ele>
        <time>2014-06-01T10:27:47Z</time>
      </trkpt>
      <trkpt lat="59.8593808" lon="17.6348399">
        <ele>21.2864</ele>
        <time>2014-06-01T10:27:48Z</time>
      </trkpt>
      <trkpt lat="59.8593364" lon="17.6349287">
        <ele>21.2864</ele>
        <time>2014-06-01T10:27:49Z</time>
      </trkpt>
      <trkpt lat="59.8592935" lon="17.6350192">
        <ele>20.8057</ele>
        <time>2014-06-01T10:27:50Z</time>
      </trkpt>
      <trkpt lat="59.8592525" lon="17.6351069">
        <ele>20.8057</ele>
        <time>2014-06-01T10:27:51Z</time>
      </trkpt>
      <trkpt lat="59.8592062" lon="17.635197">
        <ele>20.325</ele>
        <time>2014-06-01T10:27:52Z</time>
      </trkpt>
      <trkpt lat="59.8591609" lon="17.635287">
        <ele>20.325</ele>
        <time>2014-06-01T10:27:53Z</time>
      </trkpt>
      <trkpt lat="59.8591161" lon="17.6353797">
        <ele>20.325</ele>
        <time>2014-06-01T10:27:54Z</time>
      </trkpt>
      <trkpt lat="59.8590743" lon="17.6354776">
        <ele>19.8444</ele>
        <time>2014-06-01T10:27:55Z</time>
      </trkpt>
      <trkpt lat="59.8590292" lon="17.635567">
        <ele>20.325</ele>
        <time>2014-06-01T10:27:56Z</time>
      </trkpt>
      <trkpt lat="59.8589862" lon="17.6356576">
        <ele>20.325</ele>
        <time>2014-06-01T10:27:57Z</time>
      </trkpt>
      <trkpt lat="59.8589445" lon="17.6357425">
        <ele>20.325</ele>
        <time>2014-06-01T10:27:58Z</time>
      </trkpt>
      <trkpt lat="59.8589022" lon="17.6358228">
        <ele>20.325</ele>
        <time>2014-06-01T10:27:59Z</time>
      </trkpt>
      <trkpt lat="59.8588611" lon="17.6359021">
        <ele>20.325</ele>
        <time>2014-06-01T10:28:00Z</time>
      </trkpt>
      <trkpt lat="59.8588226" lon="17.6359848">
        <ele>20.325</ele>
        <time>2014-06-01T10:28:01Z</time>
      </trkpt>
      <trkpt lat="59.8587889" lon="17.6360689">
        <ele>19.8444</ele>
        <time>2014-06-01T10:28:02Z</time>
      </trkpt>
      <trkpt lat="59.8587614" lon="17.6361585">
        <ele>19.3638</ele>
        <time>2014-06-01T10:28:03Z</time>
      </trkpt>
      <trkpt lat="59.858732" lon="17.6362449">
        <ele>18.8831</ele>
        <time>2014-06-01T10:28:04Z</time>
      </trkpt>
      <trkpt lat="59.8586983" lon="17.6363221">
        <ele>18.4023</ele>
        <time>2014-06-01T10:28:05Z</time>
      </trkpt>
      <trkpt lat="59.8586635" lon="17.6363952">
        <ele>17.9218</ele>
        <time>2014-06-01T10:28:06Z</time>
      </trkpt>
      <trkpt lat="59.8586258" lon="17.636468">
        <ele>17.9218</ele>
        <time>2014-06-01T10:28:07Z</time>
      </trkpt>
      <trkpt lat="59.858584" lon="17.6365397">
        <ele>17.4412</ele>
        <time>2014-06-01T10:28:08Z</time>
      </trkpt>
      <trkpt lat="59.8585369" lon="17.6366257">
        <ele>17.4412</ele>
        <time>2014-06-01T10:28:09Z</time>
      </trkpt>
      <trkpt lat="59.8584916" lon="17.6367102">
        <ele>17.4412</ele>
        <time>2014-06-01T10:28:10Z</time>
      </trkpt>
      <trkpt lat="59.8584501" lon="17.6367957">
        <ele>17.4412</ele>
        <time>2014-06-01T10:28:11Z</time>
      </trkpt>
      <trkpt lat="59.858409" lon="17.6368801">
        <ele>17.4412</ele>
        <time>2014-06-01T10:28:12Z</time>
      </trkpt>
      <trkpt lat="59.8583649" lon="17.6369596">
        <ele>16.9604</ele>
        <time>2014-06-01T10:28:13Z</time>
      </trkpt>
      <trkpt lat="59.8583241" lon="17.6370391">
        <ele>16.9604</ele>
        <time>2014-06-01T10:28:14Z</time>
      </trkpt>
      <trkpt lat="59.8582833" lon="17.6371214">
        <ele>16.4797</ele>
        <time>2014-06-01T10:28:15Z</time>
      </trkpt>
      <trkpt lat="59.8582426" lon="17.6372029">
        <ele>16.9604</ele>
        <time>2014-06-01T10:28:16Z</time>
      </trkpt>
      <trkpt lat="59.8582026" lon="17.637283">
        <ele>16.4797</ele>
        <time>2014-06-01T10:28:17Z</time>
      </trkpt>
      <trkpt lat="59.8581636" lon="17.6373579">
        <ele>16.4797</ele>
        <time>2014-06-01T10:28:18Z</time>
      </trkpt>
      <trkpt lat="59.8581249" lon="17.6374274">
        <ele>16.4797</ele>
        <time>2014-06-01T10:28:19Z</time>
      </trkpt>
      <trkpt lat="59.858089" lon="17.6374931">
        <ele>15.999</ele>
        <time>2014-06-01T10:28:20Z</time>
      </trkpt>
      <trkpt lat="59.8580558" lon="17.6375548">
        <ele>15.5184</ele>
        <time>2014-06-01T10:28:21Z</time>
      </trkpt>
      <trkpt lat="59.8580199" lon="17.6376081">
        <ele>15.999</ele>
        <time>2014-06-01T10:28:22Z</time>
      </trkpt>
      <trkpt lat="59.8579832" lon="17.6376612">
        <ele>17.9218</ele>
        <time>2014-06-01T10:28:23Z</time>
      </trkpt>
      <trkpt lat="59.8579466" lon="17.6377244">
        <ele>17.9218</ele>
        <time>2014-06-01T10:28:24Z</time>
      </trkpt>
      <trkpt lat="59.8579077" lon="17.6377886">
        <ele>17.4412</ele>
        <time>2014-06-01T10:28:25Z</time>
      </trkpt>
      <trkpt lat="59.8578627" lon="17.6378487">
        <ele>17.4412</ele>
        <time>2014-06-01T10:28:26Z</time>
      </trkpt>
      <trkpt lat="59.8578156" lon="17.6379186">
        <ele>17.9218</ele>
        <time>2014-06-01T10:28:27Z</time>
      </trkpt>
      <trkpt lat="59.8577684" lon="17.6380042">
        <ele>17.9218</ele>
        <time>2014-06-01T10:28:28Z</time>
      </trkpt>
      <trkpt lat="59.8577236" lon="17.6380999">
        <ele>18.4023</ele>
        <time>2014-06-01T10:28:29Z</time>
      </trkpt>
      <trkpt lat="59.8576792" lon="17.6381911">
        <ele>17.9218</ele>
        <time>2014-06-01T10:28:30Z</time>
      </trkpt>
      <trkpt lat="59.8576026" lon="17.6383434">
        <ele>18.4023</ele>
        <time>2014-06-01T10:28:31Z</time>
      </trkpt>
      <trkpt lat="59.8575539" lon="17.6384342">
        <ele>18.8831</ele>
        <time>2014-06-01T10:28:32Z</time>
      </trkpt>
      <trkpt lat="59.8575" lon="17.638511">
        <ele>19.8444</ele>
        <time>2014-06-01T10:28:33Z</time>
      </trkpt>
      <trkpt lat="59.8574482" lon="17.638606">
        <ele>20.8057</ele>
        <time>2014-06-01T10:28:34Z</time>
      </trkpt>
      <trkpt lat="59.857398" lon="17.6387095">
        <ele>20.8057</ele>
        <time>2014-06-01T10:28:35Z</time>
      </trkpt>
      <trkpt lat="59.8573508" lon="17.6388141">
        <ele>21.2864</ele>
        <time>2014-06-01T10:28:36Z</time>
      </trkpt>
      <trkpt lat="59.8573059" lon="17.6389048">
        <ele>20.8057</ele>
        <time>2014-06-01T10:28:37Z</time>
      </trkpt>
      <trkpt lat="59.85726" lon="17.6389978">
        <ele>20.8057</ele>
        <time>2014-06-01T10:28:38Z</time>
      </trkpt>
      <trkpt lat="59.8572094" lon="17.6390926">
        <ele>20.325</ele>
        <time>2014-06-01T10:28:39Z</time>
      </trkpt>
      <trkpt lat="59.8571614" lon="17.6391844">
        <ele>19.8444</ele>
        <time>2014-06-01T10:28:40Z</time>
      </trkpt>
      <trkpt lat="59.8571032" lon="17.6392728">
        <ele>19.3638</ele>
        <time>2014-06-01T10:28:41Z</time>
      </trkpt>
      <trkpt lat="59.8570519" lon="17.6393539">
        <ele>19.3638</ele>
        <time>2014-06-01T10:28:42Z</time>
      </trkpt>
      <trkpt lat="59.8570027" lon="17.6394141">
        <ele>18.8831</ele>
        <time>2014-06-01T10:28:43Z</time>
      </trkpt>
      <trkpt lat="59.8569535" lon="17.639469">
        <ele>18.4023</ele>
        <time>2014-06-01T10:28:44Z</time>
      </trkpt>
      <trkpt lat="59.8569136" lon="17.6395109">
        <ele>18.8831</ele>
        <time>2014-06-01T10:28:45Z</time>
      </trkpt>
      <trkpt lat="59.8568759" lon="17.6395527">
        <ele>17.4412</ele>
        <time>2014-06-01T10:28:46Z</time>
      </trkpt>
      <trkpt lat="59.8568396" lon="17.6395581">
        <ele>16.4797</ele>
        <time>2014-06-01T10:28:47Z</time>
      </trkpt>
      <trkpt lat="59.8568039" lon="17.639525">
        <ele>15.5184</ele>
        <time>2014-06-01T10:28:48Z</time>
      </trkpt>
      <trkpt lat="59.8567681" lon="17.6394694">
        <ele>15.0377</ele>
        <time>2014-06-01T10:28:49Z</time>
      </trkpt>
      <trkpt lat="59.8567385" lon="17.6394095">
        <ele>14.557</ele>
        <time>2014-06-01T10:28:50Z</time>
      </trkpt>
      <trkpt lat="59.8567119" lon="17.6393551">
        <ele>14.0764</ele>
        <time>2014-06-01T10:28:51Z</time>
      </trkpt>
      <trkpt lat="59.8566893" lon="17.6393034">
        <ele>13.5958</ele>
        <time>2014-06-01T10:28:52Z</time>
      </trkpt>
      <trkpt lat="59.8566677" lon="17.6392592">
        <ele>12.6344</ele>
        <time>2014-06-01T10:28:53Z</time>
      </trkpt>
      <trkpt lat="59.856638" lon="17.6392178">
        <ele>11.6732</ele>
        <time>2014-06-01T10:28:54Z</time>
      </trkpt>
      <trkpt lat="59.856599" lon="17.6391998">
        <ele>11.6732</ele>
        <time>2014-06-01T10:28:55Z</time>
      </trkpt>
      <trkpt lat="59.8565543" lon="17.6392209">
        <ele>11.1925</ele>
        <time>2014-06-01T10:28:56Z</time>
      </trkpt>
      <trkpt lat="59.8565087" lon="17.6392649">
        <ele>10.7118</ele>
        <time>2014-06-01T10:28:57Z</time>
      </trkpt>
      <trkpt lat="59.8564599" lon="17.6393176">
        <ele>10.7118</ele>
        <time>2014-06-01T10:28:58Z</time>
      </trkpt>
      <trkpt lat="59.8564105" lon="17.6393774">
        <ele>10.2312</ele>
        <time>2014-06-01T10:28:59Z</time>
      </trkpt>
      <trkpt lat="59.8563594" lon="17.6394405">
        <ele>9.75061</ele>
        <time>2014-06-01T10:29:00Z</time>
      </trkpt>
      <trkpt lat="59.8563053" lon="17.6395039">
        <ele>9.2699</ele>
        <time>2014-06-01T10:29:01Z</time>
      </trkpt>
      <trkpt lat="59.8562485" lon="17.6395689">
        <ele>9.2699</ele>
        <time>2014-06-01T10:29:02Z</time>
      </trkpt>
      <trkpt lat="59.8561894" lon="17.6396334">
        <ele>9.2699</ele>
        <time>2014-06-01T10:29:03Z</time>
      </trkpt>
      <trkpt lat="59.8561287" lon="17.6397022">
        <ele>9.2699</ele>
        <time>2014-06-01T10:29:04Z</time>
      </trkpt>
      <trkpt lat="59.8560667" lon="17.6397717">
        <ele>9.2699</ele>
        <time>2014-06-01T10:29:05Z</time>
      </trkpt>
      <trkpt lat="59.8560059" lon="17.6398408">
        <ele>9.2699</ele>
        <time>2014-06-01T10:29:06Z</time>
      </trkpt>
      <trkpt lat="59.8559568" lon="17.6399305">
        <ele>11.1925</ele>
        <time>2014-06-01T10:29:07Z</time>
      </trkpt>
      <trkpt lat="59.8558974" lon="17.6400089">
        <ele>11.6732</ele>
        <time>2014-06-01T10:29:08Z</time>
      </trkpt>
      <trkpt lat="59.8558361" lon="17.640086">
        <ele>11.1925</ele>
        <time>2014-06-01T10:29:09Z</time>
      </trkpt>
      <trkpt lat="59.8557751" lon="17.6401621">
        <ele>11.1925</ele>
        <time>2014-06-01T10:29:10Z</time>
      </trkpt>
      <trkpt lat="59.8557159" lon="17.6402374">
        <ele>11.1925</ele>
        <time>2014-06-01T10:29:11Z</time>
      </trkpt>
      <trkpt lat="59.8556595" lon="17.6403135">
        <ele>11.1925</ele>
        <time>2014-06-01T10:29:12Z</time>
      </trkpt>
      <trkpt lat="59.8556062" lon="17.6403932">
        <ele>11.1925</ele>
        <time>2014-06-01T10:29:13Z</time>
      </trkpt>
      <trkpt lat="59.8555533" lon="17.6404705">
        <ele>11.1925</ele>
        <time>2014-06-01T10:29:14Z</time>
      </trkpt>
      <trkpt lat="59.8554979" lon="17.6405346">
        <ele>11.1925</ele>
        <time>2014-06-01T10:29:15Z</time>
      </trkpt>
      <trkpt lat="59.8554423" lon="17.6405895">
        <ele>11.1925</ele>
        <time>2014-06-01T10:29:16Z</time>
      </trkpt>
      <trkpt lat="59.8553877" lon="17.6406433">
        <ele>10.7118</ele>
        <time>2014-06-01T10:29:17Z</time>
      </trkpt>
      <trkpt lat="59.8553343" lon="17.6406961">
        <ele>10.7118</ele>
        <time>2014-06-01T10:29:18Z</time>
      </trkpt>
      <trkpt lat="59.855284" lon="17.640752">
        <ele>10.2312</ele>
        <time>2014-06-01T10:29:19Z</time>
      </trkpt>
      <trkpt lat="59.8552337" lon="17.6408019">
        <ele>10.2312</ele>
        <time>2014-06-01T10:29:20Z</time>
      </trkpt>
      <trkpt lat="59.8551841" lon="17.6408442">
        <ele>9.75061</ele>
        <time>2014-06-01T10:29:21Z</time>
      </trkpt>
      <trkpt lat="59.8551343" lon="17.6408846">
        <ele>9.75061</ele>
        <time>2014-06-01T10:29:22Z</time>
      </trkpt>
      <trkpt lat="59.8550876" lon="17.640924">
        <ele>9.75061</ele>
        <time>2014-06-01T10:29:23Z</time>
      </trkpt>
      <trkpt lat="59.8550426" lon="17.6409656">
        <ele>10.2312</ele>
        <time>2014-06-01T10:29:24Z</time>
      </trkpt>
      <trkpt lat="59.8549986" lon="17.6410082">
        <ele>10.2312</ele>
        <time>2014-06-01T10:29:25Z</time>
      </trkpt>
      <trkpt lat="59.8549531" lon="17.6410436">
        <ele>10.2312</ele>
        <time>2014-06-01T10:29:26Z</time>
      </trkpt>
      <trkpt lat="59.8549053" lon="17.641068">
        <ele>9.75061</ele>
        <time>2014-06-01T10:29:27Z</time>
      </trkpt>
      <trkpt lat="59.8548587" lon="17.6410966">
        <ele>10.2312</ele>
        <time>2014-06-01T10:29:28Z</time>
      </trkpt>
      <trkpt lat="59.8548121" lon="17.6411324">
        <ele>9.75061</ele>
        <time>2014-06-01T10:29:29Z</time>
      </trkpt>
      <trkpt lat="59.8547634" lon="17.6411636">
        <ele>9.75061</ele>
        <time>2014-06-01T10:29:30Z</time>
      </trkpt>
      <trkpt lat="59.8547116" lon="17.6411915">
        <ele>9.2699</ele>
        <time>2014-06-01T10:29:31Z</time>
      </trkpt>
      <trkpt lat="59.8546583" lon="17.6412154">
        <ele>9.2699</ele>
        <time>2014-06-01T10:29:32Z</time>
      </trkpt>
      <trkpt lat="59.8546069" lon="17.6412438">
        <ele>9.2699</ele>
        <time>2014-06-01T10:29:33Z</time>
      </trkpt>
      <trkpt lat="59.854565" lon="17.6412758">
        <ele>8.78918</ele>
        <time>2014-06-01T10:29:34Z</time>
      </trkpt>
      <trkpt lat="59.8545355" lon="17.6413064">
        <ele>8.30859</ele>
        <time>2014-06-01T10:29:35Z</time>
      </trkpt>
      <trkpt lat="59.8545138" lon="17.6413361">
        <ele>8.30859</ele>
        <time>2014-06-01T10:29:36Z</time>
      </trkpt>
      <trkpt lat="59.8544956" lon="17.6413844">
        <ele>8.30859</ele>
        <time>2014-06-01T10:29:37Z</time>
      </trkpt>
      <trkpt lat="59.8544582" lon="17.6414608">
        <ele>8.30859</ele>
        <time>2014-06-01T10:29:38Z</time>
      </trkpt>
      <trkpt lat="59.8544369" lon="17.6414836">
        <ele>7.34717</ele>
        <time>2014-06-01T10:29:39Z</time>
      </trkpt>
      <trkpt lat="59.8544091" lon="17.6415078">
        <ele>6.86646</ele>
        <time>2014-06-01T10:29:40Z</time>
      </trkpt>
      <trkpt lat="59.8543716" lon="17.6415534">
        <ele>6.86646</ele>
        <time>2014-06-01T10:29:41Z</time>
      </trkpt>
      <trkpt lat="59.8543448" lon="17.6415602">
        <ele>6.38586</ele>
        <time>2014-06-01T10:29:42Z</time>
      </trkpt>
      <trkpt lat="59.8543231" lon="17.6415592">
        <ele>5.90527</ele>
        <time>2014-06-01T10:29:43Z</time>
      </trkpt>
      <trkpt lat="59.8542987" lon="17.6415608">
        <ele>5.42456</ele>
        <time>2014-06-01T10:29:44Z</time>
      </trkpt>
      <trkpt lat="59.854267" lon="17.6415676">
        <ele>5.42456</ele>
        <time>2014-06-01T10:29:45Z</time>
      </trkpt>
      <trkpt lat="59.8542309" lon="17.6415906">
        <ele>5.90527</ele>
        <time>2014-06-01T10:29:46Z</time>
      </trkpt>
      <trkpt lat="59.8541904" lon="17.6416291">
        <ele>5.90527</ele>
        <time>2014-06-01T10:29:47Z</time>
      </trkpt>
      <trkpt lat="59.8541448" lon="17.6416603">
        <ele>4.94385</ele>
        <time>2014-06-01T10:29:48Z</time>
      </trkpt>
      <trkpt lat="59.8540937" lon="17.6416855">
        <ele>4.94385</ele>
        <time>2014-06-01T10:29:49Z</time>
      </trkpt>
      <trkpt lat="59.8540382" lon="17.6417105">
        <ele>5.42456</ele>
        <time>2014-06-01T10:29:50Z</time>
      </trkpt>
      <trkpt lat="59.85398" lon="17.641731">
        <ele>4.94385</ele>
        <time>2014-06-01T10:29:51Z</time>
      </trkpt>
      <trkpt lat="59.8539246" lon="17.6417487">
        <ele>5.42456</ele>
        <time>2014-06-01T10:29:52Z</time>
      </trkpt>
      <trkpt lat="59.8538696" lon="17.6417732">
        <ele>5.90527</ele>
        <time>2014-06-01T10:29:53Z</time>
      </trkpt>
      <trkpt lat="59.8538154" lon="17.6418052">
        <ele>5.90527</ele>
        <time>2014-06-01T10:29:54Z</time>
      </trkpt>
      <trkpt lat="59.8537637" lon="17.6418492">
        <ele>5.90527</ele>
        <time>2014-06-01T10:29:55Z</time>
      </trkpt>
      <trkpt lat="59.853715" lon="17.6419032">
        <ele>5.90527</ele>
        <time>2014-06-01T10:29:56Z</time>
      </trkpt>
      <trkpt lat="59.853671" lon="17.6419679">
        <ele>5.90527</ele>
        <time>2014-06-01T10:29:57Z</time>
      </trkpt>
      <trkpt lat="59.8536295" lon="17.6420385">
        <ele>5.90527</ele>
        <time>2014-06-01T10:29:58Z</time>
      </trkpt>
      <trkpt lat="59.8535884" lon="17.6421104">
        <ele>6.38586</ele>
        <time>2014-06-01T10:29:59Z</time>
      </trkpt>
      <trkpt lat="59.8535513" lon="17.6421788">
        <ele>6.38586</ele>
        <time>2014-06-01T10:30:00Z</time>
      </trkpt>
      <trkpt lat="59.853517" lon="17.6422217">
        <ele>6.38586</ele>
        <time>2014-06-01T10:30:01Z</time>
      </trkpt>
      <trkpt lat="59.853484" lon="17.6422314">
        <ele>6.86646</ele>
        <time>2014-06-01T10:30:02Z</time>
      </trkpt>
      <trkpt lat="59.8534557" lon="17.6422016">
        <ele>6.38586</ele>
        <time>2014-06-01T10:30:03Z</time>
      </trkpt>
      <trkpt lat="59.8534304" lon="17.6421518">
        <ele>6.38586</ele>
        <time>2014-06-01T10:30:04Z</time>
      </trkpt>
      <trkpt lat="59.853399" lon="17.6421">
        <ele>6.38586</ele>
        <time>2014-06-01T10:30:05Z</time>
      </trkpt>
      <trkpt lat="59.8533658" lon="17.6420405">
        <ele>6.38586</ele>
        <time>2014-06-01T10:30:06Z</time>
      </trkpt>
      <trkpt lat="59.8533309" lon="17.6419825">
        <ele>6.38586</ele>
        <time>2014-06-01T10:30:07Z</time>
      </trkpt>
      <trkpt lat="59.8532989" lon="17.6419139">
        <ele>6.38586</ele>
        <time>2014-06-01T10:30:08Z</time>
      </trkpt>
      <trkpt lat="59.8532669" lon="17.6418396">
        <ele>5.90527</ele>
        <time>2014-06-01T10:30:09Z</time>
      </trkpt>
      <trkpt lat="59.8532332" lon="17.6417602">
        <ele>5.90527</ele>
        <time>2014-06-01T10:30:10Z</time>
      </trkpt>
      <trkpt lat="59.8531948" lon="17.6416846">
        <ele>5.90527</ele>
        <time>2014-06-01T10:30:11Z</time>
      </trkpt>
      <trkpt lat="59.8531524" lon="17.641617">
        <ele>6.38586</ele>
        <time>2014-06-01T10:30:12Z</time>
      </trkpt>
      <trkpt lat="59.8531064" lon="17.6415587">
        <ele>6.38586</ele>
        <time>2014-06-01T10:30:13Z</time>
      </trkpt>
      <trkpt lat="59.8530571" lon="17.6415126">
        <ele>6.38586</ele>
        <time>2014-06-01T10:30:14Z</time>
      </trkpt>
      <trkpt lat="59.8530041" lon="17.6414827">
        <ele>6.38586</ele>
        <time>2014-06-01T10:30:15Z</time>
      </trkpt>
      <trkpt lat="59.8529505" lon="17.6414649">
        <ele>6.38586</ele>
        <time>2014-06-01T10:30:16Z</time>
      </trkpt>
      <trkpt lat="59.8528987" lon="17.6414456">
        <ele>6.38586</ele>
        <time>2014-06-01T10:30:17Z</time>
      </trkpt>
      <trkpt lat="59.8528479" lon="17.6414183">
        <ele>6.38586</ele>
        <time>2014-06-01T10:30:18Z</time>
      </trkpt>
      <trkpt lat="59.8527999" lon="17.641377">
        <ele>6.86646</ele>
        <time>2014-06-01T10:30:19Z</time>
      </trkpt>
      <trkpt lat="59.8527551" lon="17.641325">
        <ele>7.34717</ele>
        <time>2014-06-01T10:30:20Z</time>
      </trkpt>
      <trkpt lat="59.8527153" lon="17.6412622">
        <ele>7.34717</ele>
        <time>2014-06-01T10:30:21Z</time>
      </trkpt>
      <trkpt lat="59.8526808" lon="17.641192">
        <ele>7.34717</ele>
        <time>2014-06-01T10:30:22Z</time>
      </trkpt>
      <trkpt lat="59.8526497" lon="17.6411172">
        <ele>7.34717</ele>
        <time>2014-06-01T10:30:23Z</time>
      </trkpt>
      <trkpt lat="59.8526219" lon="17.6410335">
        <ele>7.34717</ele>
        <time>2014-06-01T10:30:24Z</time>
      </trkpt>
      <trkpt lat="59.8525989" lon="17.6409552">
        <ele>6.86646</ele>
        <time>2014-06-01T10:30:25Z</time>
      </trkpt>
      <trkpt lat="59.8525784" lon="17.6409018">
        <ele>6.86646</ele>
        <time>2014-06-01T10:30:26Z</time>
      </trkpt>
      <trkpt lat="59.852556" lon="17.6408815">
        <ele>6.86646</ele>
        <time>2014-06-01T10:30:27Z</time>
      </trkpt>
      <trkpt lat="59.8525298" lon="17.6408987">
        <ele>6.86646</ele>
        <time>2014-06-01T10:30:28Z</time>
      </trkpt>
      <trkpt lat="59.8525052" lon="17.6409395">
        <ele>6.38586</ele>
        <time>2014-06-01T10:30:29Z</time>
      </trkpt>
      <trkpt lat="59.8524778" lon="17.6409869">
        <ele>6.38586</ele>
        <time>2014-06-01T10:30:30Z</time>
      </trkpt>
      <trkpt lat="59.8524495" lon="17.6410366">
        <ele>5.90527</ele>
        <time>2014-06-01T10:30:31Z</time>
      </trkpt>
      <trkpt lat="59.8524204" lon="17.6410876">
        <ele>5.90527</ele>
        <time>2014-06-01T10:30:32Z</time>
      </trkpt>
      <trkpt lat="59.8523868" lon="17.6411329">
        <ele>5.42456</ele>
        <time>2014-06-01T10:30:33Z</time>
      </trkpt>
      <trkpt lat="59.8523488" lon="17.6411661">
        <ele>5.42456</ele>
        <time>2014-06-01T10:30:34Z</time>
      </trkpt>
      <trkpt lat="59.8523079" lon="17.641195">
        <ele>5.42456</ele>
        <time>2014-06-01T10:30:35Z</time>
      </trkpt>
      <trkpt lat="59.852265" lon="17.6412242">
        <ele>5.42456</ele>
        <time>2014-06-01T10:30:36Z</time>
      </trkpt>
      <trkpt lat="59.852221" lon="17.6412536">
        <ele>5.42456</ele>
        <time>2014-06-01T10:30:37Z</time>
      </trkpt>
      <trkpt lat="59.8521755" lon="17.6412841">
        <ele>5.42456</ele>
        <time>2014-06-01T10:30:38Z</time>
      </trkpt>
      <trkpt lat="59.8521291" lon="17.6413151">
        <ele>5.42456</ele>
        <time>2014-06-01T10:30:39Z</time>
      </trkpt>
      <trkpt lat="59.8520832" lon="17.6413492">
        <ele>5.42456</ele>
        <time>2014-06-01T10:30:40Z</time>
      </trkpt>
      <trkpt lat="59.8520385" lon="17.6413877">
        <ele>4.94385</ele>
        <time>2014-06-01T10:30:41Z</time>
      </trkpt>
      <trkpt lat="59.8519955" lon="17.6414337">
        <ele>4.46326</ele>
        <time>2014-06-01T10:30:42Z</time>
      </trkpt>
      <trkpt lat="59.8519532" lon="17.6414857">
        <ele>4.46326</ele>
        <time>2014-06-01T10:30:43Z</time>
      </trkpt>
      <trkpt lat="59.8519095" lon="17.6415399">
        <ele>4.46326</ele>
        <time>2014-06-01T10:30:44Z</time>
      </trkpt>
      <trkpt lat="59.8518667" lon="17.6415948">
        <ele>4.94385</ele>
        <time>2014-06-01T10:30:45Z</time>
      </trkpt>
      <trkpt lat="59.8518252" lon="17.6416513">
        <ele>4.94385</ele>
        <time>2014-06-01T10:30:46Z</time>
      </trkpt>
      <trkpt lat="59.8517833" lon="17.6417087">
        <ele>5.42456</ele>
        <time>2014-06-01T10:30:47Z</time>
      </trkpt>
      <trkpt lat="59.8517416" lon="17.641768">
        <ele>5.42456</ele>
        <time>2014-06-01T10:30:48Z</time>
      </trkpt>
      <trkpt lat="59.8517009" lon="17.6418339">
        <ele>5.42456</ele>
        <time>2014-06-01T10:30:49Z</time>
      </trkpt>
      <trkpt lat="59.8516574" lon="17.6418993">
        <ele>5.42456</ele>
        <time>2014-06-01T10:30:50Z</time>
      </trkpt>
      <trkpt lat="59.8516114" lon="17.6419596">
        <ele>5.42456</ele>
        <time>2014-06-01T10:30:51Z</time>
      </trkpt>
      <trkpt lat="59.8515655" lon="17.6420235">
        <ele>5.42456</ele>
        <time>2014-06-01T10:30:52Z</time>
      </trkpt>
      <trkpt lat="59.8515211" lon="17.6420926">
        <ele>5.42456</ele>
        <time>2014-06-01T10:30:53Z</time>
      </trkpt>
      <trkpt lat="59.8514761" lon="17.6421628">
        <ele>5.90527</ele>
        <time>2014-06-01T10:30:54Z</time>
      </trkpt>
      <trkpt lat="59.8514285" lon="17.6422295">
        <ele>5.42456</ele>
        <time>2014-06-01T10:30:55Z</time>
      </trkpt>
      <trkpt lat="59.8513806" lon="17.6422811">
        <ele>5.42456</ele>
        <time>2014-06-01T10:30:56Z</time>
      </trkpt>
      <trkpt lat="59.8513305" lon="17.6423217">
        <ele>5.42456</ele>
        <time>2014-06-01T10:30:57Z</time>
      </trkpt>
      <trkpt lat="59.851279" lon="17.642363">
        <ele>5.42456</ele>
        <time>2014-06-01T10:30:58Z</time>
      </trkpt>
      <trkpt lat="59.8512285" lon="17.6424046">
        <ele>5.42456</ele>
        <time>2014-06-01T10:30:59Z</time>
      </trkpt>
      <trkpt lat="59.8511782" lon="17.6424472">
        <ele>5.42456</ele>
        <time>2014-06-01T10:31:00Z</time>
      </trkpt>
      <trkpt lat="59.851129" lon="17.6424916">
        <ele>5.42456</ele>
        <time>2014-06-01T10:31:01Z</time>
      </trkpt>
      <trkpt lat="59.8510819" lon="17.642542">
        <ele>5.42456</ele>
        <time>2014-06-01T10:31:02Z</time>
      </trkpt>
      <trkpt lat="59.8510383" lon="17.642601">
        <ele>5.42456</ele>
        <time>2014-06-01T10:31:03Z</time>
      </trkpt>
      <trkpt lat="59.8509984" lon="17.6426683">
        <ele>5.90527</ele>
        <time>2014-06-01T10:31:04Z</time>
      </trkpt>
      <trkpt lat="59.8509618" lon="17.642743">
        <ele>5.90527</ele>
        <time>2014-06-01T10:31:05Z</time>
      </trkpt>
      <trkpt lat="59.8509254" lon="17.6428189">
        <ele>5.90527</ele>
        <time>2014-06-01T10:31:06Z</time>
      </trkpt>
      <trkpt lat="59.8508845" lon="17.6428858">
        <ele>5.90527</ele>
        <time>2014-06-01T10:31:07Z</time>
      </trkpt>
      <trkpt lat="59.8508384" lon="17.6429397">
        <ele>6.38586</ele>
        <time>2014-06-01T10:31:08Z</time>
      </trkpt>
      <trkpt lat="59.8507897" lon="17.6429832">
        <ele>6.38586</ele>
        <time>2014-06-01T10:31:09Z</time>
      </trkpt>
      <trkpt lat="59.8507372" lon="17.6430204">
        <ele>6.38586</ele>
        <time>2014-06-01T10:31:10Z</time>
      </trkpt>
      <trkpt lat="59.8506846" lon="17.6430586">
        <ele>6.38586</ele>
        <time>2014-06-01T10:31:11Z</time>
      </trkpt>
      <trkpt lat="59.8506343" lon="17.6431066">
        <ele>6.38586</ele>
        <time>2014-06-01T10:31:12Z</time>
      </trkpt>
      <trkpt lat="59.8505877" lon="17.6431697">
        <ele>6.38586</ele>
        <time>2014-06-01T10:31:13Z</time>
      </trkpt>
      <trkpt lat="59.8505466" lon="17.6432418">
        <ele>6.38586</ele>
        <time>2014-06-01T10:31:14Z</time>
      </trkpt>
      <trkpt lat="59.8505101" lon="17.6433176">
        <ele>6.38586</ele>
        <time>2014-06-01T10:31:15Z</time>
      </trkpt>
      <trkpt lat="59.8504774" lon="17.643395">
        <ele>6.38586</ele>
        <time>2014-06-01T10:31:16Z</time>
      </trkpt>
      <trkpt lat="59.8504407" lon="17.6434612">
        <ele>6.38586</ele>
        <time>2014-06-01T10:31:17Z</time>
      </trkpt>
      <trkpt lat="59.8503963" lon="17.6435052">
        <ele>6.38586</ele>
        <time>2014-06-01T10:31:18Z</time>
      </trkpt>
      <trkpt lat="59.8503487" lon="17.6435259">
        <ele>6.38586</ele>
        <time>2014-06-01T10:31:19Z</time>
      </trkpt>
      <trkpt lat="59.8503002" lon="17.6435314">
        <ele>6.86646</ele>
        <time>2014-06-01T10:31:20Z</time>
      </trkpt>
      <trkpt lat="59.850253" lon="17.6435188">
        <ele>6.86646</ele>
        <time>2014-06-01T10:31:21Z</time>
      </trkpt>
      <trkpt lat="59.8502075" lon="17.6434929">
        <ele>6.86646</ele>
        <time>2014-06-01T10:31:22Z</time>
      </trkpt>
      <trkpt lat="59.8501635" lon="17.6434663">
        <ele>7.34717</ele>
        <time>2014-06-01T10:31:23Z</time>
      </trkpt>
      <trkpt lat="59.8501199" lon="17.6434441">
        <ele>7.34717</ele>
        <time>2014-06-01T10:31:24Z</time>
      </trkpt>
      <trkpt lat="59.8500755" lon="17.6434353">
        <ele>7.82788</ele>
        <time>2014-06-01T10:31:25Z</time>
      </trkpt>
      <trkpt lat="59.8500309" lon="17.6434478">
        <ele>7.82788</ele>
        <time>2014-06-01T10:31:26Z</time>
      </trkpt>
      <trkpt lat="59.8499884" lon="17.6434806">
        <ele>7.82788</ele>
        <time>2014-06-01T10:31:27Z</time>
      </trkpt>
      <trkpt lat="59.8499462" lon="17.6435212">
        <ele>7.82788</ele>
        <time>2014-06-01T10:31:28Z</time>
      </trkpt>
      <trkpt lat="59.8499029" lon="17.6435622">
        <ele>7.82788</ele>
        <time>2014-06-01T10:31:29Z</time>
      </trkpt>
      <trkpt lat="59.8498621" lon="17.6436108">
        <ele>7.82788</ele>
        <time>2014-06-01T10:31:30Z</time>
      </trkpt>
      <trkpt lat="59.8498231" lon="17.643666">
        <ele>8.30859</ele>
        <time>2014-06-01T10:31:31Z</time>
      </trkpt>
      <trkpt lat="59.8497806" lon="17.6437115">
        <ele>8.30859</ele>
        <time>2014-06-01T10:31:32Z</time>
      </trkpt>
      <trkpt lat="59.8497366" lon="17.6437467">
        <ele>8.78918</ele>
        <time>2014-06-01T10:31:33Z</time>
      </trkpt>
      <trkpt lat="59.849692" lon="17.6437721">
        <ele>8.78918</ele>
        <time>2014-06-01T10:31:34Z</time>
      </trkpt>
      <trkpt lat="59.849647" lon="17.643788">
        <ele>9.2699</ele>
        <time>2014-06-01T10:31:35Z</time>
      </trkpt>
      <trkpt lat="59.8496046" lon="17.6438046">
        <ele>9.2699</ele>
        <time>2014-06-01T10:31:36Z</time>
      </trkpt>
      <trkpt lat="59.8495646" lon="17.6438251">
        <ele>9.75061</ele>
        <time>2014-06-01T10:31:37Z</time>
      </trkpt>
      <trkpt lat="59.8495268" lon="17.6438474">
        <ele>10.2312</ele>
        <time>2014-06-01T10:31:38Z</time>
      </trkpt>
      <trkpt lat="59.8494904" lon="17.6438696">
        <ele>10.7118</ele>
        <time>2014-06-01T10:31:39Z</time>
      </trkpt>
      <trkpt lat="59.8494551" lon="17.6438947">
        <ele>10.7118</ele>
        <time>2014-06-01T10:31:40Z</time>
      </trkpt>
      <trkpt lat="59.8494204" lon="17.6439182">
        <ele>11.1925</ele>
        <time>2014-06-01T10:31:41Z</time>
      </trkpt>
      <trkpt lat="59.8493854" lon="17.6439378">
        <ele>10.7118</ele>
        <time>2014-06-01T10:31:42Z</time>
      </trkpt>
      <trkpt lat="59.8493512" lon="17.643955">
        <ele>10.7118</ele>
        <time>2014-06-01T10:31:43Z</time>
      </trkpt>
      <trkpt lat="59.8493153" lon="17.6439716">
        <ele>11.1925</ele>
        <time>2014-06-01T10:31:44Z</time>
      </trkpt>
      <trkpt lat="59.8492791" lon="17.6439872">
        <ele>11.1925</ele>
        <time>2014-06-01T10:31:45Z</time>
      </trkpt>
      <trkpt lat="59.8492433" lon="17.6440006">
        <ele>11.6732</ele>
        <time>2014-06-01T10:31:46Z</time>
      </trkpt>
      <trkpt lat="59.8492093" lon="17.6440104">
        <ele>11.6732</ele>
        <time>2014-06-01T10:31:47Z</time>
      </trkpt>
      <trkpt lat="59.8491754" lon="17.644016">
        <ele>11.6732</ele>
        <time>2014-06-01T10:31:48Z</time>
      </trkpt>
      <trkpt lat="59.8491409" lon="17.6440213">
        <ele>11.6732</ele>
        <time>2014-06-01T10:31:49Z</time>
      </trkpt>
      <trkpt lat="59.8491062" lon="17.6440253">
        <ele>11.6732</ele>
        <time>2014-06-01T10:31:50Z</time>
      </trkpt>
      <trkpt lat="59.8490724" lon="17.6440268">
        <ele>11.6732</ele>
        <time>2014-06-01T10:31:51Z</time>
      </trkpt>
      <trkpt lat="59.8490388" lon="17.6440317">
        <ele>11.6732</ele>
        <time>2014-06-01T10:31:52Z</time>
      </trkpt>
      <trkpt lat="59.8490043" lon="17.6440393">
        <ele>11.6732</ele>
        <time>2014-06-01T10:31:53Z</time>
      </trkpt>
      <trkpt lat="59.8489694" lon="17.6440452">
        <ele>11.6732</ele>
        <time>2014-06-01T10:31:54Z</time>
      </trkpt>
      <trkpt lat="59.8489341" lon="17.6440519">
        <ele>11.6732</ele>
        <time>2014-06-01T10:31:55Z</time>
      </trkpt>
      <trkpt lat="59.848898" lon="17.6440577">
        <ele>11.6732</ele>
        <time>2014-06-01T10:31:56Z</time>
      </trkpt>
      <trkpt lat="59.8488607" lon="17.6440585">
        <ele>11.6732</ele>
        <time>2014-06-01T10:31:57Z</time>
      </trkpt>
      <trkpt lat="59.8488235" lon="17.6440555">
        <ele>11.6732</ele>
        <time>2014-06-01T10:31:58Z</time>
      </trkpt>
      <trkpt lat="59.8487866" lon="17.644052">
        <ele>11.6732</ele>
        <time>2014-06-01T10:31:59Z</time>
      </trkpt>
      <trkpt lat="59.8487476" lon="17.6440493">
        <ele>12.1538</ele>
        <time>2014-06-01T10:32:00Z</time>
      </trkpt>
      <trkpt lat="59.8487066" lon="17.6440451">
        <ele>12.1538</ele>
        <time>2014-06-01T10:32:01Z</time>
      </trkpt>
      <trkpt lat="59.848666" lon="17.6440363">
        <ele>12.6344</ele>
        <time>2014-06-01T10:32:02Z</time>
      </trkpt>
      <trkpt lat="59.848627" lon="17.6440218">
        <ele>13.1151</ele>
        <time>2014-06-01T10:32:03Z</time>
      </trkpt>
      <trkpt lat="59.8485892" lon="17.6440021">
        <ele>13.1151</ele>
        <time>2014-06-01T10:32:04Z</time>
      </trkpt>
      <trkpt lat="59.8485535" lon="17.6439773">
        <ele>13.5958</ele>
        <time>2014-06-01T10:32:05Z</time>
      </trkpt>
      <trkpt lat="59.8485203" lon="17.6439514">
        <ele>13.5958</ele>
        <time>2014-06-01T10:32:06Z</time>
      </trkpt>
      <trkpt lat="59.8484897" lon="17.6439447">
        <ele>13.5958</ele>
        <time>2014-06-01T10:32:07Z</time>
      </trkpt>
      <trkpt lat="59.8484628" lon="17.6439688">
        <ele>13.5958</ele>
        <time>2014-06-01T10:32:08Z</time>
      </trkpt>
      <trkpt lat="59.8484378" lon="17.6440107">
        <ele>14.0764</ele>
        <time>2014-06-01T10:32:09Z</time>
      </trkpt>
      <trkpt lat="59.84841" lon="17.6440446">
        <ele>14.0764</ele>
        <time>2014-06-01T10:32:10Z</time>
      </trkpt>
      <trkpt lat="59.8483847" lon="17.6440587">
        <ele>14.0764</ele>
        <time>2014-06-01T10:32:11Z</time>
      </trkpt>
      <trkpt lat="59.8483653" lon="17.6440706">
        <ele>14.0764</ele>
        <time>2014-06-01T10:32:12Z</time>
      </trkpt>
      <trkpt lat="59.8483468" lon="17.6440867">
        <ele>13.5958</ele>
        <time>2014-06-01T10:32:13Z</time>
      </trkpt>
      <trkpt lat="59.8483287" lon="17.6441057">
        <ele>13.5958</ele>
        <time>2014-06-01T10:32:14Z</time>
      </trkpt>
      <trkpt lat="59.8483112" lon="17.6441228">
        <ele>13.5958</ele>
        <time>2014-06-01T10:32:15Z</time>
      </trkpt>
      <trkpt lat="59.8482924" lon="17.644141">
        <ele>13.1151</ele>
        <time>2014-06-01T10:32:16Z</time>
      </trkpt>
      <trkpt lat="59.8482732" lon="17.644161">
        <ele>13.1151</ele>
        <time>2014-06-01T10:32:17Z</time>
      </trkpt>
      <trkpt lat="59.848254" lon="17.6441742">
        <ele>13.1151</ele>
        <time>2014-06-01T10:32:18Z</time>
      </trkpt>
      <trkpt lat="59.8482373" lon="17.6441833">
        <ele>12.6344</ele>
        <time>2014-06-01T10:32:19Z</time>
      </trkpt>
      <trkpt lat="59.8482239" lon="17.6441911">
        <ele>12.6344</ele>
        <time>2014-06-01T10:32:20Z</time>
      </trkpt>
      <trkpt lat="59.8482122" lon="17.6441972">
        <ele>12.6344</ele>
        <time>2014-06-01T10:32:21Z</time>
      </trkpt>
      <trkpt lat="59.8482011" lon="17.6442005">
        <ele>12.6344</ele>
        <time>2014-06-01T10:32:22Z</time>
      </trkpt>
      <trkpt lat="59.8481858" lon="17.6442119">
        <ele>12.6344</ele>
        <time>2014-06-01T10:32:23Z</time>
      </trkpt>
      <trkpt lat="59.848172" lon="17.6442216">
        <ele>12.1538</ele>
        <time>2014-06-01T10:32:24Z</time>
      </trkpt>
      <trkpt lat="59.8481597" lon="17.6442326">
        <ele>12.1538</ele>
        <time>2014-06-01T10:32:25Z</time>
      </trkpt>
      <trkpt lat="59.8481489" lon="17.6442402">
        <ele>12.6344</ele>
        <time>2014-06-01T10:32:26Z</time>
      </trkpt>
      <trkpt lat="59.8481394" lon="17.6442477">
        <ele>13.1151</ele>
        <time>2014-06-01T10:32:27Z</time>
      </trkpt>
      <trkpt lat="59.8481312" lon="17.6442514">
        <ele>12.6344</ele>
        <time>2014-06-01T10:32:28Z</time>
      </trkpt>
      <trkpt lat="59.8481235" lon="17.6442584">
        <ele>12.6344</ele>
        <time>2014-06-01T10:32:29Z</time>
      </trkpt>
      <trkpt lat="59.8481147" lon="17.6442705">
        <ele>12.6344</ele>
        <time>2014-06-01T10:32:30Z</time>
      </trkpt>
      <trkpt lat="59.8481037" lon="17.6442798">
        <ele>12.6344</ele>
        <time>2014-06-01T10:32:31Z</time>
      </trkpt>
      <trkpt lat="59.848093" lon="17.6442875">
        <ele>12.1538</ele>
        <time>2014-06-01T10:32:32Z</time>
      </trkpt>
      <trkpt lat="59.848081" lon="17.6442912">
        <ele>12.1538</ele>
        <time>2014-06-01T10:32:33Z</time>
      </trkpt>
      <trkpt lat="59.8480684" lon="17.6442956">
        <ele>12.6344</ele>
        <time>2014-06-01T10:32:34Z</time>
      </trkpt>
      <trkpt lat="59.8480544" lon="17.6443097">
        <ele>12.6344</ele>
        <time>2014-06-01T10:32:35Z</time>
      </trkpt>
      <trkpt lat="59.8480396" lon="17.6443249">
        <ele>13.1151</ele>
        <time>2014-06-01T10:32:36Z</time>
      </trkpt>
      <trkpt lat="59.8480256" lon="17.6443395">
        <ele>13.5958</ele>
        <time>2014-06-01T10:32:37Z</time>
      </trkpt>
      <trkpt lat="59.8480101" lon="17.6443581">
        <ele>14.0764</ele>
        <time>2014-06-01T10:32:38Z</time>
      </trkpt>
      <trkpt lat="59.847998" lon="17.6443687">
        <ele>14.0764</ele>
        <time>2014-06-01T10:32:39Z</time>
      </trkpt>
      <trkpt lat="59.8479847" lon="17.6443759">
        <ele>14.0764</ele>
        <time>2014-06-01T10:32:40Z</time>
      </trkpt>
      <trkpt lat="59.8479744" lon="17.6443778">
        <ele>14.0764</ele>
        <time>2014-06-01T10:32:41Z</time>
      </trkpt>
      <trkpt lat="59.847965" lon="17.6443833">
        <ele>14.557</ele>
        <time>2014-06-01T10:32:42Z</time>
      </trkpt>
      <trkpt lat="59.8479542" lon="17.6443907">
        <ele>14.557</ele>
        <time>2014-06-01T10:32:43Z</time>
      </trkpt>
      <trkpt lat="59.8479434" lon="17.6444006">
        <ele>14.557</ele>
        <time>2014-06-01T10:32:44Z</time>
      </trkpt>
      <trkpt lat="59.8479288" lon="17.644405">
        <ele>14.0764</ele>
        <time>2014-06-01T10:32:45Z</time>
      </trkpt>
      <trkpt lat="59.8479131" lon="17.6444092">
        <ele>13.5958</ele>
        <time>2014-06-01T10:32:46Z</time>
      </trkpt>
      <trkpt lat="59.8478992" lon="17.644411">
        <ele>13.5958</ele>
        <time>2014-06-01T10:32:47Z</time>
      </trkpt>
      <trkpt lat="59.8478857" lon="17.644415">
        <ele>13.5958</ele>
        <time>2014-06-01T10:32:48Z</time>
      </trkpt>
      <trkpt lat="59.8478712" lon="17.644422">
        <ele>13.5958</ele>
        <time>2014-06-01T10:32:49Z</time>
      </trkpt>
      <trkpt lat="59.8478567" lon="17.6444337">
        <ele>13.5958</ele>
        <time>2014-06-01T10:32:50Z</time>
      </trkpt>
      <trkpt lat="59.8478397" lon="17.6444451">
        <ele>13.5958</ele>
        <time>2014-06-01T10:32:51Z</time>
      </trkpt>
      <trkpt lat="59.847822" lon="17.6444547">
        <ele>13.5958</ele>
        <time>2014-06-01T10:32:52Z</time>
      </trkpt>
      <trkpt lat="59.8478051" lon="17.6444642">
        <ele>13.5958</ele>
        <time>2014-06-01T10:32:53Z</time>
      </trkpt>
      <trkpt lat="59.8477846" lon="17.6444764">
        <ele>14.0764</ele>
        <time>2014-06-01T10:32:54Z</time>
      </trkpt>
      <trkpt lat="59.8477619" lon="17.6444847">
        <ele>14.557</ele>
        <time>2014-06-01T10:32:55Z</time>
      </trkpt>
      <trkpt lat="59.8477407" lon="17.6444918">
        <ele>15.5184</ele>
        <time>2014-06-01T10:32:56Z</time>
      </trkpt>
      <trkpt lat="59.8477245" lon="17.6444985">
        <ele>15.999</ele>
        <time>2014-06-01T10:32:57Z</time>
      </trkpt>
      <trkpt lat="59.8477089" lon="17.6445016">
        <ele>15.999</ele>
        <time>2014-06-01T10:32:58Z</time>
      </trkpt>
      <trkpt lat="59.8476916" lon="17.6445123">
        <ele>16.9604</ele>
        <time>2014-06-01T10:32:59Z</time>
      </trkpt>
      <trkpt lat="59.8476747" lon="17.6445192">
        <ele>17.4412</ele>
        <time>2014-06-01T10:33:00Z</time>
      </trkpt>
      <trkpt lat="59.847654" lon="17.6445222">
        <ele>17.9218</ele>
        <time>2014-06-01T10:33:01Z</time>
      </trkpt>
      <trkpt lat="59.8476371" lon="17.6445218">
        <ele>18.4023</ele>
        <time>2014-06-01T10:33:02Z</time>
      </trkpt>
      <trkpt lat="59.8476278" lon="17.6445177">
        <ele>18.4023</ele>
        <time>2014-06-01T10:33:03Z</time>
      </trkpt>
      <trkpt lat="59.847618" lon="17.644516">
        <ele>18.8831</ele>
        <time>2014-06-01T10:33:04Z</time>
      </trkpt>
      <trkpt lat="59.8476056" lon="17.6445153">
        <ele>18.8831</ele>
        <time>2014-06-01T10:33:05Z</time>
      </trkpt>
      <trkpt lat="59.8475898" lon="17.6445218">
        <ele>19.3638</ele>
        <time>2014-06-01T10:33:06Z</time>
      </trkpt>
      <trkpt lat="59.8475744" lon="17.6445254">
        <ele>19.3638</ele>
        <time>2014-06-01T10:33:07Z</time>
      </trkpt>
      <trkpt lat="59.8475594" lon="17.6445264">
        <ele>20.325</ele>
        <time>2014-06-01T10:33:08Z</time>
      </trkpt>
      <trkpt lat="59.8475458" lon="17.6445267">
        <ele>20.8057</ele>
        <time>2014-06-01T10:33:09Z</time>
      </trkpt>
      <trkpt lat="59.847534" lon="17.644527">
        <ele>21.2864</ele>
        <time>2014-06-01T10:33:10Z</time>
      </trkpt>
      <trkpt lat="59.8475221" lon="17.6445289">
        <ele>21.767</ele>
        <time>2014-06-01T10:33:11Z</time>
      </trkpt>
      <trkpt lat="59.847508" lon="17.6445243">
        <ele>22.2476</ele>
        <time>2014-06-01T10:33:12Z</time>
      </trkpt>
      <trkpt lat="59.8474935" lon="17.644522">
        <ele>22.2476</ele>
        <time>2014-06-01T10:33:13Z</time>
      </trkpt>
      <trkpt lat="59.8474779" lon="17.6445237">
        <ele>22.2476</ele>
        <time>2014-06-01T10:33:14Z</time>
      </trkpt>
      <trkpt lat="59.8474619" lon="17.6445258">
        <ele>22.2476</ele>
        <time>2014-06-01T10:33:15Z</time>
      </trkpt>
      <trkpt lat="59.8474461" lon="17.6445268">
        <ele>22.2476</ele>
        <time>2014-06-01T10:33:16Z</time>
      </trkpt>
      <trkpt lat="59.847432" lon="17.6445282">
        <ele>21.767</ele>
        <time>2014-06-01T10:33:17Z</time>
      </trkpt>
      <trkpt lat="59.8474179" lon="17.6445322">
        <ele>21.767</ele>
        <time>2014-06-01T10:33:18Z</time>
      </trkpt>
      <trkpt lat="59.847404" lon="17.6445336">
        <ele>21.767</ele>
        <time>2014-06-01T10:33:19Z</time>
      </trkpt>
      <trkpt lat="59.8473912" lon="17.644529">
        <ele>22.2476</ele>
        <time>2014-06-01T10:33:20Z</time>
      </trkpt>
      <trkpt lat="59.8473789" lon="17.6445217">
        <ele>22.2476</ele>
        <time>2014-06-01T10:33:21Z</time>
      </trkpt>
      <trkpt lat="59.8473673" lon="17.6445128">
        <ele>23.209</ele>
        <time>2014-06-01T10:33:22Z</time>
      </trkpt>
      <trkpt lat="59.8473557" lon="17.6445055">
        <ele>24.1703</ele>
        <time>2014-06-01T10:33:23Z</time>
      </trkpt>
      <trkpt lat="59.8473468" lon="17.6445011">
        <ele>23.6896</ele>
        <time>2014-06-01T10:33:24Z</time>
      </trkpt>
      <trkpt lat="59.8473375" lon="17.6445001">
        <ele>23.6896</ele>
        <time>2014-06-01T10:33:25Z</time>
      </trkpt>
      <trkpt lat="59.8473268" lon="17.6444977">
        <ele>24.1703</ele>
        <time>2014-06-01T10:33:26Z</time>
      </trkpt>
      <trkpt lat="59.8473154" lon="17.6444913">
        <ele>24.1703</ele>
        <time>2014-06-01T10:33:27Z</time>
      </trkpt>
      <trkpt lat="59.8473035" lon="17.6444834">
        <ele>24.1703</ele>
        <time>2014-06-01T10:33:28Z</time>
      </trkpt>
      <trkpt lat="59.8472899" lon="17.6444773">
        <ele>24.1703</ele>
        <time>2014-06-01T10:33:29Z</time>
      </trkpt>
      <trkpt lat="59.847279" lon="17.6444673">
        <ele>24.1703</ele>
        <time>2014-06-01T10:33:30Z</time>
      </trkpt>
      <trkpt lat="59.8472696" lon="17.6444576">
        <ele>24.1703</ele>
        <time>2014-06-01T10:33:31Z</time>
      </trkpt>
      <trkpt lat="59.8472603" lon="17.6444524">
        <ele>24.651</ele>
        <time>2014-06-01T10:33:32Z</time>
      </trkpt>
      <trkpt lat="59.8472492" lon="17.6444467">
        <ele>25.1317</ele>
        <time>2014-06-01T10:33:33Z</time>
      </trkpt>
      <trkpt lat="59.8472393" lon="17.6444435">
        <ele>25.1317</ele>
        <time>2014-06-01T10:33:34Z</time>
      </trkpt>
      <trkpt lat="59.8472289" lon="17.6444476">
        <ele>26.0929</ele>
        <time>2014-06-01T10:33:35Z</time>
      </trkpt>
      <trkpt lat="59.8472171" lon="17.6444516">
        <ele>26.0929</ele>
        <time>2014-06-01T10:33:36Z</time>
      </trkpt>
      <trkpt lat="59.8472051" lon="17.6444538">
        <ele>26.0929</ele>
        <time>2014-06-01T10:33:37Z</time>
      </trkpt>
      <trkpt lat="59.8471921" lon="17.6444549">
        <ele>26.0929</ele>
        <time>2014-06-01T10:33:38Z</time>
      </trkpt>
      <trkpt lat="59.8471778" lon="17.6444559">
        <ele>26.0929</ele>
        <time>2014-06-01T10:33:39Z</time>
      </trkpt>
      <trkpt lat="59.8471611" lon="17.6444565">
        <ele>26.0929</ele>
        <time>2014-06-01T10:33:40Z</time>
      </trkpt>
      <trkpt lat="59.8471435" lon="17.6444601">
        <ele>26.5736</ele>
        <time>2014-06-01T10:33:41Z</time>
      </trkpt>
      <trkpt lat="59.8471238" lon="17.6444575">
        <ele>26.5736</ele>
        <time>2014-06-01T10:33:42Z</time>
      </trkpt>
      <trkpt lat="59.8471061" lon="17.6444507">
        <ele>27.0543</ele>
        <time>2014-06-01T10:33:43Z</time>
      </trkpt>
      <trkpt lat="59.8470911" lon="17.6444434">
        <ele>27.0543</ele>
        <time>2014-06-01T10:33:44Z</time>
      </trkpt>
      <trkpt lat="59.847075" lon="17.6444353">
        <ele>27.0543</ele>
        <time>2014-06-01T10:33:45Z</time>
      </trkpt>
      <trkpt lat="59.8470595" lon="17.6444249">
        <ele>27.0543</ele>
        <time>2014-06-01T10:33:46Z</time>
      </trkpt>
      <trkpt lat="59.8470407" lon="17.6444182">
        <ele>27.0543</ele>
        <time>2014-06-01T10:33:47Z</time>
      </trkpt>
      <trkpt lat="59.8470217" lon="17.6444129">
        <ele>27.5349</ele>
        <time>2014-06-01T10:33:48Z</time>
      </trkpt>
      <trkpt lat="59.8470034" lon="17.6444075">
        <ele>27.5349</ele>
        <time>2014-06-01T10:33:49Z</time>
      </trkpt>
      <trkpt lat="59.8469849" lon="17.6444015">
        <ele>27.5349</ele>
        <time>2014-06-01T10:33:50Z</time>
      </trkpt>
      <trkpt lat="59.8469658" lon="17.6443983">
        <ele>28.0155</ele>
        <time>2014-06-01T10:33:51Z</time>
      </trkpt>
      <trkpt lat="59.8469456" lon="17.6443948">
        <ele>28.0155</ele>
        <time>2014-06-01T10:33:52Z</time>
      </trkpt>
      <trkpt lat="59.8469244" lon="17.6443892">
        <ele>28.4962</ele>
        <time>2014-06-01T10:33:53Z</time>
      </trkpt>
      <trkpt lat="59.846904" lon="17.6443806">
        <ele>28.9769</ele>
        <time>2014-06-01T10:33:54Z</time>
      </trkpt>
      <trkpt lat="59.8468849" lon="17.6443778">
        <ele>28.9769</ele>
        <time>2014-06-01T10:33:55Z</time>
      </trkpt>
      <trkpt lat="59.8468677" lon="17.644376">
        <ele>28.9769</ele>
        <time>2014-06-01T10:33:56Z</time>
      </trkpt>
      <trkpt lat="59.8468475" lon="17.6443741">
        <ele>29.4575</ele>
        <time>2014-06-01T10:33:57Z</time>
      </trkpt>
      <trkpt lat="59.8468239" lon="17.6443775">
        <ele>29.9381</ele>
        <time>2014-06-01T10:33:58Z</time>
      </trkpt>
      <trkpt lat="59.8468039" lon="17.6443726">
        <ele>29.9381</ele>
        <time>2014-06-01T10:33:59Z</time>
      </trkpt>
      <trkpt lat="59.8467843" lon="17.6443672">
        <ele>29.4575</ele>
        <time>2014-06-01T10:34:00Z</time>
      </trkpt>
      <trkpt lat="59.8467633" lon="17.6443684">
        <ele>29.9381</ele>
        <time>2014-06-01T10:34:01Z</time>
      </trkpt>
      <trkpt lat="59.8467416" lon="17.6443756">
        <ele>30.4188</ele>
        <time>2014-06-01T10:34:02Z</time>
      </trkpt>
      <trkpt lat="59.8467182" lon="17.6443844">
        <ele>30.8995</ele>
        <time>2014-06-01T10:34:03Z</time>
      </trkpt>
      <trkpt lat="59.8466907" lon="17.6443939">
        <ele>30.8995</ele>
        <time>2014-06-01T10:34:04Z</time>
      </trkpt>
      <trkpt lat="59.8466605" lon="17.6444079">
        <ele>31.8607</ele>
        <time>2014-06-01T10:34:05Z</time>
      </trkpt>
      <trkpt lat="59.8466317" lon="17.6444269">
        <ele>32.3416</ele>
        <time>2014-06-01T10:34:06Z</time>
      </trkpt>
      <trkpt lat="59.8466035" lon="17.64445">
        <ele>32.3416</ele>
        <time>2014-06-01T10:34:07Z</time>
      </trkpt>
      <trkpt lat="59.8465768" lon="17.6444752">
        <ele>32.3416</ele>
        <time>2014-06-01T10:34:08Z</time>
      </trkpt>
      <trkpt lat="59.8465514" lon="17.6445018">
        <ele>32.8223</ele>
        <time>2014-06-01T10:34:09Z</time>
      </trkpt>
      <trkpt lat="59.8465234" lon="17.644527">
        <ele>32.8223</ele>
        <time>2014-06-01T10:34:10Z</time>
      </trkpt>
      <trkpt lat="59.8464973" lon="17.6445569">
        <ele>32.3416</ele>
        <time>2014-06-01T10:34:11Z</time>
      </trkpt>
      <trkpt lat="59.8464726" lon="17.6445941">
        <ele>32.8223</ele>
        <time>2014-06-01T10:34:12Z</time>
      </trkpt>
      <trkpt lat="59.8464453" lon="17.6446325">
        <ele>32.8223</ele>
        <time>2014-06-01T10:34:13Z</time>
      </trkpt>
      <trkpt lat="59.846418" lon="17.6446743">
        <ele>32.8223</ele>
        <time>2014-06-01T10:34:14Z</time>
      </trkpt>
      <trkpt lat="59.8463895" lon="17.644714">
        <ele>32.8223</ele>
        <time>2014-06-01T10:34:15Z</time>
      </trkpt>
      <trkpt lat="59.8463608" lon="17.6447476">
        <ele>32.8223</ele>
        <time>2014-06-01T10:34:16Z</time>
      </trkpt>
      <trkpt lat="59.8463348" lon="17.6447792">
        <ele>32.8223</ele>
        <time>2014-06-01T10:34:17Z</time>
      </trkpt>
      <trkpt lat="59.8463105" lon="17.6448118">
        <ele>33.3029</ele>
        <time>2014-06-01T10:34:18Z</time>
      </trkpt>
      <trkpt lat="59.8462847" lon="17.6448435">
        <ele>33.7834</ele>
        <time>2014-06-01T10:34:19Z</time>
      </trkpt>
      <trkpt lat="59.8462628" lon="17.6448746">
        <ele>34.2642</ele>
        <time>2014-06-01T10:34:20Z</time>
      </trkpt>
      <trkpt lat="59.846241" lon="17.6449067">
        <ele>34.7449</ele>
        <time>2014-06-01T10:34:21Z</time>
      </trkpt>
      <trkpt lat="59.8462165" lon="17.6449321">
        <ele>35.2255</ele>
        <time>2014-06-01T10:34:22Z</time>
      </trkpt>
      <trkpt lat="59.8461909" lon="17.6449483">
        <ele>35.2255</ele>
        <time>2014-06-01T10:34:23Z</time>
      </trkpt>
      <trkpt lat="59.8461629" lon="17.6449631">
        <ele>35.2255</ele>
        <time>2014-06-01T10:34:24Z</time>
      </trkpt>
      <trkpt lat="59.8461353" lon="17.6449796">
        <ele>35.7061</ele>
        <time>2014-06-01T10:34:25Z</time>
      </trkpt>
      <trkpt lat="59.8461125" lon="17.6449998">
        <ele>36.1868</ele>
        <time>2014-06-01T10:34:26Z</time>
      </trkpt>
      <trkpt lat="59.846093" lon="17.6450302">
        <ele>36.1868</ele>
        <time>2014-06-01T10:34:27Z</time>
      </trkpt>
      <trkpt lat="59.8460691" lon="17.6450676">
        <ele>36.1868</ele>
        <time>2014-06-01T10:34:28Z</time>
      </trkpt>
      <trkpt lat="59.8460396" lon="17.6450946">
        <ele>36.6675</ele>
        <time>2014-06-01T10:34:29Z</time>
      </trkpt>
      <trkpt lat="59.8460129" lon="17.645109">
        <ele>36.6675</ele>
        <time>2014-06-01T10:34:30Z</time>
      </trkpt>
      <trkpt lat="59.8459824" lon="17.6451256">
        <ele>36.6675</ele>
        <time>2014-06-01T10:34:31Z</time>
      </trkpt>
      <trkpt lat="59.8459432" lon="17.645149">
        <ele>36.6675</ele>
        <time>2014-06-01T10:34:32Z</time>
      </trkpt>
      <trkpt lat="59.8459016" lon="17.6451636">
        <ele>36.6675</ele>
        <time>2014-06-01T10:34:33Z</time>
      </trkpt>
      <trkpt lat="59.8458509" lon="17.645189">
        <ele>36.6675</ele>
        <time>2014-06-01T10:34:34Z</time>
      </trkpt>
      <trkpt lat="59.8457934" lon="17.6452195">
        <ele>36.1868</ele>
        <time>2014-06-01T10:34:35Z</time>
      </trkpt>
      <trkpt lat="59.8457296" lon="17.6452446">
        <ele>35.2255</ele>
        <time>2014-06-01T10:34:36Z</time>
      </trkpt>
      <trkpt lat="59.8456618" lon="17.6452649">
        <ele>35.2255</ele>
        <time>2014-06-01T10:34:37Z</time>
      </trkpt>
      <trkpt lat="59.8455971" lon="17.645277">
        <ele>34.7449</ele>
        <time>2014-06-01T10:34:38Z</time>
      </trkpt>
      <trkpt lat="59.8455344" lon="17.6452743">
        <ele>34.2642</ele>
        <time>2014-06-01T10:34:39Z</time>
      </trkpt>
      <trkpt lat="59.8454739" lon="17.6452591">
        <ele>34.2642</ele>
        <time>2014-06-01T10:34:40Z</time>
      </trkpt>
      <trkpt lat="59.8454105" lon="17.6452443">
        <ele>33.3029</ele>
        <time>2014-06-01T10:34:41Z</time>
      </trkpt>
      <trkpt lat="59.8453449" lon="17.6452299">
        <ele>32.8223</ele>
        <time>2014-06-01T10:34:42Z</time>
      </trkpt>
      <trkpt lat="59.8452745" lon="17.6452133">
        <ele>32.3416</ele>
        <time>2014-06-01T10:34:43Z</time>
      </trkpt>
      <trkpt lat="59.845203" lon="17.6451892">
        <ele>31.8607</ele>
        <time>2014-06-01T10:34:44Z</time>
      </trkpt>
      <trkpt lat="59.8451309" lon="17.6451589">
        <ele>31.3801</ele>
        <time>2014-06-01T10:34:45Z</time>
      </trkpt>
      <trkpt lat="59.8450662" lon="17.6451303">
        <ele>30.8995</ele>
        <time>2014-06-01T10:34:46Z</time>
      </trkpt>
      <trkpt lat="59.8450036" lon="17.6451116">
        <ele>29.9381</ele>
        <time>2014-06-01T10:34:47Z</time>
      </trkpt>
      <trkpt lat="59.8449353" lon="17.6451075">
        <ele>29.4575</ele>
        <time>2014-06-01T10:34:48Z</time>
      </trkpt>
      <trkpt lat="59.8448689" lon="17.6451157">
        <ele>28.4962</ele>
        <time>2014-06-01T10:34:49Z</time>
      </trkpt>
      <trkpt lat="59.8448084" lon="17.6451312">
        <ele>28.0155</ele>
        <time>2014-06-01T10:34:50Z</time>
      </trkpt>
      <trkpt lat="59.844745" lon="17.6451763">
        <ele>28.0155</ele>
        <time>2014-06-01T10:34:51Z</time>
      </trkpt>
      <trkpt lat="59.8446891" lon="17.645241">
        <ele>27.0543</ele>
        <time>2014-06-01T10:34:52Z</time>
      </trkpt>
      <trkpt lat="59.8446352" lon="17.6453116">
        <ele>26.5736</ele>
        <time>2014-06-01T10:34:53Z</time>
      </trkpt>
      <trkpt lat="59.8445805" lon="17.6453965">
        <ele>26.0929</ele>
        <time>2014-06-01T10:34:54Z</time>
      </trkpt>
      <trkpt lat="59.8445235" lon="17.6455011">
        <ele>24.651</ele>
        <time>2014-06-01T10:34:55Z</time>
      </trkpt>
      <trkpt lat="59.8444674" lon="17.6456067">
        <ele>23.209</ele>
        <time>2014-06-01T10:34:56Z</time>
      </trkpt>
      <trkpt lat="59.8444104" lon="17.6457183">
        <ele>22.2476</ele>
        <time>2014-06-01T10:34:57Z</time>
      </trkpt>
      <trkpt lat="59.8443522" lon="17.6458327">
        <ele>20.8057</ele>
        <time>2014-06-01T10:34:58Z</time>
      </trkpt>
      <trkpt lat="59.8442921" lon="17.6459394">
        <ele>19.8444</ele>
        <time>2014-06-01T10:34:59Z</time>
      </trkpt>
      <trkpt lat="59.8442305" lon="17.6460457">
        <ele>19.3638</ele>
        <time>2014-06-01T10:35:00Z</time>
      </trkpt>
      <trkpt lat="59.8441602" lon="17.6461684">
        <ele>17.9218</ele>
        <time>2014-06-01T10:35:01Z</time>
      </trkpt>
      <trkpt lat="59.8440846" lon="17.6462762">
        <ele>16.9604</ele>
        <time>2014-06-01T10:35:02Z</time>
      </trkpt>
      <trkpt lat="59.8440223" lon="17.6463783">
        <ele>16.4797</ele>
        <time>2014-06-01T10:35:03Z</time>
      </trkpt>
      <trkpt lat="59.8439649" lon="17.6464658">
        <ele>15.5184</ele>
        <time>2014-06-01T10:35:04Z</time>
      </trkpt>
      <trkpt lat="59.8439193" lon="17.6465533">
        <ele>14.557</ele>
        <time>2014-06-01T10:35:05Z</time>
      </trkpt>
      <trkpt lat="59.8438692" lon="17.6466393">
        <ele>13.5958</ele>
        <time>2014-06-01T10:35:06Z</time>
      </trkpt>
      <trkpt lat="59.843824" lon="17.6467476">
        <ele>13.1151</ele>
        <time>2014-06-01T10:35:07Z</time>
      </trkpt>
      <trkpt lat="59.843792" lon="17.6468429">
        <ele>12.6344</ele>
        <time>2014-06-01T10:35:08Z</time>
      </trkpt>
      <trkpt lat="59.8437588" lon="17.646924">
        <ele>13.1151</ele>
        <time>2014-06-01T10:35:09Z</time>
      </trkpt>
      <trkpt lat="59.843718" lon="17.6469738">
        <ele>13.1151</ele>
        <time>2014-06-01T10:35:10Z</time>
      </trkpt>
      <trkpt lat="59.8436586" lon="17.6470201">
        <ele>13.5958</ele>
        <time>2014-06-01T10:35:11Z</time>
      </trkpt>
      <trkpt lat="59.8436111" lon="17.6470302">
        <ele>13.5958</ele>
        <time>2014-06-01T10:35:12Z</time>
      </trkpt>
      <trkpt lat="59.8435783" lon="17.646988">
        <ele>13.1151</ele>
        <time>2014-06-01T10:35:13Z</time>
      </trkpt>
      <trkpt lat="59.8435548" lon="17.6469231">
        <ele>12.6344</ele>
        <time>2014-06-01T10:35:14Z</time>
      </trkpt>
      <trkpt lat="59.8435317" lon="17.6468484">
        <ele>12.6344</ele>
        <time>2014-06-01T10:35:15Z</time>
      </trkpt>
      <trkpt lat="59.8435063" lon="17.6467764">
        <ele>12.6344</ele>
        <time>2014-06-01T10:35:16Z</time>
      </trkpt>
      <trkpt lat="59.8434759" lon="17.6467134">
        <ele>12.6344</ele>
        <time>2014-06-01T10:35:17Z</time>
      </trkpt>
      <trkpt lat="59.8434439" lon="17.6466549">
        <ele>13.1151</ele>
        <time>2014-06-01T10:35:18Z</time>
      </trkpt>
      <trkpt lat="59.8434102" lon="17.6466025">
        <ele>13.5958</ele>
        <time>2014-06-01T10:35:19Z</time>
      </trkpt>
      <trkpt lat="59.8433737" lon="17.6465555">
        <ele>13.5958</ele>
        <time>2014-06-01T10:35:20Z</time>
      </trkpt>
      <trkpt lat="59.8433364" lon="17.646514">
        <ele>13.5958</ele>
        <time>2014-06-01T10:35:21Z</time>
      </trkpt>
      <trkpt lat="59.8432989" lon="17.6464731">
        <ele>13.5958</ele>
        <time>2014-06-01T10:35:22Z</time>
      </trkpt>
      <trkpt lat="59.8432621" lon="17.6464316">
        <ele>14.0764</ele>
        <time>2014-06-01T10:35:23Z</time>
      </trkpt>
      <trkpt lat="59.8432273" lon="17.6463922">
        <ele>14.0764</ele>
        <time>2014-06-01T10:35:24Z</time>
      </trkpt>
      <trkpt lat="59.8431984" lon="17.6463537">
        <ele>13.5958</ele>
        <time>2014-06-01T10:35:25Z</time>
      </trkpt>
      <trkpt lat="59.8431724" lon="17.646313">
        <ele>13.5958</ele>
        <time>2014-06-01T10:35:26Z</time>
      </trkpt>
      <trkpt lat="59.8431491" lon="17.6462706">
        <ele>13.5958</ele>
        <time>2014-06-01T10:35:27Z</time>
      </trkpt>
      <trkpt lat="59.8431287" lon="17.6462352">
        <ele>13.1151</ele>
        <time>2014-06-01T10:35:28Z</time>
      </trkpt>
      <trkpt lat="59.8431106" lon="17.6462121">
        <ele>12.6344</ele>
        <time>2014-06-01T10:35:29Z</time>
      </trkpt>
      <trkpt lat="59.8430934" lon="17.6461944">
        <ele>12.6344</ele>
        <time>2014-06-01T10:35:30Z</time>
      </trkpt>
      <trkpt lat="59.8430743" lon="17.6461748">
        <ele>12.6344</ele>
        <time>2014-06-01T10:35:31Z</time>
      </trkpt>
      <trkpt lat="59.8430523" lon="17.6461534">
        <ele>12.6344</ele>
        <time>2014-06-01T10:35:32Z</time>
      </trkpt>
      <trkpt lat="59.843029" lon="17.646132">
        <ele>13.1151</ele>
        <time>2014-06-01T10:35:33Z</time>
      </trkpt>
      <trkpt lat="59.8430067" lon="17.6461057">
        <ele>13.1151</ele>
        <time>2014-06-01T10:35:34Z</time>
      </trkpt>
      <trkpt lat="59.8429843" lon="17.6460738">
        <ele>13.5958</ele>
        <time>2014-06-01T10:35:35Z</time>
      </trkpt>
      <trkpt lat="59.8429616" lon="17.6460415">
        <ele>13.5958</ele>
        <time>2014-06-01T10:35:36Z</time>
      </trkpt>
      <trkpt lat="59.8429398" lon="17.6460114">
        <ele>14.0764</ele>
        <time>2014-06-01T10:35:37Z</time>
      </trkpt>
      <trkpt lat="59.8429159" lon="17.6459777">
        <ele>14.557</ele>
        <time>2014-06-01T10:35:38Z</time>
      </trkpt>
      <trkpt lat="59.8428914" lon="17.6459478">
        <ele>15.5184</ele>
        <time>2014-06-01T10:35:39Z</time>
      </trkpt>
      <trkpt lat="59.8428698" lon="17.6459234">
        <ele>16.4797</ele>
        <time>2014-06-01T10:35:40Z</time>
      </trkpt>
      <trkpt lat="59.842851" lon="17.6459007">
        <ele>16.9604</ele>
        <time>2014-06-01T10:35:41Z</time>
      </trkpt>
      <trkpt lat="59.8428329" lon="17.6458774">
        <ele>16.9604</ele>
        <time>2014-06-01T10:35:42Z</time>
      </trkpt>
      <trkpt lat="59.8428139" lon="17.6458551">
        <ele>17.4412</ele>
        <time>2014-06-01T10:35:43Z</time>
      </trkpt>
      <trkpt lat="59.8427957" lon="17.6458285">
        <ele>17.4412</ele>
        <time>2014-06-01T10:35:44Z</time>
      </trkpt>
      <trkpt lat="59.8427761" lon="17.6458033">
        <ele>17.4412</ele>
        <time>2014-06-01T10:35:45Z</time>
      </trkpt>
      <trkpt lat="59.8427544" lon="17.6457799">
        <ele>17.4412</ele>
        <time>2014-06-01T10:35:46Z</time>
      </trkpt>
      <trkpt lat="59.8427275" lon="17.645752">
        <ele>17.4412</ele>
        <time>2014-06-01T10:35:47Z</time>
      </trkpt>
      <trkpt lat="59.8426962" lon="17.6457271">
        <ele>17.9218</ele>
        <time>2014-06-01T10:35:48Z</time>
      </trkpt>
      <trkpt lat="59.8426602" lon="17.6457147">
        <ele>18.4023</ele>
        <time>2014-06-01T10:35:49Z</time>
      </trkpt>
      <trkpt lat="59.8426241" lon="17.6457105">
        <ele>18.4023</ele>
        <time>2014-06-01T10:35:50Z</time>
      </trkpt>
      <trkpt lat="59.842587" lon="17.6457038">
        <ele>19.3638</ele>
        <time>2014-06-01T10:35:51Z</time>
      </trkpt>
      <trkpt lat="59.8425507" lon="17.6456958">
        <ele>19.8444</ele>
        <time>2014-06-01T10:35:52Z</time>
      </trkpt>
      <trkpt lat="59.8425136" lon="17.6456871">
        <ele>19.8444</ele>
        <time>2014-06-01T10:35:53Z</time>
      </trkpt>
      <trkpt lat="59.8424757" lon="17.6456856">
        <ele>20.325</ele>
        <time>2014-06-01T10:35:54Z</time>
      </trkpt>
      <trkpt lat="59.8424338" lon="17.6456899">
        <ele>21.2864</ele>
        <time>2014-06-01T10:35:55Z</time>
      </trkpt>
      <trkpt lat="59.8423917" lon="17.6456852">
        <ele>21.767</ele>
        <time>2014-06-01T10:35:56Z</time>
      </trkpt>
      <trkpt lat="59.8423493" lon="17.6456722">
        <ele>22.2476</ele>
        <time>2014-06-01T10:35:57Z</time>
      </trkpt>
      <trkpt lat="59.8423073" lon="17.645657">
        <ele>22.7283</ele>
        <time>2014-06-01T10:35:58Z</time>
      </trkpt>
      <trkpt lat="59.8422643" lon="17.6456402">
        <ele>23.209</ele>
        <time>2014-06-01T10:35:59Z</time>
      </trkpt>
      <trkpt lat="59.8422213" lon="17.6456209">
        <ele>23.6896</ele>
        <time>2014-06-01T10:36:00Z</time>
      </trkpt>
      <trkpt lat="59.8421779" lon="17.645598">
        <ele>23.6896</ele>
        <time>2014-06-01T10:36:01Z</time>
      </trkpt>
      <trkpt lat="59.8421347" lon="17.6455728">
        <ele>24.1703</ele>
        <time>2014-06-01T10:36:02Z</time>
      </trkpt>
      <trkpt lat="59.8420908" lon="17.6455412">
        <ele>24.651</ele>
        <time>2014-06-01T10:36:03Z</time>
      </trkpt>
      <trkpt lat="59.8420487" lon="17.6454985">
        <ele>24.651</ele>
        <time>2014-06-01T10:36:04Z</time>
      </trkpt>
      <trkpt lat="59.8420105" lon="17.6454536">
        <ele>25.1317</ele>
        <time>2014-06-01T10:36:05Z</time>
      </trkpt>
      <trkpt lat="59.8419711" lon="17.6454142">
        <ele>25.1317</ele>
        <time>2014-06-01T10:36:06Z</time>
      </trkpt>
      <trkpt lat="59.8419313" lon="17.6453759">
        <ele>25.1317</ele>
        <time>2014-06-01T10:36:07Z</time>
      </trkpt>
      <trkpt lat="59.841893" lon="17.6453355">
        <ele>25.1317</ele>
        <time>2014-06-01T10:36:08Z</time>
      </trkpt>
      <trkpt lat="59.8418576" lon="17.6452884">
        <ele>25.6123</ele>
        <time>2014-06-01T10:36:09Z</time>
      </trkpt>
      <trkpt lat="59.8418328" lon="17.6452253">
        <ele>25.6123</ele>
        <time>2014-06-01T10:36:10Z</time>
      </trkpt>
      <trkpt lat="59.8418275" lon="17.6451542">
        <ele>26.0929</ele>
        <time>2014-06-01T10:36:11Z</time>
      </trkpt>
      <trkpt lat="59.8418417" lon="17.6450892">
        <ele>26.0929</ele>
        <time>2014-06-01T10:36:12Z</time>
      </trkpt>
      <trkpt lat="59.8418663" lon="17.6450292">
        <ele>25.6123</ele>
        <time>2014-06-01T10:36:13Z</time>
      </trkpt>
      <trkpt lat="59.8418862" lon="17.644962">
        <ele>25.6123</ele>
        <time>2014-06-01T10:36:14Z</time>
      </trkpt>
      <trkpt lat="59.841892" lon="17.6448848">
        <ele>26.0929</ele>
        <time>2014-06-01T10:36:15Z</time>
      </trkpt>
      <trkpt lat="59.8418865" lon="17.6448035">
        <ele>26.0929</ele>
        <time>2014-06-01T10:36:16Z</time>
      </trkpt>
      <trkpt lat="59.8418748" lon="17.6447211">
        <ele>25.6123</ele>
        <time>2014-06-01T10:36:17Z</time>
      </trkpt>
      <trkpt lat="59.8418572" lon="17.6446467">
        <ele>26.0929</ele>
        <time>2014-06-01T10:36:18Z</time>
      </trkpt>
      <trkpt lat="59.8418336" lon="17.6445797">
        <ele>25.6123</ele>
        <time>2014-06-01T10:36:19Z</time>
      </trkpt>
      <trkpt lat="59.8418046" lon="17.6445161">
        <ele>26.0929</ele>
        <time>2014-06-01T10:36:20Z</time>
      </trkpt>
      <trkpt lat="59.8417706" lon="17.6444578">
        <ele>26.0929</ele>
        <time>2014-06-01T10:36:21Z</time>
      </trkpt>
      <trkpt lat="59.8417339" lon="17.6443988">
        <ele>26.0929</ele>
        <time>2014-06-01T10:36:22Z</time>
      </trkpt>
      <trkpt lat="59.841697" lon="17.6443381">
        <ele>26.0929</ele>
        <time>2014-06-01T10:36:23Z</time>
      </trkpt>
      <trkpt lat="59.8416603" lon="17.6442765">
        <ele>26.5736</ele>
        <time>2014-06-01T10:36:24Z</time>
      </trkpt>
      <trkpt lat="59.8416249" lon="17.6442156">
        <ele>26.5736</ele>
        <time>2014-06-01T10:36:25Z</time>
      </trkpt>
      <trkpt lat="59.8415903" lon="17.6441555">
        <ele>26.5736</ele>
        <time>2014-06-01T10:36:26Z</time>
      </trkpt>
      <trkpt lat="59.8415555" lon="17.6440934">
        <ele>26.5736</ele>
        <time>2014-06-01T10:36:27Z</time>
      </trkpt>
      <trkpt lat="59.8415213" lon="17.6440279">
        <ele>27.0543</ele>
        <time>2014-06-01T10:36:28Z</time>
      </trkpt>
      <trkpt lat="59.8414887" lon="17.64396">
        <ele>27.0543</ele>
        <time>2014-06-01T10:36:29Z</time>
      </trkpt>
      <trkpt lat="59.8414562" lon="17.6438921">
        <ele>27.0543</ele>
        <time>2014-06-01T10:36:30Z</time>
      </trkpt>
      <trkpt lat="59.841422" lon="17.6438246">
        <ele>27.0543</ele>
        <time>2014-06-01T10:36:31Z</time>
      </trkpt>
      <trkpt lat="59.8413859" lon="17.6437559">
        <ele>27.5349</ele>
        <time>2014-06-01T10:36:32Z</time>
      </trkpt>
      <trkpt lat="59.8413494" lon="17.6436861">
        <ele>27.5349</ele>
        <time>2014-06-01T10:36:33Z</time>
      </trkpt>
      <trkpt lat="59.8413123" lon="17.6436148">
        <ele>27.5349</ele>
        <time>2014-06-01T10:36:34Z</time>
      </trkpt>
      <trkpt lat="59.8412739" lon="17.6435428">
        <ele>27.5349</ele>
        <time>2014-06-01T10:36:35Z</time>
      </trkpt>
      <trkpt lat="59.8412355" lon="17.643467">
        <ele>27.5349</ele>
        <time>2014-06-01T10:36:36Z</time>
      </trkpt>
      <trkpt lat="59.8411981" lon="17.6433883">
        <ele>27.0543</ele>
        <time>2014-06-01T10:36:37Z</time>
      </trkpt>
      <trkpt lat="59.8411634" lon="17.6433075">
        <ele>27.5349</ele>
        <time>2014-06-01T10:36:38Z</time>
      </trkpt>
      <trkpt lat="59.8411308" lon="17.6432307">
        <ele>27.5349</ele>
        <time>2014-06-01T10:36:39Z</time>
      </trkpt>
      <trkpt lat="59.8410996" lon="17.6431617">
        <ele>27.5349</ele>
        <time>2014-06-01T10:36:40Z</time>
      </trkpt>
      <trkpt lat="59.8410707" lon="17.6430968">
        <ele>28.0155</ele>
        <time>2014-06-01T10:36:41Z</time>
      </trkpt>
      <trkpt lat="59.8410418" lon="17.6430367">
        <ele>28.0155</ele>
        <time>2014-06-01T10:36:42Z</time>
      </trkpt>
      <trkpt lat="59.8410149" lon="17.6429817">
        <ele>28.4962</ele>
        <time>2014-06-01T10:36:43Z</time>
      </trkpt>
      <trkpt lat="59.8409839" lon="17.6429335">
        <ele>28.0155</ele>
        <time>2014-06-01T10:36:44Z</time>
      </trkpt>
      <trkpt lat="59.8409506" lon="17.6428955">
        <ele>28.0155</ele>
        <time>2014-06-01T10:36:45Z</time>
      </trkpt>
      <trkpt lat="59.8409185" lon="17.6428796">
        <ele>28.0155</ele>
        <time>2014-06-01T10:36:46Z</time>
      </trkpt>
      <trkpt lat="59.8408942" lon="17.642897">
        <ele>28.0155</ele>
        <time>2014-06-01T10:36:47Z</time>
      </trkpt>
      <trkpt lat="59.8408777" lon="17.6429448">
        <ele>28.4962</ele>
        <time>2014-06-01T10:36:48Z</time>
      </trkpt>
      <trkpt lat="59.8408627" lon="17.6430146">
        <ele>28.4962</ele>
        <time>2014-06-01T10:36:49Z</time>
      </trkpt>
      <trkpt lat="59.840845" lon="17.6430921">
        <ele>28.9769</ele>
        <time>2014-06-01T10:36:50Z</time>
      </trkpt>
      <trkpt lat="59.8408215" lon="17.6431701">
        <ele>29.4575</ele>
        <time>2014-06-01T10:36:51Z</time>
      </trkpt>
      <trkpt lat="59.8407942" lon="17.6432469">
        <ele>29.9381</ele>
        <time>2014-06-01T10:36:52Z</time>
      </trkpt>
      <trkpt lat="59.8407652" lon="17.6433218">
        <ele>29.9381</ele>
        <time>2014-06-01T10:36:53Z</time>
      </trkpt>
      <trkpt lat="59.8407347" lon="17.6433914">
        <ele>30.4188</ele>
        <time>2014-06-01T10:36:54Z</time>
      </trkpt>
      <trkpt lat="59.8407024" lon="17.643456">
        <ele>30.4188</ele>
        <time>2014-06-01T10:36:55Z</time>
      </trkpt>
      <trkpt lat="59.8406678" lon="17.6435187">
        <ele>30.8995</ele>
        <time>2014-06-01T10:36:56Z</time>
      </trkpt>
      <trkpt lat="59.840631" lon="17.6435826">
        <ele>30.8995</ele>
        <time>2014-06-01T10:36:57Z</time>
      </trkpt>
      <trkpt lat="59.8405931" lon="17.6436494">
        <ele>30.8995</ele>
        <time>2014-06-01T10:36:58Z</time>
      </trkpt>
      <trkpt lat="59.8405542" lon="17.6437183">
        <ele>31.3801</ele>
        <time>2014-06-01T10:36:59Z</time>
      </trkpt>
      <trkpt lat="59.8405132" lon="17.6437862">
        <ele>31.3801</ele>
        <time>2014-06-01T10:37:00Z</time>
      </trkpt>
      <trkpt lat="59.8404699" lon="17.6438545">
        <ele>31.3801</ele>
        <time>2014-06-01T10:37:01Z</time>
      </trkpt>
      <trkpt lat="59.8404264" lon="17.6439244">
        <ele>31.3801</ele>
        <time>2014-06-01T10:37:02Z</time>
      </trkpt>
      <trkpt lat="59.8403839" lon="17.6439957">
        <ele>31.8607</ele>
        <time>2014-06-01T10:37:03Z</time>
      </trkpt>
      <trkpt lat="59.8403413" lon="17.6440664">
        <ele>31.8607</ele>
        <time>2014-06-01T10:37:04Z</time>
      </trkpt>
      <trkpt lat="59.8402977" lon="17.6441358">
        <ele>31.8607</ele>
        <time>2014-06-01T10:37:05Z</time>
      </trkpt>
      <trkpt lat="59.8402544" lon="17.644205">
        <ele>31.8607</ele>
        <time>2014-06-01T10:37:06Z</time>
      </trkpt>
      <trkpt lat="59.8402116" lon="17.644274">
        <ele>31.8607</ele>
        <time>2014-06-01T10:37:07Z</time>
      </trkpt>
      <trkpt lat="59.840169" lon="17.6443424">
        <ele>31.8607</ele>
        <time>2014-06-01T10:37:08Z</time>
      </trkpt>
      <trkpt lat="59.8401264" lon="17.6444103">
        <ele>31.8607</ele>
        <time>2014-06-01T10:37:09Z</time>
      </trkpt>
      <trkpt lat="59.8400825" lon="17.644472">
        <ele>31.8607</ele>
        <time>2014-06-01T10:37:10Z</time>
      </trkpt>
      <trkpt lat="59.8400358" lon="17.6445174">
        <ele>32.3416</ele>
        <time>2014-06-01T10:37:11Z</time>
      </trkpt>
      <trkpt lat="59.8399875" lon="17.6445388">
        <ele>32.3416</ele>
        <time>2014-06-01T10:37:12Z</time>
      </trkpt>
      <trkpt lat="59.8399425" lon="17.6445475">
        <ele>32.3416</ele>
        <time>2014-06-01T10:37:13Z</time>
      </trkpt>
      <trkpt lat="59.8399026" lon="17.6445486">
        <ele>32.3416</ele>
        <time>2014-06-01T10:37:14Z</time>
      </trkpt>
      <trkpt lat="59.8398597" lon="17.6445477">
        <ele>32.3416</ele>
        <time>2014-06-01T10:37:15Z</time>
      </trkpt>
      <trkpt lat="59.8398162" lon="17.6445512">
        <ele>32.8223</ele>
        <time>2014-06-01T10:37:16Z</time>
      </trkpt>
      <trkpt lat="59.8397795" lon="17.6445564">
        <ele>32.8223</ele>
        <time>2014-06-01T10:37:17Z</time>
      </trkpt>
      <trkpt lat="59.8397388" lon="17.6445588">
        <ele>32.3416</ele>
        <time>2014-06-01T10:37:18Z</time>
      </trkpt>
      <trkpt lat="59.8396986" lon="17.6445404">
        <ele>32.3416</ele>
        <time>2014-06-01T10:37:19Z</time>
      </trkpt>
      <trkpt lat="59.8396628" lon="17.6445058">
        <ele>32.3416</ele>
        <time>2014-06-01T10:37:20Z</time>
      </trkpt>
      <trkpt lat="59.8396276" lon="17.6444692">
        <ele>31.8607</ele>
        <time>2014-06-01T10:37:21Z</time>
      </trkpt>
      <trkpt lat="59.8395905" lon="17.6444342">
        <ele>31.8607</ele>
        <time>2014-06-01T10:37:22Z</time>
      </trkpt>
      <trkpt lat="59.839553" lon="17.6443948">
        <ele>31.8607</ele>
        <time>2014-06-01T10:37:23Z</time>
      </trkpt>
      <trkpt lat="59.8395157" lon="17.6443472">
        <ele>31.8607</ele>
        <time>2014-06-01T10:37:24Z</time>
      </trkpt>
      <trkpt lat="59.8394744" lon="17.6443036">
        <ele>31.3801</ele>
        <time>2014-06-01T10:37:25Z</time>
      </trkpt>
      <trkpt lat="59.8394293" lon="17.644261">
        <ele>31.3801</ele>
        <time>2014-06-01T10:37:26Z</time>
      </trkpt>
      <trkpt lat="59.8393863" lon="17.644214">
        <ele>31.3801</ele>
        <time>2014-06-01T10:37:27Z</time>
      </trkpt>
      <trkpt lat="59.8393467" lon="17.6441613">
        <ele>30.8995</ele>
        <time>2014-06-01T10:37:28Z</time>
      </trkpt>
      <trkpt lat="59.8393071" lon="17.644114">
        <ele>30.8995</ele>
        <time>2014-06-01T10:37:29Z</time>
      </trkpt>
      <trkpt lat="59.8392645" lon="17.6440736">
        <ele>30.8995</ele>
        <time>2014-06-01T10:37:30Z</time>
      </trkpt>
      <trkpt lat="59.8392174" lon="17.6440363">
        <ele>30.8995</ele>
        <time>2014-06-01T10:37:31Z</time>
      </trkpt>
      <trkpt lat="59.8391748" lon="17.6440073">
        <ele>30.8995</ele>
        <time>2014-06-01T10:37:32Z</time>
      </trkpt>
      <trkpt lat="59.8391381" lon="17.6439845">
        <ele>30.4188</ele>
        <time>2014-06-01T10:37:33Z</time>
      </trkpt>
      <trkpt lat="59.8391046" lon="17.6439611">
        <ele>29.9381</ele>
        <time>2014-06-01T10:37:34Z</time>
      </trkpt>
      <trkpt lat="59.8390656" lon="17.6439409">
        <ele>29.9381</ele>
        <time>2014-06-01T10:37:35Z</time>
      </trkpt>
      <trkpt lat="59.8390277" lon="17.643927">
        <ele>29.4575</ele>
        <time>2014-06-01T10:37:36Z</time>
      </trkpt>
      <trkpt lat="59.8389922" lon="17.6439038">
        <ele>28.9769</ele>
        <time>2014-06-01T10:37:37Z</time>
      </trkpt>
      <trkpt lat="59.8389579" lon="17.6438714">
        <ele>28.0155</ele>
        <time>2014-06-01T10:37:38Z</time>
      </trkpt>
      <trkpt lat="59.8389278" lon="17.6438385">
        <ele>27.5349</ele>
        <time>2014-06-01T10:37:39Z</time>
      </trkpt>
      <trkpt lat="59.8388957" lon="17.6438067">
        <ele>26.5736</ele>
        <time>2014-06-01T10:37:40Z</time>
      </trkpt>
      <trkpt lat="59.8388537" lon="17.6437794">
        <ele>26.0929</ele>
        <time>2014-06-01T10:37:41Z</time>
      </trkpt>
      <trkpt lat="59.8388102" lon="17.6437504">
        <ele>24.651</ele>
        <time>2014-06-01T10:37:42Z</time>
      </trkpt>
      <trkpt lat="59.8387671" lon="17.6437199">
        <ele>24.1703</ele>
        <time>2014-06-01T10:37:43Z</time>
      </trkpt>
      <trkpt lat="59.8387254" lon="17.6436837">
        <ele>23.209</ele>
        <time>2014-06-01T10:37:44Z</time>
      </trkpt>
      <trkpt lat="59.8386875" lon="17.6436362">
        <ele>22.7283</ele>
        <time>2014-06-01T10:37:45Z</time>
      </trkpt>
      <trkpt lat="59.8386538" lon="17.6435823">
        <ele>22.2476</ele>
        <time>2014-06-01T10:37:46Z</time>
      </trkpt>
      <trkpt lat="59.8386202" lon="17.6435353">
        <ele>21.767</ele>
        <time>2014-06-01T10:37:47Z</time>
      </trkpt>
      <trkpt lat="59.8385844" lon="17.6434774">
        <ele>21.767</ele>
        <time>2014-06-01T10:37:48Z</time>
      </trkpt>
      <trkpt lat="59.8385501" lon="17.6434189">
        <ele>21.767</ele>
        <time>2014-06-01T10:37:49Z</time>
      </trkpt>
      <trkpt lat="59.8385165" lon="17.6433665">
        <ele>21.767</ele>
        <time>2014-06-01T10:37:50Z</time>
      </trkpt>
      <trkpt lat="59.8384823" lon="17.6433145">
        <ele>21.2864</ele>
        <time>2014-06-01T10:37:51Z</time>
      </trkpt>
      <trkpt lat="59.8384425" lon="17.6432513">
        <ele>21.2864</ele>
        <time>2014-06-01T10:37:52Z</time>
      </trkpt>
      <trkpt lat="59.8383996" lon="17.643194">
        <ele>21.2864</ele>
        <time>2014-06-01T10:37:53Z</time>
      </trkpt>
      <trkpt lat="59.8383559" lon="17.643134">
        <ele>21.767</ele>
        <time>2014-06-01T10:37:54Z</time>
      </trkpt>
      <trkpt lat="59.838312" lon="17.6430763">
        <ele>22.2476</ele>
        <time>2014-06-01T10:37:55Z</time>
      </trkpt>
      <trkpt lat="59.8382664" lon="17.6430278">
        <ele>22.2476</ele>
        <time>2014-06-01T10:37:56Z</time>
      </trkpt>
      <trkpt lat="59.8382211" lon="17.6429851">
        <ele>22.2476</ele>
        <time>2014-06-01T10:37:57Z</time>
      </trkpt>
      <trkpt lat="59.8381765" lon="17.6429589">
        <ele>22.2476</ele>
        <time>2014-06-01T10:37:58Z</time>
      </trkpt>
      <trkpt lat="59.838125" lon="17.6429531">
        <ele>22.7283</ele>
        <time>2014-06-01T10:37:59Z</time>
      </trkpt>
      <trkpt lat="59.8380706" lon="17.6429345">
        <ele>22.7283</ele>
        <time>2014-06-01T10:38:00Z</time>
      </trkpt>
      <trkpt lat="59.8380212" lon="17.642905">
        <ele>23.6896</ele>
        <time>2014-06-01T10:38:01Z</time>
      </trkpt>
      <trkpt lat="59.8379714" lon="17.6428823">
        <ele>23.6896</ele>
        <time>2014-06-01T10:38:02Z</time>
      </trkpt>
      <trkpt lat="59.8379182" lon="17.6428707">
        <ele>24.1703</ele>
        <time>2014-06-01T10:38:03Z</time>
      </trkpt>
      <trkpt lat="59.8378674" lon="17.6428563">
        <ele>25.1317</ele>
        <time>2014-06-01T10:38:04Z</time>
      </trkpt>
      <trkpt lat="59.8378177" lon="17.6428489">
        <ele>25.1317</ele>
        <time>2014-06-01T10:38:05Z</time>
      </trkpt>
      <trkpt lat="59.837766" lon="17.6428511">
        <ele>25.1317</ele>
        <time>2014-06-01T10:38:06Z</time>
      </trkpt>
      <trkpt lat="59.8377136" lon="17.6428566">
        <ele>25.6123</ele>
        <time>2014-06-01T10:38:07Z</time>
      </trkpt>
      <trkpt lat="59.8376644" lon="17.6428501">
        <ele>26.0929</ele>
        <time>2014-06-01T10:38:08Z</time>
      </trkpt>
      <trkpt lat="59.8376145" lon="17.6428282">
        <ele>25.6123</ele>
        <time>2014-06-01T10:38:09Z</time>
      </trkpt>
      <trkpt lat="59.837564" lon="17.6427911">
        <ele>25.1317</ele>
        <time>2014-06-01T10:38:10Z</time>
      </trkpt>
      <trkpt lat="59.8375093" lon="17.6427754">
        <ele>24.651</ele>
        <time>2014-06-01T10:38:11Z</time>
      </trkpt>
      <trkpt lat="59.8374518" lon="17.6427556">
        <ele>24.651</ele>
        <time>2014-06-01T10:38:12Z</time>
      </trkpt>
      <trkpt lat="59.8373944" lon="17.6427421">
        <ele>25.1317</ele>
        <time>2014-06-01T10:38:13Z</time>
      </trkpt>
      <trkpt lat="59.8373426" lon="17.6427388">
        <ele>25.6123</ele>
        <time>2014-06-01T10:38:14Z</time>
      </trkpt>
      <trkpt lat="59.8372815" lon="17.6427388">
        <ele>25.1317</ele>
        <time>2014-06-01T10:38:15Z</time>
      </trkpt>
      <trkpt lat="59.8372263" lon="17.6427216">
        <ele>25.1317</ele>
        <time>2014-06-01T10:38:16Z</time>
      </trkpt>
      <trkpt lat="59.8371731" lon="17.6427114">
        <ele>24.651</ele>
        <time>2014-06-01T10:38:17Z</time>
      </trkpt>
      <trkpt lat="59.8371253" lon="17.6426817">
        <ele>24.1703</ele>
        <time>2014-06-01T10:38:18Z</time>
      </trkpt>
      <trkpt lat="59.8370697" lon="17.6426601">
        <ele>24.1703</ele>
        <time>2014-06-01T10:38:19Z</time>
      </trkpt>
      <trkpt lat="59.8370151" lon="17.6426336">
        <ele>24.1703</ele>
        <time>2014-06-01T10:38:20Z</time>
      </trkpt>
      <trkpt lat="59.8369562" lon="17.642622">
        <ele>24.651</ele>
        <time>2014-06-01T10:38:21Z</time>
      </trkpt>
      <trkpt lat="59.8368983" lon="17.6426043">
        <ele>25.6123</ele>
        <time>2014-06-01T10:38:22Z</time>
      </trkpt>
      <trkpt lat="59.836849" lon="17.6425867">
        <ele>26.5736</ele>
        <time>2014-06-01T10:38:23Z</time>
      </trkpt>
      <trkpt lat="59.8368014" lon="17.6425883">
        <ele>27.0543</ele>
        <time>2014-06-01T10:38:24Z</time>
      </trkpt>
      <trkpt lat="59.8367526" lon="17.6425922">
        <ele>26.5736</ele>
        <time>2014-06-01T10:38:25Z</time>
      </trkpt>
      <trkpt lat="59.8366993" lon="17.6425956">
        <ele>27.0543</ele>
        <time>2014-06-01T10:38:26Z</time>
      </trkpt>
      <trkpt lat="59.8366428" lon="17.6426092">
        <ele>28.0155</ele>
        <time>2014-06-01T10:38:27Z</time>
      </trkpt>
      <trkpt lat="59.8365826" lon="17.6426292">
        <ele>27.5349</ele>
        <time>2014-06-01T10:38:28Z</time>
      </trkpt>
      <trkpt lat="59.836531" lon="17.6426439">
        <ele>28.0155</ele>
        <time>2014-06-01T10:38:29Z</time>
      </trkpt>
      <trkpt lat="59.8364854" lon="17.6426761">
        <ele>28.0155</ele>
        <time>2014-06-01T10:38:30Z</time>
      </trkpt>
      <trkpt lat="59.8364393" lon="17.6427282">
        <ele>27.0543</ele>
        <time>2014-06-01T10:38:31Z</time>
      </trkpt>
      <trkpt lat="59.8364004" lon="17.6427692">
        <ele>26.5736</ele>
        <time>2014-06-01T10:38:32Z</time>
      </trkpt>
      <trkpt lat="59.8363585" lon="17.6428122">
        <ele>25.6123</ele>
        <time>2014-06-01T10:38:33Z</time>
      </trkpt>
      <trkpt lat="59.836316" lon="17.642869">
        <ele>24.1703</ele>
        <time>2014-06-01T10:38:34Z</time>
      </trkpt>
      <trkpt lat="59.8362729" lon="17.6429323">
        <ele>23.6896</ele>
        <time>2014-06-01T10:38:35Z</time>
      </trkpt>
      <trkpt lat="59.8362216" lon="17.643006">
        <ele>23.6896</ele>
        <time>2014-06-01T10:38:36Z</time>
      </trkpt>
      <trkpt lat="59.8361685" lon="17.6430763">
        <ele>23.209</ele>
        <time>2014-06-01T10:38:37Z</time>
      </trkpt>
      <trkpt lat="59.8361138" lon="17.6431579">
        <ele>22.7283</ele>
        <time>2014-06-01T10:38:38Z</time>
      </trkpt>
      <trkpt lat="59.836053" lon="17.6432325">
        <ele>22.2476</ele>
        <time>2014-06-01T10:38:39Z</time>
      </trkpt>
      <trkpt lat="59.8359661" lon="17.643341">
        <ele>23.6896</ele>
        <time>2014-06-01T10:38:40Z</time>
      </trkpt>
      <trkpt lat="59.8359057" lon="17.6433758">
        <ele>23.6896</ele>
        <time>2014-06-01T10:38:41Z</time>
      </trkpt>
      <trkpt lat="59.8358325" lon="17.6434371">
        <ele>23.209</ele>
        <time>2014-06-01T10:38:42Z</time>
      </trkpt>
      <trkpt lat="59.835771" lon="17.6434599">
        <ele>22.2476</ele>
        <time>2014-06-01T10:38:43Z</time>
      </trkpt>
      <trkpt lat="59.8356908" lon="17.6435002">
        <ele>22.7283</ele>
        <time>2014-06-01T10:38:44Z</time>
      </trkpt>
      <trkpt lat="59.8356219" lon="17.6434808">
        <ele>22.2476</ele>
        <time>2014-06-01T10:38:45Z</time>
      </trkpt>
      <trkpt lat="59.8355524" lon="17.6434663">
        <ele>22.2476</ele>
        <time>2014-06-01T10:38:46Z</time>
      </trkpt>
      <trkpt lat="59.8354963" lon="17.6434397">
        <ele>21.767</ele>
        <time>2014-06-01T10:38:47Z</time>
      </trkpt>
      <trkpt lat="59.8354582" lon="17.6433935">
        <ele>19.8444</ele>
        <time>2014-06-01T10:38:48Z</time>
      </trkpt>
      <trkpt lat="59.8354297" lon="17.6433438">
        <ele>19.8444</ele>
        <time>2014-06-01T10:38:49Z</time>
      </trkpt>
      <trkpt lat="59.8354011" lon="17.6432666">
        <ele>19.8444</ele>
        <time>2014-06-01T10:38:50Z</time>
      </trkpt>
      <trkpt lat="59.8353518" lon="17.6431619">
        <ele>18.8831</ele>
        <time>2014-06-01T10:38:51Z</time>
      </trkpt>
      <trkpt lat="59.8352979" lon="17.6430688">
        <ele>17.4412</ele>
        <time>2014-06-01T10:38:52Z</time>
      </trkpt>
      <trkpt lat="59.8352416" lon="17.6429884">
        <ele>16.9604</ele>
        <time>2014-06-01T10:38:53Z</time>
      </trkpt>
      <trkpt lat="59.8351881" lon="17.6429208">
        <ele>15.999</ele>
        <time>2014-06-01T10:38:54Z</time>
      </trkpt>
      <trkpt lat="59.8351324" lon="17.6428656">
        <ele>15.5184</ele>
        <time>2014-06-01T10:38:55Z</time>
      </trkpt>
      <trkpt lat="59.8350791" lon="17.6428165">
        <ele>15.5184</ele>
        <time>2014-06-01T10:38:56Z</time>
      </trkpt>
      <trkpt lat="59.8350303" lon="17.6427675">
        <ele>14.557</ele>
        <time>2014-06-01T10:38:57Z</time>
      </trkpt>
      <trkpt lat="59.8349768" lon="17.6427175">
        <ele>14.0764</ele>
        <time>2014-06-01T10:38:58Z</time>
      </trkpt>
      <trkpt lat="59.8349185" lon="17.6426811">
        <ele>13.5958</ele>
        <time>2014-06-01T10:38:59Z</time>
      </trkpt>
      <trkpt lat="59.8348649" lon="17.6426392">
        <ele>12.6344</ele>
        <time>2014-06-01T10:39:00Z</time>
      </trkpt>
      <trkpt lat="59.8348138" lon="17.6425952">
        <ele>12.6344</ele>
        <time>2014-06-01T10:39:01Z</time>
      </trkpt>
      <trkpt lat="59.8347656" lon="17.6425516">
        <ele>11.6732</ele>
        <time>2014-06-01T10:39:02Z</time>
      </trkpt>
      <trkpt lat="59.8347263" lon="17.642519">
        <ele>11.1925</ele>
        <time>2014-06-01T10:39:03Z</time>
      </trkpt>
      <trkpt lat="59.8346864" lon="17.6424933">
        <ele>10.7118</ele>
        <time>2014-06-01T10:39:04Z</time>
      </trkpt>
      <trkpt lat="59.8346469" lon="17.6424699">
        <ele>10.7118</ele>
        <time>2014-06-01T10:39:05Z</time>
      </trkpt>
      <trkpt lat="59.8346076" lon="17.6424456">
        <ele>10.7118</ele>
        <time>2014-06-01T10:39:06Z</time>
      </trkpt>
      <trkpt lat="59.8345678" lon="17.642407">
        <ele>11.1925</ele>
        <time>2014-06-01T10:39:07Z</time>
      </trkpt>
      <trkpt lat="59.8345263" lon="17.6423761">
        <ele>11.6732</ele>
        <time>2014-06-01T10:39:08Z</time>
      </trkpt>
      <trkpt lat="59.8344803" lon="17.6423576">
        <ele>12.1538</ele>
        <time>2014-06-01T10:39:09Z</time>
      </trkpt>
      <trkpt lat="59.8344268" lon="17.6423439">
        <ele>14.0764</ele>
        <time>2014-06-01T10:39:10Z</time>
      </trkpt>
      <trkpt lat="59.8343718" lon="17.6423398">
        <ele>15.999</ele>
        <time>2014-06-01T10:39:11Z</time>
      </trkpt>
      <trkpt lat="59.8343138" lon="17.6423482">
        <ele>16.9604</ele>
        <time>2014-06-01T10:39:12Z</time>
      </trkpt>
      <trkpt lat="59.8342538" lon="17.6423712">
        <ele>17.9218</ele>
        <time>2014-06-01T10:39:13Z</time>
      </trkpt>
      <trkpt lat="59.8341935" lon="17.6424145">
        <ele>18.4023</ele>
        <time>2014-06-01T10:39:14Z</time>
      </trkpt>
      <trkpt lat="59.8341316" lon="17.6424738">
        <ele>18.4023</ele>
        <time>2014-06-01T10:39:15Z</time>
      </trkpt>
      <trkpt lat="59.8340669" lon="17.6425403">
        <ele>18.8831</ele>
        <time>2014-06-01T10:39:16Z</time>
      </trkpt>
      <trkpt lat="59.8339974" lon="17.6426092">
        <ele>19.8444</ele>
        <time>2014-06-01T10:39:17Z</time>
      </trkpt>
      <trkpt lat="59.833929" lon="17.6426752">
        <ele>19.3638</ele>
        <time>2014-06-01T10:39:18Z</time>
      </trkpt>
      <trkpt lat="59.8338606" lon="17.6427413">
        <ele>18.8831</ele>
        <time>2014-06-01T10:39:19Z</time>
      </trkpt>
      <trkpt lat="59.8337822" lon="17.6427593">
        <ele>18.8831</ele>
        <time>2014-06-01T10:39:22Z</time>
      </trkpt>
      <trkpt lat="59.8337202" lon="17.6428071">
        <ele>18.4023</ele>
        <time>2014-06-01T10:39:23Z</time>
      </trkpt>
      <trkpt lat="59.8336642" lon="17.6428906">
        <ele>18.4023</ele>
        <time>2014-06-01T10:39:24Z</time>
      </trkpt>
      <trkpt lat="59.8336348" lon="17.6429723">
        <ele>19.3638</ele>
        <time>2014-06-01T10:39:25Z</time>
      </trkpt>
      <trkpt lat="59.8335923" lon="17.6430211">
        <ele>20.325</ele>
        <time>2014-06-01T10:39:26Z</time>
      </trkpt>
      <trkpt lat="59.8335507" lon="17.6430669">
        <ele>21.2864</ele>
        <time>2014-06-01T10:39:27Z</time>
      </trkpt>
      <trkpt lat="59.8335094" lon="17.6431055">
        <ele>22.2476</ele>
        <time>2014-06-01T10:39:28Z</time>
      </trkpt>
      <trkpt lat="59.8334699" lon="17.6431359">
        <ele>22.7283</ele>
        <time>2014-06-01T10:39:29Z</time>
      </trkpt>
      <trkpt lat="59.8334265" lon="17.6431392">
        <ele>23.209</ele>
        <time>2014-06-01T10:39:30Z</time>
      </trkpt>
      <trkpt lat="59.8333705" lon="17.6431408">
        <ele>24.651</ele>
        <time>2014-06-01T10:39:31Z</time>
      </trkpt>
      <trkpt lat="59.8333291" lon="17.6430929">
        <ele>24.651</ele>
        <time>2014-06-01T10:39:32Z</time>
      </trkpt>
      <trkpt lat="59.8332981" lon="17.6430152">
        <ele>24.651</ele>
        <time>2014-06-01T10:39:33Z</time>
      </trkpt>
      <trkpt lat="59.8332658" lon="17.6429247">
        <ele>24.1703</ele>
        <time>2014-06-01T10:39:34Z</time>
      </trkpt>
      <trkpt lat="59.8332324" lon="17.6428312">
        <ele>24.1703</ele>
        <time>2014-06-01T10:39:35Z</time>
      </trkpt>
      <trkpt lat="59.8331976" lon="17.6427273">
        <ele>24.1703</ele>
        <time>2014-06-01T10:39:36Z</time>
      </trkpt>
      <trkpt lat="59.833157" lon="17.6426263">
        <ele>24.651</ele>
        <time>2014-06-01T10:39:37Z</time>
      </trkpt>
      <trkpt lat="59.8331208" lon="17.6425279">
        <ele>24.651</ele>
        <time>2014-06-01T10:39:38Z</time>
      </trkpt>
      <trkpt lat="59.8330847" lon="17.6424296">
        <ele>24.1703</ele>
        <time>2014-06-01T10:39:39Z</time>
      </trkpt>
      <trkpt lat="59.8329355" lon="17.6421108">
        <ele>24.1703</ele>
        <time>2014-06-01T10:39:42Z</time>
      </trkpt>
      <trkpt lat="59.8328966" lon="17.6419908">
        <ele>25.1317</ele>
        <time>2014-06-01T10:39:43Z</time>
      </trkpt>
      <trkpt lat="59.8328676" lon="17.6418814">
        <ele>25.6123</ele>
        <time>2014-06-01T10:39:44Z</time>
      </trkpt>
      <trkpt lat="59.8328389" lon="17.6417797">
        <ele>26.5736</ele>
        <time>2014-06-01T10:39:45Z</time>
      </trkpt>
      <trkpt lat="59.8328117" lon="17.6416768">
        <ele>27.5349</ele>
        <time>2014-06-01T10:39:46Z</time>
      </trkpt>
      <trkpt lat="59.8327802" lon="17.64158">
        <ele>28.0155</ele>
        <time>2014-06-01T10:39:47Z</time>
      </trkpt>
      <trkpt lat="59.832747" lon="17.6414826">
        <ele>28.0155</ele>
        <time>2014-06-01T10:39:48Z</time>
      </trkpt>
      <trkpt lat="59.832706" lon="17.6413894">
        <ele>28.9769</ele>
        <time>2014-06-01T10:39:49Z</time>
      </trkpt>
      <trkpt lat="59.832678" lon="17.6413116">
        <ele>29.4575</ele>
        <time>2014-06-01T10:39:50Z</time>
      </trkpt>
      <trkpt lat="59.8326562" lon="17.6412489">
        <ele>28.9769</ele>
        <time>2014-06-01T10:39:51Z</time>
      </trkpt>
      <trkpt lat="59.8326309" lon="17.6411783">
        <ele>28.9769</ele>
        <time>2014-06-01T10:39:52Z</time>
      </trkpt>
      <trkpt lat="59.8326064" lon="17.6411049">
        <ele>28.4962</ele>
        <time>2014-06-01T10:39:53Z</time>
      </trkpt>
      <trkpt lat="59.8325837" lon="17.6410519">
        <ele>28.9769</ele>
        <time>2014-06-01T10:39:54Z</time>
      </trkpt>
      <trkpt lat="59.832559" lon="17.6410291">
        <ele>29.4575</ele>
        <time>2014-06-01T10:39:55Z</time>
      </trkpt>
      <trkpt lat="59.8325382" lon="17.6410276">
        <ele>28.9769</ele>
        <time>2014-06-01T10:39:56Z</time>
      </trkpt>
      <trkpt lat="59.8325086" lon="17.6410329">
        <ele>28.4962</ele>
        <time>2014-06-01T10:39:57Z</time>
      </trkpt>
      <trkpt lat="59.8324631" lon="17.6410396">
        <ele>28.0155</ele>
        <time>2014-06-01T10:39:58Z</time>
      </trkpt>
      <trkpt lat="59.8324165" lon="17.6410356">
        <ele>28.0155</ele>
        <time>2014-06-01T10:39:59Z</time>
      </trkpt>
      <trkpt lat="59.8323683" lon="17.6410219">
        <ele>28.0155</ele>
        <time>2014-06-01T10:40:00Z</time>
      </trkpt>
      <trkpt lat="59.8323175" lon="17.6410011">
        <ele>28.4962</ele>
        <time>2014-06-01T10:40:01Z</time>
      </trkpt>
      <trkpt lat="59.8322666" lon="17.6409816">
        <ele>28.4962</ele>
        <time>2014-06-01T10:40:02Z</time>
      </trkpt>
      <trkpt lat="59.8322149" lon="17.6409552">
        <ele>28.4962</ele>
        <time>2014-06-01T10:40:03Z</time>
      </trkpt>
      <trkpt lat="59.8321686" lon="17.640926">
        <ele>28.0155</ele>
        <time>2014-06-01T10:40:04Z</time>
      </trkpt>
      <trkpt lat="59.8321186" lon="17.6409096">
        <ele>28.0155</ele>
        <time>2014-06-01T10:40:05Z</time>
      </trkpt>
      <trkpt lat="59.8320693" lon="17.6408926">
        <ele>28.4962</ele>
        <time>2014-06-01T10:40:06Z</time>
      </trkpt>
      <trkpt lat="59.8320241" lon="17.6408761">
        <ele>28.4962</ele>
        <time>2014-06-01T10:40:07Z</time>
      </trkpt>
      <trkpt lat="59.8319751" lon="17.6408626">
        <ele>28.9769</ele>
        <time>2014-06-01T10:40:08Z</time>
      </trkpt>
      <trkpt lat="59.8319222" lon="17.6408569">
        <ele>29.4575</ele>
        <time>2014-06-01T10:40:09Z</time>
      </trkpt>
      <trkpt lat="59.8318771" lon="17.6408403">
        <ele>30.4188</ele>
        <time>2014-06-01T10:40:10Z</time>
      </trkpt>
      <trkpt lat="59.8318347" lon="17.6408267">
        <ele>29.9381</ele>
        <time>2014-06-01T10:40:11Z</time>
      </trkpt>
      <trkpt lat="59.8318" lon="17.6408097">
        <ele>29.4575</ele>
        <time>2014-06-01T10:40:12Z</time>
      </trkpt>
      <trkpt lat="59.8317596" lon="17.6407977">
        <ele>28.9769</ele>
        <time>2014-06-01T10:40:13Z</time>
      </trkpt>
      <trkpt lat="59.8317156" lon="17.6407843">
        <ele>28.9769</ele>
        <time>2014-06-01T10:40:14Z</time>
      </trkpt>
      <trkpt lat="59.8316621" lon="17.6407802">
        <ele>27.5349</ele>
        <time>2014-06-01T10:40:15Z</time>
      </trkpt>
      <trkpt lat="59.8316077" lon="17.6407841">
        <ele>26.5736</ele>
        <time>2014-06-01T10:40:16Z</time>
      </trkpt>
      <trkpt lat="59.8315489" lon="17.6408086">
        <ele>25.6123</ele>
        <time>2014-06-01T10:40:17Z</time>
      </trkpt>
      <trkpt lat="59.8314938" lon="17.6408385">
        <ele>25.1317</ele>
        <time>2014-06-01T10:40:18Z</time>
      </trkpt>
      <trkpt lat="59.8314374" lon="17.6408744">
        <ele>24.1703</ele>
        <time>2014-06-01T10:40:19Z</time>
      </trkpt>
      <trkpt lat="59.8313711" lon="17.6409287">
        <ele>23.6896</ele>
        <time>2014-06-01T10:40:20Z</time>
      </trkpt>
      <trkpt lat="59.8312935" lon="17.6409878">
        <ele>23.6896</ele>
        <time>2014-06-01T10:40:21Z</time>
      </trkpt>
      <trkpt lat="59.8312151" lon="17.6410256">
        <ele>23.6896</ele>
        <time>2014-06-01T10:40:22Z</time>
      </trkpt>
      <trkpt lat="59.8311349" lon="17.6410584">
        <ele>25.1317</ele>
        <time>2014-06-01T10:40:23Z</time>
      </trkpt>
      <trkpt lat="59.8310549" lon="17.6410835">
        <ele>26.5736</ele>
        <time>2014-06-01T10:40:24Z</time>
      </trkpt>
      <trkpt lat="59.8309815" lon="17.6410879">
        <ele>26.0929</ele>
        <time>2014-06-01T10:40:25Z</time>
      </trkpt>
      <trkpt lat="59.8308608" lon="17.6410903">
        <ele>25.1317</ele>
        <time>2014-06-01T10:40:26Z</time>
      </trkpt>
      <trkpt lat="59.8307749" lon="17.6411368">
        <ele>25.1317</ele>
        <time>2014-06-01T10:40:27Z</time>
      </trkpt>
      <trkpt lat="59.8307006" lon="17.641165">
        <ele>25.6123</ele>
        <time>2014-06-01T10:40:28Z</time>
      </trkpt>
      <trkpt lat="59.8306488" lon="17.6411834">
        <ele>26.0929</ele>
        <time>2014-06-01T10:40:29Z</time>
      </trkpt>
      <trkpt lat="59.8305911" lon="17.6411969">
        <ele>26.0929</ele>
        <time>2014-06-01T10:40:30Z</time>
      </trkpt>
      <trkpt lat="59.8305361" lon="17.6412033">
        <ele>26.0929</ele>
        <time>2014-06-01T10:40:31Z</time>
      </trkpt>
      <trkpt lat="59.830474" lon="17.6412075">
        <ele>25.6123</ele>
        <time>2014-06-01T10:40:32Z</time>
      </trkpt>
      <trkpt lat="59.8304089" lon="17.6412062">
        <ele>26.0929</ele>
        <time>2014-06-01T10:40:33Z</time>
      </trkpt>
      <trkpt lat="59.8303485" lon="17.6412131">
        <ele>25.6123</ele>
        <time>2014-06-01T10:40:34Z</time>
      </trkpt>
      <trkpt lat="59.8302864" lon="17.6412221">
        <ele>25.6123</ele>
        <time>2014-06-01T10:40:35Z</time>
      </trkpt>
      <trkpt lat="59.8302227" lon="17.6412339">
        <ele>25.1317</ele>
        <time>2014-06-01T10:40:36Z</time>
      </trkpt>
      <trkpt lat="59.8301558" lon="17.6412273">
        <ele>24.651</ele>
        <time>2014-06-01T10:40:37Z</time>
      </trkpt>
      <trkpt lat="59.8300842" lon="17.6411841">
        <ele>23.6896</ele>
        <time>2014-06-01T10:40:38Z</time>
      </trkpt>
      <trkpt lat="59.8300181" lon="17.6411314">
        <ele>22.2476</ele>
        <time>2014-06-01T10:40:39Z</time>
      </trkpt>
      <trkpt lat="59.8299532" lon="17.6410821">
        <ele>21.2864</ele>
        <time>2014-06-01T10:40:40Z</time>
      </trkpt>
      <trkpt lat="59.829883" lon="17.6410325">
        <ele>19.8444</ele>
        <time>2014-06-01T10:40:41Z</time>
      </trkpt>
      <trkpt lat="59.8298174" lon="17.640981">
        <ele>18.8831</ele>
        <time>2014-06-01T10:40:42Z</time>
      </trkpt>
      <trkpt lat="59.8297466" lon="17.640927">
        <ele>18.4023</ele>
        <time>2014-06-01T10:40:43Z</time>
      </trkpt>
      <trkpt lat="59.8296802" lon="17.6408805">
        <ele>17.9218</ele>
        <time>2014-06-01T10:40:44Z</time>
      </trkpt>
      <trkpt lat="59.8296212" lon="17.6408381">
        <ele>16.9604</ele>
        <time>2014-06-01T10:40:45Z</time>
      </trkpt>
      <trkpt lat="59.8295683" lon="17.640788">
        <ele>16.4797</ele>
        <time>2014-06-01T10:40:46Z</time>
      </trkpt>
      <trkpt lat="59.8295113" lon="17.6407548">
        <ele>15.0377</ele>
        <time>2014-06-01T10:40:47Z</time>
      </trkpt>
      <trkpt lat="59.8294524" lon="17.6407409">
        <ele>13.5958</ele>
        <time>2014-06-01T10:40:48Z</time>
      </trkpt>
      <trkpt lat="59.8293984" lon="17.6407421">
        <ele>13.1151</ele>
        <time>2014-06-01T10:40:49Z</time>
      </trkpt>
      <trkpt lat="59.8293437" lon="17.6407569">
        <ele>12.6344</ele>
        <time>2014-06-01T10:40:50Z</time>
      </trkpt>
      <trkpt lat="59.8292835" lon="17.6407699">
        <ele>11.6732</ele>
        <time>2014-06-01T10:40:51Z</time>
      </trkpt>
      <trkpt lat="59.8292219" lon="17.6407785">
        <ele>11.6732</ele>
        <time>2014-06-01T10:40:52Z</time>
      </trkpt>
      <trkpt lat="59.8291667" lon="17.6408009">
        <ele>11.1925</ele>
        <time>2014-06-01T10:40:53Z</time>
      </trkpt>
      <trkpt lat="59.8291201" lon="17.6408412">
        <ele>10.7118</ele>
        <time>2014-06-01T10:40:54Z</time>
      </trkpt>
      <trkpt lat="59.8290653" lon="17.6409055">
        <ele>9.2699</ele>
        <time>2014-06-01T10:40:55Z</time>
      </trkpt>
      <trkpt lat="59.8290005" lon="17.641009">
        <ele>7.34717</ele>
        <time>2014-06-01T10:40:56Z</time>
      </trkpt>
      <trkpt lat="59.8289446" lon="17.6411187">
        <ele>7.34717</ele>
        <time>2014-06-01T10:40:57Z</time>
      </trkpt>
      <trkpt lat="59.8288773" lon="17.6412024">
        <ele>7.82788</ele>
        <time>2014-06-01T10:40:58Z</time>
      </trkpt>
      <trkpt lat="59.828811" lon="17.6412407">
        <ele>8.78918</ele>
        <time>2014-06-01T10:40:59Z</time>
      </trkpt>
      <trkpt lat="59.8287443" lon="17.6412458">
        <ele>9.75061</ele>
        <time>2014-06-01T10:41:00Z</time>
      </trkpt>
      <trkpt lat="59.8286674" lon="17.6412467">
        <ele>11.6732</ele>
        <time>2014-06-01T10:41:01Z</time>
      </trkpt>
      <trkpt lat="59.8285847" lon="17.6412557">
        <ele>11.6732</ele>
        <time>2014-06-01T10:41:02Z</time>
      </trkpt>
      <trkpt lat="59.8285029" lon="17.6412494">
        <ele>13.1151</ele>
        <time>2014-06-01T10:41:03Z</time>
      </trkpt>
      <trkpt lat="59.8284173" lon="17.6412183">
        <ele>15.0377</ele>
        <time>2014-06-01T10:41:04Z</time>
      </trkpt>
      <trkpt lat="59.8283414" lon="17.6411974">
        <ele>15.5184</ele>
        <time>2014-06-01T10:41:05Z</time>
      </trkpt>
      <trkpt lat="59.8282753" lon="17.6411639">
        <ele>15.5184</ele>
        <time>2014-06-01T10:41:06Z</time>
      </trkpt>
      <trkpt lat="59.828188" lon="17.6410795">
        <ele>15.999</ele>
        <time>2014-06-01T10:41:07Z</time>
      </trkpt>
      <trkpt lat="59.8281152" lon="17.6410071">
        <ele>16.4797</ele>
        <time>2014-06-01T10:41:08Z</time>
      </trkpt>
      <trkpt lat="59.828046" lon="17.640937">
        <ele>15.999</ele>
        <time>2014-06-01T10:41:09Z</time>
      </trkpt>
      <trkpt lat="59.8279815" lon="17.6408644">
        <ele>16.4797</ele>
        <time>2014-06-01T10:41:10Z</time>
      </trkpt>
      <trkpt lat="59.8279204" lon="17.6407992">
        <ele>16.9604</ele>
        <time>2014-06-01T10:41:11Z</time>
      </trkpt>
      <trkpt lat="59.8278437" lon="17.6407282">
        <ele>18.4023</ele>
        <time>2014-06-01T10:41:12Z</time>
      </trkpt>
      <trkpt lat="59.8277741" lon="17.6406677">
        <ele>18.4023</ele>
        <time>2014-06-01T10:41:13Z</time>
      </trkpt>
      <trkpt lat="59.8276938" lon="17.6406041">
        <ele>18.4023</ele>
        <time>2014-06-01T10:41:14Z</time>
      </trkpt>
      <trkpt lat="59.8276109" lon="17.6405435">
        <ele>19.3638</ele>
        <time>2014-06-01T10:41:15Z</time>
      </trkpt>
      <trkpt lat="59.8275443" lon="17.6404699">
        <ele>19.3638</ele>
        <time>2014-06-01T10:41:16Z</time>
      </trkpt>
      <trkpt lat="59.8274762" lon="17.6403952">
        <ele>19.3638</ele>
        <time>2014-06-01T10:41:17Z</time>
      </trkpt>
      <trkpt lat="59.827417" lon="17.6403148">
        <ele>19.3638</ele>
        <time>2014-06-01T10:41:18Z</time>
      </trkpt>
      <trkpt lat="59.8273667" lon="17.6402408">
        <ele>19.8444</ele>
        <time>2014-06-01T10:41:19Z</time>
      </trkpt>
      <trkpt lat="59.8273297" lon="17.6401466">
        <ele>19.8444</ele>
        <time>2014-06-01T10:41:20Z</time>
      </trkpt>
      <trkpt lat="59.8272912" lon="17.6400393">
        <ele>19.8444</ele>
        <time>2014-06-01T10:41:21Z</time>
      </trkpt>
      <trkpt lat="59.8272444" lon="17.6399403">
        <ele>20.325</ele>
        <time>2014-06-01T10:41:22Z</time>
      </trkpt>
      <trkpt lat="59.8271965" lon="17.6398855">
        <ele>17.9218</ele>
        <time>2014-06-01T10:41:23Z</time>
      </trkpt>
      <trkpt lat="59.8271447" lon="17.6398596">
        <ele>17.4412</ele>
        <time>2014-06-01T10:41:24Z</time>
      </trkpt>
      <trkpt lat="59.8270949" lon="17.6398333">
        <ele>16.4797</ele>
        <time>2014-06-01T10:41:25Z</time>
      </trkpt>
      <trkpt lat="59.8270534" lon="17.6397903">
        <ele>15.5184</ele>
        <time>2014-06-01T10:41:26Z</time>
      </trkpt>
      <trkpt lat="59.8270053" lon="17.6397223">
        <ele>14.0764</ele>
        <time>2014-06-01T10:41:27Z</time>
      </trkpt>
      <trkpt lat="59.8269535" lon="17.6396436">
        <ele>13.5958</ele>
        <time>2014-06-01T10:41:28Z</time>
      </trkpt>
      <trkpt lat="59.8269027" lon="17.6395543">
        <ele>12.6344</ele>
        <time>2014-06-01T10:41:29Z</time>
      </trkpt>
      <trkpt lat="59.8268458" lon="17.6393733">
        <ele>12.1538</ele>
        <time>2014-06-01T10:41:30Z</time>
      </trkpt>
      <trkpt lat="59.8267981" lon="17.6391995">
        <ele>12.6344</ele>
        <time>2014-06-01T10:41:31Z</time>
      </trkpt>
      <trkpt lat="59.8267616" lon="17.6390477">
        <ele>12.6344</ele>
        <time>2014-06-01T10:41:32Z</time>
      </trkpt>
      <trkpt lat="59.8267357" lon="17.6389171">
        <ele>12.6344</ele>
        <time>2014-06-01T10:41:33Z</time>
      </trkpt>
      <trkpt lat="59.8267024" lon="17.6388043">
        <ele>12.6344</ele>
        <time>2014-06-01T10:41:34Z</time>
      </trkpt>
      <trkpt lat="59.8266708" lon="17.6387235">
        <ele>11.6732</ele>
        <time>2014-06-01T10:41:35Z</time>
      </trkpt>
      <trkpt lat="59.8266256" lon="17.6386414">
        <ele>10.2312</ele>
        <time>2014-06-01T10:41:36Z</time>
      </trkpt>
      <trkpt lat="59.8265546" lon="17.6385706">
        <ele>8.78918</ele>
        <time>2014-06-01T10:41:37Z</time>
      </trkpt>
      <trkpt lat="59.8264747" lon="17.6385088">
        <ele>6.86646</ele>
        <time>2014-06-01T10:41:38Z</time>
      </trkpt>
      <trkpt lat="59.8263889" lon="17.638464">
        <ele>6.38586</ele>
        <time>2014-06-01T10:41:39Z</time>
      </trkpt>
      <trkpt lat="59.8262992" lon="17.6384377">
        <ele>6.38586</ele>
        <time>2014-06-01T10:41:40Z</time>
      </trkpt>
      <trkpt lat="59.8262075" lon="17.6384237">
        <ele>6.86646</ele>
        <time>2014-06-01T10:41:41Z</time>
      </trkpt>
      <trkpt lat="59.8261155" lon="17.6384256">
        <ele>6.86646</ele>
        <time>2014-06-01T10:41:42Z</time>
      </trkpt>
      <trkpt lat="59.8260261" lon="17.6384475">
        <ele>6.86646</ele>
        <time>2014-06-01T10:41:43Z</time>
      </trkpt>
      <trkpt lat="59.8259355" lon="17.6384839">
        <ele>6.86646</ele>
        <time>2014-06-01T10:41:44Z</time>
      </trkpt>
      <trkpt lat="59.8258461" lon="17.6385263">
        <ele>6.86646</ele>
        <time>2014-06-01T10:41:45Z</time>
      </trkpt>
      <trkpt lat="59.8257565" lon="17.6385636">
        <ele>7.82788</ele>
        <time>2014-06-01T10:41:46Z</time>
      </trkpt>
      <trkpt lat="59.8256699" lon="17.6386008">
        <ele>7.82788</ele>
        <time>2014-06-01T10:41:47Z</time>
      </trkpt>
      <trkpt lat="59.8255803" lon="17.6386335">
        <ele>8.30859</ele>
        <time>2014-06-01T10:41:48Z</time>
      </trkpt>
      <trkpt lat="59.8254896" lon="17.6386597">
        <ele>9.2699</ele>
        <time>2014-06-01T10:41:49Z</time>
      </trkpt>
      <trkpt lat="59.8253962" lon="17.6386734">
        <ele>10.7118</ele>
        <time>2014-06-01T10:41:50Z</time>
      </trkpt>
      <trkpt lat="59.825304" lon="17.6386884">
        <ele>11.6732</ele>
        <time>2014-06-01T10:41:51Z</time>
      </trkpt>
      <trkpt lat="59.825214" lon="17.6387055">
        <ele>12.6344</ele>
        <time>2014-06-01T10:41:52Z</time>
      </trkpt>
      <trkpt lat="59.825126" lon="17.6387128">
        <ele>13.1151</ele>
        <time>2014-06-01T10:41:53Z</time>
      </trkpt>
      <trkpt lat="59.8250389" lon="17.6387209">
        <ele>13.5958</ele>
        <time>2014-06-01T10:41:54Z</time>
      </trkpt>
      <trkpt lat="59.8249541" lon="17.6387485">
        <ele>13.5958</ele>
        <time>2014-06-01T10:41:55Z</time>
      </trkpt>
      <trkpt lat="59.8248752" lon="17.6387962">
        <ele>13.5958</ele>
        <time>2014-06-01T10:41:56Z</time>
      </trkpt>
      <trkpt lat="59.8247986" lon="17.6388588">
        <ele>14.0764</ele>
        <time>2014-06-01T10:41:57Z</time>
      </trkpt>
      <trkpt lat="59.8247286" lon="17.6389187">
        <ele>14.557</ele>
        <time>2014-06-01T10:41:58Z</time>
      </trkpt>
      <trkpt lat="59.8246705" lon="17.6389548">
        <ele>14.557</ele>
        <time>2014-06-01T10:41:59Z</time>
      </trkpt>
      <trkpt lat="59.8246178" lon="17.6389679">
        <ele>14.557</ele>
        <time>2014-06-01T10:42:00Z</time>
      </trkpt>
      <trkpt lat="59.8245603" lon="17.6389598">
        <ele>15.0377</ele>
        <time>2014-06-01T10:42:01Z</time>
      </trkpt>
      <trkpt lat="59.8244938" lon="17.6389054">
        <ele>15.0377</ele>
        <time>2014-06-01T10:42:02Z</time>
      </trkpt>
      <trkpt lat="59.824434" lon="17.6387924">
        <ele>16.4797</ele>
        <time>2014-06-01T10:42:03Z</time>
      </trkpt>
      <trkpt lat="59.824382" lon="17.6386723">
        <ele>16.9604</ele>
        <time>2014-06-01T10:42:04Z</time>
      </trkpt>
      <trkpt lat="59.8243363" lon="17.638547">
        <ele>16.9604</ele>
        <time>2014-06-01T10:42:05Z</time>
      </trkpt>
      <trkpt lat="59.8242925" lon="17.6384236">
        <ele>17.4412</ele>
        <time>2014-06-01T10:42:06Z</time>
      </trkpt>
      <trkpt lat="59.8242455" lon="17.6383035">
        <ele>17.9218</ele>
        <time>2014-06-01T10:42:07Z</time>
      </trkpt>
      <trkpt lat="59.8241942" lon="17.6381926">
        <ele>18.8831</ele>
        <time>2014-06-01T10:42:08Z</time>
      </trkpt>
      <trkpt lat="59.8241402" lon="17.6380901">
        <ele>19.3638</ele>
        <time>2014-06-01T10:42:09Z</time>
      </trkpt>
      <trkpt lat="59.8240853" lon="17.6379734">
        <ele>19.8444</ele>
        <time>2014-06-01T10:42:10Z</time>
      </trkpt>
      <trkpt lat="59.8240366" lon="17.6378828">
        <ele>20.325</ele>
        <time>2014-06-01T10:42:11Z</time>
      </trkpt>
      <trkpt lat="59.8239996" lon="17.6377974">
        <ele>20.325</ele>
        <time>2014-06-01T10:42:12Z</time>
      </trkpt>
      <trkpt lat="59.823953" lon="17.6377486">
        <ele>19.8444</ele>
        <time>2014-06-01T10:42:13Z</time>
      </trkpt>
      <trkpt lat="59.8239014" lon="17.6377196">
        <ele>20.325</ele>
        <time>2014-06-01T10:42:14Z</time>
      </trkpt>
      <trkpt lat="59.823847" lon="17.6377081">
        <ele>20.8057</ele>
        <time>2014-06-01T10:42:15Z</time>
      </trkpt>
      <trkpt lat="59.8238019" lon="17.637701">
        <ele>20.8057</ele>
        <time>2014-06-01T10:42:16Z</time>
      </trkpt>
      <trkpt lat="59.8237574" lon="17.6376926">
        <ele>20.8057</ele>
        <time>2014-06-01T10:42:17Z</time>
      </trkpt>
      <trkpt lat="59.8237093" lon="17.6376812">
        <ele>20.8057</ele>
        <time>2014-06-01T10:42:18Z</time>
      </trkpt>
      <trkpt lat="59.8236595" lon="17.6376771">
        <ele>20.8057</ele>
        <time>2014-06-01T10:42:19Z</time>
      </trkpt>
      <trkpt lat="59.8236059" lon="17.6376803">
        <ele>20.325</ele>
        <time>2014-06-01T10:42:20Z</time>
      </trkpt>
      <trkpt lat="59.8235491" lon="17.6376869">
        <ele>19.3638</ele>
        <time>2014-06-01T10:42:21Z</time>
      </trkpt>
      <trkpt lat="59.8234932" lon="17.6376959">
        <ele>18.4023</ele>
        <time>2014-06-01T10:42:22Z</time>
      </trkpt>
      <trkpt lat="59.8234439" lon="17.6377003">
        <ele>17.4412</ele>
        <time>2014-06-01T10:42:23Z</time>
      </trkpt>
      <trkpt lat="59.823388" lon="17.6377143">
        <ele>17.4412</ele>
        <time>2014-06-01T10:42:24Z</time>
      </trkpt>
      <trkpt lat="59.8233298" lon="17.6377527">
        <ele>17.4412</ele>
        <time>2014-06-01T10:42:25Z</time>
      </trkpt>
      <trkpt lat="59.8232834" lon="17.6378042">
        <ele>17.4412</ele>
        <time>2014-06-01T10:42:26Z</time>
      </trkpt>
      <trkpt lat="59.8232539" lon="17.637844">
        <ele>17.4412</ele>
        <time>2014-06-01T10:42:27Z</time>
      </trkpt>
      <trkpt lat="59.823226" lon="17.6378987">
        <ele>17.4412</ele>
        <time>2014-06-01T10:42:28Z</time>
      </trkpt>
      <trkpt lat="59.8231952" lon="17.6379412">
        <ele>17.4412</ele>
        <time>2014-06-01T10:42:29Z</time>
      </trkpt>
      <trkpt lat="59.8231689" lon="17.6379762">
        <ele>17.4412</ele>
        <time>2014-06-01T10:42:30Z</time>
      </trkpt>
      <trkpt lat="59.8231384" lon="17.6380156">
        <ele>16.9604</ele>
        <time>2014-06-01T10:42:31Z</time>
      </trkpt>
      <trkpt lat="59.8231082" lon="17.6380523">
        <ele>17.4412</ele>
        <time>2014-06-01T10:42:32Z</time>
      </trkpt>
      <trkpt lat="59.8230864" lon="17.6380922">
        <ele>16.4797</ele>
        <time>2014-06-01T10:42:33Z</time>
      </trkpt>
      <trkpt lat="59.8230622" lon="17.6381377">
        <ele>15.999</ele>
        <time>2014-06-01T10:42:34Z</time>
      </trkpt>
      <trkpt lat="59.8230335" lon="17.6381792">
        <ele>15.5184</ele>
        <time>2014-06-01T10:42:35Z</time>
      </trkpt>
      <trkpt lat="59.8230021" lon="17.638218">
        <ele>15.5184</ele>
        <time>2014-06-01T10:42:36Z</time>
      </trkpt>
      <trkpt lat="59.8229595" lon="17.6382808">
        <ele>16.4797</ele>
        <time>2014-06-01T10:42:37Z</time>
      </trkpt>
      <trkpt lat="59.8229286" lon="17.6383248">
        <ele>16.4797</ele>
        <time>2014-06-01T10:42:38Z</time>
      </trkpt>
      <trkpt lat="59.8228952" lon="17.6383557">
        <ele>15.999</ele>
        <time>2014-06-01T10:42:39Z</time>
      </trkpt>
      <trkpt lat="59.8228634" lon="17.6383732">
        <ele>15.999</ele>
        <time>2014-06-01T10:42:40Z</time>
      </trkpt>
      <trkpt lat="59.8228291" lon="17.6383724">
        <ele>15.0377</ele>
        <time>2014-06-01T10:42:41Z</time>
      </trkpt>
      <trkpt lat="59.8227918" lon="17.6383683">
        <ele>15.0377</ele>
        <time>2014-06-01T10:42:42Z</time>
      </trkpt>
      <trkpt lat="59.8227535" lon="17.6383652">
        <ele>14.557</ele>
        <time>2014-06-01T10:42:43Z</time>
      </trkpt>
      <trkpt lat="59.8227215" lon="17.638364">
        <ele>14.0764</ele>
        <time>2014-06-01T10:42:44Z</time>
      </trkpt>
      <trkpt lat="59.8226895" lon="17.6383466">
        <ele>13.1151</ele>
        <time>2014-06-01T10:42:45Z</time>
      </trkpt>
      <trkpt lat="59.8226576" lon="17.6383305">
        <ele>13.1151</ele>
        <time>2014-06-01T10:42:46Z</time>
      </trkpt>
      <trkpt lat="59.8226178" lon="17.6383278">
        <ele>13.5958</ele>
        <time>2014-06-01T10:42:47Z</time>
      </trkpt>
      <trkpt lat="59.8225876" lon="17.6383081">
        <ele>14.0764</ele>
        <time>2014-06-01T10:42:48Z</time>
      </trkpt>
      <trkpt lat="59.8225697" lon="17.638286">
        <ele>14.557</ele>
        <time>2014-06-01T10:42:49Z</time>
      </trkpt>
      <trkpt lat="59.8225567" lon="17.6382529">
        <ele>14.557</ele>
        <time>2014-06-01T10:42:50Z</time>
      </trkpt>
      <trkpt lat="59.8225401" lon="17.6382139">
        <ele>14.557</ele>
        <time>2014-06-01T10:42:51Z</time>
      </trkpt>
      <trkpt lat="59.8225174" lon="17.6381862">
        <ele>14.557</ele>
        <time>2014-06-01T10:42:52Z</time>
      </trkpt>
      <trkpt lat="59.8224897" lon="17.6381627">
        <ele>14.0764</ele>
        <time>2014-06-01T10:42:53Z</time>
      </trkpt>
      <trkpt lat="59.8224578" lon="17.6381284">
        <ele>14.0764</ele>
        <time>2014-06-01T10:42:54Z</time>
      </trkpt>
      <trkpt lat="59.8224286" lon="17.6380997">
        <ele>13.5958</ele>
        <time>2014-06-01T10:42:55Z</time>
      </trkpt>
      <trkpt lat="59.8224015" lon="17.6380823">
        <ele>14.0764</ele>
        <time>2014-06-01T10:42:56Z</time>
      </trkpt>
      <trkpt lat="59.8223779" lon="17.6380621">
        <ele>14.0764</ele>
        <time>2014-06-01T10:42:57Z</time>
      </trkpt>
      <trkpt lat="59.8223593" lon="17.6380372">
        <ele>14.0764</ele>
        <time>2014-06-01T10:42:58Z</time>
      </trkpt>
      <trkpt lat="59.8223416" lon="17.6380165">
        <ele>14.0764</ele>
        <time>2014-06-01T10:42:59Z</time>
      </trkpt>
      <trkpt lat="59.822325" lon="17.6379963">
        <ele>14.0764</ele>
        <time>2014-06-01T10:43:00Z</time>
      </trkpt>
      <trkpt lat="59.8223086" lon="17.6379757">
        <ele>13.5958</ele>
        <time>2014-06-01T10:43:01Z</time>
      </trkpt>
      <trkpt lat="59.8222892" lon="17.6379636">
        <ele>14.0764</ele>
        <time>2014-06-01T10:43:02Z</time>
      </trkpt>
      <trkpt lat="59.8222682" lon="17.6379542">
        <ele>14.557</ele>
        <time>2014-06-01T10:43:03Z</time>
      </trkpt>
      <trkpt lat="59.8222426" lon="17.6379392">
        <ele>14.0764</ele>
        <time>2014-06-01T10:43:04Z</time>
      </trkpt>
      <trkpt lat="59.8222065" lon="17.6379227">
        <ele>14.557</ele>
        <time>2014-06-01T10:43:05Z</time>
      </trkpt>
      <trkpt lat="59.8221658" lon="17.6379097">
        <ele>14.557</ele>
        <time>2014-06-01T10:43:06Z</time>
      </trkpt>
      <trkpt lat="59.8221244" lon="17.6378902">
        <ele>14.557</ele>
        <time>2014-06-01T10:43:07Z</time>
      </trkpt>
      <trkpt lat="59.822083" lon="17.6378623">
        <ele>14.557</ele>
        <time>2014-06-01T10:43:08Z</time>
      </trkpt>
      <trkpt lat="59.82204" lon="17.637832">
        <ele>14.0764</ele>
        <time>2014-06-01T10:43:09Z</time>
      </trkpt>
      <trkpt lat="59.8219978" lon="17.6378034">
        <ele>13.5958</ele>
        <time>2014-06-01T10:43:10Z</time>
      </trkpt>
      <trkpt lat="59.8219547" lon="17.637772">
        <ele>14.0764</ele>
        <time>2014-06-01T10:43:11Z</time>
      </trkpt>
      <trkpt lat="59.8219139" lon="17.6377436">
        <ele>13.5958</ele>
        <time>2014-06-01T10:43:12Z</time>
      </trkpt>
      <trkpt lat="59.8218771" lon="17.6376919">
        <ele>13.5958</ele>
        <time>2014-06-01T10:43:13Z</time>
      </trkpt>
      <trkpt lat="59.8218423" lon="17.6376204">
        <ele>14.557</ele>
        <time>2014-06-01T10:43:14Z</time>
      </trkpt>
      <trkpt lat="59.8218065" lon="17.6375493">
        <ele>15.0377</ele>
        <time>2014-06-01T10:43:15Z</time>
      </trkpt>
      <trkpt lat="59.8217659" lon="17.6374736">
        <ele>15.5184</ele>
        <time>2014-06-01T10:43:16Z</time>
      </trkpt>
      <trkpt lat="59.8217252" lon="17.6373866">
        <ele>15.999</ele>
        <time>2014-06-01T10:43:17Z</time>
      </trkpt>
      <trkpt lat="59.8216856" lon="17.637298">
        <ele>15.999</ele>
        <time>2014-06-01T10:43:18Z</time>
      </trkpt>
      <trkpt lat="59.8216426" lon="17.6372163">
        <ele>15.999</ele>
        <time>2014-06-01T10:43:19Z</time>
      </trkpt>
      <trkpt lat="59.821604" lon="17.6371352">
        <ele>15.999</ele>
        <time>2014-06-01T10:43:20Z</time>
      </trkpt>
      <trkpt lat="59.8215646" lon="17.6370585">
        <ele>16.4797</ele>
        <time>2014-06-01T10:43:21Z</time>
      </trkpt>
      <trkpt lat="59.8215199" lon="17.6370052">
        <ele>16.9604</ele>
        <time>2014-06-01T10:43:22Z</time>
      </trkpt>
      <trkpt lat="59.8214704" lon="17.6369775">
        <ele>16.9604</ele>
        <time>2014-06-01T10:43:23Z</time>
      </trkpt>
      <trkpt lat="59.8214145" lon="17.6369796">
        <ele>17.4412</ele>
        <time>2014-06-01T10:43:24Z</time>
      </trkpt>
      <trkpt lat="59.8213577" lon="17.6370116">
        <ele>17.9218</ele>
        <time>2014-06-01T10:43:25Z</time>
      </trkpt>
      <trkpt lat="59.821298" lon="17.6370598">
        <ele>18.4023</ele>
        <time>2014-06-01T10:43:26Z</time>
      </trkpt>
      <trkpt lat="59.8212352" lon="17.6371021">
        <ele>18.4023</ele>
        <time>2014-06-01T10:43:27Z</time>
      </trkpt>
      <trkpt lat="59.8211679" lon="17.6371331">
        <ele>18.8831</ele>
        <time>2014-06-01T10:43:28Z</time>
      </trkpt>
      <trkpt lat="59.8210974" lon="17.6371629">
        <ele>19.3638</ele>
        <time>2014-06-01T10:43:29Z</time>
      </trkpt>
      <trkpt lat="59.8210262" lon="17.6371966">
        <ele>19.3638</ele>
        <time>2014-06-01T10:43:30Z</time>
      </trkpt>
      <trkpt lat="59.8209533" lon="17.6372319">
        <ele>19.3638</ele>
        <time>2014-06-01T10:43:31Z</time>
      </trkpt>
      <trkpt lat="59.8208778" lon="17.6372633">
        <ele>19.8444</ele>
        <time>2014-06-01T10:43:32Z</time>
      </trkpt>
      <trkpt lat="59.8208009" lon="17.6372857">
        <ele>19.8444</ele>
        <time>2014-06-01T10:43:33Z</time>
      </trkpt>
      <trkpt lat="59.8207232" lon="17.637299">
        <ele>20.325</ele>
        <time>2014-06-01T10:43:34Z</time>
      </trkpt>
      <trkpt lat="59.8206463" lon="17.6373043">
        <ele>20.8057</ele>
        <time>2014-06-01T10:43:35Z</time>
      </trkpt>
      <trkpt lat="59.8205695" lon="17.6373041">
        <ele>20.8057</ele>
        <time>2014-06-01T10:43:36Z</time>
      </trkpt>
      <trkpt lat="59.8204913" lon="17.6372996">
        <ele>20.8057</ele>
        <time>2014-06-01T10:43:37Z</time>
      </trkpt>
      <trkpt lat="59.8204144" lon="17.6372882">
        <ele>21.2864</ele>
        <time>2014-06-01T10:43:38Z</time>
      </trkpt>
      <trkpt lat="59.8203399" lon="17.6372732">
        <ele>21.767</ele>
        <time>2014-06-01T10:43:39Z</time>
      </trkpt>
      <trkpt lat="59.820268" lon="17.6372575">
        <ele>22.2476</ele>
        <time>2014-06-01T10:43:40Z</time>
      </trkpt>
      <trkpt lat="59.8201986" lon="17.637241">
        <ele>22.2476</ele>
        <time>2014-06-01T10:43:41Z</time>
      </trkpt>
      <trkpt lat="59.8201325" lon="17.6372244">
        <ele>22.7283</ele>
        <time>2014-06-01T10:43:42Z</time>
      </trkpt>
      <trkpt lat="59.8200693" lon="17.6372079">
        <ele>23.209</ele>
        <time>2014-06-01T10:43:43Z</time>
      </trkpt>
      <trkpt lat="59.8200091" lon="17.6371904">
        <ele>23.209</ele>
        <time>2014-06-01T10:43:44Z</time>
      </trkpt>
      <trkpt lat="59.819951" lon="17.6371713">
        <ele>23.209</ele>
        <time>2014-06-01T10:43:45Z</time>
      </trkpt>
      <trkpt lat="59.8198944" lon="17.6371549">
        <ele>23.6896</ele>
        <time>2014-06-01T10:43:46Z</time>
      </trkpt>
      <trkpt lat="59.8198402" lon="17.6371386">
        <ele>23.6896</ele>
        <time>2014-06-01T10:43:47Z</time>
      </trkpt>
      <trkpt lat="59.8197889" lon="17.6371235">
        <ele>24.1703</ele>
        <time>2014-06-01T10:43:48Z</time>
      </trkpt>
      <trkpt lat="59.8197397" lon="17.6371095">
        <ele>24.651</ele>
        <time>2014-06-01T10:43:49Z</time>
      </trkpt>
      <trkpt lat="59.8196919" lon="17.637096">
        <ele>24.651</ele>
        <time>2014-06-01T10:43:50Z</time>
      </trkpt>
      <trkpt lat="59.819646" lon="17.6370831">
        <ele>25.1317</ele>
        <time>2014-06-01T10:43:51Z</time>
      </trkpt>
      <trkpt lat="59.8196022" lon="17.6370694">
        <ele>25.1317</ele>
        <time>2014-06-01T10:43:52Z</time>
      </trkpt>
      <trkpt lat="59.8195597" lon="17.6370556">
        <ele>25.6123</ele>
        <time>2014-06-01T10:43:53Z</time>
      </trkpt>
      <trkpt lat="59.8195181" lon="17.6370423">
        <ele>25.6123</ele>
        <time>2014-06-01T10:43:54Z</time>
      </trkpt>
      <trkpt lat="59.8194777" lon="17.637029">
        <ele>26.0929</ele>
        <time>2014-06-01T10:43:55Z</time>
      </trkpt>
      <trkpt lat="59.8194372" lon="17.6370126">
        <ele>26.5736</ele>
        <time>2014-06-01T10:43:56Z</time>
      </trkpt>
      <trkpt lat="59.8193962" lon="17.6369941">
        <ele>26.5736</ele>
        <time>2014-06-01T10:43:57Z</time>
      </trkpt>
      <trkpt lat="59.8193537" lon="17.6369772">
        <ele>26.5736</ele>
        <time>2014-06-01T10:43:58Z</time>
      </trkpt>
      <trkpt lat="59.8193088" lon="17.636965">
        <ele>26.5736</ele>
        <time>2014-06-01T10:43:59Z</time>
      </trkpt>
      <trkpt lat="59.8192629" lon="17.6369565">
        <ele>26.5736</ele>
        <time>2014-06-01T10:44:00Z</time>
      </trkpt>
      <trkpt lat="59.8192158" lon="17.6369468">
        <ele>27.0543</ele>
        <time>2014-06-01T10:44:01Z</time>
      </trkpt>
      <trkpt lat="59.8191667" lon="17.6369339">
        <ele>27.0543</ele>
        <time>2014-06-01T10:44:02Z</time>
      </trkpt>
      <trkpt lat="59.8191184" lon="17.6369156">
        <ele>27.0543</ele>
        <time>2014-06-01T10:44:03Z</time>
      </trkpt>
      <trkpt lat="59.8190712" lon="17.636896">
        <ele>26.5736</ele>
        <time>2014-06-01T10:44:04Z</time>
      </trkpt>
      <trkpt lat="59.8190251" lon="17.6368754">
        <ele>26.5736</ele>
        <time>2014-06-01T10:44:05Z</time>
      </trkpt>
      <trkpt lat="59.8189793" lon="17.6368563">
        <ele>26.5736</ele>
        <time>2014-06-01T10:44:06Z</time>
      </trkpt>
      <trkpt lat="59.8189351" lon="17.6368417">
        <ele>26.0929</ele>
        <time>2014-06-01T10:44:07Z</time>
      </trkpt>
      <trkpt lat="59.8188912" lon="17.6368266">
        <ele>26.0929</ele>
        <time>2014-06-01T10:44:08Z</time>
      </trkpt>
      <trkpt lat="59.818847" lon="17.6368084">
        <ele>26.0929</ele>
        <time>2014-06-01T10:44:09Z</time>
      </trkpt>
      <trkpt lat="59.8188035" lon="17.6367892">
        <ele>26.0929</ele>
        <time>2014-06-01T10:44:10Z</time>
      </trkpt>
      <trkpt lat="59.8187608" lon="17.6367829">
        <ele>26.0929</ele>
        <time>2014-06-01T10:44:11Z</time>
      </trkpt>
      <trkpt lat="59.8187213" lon="17.6368004">
        <ele>26.0929</ele>
        <time>2014-06-01T10:44:12Z</time>
      </trkpt>
      <trkpt lat="59.8186881" lon="17.6368484">
        <ele>26.5736</ele>
        <time>2014-06-01T10:44:13Z</time>
      </trkpt>
      <trkpt lat="59.8186632" lon="17.6369142">
        <ele>26.5736</ele>
        <time>2014-06-01T10:44:14Z</time>
      </trkpt>
      <trkpt lat="59.8186408" lon="17.636983">
        <ele>27.0543</ele>
        <time>2014-06-01T10:44:15Z</time>
      </trkpt>
      <trkpt lat="59.8186181" lon="17.6370506">
        <ele>27.5349</ele>
        <time>2014-06-01T10:44:16Z</time>
      </trkpt>
      <trkpt lat="59.8185943" lon="17.6371173">
        <ele>27.5349</ele>
        <time>2014-06-01T10:44:17Z</time>
      </trkpt>
      <trkpt lat="59.8185681" lon="17.6371839">
        <ele>27.5349</ele>
        <time>2014-06-01T10:44:18Z</time>
      </trkpt>
      <trkpt lat="59.8185431" lon="17.6372429">
        <ele>28.0155</ele>
        <time>2014-06-01T10:44:19Z</time>
      </trkpt>
      <trkpt lat="59.818519" lon="17.6372986">
        <ele>28.4962</ele>
        <time>2014-06-01T10:44:20Z</time>
      </trkpt>
      <trkpt lat="59.8184955" lon="17.6373509">
        <ele>28.4962</ele>
        <time>2014-06-01T10:44:21Z</time>
      </trkpt>
      <trkpt lat="59.8184726" lon="17.6374">
        <ele>28.9769</ele>
        <time>2014-06-01T10:44:22Z</time>
      </trkpt>
      <trkpt lat="59.8184483" lon="17.6374509">
        <ele>28.9769</ele>
        <time>2014-06-01T10:44:23Z</time>
      </trkpt>
      <trkpt lat="59.8184229" lon="17.6375016">
        <ele>29.4575</ele>
        <time>2014-06-01T10:44:24Z</time>
      </trkpt>
      <trkpt lat="59.8183966" lon="17.6375512">
        <ele>29.9381</ele>
        <time>2014-06-01T10:44:25Z</time>
      </trkpt>
      <trkpt lat="59.818371" lon="17.6376019">
        <ele>29.9381</ele>
        <time>2014-06-01T10:44:26Z</time>
      </trkpt>
      <trkpt lat="59.8183489" lon="17.6376555">
        <ele>30.4188</ele>
        <time>2014-06-01T10:44:27Z</time>
      </trkpt>
      <trkpt lat="59.8183307" lon="17.6377119">
        <ele>30.4188</ele>
        <time>2014-06-01T10:44:28Z</time>
      </trkpt>
      <trkpt lat="59.8183105" lon="17.6377704">
        <ele>30.4188</ele>
        <time>2014-06-01T10:44:29Z</time>
      </trkpt>
      <trkpt lat="59.8182887" lon="17.6378336">
        <ele>30.8995</ele>
        <time>2014-06-01T10:44:30Z</time>
      </trkpt>
      <trkpt lat="59.8182679" lon="17.6379051">
        <ele>30.8995</ele>
        <time>2014-06-01T10:44:31Z</time>
      </trkpt>
      <trkpt lat="59.8182452" lon="17.6379823">
        <ele>30.8995</ele>
        <time>2014-06-01T10:44:32Z</time>
      </trkpt>
      <trkpt lat="59.8182183" lon="17.6380637">
        <ele>30.8995</ele>
        <time>2014-06-01T10:44:33Z</time>
      </trkpt>
      <trkpt lat="59.8181878" lon="17.6381531">
        <ele>30.8995</ele>
        <time>2014-06-01T10:44:34Z</time>
      </trkpt>
      <trkpt lat="59.8181565" lon="17.6382487">
        <ele>30.4188</ele>
        <time>2014-06-01T10:44:35Z</time>
      </trkpt>
      <trkpt lat="59.818122" lon="17.6383512">
        <ele>30.4188</ele>
        <time>2014-06-01T10:44:36Z</time>
      </trkpt>
      <trkpt lat="59.8180865" lon="17.6384573">
        <ele>29.9381</ele>
        <time>2014-06-01T10:44:37Z</time>
      </trkpt>
      <trkpt lat="59.8180499" lon="17.6385649">
        <ele>29.4575</ele>
        <time>2014-06-01T10:44:38Z</time>
      </trkpt>
      <trkpt lat="59.8180125" lon="17.6386697">
        <ele>29.4575</ele>
        <time>2014-06-01T10:44:39Z</time>
      </trkpt>
      <trkpt lat="59.8179726" lon="17.6387682">
        <ele>28.9769</ele>
        <time>2014-06-01T10:44:40Z</time>
      </trkpt>
      <trkpt lat="59.8179353" lon="17.6388625">
        <ele>28.9769</ele>
        <time>2014-06-01T10:44:41Z</time>
      </trkpt>
      <trkpt lat="59.8179019" lon="17.6389525">
        <ele>28.4962</ele>
        <time>2014-06-01T10:44:42Z</time>
      </trkpt>
      <trkpt lat="59.8178711" lon="17.6390391">
        <ele>28.4962</ele>
        <time>2014-06-01T10:44:43Z</time>
      </trkpt>
      <trkpt lat="59.8178392" lon="17.6391209">
        <ele>28.0155</ele>
        <time>2014-06-01T10:44:44Z</time>
      </trkpt>
      <trkpt lat="59.8178016" lon="17.6391861">
        <ele>28.0155</ele>
        <time>2014-06-01T10:44:45Z</time>
      </trkpt>
      <trkpt lat="59.8177617" lon="17.6392329">
        <ele>28.0155</ele>
        <time>2014-06-01T10:44:46Z</time>
      </trkpt>
      <trkpt lat="59.8177258" lon="17.639266">
        <ele>27.5349</ele>
        <time>2014-06-01T10:44:47Z</time>
      </trkpt>
      <trkpt lat="59.8176887" lon="17.6393078">
        <ele>27.5349</ele>
        <time>2014-06-01T10:44:48Z</time>
      </trkpt>
      <trkpt lat="59.8176438" lon="17.6393617">
        <ele>27.0543</ele>
        <time>2014-06-01T10:44:49Z</time>
      </trkpt>
      <trkpt lat="59.8175932" lon="17.6394158">
        <ele>26.5736</ele>
        <time>2014-06-01T10:44:50Z</time>
      </trkpt>
      <trkpt lat="59.8175484" lon="17.6394633">
        <ele>26.5736</ele>
        <time>2014-06-01T10:44:51Z</time>
      </trkpt>
      <trkpt lat="59.8175066" lon="17.639511">
        <ele>26.0929</ele>
        <time>2014-06-01T10:44:52Z</time>
      </trkpt>
      <trkpt lat="59.8174667" lon="17.6395535">
        <ele>25.6123</ele>
        <time>2014-06-01T10:44:53Z</time>
      </trkpt>
      <trkpt lat="59.8174305" lon="17.6396048">
        <ele>25.6123</ele>
        <time>2014-06-01T10:44:54Z</time>
      </trkpt>
      <trkpt lat="59.8174034" lon="17.6396694">
        <ele>25.6123</ele>
        <time>2014-06-01T10:44:55Z</time>
      </trkpt>
      <trkpt lat="59.81738" lon="17.6397384">
        <ele>26.0929</ele>
        <time>2014-06-01T10:44:56Z</time>
      </trkpt>
      <trkpt lat="59.8173588" lon="17.6398072">
        <ele>26.5736</ele>
        <time>2014-06-01T10:44:57Z</time>
      </trkpt>
      <trkpt lat="59.8173299" lon="17.63987">
        <ele>26.5736</ele>
        <time>2014-06-01T10:44:58Z</time>
      </trkpt>
      <trkpt lat="59.8173005" lon="17.6399157">
        <ele>26.5736</ele>
        <time>2014-06-01T10:44:59Z</time>
      </trkpt>
      <trkpt lat="59.8172697" lon="17.6399574">
        <ele>26.0929</ele>
        <time>2014-06-01T10:45:00Z</time>
      </trkpt>
      <trkpt lat="59.8172383" lon="17.6400034">
        <ele>25.6123</ele>
        <time>2014-06-01T10:45:01Z</time>
      </trkpt>
      <trkpt lat="59.8172097" lon="17.6400508">
        <ele>25.1317</ele>
        <time>2014-06-01T10:45:02Z</time>
      </trkpt>
      <trkpt lat="59.8171889" lon="17.6401096">
        <ele>26.0929</ele>
        <time>2014-06-01T10:45:03Z</time>
      </trkpt>
      <trkpt lat="59.8171677" lon="17.6401764">
        <ele>26.0929</ele>
        <time>2014-06-01T10:45:04Z</time>
      </trkpt>
      <trkpt lat="59.8171465" lon="17.6402482">
        <ele>26.0929</ele>
        <time>2014-06-01T10:45:05Z</time>
      </trkpt>
      <trkpt lat="59.8171268" lon="17.6403315">
        <ele>26.0929</ele>
        <time>2014-06-01T10:45:06Z</time>
      </trkpt>
      <trkpt lat="59.817109" lon="17.6404163">
        <ele>25.6123</ele>
        <time>2014-06-01T10:45:07Z</time>
      </trkpt>
      <trkpt lat="59.817094" lon="17.6405021">
        <ele>25.6123</ele>
        <time>2014-06-01T10:45:08Z</time>
      </trkpt>
      <trkpt lat="59.8170638" lon="17.640603">
        <ele>24.651</ele>
        <time>2014-06-01T10:45:09Z</time>
      </trkpt>
      <trkpt lat="59.8170293" lon="17.6406936">
        <ele>24.651</ele>
        <time>2014-06-01T10:45:10Z</time>
      </trkpt>
      <trkpt lat="59.8169923" lon="17.6407528">
        <ele>23.6896</ele>
        <time>2014-06-01T10:45:11Z</time>
      </trkpt>
      <trkpt lat="59.8169423" lon="17.6408049">
        <ele>22.7283</ele>
        <time>2014-06-01T10:45:12Z</time>
      </trkpt>
      <trkpt lat="59.8168915" lon="17.6408475">
        <ele>21.767</ele>
        <time>2014-06-01T10:45:13Z</time>
      </trkpt>
      <trkpt lat="59.8168471" lon="17.6408807">
        <ele>21.2864</ele>
        <time>2014-06-01T10:45:14Z</time>
      </trkpt>
      <trkpt lat="59.8168093" lon="17.6409048">
        <ele>20.325</ele>
        <time>2014-06-01T10:45:15Z</time>
      </trkpt>
      <trkpt lat="59.8167802" lon="17.6409341">
        <ele>19.3638</ele>
        <time>2014-06-01T10:45:16Z</time>
      </trkpt>
      <trkpt lat="59.816757" lon="17.6409791">
        <ele>18.4023</ele>
        <time>2014-06-01T10:45:17Z</time>
      </trkpt>
      <trkpt lat="59.8167314" lon="17.6410338">
        <ele>17.4412</ele>
        <time>2014-06-01T10:45:18Z</time>
      </trkpt>
      <trkpt lat="59.8167019" lon="17.6410878">
        <ele>16.9604</ele>
        <time>2014-06-01T10:45:19Z</time>
      </trkpt>
      <trkpt lat="59.8166622" lon="17.6411443">
        <ele>16.4797</ele>
        <time>2014-06-01T10:45:20Z</time>
      </trkpt>
      <trkpt lat="59.8166244" lon="17.6411887">
        <ele>17.4412</ele>
        <time>2014-06-01T10:45:21Z</time>
      </trkpt>
      <trkpt lat="59.8165887" lon="17.6412084">
        <ele>18.4023</ele>
        <time>2014-06-01T10:45:22Z</time>
      </trkpt>
      <trkpt lat="59.8165498" lon="17.6412178">
        <ele>20.8057</ele>
        <time>2014-06-01T10:45:23Z</time>
      </trkpt>
      <trkpt lat="59.8165182" lon="17.6412197">
        <ele>22.2476</ele>
        <time>2014-06-01T10:45:24Z</time>
      </trkpt>
      <trkpt lat="59.8164928" lon="17.6412138">
        <ele>22.7283</ele>
        <time>2014-06-01T10:45:25Z</time>
      </trkpt>
      <trkpt lat="59.8164726" lon="17.6412236">
        <ele>23.209</ele>
        <time>2014-06-01T10:45:26Z</time>
      </trkpt>
      <trkpt lat="59.8164574" lon="17.6412349">
        <ele>23.6896</ele>
        <time>2014-06-01T10:45:27Z</time>
      </trkpt>
      <trkpt lat="59.8164436" lon="17.6412275">
        <ele>25.1317</ele>
        <time>2014-06-01T10:45:28Z</time>
      </trkpt>
      <trkpt lat="59.8164313" lon="17.6412277">
        <ele>26.0929</ele>
        <time>2014-06-01T10:45:29Z</time>
      </trkpt>
      <trkpt lat="59.8164144" lon="17.6412264">
        <ele>26.0929</ele>
        <time>2014-06-01T10:45:30Z</time>
      </trkpt>
      <trkpt lat="59.8163923" lon="17.6412207">
        <ele>26.0929</ele>
        <time>2014-06-01T10:45:31Z</time>
      </trkpt>
      <trkpt lat="59.816372" lon="17.6412177">
        <ele>25.1317</ele>
        <time>2014-06-01T10:45:32Z</time>
      </trkpt>
      <trkpt lat="59.8163523" lon="17.6412058">
        <ele>24.651</ele>
        <time>2014-06-01T10:45:33Z</time>
      </trkpt>
      <trkpt lat="59.816336" lon="17.6412003">
        <ele>24.651</ele>
        <time>2014-06-01T10:45:34Z</time>
      </trkpt>
      <trkpt lat="59.8163229" lon="17.6411951">
        <ele>24.1703</ele>
        <time>2014-06-01T10:45:35Z</time>
      </trkpt>
      <trkpt lat="59.8163125" lon="17.6411739">
        <ele>24.1703</ele>
        <time>2014-06-01T10:45:36Z</time>
      </trkpt>
      <trkpt lat="59.8162966" lon="17.6411375">
        <ele>23.209</ele>
        <time>2014-06-01T10:45:37Z</time>
      </trkpt>
      <trkpt lat="59.8162903" lon="17.6411049">
        <ele>24.1703</ele>
        <time>2014-06-01T10:45:38Z</time>
      </trkpt>
      <trkpt lat="59.8162771" lon="17.6410636">
        <ele>23.6896</ele>
        <time>2014-06-01T10:45:39Z</time>
      </trkpt>
      <trkpt lat="59.8162767" lon="17.6410162">
        <ele>25.1317</ele>
        <time>2014-06-01T10:45:40Z</time>
      </trkpt>
      <trkpt lat="59.8162711" lon="17.6409643">
        <ele>24.651</ele>
        <time>2014-06-01T10:45:41Z</time>
      </trkpt>
      <trkpt lat="59.8162622" lon="17.6409069">
        <ele>25.1317</ele>
        <time>2014-06-01T10:45:42Z</time>
      </trkpt>
      <trkpt lat="59.8162401" lon="17.6408459">
        <ele>25.1317</ele>
        <time>2014-06-01T10:45:43Z</time>
      </trkpt>
      <trkpt lat="59.8162228" lon="17.6407675">
        <ele>26.5736</ele>
        <time>2014-06-01T10:45:44Z</time>
      </trkpt>
      <trkpt lat="59.8161859" lon="17.6406888">
        <ele>25.1317</ele>
        <time>2014-06-01T10:45:45Z</time>
      </trkpt>
      <trkpt lat="59.8161517" lon="17.6406167">
        <ele>24.651</ele>
        <time>2014-06-01T10:45:46Z</time>
      </trkpt>
      <trkpt lat="59.8161131" lon="17.6405413">
        <ele>23.6896</ele>
        <time>2014-06-01T10:45:47Z</time>
      </trkpt>
      <trkpt lat="59.8160744" lon="17.640473">
        <ele>22.7283</ele>
        <time>2014-06-01T10:45:48Z</time>
      </trkpt>
      <trkpt lat="59.8160386" lon="17.6404259">
        <ele>21.2864</ele>
        <time>2014-06-01T10:45:49Z</time>
      </trkpt>
      <trkpt lat="59.8160041" lon="17.6403779">
        <ele>19.8444</ele>
        <time>2014-06-01T10:45:50Z</time>
      </trkpt>
      <trkpt lat="59.8159726" lon="17.6403375">
        <ele>20.8057</ele>
        <time>2014-06-01T10:45:51Z</time>
      </trkpt>
      <trkpt lat="59.8159385" lon="17.6402979">
        <ele>21.767</ele>
        <time>2014-06-01T10:45:52Z</time>
      </trkpt>
      <trkpt lat="59.8159151" lon="17.6402574">
        <ele>22.7283</ele>
        <time>2014-06-01T10:45:53Z</time>
      </trkpt>
      <trkpt lat="59.8158752" lon="17.640204">
        <ele>21.767</ele>
        <time>2014-06-01T10:45:54Z</time>
      </trkpt>
      <trkpt lat="59.8158411" lon="17.6401564">
        <ele>20.325</ele>
        <time>2014-06-01T10:45:55Z</time>
      </trkpt>
      <trkpt lat="59.8158171" lon="17.6401303">
        <ele>19.3638</ele>
        <time>2014-06-01T10:45:56Z</time>
      </trkpt>
      <trkpt lat="59.8157996" lon="17.6401151">
        <ele>19.3638</ele>
        <time>2014-06-01T10:45:57Z</time>
      </trkpt>
      <trkpt lat="59.8157841" lon="17.6400982">
        <ele>18.8831</ele>
        <time>2014-06-01T10:45:58Z</time>
      </trkpt>
      <trkpt lat="59.8157702" lon="17.6400736">
        <ele>18.8831</ele>
        <time>2014-06-01T10:45:59Z</time>
      </trkpt>
      <trkpt lat="59.815757" lon="17.6400523">
        <ele>18.4023</ele>
        <time>2014-06-01T10:46:00Z</time>
      </trkpt>
      <trkpt lat="59.8157516" lon="17.640036">
        <ele>18.4023</ele>
        <time>2014-06-01T10:46:01Z</time>
      </trkpt>
      <trkpt lat="59.8157464" lon="17.6400233">
        <ele>17.9218</ele>
        <time>2014-06-01T10:46:02Z</time>
      </trkpt>
      <trkpt lat="59.8157405" lon="17.6400087">
        <ele>17.9218</ele>
        <time>2014-06-01T10:46:03Z</time>
      </trkpt>
      <trkpt lat="59.8157329" lon="17.6399916">
        <ele>18.8831</ele>
        <time>2014-06-01T10:46:04Z</time>
      </trkpt>
      <trkpt lat="59.8157244" lon="17.6399781">
        <ele>18.8831</ele>
        <time>2014-06-01T10:46:05Z</time>
      </trkpt>
      <trkpt lat="59.8157184" lon="17.6399565">
        <ele>19.3638</ele>
        <time>2014-06-01T10:46:06Z</time>
      </trkpt>
      <trkpt lat="59.8157158" lon="17.639934">
        <ele>20.325</ele>
        <time>2014-06-01T10:46:07Z</time>
      </trkpt>
      <trkpt lat="59.8157122" lon="17.6399062">
        <ele>21.2864</ele>
        <time>2014-06-01T10:46:08Z</time>
      </trkpt>
      <trkpt lat="59.8157096" lon="17.6398825">
        <ele>21.767</ele>
        <time>2014-06-01T10:46:09Z</time>
      </trkpt>
      <trkpt lat="59.8157076" lon="17.6398595">
        <ele>21.767</ele>
        <time>2014-06-01T10:46:10Z</time>
      </trkpt>
      <trkpt lat="59.8157066" lon="17.6398403">
        <ele>22.7283</ele>
        <time>2014-06-01T10:46:11Z</time>
      </trkpt>
      <trkpt lat="59.8157065" lon="17.6398244">
        <ele>23.6896</ele>
        <time>2014-06-01T10:46:12Z</time>
      </trkpt>
      <trkpt lat="59.8157043" lon="17.6397957">
        <ele>24.651</ele>
        <time>2014-06-01T10:46:13Z</time>
      </trkpt>
      <trkpt lat="59.8157042" lon="17.6397691">
        <ele>25.1317</ele>
        <time>2014-06-01T10:46:14Z</time>
      </trkpt>
      <trkpt lat="59.8157031" lon="17.6397348">
        <ele>25.6123</ele>
        <time>2014-06-01T10:46:15Z</time>
      </trkpt>
      <trkpt lat="59.8157007" lon="17.6397087">
        <ele>25.6123</ele>
        <time>2014-06-01T10:46:16Z</time>
      </trkpt>
      <trkpt lat="59.8156992" lon="17.6396883">
        <ele>25.6123</ele>
        <time>2014-06-01T10:46:17Z</time>
      </trkpt>
      <trkpt lat="59.8156957" lon="17.6396669">
        <ele>25.1317</ele>
        <time>2014-06-01T10:46:18Z</time>
      </trkpt>
      <trkpt lat="59.8156893" lon="17.6396401">
        <ele>25.1317</ele>
        <time>2014-06-01T10:46:19Z</time>
      </trkpt>
      <trkpt lat="59.8156842" lon="17.6396141">
        <ele>25.1317</ele>
        <time>2014-06-01T10:46:20Z</time>
      </trkpt>
      <trkpt lat="59.8156789" lon="17.6395882">
        <ele>24.651</ele>
        <time>2014-06-01T10:46:21Z</time>
      </trkpt>
      <trkpt lat="59.8156755" lon="17.6395664">
        <ele>24.651</ele>
        <time>2014-06-01T10:46:22Z</time>
      </trkpt>
      <trkpt lat="59.8156717" lon="17.6395471">
        <ele>24.651</ele>
        <time>2014-06-01T10:46:23Z</time>
      </trkpt>
      <trkpt lat="59.8156649" lon="17.6395313">
        <ele>25.1317</ele>
        <time>2014-06-01T10:46:24Z</time>
      </trkpt>
      <trkpt lat="59.815663" lon="17.6395151">
        <ele>25.1317</ele>
        <time>2014-06-01T10:46:25Z</time>
      </trkpt>
      <trkpt lat="59.81566" lon="17.6395005">
        <ele>25.1317</ele>
        <time>2014-06-01T10:46:26Z</time>
      </trkpt>
      <trkpt lat="59.8156573" lon="17.6394888">
        <ele>24.651</ele>
        <time>2014-06-01T10:46:27Z</time>
      </trkpt>
      <trkpt lat="59.815649" lon="17.639484">
        <ele>24.651</ele>
        <time>2014-06-01T10:46:28Z</time>
      </trkpt>
      <trkpt lat="59.8156411" lon="17.6394758">
        <ele>25.1317</ele>
        <time>2014-06-01T10:46:29Z</time>
      </trkpt>
      <trkpt lat="59.8156359" lon="17.6394673">
        <ele>25.1317</ele>
        <time>2014-06-01T10:46:30Z</time>
      </trkpt>
      <trkpt lat="59.8156313" lon="17.6394566">
        <ele>25.1317</ele>
        <time>2014-06-01T10:46:31Z</time>
      </trkpt>
      <trkpt lat="59.8156254" lon="17.6394434">
        <ele>25.1317</ele>
        <time>2014-06-01T10:46:32Z</time>
      </trkpt>
      <trkpt lat="59.815619" lon="17.6394318">
        <ele>25.1317</ele>
        <time>2014-06-01T10:46:33Z</time>
      </trkpt>
      <trkpt lat="59.8156117" lon="17.6394234">
        <ele>25.6123</ele>
        <time>2014-06-01T10:46:34Z</time>
      </trkpt>
      <trkpt lat="59.8156039" lon="17.6394183">
        <ele>26.0929</ele>
        <time>2014-06-01T10:46:35Z</time>
      </trkpt>
      <trkpt lat="59.8155955" lon="17.6394155">
        <ele>26.0929</ele>
        <time>2014-06-01T10:46:36Z</time>
      </trkpt>
      <trkpt lat="59.8155845" lon="17.6394113">
        <ele>26.5736</ele>
        <time>2014-06-01T10:46:37Z</time>
      </trkpt>
      <trkpt lat="59.8155723" lon="17.639408">
        <ele>27.0543</ele>
        <time>2014-06-01T10:46:38Z</time>
      </trkpt>
      <trkpt lat="59.815563" lon="17.6394032">
        <ele>27.0543</ele>
        <time>2014-06-01T10:46:39Z</time>
      </trkpt>
      <trkpt lat="59.8155557" lon="17.6393939">
        <ele>27.0543</ele>
        <time>2014-06-01T10:46:40Z</time>
      </trkpt>
      <trkpt lat="59.8155514" lon="17.6393823">
        <ele>28.0155</ele>
        <time>2014-06-01T10:46:41Z</time>
      </trkpt>
      <trkpt lat="59.8155468" lon="17.6393669">
        <ele>28.0155</ele>
        <time>2014-06-01T10:46:42Z</time>
      </trkpt>
      <trkpt lat="59.815541" lon="17.639354">
        <ele>28.0155</ele>
        <time>2014-06-01T10:46:43Z</time>
      </trkpt>
      <trkpt lat="59.8155329" lon="17.639343">
        <ele>28.4962</ele>
        <time>2014-06-01T10:46:44Z</time>
      </trkpt>
      <trkpt lat="59.8155241" lon="17.6393298">
        <ele>28.4962</ele>
        <time>2014-06-01T10:46:45Z</time>
      </trkpt>
      <trkpt lat="59.8155159" lon="17.6393184">
        <ele>28.9769</ele>
        <time>2014-06-01T10:46:46Z</time>
      </trkpt>
      <trkpt lat="59.815508" lon="17.6393075">
        <ele>29.4575</ele>
        <time>2014-06-01T10:46:47Z</time>
      </trkpt>
      <trkpt lat="59.8155008" lon="17.6392984">
        <ele>29.4575</ele>
        <time>2014-06-01T10:46:48Z</time>
      </trkpt>
      <trkpt lat="59.8154967" lon="17.6392901">
        <ele>29.9381</ele>
        <time>2014-06-01T10:46:49Z</time>
      </trkpt>
      <trkpt lat="59.8154882" lon="17.6392754">
        <ele>29.9381</ele>
        <time>2014-06-01T10:46:50Z</time>
      </trkpt>
      <trkpt lat="59.815478" lon="17.6392544">
        <ele>29.4575</ele>
        <time>2014-06-01T10:46:51Z</time>
      </trkpt>
      <trkpt lat="59.8154659" lon="17.6392333">
        <ele>29.4575</ele>
        <time>2014-06-01T10:46:52Z</time>
      </trkpt>
      <trkpt lat="59.8154569" lon="17.6392096">
        <ele>28.9769</ele>
        <time>2014-06-01T10:46:53Z</time>
      </trkpt>
      <trkpt lat="59.8154442" lon="17.6391819">
        <ele>28.4962</ele>
        <time>2014-06-01T10:46:54Z</time>
      </trkpt>
      <trkpt lat="59.8154294" lon="17.6391541">
        <ele>28.0155</ele>
        <time>2014-06-01T10:46:55Z</time>
      </trkpt>
      <trkpt lat="59.8154075" lon="17.639121">
        <ele>27.5349</ele>
        <time>2014-06-01T10:46:56Z</time>
      </trkpt>
      <trkpt lat="59.8153812" lon="17.6390884">
        <ele>27.0543</ele>
        <time>2014-06-01T10:46:57Z</time>
      </trkpt>
      <trkpt lat="59.8153558" lon="17.6390634">
        <ele>26.5736</ele>
        <time>2014-06-01T10:46:58Z</time>
      </trkpt>
      <trkpt lat="59.8153308" lon="17.6390461">
        <ele>26.5736</ele>
        <time>2014-06-01T10:46:59Z</time>
      </trkpt>
      <trkpt lat="59.8153092" lon="17.6390369">
        <ele>27.0543</ele>
        <time>2014-06-01T10:47:00Z</time>
      </trkpt>
      <trkpt lat="59.8152911" lon="17.6390365">
        <ele>27.0543</ele>
        <time>2014-06-01T10:47:01Z</time>
      </trkpt>
      <trkpt lat="59.8152654" lon="17.6390451">
        <ele>27.0543</ele>
        <time>2014-06-01T10:47:02Z</time>
      </trkpt>
      <trkpt lat="59.8152411" lon="17.6390345">
        <ele>27.0543</ele>
        <time>2014-06-01T10:47:03Z</time>
      </trkpt>
      <trkpt lat="59.8152155" lon="17.6390141">
        <ele>26.5736</ele>
        <time>2014-06-01T10:47:04Z</time>
      </trkpt>
      <trkpt lat="59.8151956" lon="17.6389822">
        <ele>25.6123</ele>
        <time>2014-06-01T10:47:05Z</time>
      </trkpt>
      <trkpt lat="59.8151765" lon="17.6389546">
        <ele>25.1317</ele>
        <time>2014-06-01T10:47:06Z</time>
      </trkpt>
      <trkpt lat="59.815153" lon="17.6389444">
        <ele>24.651</ele>
        <time>2014-06-01T10:47:07Z</time>
      </trkpt>
      <trkpt lat="59.8151292" lon="17.6389444">
        <ele>24.651</ele>
        <time>2014-06-01T10:47:08Z</time>
      </trkpt>
      <trkpt lat="59.8151072" lon="17.6389504">
        <ele>25.1317</ele>
        <time>2014-06-01T10:47:09Z</time>
      </trkpt>
      <trkpt lat="59.8150912" lon="17.638961">
        <ele>25.6123</ele>
        <time>2014-06-01T10:47:10Z</time>
      </trkpt>
      <trkpt lat="59.8150769" lon="17.6389809">
        <ele>25.6123</ele>
        <time>2014-06-01T10:47:11Z</time>
      </trkpt>
      <trkpt lat="59.815059" lon="17.6390141">
        <ele>26.0929</ele>
        <time>2014-06-01T10:47:12Z</time>
      </trkpt>
      <trkpt lat="59.8150429" lon="17.6390421">
        <ele>27.0543</ele>
        <time>2014-06-01T10:47:13Z</time>
      </trkpt>
      <trkpt lat="59.8150363" lon="17.6390485">
        <ele>27.5349</ele>
        <time>2014-06-01T10:47:14Z</time>
      </trkpt>
      <trkpt lat="59.81502" lon="17.6390606">
        <ele>28.0155</ele>
        <time>2014-06-01T10:47:15Z</time>
      </trkpt>
      <trkpt lat="59.8150035" lon="17.6390663">
        <ele>28.4962</ele>
        <time>2014-06-01T10:47:16Z</time>
      </trkpt>
      <trkpt lat="59.8149891" lon="17.6390758">
        <ele>28.9769</ele>
        <time>2014-06-01T10:47:17Z</time>
      </trkpt>
      <trkpt lat="59.8149735" lon="17.6390827">
        <ele>29.4575</ele>
        <time>2014-06-01T10:47:18Z</time>
      </trkpt>
      <trkpt lat="59.8149546" lon="17.6390941">
        <ele>29.4575</ele>
        <time>2014-06-01T10:47:19Z</time>
      </trkpt>
      <trkpt lat="59.814933" lon="17.6391054">
        <ele>29.4575</ele>
        <time>2014-06-01T10:47:20Z</time>
      </trkpt>
      <trkpt lat="59.8149103" lon="17.6391121">
        <ele>28.9769</ele>
        <time>2014-06-01T10:47:21Z</time>
      </trkpt>
      <trkpt lat="59.8148828" lon="17.6391261">
        <ele>28.9769</ele>
        <time>2014-06-01T10:47:22Z</time>
      </trkpt>
      <trkpt lat="59.8148554" lon="17.6391348">
        <ele>28.4962</ele>
        <time>2014-06-01T10:47:23Z</time>
      </trkpt>
      <trkpt lat="59.8148279" lon="17.639138">
        <ele>27.5349</ele>
        <time>2014-06-01T10:47:24Z</time>
      </trkpt>
      <trkpt lat="59.8148013" lon="17.6391334">
        <ele>27.0543</ele>
        <time>2014-06-01T10:47:25Z</time>
      </trkpt>
      <trkpt lat="59.8147721" lon="17.639124">
        <ele>27.0543</ele>
        <time>2014-06-01T10:47:26Z</time>
      </trkpt>
      <trkpt lat="59.8147417" lon="17.639122">
        <ele>27.0543</ele>
        <time>2014-06-01T10:47:27Z</time>
      </trkpt>
      <trkpt lat="59.8147124" lon="17.6391359">
        <ele>27.0543</ele>
        <time>2014-06-01T10:47:28Z</time>
      </trkpt>
      <trkpt lat="59.8146855" lon="17.6391571">
        <ele>26.5736</ele>
        <time>2014-06-01T10:47:29Z</time>
      </trkpt>
      <trkpt lat="59.8146642" lon="17.6391872">
        <ele>27.0543</ele>
        <time>2014-06-01T10:47:30Z</time>
      </trkpt>
      <trkpt lat="59.8146496" lon="17.6392292">
        <ele>27.0543</ele>
        <time>2014-06-01T10:47:31Z</time>
      </trkpt>
      <trkpt lat="59.8146373" lon="17.6392831">
        <ele>27.0543</ele>
        <time>2014-06-01T10:47:32Z</time>
      </trkpt>
      <trkpt lat="59.8146207" lon="17.6393452">
        <ele>26.5736</ele>
        <time>2014-06-01T10:47:33Z</time>
      </trkpt>
      <trkpt lat="59.8145973" lon="17.639395">
        <ele>26.0929</ele>
        <time>2014-06-01T10:47:34Z</time>
      </trkpt>
      <trkpt lat="59.8145692" lon="17.639411">
        <ele>26.0929</ele>
        <time>2014-06-01T10:47:35Z</time>
      </trkpt>
      <trkpt lat="59.8145374" lon="17.6394162">
        <ele>25.6123</ele>
        <time>2014-06-01T10:47:36Z</time>
      </trkpt>
      <trkpt lat="59.8145025" lon="17.6394162">
        <ele>25.1317</ele>
        <time>2014-06-01T10:47:37Z</time>
      </trkpt>
      <trkpt lat="59.8144529" lon="17.6394228">
        <ele>25.6123</ele>
        <time>2014-06-01T10:47:38Z</time>
      </trkpt>
      <trkpt lat="59.8144087" lon="17.639424">
        <ele>25.6123</ele>
        <time>2014-06-01T10:47:39Z</time>
      </trkpt>
      <trkpt lat="59.8143627" lon="17.6394181">
        <ele>25.6123</ele>
        <time>2014-06-01T10:47:40Z</time>
      </trkpt>
      <trkpt lat="59.8143172" lon="17.6394048">
        <ele>25.1317</ele>
        <time>2014-06-01T10:47:41Z</time>
      </trkpt>
      <trkpt lat="59.8142792" lon="17.6393887">
        <ele>25.1317</ele>
        <time>2014-06-01T10:47:42Z</time>
      </trkpt>
      <trkpt lat="59.8142476" lon="17.6393706">
        <ele>24.651</ele>
        <time>2014-06-01T10:47:43Z</time>
      </trkpt>
      <trkpt lat="59.8142168" lon="17.6393432">
        <ele>24.1703</ele>
        <time>2014-06-01T10:47:44Z</time>
      </trkpt>
      <trkpt lat="59.8141922" lon="17.6392955">
        <ele>23.6896</ele>
        <time>2014-06-01T10:47:45Z</time>
      </trkpt>
      <trkpt lat="59.8141814" lon="17.6392467">
        <ele>23.209</ele>
        <time>2014-06-01T10:47:46Z</time>
      </trkpt>
      <trkpt lat="59.8141706" lon="17.6392079">
        <ele>22.7283</ele>
        <time>2014-06-01T10:47:47Z</time>
      </trkpt>
      <trkpt lat="59.814153" lon="17.6391712">
        <ele>21.2864</ele>
        <time>2014-06-01T10:47:48Z</time>
      </trkpt>
      <trkpt lat="59.8141317" lon="17.6391361">
        <ele>20.325</ele>
        <time>2014-06-01T10:47:49Z</time>
      </trkpt>
      <trkpt lat="59.8141001" lon="17.6391021">
        <ele>19.3638</ele>
        <time>2014-06-01T10:47:50Z</time>
      </trkpt>
      <trkpt lat="59.8140647" lon="17.6390702">
        <ele>18.8831</ele>
        <time>2014-06-01T10:47:51Z</time>
      </trkpt>
      <trkpt lat="59.8140254" lon="17.6390469">
        <ele>18.8831</ele>
        <time>2014-06-01T10:47:52Z</time>
      </trkpt>
      <trkpt lat="59.8139887" lon="17.6390211">
        <ele>18.4023</ele>
        <time>2014-06-01T10:47:53Z</time>
      </trkpt>
      <trkpt lat="59.8139546" lon="17.638995">
        <ele>17.4412</ele>
        <time>2014-06-01T10:47:54Z</time>
      </trkpt>
      <trkpt lat="59.8139191" lon="17.6389754">
        <ele>16.9604</ele>
        <time>2014-06-01T10:47:55Z</time>
      </trkpt>
      <trkpt lat="59.813882" lon="17.6389706">
        <ele>16.4797</ele>
        <time>2014-06-01T10:47:56Z</time>
      </trkpt>
      <trkpt lat="59.8138406" lon="17.6389669">
        <ele>15.999</ele>
        <time>2014-06-01T10:47:57Z</time>
      </trkpt>
      <trkpt lat="59.8138006" lon="17.6389719">
        <ele>15.999</ele>
        <time>2014-06-01T10:47:58Z</time>
      </trkpt>
      <trkpt lat="59.8137646" lon="17.6390008">
        <ele>15.999</ele>
        <time>2014-06-01T10:47:59Z</time>
      </trkpt>
      <trkpt lat="59.8137371" lon="17.639025">
        <ele>15.999</ele>
        <time>2014-06-01T10:48:00Z</time>
      </trkpt>
      <trkpt lat="59.8137178" lon="17.6390325">
        <ele>15.999</ele>
        <time>2014-06-01T10:48:01Z</time>
      </trkpt>
      <trkpt lat="59.8137011" lon="17.6390239">
        <ele>15.999</ele>
        <time>2014-06-01T10:48:02Z</time>
      </trkpt>
      <trkpt lat="59.8136883" lon="17.6390068">
        <ele>15.999</ele>
        <time>2014-06-01T10:48:03Z</time>
      </trkpt>
      <trkpt lat="59.8136759" lon="17.6389742">
        <ele>15.999</ele>
        <time>2014-06-01T10:48:04Z</time>
      </trkpt>
      <trkpt lat="59.8136666" lon="17.6389293">
        <ele>15.5184</ele>
        <time>2014-06-01T10:48:05Z</time>
      </trkpt>
      <trkpt lat="59.8136582" lon="17.6388727">
        <ele>15.0377</ele>
        <time>2014-06-01T10:48:06Z</time>
      </trkpt>
      <trkpt lat="59.8136489" lon="17.6388023">
        <ele>14.557</ele>
        <time>2014-06-01T10:48:07Z</time>
      </trkpt>
      <trkpt lat="59.8136394" lon="17.6387204">
        <ele>14.0764</ele>
        <time>2014-06-01T10:48:08Z</time>
      </trkpt>
      <trkpt lat="59.8136319" lon="17.6386408">
        <ele>13.1151</ele>
        <time>2014-06-01T10:48:09Z</time>
      </trkpt>
      <trkpt lat="59.8136246" lon="17.6385569">
        <ele>12.6344</ele>
        <time>2014-06-01T10:48:10Z</time>
      </trkpt>
      <trkpt lat="59.813622" lon="17.6384748">
        <ele>12.6344</ele>
        <time>2014-06-01T10:48:11Z</time>
      </trkpt>
      <trkpt lat="59.8136169" lon="17.6384207">
        <ele>11.6732</ele>
        <time>2014-06-01T10:48:12Z</time>
      </trkpt>
      <trkpt lat="59.8136002" lon="17.6383899">
        <ele>11.1925</ele>
        <time>2014-06-01T10:48:13Z</time>
      </trkpt>
      <trkpt lat="59.8135691" lon="17.6383517">
        <ele>10.7118</ele>
        <time>2014-06-01T10:48:14Z</time>
      </trkpt>
      <trkpt lat="59.8135301" lon="17.6382969">
        <ele>10.7118</ele>
        <time>2014-06-01T10:48:15Z</time>
      </trkpt>
      <trkpt lat="59.8134899" lon="17.6382355">
        <ele>10.7118</ele>
        <time>2014-06-01T10:48:16Z</time>
      </trkpt>
      <trkpt lat="59.8134509" lon="17.6381678">
        <ele>10.7118</ele>
        <time>2014-06-01T10:48:17Z</time>
      </trkpt>
      <trkpt lat="59.8134151" lon="17.6380997">
        <ele>10.7118</ele>
        <time>2014-06-01T10:48:18Z</time>
      </trkpt>
      <trkpt lat="59.8133801" lon="17.6380348">
        <ele>10.2312</ele>
        <time>2014-06-01T10:48:19Z</time>
      </trkpt>
      <trkpt lat="59.8133467" lon="17.637979">
        <ele>10.2312</ele>
        <time>2014-06-01T10:48:20Z</time>
      </trkpt>
      <trkpt lat="59.8133236" lon="17.6379309">
        <ele>10.7118</ele>
        <time>2014-06-01T10:48:21Z</time>
      </trkpt>
      <trkpt lat="59.8133113" lon="17.6378789">
        <ele>10.7118</ele>
        <time>2014-06-01T10:48:22Z</time>
      </trkpt>
      <trkpt lat="59.8133107" lon="17.6378271">
        <ele>11.1925</ele>
        <time>2014-06-01T10:48:23Z</time>
      </trkpt>
      <trkpt lat="59.8133101" lon="17.637789">
        <ele>11.6732</ele>
        <time>2014-06-01T10:48:24Z</time>
      </trkpt>
      <trkpt lat="59.8133039" lon="17.6377627">
        <ele>12.1538</ele>
        <time>2014-06-01T10:48:25Z</time>
      </trkpt>
      <trkpt lat="59.8132903" lon="17.6377499">
        <ele>12.1538</ele>
        <time>2014-06-01T10:48:26Z</time>
      </trkpt>
      <trkpt lat="59.8132744" lon="17.6377483">
        <ele>11.6732</ele>
        <time>2014-06-01T10:48:27Z</time>
      </trkpt>
      <trkpt lat="59.8132519" lon="17.6377436">
        <ele>9.75061</ele>
        <time>2014-06-01T10:48:28Z</time>
      </trkpt>
      <trkpt lat="59.8132185" lon="17.6377397">
        <ele>7.82788</ele>
        <time>2014-06-01T10:48:29Z</time>
      </trkpt>
      <trkpt lat="59.8131874" lon="17.6377571">
        <ele>5.90527</ele>
        <time>2014-06-01T10:48:30Z</time>
      </trkpt>
      <trkpt lat="59.8131582" lon="17.6377949">
        <ele>3.98267</ele>
        <time>2014-06-01T10:48:31Z</time>
      </trkpt>
      <trkpt lat="59.8131246" lon="17.6378229">
        <ele>4.46326</ele>
        <time>2014-06-01T10:48:32Z</time>
      </trkpt>
      <trkpt lat="59.8130874" lon="17.6378399">
        <ele>4.94385</ele>
        <time>2014-06-01T10:48:33Z</time>
      </trkpt>
      <trkpt lat="59.813051" lon="17.6378501">
        <ele>5.42456</ele>
        <time>2014-06-01T10:48:34Z</time>
      </trkpt>
      <trkpt lat="59.813019" lon="17.6378592">
        <ele>6.38586</ele>
        <time>2014-06-01T10:48:35Z</time>
      </trkpt>
      <trkpt lat="59.8129901" lon="17.6378682">
        <ele>7.34717</ele>
        <time>2014-06-01T10:48:36Z</time>
      </trkpt>
      <trkpt lat="59.8129609" lon="17.6378811">
        <ele>7.34717</ele>
        <time>2014-06-01T10:48:37Z</time>
      </trkpt>
      <trkpt lat="59.8129279" lon="17.6378922">
        <ele>7.82788</ele>
        <time>2014-06-01T10:48:38Z</time>
      </trkpt>
      <trkpt lat="59.812888" lon="17.6378943">
        <ele>8.30859</ele>
        <time>2014-06-01T10:48:39Z</time>
      </trkpt>
      <trkpt lat="59.8128459" lon="17.6378863">
        <ele>8.78918</ele>
        <time>2014-06-01T10:48:40Z</time>
      </trkpt>
      <trkpt lat="59.8128103" lon="17.6378757">
        <ele>9.2699</ele>
        <time>2014-06-01T10:48:41Z</time>
      </trkpt>
      <trkpt lat="59.8127862" lon="17.637868">
        <ele>9.75061</ele>
        <time>2014-06-01T10:48:42Z</time>
      </trkpt>
      <trkpt lat="59.8127678" lon="17.63787">
        <ele>10.7118</ele>
        <time>2014-06-01T10:48:43Z</time>
      </trkpt>
      <trkpt lat="59.8127523" lon="17.637872">
        <ele>11.1925</ele>
        <time>2014-06-01T10:48:44Z</time>
      </trkpt>
      <trkpt lat="59.8127425" lon="17.6378736">
        <ele>11.6732</ele>
        <time>2014-06-01T10:48:45Z</time>
      </trkpt>
      <trkpt lat="59.8127373" lon="17.6378798">
        <ele>12.1538</ele>
        <time>2014-06-01T10:48:46Z</time>
      </trkpt>
      <trkpt lat="59.8127329" lon="17.6379081">
        <ele>12.6344</ele>
        <time>2014-06-01T10:48:47Z</time>
      </trkpt>
      <trkpt lat="59.8127269" lon="17.6379419">
        <ele>13.5958</ele>
        <time>2014-06-01T10:48:48Z</time>
      </trkpt>
      <trkpt lat="59.8127122" lon="17.6379568">
        <ele>13.5958</ele>
        <time>2014-06-01T10:48:49Z</time>
      </trkpt>
      <trkpt lat="59.8126958" lon="17.637941">
        <ele>14.0764</ele>
        <time>2014-06-01T10:48:50Z</time>
      </trkpt>
      <trkpt lat="59.8126835" lon="17.6379104">
        <ele>14.557</ele>
        <time>2014-06-01T10:48:51Z</time>
      </trkpt>
      <trkpt lat="59.8126735" lon="17.637885">
        <ele>15.0377</ele>
        <time>2014-06-01T10:48:52Z</time>
      </trkpt>
      <trkpt lat="59.8126598" lon="17.637868">
        <ele>15.5184</ele>
        <time>2014-06-01T10:48:53Z</time>
      </trkpt>
      <trkpt lat="59.8126417" lon="17.6378585">
        <ele>16.4797</ele>
        <time>2014-06-01T10:48:54Z</time>
      </trkpt>
      <trkpt lat="59.8126186" lon="17.6378498">
        <ele>16.9604</ele>
        <time>2014-06-01T10:48:55Z</time>
      </trkpt>
      <trkpt lat="59.8125918" lon="17.6378301">
        <ele>17.4412</ele>
        <time>2014-06-01T10:48:56Z</time>
      </trkpt>
      <trkpt lat="59.8125646" lon="17.6378057">
        <ele>17.9218</ele>
        <time>2014-06-01T10:48:57Z</time>
      </trkpt>
      <trkpt lat="59.8125372" lon="17.6377832">
        <ele>18.4023</ele>
        <time>2014-06-01T10:48:58Z</time>
      </trkpt>
      <trkpt lat="59.8125101" lon="17.6377654">
        <ele>18.8831</ele>
        <time>2014-06-01T10:48:59Z</time>
      </trkpt>
      <trkpt lat="59.8124747" lon="17.637756">
        <ele>19.3638</ele>
        <time>2014-06-01T10:49:00Z</time>
      </trkpt>
      <trkpt lat="59.8124383" lon="17.6377554">
        <ele>19.8444</ele>
        <time>2014-06-01T10:49:01Z</time>
      </trkpt>
      <trkpt lat="59.8124122" lon="17.6377503">
        <ele>20.325</ele>
        <time>2014-06-01T10:49:02Z</time>
      </trkpt>
      <trkpt lat="59.8123877" lon="17.6377371">
        <ele>21.2864</ele>
        <time>2014-06-01T10:49:03Z</time>
      </trkpt>
      <trkpt lat="59.8123664" lon="17.6377244">
        <ele>21.767</ele>
        <time>2014-06-01T10:49:04Z</time>
      </trkpt>
      <trkpt lat="59.8123439" lon="17.6377104">
        <ele>21.767</ele>
        <time>2014-06-01T10:49:05Z</time>
      </trkpt>
      <trkpt lat="59.8123191" lon="17.6376973">
        <ele>21.2864</ele>
        <time>2014-06-01T10:49:06Z</time>
      </trkpt>
      <trkpt lat="59.8122926" lon="17.6376892">
        <ele>21.767</ele>
        <time>2014-06-01T10:49:07Z</time>
      </trkpt>
      <trkpt lat="59.8122625" lon="17.6376881">
        <ele>21.767</ele>
        <time>2014-06-01T10:49:08Z</time>
      </trkpt>
      <trkpt lat="59.8122369" lon="17.6376916">
        <ele>22.2476</ele>
        <time>2014-06-01T10:49:09Z</time>
      </trkpt>
      <trkpt lat="59.8122082" lon="17.6376953">
        <ele>22.7283</ele>
        <time>2014-06-01T10:49:10Z</time>
      </trkpt>
      <trkpt lat="59.8121822" lon="17.6376892">
        <ele>22.7283</ele>
        <time>2014-06-01T10:49:11Z</time>
      </trkpt>
      <trkpt lat="59.8121602" lon="17.6376781">
        <ele>22.7283</ele>
        <time>2014-06-01T10:49:12Z</time>
      </trkpt>
      <trkpt lat="59.8121362" lon="17.6376703">
        <ele>22.7283</ele>
        <time>2014-06-01T10:49:13Z</time>
      </trkpt>
      <trkpt lat="59.812115" lon="17.637657">
        <ele>22.7283</ele>
        <time>2014-06-01T10:49:14Z</time>
      </trkpt>
      <trkpt lat="59.8120983" lon="17.637639">
        <ele>22.2476</ele>
        <time>2014-06-01T10:49:15Z</time>
      </trkpt>
      <trkpt lat="59.812084" lon="17.6376271">
        <ele>23.209</ele>
        <time>2014-06-01T10:49:16Z</time>
      </trkpt>
      <trkpt lat="59.8120686" lon="17.6376166">
        <ele>23.209</ele>
        <time>2014-06-01T10:49:17Z</time>
      </trkpt>
      <trkpt lat="59.8120545" lon="17.6376052">
        <ele>23.209</ele>
        <time>2014-06-01T10:49:18Z</time>
      </trkpt>
      <trkpt lat="59.8120425" lon="17.6376019">
        <ele>23.209</ele>
        <time>2014-06-01T10:49:19Z</time>
      </trkpt>
      <trkpt lat="59.8120263" lon="17.6375978">
        <ele>23.6896</ele>
        <time>2014-06-01T10:49:20Z</time>
      </trkpt>
      <trkpt lat="59.8120136" lon="17.637596">
        <ele>24.1703</ele>
        <time>2014-06-01T10:49:21Z</time>
      </trkpt>
      <trkpt lat="59.8120027" lon="17.6375991">
        <ele>24.651</ele>
        <time>2014-06-01T10:49:22Z</time>
      </trkpt>
      <trkpt lat="59.8119911" lon="17.637601">
        <ele>24.651</ele>
        <time>2014-06-01T10:49:23Z</time>
      </trkpt>
      <trkpt lat="59.8119784" lon="17.6376052">
        <ele>24.651</ele>
        <time>2014-06-01T10:49:24Z</time>
      </trkpt>
      <trkpt lat="59.8119605" lon="17.6376085">
        <ele>24.651</ele>
        <time>2014-06-01T10:49:25Z</time>
      </trkpt>
      <trkpt lat="59.811938" lon="17.6376025">
        <ele>24.651</ele>
        <time>2014-06-01T10:49:26Z</time>
      </trkpt>
      <trkpt lat="59.8119178" lon="17.6375885">
        <ele>24.651</ele>
        <time>2014-06-01T10:49:27Z</time>
      </trkpt>
      <trkpt lat="59.8118978" lon="17.6375757">
        <ele>24.651</ele>
        <time>2014-06-01T10:49:28Z</time>
      </trkpt>
      <trkpt lat="59.8118752" lon="17.6375739">
        <ele>24.651</ele>
        <time>2014-06-01T10:49:29Z</time>
      </trkpt>
      <trkpt lat="59.8118526" lon="17.6375773">
        <ele>24.651</ele>
        <time>2014-06-01T10:49:30Z</time>
      </trkpt>
      <trkpt lat="59.8118286" lon="17.6375693">
        <ele>24.1703</ele>
        <time>2014-06-01T10:49:31Z</time>
      </trkpt>
      <trkpt lat="59.8118036" lon="17.6375598">
        <ele>23.6896</ele>
        <time>2014-06-01T10:49:32Z</time>
      </trkpt>
      <trkpt lat="59.8117793" lon="17.637562">
        <ele>23.6896</ele>
        <time>2014-06-01T10:49:33Z</time>
      </trkpt>
      <trkpt lat="59.8117578" lon="17.6375741">
        <ele>24.1703</ele>
        <time>2014-06-01T10:49:34Z</time>
      </trkpt>
      <trkpt lat="59.8117364" lon="17.6375812">
        <ele>24.1703</ele>
        <time>2014-06-01T10:49:35Z</time>
      </trkpt>
      <trkpt lat="59.8117152" lon="17.6375736">
        <ele>24.1703</ele>
        <time>2014-06-01T10:49:36Z</time>
      </trkpt>
      <trkpt lat="59.8116936" lon="17.6375566">
        <ele>23.6896</ele>
        <time>2014-06-01T10:49:37Z</time>
      </trkpt>
      <trkpt lat="59.8116715" lon="17.6375416">
        <ele>23.6896</ele>
        <time>2014-06-01T10:49:38Z</time>
      </trkpt>
      <trkpt lat="59.8116503" lon="17.6375346">
        <ele>23.6896</ele>
        <time>2014-06-01T10:49:39Z</time>
      </trkpt>
      <trkpt lat="59.8116264" lon="17.6375322">
        <ele>24.1703</ele>
        <time>2014-06-01T10:49:40Z</time>
      </trkpt>
      <trkpt lat="59.8115996" lon="17.6375282">
        <ele>24.1703</ele>
        <time>2014-06-01T10:49:41Z</time>
      </trkpt>
      <trkpt lat="59.8115696" lon="17.6375253">
        <ele>24.1703</ele>
        <time>2014-06-01T10:49:42Z</time>
      </trkpt>
      <trkpt lat="59.811541" lon="17.6375172">
        <ele>24.1703</ele>
        <time>2014-06-01T10:49:43Z</time>
      </trkpt>
      <trkpt lat="59.8115168" lon="17.6375016">
        <ele>23.6896</ele>
        <time>2014-06-01T10:49:44Z</time>
      </trkpt>
      <trkpt lat="59.8114926" lon="17.6374871">
        <ele>23.209</ele>
        <time>2014-06-01T10:49:45Z</time>
      </trkpt>
      <trkpt lat="59.811463" lon="17.6374835">
        <ele>22.7283</ele>
        <time>2014-06-01T10:49:46Z</time>
      </trkpt>
      <trkpt lat="59.811434" lon="17.6374825">
        <ele>22.2476</ele>
        <time>2014-06-01T10:49:47Z</time>
      </trkpt>
      <trkpt lat="59.8114085" lon="17.6374876">
        <ele>21.767</ele>
        <time>2014-06-01T10:49:48Z</time>
      </trkpt>
      <trkpt lat="59.8113874" lon="17.6374992">
        <ele>21.767</ele>
        <time>2014-06-01T10:49:49Z</time>
      </trkpt>
      <trkpt lat="59.811371" lon="17.6375074">
        <ele>21.767</ele>
        <time>2014-06-01T10:49:50Z</time>
      </trkpt>
      <trkpt lat="59.8113588" lon="17.6375088">
        <ele>21.2864</ele>
        <time>2014-06-01T10:49:51Z</time>
      </trkpt>
      <trkpt lat="59.811347" lon="17.6375079">
        <ele>21.767</ele>
        <time>2014-06-01T10:49:52Z</time>
      </trkpt>
      <trkpt lat="59.8113345" lon="17.6375083">
        <ele>21.767</ele>
        <time>2014-06-01T10:49:53Z</time>
      </trkpt>
      <trkpt lat="59.8113232" lon="17.6375102">
        <ele>22.2476</ele>
        <time>2014-06-01T10:49:54Z</time>
      </trkpt>
      <trkpt lat="59.8113135" lon="17.637511">
        <ele>21.767</ele>
        <time>2014-06-01T10:49:55Z</time>
      </trkpt>
      <trkpt lat="59.8113049" lon="17.637504">
        <ele>21.767</ele>
        <time>2014-06-01T10:49:56Z</time>
      </trkpt>
      <trkpt lat="59.8112981" lon="17.6374999">
        <ele>21.767</ele>
        <time>2014-06-01T10:49:57Z</time>
      </trkpt>
      <trkpt lat="59.8112915" lon="17.6375001">
        <ele>22.2476</ele>
        <time>2014-06-01T10:49:58Z</time>
      </trkpt>
      <trkpt lat="59.8112854" lon="17.6374973">
        <ele>22.2476</ele>
        <time>2014-06-01T10:49:59Z</time>
      </trkpt>
      <trkpt lat="59.8112799" lon="17.6374968">
        <ele>22.2476</ele>
        <time>2014-06-01T10:50:00Z</time>
      </trkpt>
      <trkpt lat="59.8112681" lon="17.6375042">
        <ele>22.7283</ele>
        <time>2014-06-01T10:50:01Z</time>
      </trkpt>
      <trkpt lat="59.8112583" lon="17.6375006">
        <ele>22.2476</ele>
        <time>2014-06-01T10:50:02Z</time>
      </trkpt>
      <trkpt lat="59.811249" lon="17.6374959">
        <ele>22.7283</ele>
        <time>2014-06-01T10:50:03Z</time>
      </trkpt>
      <trkpt lat="59.8112459" lon="17.637487">
        <ele>23.209</ele>
        <time>2014-06-01T10:50:04Z</time>
      </trkpt>
      <trkpt lat="59.8112448" lon="17.6374711">
        <ele>23.6896</ele>
        <time>2014-06-01T10:50:05Z</time>
      </trkpt>
      <trkpt lat="59.8112429" lon="17.6374539">
        <ele>23.6896</ele>
        <time>2014-06-01T10:50:06Z</time>
      </trkpt>
      <trkpt lat="59.8112412" lon="17.6374436">
        <ele>23.6896</ele>
        <time>2014-06-01T10:50:07Z</time>
      </trkpt>
      <trkpt lat="59.8112397" lon="17.6374347">
        <ele>23.209</ele>
        <time>2014-06-01T10:50:08Z</time>
      </trkpt>
      <trkpt lat="59.8112455" lon="17.6374196">
        <ele>23.6896</ele>
        <time>2014-06-01T10:50:09Z</time>
      </trkpt>
      <trkpt lat="59.8112423" lon="17.6374054">
        <ele>23.6896</ele>
        <time>2014-06-01T10:50:10Z</time>
      </trkpt>
      <trkpt lat="59.8112364" lon="17.637386">
        <ele>23.209</ele>
        <time>2014-06-01T10:50:11Z</time>
      </trkpt>
      <trkpt lat="59.8112267" lon="17.6373675">
        <ele>23.209</ele>
        <time>2014-06-01T10:50:12Z</time>
      </trkpt>
      <trkpt lat="59.8112157" lon="17.6373595">
        <ele>23.209</ele>
        <time>2014-06-01T10:50:13Z</time>
      </trkpt>
      <trkpt lat="59.8112023" lon="17.63735">
        <ele>23.209</ele>
        <time>2014-06-01T10:50:14Z</time>
      </trkpt>
      <trkpt lat="59.8111847" lon="17.6373438">
        <ele>22.7283</ele>
        <time>2014-06-01T10:50:15Z</time>
      </trkpt>
      <trkpt lat="59.8111673" lon="17.6373363">
        <ele>22.7283</ele>
        <time>2014-06-01T10:50:16Z</time>
      </trkpt>
      <trkpt lat="59.8111511" lon="17.637327">
        <ele>22.2476</ele>
        <time>2014-06-01T10:50:17Z</time>
      </trkpt>
      <trkpt lat="59.8111355" lon="17.6373115">
        <ele>22.7283</ele>
        <time>2014-06-01T10:50:18Z</time>
      </trkpt>
      <trkpt lat="59.8111227" lon="17.6372934">
        <ele>22.7283</ele>
        <time>2014-06-01T10:50:19Z</time>
      </trkpt>
      <trkpt lat="59.8111086" lon="17.6372792">
        <ele>23.209</ele>
        <time>2014-06-01T10:50:20Z</time>
      </trkpt>
      <trkpt lat="59.8110924" lon="17.6372732">
        <ele>23.209</ele>
        <time>2014-06-01T10:50:21Z</time>
      </trkpt>
      <trkpt lat="59.8110743" lon="17.6372722">
        <ele>23.6896</ele>
        <time>2014-06-01T10:50:22Z</time>
      </trkpt>
      <trkpt lat="59.8110532" lon="17.6372668">
        <ele>23.209</ele>
        <time>2014-06-01T10:50:23Z</time>
      </trkpt>
      <trkpt lat="59.811034" lon="17.6372575">
        <ele>23.6896</ele>
        <time>2014-06-01T10:50:24Z</time>
      </trkpt>
      <trkpt lat="59.8110175" lon="17.6372482">
        <ele>23.6896</ele>
        <time>2014-06-01T10:50:25Z</time>
      </trkpt>
      <trkpt lat="59.8110023" lon="17.6372457">
        <ele>23.6896</ele>
        <time>2014-06-01T10:50:26Z</time>
      </trkpt>
      <trkpt lat="59.8109896" lon="17.6372427">
        <ele>24.1703</ele>
        <time>2014-06-01T10:50:27Z</time>
      </trkpt>
      <trkpt lat="59.8109755" lon="17.6372422">
        <ele>24.651</ele>
        <time>2014-06-01T10:50:28Z</time>
      </trkpt>
      <trkpt lat="59.8109639" lon="17.6372572">
        <ele>26.0929</ele>
        <time>2014-06-01T10:50:29Z</time>
      </trkpt>
      <trkpt lat="59.8109522" lon="17.637287">
        <ele>26.0929</ele>
        <time>2014-06-01T10:50:30Z</time>
      </trkpt>
      <trkpt lat="59.8109364" lon="17.6373119">
        <ele>26.5736</ele>
        <time>2014-06-01T10:50:31Z</time>
      </trkpt>
      <trkpt lat="59.8109175" lon="17.6373264">
        <ele>26.0929</ele>
        <time>2014-06-01T10:50:32Z</time>
      </trkpt>
      <trkpt lat="59.8109013" lon="17.6373478">
        <ele>26.5736</ele>
        <time>2014-06-01T10:50:33Z</time>
      </trkpt>
      <trkpt lat="59.8108875" lon="17.6373781">
        <ele>27.0543</ele>
        <time>2014-06-01T10:50:34Z</time>
      </trkpt>
      <trkpt lat="59.8108734" lon="17.6374053">
        <ele>27.0543</ele>
        <time>2014-06-01T10:50:35Z</time>
      </trkpt>
      <trkpt lat="59.8108675" lon="17.6374348">
        <ele>28.0155</ele>
        <time>2014-06-01T10:50:36Z</time>
      </trkpt>
      <trkpt lat="59.810864" lon="17.6374716">
        <ele>28.9769</ele>
        <time>2014-06-01T10:50:37Z</time>
      </trkpt>
      <trkpt lat="59.8108539" lon="17.6375196">
        <ele>29.4575</ele>
        <time>2014-06-01T10:50:38Z</time>
      </trkpt>
      <trkpt lat="59.8108422" lon="17.6375712">
        <ele>29.4575</ele>
        <time>2014-06-01T10:50:39Z</time>
      </trkpt>
      <trkpt lat="59.8108262" lon="17.6376202">
        <ele>28.9769</ele>
        <time>2014-06-01T10:50:40Z</time>
      </trkpt>
      <trkpt lat="59.8108064" lon="17.6376643">
        <ele>28.4962</ele>
        <time>2014-06-01T10:50:41Z</time>
      </trkpt>
      <trkpt lat="59.8107917" lon="17.6377017">
        <ele>28.4962</ele>
        <time>2014-06-01T10:50:42Z</time>
      </trkpt>
      <trkpt lat="59.8107782" lon="17.6377385">
        <ele>28.0155</ele>
        <time>2014-06-01T10:50:43Z</time>
      </trkpt>
      <trkpt lat="59.8107691" lon="17.6377803">
        <ele>28.4962</ele>
        <time>2014-06-01T10:50:44Z</time>
      </trkpt>
      <trkpt lat="59.8107631" lon="17.6378224">
        <ele>28.4962</ele>
        <time>2014-06-01T10:50:45Z</time>
      </trkpt>
      <trkpt lat="59.8107559" lon="17.6378497">
        <ele>28.0155</ele>
        <time>2014-06-01T10:50:46Z</time>
      </trkpt>
      <trkpt lat="59.810745" lon="17.6378668">
        <ele>28.0155</ele>
        <time>2014-06-01T10:50:47Z</time>
      </trkpt>
      <trkpt lat="59.8107309" lon="17.6378789">
        <ele>27.5349</ele>
        <time>2014-06-01T10:50:48Z</time>
      </trkpt>
      <trkpt lat="59.8107147" lon="17.6378983">
        <ele>27.5349</ele>
        <time>2014-06-01T10:50:49Z</time>
      </trkpt>
      <trkpt lat="59.8106971" lon="17.6379268">
        <ele>27.5349</ele>
        <time>2014-06-01T10:50:50Z</time>
      </trkpt>
      <trkpt lat="59.8106769" lon="17.6379594">
        <ele>27.5349</ele>
        <time>2014-06-01T10:50:51Z</time>
      </trkpt>
      <trkpt lat="59.8106579" lon="17.6379838">
        <ele>27.0543</ele>
        <time>2014-06-01T10:50:52Z</time>
      </trkpt>
      <trkpt lat="59.8106339" lon="17.6380067">
        <ele>27.5349</ele>
        <time>2014-06-01T10:50:53Z</time>
      </trkpt>
      <trkpt lat="59.8106181" lon="17.6380226">
        <ele>27.5349</ele>
        <time>2014-06-01T10:50:54Z</time>
      </trkpt>
      <trkpt lat="59.8106037" lon="17.638045">
        <ele>27.5349</ele>
        <time>2014-06-01T10:50:55Z</time>
      </trkpt>
      <trkpt lat="59.8105881" lon="17.6380723">
        <ele>27.5349</ele>
        <time>2014-06-01T10:50:56Z</time>
      </trkpt>
      <trkpt lat="59.8105695" lon="17.6380975">
        <ele>27.0543</ele>
        <time>2014-06-01T10:50:57Z</time>
      </trkpt>
      <trkpt lat="59.810557" lon="17.6381138">
        <ele>27.5349</ele>
        <time>2014-06-01T10:50:58Z</time>
      </trkpt>
      <trkpt lat="59.810546" lon="17.6381298">
        <ele>28.0155</ele>
        <time>2014-06-01T10:50:59Z</time>
      </trkpt>
      <trkpt lat="59.8105332" lon="17.638142">
        <ele>27.0543</ele>
        <time>2014-06-01T10:51:00Z</time>
      </trkpt>
      <trkpt lat="59.8105197" lon="17.6381557">
        <ele>27.0543</ele>
        <time>2014-06-01T10:51:01Z</time>
      </trkpt>
      <trkpt lat="59.8105036" lon="17.6381718">
        <ele>26.5736</ele>
        <time>2014-06-01T10:51:02Z</time>
      </trkpt>
      <trkpt lat="59.8104878" lon="17.6381963">
        <ele>27.0543</ele>
        <time>2014-06-01T10:51:03Z</time>
      </trkpt>
      <trkpt lat="59.8104756" lon="17.6382201">
        <ele>26.5736</ele>
        <time>2014-06-01T10:51:04Z</time>
      </trkpt>
      <trkpt lat="59.8104636" lon="17.638234">
        <ele>27.0543</ele>
        <time>2014-06-01T10:51:05Z</time>
      </trkpt>
      <trkpt lat="59.8104488" lon="17.6382544">
        <ele>26.5736</ele>
        <time>2014-06-01T10:51:06Z</time>
      </trkpt>
      <trkpt lat="59.8104417" lon="17.6382771">
        <ele>26.5736</ele>
        <time>2014-06-01T10:51:07Z</time>
      </trkpt>
      <trkpt lat="59.8104342" lon="17.6383045">
        <ele>26.5736</ele>
        <time>2014-06-01T10:51:08Z</time>
      </trkpt>
      <trkpt lat="59.8104242" lon="17.6383361">
        <ele>26.5736</ele>
        <time>2014-06-01T10:51:09Z</time>
      </trkpt>
      <trkpt lat="59.8104108" lon="17.6383624">
        <ele>26.5736</ele>
        <time>2014-06-01T10:51:10Z</time>
      </trkpt>
      <trkpt lat="59.8103995" lon="17.6383739">
        <ele>27.5349</ele>
        <time>2014-06-01T10:51:11Z</time>
      </trkpt>
      <trkpt lat="59.8103874" lon="17.6383803">
        <ele>26.5736</ele>
        <time>2014-06-01T10:51:12Z</time>
      </trkpt>
      <trkpt lat="59.8103761" lon="17.6383859">
        <ele>26.5736</ele>
        <time>2014-06-01T10:51:13Z</time>
      </trkpt>
      <trkpt lat="59.8103652" lon="17.6383971">
        <ele>26.5736</ele>
        <time>2014-06-01T10:51:14Z</time>
      </trkpt>
      <trkpt lat="59.8103472" lon="17.6384019">
        <ele>26.0929</ele>
        <time>2014-06-01T10:51:15Z</time>
      </trkpt>
      <trkpt lat="59.8103321" lon="17.6383955">
        <ele>25.6123</ele>
        <time>2014-06-01T10:51:16Z</time>
      </trkpt>
      <trkpt lat="59.8103151" lon="17.6383756">
        <ele>24.651</ele>
        <time>2014-06-01T10:51:17Z</time>
      </trkpt>
      <trkpt lat="59.8102964" lon="17.6383692">
        <ele>24.1703</ele>
        <time>2014-06-01T10:51:18Z</time>
      </trkpt>
      <trkpt lat="59.810277" lon="17.6383782">
        <ele>24.1703</ele>
        <time>2014-06-01T10:51:19Z</time>
      </trkpt>
      <trkpt lat="59.8102512" lon="17.6384055">
        <ele>24.1703</ele>
        <time>2014-06-01T10:51:20Z</time>
      </trkpt>
      <trkpt lat="59.8102255" lon="17.6384368">
        <ele>24.1703</ele>
        <time>2014-06-01T10:51:21Z</time>
      </trkpt>
      <trkpt lat="59.8102032" lon="17.6384677">
        <ele>22.7283</ele>
        <time>2014-06-01T10:51:22Z</time>
      </trkpt>
      <trkpt lat="59.8101848" lon="17.638502">
        <ele>21.767</ele>
        <time>2014-06-01T10:51:23Z</time>
      </trkpt>
      <trkpt lat="59.8101622" lon="17.6385347">
        <ele>22.2476</ele>
        <time>2014-06-01T10:51:24Z</time>
      </trkpt>
      <trkpt lat="59.8101373" lon="17.6385512">
        <ele>21.2864</ele>
        <time>2014-06-01T10:51:25Z</time>
      </trkpt>
      <trkpt lat="59.810113" lon="17.6385511">
        <ele>20.8057</ele>
        <time>2014-06-01T10:51:26Z</time>
      </trkpt>
      <trkpt lat="59.8100881" lon="17.6385418">
        <ele>19.8444</ele>
        <time>2014-06-01T10:51:27Z</time>
      </trkpt>
      <trkpt lat="59.810068" lon="17.6385278">
        <ele>18.8831</ele>
        <time>2014-06-01T10:51:28Z</time>
      </trkpt>
      <trkpt lat="59.8100489" lon="17.6385273">
        <ele>18.8831</ele>
        <time>2014-06-01T10:51:29Z</time>
      </trkpt>
      <trkpt lat="59.8100296" lon="17.6385387">
        <ele>18.4023</ele>
        <time>2014-06-01T10:51:30Z</time>
      </trkpt>
      <trkpt lat="59.8100102" lon="17.6385541">
        <ele>17.9218</ele>
        <time>2014-06-01T10:51:31Z</time>
      </trkpt>
      <trkpt lat="59.8099958" lon="17.6385589">
        <ele>17.9218</ele>
        <time>2014-06-01T10:51:32Z</time>
      </trkpt>
      <trkpt lat="59.8099813" lon="17.6385708">
        <ele>18.4023</ele>
        <time>2014-06-01T10:51:33Z</time>
      </trkpt>
      <trkpt lat="59.8099603" lon="17.6386018">
        <ele>18.8831</ele>
        <time>2014-06-01T10:51:34Z</time>
      </trkpt>
      <trkpt lat="59.8099322" lon="17.6386317">
        <ele>18.8831</ele>
        <time>2014-06-01T10:51:35Z</time>
      </trkpt>
      <trkpt lat="59.8098961" lon="17.638669">
        <ele>19.8444</ele>
        <time>2014-06-01T10:51:36Z</time>
      </trkpt>
      <trkpt lat="59.8098608" lon="17.6386909">
        <ele>19.8444</ele>
        <time>2014-06-01T10:51:37Z</time>
      </trkpt>
      <trkpt lat="59.8098215" lon="17.638705">
        <ele>19.3638</ele>
        <time>2014-06-01T10:51:38Z</time>
      </trkpt>
      <trkpt lat="59.8097831" lon="17.6387206">
        <ele>20.325</ele>
        <time>2014-06-01T10:51:39Z</time>
      </trkpt>
      <trkpt lat="59.8097365" lon="17.6387577">
        <ele>20.325</ele>
        <time>2014-06-01T10:51:40Z</time>
      </trkpt>
      <trkpt lat="59.8096909" lon="17.6388111">
        <ele>21.2864</ele>
        <time>2014-06-01T10:51:41Z</time>
      </trkpt>
      <trkpt lat="59.8096492" lon="17.6388909">
        <ele>22.2476</ele>
        <time>2014-06-01T10:51:42Z</time>
      </trkpt>
      <trkpt lat="59.8096041" lon="17.638971">
        <ele>22.7283</ele>
        <time>2014-06-01T10:51:43Z</time>
      </trkpt>
      <trkpt lat="59.8095566" lon="17.6390493">
        <ele>23.6896</ele>
        <time>2014-06-01T10:51:44Z</time>
      </trkpt>
      <trkpt lat="59.8095083" lon="17.6391259">
        <ele>24.1703</ele>
        <time>2014-06-01T10:51:45Z</time>
      </trkpt>
      <trkpt lat="59.8094598" lon="17.6391997">
        <ele>24.651</ele>
        <time>2014-06-01T10:51:46Z</time>
      </trkpt>
      <trkpt lat="59.8094142" lon="17.6392737">
        <ele>24.651</ele>
        <time>2014-06-01T10:51:47Z</time>
      </trkpt>
      <trkpt lat="59.8093681" lon="17.6393499">
        <ele>25.1317</ele>
        <time>2014-06-01T10:51:48Z</time>
      </trkpt>
      <trkpt lat="59.8093209" lon="17.6394275">
        <ele>25.6123</ele>
        <time>2014-06-01T10:51:49Z</time>
      </trkpt>
      <trkpt lat="59.8092786" lon="17.6395098">
        <ele>26.0929</ele>
        <time>2014-06-01T10:51:50Z</time>
      </trkpt>
      <trkpt lat="59.8092444" lon="17.6396042">
        <ele>26.0929</ele>
        <time>2014-06-01T10:51:51Z</time>
      </trkpt>
      <trkpt lat="59.8092206" lon="17.6397115">
        <ele>26.0929</ele>
        <time>2014-06-01T10:51:52Z</time>
      </trkpt>
      <trkpt lat="59.8092054" lon="17.6398279">
        <ele>26.0929</ele>
        <time>2014-06-01T10:51:53Z</time>
      </trkpt>
      <trkpt lat="59.8092024" lon="17.639946">
        <ele>26.0929</ele>
        <time>2014-06-01T10:51:54Z</time>
      </trkpt>
      <trkpt lat="59.8092201" lon="17.6400537">
        <ele>26.0929</ele>
        <time>2014-06-01T10:51:55Z</time>
      </trkpt>
      <trkpt lat="59.8092517" lon="17.640145">
        <ele>26.5736</ele>
        <time>2014-06-01T10:51:56Z</time>
      </trkpt>
      <trkpt lat="59.809286" lon="17.6402161">
        <ele>26.5736</ele>
        <time>2014-06-01T10:51:57Z</time>
      </trkpt>
      <trkpt lat="59.8093244" lon="17.6402703">
        <ele>27.0543</ele>
        <time>2014-06-01T10:51:58Z</time>
      </trkpt>
      <trkpt lat="59.8093634" lon="17.6403341">
        <ele>27.0543</ele>
        <time>2014-06-01T10:51:59Z</time>
      </trkpt>
      <trkpt lat="59.8093909" lon="17.6404258">
        <ele>27.0543</ele>
        <time>2014-06-01T10:52:00Z</time>
      </trkpt>
      <trkpt lat="59.8093972" lon="17.6405339">
        <ele>26.5736</ele>
        <time>2014-06-01T10:52:01Z</time>
      </trkpt>
      <trkpt lat="59.8093909" lon="17.6406465">
        <ele>26.0929</ele>
        <time>2014-06-01T10:52:02Z</time>
      </trkpt>
      <trkpt lat="59.8093769" lon="17.6407537">
        <ele>26.5736</ele>
        <time>2014-06-01T10:52:03Z</time>
      </trkpt>
      <trkpt lat="59.8093474" lon="17.6408528">
        <ele>26.5736</ele>
        <time>2014-06-01T10:52:04Z</time>
      </trkpt>
      <trkpt lat="59.80931" lon="17.6409402">
        <ele>26.5736</ele>
        <time>2014-06-01T10:52:05Z</time>
      </trkpt>
      <trkpt lat="59.8092664" lon="17.6410066">
        <ele>26.0929</ele>
        <time>2014-06-01T10:52:06Z</time>
      </trkpt>
      <trkpt lat="59.8092076" lon="17.6410459">
        <ele>24.1703</ele>
        <time>2014-06-01T10:52:07Z</time>
      </trkpt>
      <trkpt lat="59.8091495" lon="17.6410752">
        <ele>22.7283</ele>
        <time>2014-06-01T10:52:08Z</time>
      </trkpt>
      <trkpt lat="59.8090904" lon="17.6411339">
        <ele>22.2476</ele>
        <time>2014-06-01T10:52:09Z</time>
      </trkpt>
      <trkpt lat="59.8090258" lon="17.6412064">
        <ele>22.2476</ele>
        <time>2014-06-01T10:52:10Z</time>
      </trkpt>
      <trkpt lat="59.8089579" lon="17.6412634">
        <ele>22.2476</ele>
        <time>2014-06-01T10:52:11Z</time>
      </trkpt>
      <trkpt lat="59.8088916" lon="17.641306">
        <ele>21.767</ele>
        <time>2014-06-01T10:52:12Z</time>
      </trkpt>
      <trkpt lat="59.8088274" lon="17.641336">
        <ele>21.2864</ele>
        <time>2014-06-01T10:52:13Z</time>
      </trkpt>
      <trkpt lat="59.8087642" lon="17.6413611">
        <ele>21.767</ele>
        <time>2014-06-01T10:52:14Z</time>
      </trkpt>
      <trkpt lat="59.8087045" lon="17.6413896">
        <ele>21.767</ele>
        <time>2014-06-01T10:52:15Z</time>
      </trkpt>
      <trkpt lat="59.8086469" lon="17.6414274">
        <ele>21.767</ele>
        <time>2014-06-01T10:52:16Z</time>
      </trkpt>
      <trkpt lat="59.8085931" lon="17.6414685">
        <ele>22.2476</ele>
        <time>2014-06-01T10:52:17Z</time>
      </trkpt>
      <trkpt lat="59.8085428" lon="17.6415072">
        <ele>22.2476</ele>
        <time>2014-06-01T10:52:18Z</time>
      </trkpt>
      <trkpt lat="59.8084947" lon="17.6415431">
        <ele>22.7283</ele>
        <time>2014-06-01T10:52:19Z</time>
      </trkpt>
      <trkpt lat="59.8084476" lon="17.6415736">
        <ele>22.7283</ele>
        <time>2014-06-01T10:52:20Z</time>
      </trkpt>
      <trkpt lat="59.8084005" lon="17.6416013">
        <ele>23.209</ele>
        <time>2014-06-01T10:52:21Z</time>
      </trkpt>
      <trkpt lat="59.8083595" lon="17.6416263">
        <ele>23.6896</ele>
        <time>2014-06-01T10:52:22Z</time>
      </trkpt>
      <trkpt lat="59.8083212" lon="17.6416517">
        <ele>24.1703</ele>
        <time>2014-06-01T10:52:23Z</time>
      </trkpt>
      <trkpt lat="59.8082843" lon="17.6416664">
        <ele>24.1703</ele>
        <time>2014-06-01T10:52:24Z</time>
      </trkpt>
      <trkpt lat="59.8082474" lon="17.6416769">
        <ele>24.1703</ele>
        <time>2014-06-01T10:52:25Z</time>
      </trkpt>
      <trkpt lat="59.808216" lon="17.6416992">
        <ele>24.651</ele>
        <time>2014-06-01T10:52:26Z</time>
      </trkpt>
      <trkpt lat="59.8081875" lon="17.6417246">
        <ele>24.651</ele>
        <time>2014-06-01T10:52:27Z</time>
      </trkpt>
      <trkpt lat="59.8081585" lon="17.6417434">
        <ele>24.651</ele>
        <time>2014-06-01T10:52:28Z</time>
      </trkpt>
      <trkpt lat="59.8081295" lon="17.6417478">
        <ele>25.1317</ele>
        <time>2014-06-01T10:52:29Z</time>
      </trkpt>
      <trkpt lat="59.8081003" lon="17.6417442">
        <ele>25.1317</ele>
        <time>2014-06-01T10:52:30Z</time>
      </trkpt>
      <trkpt lat="59.8080746" lon="17.6417648">
        <ele>25.1317</ele>
        <time>2014-06-01T10:52:31Z</time>
      </trkpt>
      <trkpt lat="59.8080501" lon="17.6418192">
        <ele>25.6123</ele>
        <time>2014-06-01T10:52:32Z</time>
      </trkpt>
      <trkpt lat="59.8080257" lon="17.6418814">
        <ele>26.0929</ele>
        <time>2014-06-01T10:52:33Z</time>
      </trkpt>
      <trkpt lat="59.8079995" lon="17.6419414">
        <ele>26.0929</ele>
        <time>2014-06-01T10:52:34Z</time>
      </trkpt>
      <trkpt lat="59.8079731" lon="17.642001">
        <ele>26.5736</ele>
        <time>2014-06-01T10:52:35Z</time>
      </trkpt>
      <trkpt lat="59.8079475" lon="17.6420592">
        <ele>26.5736</ele>
        <time>2014-06-01T10:52:36Z</time>
      </trkpt>
      <trkpt lat="59.8079216" lon="17.6421122">
        <ele>27.0543</ele>
        <time>2014-06-01T10:52:37Z</time>
      </trkpt>
      <trkpt lat="59.8078952" lon="17.6421564">
        <ele>27.0543</ele>
        <time>2014-06-01T10:52:38Z</time>
      </trkpt>
      <trkpt lat="59.8078747" lon="17.6422057">
        <ele>27.0543</ele>
        <time>2014-06-01T10:52:39Z</time>
      </trkpt>
      <trkpt lat="59.8078534" lon="17.6422607">
        <ele>27.5349</ele>
        <time>2014-06-01T10:52:40Z</time>
      </trkpt>
      <trkpt lat="59.8078259" lon="17.6423134">
        <ele>28.4962</ele>
        <time>2014-06-01T10:52:41Z</time>
      </trkpt>
      <trkpt lat="59.8077942" lon="17.6423479">
        <ele>28.9769</ele>
        <time>2014-06-01T10:52:42Z</time>
      </trkpt>
      <trkpt lat="59.8077602" lon="17.6423793">
        <ele>29.4575</ele>
        <time>2014-06-01T10:52:43Z</time>
      </trkpt>
      <trkpt lat="59.8077255" lon="17.6424122">
        <ele>29.4575</ele>
        <time>2014-06-01T10:52:44Z</time>
      </trkpt>
      <trkpt lat="59.8076908" lon="17.6424474">
        <ele>29.9381</ele>
        <time>2014-06-01T10:52:45Z</time>
      </trkpt>
      <trkpt lat="59.8076569" lon="17.6424818">
        <ele>29.4575</ele>
        <time>2014-06-01T10:52:46Z</time>
      </trkpt>
      <trkpt lat="59.8076227" lon="17.6425191">
        <ele>28.9769</ele>
        <time>2014-06-01T10:52:47Z</time>
      </trkpt>
      <trkpt lat="59.8075836" lon="17.6425572">
        <ele>28.9769</ele>
        <time>2014-06-01T10:52:48Z</time>
      </trkpt>
      <trkpt lat="59.807541" lon="17.6425936">
        <ele>28.9769</ele>
        <time>2014-06-01T10:52:49Z</time>
      </trkpt>
      <trkpt lat="59.807501" lon="17.6426289">
        <ele>29.4575</ele>
        <time>2014-06-01T10:52:50Z</time>
      </trkpt>
      <trkpt lat="59.8074634" lon="17.6426646">
        <ele>29.4575</ele>
        <time>2014-06-01T10:52:51Z</time>
      </trkpt>
      <trkpt lat="59.8074214" lon="17.6427075">
        <ele>29.4575</ele>
        <time>2014-06-01T10:52:52Z</time>
      </trkpt>
      <trkpt lat="59.8073827" lon="17.6427418">
        <ele>28.4962</ele>
        <time>2014-06-01T10:52:53Z</time>
      </trkpt>
      <trkpt lat="59.8073407" lon="17.642776">
        <ele>28.4962</ele>
        <time>2014-06-01T10:52:54Z</time>
      </trkpt>
      <trkpt lat="59.8072975" lon="17.6428152">
        <ele>28.4962</ele>
        <time>2014-06-01T10:52:55Z</time>
      </trkpt>
      <trkpt lat="59.8072582" lon="17.6428511">
        <ele>28.4962</ele>
        <time>2014-06-01T10:52:56Z</time>
      </trkpt>
      <trkpt lat="59.8072194" lon="17.6428879">
        <ele>28.0155</ele>
        <time>2014-06-01T10:52:57Z</time>
      </trkpt>
      <trkpt lat="59.8071784" lon="17.6429303">
        <ele>28.0155</ele>
        <time>2014-06-01T10:52:58Z</time>
      </trkpt>
      <trkpt lat="59.8071373" lon="17.6429826">
        <ele>27.5349</ele>
        <time>2014-06-01T10:52:59Z</time>
      </trkpt>
      <trkpt lat="59.8070935" lon="17.643041">
        <ele>27.5349</ele>
        <time>2014-06-01T10:53:00Z</time>
      </trkpt>
      <trkpt lat="59.8070484" lon="17.6430978">
        <ele>27.5349</ele>
        <time>2014-06-01T10:53:01Z</time>
      </trkpt>
      <trkpt lat="59.8070065" lon="17.643152">
        <ele>27.5349</ele>
        <time>2014-06-01T10:53:02Z</time>
      </trkpt>
      <trkpt lat="59.8069645" lon="17.6432089">
        <ele>27.0543</ele>
        <time>2014-06-01T10:53:03Z</time>
      </trkpt>
      <trkpt lat="59.80692" lon="17.6432661">
        <ele>27.0543</ele>
        <time>2014-06-01T10:53:04Z</time>
      </trkpt>
      <trkpt lat="59.8068709" lon="17.6433257">
        <ele>27.0543</ele>
        <time>2014-06-01T10:53:05Z</time>
      </trkpt>
      <trkpt lat="59.8068206" lon="17.6433886">
        <ele>27.0543</ele>
        <time>2014-06-01T10:53:06Z</time>
      </trkpt>
      <trkpt lat="59.8067662" lon="17.6434401">
        <ele>26.5736</ele>
        <time>2014-06-01T10:53:07Z</time>
      </trkpt>
      <trkpt lat="59.8067138" lon="17.6434783">
        <ele>26.5736</ele>
        <time>2014-06-01T10:53:08Z</time>
      </trkpt>
      <trkpt lat="59.8066651" lon="17.6435017">
        <ele>26.0929</ele>
        <time>2014-06-01T10:53:09Z</time>
      </trkpt>
      <trkpt lat="59.8066141" lon="17.6435042">
        <ele>26.5736</ele>
        <time>2014-06-01T10:53:10Z</time>
      </trkpt>
      <trkpt lat="59.8065624" lon="17.643486">
        <ele>27.0543</ele>
        <time>2014-06-01T10:53:11Z</time>
      </trkpt>
      <trkpt lat="59.8065134" lon="17.6434534">
        <ele>27.0543</ele>
        <time>2014-06-01T10:53:12Z</time>
      </trkpt>
      <trkpt lat="59.8064686" lon="17.6434172">
        <ele>27.0543</ele>
        <time>2014-06-01T10:53:13Z</time>
      </trkpt>
      <trkpt lat="59.8064227" lon="17.6433881">
        <ele>27.0543</ele>
        <time>2014-06-01T10:53:14Z</time>
      </trkpt>
      <trkpt lat="59.8063735" lon="17.6433628">
        <ele>26.5736</ele>
        <time>2014-06-01T10:53:15Z</time>
      </trkpt>
      <trkpt lat="59.8063215" lon="17.6433443">
        <ele>26.5736</ele>
        <time>2014-06-01T10:53:16Z</time>
      </trkpt>
      <trkpt lat="59.8062678" lon="17.6433239">
        <ele>26.5736</ele>
        <time>2014-06-01T10:53:17Z</time>
      </trkpt>
      <trkpt lat="59.8062122" lon="17.6432971">
        <ele>26.5736</ele>
        <time>2014-06-01T10:53:18Z</time>
      </trkpt>
      <trkpt lat="59.8061559" lon="17.6432692">
        <ele>26.5736</ele>
        <time>2014-06-01T10:53:19Z</time>
      </trkpt>
      <trkpt lat="59.8060987" lon="17.6432384">
        <ele>26.5736</ele>
        <time>2014-06-01T10:53:20Z</time>
      </trkpt>
      <trkpt lat="59.8060428" lon="17.6432018">
        <ele>27.0543</ele>
        <time>2014-06-01T10:53:21Z</time>
      </trkpt>
      <trkpt lat="59.8059881" lon="17.643156">
        <ele>27.0543</ele>
        <time>2014-06-01T10:53:22Z</time>
      </trkpt>
      <trkpt lat="59.8059378" lon="17.6430946">
        <ele>27.5349</ele>
        <time>2014-06-01T10:53:23Z</time>
      </trkpt>
      <trkpt lat="59.8058933" lon="17.6430177">
        <ele>27.5349</ele>
        <time>2014-06-01T10:53:24Z</time>
      </trkpt>
      <trkpt lat="59.8058543" lon="17.6429297">
        <ele>27.5349</ele>
        <time>2014-06-01T10:53:25Z</time>
      </trkpt>
      <trkpt lat="59.8058171" lon="17.6428357">
        <ele>27.5349</ele>
        <time>2014-06-01T10:53:26Z</time>
      </trkpt>
      <trkpt lat="59.8057807" lon="17.6427377">
        <ele>27.5349</ele>
        <time>2014-06-01T10:53:27Z</time>
      </trkpt>
      <trkpt lat="59.8057432" lon="17.6426408">
        <ele>28.0155</ele>
        <time>2014-06-01T10:53:28Z</time>
      </trkpt>
      <trkpt lat="59.8057047" lon="17.6425495">
        <ele>28.0155</ele>
        <time>2014-06-01T10:53:29Z</time>
      </trkpt>
      <trkpt lat="59.8056664" lon="17.6424631">
        <ele>28.0155</ele>
        <time>2014-06-01T10:53:30Z</time>
      </trkpt>
      <trkpt lat="59.8056287" lon="17.6423819">
        <ele>28.0155</ele>
        <time>2014-06-01T10:53:31Z</time>
      </trkpt>
      <trkpt lat="59.8055923" lon="17.6423034">
        <ele>28.4962</ele>
        <time>2014-06-01T10:53:32Z</time>
      </trkpt>
      <trkpt lat="59.8055607" lon="17.6422228">
        <ele>28.4962</ele>
        <time>2014-06-01T10:53:33Z</time>
      </trkpt>
      <trkpt lat="59.8055364" lon="17.6421381">
        <ele>28.0155</ele>
        <time>2014-06-01T10:53:34Z</time>
      </trkpt>
      <trkpt lat="59.8055145" lon="17.6420601">
        <ele>28.0155</ele>
        <time>2014-06-01T10:53:35Z</time>
      </trkpt>
      <trkpt lat="59.8054873" lon="17.6420022">
        <ele>28.4962</ele>
        <time>2014-06-01T10:53:36Z</time>
      </trkpt>
      <trkpt lat="59.8054571" lon="17.6419534">
        <ele>28.4962</ele>
        <time>2014-06-01T10:53:37Z</time>
      </trkpt>
      <trkpt lat="59.8054287" lon="17.6419047">
        <ele>28.4962</ele>
        <time>2014-06-01T10:53:38Z</time>
      </trkpt>
      <trkpt lat="59.8054058" lon="17.6418519">
        <ele>28.4962</ele>
        <time>2014-06-01T10:53:39Z</time>
      </trkpt>
      <trkpt lat="59.8053855" lon="17.6417949">
        <ele>28.9769</ele>
        <time>2014-06-01T10:53:40Z</time>
      </trkpt>
      <trkpt lat="59.8053648" lon="17.6417369">
        <ele>28.4962</ele>
        <time>2014-06-01T10:53:41Z</time>
      </trkpt>
      <trkpt lat="59.8053416" lon="17.6416773">
        <ele>28.4962</ele>
        <time>2014-06-01T10:53:42Z</time>
      </trkpt>
      <trkpt lat="59.8053152" lon="17.6416235">
        <ele>28.4962</ele>
        <time>2014-06-01T10:53:43Z</time>
      </trkpt>
      <trkpt lat="59.8052904" lon="17.6415849">
        <ele>28.0155</ele>
        <time>2014-06-01T10:53:44Z</time>
      </trkpt>
      <trkpt lat="59.8052726" lon="17.6415699">
        <ele>28.0155</ele>
        <time>2014-06-01T10:53:45Z</time>
      </trkpt>
      <trkpt lat="59.8052653" lon="17.6415685">
        <ele>28.0155</ele>
        <time>2014-06-01T10:53:46Z</time>
      </trkpt>
      <trkpt lat="59.805265" lon="17.641568">
        <ele>28.0155</ele>
        <time>2014-06-01T10:53:47Z</time>
      </trkpt>
      <trkpt lat="59.8052649" lon="17.6415661">
        <ele>28.0155</ele>
        <time>2014-06-01T10:53:48Z</time>
      </trkpt>
      <trkpt lat="59.8052137" lon="17.6415332">
        <ele>28.0155</ele>
        <time>2014-06-01T10:53:54Z</time>
      </trkpt>
      <trkpt lat="59.8052" lon="17.6415002">
        <ele>28.0155</ele>
        <time>2014-06-01T10:53:55Z</time>
      </trkpt>
      <trkpt lat="59.805186" lon="17.6414608">
        <ele>28.0155</ele>
        <time>2014-06-01T10:53:56Z</time>
      </trkpt>
      <trkpt lat="59.8051707" lon="17.641416">
        <ele>28.0155</ele>
        <time>2014-06-01T10:53:57Z</time>
      </trkpt>
      <trkpt lat="59.8051539" lon="17.6413635">
        <ele>28.0155</ele>
        <time>2014-06-01T10:53:58Z</time>
      </trkpt>
      <trkpt lat="59.8051342" lon="17.6413095">
        <ele>28.0155</ele>
        <time>2014-06-01T10:53:59Z</time>
      </trkpt>
      <trkpt lat="59.8051116" lon="17.6412541">
        <ele>28.0155</ele>
        <time>2014-06-01T10:54:00Z</time>
      </trkpt>
      <trkpt lat="59.8050878" lon="17.6411934">
        <ele>28.0155</ele>
        <time>2014-06-01T10:54:01Z</time>
      </trkpt>
      <trkpt lat="59.8050634" lon="17.6411307">
        <ele>28.0155</ele>
        <time>2014-06-01T10:54:02Z</time>
      </trkpt>
      <trkpt lat="59.8050376" lon="17.6410702">
        <ele>28.4962</ele>
        <time>2014-06-01T10:54:03Z</time>
      </trkpt>
      <trkpt lat="59.8050089" lon="17.6410173">
        <ele>28.4962</ele>
        <time>2014-06-01T10:54:04Z</time>
      </trkpt>
      <trkpt lat="59.8049774" lon="17.6409727">
        <ele>28.4962</ele>
        <time>2014-06-01T10:54:05Z</time>
      </trkpt>
      <trkpt lat="59.8049448" lon="17.6409415">
        <ele>28.9769</ele>
        <time>2014-06-01T10:54:06Z</time>
      </trkpt>
      <trkpt lat="59.8049153" lon="17.6409315">
        <ele>29.9381</ele>
        <time>2014-06-01T10:54:07Z</time>
      </trkpt>
      <trkpt lat="59.804894" lon="17.6409407">
        <ele>29.9381</ele>
        <time>2014-06-01T10:54:08Z</time>
      </trkpt>
      <trkpt lat="59.8048785" lon="17.6409641">
        <ele>29.9381</ele>
        <time>2014-06-01T10:54:09Z</time>
      </trkpt>
      <trkpt lat="59.8048608" lon="17.6409863">
        <ele>30.4188</ele>
        <time>2014-06-01T10:54:10Z</time>
      </trkpt>
      <trkpt lat="59.8048428" lon="17.6409894">
        <ele>30.4188</ele>
        <time>2014-06-01T10:54:11Z</time>
      </trkpt>
      <trkpt lat="59.8048303" lon="17.640977">
        <ele>30.8995</ele>
        <time>2014-06-01T10:54:12Z</time>
      </trkpt>
      <trkpt lat="59.8048205" lon="17.6409587">
        <ele>30.8995</ele>
        <time>2014-06-01T10:54:13Z</time>
      </trkpt>
      <trkpt lat="59.8048074" lon="17.6409427">
        <ele>30.8995</ele>
        <time>2014-06-01T10:54:14Z</time>
      </trkpt>
      <trkpt lat="59.8047878" lon="17.6409262">
        <ele>30.8995</ele>
        <time>2014-06-01T10:54:15Z</time>
      </trkpt>
      <trkpt lat="59.8047628" lon="17.6409038">
        <ele>30.8995</ele>
        <time>2014-06-01T10:54:16Z</time>
      </trkpt>
      <trkpt lat="59.8047329" lon="17.6408807">
        <ele>30.8995</ele>
        <time>2014-06-01T10:54:17Z</time>
      </trkpt>
      <trkpt lat="59.8047022" lon="17.64086">
        <ele>31.3801</ele>
        <time>2014-06-01T10:54:18Z</time>
      </trkpt>
      <trkpt lat="59.8046719" lon="17.6408406">
        <ele>31.3801</ele>
        <time>2014-06-01T10:54:19Z</time>
      </trkpt>
      <trkpt lat="59.8046396" lon="17.6408211">
        <ele>31.3801</ele>
        <time>2014-06-01T10:54:20Z</time>
      </trkpt>
      <trkpt lat="59.8046045" lon="17.640802">
        <ele>31.8607</ele>
        <time>2014-06-01T10:54:21Z</time>
      </trkpt>
      <trkpt lat="59.8045668" lon="17.6407766">
        <ele>31.3801</ele>
        <time>2014-06-01T10:54:22Z</time>
      </trkpt>
      <trkpt lat="59.804533" lon="17.6407439">
        <ele>31.3801</ele>
        <time>2014-06-01T10:54:23Z</time>
      </trkpt>
      <trkpt lat="59.8045024" lon="17.6407107">
        <ele>30.8995</ele>
        <time>2014-06-01T10:54:24Z</time>
      </trkpt>
      <trkpt lat="59.804473" lon="17.6406873">
        <ele>30.8995</ele>
        <time>2014-06-01T10:54:25Z</time>
      </trkpt>
      <trkpt lat="59.8044403" lon="17.6406636">
        <ele>30.8995</ele>
        <time>2014-06-01T10:54:26Z</time>
      </trkpt>
      <trkpt lat="59.8044092" lon="17.6406297">
        <ele>30.8995</ele>
        <time>2014-06-01T10:54:27Z</time>
      </trkpt>
      <trkpt lat="59.8043787" lon="17.6406044">
        <ele>30.4188</ele>
        <time>2014-06-01T10:54:28Z</time>
      </trkpt>
      <trkpt lat="59.8043487" lon="17.6406024">
        <ele>30.4188</ele>
        <time>2014-06-01T10:54:29Z</time>
      </trkpt>
      <trkpt lat="59.80433" lon="17.6406304">
        <ele>29.9381</ele>
        <time>2014-06-01T10:54:30Z</time>
      </trkpt>
      <trkpt lat="59.8043098" lon="17.6406843">
        <ele>29.9381</ele>
        <time>2014-06-01T10:54:31Z</time>
      </trkpt>
      <trkpt lat="59.8042844" lon="17.6407416">
        <ele>30.4188</ele>
        <time>2014-06-01T10:54:32Z</time>
      </trkpt>
      <trkpt lat="59.8042564" lon="17.6408014">
        <ele>29.9381</ele>
        <time>2014-06-01T10:54:33Z</time>
      </trkpt>
      <trkpt lat="59.8042285" lon="17.6408555">
        <ele>29.9381</ele>
        <time>2014-06-01T10:54:34Z</time>
      </trkpt>
      <trkpt lat="59.8041954" lon="17.6409106">
        <ele>29.9381</ele>
        <time>2014-06-01T10:54:35Z</time>
      </trkpt>
      <trkpt lat="59.8041572" lon="17.6409692">
        <ele>29.9381</ele>
        <time>2014-06-01T10:54:36Z</time>
      </trkpt>
      <trkpt lat="59.8041187" lon="17.6410315">
        <ele>29.9381</ele>
        <time>2014-06-01T10:54:37Z</time>
      </trkpt>
      <trkpt lat="59.8040819" lon="17.6411023">
        <ele>29.9381</ele>
        <time>2014-06-01T10:54:38Z</time>
      </trkpt>
      <trkpt lat="59.8040446" lon="17.6411757">
        <ele>30.4188</ele>
        <time>2014-06-01T10:54:39Z</time>
      </trkpt>
      <trkpt lat="59.8040045" lon="17.6412425">
        <ele>30.8995</ele>
        <time>2014-06-01T10:54:40Z</time>
      </trkpt>
      <trkpt lat="59.8039601" lon="17.641308">
        <ele>31.3801</ele>
        <time>2014-06-01T10:54:41Z</time>
      </trkpt>
      <trkpt lat="59.8039241" lon="17.6413556">
        <ele>31.8607</ele>
        <time>2014-06-01T10:54:42Z</time>
      </trkpt>
      <trkpt lat="59.8038912" lon="17.6413856">
        <ele>31.3801</ele>
        <time>2014-06-01T10:54:43Z</time>
      </trkpt>
      <trkpt lat="59.8038621" lon="17.6413985">
        <ele>31.8607</ele>
        <time>2014-06-01T10:54:44Z</time>
      </trkpt>
      <trkpt lat="59.8038374" lon="17.6413875">
        <ele>31.3801</ele>
        <time>2014-06-01T10:54:45Z</time>
      </trkpt>
      <trkpt lat="59.8038211" lon="17.6413611">
        <ele>30.8995</ele>
        <time>2014-06-01T10:54:46Z</time>
      </trkpt>
      <trkpt lat="59.8038165" lon="17.641311">
        <ele>30.4188</ele>
        <time>2014-06-01T10:54:47Z</time>
      </trkpt>
      <trkpt lat="59.8038093" lon="17.641265">
        <ele>29.4575</ele>
        <time>2014-06-01T10:54:48Z</time>
      </trkpt>
      <trkpt lat="59.8038027" lon="17.6412251">
        <ele>28.4962</ele>
        <time>2014-06-01T10:54:49Z</time>
      </trkpt>
      <trkpt lat="59.8037958" lon="17.6411816">
        <ele>28.4962</ele>
        <time>2014-06-01T10:54:50Z</time>
      </trkpt>
      <trkpt lat="59.8037866" lon="17.6411263">
        <ele>28.0155</ele>
        <time>2014-06-01T10:54:51Z</time>
      </trkpt>
      <trkpt lat="59.8037758" lon="17.6410726">
        <ele>28.0155</ele>
        <time>2014-06-01T10:54:52Z</time>
      </trkpt>
      <trkpt lat="59.8037664" lon="17.6410319">
        <ele>28.0155</ele>
        <time>2014-06-01T10:54:53Z</time>
      </trkpt>
      <trkpt lat="59.8037606" lon="17.6410006">
        <ele>28.4962</ele>
        <time>2014-06-01T10:54:54Z</time>
      </trkpt>
      <trkpt lat="59.803761" lon="17.6409748">
        <ele>29.4575</ele>
        <time>2014-06-01T10:54:55Z</time>
      </trkpt>
      <trkpt lat="59.803763" lon="17.6409436">
        <ele>29.4575</ele>
        <time>2014-06-01T10:54:56Z</time>
      </trkpt>
      <trkpt lat="59.8037556" lon="17.640913">
        <ele>28.9769</ele>
        <time>2014-06-01T10:54:57Z</time>
      </trkpt>
      <trkpt lat="59.8037415" lon="17.6408785">
        <ele>27.5349</ele>
        <time>2014-06-01T10:54:58Z</time>
      </trkpt>
      <trkpt lat="59.8037264" lon="17.640837">
        <ele>27.0543</ele>
        <time>2014-06-01T10:54:59Z</time>
      </trkpt>
      <trkpt lat="59.8037124" lon="17.6407945">
        <ele>27.0543</ele>
        <time>2014-06-01T10:55:00Z</time>
      </trkpt>
      <trkpt lat="59.8036954" lon="17.6407522">
        <ele>26.0929</ele>
        <time>2014-06-01T10:55:01Z</time>
      </trkpt>
      <trkpt lat="59.8036684" lon="17.6407248">
        <ele>24.651</ele>
        <time>2014-06-01T10:55:02Z</time>
      </trkpt>
      <trkpt lat="59.8036387" lon="17.6407201">
        <ele>24.651</ele>
        <time>2014-06-01T10:55:03Z</time>
      </trkpt>
      <trkpt lat="59.8036061" lon="17.6407222">
        <ele>23.6896</ele>
        <time>2014-06-01T10:55:04Z</time>
      </trkpt>
      <trkpt lat="59.803576" lon="17.6407283">
        <ele>23.209</ele>
        <time>2014-06-01T10:55:05Z</time>
      </trkpt>
      <trkpt lat="59.8035541" lon="17.6407174">
        <ele>23.209</ele>
        <time>2014-06-01T10:55:06Z</time>
      </trkpt>
      <trkpt lat="59.8035337" lon="17.6406883">
        <ele>23.209</ele>
        <time>2014-06-01T10:55:07Z</time>
      </trkpt>
      <trkpt lat="59.803525" lon="17.6406568">
        <ele>23.209</ele>
        <time>2014-06-01T10:55:08Z</time>
      </trkpt>
      <trkpt lat="59.8035225" lon="17.6406198">
        <ele>23.209</ele>
        <time>2014-06-01T10:55:09Z</time>
      </trkpt>
      <trkpt lat="59.8035192" lon="17.6405703">
        <ele>22.7283</ele>
        <time>2014-06-01T10:55:10Z</time>
      </trkpt>
      <trkpt lat="59.8035191" lon="17.6405253">
        <ele>21.767</ele>
        <time>2014-06-01T10:55:11Z</time>
      </trkpt>
      <trkpt lat="59.8035151" lon="17.6404862">
        <ele>21.767</ele>
        <time>2014-06-01T10:55:12Z</time>
      </trkpt>
      <trkpt lat="59.8035064" lon="17.6404605">
        <ele>22.2476</ele>
        <time>2014-06-01T10:55:13Z</time>
      </trkpt>
      <trkpt lat="59.8034929" lon="17.6404397">
        <ele>22.2476</ele>
        <time>2014-06-01T10:55:14Z</time>
      </trkpt>
      <trkpt lat="59.8034802" lon="17.6404175">
        <ele>22.2476</ele>
        <time>2014-06-01T10:55:15Z</time>
      </trkpt>
      <trkpt lat="59.8034681" lon="17.640395">
        <ele>22.2476</ele>
        <time>2014-06-01T10:55:16Z</time>
      </trkpt>
      <trkpt lat="59.8034571" lon="17.6403796">
        <ele>22.2476</ele>
        <time>2014-06-01T10:55:17Z</time>
      </trkpt>
      <trkpt lat="59.8034499" lon="17.6403736">
        <ele>22.2476</ele>
        <time>2014-06-01T10:55:18Z</time>
      </trkpt>
      <trkpt lat="59.8034441" lon="17.6403719">
        <ele>22.2476</ele>
        <time>2014-06-01T10:55:19Z</time>
      </trkpt>
      <trkpt lat="59.8034372" lon="17.6403691">
        <ele>23.209</ele>
        <time>2014-06-01T10:55:20Z</time>
      </trkpt>
      <trkpt lat="59.8034316" lon="17.6403657">
        <ele>23.209</ele>
        <time>2014-06-01T10:55:21Z</time>
      </trkpt>
      <trkpt lat="59.8034271" lon="17.6403611">
        <ele>24.651</ele>
        <time>2014-06-01T10:55:22Z</time>
      </trkpt>
      <trkpt lat="59.8034193" lon="17.640356">
        <ele>24.651</ele>
        <time>2014-06-01T10:55:23Z</time>
      </trkpt>
      <trkpt lat="59.8034098" lon="17.6403502">
        <ele>24.651</ele>
        <time>2014-06-01T10:55:24Z</time>
      </trkpt>
      <trkpt lat="59.8034032" lon="17.6403439">
        <ele>26.0929</ele>
        <time>2014-06-01T10:55:25Z</time>
      </trkpt>
      <trkpt lat="59.8033908" lon="17.6403454">
        <ele>25.6123</ele>
        <time>2014-06-01T10:55:26Z</time>
      </trkpt>
      <trkpt lat="59.8033802" lon="17.6403467">
        <ele>25.6123</ele>
        <time>2014-06-01T10:55:27Z</time>
      </trkpt>
      <trkpt lat="59.8033675" lon="17.6403414">
        <ele>26.0929</ele>
        <time>2014-06-01T10:55:28Z</time>
      </trkpt>
      <trkpt lat="59.8033525" lon="17.6403357">
        <ele>26.5736</ele>
        <time>2014-06-01T10:55:29Z</time>
      </trkpt>
      <trkpt lat="59.8033339" lon="17.6403268">
        <ele>26.5736</ele>
        <time>2014-06-01T10:55:30Z</time>
      </trkpt>
      <trkpt lat="59.8033158" lon="17.6403159">
        <ele>26.5736</ele>
        <time>2014-06-01T10:55:31Z</time>
      </trkpt>
      <trkpt lat="59.8032949" lon="17.6403063">
        <ele>26.5736</ele>
        <time>2014-06-01T10:55:32Z</time>
      </trkpt>
      <trkpt lat="59.803264" lon="17.6403005">
        <ele>26.0929</ele>
        <time>2014-06-01T10:55:33Z</time>
      </trkpt>
      <trkpt lat="59.8032344" lon="17.6402932">
        <ele>26.0929</ele>
        <time>2014-06-01T10:55:34Z</time>
      </trkpt>
      <trkpt lat="59.8032042" lon="17.6402839">
        <ele>25.6123</ele>
        <time>2014-06-01T10:55:35Z</time>
      </trkpt>
      <trkpt lat="59.8031721" lon="17.6402782">
        <ele>25.6123</ele>
        <time>2014-06-01T10:55:36Z</time>
      </trkpt>
      <trkpt lat="59.8031445" lon="17.6402736">
        <ele>26.0929</ele>
        <time>2014-06-01T10:55:37Z</time>
      </trkpt>
      <trkpt lat="59.8031207" lon="17.6402704">
        <ele>27.0543</ele>
        <time>2014-06-01T10:55:38Z</time>
      </trkpt>
      <trkpt lat="59.8030852" lon="17.6402684">
        <ele>26.0929</ele>
        <time>2014-06-01T10:55:39Z</time>
      </trkpt>
      <trkpt lat="59.8030459" lon="17.6402601">
        <ele>26.0929</ele>
        <time>2014-06-01T10:55:40Z</time>
      </trkpt>
      <trkpt lat="59.803008" lon="17.6402367">
        <ele>26.0929</ele>
        <time>2014-06-01T10:55:41Z</time>
      </trkpt>
      <trkpt lat="59.8029665" lon="17.6402041">
        <ele>25.6123</ele>
        <time>2014-06-01T10:55:42Z</time>
      </trkpt>
      <trkpt lat="59.8029259" lon="17.6401697">
        <ele>25.6123</ele>
        <time>2014-06-01T10:55:43Z</time>
      </trkpt>
      <trkpt lat="59.8028835" lon="17.6401409">
        <ele>25.1317</ele>
        <time>2014-06-01T10:55:44Z</time>
      </trkpt>
      <trkpt lat="59.8028401" lon="17.640117">
        <ele>25.1317</ele>
        <time>2014-06-01T10:55:45Z</time>
      </trkpt>
      <trkpt lat="59.8027919" lon="17.6400875">
        <ele>24.651</ele>
        <time>2014-06-01T10:55:46Z</time>
      </trkpt>
      <trkpt lat="59.802746" lon="17.6400501">
        <ele>24.651</ele>
        <time>2014-06-01T10:55:47Z</time>
      </trkpt>
      <trkpt lat="59.8027027" lon="17.6399953">
        <ele>24.1703</ele>
        <time>2014-06-01T10:55:48Z</time>
      </trkpt>
      <trkpt lat="59.8026583" lon="17.6399273">
        <ele>24.1703</ele>
        <time>2014-06-01T10:55:49Z</time>
      </trkpt>
      <trkpt lat="59.8026185" lon="17.6398508">
        <ele>24.1703</ele>
        <time>2014-06-01T10:55:50Z</time>
      </trkpt>
      <trkpt lat="59.8025837" lon="17.6397802">
        <ele>23.6896</ele>
        <time>2014-06-01T10:55:51Z</time>
      </trkpt>
      <trkpt lat="59.8025495" lon="17.6397218">
        <ele>23.209</ele>
        <time>2014-06-01T10:55:52Z</time>
      </trkpt>
      <trkpt lat="59.8025179" lon="17.6396617">
        <ele>22.7283</ele>
        <time>2014-06-01T10:55:53Z</time>
      </trkpt>
      <trkpt lat="59.8024879" lon="17.6395912">
        <ele>22.2476</ele>
        <time>2014-06-01T10:55:54Z</time>
      </trkpt>
      <trkpt lat="59.802462" lon="17.6395141">
        <ele>22.2476</ele>
        <time>2014-06-01T10:55:55Z</time>
      </trkpt>
      <trkpt lat="59.8024351" lon="17.6394455">
        <ele>22.7283</ele>
        <time>2014-06-01T10:55:56Z</time>
      </trkpt>
      <trkpt lat="59.8024041" lon="17.6393805">
        <ele>22.7283</ele>
        <time>2014-06-01T10:55:57Z</time>
      </trkpt>
      <trkpt lat="59.8023831" lon="17.639313">
        <ele>22.7283</ele>
        <time>2014-06-01T10:55:58Z</time>
      </trkpt>
      <trkpt lat="59.8023716" lon="17.6392309">
        <ele>22.7283</ele>
        <time>2014-06-01T10:55:59Z</time>
      </trkpt>
      <trkpt lat="59.8023703" lon="17.6391411">
        <ele>22.7283</ele>
        <time>2014-06-01T10:56:00Z</time>
      </trkpt>
      <trkpt lat="59.802372" lon="17.6390552">
        <ele>22.7283</ele>
        <time>2014-06-01T10:56:01Z</time>
      </trkpt>
      <trkpt lat="59.8023667" lon="17.638981">
        <ele>22.7283</ele>
        <time>2014-06-01T10:56:02Z</time>
      </trkpt>
      <trkpt lat="59.8023485" lon="17.6389163">
        <ele>22.7283</ele>
        <time>2014-06-01T10:56:03Z</time>
      </trkpt>
      <trkpt lat="59.8023097" lon="17.6388486">
        <ele>22.7283</ele>
        <time>2014-06-01T10:56:04Z</time>
      </trkpt>
      <trkpt lat="59.8022668" lon="17.6387666">
        <ele>22.7283</ele>
        <time>2014-06-01T10:56:05Z</time>
      </trkpt>
      <trkpt lat="59.8022269" lon="17.6386795">
        <ele>22.2476</ele>
        <time>2014-06-01T10:56:06Z</time>
      </trkpt>
      <trkpt lat="59.8021978" lon="17.6386024">
        <ele>22.2476</ele>
        <time>2014-06-01T10:56:07Z</time>
      </trkpt>
      <trkpt lat="59.8021621" lon="17.6385328">
        <ele>21.2864</ele>
        <time>2014-06-01T10:56:08Z</time>
      </trkpt>
      <trkpt lat="59.802118" lon="17.6384574">
        <ele>20.8057</ele>
        <time>2014-06-01T10:56:09Z</time>
      </trkpt>
      <trkpt lat="59.8020563" lon="17.6383702">
        <ele>21.2864</ele>
        <time>2014-06-01T10:56:10Z</time>
      </trkpt>
      <trkpt lat="59.8019983" lon="17.6382873">
        <ele>21.2864</ele>
        <time>2014-06-01T10:56:11Z</time>
      </trkpt>
      <trkpt lat="59.8019496" lon="17.638204">
        <ele>21.2864</ele>
        <time>2014-06-01T10:56:12Z</time>
      </trkpt>
      <trkpt lat="59.8019101" lon="17.6381165">
        <ele>21.767</ele>
        <time>2014-06-01T10:56:13Z</time>
      </trkpt>
      <trkpt lat="59.8018808" lon="17.6380202">
        <ele>21.767</ele>
        <time>2014-06-01T10:56:14Z</time>
      </trkpt>
      <trkpt lat="59.8018513" lon="17.6379151">
        <ele>22.2476</ele>
        <time>2014-06-01T10:56:15Z</time>
      </trkpt>
      <trkpt lat="59.8018239" lon="17.6378134">
        <ele>22.7283</ele>
        <time>2014-06-01T10:56:16Z</time>
      </trkpt>
      <trkpt lat="59.8018047" lon="17.6377228">
        <ele>22.7283</ele>
        <time>2014-06-01T10:56:17Z</time>
      </trkpt>
      <trkpt lat="59.8017847" lon="17.6376384">
        <ele>24.1703</ele>
        <time>2014-06-01T10:56:18Z</time>
      </trkpt>
      <trkpt lat="59.801756" lon="17.6375565">
        <ele>24.651</ele>
        <time>2014-06-01T10:56:19Z</time>
      </trkpt>
      <trkpt lat="59.8017249" lon="17.6374691">
        <ele>25.1317</ele>
        <time>2014-06-01T10:56:20Z</time>
      </trkpt>
      <trkpt lat="59.8016994" lon="17.6373737">
        <ele>25.1317</ele>
        <time>2014-06-01T10:56:21Z</time>
      </trkpt>
      <trkpt lat="59.8016808" lon="17.6372738">
        <ele>25.1317</ele>
        <time>2014-06-01T10:56:22Z</time>
      </trkpt>
      <trkpt lat="59.8016626" lon="17.6371741">
        <ele>25.1317</ele>
        <time>2014-06-01T10:56:23Z</time>
      </trkpt>
      <trkpt lat="59.8016399" lon="17.6370763">
        <ele>25.6123</ele>
        <time>2014-06-01T10:56:24Z</time>
      </trkpt>
      <trkpt lat="59.8016119" lon="17.6369699">
        <ele>25.6123</ele>
        <time>2014-06-01T10:56:25Z</time>
      </trkpt>
      <trkpt lat="59.801588" lon="17.6368557">
        <ele>25.1317</ele>
        <time>2014-06-01T10:56:26Z</time>
      </trkpt>
      <trkpt lat="59.801556" lon="17.6367262">
        <ele>24.651</ele>
        <time>2014-06-01T10:56:27Z</time>
      </trkpt>
      <trkpt lat="59.8015302" lon="17.636606">
        <ele>25.1317</ele>
        <time>2014-06-01T10:56:28Z</time>
      </trkpt>
      <trkpt lat="59.8015078" lon="17.6364972">
        <ele>24.1703</ele>
        <time>2014-06-01T10:56:29Z</time>
      </trkpt>
      <trkpt lat="59.8014922" lon="17.6364002">
        <ele>23.6896</ele>
        <time>2014-06-01T10:56:30Z</time>
      </trkpt>
      <trkpt lat="59.8014719" lon="17.6362921">
        <ele>24.651</ele>
        <time>2014-06-01T10:56:31Z</time>
      </trkpt>
      <trkpt lat="59.801443" lon="17.6361772">
        <ele>25.1317</ele>
        <time>2014-06-01T10:56:32Z</time>
      </trkpt>
      <trkpt lat="59.8014042" lon="17.63606">
        <ele>25.6123</ele>
        <time>2014-06-01T10:56:33Z</time>
      </trkpt>
      <trkpt lat="59.8013679" lon="17.6359672">
        <ele>25.6123</ele>
        <time>2014-06-01T10:56:34Z</time>
      </trkpt>
      <trkpt lat="59.801308" lon="17.6358018">
        <ele>25.6123</ele>
        <time>2014-06-01T10:56:35Z</time>
      </trkpt>
      <trkpt lat="59.8012612" lon="17.6357045">
        <ele>26.0929</ele>
        <time>2014-06-01T10:56:36Z</time>
      </trkpt>
      <trkpt lat="59.8012317" lon="17.6356167">
        <ele>26.0929</ele>
        <time>2014-06-01T10:56:37Z</time>
      </trkpt>
      <trkpt lat="59.8012084" lon="17.6355244">
        <ele>26.0929</ele>
        <time>2014-06-01T10:56:38Z</time>
      </trkpt>
      <trkpt lat="59.8011839" lon="17.6354323">
        <ele>25.6123</ele>
        <time>2014-06-01T10:56:39Z</time>
      </trkpt>
      <trkpt lat="59.8011705" lon="17.6353291">
        <ele>25.6123</ele>
        <time>2014-06-01T10:56:40Z</time>
      </trkpt>
      <trkpt lat="59.8011597" lon="17.6352223">
        <ele>26.0929</ele>
        <time>2014-06-01T10:56:41Z</time>
      </trkpt>
      <trkpt lat="59.8011414" lon="17.6351125">
        <ele>26.5736</ele>
        <time>2014-06-01T10:56:42Z</time>
      </trkpt>
      <trkpt lat="59.8011251" lon="17.6350099">
        <ele>26.0929</ele>
        <time>2014-06-01T10:56:43Z</time>
      </trkpt>
      <trkpt lat="59.8011053" lon="17.6349059">
        <ele>26.5736</ele>
        <time>2014-06-01T10:56:44Z</time>
      </trkpt>
      <trkpt lat="59.8010907" lon="17.6348016">
        <ele>26.5736</ele>
        <time>2014-06-01T10:56:45Z</time>
      </trkpt>
      <trkpt lat="59.8010685" lon="17.6346997">
        <ele>26.0929</ele>
        <time>2014-06-01T10:56:46Z</time>
      </trkpt>
      <trkpt lat="59.8010533" lon="17.6345983">
        <ele>26.0929</ele>
        <time>2014-06-01T10:56:47Z</time>
      </trkpt>
      <trkpt lat="59.8010401" lon="17.6344897">
        <ele>25.1317</ele>
        <time>2014-06-01T10:56:48Z</time>
      </trkpt>
      <trkpt lat="59.8010461" lon="17.634377">
        <ele>25.1317</ele>
        <time>2014-06-01T10:56:49Z</time>
      </trkpt>
      <trkpt lat="59.801057" lon="17.6342551">
        <ele>25.6123</ele>
        <time>2014-06-01T10:56:50Z</time>
      </trkpt>
      <trkpt lat="59.8010642" lon="17.6341354">
        <ele>26.0929</ele>
        <time>2014-06-01T10:56:51Z</time>
      </trkpt>
      <trkpt lat="59.8010659" lon="17.634043">
        <ele>25.6123</ele>
        <time>2014-06-01T10:56:52Z</time>
      </trkpt>
      <trkpt lat="59.8010482" lon="17.6339677">
        <ele>25.6123</ele>
        <time>2014-06-01T10:56:53Z</time>
      </trkpt>
      <trkpt lat="59.801013" lon="17.6339056">
        <ele>25.6123</ele>
        <time>2014-06-01T10:56:54Z</time>
      </trkpt>
      <trkpt lat="59.8009687" lon="17.6338609">
        <ele>25.6123</ele>
        <time>2014-06-01T10:56:55Z</time>
      </trkpt>
      <trkpt lat="59.800923" lon="17.6337987">
        <ele>26.0929</ele>
        <time>2014-06-01T10:56:56Z</time>
      </trkpt>
      <trkpt lat="59.8008932" lon="17.6337284">
        <ele>26.0929</ele>
        <time>2014-06-01T10:56:57Z</time>
      </trkpt>
      <trkpt lat="59.8008753" lon="17.6336466">
        <ele>26.0929</ele>
        <time>2014-06-01T10:56:58Z</time>
      </trkpt>
      <trkpt lat="59.8008568" lon="17.6335736">
        <ele>26.0929</ele>
        <time>2014-06-01T10:56:59Z</time>
      </trkpt>
      <trkpt lat="59.8008246" lon="17.6335087">
        <ele>26.5736</ele>
        <time>2014-06-01T10:57:00Z</time>
      </trkpt>
      <trkpt lat="59.8007873" lon="17.6334679">
        <ele>27.0543</ele>
        <time>2014-06-01T10:57:01Z</time>
      </trkpt>
      <trkpt lat="59.8007438" lon="17.6334571">
        <ele>27.5349</ele>
        <time>2014-06-01T10:57:02Z</time>
      </trkpt>
      <trkpt lat="59.8006987" lon="17.6334683">
        <ele>27.0543</ele>
        <time>2014-06-01T10:57:03Z</time>
      </trkpt>
      <trkpt lat="59.80065" lon="17.6334863">
        <ele>27.5349</ele>
        <time>2014-06-01T10:57:04Z</time>
      </trkpt>
      <trkpt lat="59.8006054" lon="17.6335146">
        <ele>27.5349</ele>
        <time>2014-06-01T10:57:05Z</time>
      </trkpt>
      <trkpt lat="59.8005562" lon="17.633555">
        <ele>28.0155</ele>
        <time>2014-06-01T10:57:06Z</time>
      </trkpt>
      <trkpt lat="59.8005003" lon="17.6335961">
        <ele>28.0155</ele>
        <time>2014-06-01T10:57:07Z</time>
      </trkpt>
      <trkpt lat="59.8004514" lon="17.6336391">
        <ele>28.0155</ele>
        <time>2014-06-01T10:57:08Z</time>
      </trkpt>
      <trkpt lat="59.8004082" lon="17.6336917">
        <ele>28.4962</ele>
        <time>2014-06-01T10:57:09Z</time>
      </trkpt>
      <trkpt lat="59.8003672" lon="17.63376">
        <ele>28.4962</ele>
        <time>2014-06-01T10:57:10Z</time>
      </trkpt>
      <trkpt lat="59.8003375" lon="17.6338226">
        <ele>29.4575</ele>
        <time>2014-06-01T10:57:11Z</time>
      </trkpt>
      <trkpt lat="59.8003043" lon="17.6338817">
        <ele>28.9769</ele>
        <time>2014-06-01T10:57:12Z</time>
      </trkpt>
      <trkpt lat="59.8002708" lon="17.6339294">
        <ele>28.9769</ele>
        <time>2014-06-01T10:57:13Z</time>
      </trkpt>
      <trkpt lat="59.8002403" lon="17.6339673">
        <ele>28.9769</ele>
        <time>2014-06-01T10:57:14Z</time>
      </trkpt>
      <trkpt lat="59.8002079" lon="17.6339973">
        <ele>29.4575</ele>
        <time>2014-06-01T10:57:15Z</time>
      </trkpt>
      <trkpt lat="59.8001744" lon="17.634015">
        <ele>29.4575</ele>
        <time>2014-06-01T10:57:16Z</time>
      </trkpt>
      <trkpt lat="59.8001325" lon="17.6340429">
        <ele>28.9769</ele>
        <time>2014-06-01T10:57:17Z</time>
      </trkpt>
      <trkpt lat="59.8000424" lon="17.6341046">
        <ele>29.9381</ele>
        <time>2014-06-01T10:57:18Z</time>
      </trkpt>
      <trkpt lat="59.8000034" lon="17.634146">
        <ele>29.9381</ele>
        <time>2014-06-01T10:57:19Z</time>
      </trkpt>
      <trkpt lat="59.7999723" lon="17.6342004">
        <ele>30.4188</ele>
        <time>2014-06-01T10:57:20Z</time>
      </trkpt>
      <trkpt lat="59.7999451" lon="17.6342682">
        <ele>30.8995</ele>
        <time>2014-06-01T10:57:21Z</time>
      </trkpt>
      <trkpt lat="59.7999165" lon="17.6343485">
        <ele>30.8995</ele>
        <time>2014-06-01T10:57:22Z</time>
      </trkpt>
      <trkpt lat="59.7998807" lon="17.6344283">
        <ele>30.8995</ele>
        <time>2014-06-01T10:57:23Z</time>
      </trkpt>
      <trkpt lat="59.7998425" lon="17.634491">
        <ele>31.3801</ele>
        <time>2014-06-01T10:57:24Z</time>
      </trkpt>
      <trkpt lat="59.7998055" lon="17.6345317">
        <ele>31.3801</ele>
        <time>2014-06-01T10:57:25Z</time>
      </trkpt>
      <trkpt lat="59.7997677" lon="17.6345572">
        <ele>30.8995</ele>
        <time>2014-06-01T10:57:26Z</time>
      </trkpt>
      <trkpt lat="59.7997278" lon="17.6345681">
        <ele>30.8995</ele>
        <time>2014-06-01T10:57:27Z</time>
      </trkpt>
      <trkpt lat="59.7996896" lon="17.6345603">
        <ele>30.8995</ele>
        <time>2014-06-01T10:57:28Z</time>
      </trkpt>
      <trkpt lat="59.7996487" lon="17.6345158">
        <ele>30.8995</ele>
        <time>2014-06-01T10:57:29Z</time>
      </trkpt>
      <trkpt lat="59.7996221" lon="17.6344659">
        <ele>29.9381</ele>
        <time>2014-06-01T10:57:30Z</time>
      </trkpt>
      <trkpt lat="59.7996151" lon="17.6344046">
        <ele>29.4575</ele>
        <time>2014-06-01T10:57:31Z</time>
      </trkpt>
      <trkpt lat="59.799603" lon="17.6343126">
        <ele>28.9769</ele>
        <time>2014-06-01T10:57:32Z</time>
      </trkpt>
      <trkpt lat="59.799592" lon="17.6342098">
        <ele>28.4962</ele>
        <time>2014-06-01T10:57:33Z</time>
      </trkpt>
      <trkpt lat="59.7995853" lon="17.6341">
        <ele>28.0155</ele>
        <time>2014-06-01T10:57:34Z</time>
      </trkpt>
      <trkpt lat="59.7995789" lon="17.6339896">
        <ele>27.5349</ele>
        <time>2014-06-01T10:57:35Z</time>
      </trkpt>
      <trkpt lat="59.7995786" lon="17.6338909">
        <ele>27.0543</ele>
        <time>2014-06-01T10:57:36Z</time>
      </trkpt>
      <trkpt lat="59.7995801" lon="17.6338067">
        <ele>26.5736</ele>
        <time>2014-06-01T10:57:37Z</time>
      </trkpt>
      <trkpt lat="59.799571" lon="17.6337274">
        <ele>25.6123</ele>
        <time>2014-06-01T10:57:38Z</time>
      </trkpt>
      <trkpt lat="59.7995508" lon="17.6336568">
        <ele>24.651</ele>
        <time>2014-06-01T10:57:39Z</time>
      </trkpt>
      <trkpt lat="59.7995193" lon="17.6335848">
        <ele>22.7283</ele>
        <time>2014-06-01T10:57:40Z</time>
      </trkpt>
      <trkpt lat="59.799485" lon="17.6335198">
        <ele>20.8057</ele>
        <time>2014-06-01T10:57:41Z</time>
      </trkpt>
      <trkpt lat="59.7994518" lon="17.6334497">
        <ele>18.4023</ele>
        <time>2014-06-01T10:57:42Z</time>
      </trkpt>
      <trkpt lat="59.799415" lon="17.6333725">
        <ele>16.4797</ele>
        <time>2014-06-01T10:57:43Z</time>
      </trkpt>
      <trkpt lat="59.7993841" lon="17.6333042">
        <ele>15.0377</ele>
        <time>2014-06-01T10:57:44Z</time>
      </trkpt>
      <trkpt lat="59.7993508" lon="17.6332265">
        <ele>14.0764</ele>
        <time>2014-06-01T10:57:45Z</time>
      </trkpt>
      <trkpt lat="59.7993193" lon="17.6331453">
        <ele>14.0764</ele>
        <time>2014-06-01T10:57:46Z</time>
      </trkpt>
      <trkpt lat="59.7992891" lon="17.6330581">
        <ele>12.6344</ele>
        <time>2014-06-01T10:57:47Z</time>
      </trkpt>
      <trkpt lat="59.7992616" lon="17.6329728">
        <ele>12.6344</ele>
        <time>2014-06-01T10:57:48Z</time>
      </trkpt>
      <trkpt lat="59.799227" lon="17.6328862">
        <ele>12.6344</ele>
        <time>2014-06-01T10:57:49Z</time>
      </trkpt>
      <trkpt lat="59.7991918" lon="17.6328018">
        <ele>12.1538</ele>
        <time>2014-06-01T10:57:50Z</time>
      </trkpt>
      <trkpt lat="59.7991605" lon="17.6327281">
        <ele>12.6344</ele>
        <time>2014-06-01T10:57:51Z</time>
      </trkpt>
      <trkpt lat="59.799138" lon="17.6326396">
        <ele>12.6344</ele>
        <time>2014-06-01T10:57:52Z</time>
      </trkpt>
      <trkpt lat="59.7991171" lon="17.6325566">
        <ele>13.1151</ele>
        <time>2014-06-01T10:57:53Z</time>
      </trkpt>
      <trkpt lat="59.7990903" lon="17.6324921">
        <ele>13.5958</ele>
        <time>2014-06-01T10:57:54Z</time>
      </trkpt>
      <trkpt lat="59.7990634" lon="17.6324214">
        <ele>14.0764</ele>
        <time>2014-06-01T10:57:55Z</time>
      </trkpt>
      <trkpt lat="59.7990379" lon="17.6323543">
        <ele>14.557</ele>
        <time>2014-06-01T10:57:56Z</time>
      </trkpt>
      <trkpt lat="59.7990032" lon="17.6323011">
        <ele>15.5184</ele>
        <time>2014-06-01T10:57:57Z</time>
      </trkpt>
      <trkpt lat="59.7989701" lon="17.6322441">
        <ele>16.4797</ele>
        <time>2014-06-01T10:57:58Z</time>
      </trkpt>
      <trkpt lat="59.7989384" lon="17.6321696">
        <ele>16.9604</ele>
        <time>2014-06-01T10:57:59Z</time>
      </trkpt>
      <trkpt lat="59.79891" lon="17.632083">
        <ele>16.9604</ele>
        <time>2014-06-01T10:58:00Z</time>
      </trkpt>
      <trkpt lat="59.7988818" lon="17.6319999">
        <ele>16.9604</ele>
        <time>2014-06-01T10:58:01Z</time>
      </trkpt>
      <trkpt lat="59.7988432" lon="17.6319253">
        <ele>16.9604</ele>
        <time>2014-06-01T10:58:02Z</time>
      </trkpt>
      <trkpt lat="59.7988027" lon="17.6318644">
        <ele>17.9218</ele>
        <time>2014-06-01T10:58:03Z</time>
      </trkpt>
      <trkpt lat="59.7987598" lon="17.6318209">
        <ele>18.4023</ele>
        <time>2014-06-01T10:58:04Z</time>
      </trkpt>
      <trkpt lat="59.798722" lon="17.6317845">
        <ele>18.4023</ele>
        <time>2014-06-01T10:58:05Z</time>
      </trkpt>
      <trkpt lat="59.7986872" lon="17.6317433">
        <ele>18.8831</ele>
        <time>2014-06-01T10:58:06Z</time>
      </trkpt>
      <trkpt lat="59.7986598" lon="17.6317004">
        <ele>18.8831</ele>
        <time>2014-06-01T10:58:07Z</time>
      </trkpt>
      <trkpt lat="59.7986344" lon="17.631659">
        <ele>19.3638</ele>
        <time>2014-06-01T10:58:08Z</time>
      </trkpt>
      <trkpt lat="59.798611" lon="17.6316262">
        <ele>19.8444</ele>
        <time>2014-06-01T10:58:09Z</time>
      </trkpt>
      <trkpt lat="59.7985909" lon="17.6315937">
        <ele>20.325</ele>
        <time>2014-06-01T10:58:10Z</time>
      </trkpt>
      <trkpt lat="59.7985713" lon="17.6315469">
        <ele>20.8057</ele>
        <time>2014-06-01T10:58:11Z</time>
      </trkpt>
      <trkpt lat="59.7985581" lon="17.631488">
        <ele>20.8057</ele>
        <time>2014-06-01T10:58:12Z</time>
      </trkpt>
      <trkpt lat="59.7985544" lon="17.6314311">
        <ele>20.325</ele>
        <time>2014-06-01T10:58:13Z</time>
      </trkpt>
      <trkpt lat="59.7985489" lon="17.6313781">
        <ele>20.325</ele>
        <time>2014-06-01T10:58:14Z</time>
      </trkpt>
      <trkpt lat="59.7985368" lon="17.6313258">
        <ele>19.8444</ele>
        <time>2014-06-01T10:58:15Z</time>
      </trkpt>
      <trkpt lat="59.7985216" lon="17.6312703">
        <ele>20.325</ele>
        <time>2014-06-01T10:58:16Z</time>
      </trkpt>
      <trkpt lat="59.7984997" lon="17.631209">
        <ele>20.8057</ele>
        <time>2014-06-01T10:58:17Z</time>
      </trkpt>
      <trkpt lat="59.7984712" lon="17.6311503">
        <ele>21.2864</ele>
        <time>2014-06-01T10:58:18Z</time>
      </trkpt>
      <trkpt lat="59.7984422" lon="17.6310861">
        <ele>21.767</ele>
        <time>2014-06-01T10:58:19Z</time>
      </trkpt>
      <trkpt lat="59.7984147" lon="17.631009">
        <ele>22.2476</ele>
        <time>2014-06-01T10:58:20Z</time>
      </trkpt>
      <trkpt lat="59.7983913" lon="17.630926">
        <ele>23.209</ele>
        <time>2014-06-01T10:58:21Z</time>
      </trkpt>
      <trkpt lat="59.7983708" lon="17.6308442">
        <ele>23.6896</ele>
        <time>2014-06-01T10:58:22Z</time>
      </trkpt>
      <trkpt lat="59.7983577" lon="17.63077">
        <ele>23.6896</ele>
        <time>2014-06-01T10:58:23Z</time>
      </trkpt>
      <trkpt lat="59.7983459" lon="17.6307178">
        <ele>23.6896</ele>
        <time>2014-06-01T10:58:24Z</time>
      </trkpt>
      <trkpt lat="59.7983434" lon="17.630688">
        <ele>23.6896</ele>
        <time>2014-06-01T10:58:25Z</time>
      </trkpt>
      <trkpt lat="59.7983433" lon="17.6306484">
        <ele>23.6896</ele>
        <time>2014-06-01T10:58:26Z</time>
      </trkpt>
      <trkpt lat="59.7983441" lon="17.6306189">
        <ele>24.1703</ele>
        <time>2014-06-01T10:58:27Z</time>
      </trkpt>
      <trkpt lat="59.7983496" lon="17.6305997">
        <ele>24.1703</ele>
        <time>2014-06-01T10:58:28Z</time>
      </trkpt>
      <trkpt lat="59.7983536" lon="17.6305728">
        <ele>25.1317</ele>
        <time>2014-06-01T10:58:29Z</time>
      </trkpt>
      <trkpt lat="59.7983625" lon="17.630535">
        <ele>27.0543</ele>
        <time>2014-06-01T10:58:30Z</time>
      </trkpt>
      <trkpt lat="59.7983674" lon="17.6304933">
        <ele>27.0543</ele>
        <time>2014-06-01T10:58:31Z</time>
      </trkpt>
      <trkpt lat="59.7983762" lon="17.630452">
        <ele>27.5349</ele>
        <time>2014-06-01T10:58:32Z</time>
      </trkpt>
      <trkpt lat="59.7983894" lon="17.6304028">
        <ele>27.5349</ele>
        <time>2014-06-01T10:58:33Z</time>
      </trkpt>
      <trkpt lat="59.7984011" lon="17.6303526">
        <ele>28.0155</ele>
        <time>2014-06-01T10:58:34Z</time>
      </trkpt>
      <trkpt lat="59.7984068" lon="17.6303085">
        <ele>28.0155</ele>
        <time>2014-06-01T10:58:35Z</time>
      </trkpt>
      <trkpt lat="59.7984116" lon="17.6302604">
        <ele>28.4962</ele>
        <time>2014-06-01T10:58:36Z</time>
      </trkpt>
      <trkpt lat="59.7984241" lon="17.6302043">
        <ele>28.9769</ele>
        <time>2014-06-01T10:58:37Z</time>
      </trkpt>
      <trkpt lat="59.7984432" lon="17.6301301">
        <ele>28.9769</ele>
        <time>2014-06-01T10:58:38Z</time>
      </trkpt>
      <trkpt lat="59.7984568" lon="17.6300507">
        <ele>29.9381</ele>
        <time>2014-06-01T10:58:39Z</time>
      </trkpt>
      <trkpt lat="59.7984672" lon="17.6299775">
        <ele>29.9381</ele>
        <time>2014-06-01T10:58:40Z</time>
      </trkpt>
      <trkpt lat="59.7984772" lon="17.6299127">
        <ele>29.9381</ele>
        <time>2014-06-01T10:58:41Z</time>
      </trkpt>
      <trkpt lat="59.798482" lon="17.6298563">
        <ele>30.4188</ele>
        <time>2014-06-01T10:58:42Z</time>
      </trkpt>
      <trkpt lat="59.7984734" lon="17.6297962">
        <ele>29.9381</ele>
        <time>2014-06-01T10:58:43Z</time>
      </trkpt>
      <trkpt lat="59.7984541" lon="17.6297373">
        <ele>29.4575</ele>
        <time>2014-06-01T10:58:44Z</time>
      </trkpt>
      <trkpt lat="59.7984364" lon="17.6296692">
        <ele>28.0155</ele>
        <time>2014-06-01T10:58:45Z</time>
      </trkpt>
      <trkpt lat="59.798425" lon="17.6295864">
        <ele>27.0543</ele>
        <time>2014-06-01T10:58:46Z</time>
      </trkpt>
      <trkpt lat="59.7984094" lon="17.629487">
        <ele>25.1317</ele>
        <time>2014-06-01T10:58:47Z</time>
      </trkpt>
      <trkpt lat="59.7983919" lon="17.6293928">
        <ele>23.209</ele>
        <time>2014-06-01T10:58:48Z</time>
      </trkpt>
      <trkpt lat="59.7983744" lon="17.6293032">
        <ele>22.7283</ele>
        <time>2014-06-01T10:58:49Z</time>
      </trkpt>
      <trkpt lat="59.7983567" lon="17.6292285">
        <ele>22.2476</ele>
        <time>2014-06-01T10:58:50Z</time>
      </trkpt>
      <trkpt lat="59.7983398" lon="17.6291487">
        <ele>22.2476</ele>
        <time>2014-06-01T10:58:51Z</time>
      </trkpt>
      <trkpt lat="59.7983239" lon="17.6290673">
        <ele>22.2476</ele>
        <time>2014-06-01T10:58:52Z</time>
      </trkpt>
      <trkpt lat="59.7983027" lon="17.6289755">
        <ele>22.7283</ele>
        <time>2014-06-01T10:58:53Z</time>
      </trkpt>
      <trkpt lat="59.7982806" lon="17.6288793">
        <ele>22.7283</ele>
        <time>2014-06-01T10:58:54Z</time>
      </trkpt>
      <trkpt lat="59.7982594" lon="17.6287818">
        <ele>23.209</ele>
        <time>2014-06-01T10:58:55Z</time>
      </trkpt>
      <trkpt lat="59.79824" lon="17.6286871">
        <ele>23.6896</ele>
        <time>2014-06-01T10:58:56Z</time>
      </trkpt>
      <trkpt lat="59.7982226" lon="17.6286038">
        <ele>23.6896</ele>
        <time>2014-06-01T10:58:57Z</time>
      </trkpt>
      <trkpt lat="59.7982082" lon="17.628531">
        <ele>24.1703</ele>
        <time>2014-06-01T10:58:58Z</time>
      </trkpt>
      <trkpt lat="59.7981967" lon="17.6284661">
        <ele>24.651</ele>
        <time>2014-06-01T10:58:59Z</time>
      </trkpt>
      <trkpt lat="59.7981801" lon="17.6284115">
        <ele>24.651</ele>
        <time>2014-06-01T10:59:00Z</time>
      </trkpt>
      <trkpt lat="59.7981584" lon="17.6283799">
        <ele>24.651</ele>
        <time>2014-06-01T10:59:01Z</time>
      </trkpt>
      <trkpt lat="59.7981328" lon="17.6283816">
        <ele>25.6123</ele>
        <time>2014-06-01T10:59:02Z</time>
      </trkpt>
      <trkpt lat="59.7981117" lon="17.628409">
        <ele>25.6123</ele>
        <time>2014-06-01T10:59:03Z</time>
      </trkpt>
      <trkpt lat="59.7980962" lon="17.6284535">
        <ele>26.5736</ele>
        <time>2014-06-01T10:59:04Z</time>
      </trkpt>
      <trkpt lat="59.7980825" lon="17.6285083">
        <ele>27.0543</ele>
        <time>2014-06-01T10:59:05Z</time>
      </trkpt>
      <trkpt lat="59.7980646" lon="17.6285642">
        <ele>27.0543</ele>
        <time>2014-06-01T10:59:06Z</time>
      </trkpt>
      <trkpt lat="59.7980437" lon="17.6286209">
        <ele>27.5349</ele>
        <time>2014-06-01T10:59:07Z</time>
      </trkpt>
      <trkpt lat="59.7980221" lon="17.6286852">
        <ele>27.5349</ele>
        <time>2014-06-01T10:59:08Z</time>
      </trkpt>
      <trkpt lat="59.7979916" lon="17.628742">
        <ele>27.0543</ele>
        <time>2014-06-01T10:59:09Z</time>
      </trkpt>
      <trkpt lat="59.7979543" lon="17.6287864">
        <ele>27.0543</ele>
        <time>2014-06-01T10:59:10Z</time>
      </trkpt>
      <trkpt lat="59.7979137" lon="17.6288302">
        <ele>27.0543</ele>
        <time>2014-06-01T10:59:11Z</time>
      </trkpt>
      <trkpt lat="59.7978709" lon="17.6288767">
        <ele>27.0543</ele>
        <time>2014-06-01T10:59:12Z</time>
      </trkpt>
      <trkpt lat="59.7978279" lon="17.628927">
        <ele>27.0543</ele>
        <time>2014-06-01T10:59:13Z</time>
      </trkpt>
      <trkpt lat="59.7977841" lon="17.6289772">
        <ele>27.0543</ele>
        <time>2014-06-01T10:59:14Z</time>
      </trkpt>
      <trkpt lat="59.7977388" lon="17.6290291">
        <ele>26.5736</ele>
        <time>2014-06-01T10:59:15Z</time>
      </trkpt>
      <trkpt lat="59.7976922" lon="17.6290843">
        <ele>26.5736</ele>
        <time>2014-06-01T10:59:16Z</time>
      </trkpt>
      <trkpt lat="59.7976454" lon="17.629138">
        <ele>26.5736</ele>
        <time>2014-06-01T10:59:17Z</time>
      </trkpt>
      <trkpt lat="59.797598" lon="17.6291923">
        <ele>27.0543</ele>
        <time>2014-06-01T10:59:18Z</time>
      </trkpt>
      <trkpt lat="59.7975506" lon="17.6292477">
        <ele>27.0543</ele>
        <time>2014-06-01T10:59:19Z</time>
      </trkpt>
      <trkpt lat="59.7975024" lon="17.6293039">
        <ele>27.0543</ele>
        <time>2014-06-01T10:59:20Z</time>
      </trkpt>
      <trkpt lat="59.7974539" lon="17.6293611">
        <ele>27.5349</ele>
        <time>2014-06-01T10:59:21Z</time>
      </trkpt>
      <trkpt lat="59.7974055" lon="17.6294172">
        <ele>27.5349</ele>
        <time>2014-06-01T10:59:22Z</time>
      </trkpt>
      <trkpt lat="59.7973568" lon="17.6294713">
        <ele>27.5349</ele>
        <time>2014-06-01T10:59:23Z</time>
      </trkpt>
      <trkpt lat="59.7973083" lon="17.6295246">
        <ele>27.5349</ele>
        <time>2014-06-01T10:59:24Z</time>
      </trkpt>
      <trkpt lat="59.7972613" lon="17.6295826">
        <ele>27.5349</ele>
        <time>2014-06-01T10:59:25Z</time>
      </trkpt>
      <trkpt lat="59.7972176" lon="17.6296461">
        <ele>27.5349</ele>
        <time>2014-06-01T10:59:26Z</time>
      </trkpt>
      <trkpt lat="59.7971735" lon="17.6297061">
        <ele>28.0155</ele>
        <time>2014-06-01T10:59:27Z</time>
      </trkpt>
      <trkpt lat="59.797128" lon="17.6297619">
        <ele>28.0155</ele>
        <time>2014-06-01T10:59:28Z</time>
      </trkpt>
      <trkpt lat="59.7970799" lon="17.6298168">
        <ele>28.0155</ele>
        <time>2014-06-01T10:59:29Z</time>
      </trkpt>
      <trkpt lat="59.7970312" lon="17.6298729">
        <ele>28.4962</ele>
        <time>2014-06-01T10:59:30Z</time>
      </trkpt>
      <trkpt lat="59.7969809" lon="17.6299302">
        <ele>28.0155</ele>
        <time>2014-06-01T10:59:31Z</time>
      </trkpt>
      <trkpt lat="59.7969312" lon="17.6299877">
        <ele>28.0155</ele>
        <time>2014-06-01T10:59:32Z</time>
      </trkpt>
      <trkpt lat="59.7968819" lon="17.6300463">
        <ele>27.5349</ele>
        <time>2014-06-01T10:59:33Z</time>
      </trkpt>
      <trkpt lat="59.7968323" lon="17.630106">
        <ele>27.5349</ele>
        <time>2014-06-01T10:59:34Z</time>
      </trkpt>
      <trkpt lat="59.796783" lon="17.6301657">
        <ele>27.5349</ele>
        <time>2014-06-01T10:59:35Z</time>
      </trkpt>
      <trkpt lat="59.7967349" lon="17.6302267">
        <ele>27.0543</ele>
        <time>2014-06-01T10:59:36Z</time>
      </trkpt>
      <trkpt lat="59.7966876" lon="17.6302897">
        <ele>27.0543</ele>
        <time>2014-06-01T10:59:37Z</time>
      </trkpt>
      <trkpt lat="59.7966394" lon="17.6303548">
        <ele>26.5736</ele>
        <time>2014-06-01T10:59:38Z</time>
      </trkpt>
      <trkpt lat="59.7965909" lon="17.630421">
        <ele>26.5736</ele>
        <time>2014-06-01T10:59:39Z</time>
      </trkpt>
      <trkpt lat="59.7965428" lon="17.6304862">
        <ele>26.5736</ele>
        <time>2014-06-01T10:59:40Z</time>
      </trkpt>
      <trkpt lat="59.7964957" lon="17.6305505">
        <ele>26.5736</ele>
        <time>2014-06-01T10:59:41Z</time>
      </trkpt>
      <trkpt lat="59.7964495" lon="17.6306141">
        <ele>26.5736</ele>
        <time>2014-06-01T10:59:42Z</time>
      </trkpt>
      <trkpt lat="59.7964042" lon="17.6306762">
        <ele>26.5736</ele>
        <time>2014-06-01T10:59:43Z</time>
      </trkpt>
      <trkpt lat="59.7963597" lon="17.6307367">
        <ele>27.0543</ele>
        <time>2014-06-01T10:59:44Z</time>
      </trkpt>
      <trkpt lat="59.7963156" lon="17.6307955">
        <ele>27.0543</ele>
        <time>2014-06-01T10:59:45Z</time>
      </trkpt>
      <trkpt lat="59.7962717" lon="17.6308518">
        <ele>27.0543</ele>
        <time>2014-06-01T10:59:46Z</time>
      </trkpt>
      <trkpt lat="59.7962292" lon="17.6309074">
        <ele>27.5349</ele>
        <time>2014-06-01T10:59:47Z</time>
      </trkpt>
      <trkpt lat="59.7961858" lon="17.6309618">
        <ele>27.5349</ele>
        <time>2014-06-01T10:59:48Z</time>
      </trkpt>
      <trkpt lat="59.796141" lon="17.6310102">
        <ele>27.5349</ele>
        <time>2014-06-01T10:59:49Z</time>
      </trkpt>
      <trkpt lat="59.7960925" lon="17.6310426">
        <ele>28.0155</ele>
        <time>2014-06-01T10:59:50Z</time>
      </trkpt>
      <trkpt lat="59.7960416" lon="17.6310639">
        <ele>28.0155</ele>
        <time>2014-06-01T10:59:51Z</time>
      </trkpt>
      <trkpt lat="59.7959893" lon="17.6310841">
        <ele>28.4962</ele>
        <time>2014-06-01T10:59:52Z</time>
      </trkpt>
      <trkpt lat="59.7959371" lon="17.6311048">
        <ele>28.4962</ele>
        <time>2014-06-01T10:59:53Z</time>
      </trkpt>
      <trkpt lat="59.7958854" lon="17.6311278">
        <ele>28.9769</ele>
        <time>2014-06-01T10:59:54Z</time>
      </trkpt>
      <trkpt lat="59.7958344" lon="17.6311541">
        <ele>28.9769</ele>
        <time>2014-06-01T10:59:55Z</time>
      </trkpt>
      <trkpt lat="59.7957844" lon="17.6311855">
        <ele>29.4575</ele>
        <time>2014-06-01T10:59:56Z</time>
      </trkpt>
      <trkpt lat="59.7957356" lon="17.6312182">
        <ele>29.9381</ele>
        <time>2014-06-01T10:59:57Z</time>
      </trkpt>
      <trkpt lat="59.7956875" lon="17.631249">
        <ele>29.9381</ele>
        <time>2014-06-01T10:59:58Z</time>
      </trkpt>
      <trkpt lat="59.7956397" lon="17.6312767">
        <ele>30.4188</ele>
        <time>2014-06-01T10:59:59Z</time>
      </trkpt>
      <trkpt lat="59.7955926" lon="17.6312993">
        <ele>30.4188</ele>
        <time>2014-06-01T11:00:00Z</time>
      </trkpt>
      <trkpt lat="59.7955429" lon="17.6313034">
        <ele>30.4188</ele>
        <time>2014-06-01T11:00:01Z</time>
      </trkpt>
      <trkpt lat="59.7955006" lon="17.6312801">
        <ele>29.9381</ele>
        <time>2014-06-01T11:00:02Z</time>
      </trkpt>
      <trkpt lat="59.7954751" lon="17.6312343">
        <ele>29.9381</ele>
        <time>2014-06-01T11:00:03Z</time>
      </trkpt>
      <trkpt lat="59.7954585" lon="17.63119">
        <ele>29.9381</ele>
        <time>2014-06-01T11:00:04Z</time>
      </trkpt>
      <trkpt lat="59.7954399" lon="17.631154">
        <ele>29.9381</ele>
        <time>2014-06-01T11:00:05Z</time>
      </trkpt>
      <trkpt lat="59.7954279" lon="17.6311228">
        <ele>30.4188</ele>
        <time>2014-06-01T11:00:06Z</time>
      </trkpt>
      <trkpt lat="59.7954145" lon="17.6311089">
        <ele>30.8995</ele>
        <time>2014-06-01T11:00:07Z</time>
      </trkpt>
      <trkpt lat="59.7954015" lon="17.6311">
        <ele>31.3801</ele>
        <time>2014-06-01T11:00:08Z</time>
      </trkpt>
      <trkpt lat="59.7953973" lon="17.6310892">
        <ele>31.8607</ele>
        <time>2014-06-01T11:00:09Z</time>
      </trkpt>
      <trkpt lat="59.7953948" lon="17.631084">
        <ele>32.3416</ele>
        <time>2014-06-01T11:00:10Z</time>
      </trkpt>
      <trkpt lat="59.7953922" lon="17.6310828">
        <ele>32.3416</ele>
        <time>2014-06-01T11:00:11Z</time>
      </trkpt>
      <trkpt lat="59.795341" lon="17.6311063">
        <ele>34.7449</ele>
        <time>2014-06-01T11:00:17Z</time>
      </trkpt>
      <trkpt lat="59.7953316" lon="17.6311155">
        <ele>34.7449</ele>
        <time>2014-06-01T11:00:18Z</time>
      </trkpt>
      <trkpt lat="59.7953212" lon="17.6311243">
        <ele>35.2255</ele>
        <time>2014-06-01T11:00:19Z</time>
      </trkpt>
      <trkpt lat="59.7953041" lon="17.631137">
        <ele>35.2255</ele>
        <time>2014-06-01T11:00:20Z</time>
      </trkpt>
      <trkpt lat="59.7952823" lon="17.6311559">
        <ele>35.2255</ele>
        <time>2014-06-01T11:00:21Z</time>
      </trkpt>
      <trkpt lat="59.7952487" lon="17.6311855">
        <ele>34.7449</ele>
        <time>2014-06-01T11:00:22Z</time>
      </trkpt>
      <trkpt lat="59.7952187" lon="17.63121">
        <ele>33.7834</ele>
        <time>2014-06-01T11:00:23Z</time>
      </trkpt>
      <trkpt lat="59.7951858" lon="17.6312348">
        <ele>32.8223</ele>
        <time>2014-06-01T11:00:24Z</time>
      </trkpt>
      <trkpt lat="59.7951504" lon="17.6312561">
        <ele>31.3801</ele>
        <time>2014-06-01T11:00:25Z</time>
      </trkpt>
      <trkpt lat="59.7951164" lon="17.6312879">
        <ele>30.8995</ele>
        <time>2014-06-01T11:00:26Z</time>
      </trkpt>
      <trkpt lat="59.7950843" lon="17.6313238">
        <ele>30.4188</ele>
        <time>2014-06-01T11:00:27Z</time>
      </trkpt>
      <trkpt lat="59.7950493" lon="17.6313519">
        <ele>29.9381</ele>
        <time>2014-06-01T11:00:28Z</time>
      </trkpt>
      <trkpt lat="59.7950135" lon="17.6313714">
        <ele>29.4575</ele>
        <time>2014-06-01T11:00:29Z</time>
      </trkpt>
      <trkpt lat="59.7949804" lon="17.6313916">
        <ele>29.4575</ele>
        <time>2014-06-01T11:00:30Z</time>
      </trkpt>
      <trkpt lat="59.7949544" lon="17.631413">
        <ele>28.9769</ele>
        <time>2014-06-01T11:00:31Z</time>
      </trkpt>
      <trkpt lat="59.7949296" lon="17.6314384">
        <ele>28.9769</ele>
        <time>2014-06-01T11:00:32Z</time>
      </trkpt>
      <trkpt lat="59.7949074" lon="17.6314581">
        <ele>29.4575</ele>
        <time>2014-06-01T11:00:33Z</time>
      </trkpt>
      <trkpt lat="59.794885" lon="17.6314749">
        <ele>29.4575</ele>
        <time>2014-06-01T11:00:34Z</time>
      </trkpt>
      <trkpt lat="59.7948554" lon="17.6314913">
        <ele>29.4575</ele>
        <time>2014-06-01T11:00:35Z</time>
      </trkpt>
      <trkpt lat="59.7948256" lon="17.6315036">
        <ele>29.4575</ele>
        <time>2014-06-01T11:00:36Z</time>
      </trkpt>
      <trkpt lat="59.7947949" lon="17.6315118">
        <ele>29.4575</ele>
        <time>2014-06-01T11:00:37Z</time>
      </trkpt>
      <trkpt lat="59.7947678" lon="17.6315163">
        <ele>29.4575</ele>
        <time>2014-06-01T11:00:38Z</time>
      </trkpt>
      <trkpt lat="59.7947411" lon="17.6315253">
        <ele>29.4575</ele>
        <time>2014-06-01T11:00:39Z</time>
      </trkpt>
      <trkpt lat="59.7947151" lon="17.6315268">
        <ele>29.4575</ele>
        <time>2014-06-01T11:00:40Z</time>
      </trkpt>
      <trkpt lat="59.794683" lon="17.6315228">
        <ele>29.4575</ele>
        <time>2014-06-01T11:00:41Z</time>
      </trkpt>
      <trkpt lat="59.794651" lon="17.6315194">
        <ele>28.9769</ele>
        <time>2014-06-01T11:00:42Z</time>
      </trkpt>
      <trkpt lat="59.7946198" lon="17.631516">
        <ele>28.4962</ele>
        <time>2014-06-01T11:00:43Z</time>
      </trkpt>
      <trkpt lat="59.7945911" lon="17.6315096">
        <ele>28.4962</ele>
        <time>2014-06-01T11:00:44Z</time>
      </trkpt>
      <trkpt lat="59.7945617" lon="17.6315165">
        <ele>29.4575</ele>
        <time>2014-06-01T11:00:45Z</time>
      </trkpt>
      <trkpt lat="59.7945373" lon="17.6315373">
        <ele>30.4188</ele>
        <time>2014-06-01T11:00:46Z</time>
      </trkpt>
      <trkpt lat="59.7945151" lon="17.6315615">
        <ele>30.4188</ele>
        <time>2014-06-01T11:00:47Z</time>
      </trkpt>
      <trkpt lat="59.7944904" lon="17.6315852">
        <ele>30.4188</ele>
        <time>2014-06-01T11:00:48Z</time>
      </trkpt>
      <trkpt lat="59.794458" lon="17.631604">
        <ele>30.4188</ele>
        <time>2014-06-01T11:00:49Z</time>
      </trkpt>
      <trkpt lat="59.7944245" lon="17.6316125">
        <ele>30.4188</ele>
        <time>2014-06-01T11:00:50Z</time>
      </trkpt>
      <trkpt lat="59.7943933" lon="17.6316176">
        <ele>30.4188</ele>
        <time>2014-06-01T11:00:51Z</time>
      </trkpt>
      <trkpt lat="59.7943646" lon="17.6316217">
        <ele>30.4188</ele>
        <time>2014-06-01T11:00:52Z</time>
      </trkpt>
      <trkpt lat="59.7943344" lon="17.6316352">
        <ele>30.8995</ele>
        <time>2014-06-01T11:00:53Z</time>
      </trkpt>
      <trkpt lat="59.794308" lon="17.6316591">
        <ele>31.3801</ele>
        <time>2014-06-01T11:00:54Z</time>
      </trkpt>
      <trkpt lat="59.7942767" lon="17.6316854">
        <ele>31.8607</ele>
        <time>2014-06-01T11:00:55Z</time>
      </trkpt>
      <trkpt lat="59.7942453" lon="17.6317082">
        <ele>31.8607</ele>
        <time>2014-06-01T11:00:56Z</time>
      </trkpt>
      <trkpt lat="59.7942102" lon="17.6317372">
        <ele>31.8607</ele>
        <time>2014-06-01T11:00:57Z</time>
      </trkpt>
      <trkpt lat="59.7941674" lon="17.6317705">
        <ele>32.3416</ele>
        <time>2014-06-01T11:00:58Z</time>
      </trkpt>
      <trkpt lat="59.7941247" lon="17.6318007">
        <ele>32.8223</ele>
        <time>2014-06-01T11:00:59Z</time>
      </trkpt>
      <trkpt lat="59.7941059" lon="17.6318045">
        <ele>33.7834</ele>
        <time>2014-06-01T11:01:00Z</time>
      </trkpt>
      <trkpt lat="59.7940794" lon="17.6318331">
        <ele>34.7449</ele>
        <time>2014-06-01T11:01:01Z</time>
      </trkpt>
      <trkpt lat="59.7940567" lon="17.6318606">
        <ele>34.2642</ele>
        <time>2014-06-01T11:01:02Z</time>
      </trkpt>
      <trkpt lat="59.7940257" lon="17.6319025">
        <ele>33.7834</ele>
        <time>2014-06-01T11:01:03Z</time>
      </trkpt>
      <trkpt lat="59.7939918" lon="17.6319425">
        <ele>33.7834</ele>
        <time>2014-06-01T11:01:04Z</time>
      </trkpt>
      <trkpt lat="59.7939524" lon="17.6319796">
        <ele>33.7834</ele>
        <time>2014-06-01T11:01:05Z</time>
      </trkpt>
      <trkpt lat="59.7939125" lon="17.6319926">
        <ele>33.7834</ele>
        <time>2014-06-01T11:01:06Z</time>
      </trkpt>
      <trkpt lat="59.7938706" lon="17.6319929">
        <ele>33.3029</ele>
        <time>2014-06-01T11:01:07Z</time>
      </trkpt>
      <trkpt lat="59.793833" lon="17.6319748">
        <ele>32.8223</ele>
        <time>2014-06-01T11:01:08Z</time>
      </trkpt>
      <trkpt lat="59.7937936" lon="17.6319364">
        <ele>32.3416</ele>
        <time>2014-06-01T11:01:09Z</time>
      </trkpt>
      <trkpt lat="59.7937594" lon="17.6318989">
        <ele>31.3801</ele>
        <time>2014-06-01T11:01:10Z</time>
      </trkpt>
      <trkpt lat="59.7937335" lon="17.6318678">
        <ele>31.3801</ele>
        <time>2014-06-01T11:01:11Z</time>
      </trkpt>
      <trkpt lat="59.7937044" lon="17.6318373">
        <ele>29.9381</ele>
        <time>2014-06-01T11:01:12Z</time>
      </trkpt>
      <trkpt lat="59.7936771" lon="17.6318284">
        <ele>29.4575</ele>
        <time>2014-06-01T11:01:13Z</time>
      </trkpt>
      <trkpt lat="59.7936455" lon="17.6318424">
        <ele>28.4962</ele>
        <time>2014-06-01T11:01:14Z</time>
      </trkpt>
      <trkpt lat="59.7936126" lon="17.6318736">
        <ele>27.5349</ele>
        <time>2014-06-01T11:01:15Z</time>
      </trkpt>
      <trkpt lat="59.793574" lon="17.6319163">
        <ele>27.0543</ele>
        <time>2014-06-01T11:01:16Z</time>
      </trkpt>
      <trkpt lat="59.7935355" lon="17.6319663">
        <ele>26.0929</ele>
        <time>2014-06-01T11:01:17Z</time>
      </trkpt>
      <trkpt lat="59.7934953" lon="17.632024">
        <ele>25.1317</ele>
        <time>2014-06-01T11:01:18Z</time>
      </trkpt>
      <trkpt lat="59.7934562" lon="17.6320926">
        <ele>24.651</ele>
        <time>2014-06-01T11:01:19Z</time>
      </trkpt>
      <trkpt lat="59.7934239" lon="17.632168">
        <ele>25.1317</ele>
        <time>2014-06-01T11:01:20Z</time>
      </trkpt>
      <trkpt lat="59.7933932" lon="17.6322441">
        <ele>25.1317</ele>
        <time>2014-06-01T11:01:21Z</time>
      </trkpt>
      <trkpt lat="59.7933642" lon="17.6323187">
        <ele>24.651</ele>
        <time>2014-06-01T11:01:22Z</time>
      </trkpt>
      <trkpt lat="59.7933357" lon="17.6323809">
        <ele>24.651</ele>
        <time>2014-06-01T11:01:23Z</time>
      </trkpt>
      <trkpt lat="59.7933037" lon="17.6324335">
        <ele>24.651</ele>
        <time>2014-06-01T11:01:24Z</time>
      </trkpt>
      <trkpt lat="59.7932593" lon="17.6324796">
        <ele>25.1317</ele>
        <time>2014-06-01T11:01:25Z</time>
      </trkpt>
      <trkpt lat="59.7932176" lon="17.6325107">
        <ele>25.1317</ele>
        <time>2014-06-01T11:01:26Z</time>
      </trkpt>
      <trkpt lat="59.7931786" lon="17.6325498">
        <ele>25.1317</ele>
        <time>2014-06-01T11:01:27Z</time>
      </trkpt>
      <trkpt lat="59.7931455" lon="17.632607">
        <ele>25.6123</ele>
        <time>2014-06-01T11:01:28Z</time>
      </trkpt>
      <trkpt lat="59.7931104" lon="17.6326697">
        <ele>26.0929</ele>
        <time>2014-06-01T11:01:29Z</time>
      </trkpt>
      <trkpt lat="59.7930729" lon="17.6327143">
        <ele>26.0929</ele>
        <time>2014-06-01T11:01:30Z</time>
      </trkpt>
      <trkpt lat="59.7930249" lon="17.6327488">
        <ele>26.5736</ele>
        <time>2014-06-01T11:01:31Z</time>
      </trkpt>
      <trkpt lat="59.792978" lon="17.6327696">
        <ele>26.5736</ele>
        <time>2014-06-01T11:01:32Z</time>
      </trkpt>
      <trkpt lat="59.7929321" lon="17.6327883">
        <ele>27.0543</ele>
        <time>2014-06-01T11:01:33Z</time>
      </trkpt>
      <trkpt lat="59.7928828" lon="17.6328103">
        <ele>28.0155</ele>
        <time>2014-06-01T11:01:34Z</time>
      </trkpt>
      <trkpt lat="59.7928348" lon="17.632821">
        <ele>28.4962</ele>
        <time>2014-06-01T11:01:35Z</time>
      </trkpt>
      <trkpt lat="59.7927912" lon="17.6328313">
        <ele>29.4575</ele>
        <time>2014-06-01T11:01:36Z</time>
      </trkpt>
      <trkpt lat="59.7927613" lon="17.6328466">
        <ele>29.4575</ele>
        <time>2014-06-01T11:01:37Z</time>
      </trkpt>
      <trkpt lat="59.7927217" lon="17.632872">
        <ele>29.4575</ele>
        <time>2014-06-01T11:01:38Z</time>
      </trkpt>
      <trkpt lat="59.792687" lon="17.6328841">
        <ele>30.4188</ele>
        <time>2014-06-01T11:01:39Z</time>
      </trkpt>
      <trkpt lat="59.7926513" lon="17.6328686">
        <ele>29.9381</ele>
        <time>2014-06-01T11:01:40Z</time>
      </trkpt>
      <trkpt lat="59.792612" lon="17.6328587">
        <ele>29.4575</ele>
        <time>2014-06-01T11:01:41Z</time>
      </trkpt>
      <trkpt lat="59.7925825" lon="17.6328489">
        <ele>29.9381</ele>
        <time>2014-06-01T11:01:42Z</time>
      </trkpt>
      <trkpt lat="59.7925503" lon="17.6328397">
        <ele>29.4575</ele>
        <time>2014-06-01T11:01:43Z</time>
      </trkpt>
      <trkpt lat="59.7925172" lon="17.6328555">
        <ele>29.9381</ele>
        <time>2014-06-01T11:01:44Z</time>
      </trkpt>
      <trkpt lat="59.7924916" lon="17.6329038">
        <ele>29.9381</ele>
        <time>2014-06-01T11:01:45Z</time>
      </trkpt>
      <trkpt lat="59.7924789" lon="17.6329458">
        <ele>29.9381</ele>
        <time>2014-06-01T11:01:46Z</time>
      </trkpt>
      <trkpt lat="59.792469" lon="17.6329876">
        <ele>29.9381</ele>
        <time>2014-06-01T11:01:47Z</time>
      </trkpt>
      <trkpt lat="59.7924447" lon="17.633051">
        <ele>29.9381</ele>
        <time>2014-06-01T11:01:48Z</time>
      </trkpt>
      <trkpt lat="59.7924191" lon="17.6330987">
        <ele>29.9381</ele>
        <time>2014-06-01T11:01:49Z</time>
      </trkpt>
      <trkpt lat="59.792387" lon="17.6331362">
        <ele>30.4188</ele>
        <time>2014-06-01T11:01:50Z</time>
      </trkpt>
      <trkpt lat="59.7923448" lon="17.6331944">
        <ele>29.9381</ele>
        <time>2014-06-01T11:01:51Z</time>
      </trkpt>
      <trkpt lat="59.7923008" lon="17.6332596">
        <ele>30.4188</ele>
        <time>2014-06-01T11:01:52Z</time>
      </trkpt>
      <trkpt lat="59.7922546" lon="17.6333446">
        <ele>30.4188</ele>
        <time>2014-06-01T11:01:53Z</time>
      </trkpt>
      <trkpt lat="59.7922114" lon="17.6334113">
        <ele>30.8995</ele>
        <time>2014-06-01T11:01:54Z</time>
      </trkpt>
      <trkpt lat="59.7921604" lon="17.6334793">
        <ele>30.4188</ele>
        <time>2014-06-01T11:01:55Z</time>
      </trkpt>
      <trkpt lat="59.7920992" lon="17.6335565">
        <ele>30.8995</ele>
        <time>2014-06-01T11:01:56Z</time>
      </trkpt>
      <trkpt lat="59.7920381" lon="17.6336531">
        <ele>31.3801</ele>
        <time>2014-06-01T11:01:57Z</time>
      </trkpt>
      <trkpt lat="59.791982" lon="17.6337486">
        <ele>31.3801</ele>
        <time>2014-06-01T11:01:58Z</time>
      </trkpt>
      <trkpt lat="59.7919323" lon="17.6338471">
        <ele>31.8607</ele>
        <time>2014-06-01T11:01:59Z</time>
      </trkpt>
      <trkpt lat="59.7918802" lon="17.633949">
        <ele>31.8607</ele>
        <time>2014-06-01T11:02:00Z</time>
      </trkpt>
      <trkpt lat="59.7918313" lon="17.634045">
        <ele>31.8607</ele>
        <time>2014-06-01T11:02:01Z</time>
      </trkpt>
      <trkpt lat="59.7917805" lon="17.6341408">
        <ele>32.8223</ele>
        <time>2014-06-01T11:02:02Z</time>
      </trkpt>
      <trkpt lat="59.7917276" lon="17.6342263">
        <ele>33.7834</ele>
        <time>2014-06-01T11:02:03Z</time>
      </trkpt>
      <trkpt lat="59.7916835" lon="17.6342848">
        <ele>33.7834</ele>
        <time>2014-06-01T11:02:04Z</time>
      </trkpt>
      <trkpt lat="59.7916484" lon="17.63432">
        <ele>34.7449</ele>
        <time>2014-06-01T11:02:05Z</time>
      </trkpt>
      <trkpt lat="59.7916284" lon="17.6343055">
        <ele>34.7449</ele>
        <time>2014-06-01T11:02:06Z</time>
      </trkpt>
      <trkpt lat="59.7916086" lon="17.6342584">
        <ele>33.7834</ele>
        <time>2014-06-01T11:02:07Z</time>
      </trkpt>
      <trkpt lat="59.7915806" lon="17.6342263">
        <ele>33.3029</ele>
        <time>2014-06-01T11:02:08Z</time>
      </trkpt>
      <trkpt lat="59.7915475" lon="17.6341992">
        <ele>31.8607</ele>
        <time>2014-06-01T11:02:09Z</time>
      </trkpt>
      <trkpt lat="59.7915009" lon="17.6341649">
        <ele>30.8995</ele>
        <time>2014-06-01T11:02:10Z</time>
      </trkpt>
      <trkpt lat="59.7914572" lon="17.6341169">
        <ele>29.9381</ele>
        <time>2014-06-01T11:02:11Z</time>
      </trkpt>
      <trkpt lat="59.7914238" lon="17.6340551">
        <ele>28.4962</ele>
        <time>2014-06-01T11:02:12Z</time>
      </trkpt>
      <trkpt lat="59.7914007" lon="17.6339874">
        <ele>26.5736</ele>
        <time>2014-06-01T11:02:13Z</time>
      </trkpt>
      <trkpt lat="59.7913724" lon="17.6339186">
        <ele>25.1317</ele>
        <time>2014-06-01T11:02:14Z</time>
      </trkpt>
      <trkpt lat="59.7913458" lon="17.63387">
        <ele>24.1703</ele>
        <time>2014-06-01T11:02:15Z</time>
      </trkpt>
      <trkpt lat="59.7913123" lon="17.6338111">
        <ele>22.7283</ele>
        <time>2014-06-01T11:02:16Z</time>
      </trkpt>
      <trkpt lat="59.7912741" lon="17.6337335">
        <ele>22.2476</ele>
        <time>2014-06-01T11:02:17Z</time>
      </trkpt>
      <trkpt lat="59.7912366" lon="17.6336505">
        <ele>21.2864</ele>
        <time>2014-06-01T11:02:18Z</time>
      </trkpt>
      <trkpt lat="59.7912023" lon="17.6335728">
        <ele>20.325</ele>
        <time>2014-06-01T11:02:19Z</time>
      </trkpt>
      <trkpt lat="59.7911559" lon="17.6334906">
        <ele>19.8444</ele>
        <time>2014-06-01T11:02:20Z</time>
      </trkpt>
      <trkpt lat="59.7911065" lon="17.6334151">
        <ele>19.8444</ele>
        <time>2014-06-01T11:02:21Z</time>
      </trkpt>
      <trkpt lat="59.791058" lon="17.6333392">
        <ele>19.3638</ele>
        <time>2014-06-01T11:02:22Z</time>
      </trkpt>
      <trkpt lat="59.7910224" lon="17.6332882">
        <ele>18.4023</ele>
        <time>2014-06-01T11:02:23Z</time>
      </trkpt>
      <trkpt lat="59.7909757" lon="17.6332317">
        <ele>15.999</ele>
        <time>2014-06-01T11:02:24Z</time>
      </trkpt>
      <trkpt lat="59.7909172" lon="17.6331561">
        <ele>15.0377</ele>
        <time>2014-06-01T11:02:25Z</time>
      </trkpt>
      <trkpt lat="59.7908549" lon="17.6330732">
        <ele>14.0764</ele>
        <time>2014-06-01T11:02:26Z</time>
      </trkpt>
      <trkpt lat="59.7907813" lon="17.6329919">
        <ele>12.6344</ele>
        <time>2014-06-01T11:02:27Z</time>
      </trkpt>
      <trkpt lat="59.7907059" lon="17.63291">
        <ele>12.6344</ele>
        <time>2014-06-01T11:02:28Z</time>
      </trkpt>
      <trkpt lat="59.7906225" lon="17.6328286">
        <ele>11.6732</ele>
        <time>2014-06-01T11:02:29Z</time>
      </trkpt>
      <trkpt lat="59.7905451" lon="17.6327442">
        <ele>10.7118</ele>
        <time>2014-06-01T11:02:30Z</time>
      </trkpt>
      <trkpt lat="59.7904714" lon="17.6326717">
        <ele>10.2312</ele>
        <time>2014-06-01T11:02:31Z</time>
      </trkpt>
      <trkpt lat="59.7903685" lon="17.6325572">
        <ele>9.75061</ele>
        <time>2014-06-01T11:02:32Z</time>
      </trkpt>
      <trkpt lat="59.7902892" lon="17.632535">
        <ele>9.2699</ele>
        <time>2014-06-01T11:02:33Z</time>
      </trkpt>
      <trkpt lat="59.7902234" lon="17.6325275">
        <ele>9.2699</ele>
        <time>2014-06-01T11:02:34Z</time>
      </trkpt>
      <trkpt lat="59.7901634" lon="17.6325277">
        <ele>9.2699</ele>
        <time>2014-06-01T11:02:35Z</time>
      </trkpt>
      <trkpt lat="59.7901094" lon="17.6325402">
        <ele>9.2699</ele>
        <time>2014-06-01T11:02:36Z</time>
      </trkpt>
      <trkpt lat="59.7900525" lon="17.6325835">
        <ele>9.2699</ele>
        <time>2014-06-01T11:02:37Z</time>
      </trkpt>
      <trkpt lat="59.7899954" lon="17.6326394">
        <ele>9.75061</ele>
        <time>2014-06-01T11:02:38Z</time>
      </trkpt>
      <trkpt lat="59.7899443" lon="17.632687">
        <ele>10.2312</ele>
        <time>2014-06-01T11:02:39Z</time>
      </trkpt>
      <trkpt lat="59.7898883" lon="17.6327259">
        <ele>10.7118</ele>
        <time>2014-06-01T11:02:40Z</time>
      </trkpt>
      <trkpt lat="59.7898359" lon="17.6327544">
        <ele>11.6732</ele>
        <time>2014-06-01T11:02:41Z</time>
      </trkpt>
      <trkpt lat="59.7897897" lon="17.6327606">
        <ele>12.1538</ele>
        <time>2014-06-01T11:02:42Z</time>
      </trkpt>
      <trkpt lat="59.7897479" lon="17.632755">
        <ele>13.5958</ele>
        <time>2014-06-01T11:02:43Z</time>
      </trkpt>
      <trkpt lat="59.7897035" lon="17.6327411">
        <ele>13.5958</ele>
        <time>2014-06-01T11:02:44Z</time>
      </trkpt>
      <trkpt lat="59.7896548" lon="17.6327337">
        <ele>13.5958</ele>
        <time>2014-06-01T11:02:45Z</time>
      </trkpt>
      <trkpt lat="59.7896125" lon="17.6327255">
        <ele>13.5958</ele>
        <time>2014-06-01T11:02:46Z</time>
      </trkpt>
      <trkpt lat="59.7895635" lon="17.6327126">
        <ele>14.0764</ele>
        <time>2014-06-01T11:02:47Z</time>
      </trkpt>
      <trkpt lat="59.7895097" lon="17.6326918">
        <ele>13.1151</ele>
        <time>2014-06-01T11:02:48Z</time>
      </trkpt>
      <trkpt lat="59.7894527" lon="17.6326539">
        <ele>13.5958</ele>
        <time>2014-06-01T11:02:49Z</time>
      </trkpt>
      <trkpt lat="59.7894072" lon="17.6326013">
        <ele>13.5958</ele>
        <time>2014-06-01T11:02:50Z</time>
      </trkpt>
      <trkpt lat="59.7893537" lon="17.6325304">
        <ele>13.1151</ele>
        <time>2014-06-01T11:02:51Z</time>
      </trkpt>
      <trkpt lat="59.7893069" lon="17.6324547">
        <ele>15.0377</ele>
        <time>2014-06-01T11:02:52Z</time>
      </trkpt>
      <trkpt lat="59.7892527" lon="17.6323831">
        <ele>15.0377</ele>
        <time>2014-06-01T11:02:53Z</time>
      </trkpt>
      <trkpt lat="59.7891909" lon="17.63231">
        <ele>15.5184</ele>
        <time>2014-06-01T11:02:54Z</time>
      </trkpt>
      <trkpt lat="59.7891268" lon="17.6322438">
        <ele>15.5184</ele>
        <time>2014-06-01T11:02:55Z</time>
      </trkpt>
      <trkpt lat="59.7890606" lon="17.6321858">
        <ele>14.557</ele>
        <time>2014-06-01T11:02:56Z</time>
      </trkpt>
      <trkpt lat="59.7889974" lon="17.6321299">
        <ele>15.5184</ele>
        <time>2014-06-01T11:02:57Z</time>
      </trkpt>
      <trkpt lat="59.788945" lon="17.6320794">
        <ele>15.5184</ele>
        <time>2014-06-01T11:02:58Z</time>
      </trkpt>
      <trkpt lat="59.7889004" lon="17.6320128">
        <ele>15.5184</ele>
        <time>2014-06-01T11:02:59Z</time>
      </trkpt>
      <trkpt lat="59.788858" lon="17.6319336">
        <ele>15.5184</ele>
        <time>2014-06-01T11:03:00Z</time>
      </trkpt>
      <trkpt lat="59.7888186" lon="17.6318523">
        <ele>15.5184</ele>
        <time>2014-06-01T11:03:01Z</time>
      </trkpt>
      <trkpt lat="59.7887772" lon="17.6317762">
        <ele>15.5184</ele>
        <time>2014-06-01T11:03:02Z</time>
      </trkpt>
      <trkpt lat="59.7887376" lon="17.6317127">
        <ele>15.0377</ele>
        <time>2014-06-01T11:03:03Z</time>
      </trkpt>
      <trkpt lat="59.7886965" lon="17.6316616">
        <ele>15.0377</ele>
        <time>2014-06-01T11:03:04Z</time>
      </trkpt>
      <trkpt lat="59.7886446" lon="17.6316314">
        <ele>15.0377</ele>
        <time>2014-06-01T11:03:05Z</time>
      </trkpt>
      <trkpt lat="59.7885906" lon="17.6315989">
        <ele>14.557</ele>
        <time>2014-06-01T11:03:06Z</time>
      </trkpt>
      <trkpt lat="59.7885389" lon="17.6315594">
        <ele>14.0764</ele>
        <time>2014-06-01T11:03:07Z</time>
      </trkpt>
      <trkpt lat="59.7884959" lon="17.6315096">
        <ele>13.5958</ele>
        <time>2014-06-01T11:03:08Z</time>
      </trkpt>
      <trkpt lat="59.7884513" lon="17.631447">
        <ele>13.1151</ele>
        <time>2014-06-01T11:03:09Z</time>
      </trkpt>
      <trkpt lat="59.7884078" lon="17.6313845">
        <ele>13.1151</ele>
        <time>2014-06-01T11:03:10Z</time>
      </trkpt>
      <trkpt lat="59.7883618" lon="17.6313201">
        <ele>13.1151</ele>
        <time>2014-06-01T11:03:11Z</time>
      </trkpt>
      <trkpt lat="59.7883083" lon="17.631243">
        <ele>13.5958</ele>
        <time>2014-06-01T11:03:12Z</time>
      </trkpt>
      <trkpt lat="59.7882541" lon="17.6311819">
        <ele>13.5958</ele>
        <time>2014-06-01T11:03:13Z</time>
      </trkpt>
      <trkpt lat="59.788199" lon="17.6311244">
        <ele>14.557</ele>
        <time>2014-06-01T11:03:14Z</time>
      </trkpt>
      <trkpt lat="59.7881432" lon="17.6310675">
        <ele>14.557</ele>
        <time>2014-06-01T11:03:15Z</time>
      </trkpt>
      <trkpt lat="59.7880965" lon="17.6310075">
        <ele>14.557</ele>
        <time>2014-06-01T11:03:16Z</time>
      </trkpt>
      <trkpt lat="59.7880578" lon="17.6309429">
        <ele>14.0764</ele>
        <time>2014-06-01T11:03:17Z</time>
      </trkpt>
      <trkpt lat="59.7880267" lon="17.6308922">
        <ele>14.0764</ele>
        <time>2014-06-01T11:03:18Z</time>
      </trkpt>
      <trkpt lat="59.7879842" lon="17.6308464">
        <ele>13.1151</ele>
        <time>2014-06-01T11:03:19Z</time>
      </trkpt>
      <trkpt lat="59.7879373" lon="17.6307841">
        <ele>13.1151</ele>
        <time>2014-06-01T11:03:20Z</time>
      </trkpt>
      <trkpt lat="59.7878612" lon="17.6306969">
        <ele>13.1151</ele>
        <time>2014-06-01T11:03:21Z</time>
      </trkpt>
      <trkpt lat="59.7877943" lon="17.6306394">
        <ele>13.1151</ele>
        <time>2014-06-01T11:03:22Z</time>
      </trkpt>
      <trkpt lat="59.787736" lon="17.6306063">
        <ele>13.5958</ele>
        <time>2014-06-01T11:03:23Z</time>
      </trkpt>
      <trkpt lat="59.787679" lon="17.6305914">
        <ele>12.6344</ele>
        <time>2014-06-01T11:03:24Z</time>
      </trkpt>
      <trkpt lat="59.7876183" lon="17.630579">
        <ele>12.6344</ele>
        <time>2014-06-01T11:03:25Z</time>
      </trkpt>
      <trkpt lat="59.7875573" lon="17.6305663">
        <ele>12.1538</ele>
        <time>2014-06-01T11:03:26Z</time>
      </trkpt>
      <trkpt lat="59.7874967" lon="17.630562">
        <ele>11.1925</ele>
        <time>2014-06-01T11:03:27Z</time>
      </trkpt>
      <trkpt lat="59.7874377" lon="17.6305941">
        <ele>10.7118</ele>
        <time>2014-06-01T11:03:28Z</time>
      </trkpt>
      <trkpt lat="59.787379" lon="17.630659">
        <ele>10.2312</ele>
        <time>2014-06-01T11:03:29Z</time>
      </trkpt>
      <trkpt lat="59.7873081" lon="17.6307561">
        <ele>10.7118</ele>
        <time>2014-06-01T11:03:30Z</time>
      </trkpt>
      <trkpt lat="59.7872511" lon="17.6308277">
        <ele>9.75061</ele>
        <time>2014-06-01T11:03:31Z</time>
      </trkpt>
      <trkpt lat="59.7871931" lon="17.6308759">
        <ele>9.75061</ele>
        <time>2014-06-01T11:03:32Z</time>
      </trkpt>
      <trkpt lat="59.7871303" lon="17.6308921">
        <ele>9.75061</ele>
        <time>2014-06-01T11:03:33Z</time>
      </trkpt>
      <trkpt lat="59.7870552" lon="17.6308706">
        <ele>9.2699</ele>
        <time>2014-06-01T11:03:34Z</time>
      </trkpt>
      <trkpt lat="59.7869759" lon="17.6308379">
        <ele>8.78918</ele>
        <time>2014-06-01T11:03:35Z</time>
      </trkpt>
      <trkpt lat="59.7869037" lon="17.6308026">
        <ele>8.30859</ele>
        <time>2014-06-01T11:03:36Z</time>
      </trkpt>
      <trkpt lat="59.7868251" lon="17.6307665">
        <ele>7.82788</ele>
        <time>2014-06-01T11:03:37Z</time>
      </trkpt>
      <trkpt lat="59.7867466" lon="17.6307266">
        <ele>7.34717</ele>
        <time>2014-06-01T11:03:38Z</time>
      </trkpt>
      <trkpt lat="59.7866751" lon="17.6306913">
        <ele>7.34717</ele>
        <time>2014-06-01T11:03:39Z</time>
      </trkpt>
      <trkpt lat="59.786617" lon="17.6306628">
        <ele>7.34717</ele>
        <time>2014-06-01T11:03:40Z</time>
      </trkpt>
      <trkpt lat="59.7865741" lon="17.6306416">
        <ele>6.86646</ele>
        <time>2014-06-01T11:03:41Z</time>
      </trkpt>
      <trkpt lat="59.7865435" lon="17.630629">
        <ele>6.86646</ele>
        <time>2014-06-01T11:03:42Z</time>
      </trkpt>
      <trkpt lat="59.7865205" lon="17.6306256">
        <ele>6.86646</ele>
        <time>2014-06-01T11:03:43Z</time>
      </trkpt>
      <trkpt lat="59.7865011" lon="17.6306278">
        <ele>6.86646</ele>
        <time>2014-06-01T11:03:44Z</time>
      </trkpt>
      <trkpt lat="59.7864833" lon="17.6306288">
        <ele>6.86646</ele>
        <time>2014-06-01T11:03:45Z</time>
      </trkpt>
      <trkpt lat="59.7864664" lon="17.6306261">
        <ele>6.86646</ele>
        <time>2014-06-01T11:03:46Z</time>
      </trkpt>
      <trkpt lat="59.7864508" lon="17.63063">
        <ele>7.34717</ele>
        <time>2014-06-01T11:03:47Z</time>
      </trkpt>
      <trkpt lat="59.7864375" lon="17.6306493">
        <ele>7.34717</ele>
        <time>2014-06-01T11:03:48Z</time>
      </trkpt>
      <trkpt lat="59.7864271" lon="17.63068">
        <ele>7.82788</ele>
        <time>2014-06-01T11:03:49Z</time>
      </trkpt>
      <trkpt lat="59.7864224" lon="17.6307136">
        <ele>7.82788</ele>
        <time>2014-06-01T11:03:50Z</time>
      </trkpt>
      <trkpt lat="59.7864175" lon="17.6307468">
        <ele>7.82788</ele>
        <time>2014-06-01T11:03:51Z</time>
      </trkpt>
      <trkpt lat="59.7864107" lon="17.6307821">
        <ele>7.82788</ele>
        <time>2014-06-01T11:03:52Z</time>
      </trkpt>
      <trkpt lat="59.7864059" lon="17.630825">
        <ele>7.82788</ele>
        <time>2014-06-01T11:03:53Z</time>
      </trkpt>
      <trkpt lat="59.7864009" lon="17.6308704">
        <ele>7.82788</ele>
        <time>2014-06-01T11:03:54Z</time>
      </trkpt>
      <trkpt lat="59.7863964" lon="17.6309171">
        <ele>7.82788</ele>
        <time>2014-06-01T11:03:55Z</time>
      </trkpt>
      <trkpt lat="59.7863908" lon="17.6309678">
        <ele>7.82788</ele>
        <time>2014-06-01T11:03:56Z</time>
      </trkpt>
      <trkpt lat="59.7863866" lon="17.6310199">
        <ele>7.82788</ele>
        <time>2014-06-01T11:03:57Z</time>
      </trkpt>
      <trkpt lat="59.7863827" lon="17.6310777">
        <ele>7.82788</ele>
        <time>2014-06-01T11:03:58Z</time>
      </trkpt>
      <trkpt lat="59.7863777" lon="17.6311394">
        <ele>7.82788</ele>
        <time>2014-06-01T11:03:59Z</time>
      </trkpt>
      <trkpt lat="59.7863726" lon="17.6312037">
        <ele>7.82788</ele>
        <time>2014-06-01T11:04:00Z</time>
      </trkpt>
      <trkpt lat="59.7863679" lon="17.6312696">
        <ele>7.82788</ele>
        <time>2014-06-01T11:04:01Z</time>
      </trkpt>
      <trkpt lat="59.7863621" lon="17.6313347">
        <ele>7.82788</ele>
        <time>2014-06-01T11:04:02Z</time>
      </trkpt>
      <trkpt lat="59.786353" lon="17.6313982">
        <ele>8.30859</ele>
        <time>2014-06-01T11:04:03Z</time>
      </trkpt>
      <trkpt lat="59.7863359" lon="17.6314547">
        <ele>8.30859</ele>
        <time>2014-06-01T11:04:04Z</time>
      </trkpt>
      <trkpt lat="59.7863088" lon="17.6314899">
        <ele>8.30859</ele>
        <time>2014-06-01T11:04:05Z</time>
      </trkpt>
      <trkpt lat="59.7862763" lon="17.6315013">
        <ele>8.30859</ele>
        <time>2014-06-01T11:04:06Z</time>
      </trkpt>
      <trkpt lat="59.7862415" lon="17.6314956">
        <ele>8.30859</ele>
        <time>2014-06-01T11:04:07Z</time>
      </trkpt>
      <trkpt lat="59.7862012" lon="17.6314844">
        <ele>8.30859</ele>
        <time>2014-06-01T11:04:08Z</time>
      </trkpt>
      <trkpt lat="59.7861571" lon="17.6314734">
        <ele>7.82788</ele>
        <time>2014-06-01T11:04:09Z</time>
      </trkpt>
      <trkpt lat="59.7861099" lon="17.6314485">
        <ele>7.82788</ele>
        <time>2014-06-01T11:04:10Z</time>
      </trkpt>
      <trkpt lat="59.7860582" lon="17.6314047">
        <ele>7.34717</ele>
        <time>2014-06-01T11:04:11Z</time>
      </trkpt>
      <trkpt lat="59.7860053" lon="17.6313478">
        <ele>6.86646</ele>
        <time>2014-06-01T11:04:12Z</time>
      </trkpt>
      <trkpt lat="59.7859519" lon="17.6312809">
        <ele>6.38586</ele>
        <time>2014-06-01T11:04:13Z</time>
      </trkpt>
      <trkpt lat="59.7858976" lon="17.6312068">
        <ele>5.90527</ele>
        <time>2014-06-01T11:04:14Z</time>
      </trkpt>
      <trkpt lat="59.7858416" lon="17.6311278">
        <ele>5.42456</ele>
        <time>2014-06-01T11:04:15Z</time>
      </trkpt>
      <trkpt lat="59.7857855" lon="17.6310406">
        <ele>4.94385</ele>
        <time>2014-06-01T11:04:16Z</time>
      </trkpt>
      <trkpt lat="59.7857321" lon="17.6309435">
        <ele>4.94385</ele>
        <time>2014-06-01T11:04:17Z</time>
      </trkpt>
      <trkpt lat="59.7856815" lon="17.6308373">
        <ele>4.46326</ele>
        <time>2014-06-01T11:04:18Z</time>
      </trkpt>
      <trkpt lat="59.7856312" lon="17.6307205">
        <ele>3.98267</ele>
        <time>2014-06-01T11:04:19Z</time>
      </trkpt>
      <trkpt lat="59.7855831" lon="17.6305958">
        <ele>3.50195</ele>
        <time>2014-06-01T11:04:20Z</time>
      </trkpt>
      <trkpt lat="59.785536" lon="17.6304646">
        <ele>3.02124</ele>
        <time>2014-06-01T11:04:21Z</time>
      </trkpt>
      <trkpt lat="59.7854903" lon="17.6303303">
        <ele>3.02124</ele>
        <time>2014-06-01T11:04:22Z</time>
      </trkpt>
      <trkpt lat="59.7854438" lon="17.6301949">
        <ele>2.54065</ele>
        <time>2014-06-01T11:04:23Z</time>
      </trkpt>
      <trkpt lat="59.7853951" lon="17.6300608">
        <ele>2.54065</ele>
        <time>2014-06-01T11:04:24Z</time>
      </trkpt>
      <trkpt lat="59.785345" lon="17.6299298">
        <ele>2.06006</ele>
        <time>2014-06-01T11:04:25Z</time>
      </trkpt>
      <trkpt lat="59.7852961" lon="17.6297989">
        <ele>2.06006</ele>
        <time>2014-06-01T11:04:26Z</time>
      </trkpt>
      <trkpt lat="59.7852499" lon="17.6296679">
        <ele>2.06006</ele>
        <time>2014-06-01T11:04:27Z</time>
      </trkpt>
      <trkpt lat="59.7852043" lon="17.6295409">
        <ele>1.57935</ele>
        <time>2014-06-01T11:04:28Z</time>
      </trkpt>
      <trkpt lat="59.7851579" lon="17.6294231">
        <ele>1.57935</ele>
        <time>2014-06-01T11:04:29Z</time>
      </trkpt>
      <trkpt lat="59.7851102" lon="17.6293169">
        <ele>1.57935</ele>
        <time>2014-06-01T11:04:30Z</time>
      </trkpt>
      <trkpt lat="59.7850644" lon="17.6292232">
        <ele>1.09863</ele>
        <time>2014-06-01T11:04:31Z</time>
      </trkpt>
      <trkpt lat="59.7850174" lon="17.6291582">
        <ele>1.09863</ele>
        <time>2014-06-01T11:04:32Z</time>
      </trkpt>
      <trkpt lat="59.7849645" lon="17.6291297">
        <ele>0.618042</ele>
        <time>2014-06-01T11:04:33Z</time>
      </trkpt>
      <trkpt lat="59.7849103" lon="17.6291248">
        <ele>0.618042</ele>
        <time>2014-06-01T11:04:34Z</time>
      </trkpt>
      <trkpt lat="59.7848555" lon="17.6291441">
        <ele>0.618042</ele>
        <time>2014-06-01T11:04:35Z</time>
      </trkpt>
      <trkpt lat="59.7848046" lon="17.6291886">
        <ele>0.137451</ele>
        <time>2014-06-01T11:04:36Z</time>
      </trkpt>
      <trkpt lat="59.7847616" lon="17.6292446">
        <ele>0.618042</ele>
        <time>2014-06-01T11:04:37Z</time>
      </trkpt>
      <trkpt lat="59.7847201" lon="17.6292817">
        <ele>0.618042</ele>
        <time>2014-06-01T11:04:38Z</time>
      </trkpt>
      <trkpt lat="59.7846792" lon="17.6292858">
        <ele>0.618042</ele>
        <time>2014-06-01T11:04:39Z</time>
      </trkpt>
      <trkpt lat="59.7846455" lon="17.6292673">
        <ele>0.618042</ele>
        <time>2014-06-01T11:04:40Z</time>
      </trkpt>
      <trkpt lat="59.7846119" lon="17.6292513">
        <ele>0.618042</ele>
        <time>2014-06-01T11:04:41Z</time>
      </trkpt>
      <trkpt lat="59.7845735" lon="17.6292518">
        <ele>0.618042</ele>
        <time>2014-06-01T11:04:42Z</time>
      </trkpt>
      <trkpt lat="59.7845331" lon="17.6292762">
        <ele>0.618042</ele>
        <time>2014-06-01T11:04:43Z</time>
      </trkpt>
      <trkpt lat="59.7844944" lon="17.6293203">
        <ele>0.137451</ele>
        <time>2014-06-01T11:04:44Z</time>
      </trkpt>
      <trkpt lat="59.7844537" lon="17.6293822">
        <ele>0.137451</ele>
        <time>2014-06-01T11:04:45Z</time>
      </trkpt>
      <trkpt lat="59.7844006" lon="17.6294569">
        <ele>0</ele>
        <time>2014-06-01T11:04:46Z</time>
      </trkpt>
      <trkpt lat="59.7843482" lon="17.6295151">
        <ele>0</ele>
        <time>2014-06-01T11:04:47Z</time>
      </trkpt>
      <trkpt lat="59.7842938" lon="17.6295508">
        <ele>0</ele>
        <time>2014-06-01T11:04:48Z</time>
      </trkpt>
      <trkpt lat="59.7842377" lon="17.6295823">
        <ele>0</ele>
        <time>2014-06-01T11:04:49Z</time>
      </trkpt>
      <trkpt lat="59.7841881" lon="17.6296186">
        <ele>0</ele>
        <time>2014-06-01T11:04:50Z</time>
      </trkpt>
      <trkpt lat="59.7841457" lon="17.6296704">
        <ele>0</ele>
        <time>2014-06-01T11:04:51Z</time>
      </trkpt>
      <trkpt lat="59.7841151" lon="17.6297302">
        <ele>0</ele>
        <time>2014-06-01T11:04:52Z</time>
      </trkpt>
      <trkpt lat="59.7840852" lon="17.6297926">
        <ele>0</ele>
        <time>2014-06-01T11:04:53Z</time>
      </trkpt>
      <trkpt lat="59.7840519" lon="17.6298584">
        <ele>0</ele>
        <time>2014-06-01T11:04:54Z</time>
      </trkpt>
      <trkpt lat="59.7840167" lon="17.6299262">
        <ele>0.137451</ele>
        <time>2014-06-01T11:04:55Z</time>
      </trkpt>
      <trkpt lat="59.7839846" lon="17.6299945">
        <ele>0.137451</ele>
        <time>2014-06-01T11:04:56Z</time>
      </trkpt>
      <trkpt lat="59.7839518" lon="17.6300666">
        <ele>0.137451</ele>
        <time>2014-06-01T11:04:57Z</time>
      </trkpt>
      <trkpt lat="59.7839189" lon="17.6301392">
        <ele>0.137451</ele>
        <time>2014-06-01T11:04:58Z</time>
      </trkpt>
      <trkpt lat="59.7838902" lon="17.6301929">
        <ele>0.618042</ele>
        <time>2014-06-01T11:04:59Z</time>
      </trkpt>
      <trkpt lat="59.7838608" lon="17.6302367">
        <ele>0.137451</ele>
        <time>2014-06-01T11:05:00Z</time>
      </trkpt>
      <trkpt lat="59.7838341" lon="17.630265">
        <ele>0.137451</ele>
        <time>2014-06-01T11:05:01Z</time>
      </trkpt>
      <trkpt lat="59.7838043" lon="17.6302997">
        <ele>0</ele>
        <time>2014-06-01T11:05:02Z</time>
      </trkpt>
      <trkpt lat="59.7837716" lon="17.6303588">
        <ele>0</ele>
        <time>2014-06-01T11:05:03Z</time>
      </trkpt>
      <trkpt lat="59.7837425" lon="17.6304261">
        <ele>0</ele>
        <time>2014-06-01T11:05:04Z</time>
      </trkpt>
      <trkpt lat="59.7837085" lon="17.6304834">
        <ele>0</ele>
        <time>2014-06-01T11:05:05Z</time>
      </trkpt>
      <trkpt lat="59.7836694" lon="17.6305368">
        <ele>0</ele>
        <time>2014-06-01T11:05:06Z</time>
      </trkpt>
      <trkpt lat="59.783626" lon="17.6305853">
        <ele>0</ele>
        <time>2014-06-01T11:05:07Z</time>
      </trkpt>
      <trkpt lat="59.7835794" lon="17.6306452">
        <ele>0</ele>
        <time>2014-06-01T11:05:08Z</time>
      </trkpt>
      <trkpt lat="59.7835366" lon="17.6307114">
        <ele>0</ele>
        <time>2014-06-01T11:05:09Z</time>
      </trkpt>
      <trkpt lat="59.7834966" lon="17.630779">
        <ele>0</ele>
        <time>2014-06-01T11:05:10Z</time>
      </trkpt>
      <trkpt lat="59.7834638" lon="17.6308534">
        <ele>0</ele>
        <time>2014-06-01T11:05:11Z</time>
      </trkpt>
      <trkpt lat="59.7834384" lon="17.6309312">
        <ele>0</ele>
        <time>2014-06-01T11:05:12Z</time>
      </trkpt>
      <trkpt lat="59.7834147" lon="17.6310015">
        <ele>0</ele>
        <time>2014-06-01T11:05:13Z</time>
      </trkpt>
      <trkpt lat="59.7833881" lon="17.6310517">
        <ele>0</ele>
        <time>2014-06-01T11:05:14Z</time>
      </trkpt>
      <trkpt lat="59.7833535" lon="17.6311073">
        <ele>0</ele>
        <time>2014-06-01T11:05:15Z</time>
      </trkpt>
      <trkpt lat="59.7833208" lon="17.6311695">
        <ele>0</ele>
        <time>2014-06-01T11:05:16Z</time>
      </trkpt>
      <trkpt lat="59.7833025" lon="17.6312239">
        <ele>0</ele>
        <time>2014-06-01T11:05:17Z</time>
      </trkpt>
      <trkpt lat="59.783291" lon="17.6312934">
        <ele>0</ele>
        <time>2014-06-01T11:05:18Z</time>
      </trkpt>
      <trkpt lat="59.7832759" lon="17.6313785">
        <ele>0</ele>
        <time>2014-06-01T11:05:19Z</time>
      </trkpt>
      <trkpt lat="59.7832774" lon="17.6314631">
        <ele>0</ele>
        <time>2014-06-01T11:05:20Z</time>
      </trkpt>
      <trkpt lat="59.7832775" lon="17.6315526">
        <ele>0</ele>
        <time>2014-06-01T11:05:21Z</time>
      </trkpt>
      <trkpt lat="59.7832786" lon="17.631645">
        <ele>0</ele>
        <time>2014-06-01T11:05:22Z</time>
      </trkpt>
      <trkpt lat="59.7832721" lon="17.6317512">
        <ele>0</ele>
        <time>2014-06-01T11:05:23Z</time>
      </trkpt>
      <trkpt lat="59.7832638" lon="17.6318575">
        <ele>0</ele>
        <time>2014-06-01T11:05:24Z</time>
      </trkpt>
      <trkpt lat="59.7832553" lon="17.6319686">
        <ele>0</ele>
        <time>2014-06-01T11:05:25Z</time>
      </trkpt>
      <trkpt lat="59.7832428" lon="17.6320759">
        <ele>0</ele>
        <time>2014-06-01T11:05:26Z</time>
      </trkpt>
      <trkpt lat="59.7832333" lon="17.6321703">
        <ele>0</ele>
        <time>2014-06-01T11:05:27Z</time>
      </trkpt>
      <trkpt lat="59.7832271" lon="17.632261">
        <ele>0</ele>
        <time>2014-06-01T11:05:28Z</time>
      </trkpt>
      <trkpt lat="59.7832219" lon="17.6323521">
        <ele>0</ele>
        <time>2014-06-01T11:05:29Z</time>
      </trkpt>
      <trkpt lat="59.7832111" lon="17.6324541">
        <ele>0</ele>
        <time>2014-06-01T11:05:30Z</time>
      </trkpt>
      <trkpt lat="59.7832008" lon="17.632556">
        <ele>0</ele>
        <time>2014-06-01T11:05:31Z</time>
      </trkpt>
      <trkpt lat="59.7831905" lon="17.6326558">
        <ele>0</ele>
        <time>2014-06-01T11:05:32Z</time>
      </trkpt>
      <trkpt lat="59.7831818" lon="17.6327526">
        <ele>0</ele>
        <time>2014-06-01T11:05:33Z</time>
      </trkpt>
      <trkpt lat="59.7831768" lon="17.6328447">
        <ele>0</ele>
        <time>2014-06-01T11:05:34Z</time>
      </trkpt>
      <trkpt lat="59.7831724" lon="17.6329354">
        <ele>0.137451</ele>
        <time>2014-06-01T11:05:35Z</time>
      </trkpt>
      <trkpt lat="59.7831732" lon="17.6330209">
        <ele>0.137451</ele>
        <time>2014-06-01T11:05:36Z</time>
      </trkpt>
      <trkpt lat="59.7831809" lon="17.6331033">
        <ele>0.137451</ele>
        <time>2014-06-01T11:05:37Z</time>
      </trkpt>
      <trkpt lat="59.7832019" lon="17.6331719">
        <ele>0.618042</ele>
        <time>2014-06-01T11:05:38Z</time>
      </trkpt>
      <trkpt lat="59.7832312" lon="17.6332237">
        <ele>0.618042</ele>
        <time>2014-06-01T11:05:39Z</time>
      </trkpt>
      <trkpt lat="59.7832652" lon="17.633267">
        <ele>0.618042</ele>
        <time>2014-06-01T11:05:40Z</time>
      </trkpt>
      <trkpt lat="59.7832991" lon="17.6333144">
        <ele>0.137451</ele>
        <time>2014-06-01T11:05:41Z</time>
      </trkpt>
      <trkpt lat="59.7833351" lon="17.633369">
        <ele>0.137451</ele>
        <time>2014-06-01T11:05:42Z</time>
      </trkpt>
      <trkpt lat="59.7833754" lon="17.6334312">
        <ele>0</ele>
        <time>2014-06-01T11:05:43Z</time>
      </trkpt>
      <trkpt lat="59.7834159" lon="17.6335042">
        <ele>0</ele>
        <time>2014-06-01T11:05:44Z</time>
      </trkpt>
      <trkpt lat="59.7834536" lon="17.6335851">
        <ele>0</ele>
        <time>2014-06-01T11:05:45Z</time>
      </trkpt>
      <trkpt lat="59.7834888" lon="17.6336705">
        <ele>0</ele>
        <time>2014-06-01T11:05:46Z</time>
      </trkpt>
      <trkpt lat="59.7835209" lon="17.633763">
        <ele>0</ele>
        <time>2014-06-01T11:05:47Z</time>
      </trkpt>
      <trkpt lat="59.783547" lon="17.6338579">
        <ele>0</ele>
        <time>2014-06-01T11:05:48Z</time>
      </trkpt>
      <trkpt lat="59.783564" lon="17.6339565">
        <ele>0</ele>
        <time>2014-06-01T11:05:49Z</time>
      </trkpt>
      <trkpt lat="59.7835765" lon="17.6340559">
        <ele>0</ele>
        <time>2014-06-01T11:05:50Z</time>
      </trkpt>
      <trkpt lat="59.7835891" lon="17.6341553">
        <ele>0.137451</ele>
        <time>2014-06-01T11:05:51Z</time>
      </trkpt>
      <trkpt lat="59.7836045" lon="17.6342525">
        <ele>0.618042</ele>
        <time>2014-06-01T11:05:52Z</time>
      </trkpt>
      <trkpt lat="59.7836238" lon="17.6343459">
        <ele>1.09863</ele>
        <time>2014-06-01T11:05:53Z</time>
      </trkpt>
      <trkpt lat="59.7836463" lon="17.6344392">
        <ele>2.06006</ele>
        <time>2014-06-01T11:05:54Z</time>
      </trkpt>
      <trkpt lat="59.7836586" lon="17.6345345">
        <ele>2.54065</ele>
        <time>2014-06-01T11:05:55Z</time>
      </trkpt>
      <trkpt lat="59.7836532" lon="17.6346286">
        <ele>3.02124</ele>
        <time>2014-06-01T11:05:56Z</time>
      </trkpt>
      <trkpt lat="59.7836406" lon="17.6347179">
        <ele>3.50195</ele>
        <time>2014-06-01T11:05:57Z</time>
      </trkpt>
      <trkpt lat="59.7836251" lon="17.6347974">
        <ele>4.46326</ele>
        <time>2014-06-01T11:05:58Z</time>
      </trkpt>
      <trkpt lat="59.783609" lon="17.6348691">
        <ele>4.94385</ele>
        <time>2014-06-01T11:05:59Z</time>
      </trkpt>
      <trkpt lat="59.783593" lon="17.634938">
        <ele>4.94385</ele>
        <time>2014-06-01T11:06:00Z</time>
      </trkpt>
      <trkpt lat="59.7835786" lon="17.6350065">
        <ele>5.42456</ele>
        <time>2014-06-01T11:06:01Z</time>
      </trkpt>
      <trkpt lat="59.7835664" lon="17.6350815">
        <ele>5.42456</ele>
        <time>2014-06-01T11:06:02Z</time>
      </trkpt>
      <trkpt lat="59.7835581" lon="17.6351639">
        <ele>5.90527</ele>
        <time>2014-06-01T11:06:03Z</time>
      </trkpt>
      <trkpt lat="59.783557" lon="17.6352496">
        <ele>6.38586</ele>
        <time>2014-06-01T11:06:04Z</time>
      </trkpt>
      <trkpt lat="59.7835608" lon="17.6353327">
        <ele>6.38586</ele>
        <time>2014-06-01T11:06:05Z</time>
      </trkpt>
      <trkpt lat="59.7835676" lon="17.635411">
        <ele>6.86646</ele>
        <time>2014-06-01T11:06:06Z</time>
      </trkpt>
      <trkpt lat="59.7835764" lon="17.6354796">
        <ele>6.86646</ele>
        <time>2014-06-01T11:06:07Z</time>
      </trkpt>
      <trkpt lat="59.7835878" lon="17.6355367">
        <ele>6.86646</ele>
        <time>2014-06-01T11:06:08Z</time>
      </trkpt>
      <trkpt lat="59.7836023" lon="17.635588">
        <ele>7.34717</ele>
        <time>2014-06-01T11:06:09Z</time>
      </trkpt>
      <trkpt lat="59.7836171" lon="17.6356368">
        <ele>7.34717</ele>
        <time>2014-06-01T11:06:10Z</time>
      </trkpt>
      <trkpt lat="59.783625" lon="17.6356851">
        <ele>7.34717</ele>
        <time>2014-06-01T11:06:11Z</time>
      </trkpt>
      <trkpt lat="59.7836349" lon="17.6357332">
        <ele>7.34717</ele>
        <time>2014-06-01T11:06:12Z</time>
      </trkpt>
      <trkpt lat="59.7836397" lon="17.6357855">
        <ele>6.86646</ele>
        <time>2014-06-01T11:06:13Z</time>
      </trkpt>
      <trkpt lat="59.7836437" lon="17.6358425">
        <ele>7.34717</ele>
        <time>2014-06-01T11:06:14Z</time>
      </trkpt>
      <trkpt lat="59.7836418" lon="17.6358989">
        <ele>7.34717</ele>
        <time>2014-06-01T11:06:15Z</time>
      </trkpt>
      <trkpt lat="59.7836417" lon="17.6359541">
        <ele>7.82788</ele>
        <time>2014-06-01T11:06:16Z</time>
      </trkpt>
      <trkpt lat="59.7836375" lon="17.6360128">
        <ele>7.82788</ele>
        <time>2014-06-01T11:06:17Z</time>
      </trkpt>
      <trkpt lat="59.7836326" lon="17.6360754">
        <ele>7.82788</ele>
        <time>2014-06-01T11:06:18Z</time>
      </trkpt>
      <trkpt lat="59.783628" lon="17.6361408">
        <ele>7.82788</ele>
        <time>2014-06-01T11:06:19Z</time>
      </trkpt>
      <trkpt lat="59.7836173" lon="17.6362075">
        <ele>7.82788</ele>
        <time>2014-06-01T11:06:20Z</time>
      </trkpt>
      <trkpt lat="59.7836018" lon="17.6362771">
        <ele>7.34717</ele>
        <time>2014-06-01T11:06:21Z</time>
      </trkpt>
      <trkpt lat="59.7835841" lon="17.6363528">
        <ele>6.86646</ele>
        <time>2014-06-01T11:06:22Z</time>
      </trkpt>
      <trkpt lat="59.7835748" lon="17.6364334">
        <ele>6.86646</ele>
        <time>2014-06-01T11:06:23Z</time>
      </trkpt>
      <trkpt lat="59.7835733" lon="17.6365146">
        <ele>6.86646</ele>
        <time>2014-06-01T11:06:24Z</time>
      </trkpt>
      <trkpt lat="59.7835757" lon="17.6366032">
        <ele>6.38586</ele>
        <time>2014-06-01T11:06:25Z</time>
      </trkpt>
      <trkpt lat="59.7835831" lon="17.6367008">
        <ele>5.90527</ele>
        <time>2014-06-01T11:06:26Z</time>
      </trkpt>
      <trkpt lat="59.7835878" lon="17.6368023">
        <ele>4.94385</ele>
        <time>2014-06-01T11:06:27Z</time>
      </trkpt>
      <trkpt lat="59.7835883" lon="17.6369173">
        <ele>3.98267</ele>
        <time>2014-06-01T11:06:28Z</time>
      </trkpt>
      <trkpt lat="59.7835888" lon="17.6370442">
        <ele>3.02124</ele>
        <time>2014-06-01T11:06:29Z</time>
      </trkpt>
      <trkpt lat="59.7835897" lon="17.6371906">
        <ele>2.06006</ele>
        <time>2014-06-01T11:06:30Z</time>
      </trkpt>
      <trkpt lat="59.7836052" lon="17.6373385">
        <ele>1.09863</ele>
        <time>2014-06-01T11:06:31Z</time>
      </trkpt>
      <trkpt lat="59.7836307" lon="17.6374704">
        <ele>0</ele>
        <time>2014-06-01T11:06:32Z</time>
      </trkpt>
      <trkpt lat="59.7836604" lon="17.6375818">
        <ele>0</ele>
        <time>2014-06-01T11:06:33Z</time>
      </trkpt>
      <trkpt lat="59.7836936" lon="17.6376705">
        <ele>0</ele>
        <time>2014-06-01T11:06:34Z</time>
      </trkpt>
      <trkpt lat="59.7837214" lon="17.6377604">
        <ele>0</ele>
        <time>2014-06-01T11:06:35Z</time>
      </trkpt>
      <trkpt lat="59.7837516" lon="17.6378472">
        <ele>0</ele>
        <time>2014-06-01T11:06:36Z</time>
      </trkpt>
      <trkpt lat="59.7837935" lon="17.6379248">
        <ele>0</ele>
        <time>2014-06-01T11:06:37Z</time>
      </trkpt>
      <trkpt lat="59.7838401" lon="17.6379963">
        <ele>0</ele>
        <time>2014-06-01T11:06:38Z</time>
      </trkpt>
      <trkpt lat="59.7838792" lon="17.638075">
        <ele>0</ele>
        <time>2014-06-01T11:06:39Z</time>
      </trkpt>
      <trkpt lat="59.7839147" lon="17.6381598">
        <ele>0</ele>
        <time>2014-06-01T11:06:40Z</time>
      </trkpt>
      <trkpt lat="59.7839369" lon="17.6382526">
        <ele>0</ele>
        <time>2014-06-01T11:06:41Z</time>
      </trkpt>
      <trkpt lat="59.7839479" lon="17.6383371">
        <ele>0</ele>
        <time>2014-06-01T11:06:42Z</time>
      </trkpt>
      <trkpt lat="59.7839498" lon="17.6384175">
        <ele>0</ele>
        <time>2014-06-01T11:06:43Z</time>
      </trkpt>
      <trkpt lat="59.783974" lon="17.6385147">
        <ele>0</ele>
        <time>2014-06-01T11:06:44Z</time>
      </trkpt>
      <trkpt lat="59.7839886" lon="17.6386178">
        <ele>0</ele>
        <time>2014-06-01T11:06:45Z</time>
      </trkpt>
      <trkpt lat="59.7840066" lon="17.6387236">
        <ele>0</ele>
        <time>2014-06-01T11:06:46Z</time>
      </trkpt>
      <trkpt lat="59.7840234" lon="17.6388262">
        <ele>0</ele>
        <time>2014-06-01T11:06:47Z</time>
      </trkpt>
      <trkpt lat="59.7840339" lon="17.638936">
        <ele>0</ele>
        <time>2014-06-01T11:06:48Z</time>
      </trkpt>
      <trkpt lat="59.7840356" lon="17.6390567">
        <ele>0</ele>
        <time>2014-06-01T11:06:49Z</time>
      </trkpt>
      <trkpt lat="59.7840327" lon="17.6391633">
        <ele>0</ele>
        <time>2014-06-01T11:06:50Z</time>
      </trkpt>
      <trkpt lat="59.7840229" lon="17.6392464">
        <ele>0</ele>
        <time>2014-06-01T11:06:51Z</time>
      </trkpt>
      <trkpt lat="59.7840006" lon="17.6393079">
        <ele>0</ele>
        <time>2014-06-01T11:06:52Z</time>
      </trkpt>
      <trkpt lat="59.7839662" lon="17.6393515">
        <ele>0</ele>
        <time>2014-06-01T11:06:53Z</time>
      </trkpt>
      <trkpt lat="59.7839243" lon="17.6393881">
        <ele>0</ele>
        <time>2014-06-01T11:06:54Z</time>
      </trkpt>
      <trkpt lat="59.783882" lon="17.6394228">
        <ele>0</ele>
        <time>2014-06-01T11:06:55Z</time>
      </trkpt>
      <trkpt lat="59.7838426" lon="17.639458">
        <ele>0</ele>
        <time>2014-06-01T11:06:56Z</time>
      </trkpt>
      <trkpt lat="59.7838124" lon="17.6395074">
        <ele>0</ele>
        <time>2014-06-01T11:06:57Z</time>
      </trkpt>
      <trkpt lat="59.7838008" lon="17.6395805">
        <ele>0</ele>
        <time>2014-06-01T11:06:58Z</time>
      </trkpt>
      <trkpt lat="59.7837932" lon="17.6396643">
        <ele>0</ele>
        <time>2014-06-01T11:06:59Z</time>
      </trkpt>
      <trkpt lat="59.7837871" lon="17.6397534">
        <ele>0</ele>
        <time>2014-06-01T11:07:00Z</time>
      </trkpt>
      <trkpt lat="59.7837829" lon="17.6398441">
        <ele>0.137451</ele>
        <time>2014-06-01T11:07:01Z</time>
      </trkpt>
      <trkpt lat="59.783784" lon="17.6399351">
        <ele>1.09863</ele>
        <time>2014-06-01T11:07:02Z</time>
      </trkpt>
      <trkpt lat="59.7837876" lon="17.6400389">
        <ele>1.09863</ele>
        <time>2014-06-01T11:07:03Z</time>
      </trkpt>
      <trkpt lat="59.783796" lon="17.6401419">
        <ele>1.09863</ele>
        <time>2014-06-01T11:07:04Z</time>
      </trkpt>
      <trkpt lat="59.7838022" lon="17.6402439">
        <ele>1.57935</ele>
        <time>2014-06-01T11:07:05Z</time>
      </trkpt>
      <trkpt lat="59.783796" lon="17.6403358">
        <ele>1.57935</ele>
        <time>2014-06-01T11:07:06Z</time>
      </trkpt>
      <trkpt lat="59.7837759" lon="17.6404206">
        <ele>2.06006</ele>
        <time>2014-06-01T11:07:07Z</time>
      </trkpt>
      <trkpt lat="59.783752" lon="17.640516">
        <ele>1.57935</ele>
        <time>2014-06-01T11:07:08Z</time>
      </trkpt>
      <trkpt lat="59.7837295" lon="17.6406132">
        <ele>1.57935</ele>
        <time>2014-06-01T11:07:09Z</time>
      </trkpt>
      <trkpt lat="59.7837127" lon="17.640709">
        <ele>1.57935</ele>
        <time>2014-06-01T11:07:10Z</time>
      </trkpt>
      <trkpt lat="59.7836951" lon="17.6408076">
        <ele>1.57935</ele>
        <time>2014-06-01T11:07:11Z</time>
      </trkpt>
      <trkpt lat="59.7836727" lon="17.640912">
        <ele>1.57935</ele>
        <time>2014-06-01T11:07:12Z</time>
      </trkpt>
      <trkpt lat="59.7836468" lon="17.641012">
        <ele>1.57935</ele>
        <time>2014-06-01T11:07:13Z</time>
      </trkpt>
      <trkpt lat="59.7836173" lon="17.6411049">
        <ele>1.57935</ele>
        <time>2014-06-01T11:07:14Z</time>
      </trkpt>
      <trkpt lat="59.783584" lon="17.6411882">
        <ele>1.09863</ele>
        <time>2014-06-01T11:07:15Z</time>
      </trkpt>
      <trkpt lat="59.7835456" lon="17.641264">
        <ele>1.09863</ele>
        <time>2014-06-01T11:07:16Z</time>
      </trkpt>
      <trkpt lat="59.783508" lon="17.6413482">
        <ele>1.09863</ele>
        <time>2014-06-01T11:07:17Z</time>
      </trkpt>
      <trkpt lat="59.7834753" lon="17.6414411">
        <ele>1.09863</ele>
        <time>2014-06-01T11:07:18Z</time>
      </trkpt>
      <trkpt lat="59.7834438" lon="17.6415336">
        <ele>1.09863</ele>
        <time>2014-06-01T11:07:19Z</time>
      </trkpt>
      <trkpt lat="59.7834142" lon="17.6416222">
        <ele>1.09863</ele>
        <time>2014-06-01T11:07:20Z</time>
      </trkpt>
      <trkpt lat="59.7833886" lon="17.6417077">
        <ele>1.09863</ele>
        <time>2014-06-01T11:07:21Z</time>
      </trkpt>
      <trkpt lat="59.7833614" lon="17.6417942">
        <ele>1.09863</ele>
        <time>2014-06-01T11:07:22Z</time>
      </trkpt>
      <trkpt lat="59.7833297" lon="17.6418822">
        <ele>1.57935</ele>
        <time>2014-06-01T11:07:23Z</time>
      </trkpt>
      <trkpt lat="59.7832992" lon="17.6419612">
        <ele>1.57935</ele>
        <time>2014-06-01T11:07:24Z</time>
      </trkpt>
      <trkpt lat="59.7832677" lon="17.6420407">
        <ele>1.57935</ele>
        <time>2014-06-01T11:07:25Z</time>
      </trkpt>
      <trkpt lat="59.7832441" lon="17.6421276">
        <ele>1.57935</ele>
        <time>2014-06-01T11:07:26Z</time>
      </trkpt>
      <trkpt lat="59.7832267" lon="17.6422378">
        <ele>1.57935</ele>
        <time>2014-06-01T11:07:27Z</time>
      </trkpt>
      <trkpt lat="59.7832246" lon="17.642347">
        <ele>1.09863</ele>
        <time>2014-06-01T11:07:28Z</time>
      </trkpt>
      <trkpt lat="59.7832376" lon="17.6424601">
        <ele>1.09863</ele>
        <time>2014-06-01T11:07:29Z</time>
      </trkpt>
      <trkpt lat="59.7832374" lon="17.6425947">
        <ele>1.09863</ele>
        <time>2014-06-01T11:07:30Z</time>
      </trkpt>
      <trkpt lat="59.7832505" lon="17.6427164">
        <ele>1.57935</ele>
        <time>2014-06-01T11:07:31Z</time>
      </trkpt>
      <trkpt lat="59.7832629" lon="17.6428364">
        <ele>1.57935</ele>
        <time>2014-06-01T11:07:32Z</time>
      </trkpt>
      <trkpt lat="59.7832759" lon="17.6429597">
        <ele>1.57935</ele>
        <time>2014-06-01T11:07:33Z</time>
      </trkpt>
      <trkpt lat="59.7832858" lon="17.6430807">
        <ele>1.57935</ele>
        <time>2014-06-01T11:07:34Z</time>
      </trkpt>
      <trkpt lat="59.7833019" lon="17.6431992">
        <ele>1.57935</ele>
        <time>2014-06-01T11:07:35Z</time>
      </trkpt>
      <trkpt lat="59.7833168" lon="17.6433164">
        <ele>1.57935</ele>
        <time>2014-06-01T11:07:36Z</time>
      </trkpt>
      <trkpt lat="59.7833366" lon="17.6434238">
        <ele>2.06006</ele>
        <time>2014-06-01T11:07:37Z</time>
      </trkpt>
      <trkpt lat="59.7833578" lon="17.6435204">
        <ele>1.57935</ele>
        <time>2014-06-01T11:07:38Z</time>
      </trkpt>
      <trkpt lat="59.7833754" lon="17.643622">
        <ele>2.06006</ele>
        <time>2014-06-01T11:07:39Z</time>
      </trkpt>
      <trkpt lat="59.7833795" lon="17.64374">
        <ele>2.54065</ele>
        <time>2014-06-01T11:07:40Z</time>
      </trkpt>
      <trkpt lat="59.7833826" lon="17.6438657">
        <ele>3.02124</ele>
        <time>2014-06-01T11:07:41Z</time>
      </trkpt>
      <trkpt lat="59.783394" lon="17.6439819">
        <ele>3.02124</ele>
        <time>2014-06-01T11:07:42Z</time>
      </trkpt>
      <trkpt lat="59.7834188" lon="17.6440861">
        <ele>3.02124</ele>
        <time>2014-06-01T11:07:43Z</time>
      </trkpt>
      <trkpt lat="59.7834475" lon="17.6441775">
        <ele>3.50195</ele>
        <time>2014-06-01T11:07:44Z</time>
      </trkpt>
      <trkpt lat="59.783476" lon="17.6442621">
        <ele>3.50195</ele>
        <time>2014-06-01T11:07:45Z</time>
      </trkpt>
      <trkpt lat="59.7835076" lon="17.6443407">
        <ele>3.50195</ele>
        <time>2014-06-01T11:07:46Z</time>
      </trkpt>
      <trkpt lat="59.7835384" lon="17.6444139">
        <ele>3.98267</ele>
        <time>2014-06-01T11:07:47Z</time>
      </trkpt>
      <trkpt lat="59.7835701" lon="17.6444839">
        <ele>4.46326</ele>
        <time>2014-06-01T11:07:48Z</time>
      </trkpt>
      <trkpt lat="59.7835967" lon="17.6445523">
        <ele>4.46326</ele>
        <time>2014-06-01T11:07:49Z</time>
      </trkpt>
      <trkpt lat="59.7836278" lon="17.6446124">
        <ele>4.94385</ele>
        <time>2014-06-01T11:07:50Z</time>
      </trkpt>
      <trkpt lat="59.7836586" lon="17.6446725">
        <ele>4.94385</ele>
        <time>2014-06-01T11:07:51Z</time>
      </trkpt>
      <trkpt lat="59.7836896" lon="17.6447425">
        <ele>5.42456</ele>
        <time>2014-06-01T11:07:52Z</time>
      </trkpt>
      <trkpt lat="59.7837153" lon="17.644817">
        <ele>5.42456</ele>
        <time>2014-06-01T11:07:53Z</time>
      </trkpt>
      <trkpt lat="59.7837406" lon="17.6448935">
        <ele>5.90527</ele>
        <time>2014-06-01T11:07:54Z</time>
      </trkpt>
      <trkpt lat="59.7837659" lon="17.6449794">
        <ele>5.90527</ele>
        <time>2014-06-01T11:07:55Z</time>
      </trkpt>
      <trkpt lat="59.7837893" lon="17.6450744">
        <ele>4.46326</ele>
        <time>2014-06-01T11:07:56Z</time>
      </trkpt>
      <trkpt lat="59.7838188" lon="17.6451754">
        <ele>4.46326</ele>
        <time>2014-06-01T11:07:57Z</time>
      </trkpt>
      <trkpt lat="59.7838472" lon="17.6452797">
        <ele>4.46326</ele>
        <time>2014-06-01T11:07:58Z</time>
      </trkpt>
      <trkpt lat="59.7838741" lon="17.645382">
        <ele>3.98267</ele>
        <time>2014-06-01T11:07:59Z</time>
      </trkpt>
      <trkpt lat="59.7839078" lon="17.6454763">
        <ele>4.46326</ele>
        <time>2014-06-01T11:08:00Z</time>
      </trkpt>
      <trkpt lat="59.7839465" lon="17.6455635">
        <ele>4.46326</ele>
        <time>2014-06-01T11:08:01Z</time>
      </trkpt>
      <trkpt lat="59.783986" lon="17.6456563">
        <ele>4.46326</ele>
        <time>2014-06-01T11:08:02Z</time>
      </trkpt>
      <trkpt lat="59.7840219" lon="17.6457804">
        <ele>4.46326</ele>
        <time>2014-06-01T11:08:03Z</time>
      </trkpt>
      <trkpt lat="59.7840522" lon="17.6458821">
        <ele>3.98267</ele>
        <time>2014-06-01T11:08:04Z</time>
      </trkpt>
      <trkpt lat="59.784081" lon="17.6459873">
        <ele>3.98267</ele>
        <time>2014-06-01T11:08:05Z</time>
      </trkpt>
      <trkpt lat="59.7841006" lon="17.6460996">
        <ele>3.98267</ele>
        <time>2014-06-01T11:08:06Z</time>
      </trkpt>
      <trkpt lat="59.7841151" lon="17.6462119">
        <ele>3.50195</ele>
        <time>2014-06-01T11:08:07Z</time>
      </trkpt>
      <trkpt lat="59.7841335" lon="17.6463255">
        <ele>3.50195</ele>
        <time>2014-06-01T11:08:08Z</time>
      </trkpt>
      <trkpt lat="59.7841544" lon="17.6464373">
        <ele>3.50195</ele>
        <time>2014-06-01T11:08:09Z</time>
      </trkpt>
      <trkpt lat="59.7841807" lon="17.6465436">
        <ele>3.50195</ele>
        <time>2014-06-01T11:08:10Z</time>
      </trkpt>
      <trkpt lat="59.7842089" lon="17.6466472">
        <ele>3.50195</ele>
        <time>2014-06-01T11:08:11Z</time>
      </trkpt>
      <trkpt lat="59.7842378" lon="17.646746">
        <ele>3.50195</ele>
        <time>2014-06-01T11:08:12Z</time>
      </trkpt>
      <trkpt lat="59.7842693" lon="17.6468438">
        <ele>3.50195</ele>
        <time>2014-06-01T11:08:13Z</time>
      </trkpt>
      <trkpt lat="59.7843068" lon="17.6469362">
        <ele>3.50195</ele>
        <time>2014-06-01T11:08:14Z</time>
      </trkpt>
      <trkpt lat="59.7843533" lon="17.6469992">
        <ele>3.50195</ele>
        <time>2014-06-01T11:08:15Z</time>
      </trkpt>
      <trkpt lat="59.7844078" lon="17.6470294">
        <ele>3.50195</ele>
        <time>2014-06-01T11:08:16Z</time>
      </trkpt>
      <trkpt lat="59.7844662" lon="17.647038">
        <ele>3.50195</ele>
        <time>2014-06-01T11:08:17Z</time>
      </trkpt>
      <trkpt lat="59.784526" lon="17.6470484">
        <ele>3.98267</ele>
        <time>2014-06-01T11:08:18Z</time>
      </trkpt>
      <trkpt lat="59.7845843" lon="17.6470671">
        <ele>3.98267</ele>
        <time>2014-06-01T11:08:19Z</time>
      </trkpt>
      <trkpt lat="59.7846402" lon="17.6471024">
        <ele>3.98267</ele>
        <time>2014-06-01T11:08:20Z</time>
      </trkpt>
      <trkpt lat="59.7846891" lon="17.6471606">
        <ele>3.98267</ele>
        <time>2014-06-01T11:08:21Z</time>
      </trkpt>
      <trkpt lat="59.7847344" lon="17.6472395">
        <ele>3.98267</ele>
        <time>2014-06-01T11:08:22Z</time>
      </trkpt>
      <trkpt lat="59.784773" lon="17.6473313">
        <ele>3.98267</ele>
        <time>2014-06-01T11:08:23Z</time>
      </trkpt>
      <trkpt lat="59.7848076" lon="17.6474293">
        <ele>3.98267</ele>
        <time>2014-06-01T11:08:24Z</time>
      </trkpt>
      <trkpt lat="59.7848403" lon="17.6475299">
        <ele>3.98267</ele>
        <time>2014-06-01T11:08:25Z</time>
      </trkpt>
      <trkpt lat="59.7848719" lon="17.647625">
        <ele>3.98267</ele>
        <time>2014-06-01T11:08:26Z</time>
      </trkpt>
      <trkpt lat="59.784905" lon="17.6477159">
        <ele>3.98267</ele>
        <time>2014-06-01T11:08:27Z</time>
      </trkpt>
      <trkpt lat="59.7849409" lon="17.6478038">
        <ele>3.98267</ele>
        <time>2014-06-01T11:08:28Z</time>
      </trkpt>
      <trkpt lat="59.7849822" lon="17.6478919">
        <ele>3.98267</ele>
        <time>2014-06-01T11:08:29Z</time>
      </trkpt>
      <trkpt lat="59.7850258" lon="17.6479787">
        <ele>4.46326</ele>
        <time>2014-06-01T11:08:30Z</time>
      </trkpt>
      <trkpt lat="59.7850677" lon="17.64806">
        <ele>3.98267</ele>
        <time>2014-06-01T11:08:31Z</time>
      </trkpt>
      <trkpt lat="59.7851131" lon="17.6481401">
        <ele>4.46326</ele>
        <time>2014-06-01T11:08:32Z</time>
      </trkpt>
      <trkpt lat="59.7851595" lon="17.6482194">
        <ele>4.46326</ele>
        <time>2014-06-01T11:08:33Z</time>
      </trkpt>
      <trkpt lat="59.7852064" lon="17.6482949">
        <ele>4.46326</ele>
        <time>2014-06-01T11:08:34Z</time>
      </trkpt>
      <trkpt lat="59.7852599" lon="17.6483717">
        <ele>4.94385</ele>
        <time>2014-06-01T11:08:35Z</time>
      </trkpt>
      <trkpt lat="59.7853143" lon="17.6484516">
        <ele>5.42456</ele>
        <time>2014-06-01T11:08:36Z</time>
      </trkpt>
      <trkpt lat="59.7853677" lon="17.6485317">
        <ele>5.90527</ele>
        <time>2014-06-01T11:08:37Z</time>
      </trkpt>
      <trkpt lat="59.7854201" lon="17.648611">
        <ele>5.90527</ele>
        <time>2014-06-01T11:08:38Z</time>
      </trkpt>
      <trkpt lat="59.7854723" lon="17.648685">
        <ele>5.42456</ele>
        <time>2014-06-01T11:08:39Z</time>
      </trkpt>
      <trkpt lat="59.7855267" lon="17.6487647">
        <ele>5.42456</ele>
        <time>2014-06-01T11:08:40Z</time>
      </trkpt>
      <trkpt lat="59.7855788" lon="17.6488511">
        <ele>4.94385</ele>
        <time>2014-06-01T11:08:41Z</time>
      </trkpt>
      <trkpt lat="59.7856293" lon="17.6489388">
        <ele>4.94385</ele>
        <time>2014-06-01T11:08:42Z</time>
      </trkpt>
      <trkpt lat="59.7856796" lon="17.6490258">
        <ele>4.46326</ele>
        <time>2014-06-01T11:08:43Z</time>
      </trkpt>
      <trkpt lat="59.7857302" lon="17.6491103">
        <ele>4.46326</ele>
        <time>2014-06-01T11:08:44Z</time>
      </trkpt>
      <trkpt lat="59.7857787" lon="17.6491983">
        <ele>4.46326</ele>
        <time>2014-06-01T11:08:45Z</time>
      </trkpt>
      <trkpt lat="59.7858257" lon="17.6492924">
        <ele>4.46326</ele>
        <time>2014-06-01T11:08:46Z</time>
      </trkpt>
      <trkpt lat="59.7858728" lon="17.6493816">
        <ele>4.46326</ele>
        <time>2014-06-01T11:08:47Z</time>
      </trkpt>
      <trkpt lat="59.7859203" lon="17.6494589">
        <ele>3.98267</ele>
        <time>2014-06-01T11:08:48Z</time>
      </trkpt>
      <trkpt lat="59.7859701" lon="17.6495275">
        <ele>3.98267</ele>
        <time>2014-06-01T11:08:49Z</time>
      </trkpt>
      <trkpt lat="59.7860203" lon="17.6495929">
        <ele>3.98267</ele>
        <time>2014-06-01T11:08:50Z</time>
      </trkpt>
      <trkpt lat="59.7860694" lon="17.6496479">
        <ele>3.98267</ele>
        <time>2014-06-01T11:08:51Z</time>
      </trkpt>
      <trkpt lat="59.7861165" lon="17.6496981">
        <ele>3.50195</ele>
        <time>2014-06-01T11:08:52Z</time>
      </trkpt>
      <trkpt lat="59.7861618" lon="17.6497536">
        <ele>3.50195</ele>
        <time>2014-06-01T11:08:53Z</time>
      </trkpt>
      <trkpt lat="59.7862037" lon="17.6498083">
        <ele>3.50195</ele>
        <time>2014-06-01T11:08:54Z</time>
      </trkpt>
      <trkpt lat="59.7862483" lon="17.649865">
        <ele>3.50195</ele>
        <time>2014-06-01T11:08:55Z</time>
      </trkpt>
      <trkpt lat="59.786296" lon="17.6499121">
        <ele>3.50195</ele>
        <time>2014-06-01T11:08:56Z</time>
      </trkpt>
      <trkpt lat="59.7863481" lon="17.6499598">
        <ele>3.50195</ele>
        <time>2014-06-01T11:08:57Z</time>
      </trkpt>
      <trkpt lat="59.7863994" lon="17.6500181">
        <ele>3.50195</ele>
        <time>2014-06-01T11:08:58Z</time>
      </trkpt>
      <trkpt lat="59.786448" lon="17.650081">
        <ele>3.50195</ele>
        <time>2014-06-01T11:08:59Z</time>
      </trkpt>
      <trkpt lat="59.786495" lon="17.6501416">
        <ele>3.50195</ele>
        <time>2014-06-01T11:09:00Z</time>
      </trkpt>
      <trkpt lat="59.786543" lon="17.6501979">
        <ele>3.02124</ele>
        <time>2014-06-01T11:09:01Z</time>
      </trkpt>
      <trkpt lat="59.7865905" lon="17.6502602">
        <ele>3.50195</ele>
        <time>2014-06-01T11:09:02Z</time>
      </trkpt>
      <trkpt lat="59.7866335" lon="17.6503258">
        <ele>3.50195</ele>
        <time>2014-06-01T11:09:03Z</time>
      </trkpt>
      <trkpt lat="59.7866746" lon="17.6503974">
        <ele>3.50195</ele>
        <time>2014-06-01T11:09:04Z</time>
      </trkpt>
      <trkpt lat="59.7867196" lon="17.6504679">
        <ele>3.98267</ele>
        <time>2014-06-01T11:09:05Z</time>
      </trkpt>
      <trkpt lat="59.7867646" lon="17.6505363">
        <ele>3.98267</ele>
        <time>2014-06-01T11:09:06Z</time>
      </trkpt>
      <trkpt lat="59.7868044" lon="17.6505916">
        <ele>3.98267</ele>
        <time>2014-06-01T11:09:07Z</time>
      </trkpt>
      <trkpt lat="59.7868424" lon="17.6506402">
        <ele>3.98267</ele>
        <time>2014-06-01T11:09:08Z</time>
      </trkpt>
      <trkpt lat="59.7868791" lon="17.6507048">
        <ele>3.98267</ele>
        <time>2014-06-01T11:09:09Z</time>
      </trkpt>
      <trkpt lat="59.786917" lon="17.6507927">
        <ele>3.50195</ele>
        <time>2014-06-01T11:09:10Z</time>
      </trkpt>
      <trkpt lat="59.7869549" lon="17.6508838">
        <ele>3.50195</ele>
        <time>2014-06-01T11:09:11Z</time>
      </trkpt>
      <trkpt lat="59.7869964" lon="17.6509809">
        <ele>3.98267</ele>
        <time>2014-06-01T11:09:12Z</time>
      </trkpt>
      <trkpt lat="59.7870344" lon="17.65107">
        <ele>3.98267</ele>
        <time>2014-06-01T11:09:13Z</time>
      </trkpt>
      <trkpt lat="59.7870781" lon="17.6511465">
        <ele>3.98267</ele>
        <time>2014-06-01T11:09:14Z</time>
      </trkpt>
      <trkpt lat="59.7871276" lon="17.651217">
        <ele>3.98267</ele>
        <time>2014-06-01T11:09:15Z</time>
      </trkpt>
      <trkpt lat="59.7871776" lon="17.6512803">
        <ele>3.98267</ele>
        <time>2014-06-01T11:09:16Z</time>
      </trkpt>
      <trkpt lat="59.7872263" lon="17.651349">
        <ele>3.98267</ele>
        <time>2014-06-01T11:09:17Z</time>
      </trkpt>
      <trkpt lat="59.7872734" lon="17.651403">
        <ele>3.98267</ele>
        <time>2014-06-01T11:09:18Z</time>
      </trkpt>
      <trkpt lat="59.7873221" lon="17.6514589">
        <ele>4.46326</ele>
        <time>2014-06-01T11:09:19Z</time>
      </trkpt>
      <trkpt lat="59.7873707" lon="17.6515205">
        <ele>4.94385</ele>
        <time>2014-06-01T11:09:20Z</time>
      </trkpt>
      <trkpt lat="59.7874155" lon="17.6515812">
        <ele>4.94385</ele>
        <time>2014-06-01T11:09:21Z</time>
      </trkpt>
      <trkpt lat="59.7874616" lon="17.6516485">
        <ele>5.42456</ele>
        <time>2014-06-01T11:09:22Z</time>
      </trkpt>
      <trkpt lat="59.787507" lon="17.651707">
        <ele>5.42456</ele>
        <time>2014-06-01T11:09:23Z</time>
      </trkpt>
      <trkpt lat="59.7875511" lon="17.6517727">
        <ele>5.42456</ele>
        <time>2014-06-01T11:09:24Z</time>
      </trkpt>
      <trkpt lat="59.78759" lon="17.6518474">
        <ele>5.42456</ele>
        <time>2014-06-01T11:09:25Z</time>
      </trkpt>
      <trkpt lat="59.7876205" lon="17.6519355">
        <ele>5.42456</ele>
        <time>2014-06-01T11:09:26Z</time>
      </trkpt>
      <trkpt lat="59.7876406" lon="17.6520291">
        <ele>5.42456</ele>
        <time>2014-06-01T11:09:27Z</time>
      </trkpt>
      <trkpt lat="59.7876566" lon="17.652138">
        <ele>4.94385</ele>
        <time>2014-06-01T11:09:28Z</time>
      </trkpt>
      <trkpt lat="59.7876672" lon="17.65225">
        <ele>5.42456</ele>
        <time>2014-06-01T11:09:29Z</time>
      </trkpt>
      <trkpt lat="59.7876618" lon="17.6523578">
        <ele>4.94385</ele>
        <time>2014-06-01T11:09:30Z</time>
      </trkpt>
      <trkpt lat="59.7876531" lon="17.6524652">
        <ele>4.94385</ele>
        <time>2014-06-01T11:09:31Z</time>
      </trkpt>
      <trkpt lat="59.7876405" lon="17.6525755">
        <ele>4.46326</ele>
        <time>2014-06-01T11:09:32Z</time>
      </trkpt>
      <trkpt lat="59.7876299" lon="17.6526907">
        <ele>3.98267</ele>
        <time>2014-06-01T11:09:33Z</time>
      </trkpt>
      <trkpt lat="59.7876215" lon="17.6528093">
        <ele>3.50195</ele>
        <time>2014-06-01T11:09:34Z</time>
      </trkpt>
      <trkpt lat="59.7876144" lon="17.6529301">
        <ele>3.50195</ele>
        <time>2014-06-01T11:09:35Z</time>
      </trkpt>
      <trkpt lat="59.7876082" lon="17.6530512">
        <ele>3.50195</ele>
        <time>2014-06-01T11:09:36Z</time>
      </trkpt>
      <trkpt lat="59.7876006" lon="17.6531719">
        <ele>3.02124</ele>
        <time>2014-06-01T11:09:37Z</time>
      </trkpt>
      <trkpt lat="59.7875876" lon="17.6532886">
        <ele>3.02124</ele>
        <time>2014-06-01T11:09:38Z</time>
      </trkpt>
      <trkpt lat="59.7875687" lon="17.6533984">
        <ele>3.02124</ele>
        <time>2014-06-01T11:09:39Z</time>
      </trkpt>
      <trkpt lat="59.7875531" lon="17.6535061">
        <ele>3.02124</ele>
        <time>2014-06-01T11:09:40Z</time>
      </trkpt>
      <trkpt lat="59.7875459" lon="17.6536141">
        <ele>2.54065</ele>
        <time>2014-06-01T11:09:41Z</time>
      </trkpt>
      <trkpt lat="59.7875462" lon="17.6537204">
        <ele>2.54065</ele>
        <time>2014-06-01T11:09:42Z</time>
      </trkpt>
      <trkpt lat="59.78755" lon="17.6538282">
        <ele>2.54065</ele>
        <time>2014-06-01T11:09:43Z</time>
      </trkpt>
      <trkpt lat="59.7875552" lon="17.653938">
        <ele>2.54065</ele>
        <time>2014-06-01T11:09:44Z</time>
      </trkpt>
      <trkpt lat="59.7875626" lon="17.6540503">
        <ele>2.54065</ele>
        <time>2014-06-01T11:09:45Z</time>
      </trkpt>
      <trkpt lat="59.7875708" lon="17.654163">
        <ele>2.54065</ele>
        <time>2014-06-01T11:09:46Z</time>
      </trkpt>
      <trkpt lat="59.7875788" lon="17.6542763">
        <ele>2.54065</ele>
        <time>2014-06-01T11:09:47Z</time>
      </trkpt>
      <trkpt lat="59.7875856" lon="17.6543913">
        <ele>2.54065</ele>
        <time>2014-06-01T11:09:48Z</time>
      </trkpt>
      <trkpt lat="59.7875904" lon="17.6545158">
        <ele>2.54065</ele>
        <time>2014-06-01T11:09:49Z</time>
      </trkpt>
      <trkpt lat="59.7875955" lon="17.6546351">
        <ele>2.54065</ele>
        <time>2014-06-01T11:09:50Z</time>
      </trkpt>
      <trkpt lat="59.7876008" lon="17.654751">
        <ele>2.54065</ele>
        <time>2014-06-01T11:09:51Z</time>
      </trkpt>
      <trkpt lat="59.7876112" lon="17.6548663">
        <ele>2.54065</ele>
        <time>2014-06-01T11:09:52Z</time>
      </trkpt>
      <trkpt lat="59.7876298" lon="17.6549788">
        <ele>2.54065</ele>
        <time>2014-06-01T11:09:53Z</time>
      </trkpt>
      <trkpt lat="59.7876532" lon="17.6550891">
        <ele>2.54065</ele>
        <time>2014-06-01T11:09:54Z</time>
      </trkpt>
      <trkpt lat="59.7876723" lon="17.6552014">
        <ele>2.54065</ele>
        <time>2014-06-01T11:09:55Z</time>
      </trkpt>
      <trkpt lat="59.787682" lon="17.6553093">
        <ele>2.54065</ele>
        <time>2014-06-01T11:09:56Z</time>
      </trkpt>
      <trkpt lat="59.7876747" lon="17.6554092">
        <ele>2.54065</ele>
        <time>2014-06-01T11:09:57Z</time>
      </trkpt>
      <trkpt lat="59.7876578" lon="17.6555031">
        <ele>2.54065</ele>
        <time>2014-06-01T11:09:58Z</time>
      </trkpt>
      <trkpt lat="59.7876356" lon="17.6555847">
        <ele>2.54065</ele>
        <time>2014-06-01T11:09:59Z</time>
      </trkpt>
      <trkpt lat="59.7876161" lon="17.6556501">
        <ele>3.02124</ele>
        <time>2014-06-01T11:10:00Z</time>
      </trkpt>
      <trkpt lat="59.7875977" lon="17.655706">
        <ele>3.02124</ele>
        <time>2014-06-01T11:10:01Z</time>
      </trkpt>
      <trkpt lat="59.7875766" lon="17.6557678">
        <ele>2.54065</ele>
        <time>2014-06-01T11:10:02Z</time>
      </trkpt>
      <trkpt lat="59.7875493" lon="17.6558318">
        <ele>2.54065</ele>
        <time>2014-06-01T11:10:03Z</time>
      </trkpt>
      <trkpt lat="59.7875225" lon="17.6558931">
        <ele>2.54065</ele>
        <time>2014-06-01T11:10:04Z</time>
      </trkpt>
      <trkpt lat="59.7875002" lon="17.6559609">
        <ele>2.54065</ele>
        <time>2014-06-01T11:10:05Z</time>
      </trkpt>
      <trkpt lat="59.7874831" lon="17.6560343">
        <ele>3.02124</ele>
        <time>2014-06-01T11:10:06Z</time>
      </trkpt>
      <trkpt lat="59.7874697" lon="17.6561033">
        <ele>3.02124</ele>
        <time>2014-06-01T11:10:07Z</time>
      </trkpt>
      <trkpt lat="59.7874623" lon="17.6561732">
        <ele>3.02124</ele>
        <time>2014-06-01T11:10:08Z</time>
      </trkpt>
      <trkpt lat="59.7874592" lon="17.6562522">
        <ele>3.02124</ele>
        <time>2014-06-01T11:10:09Z</time>
      </trkpt>
      <trkpt lat="59.7874613" lon="17.6563355">
        <ele>3.02124</ele>
        <time>2014-06-01T11:10:10Z</time>
      </trkpt>
      <trkpt lat="59.7874656" lon="17.6564244">
        <ele>3.02124</ele>
        <time>2014-06-01T11:10:11Z</time>
      </trkpt>
      <trkpt lat="59.78747" lon="17.6565166">
        <ele>3.02124</ele>
        <time>2014-06-01T11:10:12Z</time>
      </trkpt>
      <trkpt lat="59.7874677" lon="17.6566074">
        <ele>3.02124</ele>
        <time>2014-06-01T11:10:13Z</time>
      </trkpt>
      <trkpt lat="59.7874475" lon="17.6566861">
        <ele>3.02124</ele>
        <time>2014-06-01T11:10:14Z</time>
      </trkpt>
      <trkpt lat="59.7874146" lon="17.6567405">
        <ele>3.02124</ele>
        <time>2014-06-01T11:10:15Z</time>
      </trkpt>
      <trkpt lat="59.7873755" lon="17.6567918">
        <ele>3.02124</ele>
        <time>2014-06-01T11:10:16Z</time>
      </trkpt>
      <trkpt lat="59.7873365" lon="17.6568514">
        <ele>3.02124</ele>
        <time>2014-06-01T11:10:17Z</time>
      </trkpt>
      <trkpt lat="59.7872967" lon="17.6569161">
        <ele>3.02124</ele>
        <time>2014-06-01T11:10:18Z</time>
      </trkpt>
      <trkpt lat="59.7872554" lon="17.656983">
        <ele>3.02124</ele>
        <time>2014-06-01T11:10:19Z</time>
      </trkpt>
      <trkpt lat="59.7872121" lon="17.6570491">
        <ele>3.02124</ele>
        <time>2014-06-01T11:10:20Z</time>
      </trkpt>
      <trkpt lat="59.7871675" lon="17.6571191">
        <ele>3.02124</ele>
        <time>2014-06-01T11:10:21Z</time>
      </trkpt>
      <trkpt lat="59.7871206" lon="17.6571926">
        <ele>3.02124</ele>
        <time>2014-06-01T11:10:22Z</time>
      </trkpt>
      <trkpt lat="59.787072" lon="17.6572617">
        <ele>2.54065</ele>
        <time>2014-06-01T11:10:23Z</time>
      </trkpt>
      <trkpt lat="59.7870196" lon="17.6573233">
        <ele>2.54065</ele>
        <time>2014-06-01T11:10:24Z</time>
      </trkpt>
      <trkpt lat="59.7869665" lon="17.6573803">
        <ele>3.02124</ele>
        <time>2014-06-01T11:10:25Z</time>
      </trkpt>
      <trkpt lat="59.786916" lon="17.6574402">
        <ele>3.02124</ele>
        <time>2014-06-01T11:10:26Z</time>
      </trkpt>
      <trkpt lat="59.7868678" lon="17.6574997">
        <ele>3.02124</ele>
        <time>2014-06-01T11:10:27Z</time>
      </trkpt>
      <trkpt lat="59.7868217" lon="17.6575605">
        <ele>3.02124</ele>
        <time>2014-06-01T11:10:28Z</time>
      </trkpt>
      <trkpt lat="59.7867808" lon="17.6576257">
        <ele>3.50195</ele>
        <time>2014-06-01T11:10:29Z</time>
      </trkpt>
      <trkpt lat="59.7867486" lon="17.6576988">
        <ele>3.50195</ele>
        <time>2014-06-01T11:10:30Z</time>
      </trkpt>
      <trkpt lat="59.7867259" lon="17.657778">
        <ele>3.50195</ele>
        <time>2014-06-01T11:10:31Z</time>
      </trkpt>
      <trkpt lat="59.7867154" lon="17.6578548">
        <ele>3.98267</ele>
        <time>2014-06-01T11:10:32Z</time>
      </trkpt>
      <trkpt lat="59.7867166" lon="17.657926">
        <ele>3.98267</ele>
        <time>2014-06-01T11:10:33Z</time>
      </trkpt>
      <trkpt lat="59.7867274" lon="17.6579875">
        <ele>4.46326</ele>
        <time>2014-06-01T11:10:34Z</time>
      </trkpt>
      <trkpt lat="59.786743" lon="17.6580431">
        <ele>4.94385</ele>
        <time>2014-06-01T11:10:35Z</time>
      </trkpt>
      <trkpt lat="59.7867595" lon="17.6580966">
        <ele>4.94385</ele>
        <time>2014-06-01T11:10:36Z</time>
      </trkpt>
      <trkpt lat="59.7867778" lon="17.6581452">
        <ele>4.94385</ele>
        <time>2014-06-01T11:10:37Z</time>
      </trkpt>
      <trkpt lat="59.7867984" lon="17.6581898">
        <ele>4.94385</ele>
        <time>2014-06-01T11:10:38Z</time>
      </trkpt>
      <trkpt lat="59.786819" lon="17.6582365">
        <ele>5.42456</ele>
        <time>2014-06-01T11:10:39Z</time>
      </trkpt>
      <trkpt lat="59.7868361" lon="17.6582841">
        <ele>5.42456</ele>
        <time>2014-06-01T11:10:40Z</time>
      </trkpt>
      <trkpt lat="59.7868506" lon="17.6583313">
        <ele>5.90527</ele>
        <time>2014-06-01T11:10:41Z</time>
      </trkpt>
      <trkpt lat="59.7868615" lon="17.6583834">
        <ele>5.90527</ele>
        <time>2014-06-01T11:10:42Z</time>
      </trkpt>
      <trkpt lat="59.7868679" lon="17.6584386">
        <ele>6.38586</ele>
        <time>2014-06-01T11:10:43Z</time>
      </trkpt>
      <trkpt lat="59.786872" lon="17.6584953">
        <ele>6.38586</ele>
        <time>2014-06-01T11:10:44Z</time>
      </trkpt>
      <trkpt lat="59.7868723" lon="17.6585528">
        <ele>6.86646</ele>
        <time>2014-06-01T11:10:45Z</time>
      </trkpt>
      <trkpt lat="59.7868684" lon="17.6586105">
        <ele>6.86646</ele>
        <time>2014-06-01T11:10:46Z</time>
      </trkpt>
      <trkpt lat="59.786865" lon="17.658668">
        <ele>7.34717</ele>
        <time>2014-06-01T11:10:47Z</time>
      </trkpt>
      <trkpt lat="59.7868631" lon="17.6587256">
        <ele>7.34717</ele>
        <time>2014-06-01T11:10:48Z</time>
      </trkpt>
      <trkpt lat="59.7868619" lon="17.6587841">
        <ele>7.34717</ele>
        <time>2014-06-01T11:10:49Z</time>
      </trkpt>
      <trkpt lat="59.7868626" lon="17.658843">
        <ele>7.34717</ele>
        <time>2014-06-01T11:10:50Z</time>
      </trkpt>
      <trkpt lat="59.7868672" lon="17.6589027">
        <ele>7.82788</ele>
        <time>2014-06-01T11:10:51Z</time>
      </trkpt>
      <trkpt lat="59.7868736" lon="17.6589615">
        <ele>7.82788</ele>
        <time>2014-06-01T11:10:52Z</time>
      </trkpt>
      <trkpt lat="59.7868806" lon="17.6590159">
        <ele>7.82788</ele>
        <time>2014-06-01T11:10:53Z</time>
      </trkpt>
      <trkpt lat="59.7868879" lon="17.6590651">
        <ele>7.34717</ele>
        <time>2014-06-01T11:10:54Z</time>
      </trkpt>
      <trkpt lat="59.7868979" lon="17.6591094">
        <ele>7.82788</ele>
        <time>2014-06-01T11:10:55Z</time>
      </trkpt>
      <trkpt lat="59.7869147" lon="17.6591405">
        <ele>7.82788</ele>
        <time>2014-06-01T11:10:56Z</time>
      </trkpt>
      <trkpt lat="59.7869344" lon="17.6591639">
        <ele>7.82788</ele>
        <time>2014-06-01T11:10:57Z</time>
      </trkpt>
      <trkpt lat="59.7869528" lon="17.6591918">
        <ele>7.82788</ele>
        <time>2014-06-01T11:10:58Z</time>
      </trkpt>
      <trkpt lat="59.7869635" lon="17.6592232">
        <ele>7.82788</ele>
        <time>2014-06-01T11:10:59Z</time>
      </trkpt>
      <trkpt lat="59.78696" lon="17.6592643">
        <ele>7.82788</ele>
        <time>2014-06-01T11:11:00Z</time>
      </trkpt>
      <trkpt lat="59.7869565" lon="17.6593133">
        <ele>7.82788</ele>
        <time>2014-06-01T11:11:01Z</time>
      </trkpt>
      <trkpt lat="59.7869646" lon="17.6593657">
        <ele>7.82788</ele>
        <time>2014-06-01T11:11:02Z</time>
      </trkpt>
      <trkpt lat="59.7869879" lon="17.6594084">
        <ele>7.82788</ele>
        <time>2014-06-01T11:11:03Z</time>
      </trkpt>
      <trkpt lat="59.7870225" lon="17.6594362">
        <ele>7.82788</ele>
        <time>2014-06-01T11:11:04Z</time>
      </trkpt>
      <trkpt lat="59.7870598" lon="17.6594519">
        <ele>8.30859</ele>
        <time>2014-06-01T11:11:05Z</time>
      </trkpt>
      <trkpt lat="59.7870971" lon="17.6594588">
        <ele>8.30859</ele>
        <time>2014-06-01T11:11:06Z</time>
      </trkpt>
      <trkpt lat="59.7871359" lon="17.6594576">
        <ele>8.30859</ele>
        <time>2014-06-01T11:11:07Z</time>
      </trkpt>
      <trkpt lat="59.7871769" lon="17.6594535">
        <ele>8.30859</ele>
        <time>2014-06-01T11:11:08Z</time>
      </trkpt>
      <trkpt lat="59.7872174" lon="17.6594528">
        <ele>8.30859</ele>
        <time>2014-06-01T11:11:09Z</time>
      </trkpt>
      <trkpt lat="59.7872569" lon="17.6594657">
        <ele>8.78918</ele>
        <time>2014-06-01T11:11:10Z</time>
      </trkpt>
      <trkpt lat="59.787294" lon="17.6594992">
        <ele>8.78918</ele>
        <time>2014-06-01T11:11:11Z</time>
      </trkpt>
      <trkpt lat="59.7873268" lon="17.6595522">
        <ele>8.78918</ele>
        <time>2014-06-01T11:11:12Z</time>
      </trkpt>
      <trkpt lat="59.7873549" lon="17.6596195">
        <ele>9.2699</ele>
        <time>2014-06-01T11:11:13Z</time>
      </trkpt>
      <trkpt lat="59.7873775" lon="17.6596906">
        <ele>8.78918</ele>
        <time>2014-06-01T11:11:14Z</time>
      </trkpt>
      <trkpt lat="59.7874003" lon="17.6597634">
        <ele>8.78918</ele>
        <time>2014-06-01T11:11:15Z</time>
      </trkpt>
      <trkpt lat="59.7874235" lon="17.659838">
        <ele>8.78918</ele>
        <time>2014-06-01T11:11:16Z</time>
      </trkpt>
      <trkpt lat="59.7874475" lon="17.6599139">
        <ele>8.78918</ele>
        <time>2014-06-01T11:11:17Z</time>
      </trkpt>
      <trkpt lat="59.7874718" lon="17.6599906">
        <ele>8.78918</ele>
        <time>2014-06-01T11:11:18Z</time>
      </trkpt>
      <trkpt lat="59.7874955" lon="17.6600636">
        <ele>8.78918</ele>
        <time>2014-06-01T11:11:19Z</time>
      </trkpt>
      <trkpt lat="59.7875174" lon="17.6601357">
        <ele>9.2699</ele>
        <time>2014-06-01T11:11:20Z</time>
      </trkpt>
      <trkpt lat="59.7875374" lon="17.660204">
        <ele>8.78918</ele>
        <time>2014-06-01T11:11:21Z</time>
      </trkpt>
      <trkpt lat="59.7875562" lon="17.66027">
        <ele>8.78918</ele>
        <time>2014-06-01T11:11:22Z</time>
      </trkpt>
      <trkpt lat="59.7875713" lon="17.6603374">
        <ele>8.78918</ele>
        <time>2014-06-01T11:11:23Z</time>
      </trkpt>
      <trkpt lat="59.7875862" lon="17.6603997">
        <ele>8.78918</ele>
        <time>2014-06-01T11:11:24Z</time>
      </trkpt>
      <trkpt lat="59.7876025" lon="17.6604599">
        <ele>8.78918</ele>
        <time>2014-06-01T11:11:25Z</time>
      </trkpt>
      <trkpt lat="59.7876224" lon="17.6605182">
        <ele>8.78918</ele>
        <time>2014-06-01T11:11:26Z</time>
      </trkpt>
      <trkpt lat="59.7876428" lon="17.6605751">
        <ele>8.78918</ele>
        <time>2014-06-01T11:11:27Z</time>
      </trkpt>
      <trkpt lat="59.7876646" lon="17.6606293">
        <ele>8.78918</ele>
        <time>2014-06-01T11:11:28Z</time>
      </trkpt>
      <trkpt lat="59.7876842" lon="17.6606804">
        <ele>8.78918</ele>
        <time>2014-06-01T11:11:29Z</time>
      </trkpt>
      <trkpt lat="59.7876992" lon="17.6607311">
        <ele>8.78918</ele>
        <time>2014-06-01T11:11:30Z</time>
      </trkpt>
      <trkpt lat="59.7877137" lon="17.6607712">
        <ele>9.2699</ele>
        <time>2014-06-01T11:11:31Z</time>
      </trkpt>
      <trkpt lat="59.7877226" lon="17.6608095">
        <ele>9.2699</ele>
        <time>2014-06-01T11:11:32Z</time>
      </trkpt>
      <trkpt lat="59.7877306" lon="17.6608509">
        <ele>9.2699</ele>
        <time>2014-06-01T11:11:33Z</time>
      </trkpt>
      <trkpt lat="59.7877323" lon="17.660897">
        <ele>9.2699</ele>
        <time>2014-06-01T11:11:34Z</time>
      </trkpt>
      <trkpt lat="59.7877277" lon="17.6609507">
        <ele>8.78918</ele>
        <time>2014-06-01T11:11:35Z</time>
      </trkpt>
      <trkpt lat="59.7877225" lon="17.6609846">
        <ele>8.78918</ele>
        <time>2014-06-01T11:11:36Z</time>
      </trkpt>
      <trkpt lat="59.7877197" lon="17.6609922">
        <ele>8.78918</ele>
        <time>2014-06-01T11:11:37Z</time>
      </trkpt>
      <trkpt lat="59.7877192" lon="17.6609865">
        <ele>8.78918</ele>
        <time>2014-06-01T11:11:38Z</time>
      </trkpt>
      <trkpt lat="59.7877174" lon="17.6609837">
        <ele>8.78918</ele>
        <time>2014-06-01T11:11:39Z</time>
      </trkpt>
      <trkpt lat="59.787724" lon="17.6610261">
        <ele>10.2312</ele>
        <time>2014-06-01T11:12:35Z</time>
      </trkpt>
      <trkpt lat="59.7877411" lon="17.6610274">
        <ele>10.2312</ele>
        <time>2014-06-01T11:12:36Z</time>
      </trkpt>
      <trkpt lat="59.7877545" lon="17.6610068">
        <ele>9.75061</ele>
        <time>2014-06-01T11:12:37Z</time>
      </trkpt>
      <trkpt lat="59.7877541" lon="17.6609793">
        <ele>9.75061</ele>
        <time>2014-06-01T11:12:38Z</time>
      </trkpt>
      <trkpt lat="59.7877413" lon="17.6609614">
        <ele>9.75061</ele>
        <time>2014-06-01T11:12:39Z</time>
      </trkpt>
      <trkpt lat="59.7877255" lon="17.6609654">
        <ele>9.2699</ele>
        <time>2014-06-01T11:12:40Z</time>
      </trkpt>
      <trkpt lat="59.7877117" lon="17.6609875">
        <ele>9.2699</ele>
        <time>2014-06-01T11:12:41Z</time>
      </trkpt>
      <trkpt lat="59.7877026" lon="17.6610033">
        <ele>9.2699</ele>
        <time>2014-06-01T11:12:42Z</time>
      </trkpt>
      <trkpt lat="59.7876959" lon="17.6610078">
        <ele>8.78918</ele>
        <time>2014-06-01T11:12:43Z</time>
      </trkpt>
      <trkpt lat="59.7876919" lon="17.6610092">
        <ele>8.78918</ele>
        <time>2014-06-01T11:12:44Z</time>
      </trkpt>
      <trkpt lat="59.7876882" lon="17.661012">
        <ele>8.78918</ele>
        <time>2014-06-01T11:12:45Z</time>
      </trkpt>
      <trkpt lat="59.7876846" lon="17.6610146">
        <ele>9.2699</ele>
        <time>2014-06-01T11:12:46Z</time>
      </trkpt>
      <trkpt lat="59.787612" lon="17.6612724">
        <ele>4.46326</ele>
        <time>2014-06-01T11:14:13Z</time>
      </trkpt>
      <trkpt lat="59.7876101" lon="17.6613166">
        <ele>4.46326</ele>
        <time>2014-06-01T11:14:14Z</time>
      </trkpt>
      <trkpt lat="59.7876034" lon="17.6613675">
        <ele>4.46326</ele>
        <time>2014-06-01T11:14:15Z</time>
      </trkpt>
      <trkpt lat="59.787593" lon="17.6614265">
        <ele>3.98267</ele>
        <time>2014-06-01T11:14:16Z</time>
      </trkpt>
      <trkpt lat="59.7875793" lon="17.6614927">
        <ele>3.98267</ele>
        <time>2014-06-01T11:14:17Z</time>
      </trkpt>
      <trkpt lat="59.7875635" lon="17.6615663">
        <ele>3.98267</ele>
        <time>2014-06-01T11:14:18Z</time>
      </trkpt>
      <trkpt lat="59.7875446" lon="17.6616456">
        <ele>3.98267</ele>
        <time>2014-06-01T11:14:19Z</time>
      </trkpt>
      <trkpt lat="59.787521" lon="17.6617269">
        <ele>3.98267</ele>
        <time>2014-06-01T11:14:20Z</time>
      </trkpt>
      <trkpt lat="59.7874951" lon="17.6618106">
        <ele>3.98267</ele>
        <time>2014-06-01T11:14:21Z</time>
      </trkpt>
      <trkpt lat="59.7874691" lon="17.6618968">
        <ele>3.98267</ele>
        <time>2014-06-01T11:14:22Z</time>
      </trkpt>
      <trkpt lat="59.7874414" lon="17.661986">
        <ele>3.98267</ele>
        <time>2014-06-01T11:14:23Z</time>
      </trkpt>
      <trkpt lat="59.7874143" lon="17.6620774">
        <ele>3.98267</ele>
        <time>2014-06-01T11:14:24Z</time>
      </trkpt>
      <trkpt lat="59.7873879" lon="17.6621703">
        <ele>3.98267</ele>
        <time>2014-06-01T11:14:25Z</time>
      </trkpt>
      <trkpt lat="59.787362" lon="17.6622634">
        <ele>4.46326</ele>
        <time>2014-06-01T11:14:26Z</time>
      </trkpt>
      <trkpt lat="59.787335" lon="17.6623553">
        <ele>4.46326</ele>
        <time>2014-06-01T11:14:27Z</time>
      </trkpt>
      <trkpt lat="59.7873077" lon="17.6624481">
        <ele>4.46326</ele>
        <time>2014-06-01T11:14:28Z</time>
      </trkpt>
      <trkpt lat="59.7872794" lon="17.6625421">
        <ele>4.46326</ele>
        <time>2014-06-01T11:14:29Z</time>
      </trkpt>
      <trkpt lat="59.78725" lon="17.6626356">
        <ele>4.46326</ele>
        <time>2014-06-01T11:14:30Z</time>
      </trkpt>
      <trkpt lat="59.7872181" lon="17.6627293">
        <ele>4.46326</ele>
        <time>2014-06-01T11:14:31Z</time>
      </trkpt>
      <trkpt lat="59.7871874" lon="17.6628255">
        <ele>4.46326</ele>
        <time>2014-06-01T11:14:32Z</time>
      </trkpt>
      <trkpt lat="59.7871575" lon="17.6629226">
        <ele>4.94385</ele>
        <time>2014-06-01T11:14:33Z</time>
      </trkpt>
      <trkpt lat="59.7871289" lon="17.6630182">
        <ele>4.94385</ele>
        <time>2014-06-01T11:14:34Z</time>
      </trkpt>
      <trkpt lat="59.7871019" lon="17.6631114">
        <ele>4.94385</ele>
        <time>2014-06-01T11:14:35Z</time>
      </trkpt>
      <trkpt lat="59.7870765" lon="17.6631999">
        <ele>4.94385</ele>
        <time>2014-06-01T11:14:36Z</time>
      </trkpt>
      <trkpt lat="59.7870512" lon="17.6632828">
        <ele>4.94385</ele>
        <time>2014-06-01T11:14:37Z</time>
      </trkpt>
      <trkpt lat="59.7870279" lon="17.663362">
        <ele>5.42456</ele>
        <time>2014-06-01T11:14:38Z</time>
      </trkpt>
      <trkpt lat="59.7870064" lon="17.6634377">
        <ele>5.42456</ele>
        <time>2014-06-01T11:14:39Z</time>
      </trkpt>
      <trkpt lat="59.7869871" lon="17.6635084">
        <ele>5.42456</ele>
        <time>2014-06-01T11:14:40Z</time>
      </trkpt>
      <trkpt lat="59.7869693" lon="17.663572">
        <ele>5.90527</ele>
        <time>2014-06-01T11:14:41Z</time>
      </trkpt>
      <trkpt lat="59.7869523" lon="17.6636301">
        <ele>5.90527</ele>
        <time>2014-06-01T11:14:42Z</time>
      </trkpt>
      <trkpt lat="59.7869372" lon="17.663685">
        <ele>5.90527</ele>
        <time>2014-06-01T11:14:43Z</time>
      </trkpt>
      <trkpt lat="59.7869232" lon="17.6637377">
        <ele>6.38586</ele>
        <time>2014-06-01T11:14:44Z</time>
      </trkpt>
      <trkpt lat="59.7869086" lon="17.6637871">
        <ele>6.38586</ele>
        <time>2014-06-01T11:14:45Z</time>
      </trkpt>
      <trkpt lat="59.7868933" lon="17.6638348">
        <ele>6.86646</ele>
        <time>2014-06-01T11:14:46Z</time>
      </trkpt>
      <trkpt lat="59.7868777" lon="17.6638838">
        <ele>6.86646</ele>
        <time>2014-06-01T11:14:47Z</time>
      </trkpt>
      <trkpt lat="59.7868626" lon="17.663933">
        <ele>7.34717</ele>
        <time>2014-06-01T11:14:48Z</time>
      </trkpt>
      <trkpt lat="59.786848" lon="17.6639821">
        <ele>7.82788</ele>
        <time>2014-06-01T11:14:49Z</time>
      </trkpt>
      <trkpt lat="59.7868335" lon="17.6640327">
        <ele>7.82788</ele>
        <time>2014-06-01T11:14:50Z</time>
      </trkpt>
      <trkpt lat="59.786818" lon="17.6640854">
        <ele>8.30859</ele>
        <time>2014-06-01T11:14:51Z</time>
      </trkpt>
      <trkpt lat="59.7868021" lon="17.6641389">
        <ele>8.30859</ele>
        <time>2014-06-01T11:14:52Z</time>
      </trkpt>
      <trkpt lat="59.7867858" lon="17.6641932">
        <ele>8.78918</ele>
        <time>2014-06-01T11:14:53Z</time>
      </trkpt>
      <trkpt lat="59.7867681" lon="17.6642456">
        <ele>9.2699</ele>
        <time>2014-06-01T11:14:54Z</time>
      </trkpt>
      <trkpt lat="59.7867505" lon="17.6642988">
        <ele>9.2699</ele>
        <time>2014-06-01T11:14:55Z</time>
      </trkpt>
      <trkpt lat="59.7867336" lon="17.6643541">
        <ele>9.75061</ele>
        <time>2014-06-01T11:14:56Z</time>
      </trkpt>
      <trkpt lat="59.7867159" lon="17.6644071">
        <ele>9.75061</ele>
        <time>2014-06-01T11:14:57Z</time>
      </trkpt>
      <trkpt lat="59.7866967" lon="17.6644604">
        <ele>9.75061</ele>
        <time>2014-06-01T11:14:58Z</time>
      </trkpt>
      <trkpt lat="59.7866777" lon="17.6645129">
        <ele>10.2312</ele>
        <time>2014-06-01T11:14:59Z</time>
      </trkpt>
      <trkpt lat="59.7866576" lon="17.6645616">
        <ele>10.2312</ele>
        <time>2014-06-01T11:15:00Z</time>
      </trkpt>
      <trkpt lat="59.7866369" lon="17.6646099">
        <ele>10.2312</ele>
        <time>2014-06-01T11:15:01Z</time>
      </trkpt>
      <trkpt lat="59.786615" lon="17.6646579">
        <ele>10.7118</ele>
        <time>2014-06-01T11:15:02Z</time>
      </trkpt>
      <trkpt lat="59.7865911" lon="17.6647039">
        <ele>10.7118</ele>
        <time>2014-06-01T11:15:03Z</time>
      </trkpt>
      <trkpt lat="59.7865662" lon="17.6647488">
        <ele>11.1925</ele>
        <time>2014-06-01T11:15:04Z</time>
      </trkpt>
      <trkpt lat="59.7865409" lon="17.6647943">
        <ele>11.1925</ele>
        <time>2014-06-01T11:15:05Z</time>
      </trkpt>
      <trkpt lat="59.7865149" lon="17.6648379">
        <ele>11.6732</ele>
        <time>2014-06-01T11:15:06Z</time>
      </trkpt>
      <trkpt lat="59.7864881" lon="17.6648789">
        <ele>11.6732</ele>
        <time>2014-06-01T11:15:07Z</time>
      </trkpt>
      <trkpt lat="59.786461" lon="17.6649171">
        <ele>11.6732</ele>
        <time>2014-06-01T11:15:08Z</time>
      </trkpt>
      <trkpt lat="59.7864326" lon="17.664951">
        <ele>12.1538</ele>
        <time>2014-06-01T11:15:09Z</time>
      </trkpt>
      <trkpt lat="59.7864036" lon="17.6649824">
        <ele>12.1538</ele>
        <time>2014-06-01T11:15:10Z</time>
      </trkpt>
      <trkpt lat="59.7863743" lon="17.6650136">
        <ele>12.6344</ele>
        <time>2014-06-01T11:15:11Z</time>
      </trkpt>
      <trkpt lat="59.7863449" lon="17.6650437">
        <ele>12.6344</ele>
        <time>2014-06-01T11:15:12Z</time>
      </trkpt>
      <trkpt lat="59.7863151" lon="17.6650706">
        <ele>12.6344</ele>
        <time>2014-06-01T11:15:13Z</time>
      </trkpt>
      <trkpt lat="59.7862852" lon="17.6650949">
        <ele>13.1151</ele>
        <time>2014-06-01T11:15:14Z</time>
      </trkpt>
      <trkpt lat="59.7862555" lon="17.6651171">
        <ele>13.1151</ele>
        <time>2014-06-01T11:15:15Z</time>
      </trkpt>
      <trkpt lat="59.7862251" lon="17.6651364">
        <ele>13.5958</ele>
        <time>2014-06-01T11:15:16Z</time>
      </trkpt>
      <trkpt lat="59.7861944" lon="17.6651545">
        <ele>13.5958</ele>
        <time>2014-06-01T11:15:17Z</time>
      </trkpt>
      <trkpt lat="59.7861638" lon="17.6651701">
        <ele>14.0764</ele>
        <time>2014-06-01T11:15:18Z</time>
      </trkpt>
      <trkpt lat="59.7861328" lon="17.665182">
        <ele>14.0764</ele>
        <time>2014-06-01T11:15:19Z</time>
      </trkpt>
      <trkpt lat="59.7861012" lon="17.6651929">
        <ele>14.0764</ele>
        <time>2014-06-01T11:15:20Z</time>
      </trkpt>
      <trkpt lat="59.7860696" lon="17.665208">
        <ele>14.557</ele>
        <time>2014-06-01T11:15:21Z</time>
      </trkpt>
      <trkpt lat="59.7860388" lon="17.665228">
        <ele>14.557</ele>
        <time>2014-06-01T11:15:22Z</time>
      </trkpt>
      <trkpt lat="59.786007" lon="17.6652452">
        <ele>15.0377</ele>
        <time>2014-06-01T11:15:23Z</time>
      </trkpt>
      <trkpt lat="59.7859747" lon="17.6652572">
        <ele>15.0377</ele>
        <time>2014-06-01T11:15:24Z</time>
      </trkpt>
      <trkpt lat="59.7859421" lon="17.6652673">
        <ele>15.5184</ele>
        <time>2014-06-01T11:15:25Z</time>
      </trkpt>
      <trkpt lat="59.7859091" lon="17.6652757">
        <ele>15.5184</ele>
        <time>2014-06-01T11:15:26Z</time>
      </trkpt>
      <trkpt lat="59.7858758" lon="17.6652815">
        <ele>15.999</ele>
        <time>2014-06-01T11:15:27Z</time>
      </trkpt>
      <trkpt lat="59.7858425" lon="17.6652834">
        <ele>15.999</ele>
        <time>2014-06-01T11:15:28Z</time>
      </trkpt>
      <trkpt lat="59.7858098" lon="17.6652844">
        <ele>16.4797</ele>
        <time>2014-06-01T11:15:29Z</time>
      </trkpt>
      <trkpt lat="59.7857778" lon="17.6652871">
        <ele>16.4797</ele>
        <time>2014-06-01T11:15:30Z</time>
      </trkpt>
      <trkpt lat="59.7857463" lon="17.6652846">
        <ele>16.4797</ele>
        <time>2014-06-01T11:15:31Z</time>
      </trkpt>
      <trkpt lat="59.7857158" lon="17.6652774">
        <ele>16.9604</ele>
        <time>2014-06-01T11:15:32Z</time>
      </trkpt>
      <trkpt lat="59.7856866" lon="17.665279">
        <ele>16.9604</ele>
        <time>2014-06-01T11:15:33Z</time>
      </trkpt>
      <trkpt lat="59.7856607" lon="17.665293">
        <ele>16.9604</ele>
        <time>2014-06-01T11:15:34Z</time>
      </trkpt>
      <trkpt lat="59.7856385" lon="17.6653156">
        <ele>17.4412</ele>
        <time>2014-06-01T11:15:35Z</time>
      </trkpt>
      <trkpt lat="59.7856199" lon="17.6653441">
        <ele>17.4412</ele>
        <time>2014-06-01T11:15:36Z</time>
      </trkpt>
      <trkpt lat="59.785606" lon="17.6653771">
        <ele>17.9218</ele>
        <time>2014-06-01T11:15:37Z</time>
      </trkpt>
      <trkpt lat="59.785596" lon="17.6654155">
        <ele>18.4023</ele>
        <time>2014-06-01T11:15:38Z</time>
      </trkpt>
      <trkpt lat="59.7855904" lon="17.6654533">
        <ele>18.4023</ele>
        <time>2014-06-01T11:15:39Z</time>
      </trkpt>
      <trkpt lat="59.7855887" lon="17.6654914">
        <ele>18.4023</ele>
        <time>2014-06-01T11:15:40Z</time>
      </trkpt>
      <trkpt lat="59.7855941" lon="17.6655249">
        <ele>18.4023</ele>
        <time>2014-06-01T11:15:41Z</time>
      </trkpt>
      <trkpt lat="59.785607" lon="17.6655523">
        <ele>18.4023</ele>
        <time>2014-06-01T11:15:42Z</time>
      </trkpt>
      <trkpt lat="59.7856246" lon="17.6655783">
        <ele>17.9218</ele>
        <time>2014-06-01T11:15:43Z</time>
      </trkpt>
      <trkpt lat="59.7856432" lon="17.6656093">
        <ele>17.9218</ele>
        <time>2014-06-01T11:15:44Z</time>
      </trkpt>
      <trkpt lat="59.7856603" lon="17.6656384">
        <ele>17.9218</ele>
        <time>2014-06-01T11:15:45Z</time>
      </trkpt>
      <trkpt lat="59.785679" lon="17.6656617">
        <ele>17.4412</ele>
        <time>2014-06-01T11:15:46Z</time>
      </trkpt>
      <trkpt lat="59.7857019" lon="17.6656886">
        <ele>17.4412</ele>
        <time>2014-06-01T11:15:47Z</time>
      </trkpt>
      <trkpt lat="59.7857195" lon="17.6657156">
        <ele>17.4412</ele>
        <time>2014-06-01T11:15:48Z</time>
      </trkpt>
      <trkpt lat="59.7857324" lon="17.6657533">
        <ele>16.9604</ele>
        <time>2014-06-01T11:15:49Z</time>
      </trkpt>
      <trkpt lat="59.7857442" lon="17.6657905">
        <ele>16.4797</ele>
        <time>2014-06-01T11:15:50Z</time>
      </trkpt>
      <trkpt lat="59.785756" lon="17.6658237">
        <ele>16.4797</ele>
        <time>2014-06-01T11:15:51Z</time>
      </trkpt>
      <trkpt lat="59.785766" lon="17.6658595">
        <ele>15.999</ele>
        <time>2014-06-01T11:15:52Z</time>
      </trkpt>
      <trkpt lat="59.7857707" lon="17.6658969">
        <ele>15.0377</ele>
        <time>2014-06-01T11:15:53Z</time>
      </trkpt>
      <trkpt lat="59.7857775" lon="17.665933">
        <ele>14.557</ele>
        <time>2014-06-01T11:15:54Z</time>
      </trkpt>
      <trkpt lat="59.7857841" lon="17.6659658">
        <ele>14.0764</ele>
        <time>2014-06-01T11:15:55Z</time>
      </trkpt>
      <trkpt lat="59.7857903" lon="17.6659961">
        <ele>13.5958</ele>
        <time>2014-06-01T11:15:56Z</time>
      </trkpt>
      <trkpt lat="59.7857993" lon="17.6660314">
        <ele>13.1151</ele>
        <time>2014-06-01T11:15:57Z</time>
      </trkpt>
      <trkpt lat="59.7858074" lon="17.6660741">
        <ele>12.6344</ele>
        <time>2014-06-01T11:15:58Z</time>
      </trkpt>
      <trkpt lat="59.7858133" lon="17.666116">
        <ele>12.1538</ele>
        <time>2014-06-01T11:15:59Z</time>
      </trkpt>
      <trkpt lat="59.7858225" lon="17.6661517">
        <ele>11.1925</ele>
        <time>2014-06-01T11:16:00Z</time>
      </trkpt>
      <trkpt lat="59.7858357" lon="17.6661888">
        <ele>11.1925</ele>
        <time>2014-06-01T11:16:01Z</time>
      </trkpt>
      <trkpt lat="59.7858483" lon="17.6662251">
        <ele>10.7118</ele>
        <time>2014-06-01T11:16:02Z</time>
      </trkpt>
      <trkpt lat="59.7858598" lon="17.6662631">
        <ele>10.2312</ele>
        <time>2014-06-01T11:16:03Z</time>
      </trkpt>
      <trkpt lat="59.7858686" lon="17.6662988">
        <ele>9.75061</ele>
        <time>2014-06-01T11:16:04Z</time>
      </trkpt>
      <trkpt lat="59.7858746" lon="17.6663372">
        <ele>9.2699</ele>
        <time>2014-06-01T11:16:05Z</time>
      </trkpt>
      <trkpt lat="59.7858825" lon="17.6663776">
        <ele>8.78918</ele>
        <time>2014-06-01T11:16:06Z</time>
      </trkpt>
      <trkpt lat="59.7858884" lon="17.6664199">
        <ele>8.30859</ele>
        <time>2014-06-01T11:16:07Z</time>
      </trkpt>
      <trkpt lat="59.7858994" lon="17.66646">
        <ele>8.30859</ele>
        <time>2014-06-01T11:16:08Z</time>
      </trkpt>
      <trkpt lat="59.7859112" lon="17.6665012">
        <ele>8.30859</ele>
        <time>2014-06-01T11:16:09Z</time>
      </trkpt>
      <trkpt lat="59.7859178" lon="17.6665408">
        <ele>7.82788</ele>
        <time>2014-06-01T11:16:10Z</time>
      </trkpt>
      <trkpt lat="59.7859251" lon="17.6665724">
        <ele>7.82788</ele>
        <time>2014-06-01T11:16:11Z</time>
      </trkpt>
      <trkpt lat="59.7859255" lon="17.6666024">
        <ele>6.86646</ele>
        <time>2014-06-01T11:16:12Z</time>
      </trkpt>
      <trkpt lat="59.7859306" lon="17.66663">
        <ele>6.38586</ele>
        <time>2014-06-01T11:16:13Z</time>
      </trkpt>
      <trkpt lat="59.7859369" lon="17.6666672">
        <ele>5.90527</ele>
        <time>2014-06-01T11:16:14Z</time>
      </trkpt>
      <trkpt lat="59.7859794" lon="17.6667255">
        <ele>10.7118</ele>
        <time>2014-06-01T11:16:15Z</time>
      </trkpt>
      <trkpt lat="59.7860121" lon="17.6667776">
        <ele>14.557</ele>
        <time>2014-06-01T11:16:16Z</time>
      </trkpt>
      <trkpt lat="59.7860343" lon="17.6668249">
        <ele>16.9604</ele>
        <time>2014-06-01T11:16:17Z</time>
      </trkpt>
      <trkpt lat="59.7860541" lon="17.6668723">
        <ele>18.4023</ele>
        <time>2014-06-01T11:16:18Z</time>
      </trkpt>
      <trkpt lat="59.786071" lon="17.6669291">
        <ele>19.3638</ele>
        <time>2014-06-01T11:16:19Z</time>
      </trkpt>
      <trkpt lat="59.7860841" lon="17.6669971">
        <ele>20.325</ele>
        <time>2014-06-01T11:16:20Z</time>
      </trkpt>
      <trkpt lat="59.786096" lon="17.667065">
        <ele>21.2864</ele>
        <time>2014-06-01T11:16:21Z</time>
      </trkpt>
      <trkpt lat="59.7860944" lon="17.6671173">
        <ele>21.2864</ele>
        <time>2014-06-01T11:16:22Z</time>
      </trkpt>
      <trkpt lat="59.7860918" lon="17.6671412">
        <ele>21.2864</ele>
        <time>2014-06-01T11:16:23Z</time>
      </trkpt>
      <trkpt lat="59.7861109" lon="17.6671545">
        <ele>23.6896</ele>
        <time>2014-06-01T11:16:24Z</time>
      </trkpt>
      <trkpt lat="59.7861183" lon="17.667165">
        <ele>25.1317</ele>
        <time>2014-06-01T11:16:25Z</time>
      </trkpt>
      <trkpt lat="59.7861245" lon="17.6671772">
        <ele>25.6123</ele>
        <time>2014-06-01T11:16:26Z</time>
      </trkpt>
      <trkpt lat="59.7861274" lon="17.6671948">
        <ele>26.0929</ele>
        <time>2014-06-01T11:16:27Z</time>
      </trkpt>
      <trkpt lat="59.7861292" lon="17.66721">
        <ele>26.5736</ele>
        <time>2014-06-01T11:16:28Z</time>
      </trkpt>
      <trkpt lat="59.786131" lon="17.6672168">
        <ele>27.0543</ele>
        <time>2014-06-01T11:16:29Z</time>
      </trkpt>
      <trkpt lat="59.7861322" lon="17.6672199">
        <ele>27.0543</ele>
        <time>2014-06-01T11:16:30Z</time>
      </trkpt>
      <trkpt lat="59.7861199" lon="17.6673443">
        <ele>26.0929</ele>
        <time>2014-06-01T11:16:35Z</time>
      </trkpt>
      <trkpt lat="59.7861167" lon="17.6673871">
        <ele>26.5736</ele>
        <time>2014-06-01T11:16:36Z</time>
      </trkpt>
      <trkpt lat="59.7861131" lon="17.6674316">
        <ele>26.0929</ele>
        <time>2014-06-01T11:16:37Z</time>
      </trkpt>
      <trkpt lat="59.7861177" lon="17.6674736">
        <ele>25.6123</ele>
        <time>2014-06-01T11:16:38Z</time>
      </trkpt>
      <trkpt lat="59.786124" lon="17.6675202">
        <ele>25.6123</ele>
        <time>2014-06-01T11:16:39Z</time>
      </trkpt>
      <trkpt lat="59.7861303" lon="17.6675679">
        <ele>25.6123</ele>
        <time>2014-06-01T11:16:40Z</time>
      </trkpt>
      <trkpt lat="59.7861344" lon="17.6676222">
        <ele>25.1317</ele>
        <time>2014-06-01T11:16:41Z</time>
      </trkpt>
      <trkpt lat="59.7861457" lon="17.6676747">
        <ele>25.1317</ele>
        <time>2014-06-01T11:16:42Z</time>
      </trkpt>
      <trkpt lat="59.7861611" lon="17.6677211">
        <ele>25.1317</ele>
        <time>2014-06-01T11:16:43Z</time>
      </trkpt>
      <trkpt lat="59.786179" lon="17.6677597">
        <ele>24.651</ele>
        <time>2014-06-01T11:16:44Z</time>
      </trkpt>
      <trkpt lat="59.7861983" lon="17.6677996">
        <ele>24.651</ele>
        <time>2014-06-01T11:16:45Z</time>
      </trkpt>
      <trkpt lat="59.7862196" lon="17.6678402">
        <ele>25.1317</ele>
        <time>2014-06-01T11:16:46Z</time>
      </trkpt>
      <trkpt lat="59.7862389" lon="17.6678814">
        <ele>24.1703</ele>
        <time>2014-06-01T11:16:47Z</time>
      </trkpt>
      <trkpt lat="59.7862603" lon="17.6679239">
        <ele>24.1703</ele>
        <time>2014-06-01T11:16:48Z</time>
      </trkpt>
      <trkpt lat="59.7862719" lon="17.6679631">
        <ele>23.6896</ele>
        <time>2014-06-01T11:16:49Z</time>
      </trkpt>
      <trkpt lat="59.7862831" lon="17.6680102">
        <ele>23.6896</ele>
        <time>2014-06-01T11:16:50Z</time>
      </trkpt>
      <trkpt lat="59.7862988" lon="17.6680619">
        <ele>23.209</ele>
        <time>2014-06-01T11:16:51Z</time>
      </trkpt>
      <trkpt lat="59.7863113" lon="17.6681107">
        <ele>22.2476</ele>
        <time>2014-06-01T11:16:52Z</time>
      </trkpt>
      <trkpt lat="59.786317" lon="17.6681642">
        <ele>21.2864</ele>
        <time>2014-06-01T11:16:53Z</time>
      </trkpt>
      <trkpt lat="59.7863172" lon="17.6682216">
        <ele>19.8444</ele>
        <time>2014-06-01T11:16:54Z</time>
      </trkpt>
      <trkpt lat="59.786326" lon="17.6682891">
        <ele>19.3638</ele>
        <time>2014-06-01T11:16:55Z</time>
      </trkpt>
      <trkpt lat="59.7863299" lon="17.6683578">
        <ele>18.8831</ele>
        <time>2014-06-01T11:16:56Z</time>
      </trkpt>
      <trkpt lat="59.7863255" lon="17.6684267">
        <ele>18.4023</ele>
        <time>2014-06-01T11:16:57Z</time>
      </trkpt>
      <trkpt lat="59.7863177" lon="17.6684957">
        <ele>17.9218</ele>
        <time>2014-06-01T11:16:58Z</time>
      </trkpt>
      <trkpt lat="59.7863011" lon="17.6685651">
        <ele>17.4412</ele>
        <time>2014-06-01T11:16:59Z</time>
      </trkpt>
      <trkpt lat="59.7862835" lon="17.6686329">
        <ele>16.4797</ele>
        <time>2014-06-01T11:17:00Z</time>
      </trkpt>
      <trkpt lat="59.7862658" lon="17.6686975">
        <ele>15.999</ele>
        <time>2014-06-01T11:17:01Z</time>
      </trkpt>
      <trkpt lat="59.7862475" lon="17.6687572">
        <ele>15.5184</ele>
        <time>2014-06-01T11:17:02Z</time>
      </trkpt>
      <trkpt lat="59.7862762" lon="17.6688324">
        <ele>21.767</ele>
        <time>2014-06-01T11:17:03Z</time>
      </trkpt>
      <trkpt lat="59.7862617" lon="17.6688906">
        <ele>21.767</ele>
        <time>2014-06-01T11:17:04Z</time>
      </trkpt>
      <trkpt lat="59.7862778" lon="17.6689561">
        <ele>25.6123</ele>
        <time>2014-06-01T11:17:05Z</time>
      </trkpt>
      <trkpt lat="59.7862835" lon="17.6690099">
        <ele>28.0155</ele>
        <time>2014-06-01T11:17:06Z</time>
      </trkpt>
      <trkpt lat="59.7862843" lon="17.6690457">
        <ele>29.4575</ele>
        <time>2014-06-01T11:17:07Z</time>
      </trkpt>
      <trkpt lat="59.7862757" lon="17.6690734">
        <ele>30.4188</ele>
        <time>2014-06-01T11:17:08Z</time>
      </trkpt>
      <trkpt lat="59.7862689" lon="17.6691018">
        <ele>30.8995</ele>
        <time>2014-06-01T11:17:09Z</time>
      </trkpt>
      <trkpt lat="59.7862566" lon="17.6691316">
        <ele>30.8995</ele>
        <time>2014-06-01T11:17:10Z</time>
      </trkpt>
      <trkpt lat="59.7862429" lon="17.6691712">
        <ele>31.8607</ele>
        <time>2014-06-01T11:17:11Z</time>
      </trkpt>
      <trkpt lat="59.7862285" lon="17.6692097">
        <ele>32.3416</ele>
        <time>2014-06-01T11:17:12Z</time>
      </trkpt>
      <trkpt lat="59.7862157" lon="17.6692516">
        <ele>33.3029</ele>
        <time>2014-06-01T11:17:13Z</time>
      </trkpt>
      <trkpt lat="59.7862037" lon="17.6693003">
        <ele>33.3029</ele>
        <time>2014-06-01T11:17:14Z</time>
      </trkpt>
      <trkpt lat="59.7861952" lon="17.6693567">
        <ele>33.7834</ele>
        <time>2014-06-01T11:17:15Z</time>
      </trkpt>
      <trkpt lat="59.7861826" lon="17.6694094">
        <ele>33.7834</ele>
        <time>2014-06-01T11:17:16Z</time>
      </trkpt>
      <trkpt lat="59.7861659" lon="17.6694536">
        <ele>33.3029</ele>
        <time>2014-06-01T11:17:17Z</time>
      </trkpt>
      <trkpt lat="59.786153" lon="17.6695">
        <ele>33.3029</ele>
        <time>2014-06-01T11:17:18Z</time>
      </trkpt>
      <trkpt lat="59.786141" lon="17.6695556">
        <ele>33.7834</ele>
        <time>2014-06-01T11:17:19Z</time>
      </trkpt>
      <trkpt lat="59.7861305" lon="17.6696092">
        <ele>34.2642</ele>
        <time>2014-06-01T11:17:20Z</time>
      </trkpt>
      <trkpt lat="59.7861188" lon="17.6696642">
        <ele>33.7834</ele>
        <time>2014-06-01T11:17:21Z</time>
      </trkpt>
      <trkpt lat="59.7861125" lon="17.6697125">
        <ele>34.2642</ele>
        <time>2014-06-01T11:17:22Z</time>
      </trkpt>
      <trkpt lat="59.7860947" lon="17.6697709">
        <ele>34.2642</ele>
        <time>2014-06-01T11:17:23Z</time>
      </trkpt>
      <trkpt lat="59.7860745" lon="17.6698297">
        <ele>34.2642</ele>
        <time>2014-06-01T11:17:24Z</time>
      </trkpt>
      <trkpt lat="59.7860535" lon="17.6698843">
        <ele>34.7449</ele>
        <time>2014-06-01T11:17:25Z</time>
      </trkpt>
      <trkpt lat="59.7860395" lon="17.6699292">
        <ele>34.2642</ele>
        <time>2014-06-01T11:17:26Z</time>
      </trkpt>
      <trkpt lat="59.7860302" lon="17.6699771">
        <ele>34.2642</ele>
        <time>2014-06-01T11:17:27Z</time>
      </trkpt>
      <trkpt lat="59.7860243" lon="17.6700219">
        <ele>34.7449</ele>
        <time>2014-06-01T11:17:28Z</time>
      </trkpt>
      <trkpt lat="59.7860167" lon="17.6700758">
        <ele>35.2255</ele>
        <time>2014-06-01T11:17:29Z</time>
      </trkpt>
      <trkpt lat="59.786007" lon="17.6701281">
        <ele>35.2255</ele>
        <time>2014-06-01T11:17:30Z</time>
      </trkpt>
      <trkpt lat="59.7860017" lon="17.6701777">
        <ele>35.2255</ele>
        <time>2014-06-01T11:17:31Z</time>
      </trkpt>
      <trkpt lat="59.7859954" lon="17.6702394">
        <ele>35.7061</ele>
        <time>2014-06-01T11:17:32Z</time>
      </trkpt>
      <trkpt lat="59.7859814" lon="17.6703084">
        <ele>35.2255</ele>
        <time>2014-06-01T11:17:33Z</time>
      </trkpt>
      <trkpt lat="59.7859789" lon="17.6703757">
        <ele>35.2255</ele>
        <time>2014-06-01T11:17:34Z</time>
      </trkpt>
      <trkpt lat="59.7859768" lon="17.6704355">
        <ele>34.7449</ele>
        <time>2014-06-01T11:17:35Z</time>
      </trkpt>
      <trkpt lat="59.7859714" lon="17.6704917">
        <ele>34.2642</ele>
        <time>2014-06-01T11:17:36Z</time>
      </trkpt>
      <trkpt lat="59.785966" lon="17.6705486">
        <ele>33.7834</ele>
        <time>2014-06-01T11:17:37Z</time>
      </trkpt>
      <trkpt lat="59.7859657" lon="17.6706004">
        <ele>32.8223</ele>
        <time>2014-06-01T11:17:38Z</time>
      </trkpt>
      <trkpt lat="59.7859714" lon="17.6706538">
        <ele>32.3416</ele>
        <time>2014-06-01T11:17:39Z</time>
      </trkpt>
      <trkpt lat="59.7859738" lon="17.6707095">
        <ele>31.8607</ele>
        <time>2014-06-01T11:17:40Z</time>
      </trkpt>
      <trkpt lat="59.7859697" lon="17.6707723">
        <ele>31.3801</ele>
        <time>2014-06-01T11:17:41Z</time>
      </trkpt>
      <trkpt lat="59.7859658" lon="17.6708297">
        <ele>30.8995</ele>
        <time>2014-06-01T11:17:42Z</time>
      </trkpt>
      <trkpt lat="59.7859619" lon="17.6708835">
        <ele>29.9381</ele>
        <time>2014-06-01T11:17:43Z</time>
      </trkpt>
      <trkpt lat="59.7859626" lon="17.6709356">
        <ele>29.4575</ele>
        <time>2014-06-01T11:17:44Z</time>
      </trkpt>
      <trkpt lat="59.7859607" lon="17.6709904">
        <ele>28.4962</ele>
        <time>2014-06-01T11:17:45Z</time>
      </trkpt>
      <trkpt lat="59.7859572" lon="17.6710392">
        <ele>27.5349</ele>
        <time>2014-06-01T11:17:46Z</time>
      </trkpt>
      <trkpt lat="59.785956" lon="17.6710903">
        <ele>26.5736</ele>
        <time>2014-06-01T11:17:47Z</time>
      </trkpt>
      <trkpt lat="59.7859538" lon="17.67114">
        <ele>25.6123</ele>
        <time>2014-06-01T11:17:48Z</time>
      </trkpt>
      <trkpt lat="59.7859467" lon="17.6711915">
        <ele>24.651</ele>
        <time>2014-06-01T11:17:49Z</time>
      </trkpt>
      <trkpt lat="59.7859343" lon="17.6712442">
        <ele>23.6896</ele>
        <time>2014-06-01T11:17:50Z</time>
      </trkpt>
      <trkpt lat="59.7859285" lon="17.6712962">
        <ele>22.7283</ele>
        <time>2014-06-01T11:17:51Z</time>
      </trkpt>
      <trkpt lat="59.7859208" lon="17.6713483">
        <ele>21.767</ele>
        <time>2014-06-01T11:17:52Z</time>
      </trkpt>
      <trkpt lat="59.7859116" lon="17.6714063">
        <ele>21.2864</ele>
        <time>2014-06-01T11:17:53Z</time>
      </trkpt>
      <trkpt lat="59.7859078" lon="17.6714493">
        <ele>20.8057</ele>
        <time>2014-06-01T11:17:54Z</time>
      </trkpt>
      <trkpt lat="59.7859027" lon="17.6714935">
        <ele>19.3638</ele>
        <time>2014-06-01T11:17:55Z</time>
      </trkpt>
      <trkpt lat="59.7858969" lon="17.6715344">
        <ele>18.4023</ele>
        <time>2014-06-01T11:17:56Z</time>
      </trkpt>
      <trkpt lat="59.7858891" lon="17.6715769">
        <ele>17.4412</ele>
        <time>2014-06-01T11:17:57Z</time>
      </trkpt>
      <trkpt lat="59.7858872" lon="17.6716176">
        <ele>16.9604</ele>
        <time>2014-06-01T11:17:58Z</time>
      </trkpt>
      <trkpt lat="59.7858991" lon="17.6716666">
        <ele>18.4023</ele>
        <time>2014-06-01T11:17:59Z</time>
      </trkpt>
      <trkpt lat="59.7858951" lon="17.6717084">
        <ele>18.4023</ele>
        <time>2014-06-01T11:18:00Z</time>
      </trkpt>
      <trkpt lat="59.7858852" lon="17.6717479">
        <ele>17.4412</ele>
        <time>2014-06-01T11:18:01Z</time>
      </trkpt>
      <trkpt lat="59.7858768" lon="17.6717876">
        <ele>16.4797</ele>
        <time>2014-06-01T11:18:02Z</time>
      </trkpt>
      <trkpt lat="59.7858708" lon="17.6718281">
        <ele>16.4797</ele>
        <time>2014-06-01T11:18:03Z</time>
      </trkpt>
      <trkpt lat="59.785863" lon="17.6718714">
        <ele>15.999</ele>
        <time>2014-06-01T11:18:04Z</time>
      </trkpt>
      <trkpt lat="59.7858546" lon="17.6719157">
        <ele>15.999</ele>
        <time>2014-06-01T11:18:05Z</time>
      </trkpt>
      <trkpt lat="59.7858432" lon="17.671961">
        <ele>15.999</ele>
        <time>2014-06-01T11:18:06Z</time>
      </trkpt>
      <trkpt lat="59.7858291" lon="17.6720009">
        <ele>15.999</ele>
        <time>2014-06-01T11:18:07Z</time>
      </trkpt>
      <trkpt lat="59.78581" lon="17.6720414">
        <ele>16.9604</ele>
        <time>2014-06-01T11:18:08Z</time>
      </trkpt>
      <trkpt lat="59.7857934" lon="17.6720762">
        <ele>16.9604</ele>
        <time>2014-06-01T11:18:09Z</time>
      </trkpt>
      <trkpt lat="59.7857779" lon="17.6721068">
        <ele>16.9604</ele>
        <time>2014-06-01T11:18:10Z</time>
      </trkpt>
      <trkpt lat="59.7857601" lon="17.6721441">
        <ele>17.9218</ele>
        <time>2014-06-01T11:18:11Z</time>
      </trkpt>
      <trkpt lat="59.7857438" lon="17.6721829">
        <ele>18.4023</ele>
        <time>2014-06-01T11:18:12Z</time>
      </trkpt>
      <trkpt lat="59.7857277" lon="17.6722247">
        <ele>18.8831</ele>
        <time>2014-06-01T11:18:13Z</time>
      </trkpt>
      <trkpt lat="59.7857137" lon="17.6722596">
        <ele>19.8444</ele>
        <time>2014-06-01T11:18:14Z</time>
      </trkpt>
      <trkpt lat="59.7857313" lon="17.672299">
        <ele>24.651</ele>
        <time>2014-06-01T11:18:15Z</time>
      </trkpt>
      <trkpt lat="59.7857417" lon="17.6723364">
        <ele>28.9769</ele>
        <time>2014-06-01T11:18:16Z</time>
      </trkpt>
      <trkpt lat="59.7857463" lon="17.6723746">
        <ele>31.8607</ele>
        <time>2014-06-01T11:18:17Z</time>
      </trkpt>
      <trkpt lat="59.7857498" lon="17.6724174">
        <ele>34.2642</ele>
        <time>2014-06-01T11:18:18Z</time>
      </trkpt>
      <trkpt lat="59.7857505" lon="17.6724653">
        <ele>35.7061</ele>
        <time>2014-06-01T11:18:19Z</time>
      </trkpt>
      <trkpt lat="59.7857387" lon="17.6725109">
        <ele>35.7061</ele>
        <time>2014-06-01T11:18:20Z</time>
      </trkpt>
      <trkpt lat="59.7857273" lon="17.6725552">
        <ele>35.7061</ele>
        <time>2014-06-01T11:18:21Z</time>
      </trkpt>
      <trkpt lat="59.7857152" lon="17.6725994">
        <ele>36.1868</ele>
        <time>2014-06-01T11:18:22Z</time>
      </trkpt>
      <trkpt lat="59.7857075" lon="17.6726361">
        <ele>36.1868</ele>
        <time>2014-06-01T11:18:23Z</time>
      </trkpt>
      <trkpt lat="59.7857037" lon="17.6726702">
        <ele>36.1868</ele>
        <time>2014-06-01T11:18:24Z</time>
      </trkpt>
      <trkpt lat="59.7857032" lon="17.6727061">
        <ele>36.1868</ele>
        <time>2014-06-01T11:18:25Z</time>
      </trkpt>
      <trkpt lat="59.7857078" lon="17.6727414">
        <ele>36.1868</ele>
        <time>2014-06-01T11:18:26Z</time>
      </trkpt>
      <trkpt lat="59.7857184" lon="17.6727754">
        <ele>35.7061</ele>
        <time>2014-06-01T11:18:27Z</time>
      </trkpt>
      <trkpt lat="59.7857327" lon="17.672804">
        <ele>35.7061</ele>
        <time>2014-06-01T11:18:28Z</time>
      </trkpt>
      <trkpt lat="59.7857458" lon="17.6728304">
        <ele>35.2255</ele>
        <time>2014-06-01T11:18:29Z</time>
      </trkpt>
      <trkpt lat="59.7857597" lon="17.6728553">
        <ele>35.2255</ele>
        <time>2014-06-01T11:18:30Z</time>
      </trkpt>
      <trkpt lat="59.7857736" lon="17.6728795">
        <ele>34.7449</ele>
        <time>2014-06-01T11:18:31Z</time>
      </trkpt>
      <trkpt lat="59.7857847" lon="17.6729069">
        <ele>34.2642</ele>
        <time>2014-06-01T11:18:32Z</time>
      </trkpt>
      <trkpt lat="59.7857924" lon="17.6729369">
        <ele>33.7834</ele>
        <time>2014-06-01T11:18:33Z</time>
      </trkpt>
      <trkpt lat="59.7858038" lon="17.6729597">
        <ele>33.3029</ele>
        <time>2014-06-01T11:18:34Z</time>
      </trkpt>
      <trkpt lat="59.7858167" lon="17.6729823">
        <ele>32.8223</ele>
        <time>2014-06-01T11:18:35Z</time>
      </trkpt>
      <trkpt lat="59.7858245" lon="17.6730159">
        <ele>32.3416</ele>
        <time>2014-06-01T11:18:36Z</time>
      </trkpt>
      <trkpt lat="59.7858313" lon="17.673052">
        <ele>31.8607</ele>
        <time>2014-06-01T11:18:37Z</time>
      </trkpt>
      <trkpt lat="59.7858344" lon="17.6730854">
        <ele>31.3801</ele>
        <time>2014-06-01T11:18:38Z</time>
      </trkpt>
      <trkpt lat="59.7858306" lon="17.6731162">
        <ele>30.4188</ele>
        <time>2014-06-01T11:18:39Z</time>
      </trkpt>
      <trkpt lat="59.7858288" lon="17.6731449">
        <ele>28.9769</ele>
        <time>2014-06-01T11:18:40Z</time>
      </trkpt>
      <trkpt lat="59.7858262" lon="17.6731748">
        <ele>28.4962</ele>
        <time>2014-06-01T11:18:41Z</time>
      </trkpt>
      <trkpt lat="59.7858248" lon="17.673202">
        <ele>28.4962</ele>
        <time>2014-06-01T11:18:42Z</time>
      </trkpt>
      <trkpt lat="59.7858188" lon="17.673236">
        <ele>28.0155</ele>
        <time>2014-06-01T11:18:43Z</time>
      </trkpt>
      <trkpt lat="59.7858172" lon="17.673281">
        <ele>28.0155</ele>
        <time>2014-06-01T11:18:44Z</time>
      </trkpt>
      <trkpt lat="59.7858164" lon="17.6733261">
        <ele>27.5349</ele>
        <time>2014-06-01T11:18:45Z</time>
      </trkpt>
      <trkpt lat="59.7858181" lon="17.673376">
        <ele>27.0543</ele>
        <time>2014-06-01T11:18:46Z</time>
      </trkpt>
      <trkpt lat="59.7858226" lon="17.6734267">
        <ele>27.0543</ele>
        <time>2014-06-01T11:18:47Z</time>
      </trkpt>
      <trkpt lat="59.7858259" lon="17.6734759">
        <ele>26.0929</ele>
        <time>2014-06-01T11:18:48Z</time>
      </trkpt>
      <trkpt lat="59.7858251" lon="17.6735244">
        <ele>25.6123</ele>
        <time>2014-06-01T11:18:49Z</time>
      </trkpt>
      <trkpt lat="59.7858235" lon="17.6735629">
        <ele>24.651</ele>
        <time>2014-06-01T11:18:50Z</time>
      </trkpt>
      <trkpt lat="59.7858231" lon="17.6735988">
        <ele>23.6896</ele>
        <time>2014-06-01T11:18:51Z</time>
      </trkpt>
      <trkpt lat="59.7858261" lon="17.673637">
        <ele>23.209</ele>
        <time>2014-06-01T11:18:52Z</time>
      </trkpt>
      <trkpt lat="59.7858323" lon="17.6736752">
        <ele>22.2476</ele>
        <time>2014-06-01T11:18:53Z</time>
      </trkpt>
      <trkpt lat="59.7858353" lon="17.6737143">
        <ele>21.2864</ele>
        <time>2014-06-01T11:18:54Z</time>
      </trkpt>
      <trkpt lat="59.7858303" lon="17.6737535">
        <ele>20.8057</ele>
        <time>2014-06-01T11:18:55Z</time>
      </trkpt>
      <trkpt lat="59.7858256" lon="17.6737882">
        <ele>19.8444</ele>
        <time>2014-06-01T11:18:56Z</time>
      </trkpt>
      <trkpt lat="59.7858252" lon="17.6738191">
        <ele>19.3638</ele>
        <time>2014-06-01T11:18:57Z</time>
      </trkpt>
      <trkpt lat="59.7858261" lon="17.6738492">
        <ele>18.8831</ele>
        <time>2014-06-01T11:18:58Z</time>
      </trkpt>
      <trkpt lat="59.7858197" lon="17.6738794">
        <ele>17.9218</ele>
        <time>2014-06-01T11:18:59Z</time>
      </trkpt>
      <trkpt lat="59.7858137" lon="17.6739131">
        <ele>17.4412</ele>
        <time>2014-06-01T11:19:00Z</time>
      </trkpt>
      <trkpt lat="59.7858096" lon="17.6739451">
        <ele>16.9604</ele>
        <time>2014-06-01T11:19:01Z</time>
      </trkpt>
      <trkpt lat="59.7858079" lon="17.6739774">
        <ele>16.9604</ele>
        <time>2014-06-01T11:19:02Z</time>
      </trkpt>
      <trkpt lat="59.7858079" lon="17.6740049">
        <ele>16.4797</ele>
        <time>2014-06-01T11:19:03Z</time>
      </trkpt>
      <trkpt lat="59.7858067" lon="17.6740337">
        <ele>16.9604</ele>
        <time>2014-06-01T11:19:04Z</time>
      </trkpt>
      <trkpt lat="59.7858078" lon="17.6740629">
        <ele>16.9604</ele>
        <time>2014-06-01T11:19:05Z</time>
      </trkpt>
      <trkpt lat="59.7858194" lon="17.6740973">
        <ele>18.4023</ele>
        <time>2014-06-01T11:19:06Z</time>
      </trkpt>
      <trkpt lat="59.7858203" lon="17.674131">
        <ele>17.9218</ele>
        <time>2014-06-01T11:19:07Z</time>
      </trkpt>
      <trkpt lat="59.7858224" lon="17.6741691">
        <ele>17.9218</ele>
        <time>2014-06-01T11:19:08Z</time>
      </trkpt>
      <trkpt lat="59.7858231" lon="17.6742026">
        <ele>17.9218</ele>
        <time>2014-06-01T11:19:09Z</time>
      </trkpt>
      <trkpt lat="59.785824" lon="17.6742332">
        <ele>17.4412</ele>
        <time>2014-06-01T11:19:10Z</time>
      </trkpt>
      <trkpt lat="59.7858301" lon="17.6742636">
        <ele>17.9218</ele>
        <time>2014-06-01T11:19:11Z</time>
      </trkpt>
      <trkpt lat="59.7858308" lon="17.67429">
        <ele>17.9218</ele>
        <time>2014-06-01T11:19:12Z</time>
      </trkpt>
      <trkpt lat="59.7858333" lon="17.6743131">
        <ele>17.9218</ele>
        <time>2014-06-01T11:19:13Z</time>
      </trkpt>
      <trkpt lat="59.7858365" lon="17.6743378">
        <ele>17.4412</ele>
        <time>2014-06-01T11:19:14Z</time>
      </trkpt>
      <trkpt lat="59.7858397" lon="17.6743622">
        <ele>17.4412</ele>
        <time>2014-06-01T11:19:15Z</time>
      </trkpt>
      <trkpt lat="59.7858415" lon="17.6743835">
        <ele>16.9604</ele>
        <time>2014-06-01T11:19:16Z</time>
      </trkpt>
      <trkpt lat="59.7858485" lon="17.6744021">
        <ele>17.4412</ele>
        <time>2014-06-01T11:19:17Z</time>
      </trkpt>
      <trkpt lat="59.7858518" lon="17.6744197">
        <ele>16.9604</ele>
        <time>2014-06-01T11:19:18Z</time>
      </trkpt>
      <trkpt lat="59.7858551" lon="17.6744363">
        <ele>16.4797</ele>
        <time>2014-06-01T11:19:19Z</time>
      </trkpt>
      <trkpt lat="59.7858603" lon="17.674456">
        <ele>16.4797</ele>
        <time>2014-06-01T11:19:20Z</time>
      </trkpt>
      <trkpt lat="59.7858669" lon="17.6744787">
        <ele>16.4797</ele>
        <time>2014-06-01T11:19:21Z</time>
      </trkpt>
      <trkpt lat="59.7858715" lon="17.6745014">
        <ele>16.4797</ele>
        <time>2014-06-01T11:19:22Z</time>
      </trkpt>
      <trkpt lat="59.7858731" lon="17.6745293">
        <ele>15.999</ele>
        <time>2014-06-01T11:19:23Z</time>
      </trkpt>
      <trkpt lat="59.7858764" lon="17.6745575">
        <ele>15.999</ele>
        <time>2014-06-01T11:19:24Z</time>
      </trkpt>
      <trkpt lat="59.7858832" lon="17.6745793">
        <ele>15.5184</ele>
        <time>2014-06-01T11:19:25Z</time>
      </trkpt>
      <trkpt lat="59.7858912" lon="17.674601">
        <ele>15.5184</ele>
        <time>2014-06-01T11:19:26Z</time>
      </trkpt>
      <trkpt lat="59.7858985" lon="17.6746259">
        <ele>15.0377</ele>
        <time>2014-06-01T11:19:27Z</time>
      </trkpt>
      <trkpt lat="59.7859001" lon="17.6746615">
        <ele>15.5184</ele>
        <time>2014-06-01T11:19:28Z</time>
      </trkpt>
      <trkpt lat="59.7858998" lon="17.6746927">
        <ele>15.5184</ele>
        <time>2014-06-01T11:19:29Z</time>
      </trkpt>
      <trkpt lat="59.785894" lon="17.674719">
        <ele>15.5184</ele>
        <time>2014-06-01T11:19:30Z</time>
      </trkpt>
      <trkpt lat="59.7858841" lon="17.6747402">
        <ele>15.999</ele>
        <time>2014-06-01T11:19:31Z</time>
      </trkpt>
      <trkpt lat="59.7858975" lon="17.6747662">
        <ele>20.8057</ele>
        <time>2014-06-01T11:19:32Z</time>
      </trkpt>
      <trkpt lat="59.7859053" lon="17.6747822">
        <ele>24.651</ele>
        <time>2014-06-01T11:19:33Z</time>
      </trkpt>
      <trkpt lat="59.7858873" lon="17.6747915">
        <ele>25.1317</ele>
        <time>2014-06-01T11:19:34Z</time>
      </trkpt>
      <trkpt lat="59.7858722" lon="17.6748067">
        <ele>26.0929</ele>
        <time>2014-06-01T11:19:35Z</time>
      </trkpt>
      <trkpt lat="59.7858671" lon="17.6748204">
        <ele>27.5349</ele>
        <time>2014-06-01T11:19:36Z</time>
      </trkpt>
      <trkpt lat="59.7858899" lon="17.6748554">
        <ele>32.8223</ele>
        <time>2014-06-01T11:19:37Z</time>
      </trkpt>
      <trkpt lat="59.7859059" lon="17.674888">
        <ele>37.1481</ele>
        <time>2014-06-01T11:19:38Z</time>
      </trkpt>
      <trkpt lat="59.785924" lon="17.6749216">
        <ele>40.9934</ele>
        <time>2014-06-01T11:19:39Z</time>
      </trkpt>
      <trkpt lat="59.7859359" lon="17.6749553">
        <ele>43.3966</ele>
        <time>2014-06-01T11:19:40Z</time>
      </trkpt>
      <trkpt lat="59.7859385" lon="17.6749853">
        <ele>45.3192</ele>
        <time>2014-06-01T11:19:41Z</time>
      </trkpt>
      <trkpt lat="59.7859287" lon="17.6750133">
        <ele>44.8386</ele>
        <time>2014-06-01T11:19:42Z</time>
      </trkpt>
      <trkpt lat="59.7859365" lon="17.675048">
        <ele>45.7999</ele>
        <time>2014-06-01T11:19:43Z</time>
      </trkpt>
      <trkpt lat="59.7859447" lon="17.6750903">
        <ele>47.2418</ele>
        <time>2014-06-01T11:19:44Z</time>
      </trkpt>
      <trkpt lat="59.7859458" lon="17.6751308">
        <ele>48.2034</ele>
        <time>2014-06-01T11:19:45Z</time>
      </trkpt>
      <trkpt lat="59.7859427" lon="17.6751663">
        <ele>49.1646</ele>
        <time>2014-06-01T11:19:46Z</time>
      </trkpt>
      <trkpt lat="59.7859389" lon="17.6751842">
        <ele>49.6453</ele>
        <time>2014-06-01T11:19:47Z</time>
      </trkpt>
      <trkpt lat="59.7859313" lon="17.6751949">
        <ele>50.6066</ele>
        <time>2014-06-01T11:19:48Z</time>
      </trkpt>
      <trkpt lat="59.7859222" lon="17.675206">
        <ele>51.0872</ele>
        <time>2014-06-01T11:19:49Z</time>
      </trkpt>
      <trkpt lat="59.7859147" lon="17.675221">
        <ele>52.0486</ele>
        <time>2014-06-01T11:19:50Z</time>
      </trkpt>
      <trkpt lat="59.785911" lon="17.6752428">
        <ele>52.0486</ele>
        <time>2014-06-01T11:19:51Z</time>
      </trkpt>
      <trkpt lat="59.7859029" lon="17.6752678">
        <ele>52.5292</ele>
        <time>2014-06-01T11:19:52Z</time>
      </trkpt>
      <trkpt lat="59.7858924" lon="17.6752909">
        <ele>52.5292</ele>
        <time>2014-06-01T11:19:53Z</time>
      </trkpt>
      <trkpt lat="59.7858831" lon="17.6753123">
        <ele>52.5292</ele>
        <time>2014-06-01T11:19:54Z</time>
      </trkpt>
      <trkpt lat="59.7858728" lon="17.675336">
        <ele>53.0098</ele>
        <time>2014-06-01T11:19:55Z</time>
      </trkpt>
      <trkpt lat="59.7858642" lon="17.6753619">
        <ele>53.0098</ele>
        <time>2014-06-01T11:19:56Z</time>
      </trkpt>
      <trkpt lat="59.7858571" lon="17.6753894">
        <ele>53.0098</ele>
        <time>2014-06-01T11:19:57Z</time>
      </trkpt>
      <trkpt lat="59.7858518" lon="17.6754215">
        <ele>53.4905</ele>
        <time>2014-06-01T11:19:58Z</time>
      </trkpt>
      <trkpt lat="59.7858463" lon="17.6754602">
        <ele>53.4905</ele>
        <time>2014-06-01T11:19:59Z</time>
      </trkpt>
      <trkpt lat="59.7858385" lon="17.6754936">
        <ele>53.4905</ele>
        <time>2014-06-01T11:20:00Z</time>
      </trkpt>
      <trkpt lat="59.7858271" lon="17.6755144">
        <ele>53.9712</ele>
        <time>2014-06-01T11:20:01Z</time>
      </trkpt>
      <trkpt lat="59.7858152" lon="17.675527">
        <ele>53.9712</ele>
        <time>2014-06-01T11:20:02Z</time>
      </trkpt>
      <trkpt lat="59.7858059" lon="17.6755479">
        <ele>54.4518</ele>
        <time>2014-06-01T11:20:03Z</time>
      </trkpt>
      <trkpt lat="59.7857962" lon="17.6755774">
        <ele>54.4518</ele>
        <time>2014-06-01T11:20:04Z</time>
      </trkpt>
      <trkpt lat="59.7857868" lon="17.6756138">
        <ele>54.4518</ele>
        <time>2014-06-01T11:20:05Z</time>
      </trkpt>
      <trkpt lat="59.7857798" lon="17.675651">
        <ele>54.4518</ele>
        <time>2014-06-01T11:20:06Z</time>
      </trkpt>
      <trkpt lat="59.7857774" lon="17.6756853">
        <ele>54.4518</ele>
        <time>2014-06-01T11:20:07Z</time>
      </trkpt>
      <trkpt lat="59.7857763" lon="17.6757168">
        <ele>54.4518</ele>
        <time>2014-06-01T11:20:08Z</time>
      </trkpt>
      <trkpt lat="59.7857784" lon="17.6757467">
        <ele>54.9324</ele>
        <time>2014-06-01T11:20:09Z</time>
      </trkpt>
      <trkpt lat="59.7857757" lon="17.6757789">
        <ele>54.9324</ele>
        <time>2014-06-01T11:20:10Z</time>
      </trkpt>
      <trkpt lat="59.7857695" lon="17.6758112">
        <ele>55.4131</ele>
        <time>2014-06-01T11:20:11Z</time>
      </trkpt>
      <trkpt lat="59.7857634" lon="17.6758352">
        <ele>55.4131</ele>
        <time>2014-06-01T11:20:12Z</time>
      </trkpt>
      <trkpt lat="59.7857528" lon="17.6758436">
        <ele>55.8938</ele>
        <time>2014-06-01T11:20:13Z</time>
      </trkpt>
      <trkpt lat="59.7857431" lon="17.6758546">
        <ele>55.8938</ele>
        <time>2014-06-01T11:20:14Z</time>
      </trkpt>
      <trkpt lat="59.785737" lon="17.6758705">
        <ele>56.3745</ele>
        <time>2014-06-01T11:20:15Z</time>
      </trkpt>
      <trkpt lat="59.7857292" lon="17.6758939">
        <ele>56.8551</ele>
        <time>2014-06-01T11:20:16Z</time>
      </trkpt>
      <trkpt lat="59.785725" lon="17.6759188">
        <ele>56.3745</ele>
        <time>2014-06-01T11:20:17Z</time>
      </trkpt>
      <trkpt lat="59.7857233" lon="17.6759481">
        <ele>56.3745</ele>
        <time>2014-06-01T11:20:18Z</time>
      </trkpt>
      <trkpt lat="59.7857205" lon="17.6759862">
        <ele>56.3745</ele>
        <time>2014-06-01T11:20:19Z</time>
      </trkpt>
      <trkpt lat="59.7857188" lon="17.6760317">
        <ele>56.3745</ele>
        <time>2014-06-01T11:20:20Z</time>
      </trkpt>
      <trkpt lat="59.7857235" lon="17.6760758">
        <ele>56.3745</ele>
        <time>2014-06-01T11:20:21Z</time>
      </trkpt>
      <trkpt lat="59.7857256" lon="17.6761145">
        <ele>56.3745</ele>
        <time>2014-06-01T11:20:22Z</time>
      </trkpt>
      <trkpt lat="59.7857193" lon="17.6761503">
        <ele>56.3745</ele>
        <time>2014-06-01T11:20:23Z</time>
      </trkpt>
      <trkpt lat="59.7857164" lon="17.6761627">
        <ele>56.3745</ele>
        <time>2014-06-01T11:20:24Z</time>
      </trkpt>
      <trkpt lat="59.7857161" lon="17.6761665">
        <ele>56.8551</ele>
        <time>2014-06-01T11:20:25Z</time>
      </trkpt>
      <trkpt lat="59.78571" lon="17.6761802">
        <ele>56.8551</ele>
        <time>2014-06-01T11:20:26Z</time>
      </trkpt>
      <trkpt lat="59.785704" lon="17.6762022">
        <ele>56.8551</ele>
        <time>2014-06-01T11:20:27Z</time>
      </trkpt>
      <trkpt lat="59.7856959" lon="17.6762244">
        <ele>56.8551</ele>
        <time>2014-06-01T11:20:28Z</time>
      </trkpt>
      <trkpt lat="59.7856869" lon="17.6762476">
        <ele>57.3358</ele>
        <time>2014-06-01T11:20:29Z</time>
      </trkpt>
      <trkpt lat="59.78568" lon="17.6762628">
        <ele>57.3358</ele>
        <time>2014-06-01T11:20:30Z</time>
      </trkpt>
      <trkpt lat="59.7856754" lon="17.6762677">
        <ele>57.3358</ele>
        <time>2014-06-01T11:20:31Z</time>
      </trkpt>
      <trkpt lat="59.7856734" lon="17.6762736">
        <ele>57.3358</ele>
        <time>2014-06-01T11:20:32Z</time>
      </trkpt>
      <trkpt lat="59.7856728" lon="17.6762795">
        <ele>57.8165</ele>
        <time>2014-06-01T11:20:33Z</time>
      </trkpt>
      <trkpt lat="59.785619" lon="17.6764304">
        <ele>55.4131</ele>
        <time>2014-06-01T11:20:42Z</time>
      </trkpt>
      <trkpt lat="59.7856188" lon="17.6764563">
        <ele>56.3745</ele>
        <time>2014-06-01T11:20:43Z</time>
      </trkpt>
      <trkpt lat="59.7856208" lon="17.6764778">
        <ele>56.3745</ele>
        <time>2014-06-01T11:20:44Z</time>
      </trkpt>
      <trkpt lat="59.7856161" lon="17.676498">
        <ele>56.3745</ele>
        <time>2014-06-01T11:20:45Z</time>
      </trkpt>
      <trkpt lat="59.7856106" lon="17.6765187">
        <ele>56.3745</ele>
        <time>2014-06-01T11:20:46Z</time>
      </trkpt>
      <trkpt lat="59.7856055" lon="17.6765384">
        <ele>56.3745</ele>
        <time>2014-06-01T11:20:47Z</time>
      </trkpt>
      <trkpt lat="59.7856011" lon="17.6765564">
        <ele>56.3745</ele>
        <time>2014-06-01T11:20:48Z</time>
      </trkpt>
      <trkpt lat="59.7855991" lon="17.6765649">
        <ele>55.8938</ele>
        <time>2014-06-01T11:20:49Z</time>
      </trkpt>
      <trkpt lat="59.7855945" lon="17.6765746">
        <ele>55.8938</ele>
        <time>2014-06-01T11:20:50Z</time>
      </trkpt>
      <trkpt lat="59.7855939" lon="17.6765822">
        <ele>55.8938</ele>
        <time>2014-06-01T11:20:51Z</time>
      </trkpt>
      <trkpt lat="59.7855956" lon="17.6765884">
        <ele>55.8938</ele>
        <time>2014-06-01T11:20:52Z</time>
      </trkpt>
      <trkpt lat="59.7854853" lon="17.6768707">
        <ele>55.4131</ele>
        <time>2014-06-01T11:21:20Z</time>
      </trkpt>
      <trkpt lat="59.7854666" lon="17.6768823">
        <ele>55.4131</ele>
        <time>2014-06-01T11:21:21Z</time>
      </trkpt>
      <trkpt lat="59.7854485" lon="17.6768936">
        <ele>54.9324</ele>
        <time>2014-06-01T11:21:22Z</time>
      </trkpt>
      <trkpt lat="59.7854303" lon="17.6769101">
        <ele>54.9324</ele>
        <time>2014-06-01T11:21:23Z</time>
      </trkpt>
      <trkpt lat="59.7854115" lon="17.6769267">
        <ele>54.9324</ele>
        <time>2014-06-01T11:21:24Z</time>
      </trkpt>
      <trkpt lat="59.7853935" lon="17.6769372">
        <ele>54.4518</ele>
        <time>2014-06-01T11:21:25Z</time>
      </trkpt>
      <trkpt lat="59.7853764" lon="17.6769404">
        <ele>54.9324</ele>
        <time>2014-06-01T11:21:26Z</time>
      </trkpt>
      <trkpt lat="59.7853612" lon="17.6769444">
        <ele>54.9324</ele>
        <time>2014-06-01T11:21:27Z</time>
      </trkpt>
      <trkpt lat="59.7853462" lon="17.6769579">
        <ele>54.9324</ele>
        <time>2014-06-01T11:21:28Z</time>
      </trkpt>
      <trkpt lat="59.7853293" lon="17.6769726">
        <ele>55.4131</ele>
        <time>2014-06-01T11:21:29Z</time>
      </trkpt>
      <trkpt lat="59.7853167" lon="17.6769833">
        <ele>55.4131</ele>
        <time>2014-06-01T11:21:30Z</time>
      </trkpt>
      <trkpt lat="59.785308" lon="17.6769931">
        <ele>55.4131</ele>
        <time>2014-06-01T11:21:31Z</time>
      </trkpt>
      <trkpt lat="59.7852961" lon="17.6770138">
        <ele>55.8938</ele>
        <time>2014-06-01T11:21:32Z</time>
      </trkpt>
      <trkpt lat="59.7852822" lon="17.6770345">
        <ele>56.3745</ele>
        <time>2014-06-01T11:21:33Z</time>
      </trkpt>
      <trkpt lat="59.7852681" lon="17.6770414">
        <ele>56.3745</ele>
        <time>2014-06-01T11:21:34Z</time>
      </trkpt>
      <trkpt lat="59.7852536" lon="17.6770408">
        <ele>56.3745</ele>
        <time>2014-06-01T11:21:35Z</time>
      </trkpt>
      <trkpt lat="59.7852383" lon="17.6770398">
        <ele>56.3745</ele>
        <time>2014-06-01T11:21:36Z</time>
      </trkpt>
      <trkpt lat="59.7852276" lon="17.6770448">
        <ele>56.8551</ele>
        <time>2014-06-01T11:21:37Z</time>
      </trkpt>
      <trkpt lat="59.7852193" lon="17.6770534">
        <ele>56.8551</ele>
        <time>2014-06-01T11:21:38Z</time>
      </trkpt>
      <trkpt lat="59.785212" lon="17.6770645">
        <ele>56.8551</ele>
        <time>2014-06-01T11:21:39Z</time>
      </trkpt>
      <trkpt lat="59.7852012" lon="17.6770753">
        <ele>57.3358</ele>
        <time>2014-06-01T11:21:40Z</time>
      </trkpt>
      <trkpt lat="59.7851935" lon="17.6770869">
        <ele>57.3358</ele>
        <time>2014-06-01T11:21:41Z</time>
      </trkpt>
      <trkpt lat="59.7851874" lon="17.6770999">
        <ele>57.3358</ele>
        <time>2014-06-01T11:21:42Z</time>
      </trkpt>
      <trkpt lat="59.7851774" lon="17.6771159">
        <ele>57.3358</ele>
        <time>2014-06-01T11:21:43Z</time>
      </trkpt>
      <trkpt lat="59.7851644" lon="17.6771328">
        <ele>57.3358</ele>
        <time>2014-06-01T11:21:44Z</time>
      </trkpt>
      <trkpt lat="59.7851571" lon="17.677148">
        <ele>56.8551</ele>
        <time>2014-06-01T11:21:45Z</time>
      </trkpt>
      <trkpt lat="59.785154" lon="17.6771701">
        <ele>56.8551</ele>
        <time>2014-06-01T11:21:46Z</time>
      </trkpt>
      <trkpt lat="59.7851496" lon="17.6771993">
        <ele>56.8551</ele>
        <time>2014-06-01T11:21:47Z</time>
      </trkpt>
      <trkpt lat="59.7851412" lon="17.6772248">
        <ele>56.8551</ele>
        <time>2014-06-01T11:21:48Z</time>
      </trkpt>
      <trkpt lat="59.7851302" lon="17.6772406">
        <ele>56.8551</ele>
        <time>2014-06-01T11:21:49Z</time>
      </trkpt>
      <trkpt lat="59.7851181" lon="17.6772568">
        <ele>56.8551</ele>
        <time>2014-06-01T11:21:50Z</time>
      </trkpt>
      <trkpt lat="59.7851077" lon="17.6772782">
        <ele>57.3358</ele>
        <time>2014-06-01T11:21:51Z</time>
      </trkpt>
      <trkpt lat="59.7850989" lon="17.677301">
        <ele>56.8551</ele>
        <time>2014-06-01T11:21:52Z</time>
      </trkpt>
      <trkpt lat="59.7850914" lon="17.6773297">
        <ele>56.8551</ele>
        <time>2014-06-01T11:21:53Z</time>
      </trkpt>
      <trkpt lat="59.7850849" lon="17.6773568">
        <ele>56.3745</ele>
        <time>2014-06-01T11:21:54Z</time>
      </trkpt>
      <trkpt lat="59.7850769" lon="17.6773853">
        <ele>56.3745</ele>
        <time>2014-06-01T11:21:55Z</time>
      </trkpt>
      <trkpt lat="59.7850698" lon="17.6774117">
        <ele>56.8551</ele>
        <time>2014-06-01T11:21:56Z</time>
      </trkpt>
      <trkpt lat="59.7850543" lon="17.6774438">
        <ele>57.3358</ele>
        <time>2014-06-01T11:21:57Z</time>
      </trkpt>
      <trkpt lat="59.7850444" lon="17.6774682">
        <ele>57.3358</ele>
        <time>2014-06-01T11:21:58Z</time>
      </trkpt>
      <trkpt lat="59.7850375" lon="17.6774894">
        <ele>57.3358</ele>
        <time>2014-06-01T11:21:59Z</time>
      </trkpt>
      <trkpt lat="59.7850309" lon="17.6775112">
        <ele>57.8165</ele>
        <time>2014-06-01T11:22:00Z</time>
      </trkpt>
      <trkpt lat="59.7850232" lon="17.6775396">
        <ele>57.8165</ele>
        <time>2014-06-01T11:22:01Z</time>
      </trkpt>
      <trkpt lat="59.7850159" lon="17.6775733">
        <ele>57.8165</ele>
        <time>2014-06-01T11:22:02Z</time>
      </trkpt>
      <trkpt lat="59.7850026" lon="17.6776096">
        <ele>58.2971</ele>
        <time>2014-06-01T11:22:03Z</time>
      </trkpt>
      <trkpt lat="59.784985" lon="17.6776359">
        <ele>58.2971</ele>
        <time>2014-06-01T11:22:04Z</time>
      </trkpt>
      <trkpt lat="59.7849668" lon="17.6776557">
        <ele>58.7777</ele>
        <time>2014-06-01T11:22:05Z</time>
      </trkpt>
      <trkpt lat="59.7849502" lon="17.67768">
        <ele>58.7777</ele>
        <time>2014-06-01T11:22:06Z</time>
      </trkpt>
      <trkpt lat="59.7849376" lon="17.6777052">
        <ele>58.7777</ele>
        <time>2014-06-01T11:22:07Z</time>
      </trkpt>
      <trkpt lat="59.7849289" lon="17.6777246">
        <ele>58.7777</ele>
        <time>2014-06-01T11:22:08Z</time>
      </trkpt>
      <trkpt lat="59.7849216" lon="17.6777381">
        <ele>59.2584</ele>
        <time>2014-06-01T11:22:09Z</time>
      </trkpt>
      <trkpt lat="59.7849071" lon="17.6777518">
        <ele>59.2584</ele>
        <time>2014-06-01T11:22:10Z</time>
      </trkpt>
      <trkpt lat="59.7848938" lon="17.6777665">
        <ele>59.7391</ele>
        <time>2014-06-01T11:22:11Z</time>
      </trkpt>
      <trkpt lat="59.7848792" lon="17.677781">
        <ele>60.2197</ele>
        <time>2014-06-01T11:22:12Z</time>
      </trkpt>
      <trkpt lat="59.784863" lon="17.6777985">
        <ele>60.2197</ele>
        <time>2014-06-01T11:22:13Z</time>
      </trkpt>
      <trkpt lat="59.7848429" lon="17.6778197">
        <ele>60.7003</ele>
        <time>2014-06-01T11:22:14Z</time>
      </trkpt>
      <trkpt lat="59.7848267" lon="17.6778291">
        <ele>61.181</ele>
        <time>2014-06-01T11:22:15Z</time>
      </trkpt>
      <trkpt lat="59.7848139" lon="17.6778349">
        <ele>61.181</ele>
        <time>2014-06-01T11:22:16Z</time>
      </trkpt>
      <trkpt lat="59.7848097" lon="17.677833">
        <ele>62.1423</ele>
        <time>2014-06-01T11:22:17Z</time>
      </trkpt>
      <trkpt lat="59.7848055" lon="17.6778296">
        <ele>62.1423</ele>
        <time>2014-06-01T11:22:18Z</time>
      </trkpt>
      <trkpt lat="59.7847978" lon="17.6778299">
        <ele>62.6229</ele>
        <time>2014-06-01T11:22:19Z</time>
      </trkpt>
      <trkpt lat="59.7847951" lon="17.6778358">
        <ele>63.1036</ele>
        <time>2014-06-01T11:22:20Z</time>
      </trkpt>
      <trkpt lat="59.7847927" lon="17.6778411">
        <ele>63.5844</ele>
        <time>2014-06-01T11:22:21Z</time>
      </trkpt>
      <trkpt lat="59.784705" lon="17.6778702">
        <ele>62.6229</ele>
        <time>2014-06-01T11:22:30Z</time>
      </trkpt>
      <trkpt lat="59.7846932" lon="17.6778868">
        <ele>62.1423</ele>
        <time>2014-06-01T11:22:31Z</time>
      </trkpt>
      <trkpt lat="59.7846797" lon="17.67791">
        <ele>61.6617</ele>
        <time>2014-06-01T11:22:32Z</time>
      </trkpt>
      <trkpt lat="59.7846693" lon="17.6779332">
        <ele>61.6617</ele>
        <time>2014-06-01T11:22:33Z</time>
      </trkpt>
      <trkpt lat="59.784657" lon="17.6779497">
        <ele>61.6617</ele>
        <time>2014-06-01T11:22:34Z</time>
      </trkpt>
      <trkpt lat="59.784646" lon="17.6779661">
        <ele>61.6617</ele>
        <time>2014-06-01T11:22:35Z</time>
      </trkpt>
      <trkpt lat="59.7846357" lon="17.6779909">
        <ele>61.6617</ele>
        <time>2014-06-01T11:22:36Z</time>
      </trkpt>
      <trkpt lat="59.7846291" lon="17.6780127">
        <ele>61.6617</ele>
        <time>2014-06-01T11:22:37Z</time>
      </trkpt>
      <trkpt lat="59.7846227" lon="17.6780307">
        <ele>61.181</ele>
        <time>2014-06-01T11:22:38Z</time>
      </trkpt>
      <trkpt lat="59.7846161" lon="17.6780441">
        <ele>61.6617</ele>
        <time>2014-06-01T11:22:39Z</time>
      </trkpt>
      <trkpt lat="59.7846089" lon="17.6780573">
        <ele>61.181</ele>
        <time>2014-06-01T11:22:40Z</time>
      </trkpt>
      <trkpt lat="59.7846032" lon="17.6780717">
        <ele>60.7003</ele>
        <time>2014-06-01T11:22:41Z</time>
      </trkpt>
      <trkpt lat="59.7845984" lon="17.6780894">
        <ele>60.2197</ele>
        <time>2014-06-01T11:22:42Z</time>
      </trkpt>
      <trkpt lat="59.7845926" lon="17.6781006">
        <ele>59.7391</ele>
        <time>2014-06-01T11:22:43Z</time>
      </trkpt>
      <trkpt lat="59.7845922" lon="17.6780878">
        <ele>60.2197</ele>
        <time>2014-06-01T11:22:44Z</time>
      </trkpt>
      <trkpt lat="59.7845912" lon="17.6780738">
        <ele>61.181</ele>
        <time>2014-06-01T11:22:45Z</time>
      </trkpt>
      <trkpt lat="59.7845891" lon="17.6780705">
        <ele>61.6617</ele>
        <time>2014-06-01T11:22:46Z</time>
      </trkpt>
      <trkpt lat="59.7845891" lon="17.6780761">
        <ele>62.1423</ele>
        <time>2014-06-01T11:22:47Z</time>
      </trkpt>
      <trkpt lat="59.7848099" lon="17.679277">
        <ele>37.1481</ele>
        <time>2014-06-01T11:24:40Z</time>
      </trkpt>
      <trkpt lat="59.7848019" lon="17.6793116">
        <ele>37.6287</ele>
        <time>2014-06-01T11:24:41Z</time>
      </trkpt>
      <trkpt lat="59.7847983" lon="17.6793424">
        <ele>38.1094</ele>
        <time>2014-06-01T11:24:42Z</time>
      </trkpt>
      <trkpt lat="59.7848033" lon="17.6793623">
        <ele>38.5901</ele>
        <time>2014-06-01T11:24:43Z</time>
      </trkpt>
      <trkpt lat="59.7848134" lon="17.6793915">
        <ele>38.5901</ele>
        <time>2014-06-01T11:24:44Z</time>
      </trkpt>
      <trkpt lat="59.7848221" lon="17.6794237">
        <ele>38.5901</ele>
        <time>2014-06-01T11:24:45Z</time>
      </trkpt>
      <trkpt lat="59.7848222" lon="17.6794444">
        <ele>38.1094</ele>
        <time>2014-06-01T11:24:46Z</time>
      </trkpt>
      <trkpt lat="59.7848181" lon="17.6794649">
        <ele>38.1094</ele>
        <time>2014-06-01T11:24:47Z</time>
      </trkpt>
      <trkpt lat="59.7848101" lon="17.6794864">
        <ele>37.6287</ele>
        <time>2014-06-01T11:24:48Z</time>
      </trkpt>
      <trkpt lat="59.7848002" lon="17.6795071">
        <ele>37.6287</ele>
        <time>2014-06-01T11:24:49Z</time>
      </trkpt>
      <trkpt lat="59.7847899" lon="17.6795231">
        <ele>37.1481</ele>
        <time>2014-06-01T11:24:50Z</time>
      </trkpt>
      <trkpt lat="59.7848083" lon="17.6795545">
        <ele>41.474</ele>
        <time>2014-06-01T11:24:51Z</time>
      </trkpt>
      <trkpt lat="59.7848153" lon="17.6795765">
        <ele>44.8386</ele>
        <time>2014-06-01T11:24:52Z</time>
      </trkpt>
      <trkpt lat="59.784819" lon="17.6795941">
        <ele>46.7612</ele>
        <time>2014-06-01T11:24:53Z</time>
      </trkpt>
      <trkpt lat="59.7848251" lon="17.6796152">
        <ele>48.684</ele>
        <time>2014-06-01T11:24:54Z</time>
      </trkpt>
      <trkpt lat="59.7848175" lon="17.6796384">
        <ele>48.684</ele>
        <time>2014-06-01T11:24:55Z</time>
      </trkpt>
      <trkpt lat="59.7848134" lon="17.6796574">
        <ele>48.684</ele>
        <time>2014-06-01T11:24:56Z</time>
      </trkpt>
      <trkpt lat="59.7848096" lon="17.6796801">
        <ele>48.684</ele>
        <time>2014-06-01T11:24:57Z</time>
      </trkpt>
      <trkpt lat="59.7848055" lon="17.6797003">
        <ele>48.684</ele>
        <time>2014-06-01T11:24:58Z</time>
      </trkpt>
      <trkpt lat="59.7848025" lon="17.6797209">
        <ele>48.684</ele>
        <time>2014-06-01T11:24:59Z</time>
      </trkpt>
      <trkpt lat="59.784801" lon="17.6797469">
        <ele>48.2034</ele>
        <time>2014-06-01T11:25:00Z</time>
      </trkpt>
      <trkpt lat="59.7848011" lon="17.6797733">
        <ele>48.2034</ele>
        <time>2014-06-01T11:25:01Z</time>
      </trkpt>
      <trkpt lat="59.7848018" lon="17.6797936">
        <ele>48.2034</ele>
        <time>2014-06-01T11:25:02Z</time>
      </trkpt>
      <trkpt lat="59.784803" lon="17.6798133">
        <ele>47.7225</ele>
        <time>2014-06-01T11:25:03Z</time>
      </trkpt>
      <trkpt lat="59.7848024" lon="17.6798348">
        <ele>47.2418</ele>
        <time>2014-06-01T11:25:04Z</time>
      </trkpt>
      <trkpt lat="59.7847978" lon="17.6798655">
        <ele>46.7612</ele>
        <time>2014-06-01T11:25:05Z</time>
      </trkpt>
      <trkpt lat="59.7847941" lon="17.6799035">
        <ele>46.7612</ele>
        <time>2014-06-01T11:25:06Z</time>
      </trkpt>
      <trkpt lat="59.7847911" lon="17.6799412">
        <ele>46.2806</ele>
        <time>2014-06-01T11:25:07Z</time>
      </trkpt>
      <trkpt lat="59.7847859" lon="17.6799759">
        <ele>46.2806</ele>
        <time>2014-06-01T11:25:08Z</time>
      </trkpt>
      <trkpt lat="59.7847798" lon="17.680006">
        <ele>46.2806</ele>
        <time>2014-06-01T11:25:09Z</time>
      </trkpt>
      <trkpt lat="59.7847738" lon="17.6800375">
        <ele>46.2806</ele>
        <time>2014-06-01T11:25:10Z</time>
      </trkpt>
      <trkpt lat="59.7847669" lon="17.6800661">
        <ele>46.2806</ele>
        <time>2014-06-01T11:25:11Z</time>
      </trkpt>
      <trkpt lat="59.784759" lon="17.6800943">
        <ele>45.7999</ele>
        <time>2014-06-01T11:25:12Z</time>
      </trkpt>
      <trkpt lat="59.7847554" lon="17.6801282">
        <ele>45.7999</ele>
        <time>2014-06-01T11:25:13Z</time>
      </trkpt>
      <trkpt lat="59.7847523" lon="17.6801713">
        <ele>45.7999</ele>
        <time>2014-06-01T11:25:14Z</time>
      </trkpt>
      <trkpt lat="59.7847484" lon="17.6802192">
        <ele>46.2806</ele>
        <time>2014-06-01T11:25:15Z</time>
      </trkpt>
      <trkpt lat="59.7847574" lon="17.6802714">
        <ele>49.1646</ele>
        <time>2014-06-01T11:25:16Z</time>
      </trkpt>
      <trkpt lat="59.7847634" lon="17.6803157">
        <ele>51.0872</ele>
        <time>2014-06-01T11:25:17Z</time>
      </trkpt>
      <trkpt lat="59.7847619" lon="17.6803494">
        <ele>51.0872</ele>
        <time>2014-06-01T11:25:18Z</time>
      </trkpt>
      <trkpt lat="59.7847622" lon="17.6803873">
        <ele>51.0872</ele>
        <time>2014-06-01T11:25:19Z</time>
      </trkpt>
      <trkpt lat="59.7847584" lon="17.6804228">
        <ele>50.6066</ele>
        <time>2014-06-01T11:25:20Z</time>
      </trkpt>
      <trkpt lat="59.7847546" lon="17.6804518">
        <ele>50.6066</ele>
        <time>2014-06-01T11:25:21Z</time>
      </trkpt>
      <trkpt lat="59.7847492" lon="17.6804867">
        <ele>50.126</ele>
        <time>2014-06-01T11:25:22Z</time>
      </trkpt>
      <trkpt lat="59.7847407" lon="17.6805225">
        <ele>50.6066</ele>
        <time>2014-06-01T11:25:23Z</time>
      </trkpt>
      <trkpt lat="59.784731" lon="17.6805617">
        <ele>50.6066</ele>
        <time>2014-06-01T11:25:24Z</time>
      </trkpt>
      <trkpt lat="59.7847282" lon="17.6806092">
        <ele>51.0872</ele>
        <time>2014-06-01T11:25:25Z</time>
      </trkpt>
      <trkpt lat="59.7847202" lon="17.6806585">
        <ele>51.0872</ele>
        <time>2014-06-01T11:25:26Z</time>
      </trkpt>
      <trkpt lat="59.7847143" lon="17.6806804">
        <ele>51.5679</ele>
        <time>2014-06-01T11:25:27Z</time>
      </trkpt>
      <trkpt lat="59.7847179" lon="17.6806967">
        <ele>53.4905</ele>
        <time>2014-06-01T11:25:28Z</time>
      </trkpt>
      <trkpt lat="59.7847124" lon="17.6806953">
        <ele>53.9712</ele>
        <time>2014-06-01T11:25:29Z</time>
      </trkpt>
      <trkpt lat="59.7847093" lon="17.6806871">
        <ele>54.9324</ele>
        <time>2014-06-01T11:25:30Z</time>
      </trkpt>
      <trkpt lat="59.7847072" lon="17.680676">
        <ele>55.4131</ele>
        <time>2014-06-01T11:25:31Z</time>
      </trkpt>
      <trkpt lat="59.7847029" lon="17.6806685">
        <ele>56.3745</ele>
        <time>2014-06-01T11:25:32Z</time>
      </trkpt>
      <trkpt lat="59.7846947" lon="17.6806643">
        <ele>57.3358</ele>
        <time>2014-06-01T11:25:33Z</time>
      </trkpt>
      <trkpt lat="59.7846858" lon="17.6806607">
        <ele>58.2971</ele>
        <time>2014-06-01T11:25:34Z</time>
      </trkpt>
      <trkpt lat="59.7846814" lon="17.6806629">
        <ele>59.7391</ele>
        <time>2014-06-01T11:25:35Z</time>
      </trkpt>
      <trkpt lat="59.7846741" lon="17.6806612">
        <ele>60.2197</ele>
        <time>2014-06-01T11:25:36Z</time>
      </trkpt>
      <trkpt lat="59.7846676" lon="17.6806581">
        <ele>60.2197</ele>
        <time>2014-06-01T11:25:37Z</time>
      </trkpt>
      <trkpt lat="59.7846578" lon="17.6806514">
        <ele>60.7003</ele>
        <time>2014-06-01T11:25:38Z</time>
      </trkpt>
      <trkpt lat="59.7846455" lon="17.6806456">
        <ele>61.181</ele>
        <time>2014-06-01T11:25:39Z</time>
      </trkpt>
      <trkpt lat="59.7846357" lon="17.6806404">
        <ele>61.181</ele>
        <time>2014-06-01T11:25:40Z</time>
      </trkpt>
      <trkpt lat="59.7846265" lon="17.6806439">
        <ele>61.181</ele>
        <time>2014-06-01T11:25:41Z</time>
      </trkpt>
      <trkpt lat="59.7846216" lon="17.6806532">
        <ele>61.181</ele>
        <time>2014-06-01T11:25:42Z</time>
      </trkpt>
      <trkpt lat="59.7846151" lon="17.6806684">
        <ele>61.181</ele>
        <time>2014-06-01T11:25:43Z</time>
      </trkpt>
      <trkpt lat="59.7846088" lon="17.6806881">
        <ele>61.181</ele>
        <time>2014-06-01T11:25:44Z</time>
      </trkpt>
      <trkpt lat="59.7846051" lon="17.6807063">
        <ele>61.181</ele>
        <time>2014-06-01T11:25:45Z</time>
      </trkpt>
      <trkpt lat="59.7846001" lon="17.6807257">
        <ele>61.181</ele>
        <time>2014-06-01T11:25:46Z</time>
      </trkpt>
      <trkpt lat="59.7845944" lon="17.6807463">
        <ele>60.7003</ele>
        <time>2014-06-01T11:25:47Z</time>
      </trkpt>
      <trkpt lat="59.7845876" lon="17.680768">
        <ele>60.7003</ele>
        <time>2014-06-01T11:25:48Z</time>
      </trkpt>
      <trkpt lat="59.7845775" lon="17.6807932">
        <ele>60.7003</ele>
        <time>2014-06-01T11:25:49Z</time>
      </trkpt>
      <trkpt lat="59.7845643" lon="17.6808207">
        <ele>60.7003</ele>
        <time>2014-06-01T11:25:50Z</time>
      </trkpt>
      <trkpt lat="59.7845519" lon="17.6808492">
        <ele>60.7003</ele>
        <time>2014-06-01T11:25:51Z</time>
      </trkpt>
      <trkpt lat="59.784548" lon="17.6808789">
        <ele>60.7003</ele>
        <time>2014-06-01T11:25:52Z</time>
      </trkpt>
      <trkpt lat="59.7845464" lon="17.6809129">
        <ele>60.2197</ele>
        <time>2014-06-01T11:25:53Z</time>
      </trkpt>
      <trkpt lat="59.7845516" lon="17.6809519">
        <ele>60.7003</ele>
        <time>2014-06-01T11:25:54Z</time>
      </trkpt>
      <trkpt lat="59.7845435" lon="17.6809878">
        <ele>60.7003</ele>
        <time>2014-06-01T11:25:55Z</time>
      </trkpt>
      <trkpt lat="59.7845367" lon="17.6810139">
        <ele>60.7003</ele>
        <time>2014-06-01T11:25:56Z</time>
      </trkpt>
      <trkpt lat="59.7845281" lon="17.6810361">
        <ele>60.2197</ele>
        <time>2014-06-01T11:25:57Z</time>
      </trkpt>
      <trkpt lat="59.7845186" lon="17.6810632">
        <ele>59.7391</ele>
        <time>2014-06-01T11:25:58Z</time>
      </trkpt>
      <trkpt lat="59.7845127" lon="17.6810896">
        <ele>59.2584</ele>
        <time>2014-06-01T11:25:59Z</time>
      </trkpt>
      <trkpt lat="59.7845132" lon="17.6811187">
        <ele>58.7777</ele>
        <time>2014-06-01T11:26:00Z</time>
      </trkpt>
      <trkpt lat="59.7845222" lon="17.6811645">
        <ele>58.2971</ele>
        <time>2014-06-01T11:26:01Z</time>
      </trkpt>
      <trkpt lat="59.7845263" lon="17.6812208">
        <ele>57.3358</ele>
        <time>2014-06-01T11:26:02Z</time>
      </trkpt>
      <trkpt lat="59.7845285" lon="17.6812776">
        <ele>56.8551</ele>
        <time>2014-06-01T11:26:03Z</time>
      </trkpt>
      <trkpt lat="59.7845197" lon="17.6813356">
        <ele>56.3745</ele>
        <time>2014-06-01T11:26:04Z</time>
      </trkpt>
      <trkpt lat="59.7845057" lon="17.6813846">
        <ele>55.4131</ele>
        <time>2014-06-01T11:26:05Z</time>
      </trkpt>
      <trkpt lat="59.7844921" lon="17.6814253">
        <ele>54.9324</ele>
        <time>2014-06-01T11:26:06Z</time>
      </trkpt>
      <trkpt lat="59.7844791" lon="17.6814635">
        <ele>54.4518</ele>
        <time>2014-06-01T11:26:07Z</time>
      </trkpt>
      <trkpt lat="59.7844689" lon="17.6814952">
        <ele>53.9712</ele>
        <time>2014-06-01T11:26:08Z</time>
      </trkpt>
      <trkpt lat="59.7844601" lon="17.6815307">
        <ele>53.4905</ele>
        <time>2014-06-01T11:26:09Z</time>
      </trkpt>
      <trkpt lat="59.7844464" lon="17.6815841">
        <ele>53.0098</ele>
        <time>2014-06-01T11:26:10Z</time>
      </trkpt>
      <trkpt lat="59.784428" lon="17.6816452">
        <ele>52.5292</ele>
        <time>2014-06-01T11:26:11Z</time>
      </trkpt>
      <trkpt lat="59.7844088" lon="17.6816987">
        <ele>51.5679</ele>
        <time>2014-06-01T11:26:12Z</time>
      </trkpt>
      <trkpt lat="59.7843901" lon="17.681746">
        <ele>51.0872</ele>
        <time>2014-06-01T11:26:13Z</time>
      </trkpt>
      <trkpt lat="59.784374" lon="17.6817951">
        <ele>50.6066</ele>
        <time>2014-06-01T11:26:14Z</time>
      </trkpt>
      <trkpt lat="59.7843599" lon="17.6818517">
        <ele>50.126</ele>
        <time>2014-06-01T11:26:15Z</time>
      </trkpt>
      <trkpt lat="59.7843418" lon="17.6819101">
        <ele>49.6453</ele>
        <time>2014-06-01T11:26:16Z</time>
      </trkpt>
      <trkpt lat="59.7843253" lon="17.6819587">
        <ele>49.1646</ele>
        <time>2014-06-01T11:26:17Z</time>
      </trkpt>
      <trkpt lat="59.784312" lon="17.6819966">
        <ele>49.1646</ele>
        <time>2014-06-01T11:26:18Z</time>
      </trkpt>
      <trkpt lat="59.7843118" lon="17.6820412">
        <ele>50.126</ele>
        <time>2014-06-01T11:26:19Z</time>
      </trkpt>
      <trkpt lat="59.784311" lon="17.6820871">
        <ele>51.0872</ele>
        <time>2014-06-01T11:26:20Z</time>
      </trkpt>
      <trkpt lat="59.7843042" lon="17.6821228">
        <ele>51.0872</ele>
        <time>2014-06-01T11:26:21Z</time>
      </trkpt>
      <trkpt lat="59.7843007" lon="17.6821501">
        <ele>50.6066</ele>
        <time>2014-06-01T11:26:22Z</time>
      </trkpt>
      <trkpt lat="59.7842947" lon="17.6821793">
        <ele>49.6453</ele>
        <time>2014-06-01T11:26:23Z</time>
      </trkpt>
      <trkpt lat="59.7842876" lon="17.6822024">
        <ele>50.126</ele>
        <time>2014-06-01T11:26:24Z</time>
      </trkpt>
      <trkpt lat="59.7842813" lon="17.6822163">
        <ele>50.6066</ele>
        <time>2014-06-01T11:26:25Z</time>
      </trkpt>
      <trkpt lat="59.7842752" lon="17.6822269">
        <ele>51.0872</ele>
        <time>2014-06-01T11:26:26Z</time>
      </trkpt>
      <trkpt lat="59.784283" lon="17.6822494">
        <ele>53.9712</ele>
        <time>2014-06-01T11:26:27Z</time>
      </trkpt>
      <trkpt lat="59.7842782" lon="17.6822597">
        <ele>54.4518</ele>
        <time>2014-06-01T11:26:28Z</time>
      </trkpt>
      <trkpt lat="59.7842824" lon="17.6822674">
        <ele>55.8938</ele>
        <time>2014-06-01T11:26:29Z</time>
      </trkpt>
      <trkpt lat="59.7842797" lon="17.6822718">
        <ele>55.8938</ele>
        <time>2014-06-01T11:26:30Z</time>
      </trkpt>
      <trkpt lat="59.7842799" lon="17.6822775">
        <ele>56.3745</ele>
        <time>2014-06-01T11:26:31Z</time>
      </trkpt>
      <trkpt lat="59.7842177" lon="17.682496">
        <ele>53.9712</ele>
        <time>2014-06-01T11:26:48Z</time>
      </trkpt>
      <trkpt lat="59.7842067" lon="17.6825297">
        <ele>53.9712</ele>
        <time>2014-06-01T11:26:49Z</time>
      </trkpt>
      <trkpt lat="59.7841955" lon="17.6825564">
        <ele>53.4905</ele>
        <time>2014-06-01T11:26:50Z</time>
      </trkpt>
      <trkpt lat="59.7841851" lon="17.6825902">
        <ele>53.0098</ele>
        <time>2014-06-01T11:26:51Z</time>
      </trkpt>
      <trkpt lat="59.7841817" lon="17.6826214">
        <ele>53.0098</ele>
        <time>2014-06-01T11:26:52Z</time>
      </trkpt>
      <trkpt lat="59.7841809" lon="17.6826476">
        <ele>53.4905</ele>
        <time>2014-06-01T11:26:53Z</time>
      </trkpt>
      <trkpt lat="59.7841804" lon="17.6826678">
        <ele>53.4905</ele>
        <time>2014-06-01T11:26:54Z</time>
      </trkpt>
      <trkpt lat="59.7841786" lon="17.6826965">
        <ele>53.4905</ele>
        <time>2014-06-01T11:26:55Z</time>
      </trkpt>
      <trkpt lat="59.7841757" lon="17.6827273">
        <ele>53.9712</ele>
        <time>2014-06-01T11:26:56Z</time>
      </trkpt>
      <trkpt lat="59.7841732" lon="17.6827616">
        <ele>54.4518</ele>
        <time>2014-06-01T11:26:57Z</time>
      </trkpt>
      <trkpt lat="59.7841638" lon="17.6828042">
        <ele>54.9324</ele>
        <time>2014-06-01T11:26:58Z</time>
      </trkpt>
      <trkpt lat="59.7841532" lon="17.6828468">
        <ele>54.9324</ele>
        <time>2014-06-01T11:26:59Z</time>
      </trkpt>
      <trkpt lat="59.784144" lon="17.6828855">
        <ele>54.9324</ele>
        <time>2014-06-01T11:27:00Z</time>
      </trkpt>
      <trkpt lat="59.7841363" lon="17.6829193">
        <ele>55.4131</ele>
        <time>2014-06-01T11:27:01Z</time>
      </trkpt>
      <trkpt lat="59.7841188" lon="17.6829571">
        <ele>55.4131</ele>
        <time>2014-06-01T11:27:02Z</time>
      </trkpt>
      <trkpt lat="59.7841089" lon="17.6829809">
        <ele>55.8938</ele>
        <time>2014-06-01T11:27:03Z</time>
      </trkpt>
      <trkpt lat="59.7840944" lon="17.683011">
        <ele>55.8938</ele>
        <time>2014-06-01T11:27:04Z</time>
      </trkpt>
      <trkpt lat="59.7840846" lon="17.6830405">
        <ele>55.8938</ele>
        <time>2014-06-01T11:27:05Z</time>
      </trkpt>
      <trkpt lat="59.7840767" lon="17.6830746">
        <ele>55.8938</ele>
        <time>2014-06-01T11:27:06Z</time>
      </trkpt>
      <trkpt lat="59.7840663" lon="17.6831182">
        <ele>55.8938</ele>
        <time>2014-06-01T11:27:07Z</time>
      </trkpt>
      <trkpt lat="59.784054" lon="17.683158">
        <ele>56.3745</ele>
        <time>2014-06-01T11:27:08Z</time>
      </trkpt>
      <trkpt lat="59.7840427" lon="17.6831948">
        <ele>56.3745</ele>
        <time>2014-06-01T11:27:09Z</time>
      </trkpt>
      <trkpt lat="59.7840307" lon="17.6832362">
        <ele>55.8938</ele>
        <time>2014-06-01T11:27:10Z</time>
      </trkpt>
      <trkpt lat="59.7840187" lon="17.6832838">
        <ele>55.8938</ele>
        <time>2014-06-01T11:27:11Z</time>
      </trkpt>
      <trkpt lat="59.7840105" lon="17.6833318">
        <ele>55.4131</ele>
        <time>2014-06-01T11:27:12Z</time>
      </trkpt>
      <trkpt lat="59.7840069" lon="17.6833766">
        <ele>54.9324</ele>
        <time>2014-06-01T11:27:13Z</time>
      </trkpt>
      <trkpt lat="59.7840063" lon="17.6834161">
        <ele>54.9324</ele>
        <time>2014-06-01T11:27:14Z</time>
      </trkpt>
      <trkpt lat="59.7840048" lon="17.6834484">
        <ele>54.4518</ele>
        <time>2014-06-01T11:27:15Z</time>
      </trkpt>
      <trkpt lat="59.7840048" lon="17.6834818">
        <ele>53.9712</ele>
        <time>2014-06-01T11:27:16Z</time>
      </trkpt>
      <trkpt lat="59.784009" lon="17.6835144">
        <ele>53.4905</ele>
        <time>2014-06-01T11:27:17Z</time>
      </trkpt>
      <trkpt lat="59.784016" lon="17.6835424">
        <ele>53.0098</ele>
        <time>2014-06-01T11:27:18Z</time>
      </trkpt>
      <trkpt lat="59.7840152" lon="17.683572">
        <ele>52.5292</ele>
        <time>2014-06-01T11:27:19Z</time>
      </trkpt>
      <trkpt lat="59.7840095" lon="17.6835937">
        <ele>52.5292</ele>
        <time>2014-06-01T11:27:20Z</time>
      </trkpt>
      <trkpt lat="59.7840059" lon="17.6835993">
        <ele>52.5292</ele>
        <time>2014-06-01T11:27:21Z</time>
      </trkpt>
      <trkpt lat="59.7839981" lon="17.6836107">
        <ele>52.5292</ele>
        <time>2014-06-01T11:27:22Z</time>
      </trkpt>
      <trkpt lat="59.7839861" lon="17.6836314">
        <ele>52.5292</ele>
        <time>2014-06-01T11:27:23Z</time>
      </trkpt>
      <trkpt lat="59.7839766" lon="17.6836528">
        <ele>52.0486</ele>
        <time>2014-06-01T11:27:24Z</time>
      </trkpt>
      <trkpt lat="59.7839706" lon="17.6836707">
        <ele>52.0486</ele>
        <time>2014-06-01T11:27:25Z</time>
      </trkpt>
      <trkpt lat="59.7839667" lon="17.6836849">
        <ele>52.0486</ele>
        <time>2014-06-01T11:27:26Z</time>
      </trkpt>
      <trkpt lat="59.7839657" lon="17.6837013">
        <ele>52.0486</ele>
        <time>2014-06-01T11:27:27Z</time>
      </trkpt>
      <trkpt lat="59.7839686" lon="17.6837144">
        <ele>52.0486</ele>
        <time>2014-06-01T11:27:28Z</time>
      </trkpt>
      <trkpt lat="59.7839707" lon="17.6837211">
        <ele>52.0486</ele>
        <time>2014-06-01T11:27:29Z</time>
      </trkpt>
      <trkpt lat="59.7839738" lon="17.6837263">
        <ele>52.5292</ele>
        <time>2014-06-01T11:27:30Z</time>
      </trkpt>
      <trkpt lat="59.7839707" lon="17.6837367">
        <ele>52.0486</ele>
        <time>2014-06-01T11:27:31Z</time>
      </trkpt>
      <trkpt lat="59.7839706" lon="17.683761">
        <ele>51.5679</ele>
        <time>2014-06-01T11:27:32Z</time>
      </trkpt>
      <trkpt lat="59.7839716" lon="17.6837885">
        <ele>51.5679</ele>
        <time>2014-06-01T11:27:33Z</time>
      </trkpt>
      <trkpt lat="59.7839705" lon="17.6838215">
        <ele>51.0872</ele>
        <time>2014-06-01T11:27:34Z</time>
      </trkpt>
      <trkpt lat="59.7839631" lon="17.6838551">
        <ele>51.5679</ele>
        <time>2014-06-01T11:27:35Z</time>
      </trkpt>
      <trkpt lat="59.7839595" lon="17.6838727">
        <ele>51.5679</ele>
        <time>2014-06-01T11:27:36Z</time>
      </trkpt>
      <trkpt lat="59.7839595" lon="17.6838987">
        <ele>51.5679</ele>
        <time>2014-06-01T11:27:37Z</time>
      </trkpt>
      <trkpt lat="59.7839596" lon="17.6839327">
        <ele>51.5679</ele>
        <time>2014-06-01T11:27:38Z</time>
      </trkpt>
      <trkpt lat="59.7839624" lon="17.683969">
        <ele>51.5679</ele>
        <time>2014-06-01T11:27:39Z</time>
      </trkpt>
      <trkpt lat="59.7839612" lon="17.6840113">
        <ele>51.5679</ele>
        <time>2014-06-01T11:27:40Z</time>
      </trkpt>
      <trkpt lat="59.7839648" lon="17.6840535">
        <ele>51.0872</ele>
        <time>2014-06-01T11:27:41Z</time>
      </trkpt>
      <trkpt lat="59.7839717" lon="17.6840971">
        <ele>51.5679</ele>
        <time>2014-06-01T11:27:42Z</time>
      </trkpt>
      <trkpt lat="59.7839747" lon="17.6841324">
        <ele>51.5679</ele>
        <time>2014-06-01T11:27:43Z</time>
      </trkpt>
      <trkpt lat="59.7839727" lon="17.6841551">
        <ele>51.5679</ele>
        <time>2014-06-01T11:27:44Z</time>
      </trkpt>
      <trkpt lat="59.7839678" lon="17.6841742">
        <ele>52.0486</ele>
        <time>2014-06-01T11:27:45Z</time>
      </trkpt>
      <trkpt lat="59.7839657" lon="17.6841936">
        <ele>52.0486</ele>
        <time>2014-06-01T11:27:46Z</time>
      </trkpt>
      <trkpt lat="59.7839618" lon="17.6842166">
        <ele>52.0486</ele>
        <time>2014-06-01T11:27:47Z</time>
      </trkpt>
      <trkpt lat="59.7839567" lon="17.6842529">
        <ele>52.0486</ele>
        <time>2014-06-01T11:27:48Z</time>
      </trkpt>
      <trkpt lat="59.7839644" lon="17.6842988">
        <ele>53.4905</ele>
        <time>2014-06-01T11:27:49Z</time>
      </trkpt>
      <trkpt lat="59.7839706" lon="17.6843437">
        <ele>54.9324</ele>
        <time>2014-06-01T11:27:50Z</time>
      </trkpt>
      <trkpt lat="59.7839706" lon="17.6843841">
        <ele>55.8938</ele>
        <time>2014-06-01T11:27:51Z</time>
      </trkpt>
      <trkpt lat="59.7839654" lon="17.6844204">
        <ele>56.3745</ele>
        <time>2014-06-01T11:27:52Z</time>
      </trkpt>
      <trkpt lat="59.7839623" lon="17.684444">
        <ele>56.8551</ele>
        <time>2014-06-01T11:27:53Z</time>
      </trkpt>
      <trkpt lat="59.7839608" lon="17.6844673">
        <ele>57.3358</ele>
        <time>2014-06-01T11:27:54Z</time>
      </trkpt>
      <trkpt lat="59.7839535" lon="17.684488">
        <ele>57.3358</ele>
        <time>2014-06-01T11:27:55Z</time>
      </trkpt>
      <trkpt lat="59.7839426" lon="17.684501">
        <ele>57.3358</ele>
        <time>2014-06-01T11:27:56Z</time>
      </trkpt>
      <trkpt lat="59.7839355" lon="17.6845127">
        <ele>57.3358</ele>
        <time>2014-06-01T11:27:57Z</time>
      </trkpt>
      <trkpt lat="59.7839357" lon="17.684528">
        <ele>57.8165</ele>
        <time>2014-06-01T11:27:58Z</time>
      </trkpt>
      <trkpt lat="59.7839328" lon="17.6845394">
        <ele>58.2971</ele>
        <time>2014-06-01T11:27:59Z</time>
      </trkpt>
      <trkpt lat="59.7839313" lon="17.6845482">
        <ele>58.2971</ele>
        <time>2014-06-01T11:28:00Z</time>
      </trkpt>
      <trkpt lat="59.7839307" lon="17.6845587">
        <ele>58.2971</ele>
        <time>2014-06-01T11:28:01Z</time>
      </trkpt>
      <trkpt lat="59.7839322" lon="17.684564">
        <ele>58.2971</ele>
        <time>2014-06-01T11:28:02Z</time>
      </trkpt>
      <trkpt lat="59.7839336" lon="17.6845683">
        <ele>58.7777</ele>
        <time>2014-06-01T11:28:03Z</time>
      </trkpt>
      <trkpt lat="59.783929" lon="17.6846735">
        <ele>58.2971</ele>
        <time>2014-06-01T11:28:08Z</time>
      </trkpt>
      <trkpt lat="59.7839312" lon="17.6847121">
        <ele>57.8165</ele>
        <time>2014-06-01T11:28:09Z</time>
      </trkpt>
      <trkpt lat="59.7839305" lon="17.6847529">
        <ele>57.8165</ele>
        <time>2014-06-01T11:28:10Z</time>
      </trkpt>
      <trkpt lat="59.7839258" lon="17.6847945">
        <ele>58.2971</ele>
        <time>2014-06-01T11:28:11Z</time>
      </trkpt>
      <trkpt lat="59.7839238" lon="17.6848258">
        <ele>57.8165</ele>
        <time>2014-06-01T11:28:12Z</time>
      </trkpt>
      <trkpt lat="59.7839186" lon="17.6848503">
        <ele>57.8165</ele>
        <time>2014-06-01T11:28:13Z</time>
      </trkpt>
      <trkpt lat="59.7839157" lon="17.684867">
        <ele>57.3358</ele>
        <time>2014-06-01T11:28:14Z</time>
      </trkpt>
      <trkpt lat="59.7839167" lon="17.6848948">
        <ele>56.8551</ele>
        <time>2014-06-01T11:28:15Z</time>
      </trkpt>
      <trkpt lat="59.7839177" lon="17.6849254">
        <ele>56.3745</ele>
        <time>2014-06-01T11:28:16Z</time>
      </trkpt>
      <trkpt lat="59.7839126" lon="17.6849508">
        <ele>55.8938</ele>
        <time>2014-06-01T11:28:17Z</time>
      </trkpt>
      <trkpt lat="59.7839079" lon="17.6849625">
        <ele>55.8938</ele>
        <time>2014-06-01T11:28:18Z</time>
      </trkpt>
      <trkpt lat="59.7839064" lon="17.6849633">
        <ele>55.8938</ele>
        <time>2014-06-01T11:28:19Z</time>
      </trkpt>
      <trkpt lat="59.7839043" lon="17.6849644">
        <ele>55.4131</ele>
        <time>2014-06-01T11:28:20Z</time>
      </trkpt>
      <trkpt lat="59.7838504" lon="17.6851259">
        <ele>60.7003</ele>
        <time>2014-06-01T11:28:37Z</time>
      </trkpt>
      <trkpt lat="59.7838349" lon="17.685132">
        <ele>60.7003</ele>
        <time>2014-06-01T11:28:38Z</time>
      </trkpt>
      <trkpt lat="59.7838243" lon="17.6851392">
        <ele>60.7003</ele>
        <time>2014-06-01T11:28:39Z</time>
      </trkpt>
      <trkpt lat="59.7838233" lon="17.6851524">
        <ele>60.7003</ele>
        <time>2014-06-01T11:28:40Z</time>
      </trkpt>
      <trkpt lat="59.7838204" lon="17.6851718">
        <ele>60.2197</ele>
        <time>2014-06-01T11:28:41Z</time>
      </trkpt>
      <trkpt lat="59.7838202" lon="17.6851907">
        <ele>59.7391</ele>
        <time>2014-06-01T11:28:42Z</time>
      </trkpt>
      <trkpt lat="59.7838208" lon="17.6852155">
        <ele>59.7391</ele>
        <time>2014-06-01T11:28:43Z</time>
      </trkpt>
      <trkpt lat="59.7838188" lon="17.6852435">
        <ele>59.2584</ele>
        <time>2014-06-01T11:28:44Z</time>
      </trkpt>
      <trkpt lat="59.7838191" lon="17.6852687">
        <ele>58.2971</ele>
        <time>2014-06-01T11:28:45Z</time>
      </trkpt>
      <trkpt lat="59.7838173" lon="17.6852958">
        <ele>57.8165</ele>
        <time>2014-06-01T11:28:46Z</time>
      </trkpt>
      <trkpt lat="59.7838125" lon="17.6853177">
        <ele>58.2971</ele>
        <time>2014-06-01T11:28:47Z</time>
      </trkpt>
      <trkpt lat="59.7838003" lon="17.6853374">
        <ele>57.3358</ele>
        <time>2014-06-01T11:28:48Z</time>
      </trkpt>
      <trkpt lat="59.7837862" lon="17.685348">
        <ele>57.3358</ele>
        <time>2014-06-01T11:28:49Z</time>
      </trkpt>
      <trkpt lat="59.78377" lon="17.6853622">
        <ele>57.8165</ele>
        <time>2014-06-01T11:28:50Z</time>
      </trkpt>
      <trkpt lat="59.7837565" lon="17.6853782">
        <ele>57.8165</ele>
        <time>2014-06-01T11:28:51Z</time>
      </trkpt>
      <trkpt lat="59.7837483" lon="17.6853946">
        <ele>57.3358</ele>
        <time>2014-06-01T11:28:52Z</time>
      </trkpt>
      <trkpt lat="59.7837468" lon="17.6854174">
        <ele>56.8551</ele>
        <time>2014-06-01T11:28:53Z</time>
      </trkpt>
      <trkpt lat="59.7837526" lon="17.6854475">
        <ele>56.3745</ele>
        <time>2014-06-01T11:28:54Z</time>
      </trkpt>
      <trkpt lat="59.783763" lon="17.6854676">
        <ele>55.8938</ele>
        <time>2014-06-01T11:28:55Z</time>
      </trkpt>
      <trkpt lat="59.7837702" lon="17.6854858">
        <ele>55.4131</ele>
        <time>2014-06-01T11:28:56Z</time>
      </trkpt>
      <trkpt lat="59.7837706" lon="17.6855046">
        <ele>54.4518</ele>
        <time>2014-06-01T11:28:57Z</time>
      </trkpt>
      <trkpt lat="59.783766" lon="17.6855232">
        <ele>53.4905</ele>
        <time>2014-06-01T11:28:58Z</time>
      </trkpt>
      <trkpt lat="59.7837685" lon="17.6855393">
        <ele>53.0098</ele>
        <time>2014-06-01T11:28:59Z</time>
      </trkpt>
      <trkpt lat="59.7837721" lon="17.6855599">
        <ele>52.5292</ele>
        <time>2014-06-01T11:29:00Z</time>
      </trkpt>
      <trkpt lat="59.7837696" lon="17.6855925">
        <ele>52.5292</ele>
        <time>2014-06-01T11:29:01Z</time>
      </trkpt>
      <trkpt lat="59.7837696" lon="17.6856222">
        <ele>53.0098</ele>
        <time>2014-06-01T11:29:02Z</time>
      </trkpt>
      <trkpt lat="59.7837726" lon="17.6856501">
        <ele>53.9712</ele>
        <time>2014-06-01T11:29:03Z</time>
      </trkpt>
      <trkpt lat="59.783782" lon="17.6856779">
        <ele>54.9324</ele>
        <time>2014-06-01T11:29:04Z</time>
      </trkpt>
      <trkpt lat="59.7837805" lon="17.6857121">
        <ele>54.4518</ele>
        <time>2014-06-01T11:29:05Z</time>
      </trkpt>
      <trkpt lat="59.7837799" lon="17.6857449">
        <ele>54.4518</ele>
        <time>2014-06-01T11:29:06Z</time>
      </trkpt>
      <trkpt lat="59.78378" lon="17.685775">
        <ele>54.4518</ele>
        <time>2014-06-01T11:29:07Z</time>
      </trkpt>
      <trkpt lat="59.7837815" lon="17.6858066">
        <ele>54.9324</ele>
        <time>2014-06-01T11:29:08Z</time>
      </trkpt>
      <trkpt lat="59.7837806" lon="17.6858395">
        <ele>55.4131</ele>
        <time>2014-06-01T11:29:09Z</time>
      </trkpt>
      <trkpt lat="59.7837767" lon="17.6858724">
        <ele>55.4131</ele>
        <time>2014-06-01T11:29:10Z</time>
      </trkpt>
      <trkpt lat="59.7837758" lon="17.6859058">
        <ele>55.8938</ele>
        <time>2014-06-01T11:29:11Z</time>
      </trkpt>
      <trkpt lat="59.7837798" lon="17.6859376">
        <ele>56.3745</ele>
        <time>2014-06-01T11:29:12Z</time>
      </trkpt>
      <trkpt lat="59.783779" lon="17.685969">
        <ele>55.8938</ele>
        <time>2014-06-01T11:29:13Z</time>
      </trkpt>
      <trkpt lat="59.783777" lon="17.6860069">
        <ele>55.8938</ele>
        <time>2014-06-01T11:29:14Z</time>
      </trkpt>
      <trkpt lat="59.7837762" lon="17.6860499">
        <ele>56.3745</ele>
        <time>2014-06-01T11:29:15Z</time>
      </trkpt>
      <trkpt lat="59.7837664" lon="17.6860935">
        <ele>55.8938</ele>
        <time>2014-06-01T11:29:16Z</time>
      </trkpt>
      <trkpt lat="59.7837571" lon="17.6861387">
        <ele>55.4131</ele>
        <time>2014-06-01T11:29:17Z</time>
      </trkpt>
      <trkpt lat="59.783751" lon="17.6861817">
        <ele>55.4131</ele>
        <time>2014-06-01T11:29:18Z</time>
      </trkpt>
      <trkpt lat="59.7837478" lon="17.6862201">
        <ele>55.8938</ele>
        <time>2014-06-01T11:29:19Z</time>
      </trkpt>
      <trkpt lat="59.7837456" lon="17.6862581">
        <ele>55.4131</ele>
        <time>2014-06-01T11:29:20Z</time>
      </trkpt>
      <trkpt lat="59.7837473" lon="17.6862954">
        <ele>56.3745</ele>
        <time>2014-06-01T11:29:21Z</time>
      </trkpt>
      <trkpt lat="59.7837482" lon="17.6863271">
        <ele>56.3745</ele>
        <time>2014-06-01T11:29:22Z</time>
      </trkpt>
      <trkpt lat="59.7837473" lon="17.6863571">
        <ele>56.3745</ele>
        <time>2014-06-01T11:29:23Z</time>
      </trkpt>
      <trkpt lat="59.783742" lon="17.6863826">
        <ele>56.3745</ele>
        <time>2014-06-01T11:29:24Z</time>
      </trkpt>
      <trkpt lat="59.7837339" lon="17.686408">
        <ele>56.3745</ele>
        <time>2014-06-01T11:29:25Z</time>
      </trkpt>
      <trkpt lat="59.7837223" lon="17.6864405">
        <ele>56.3745</ele>
        <time>2014-06-01T11:29:26Z</time>
      </trkpt>
      <trkpt lat="59.7837238" lon="17.6864679">
        <ele>56.3745</ele>
        <time>2014-06-01T11:29:27Z</time>
      </trkpt>
      <trkpt lat="59.7837241" lon="17.6865038">
        <ele>56.3745</ele>
        <time>2014-06-01T11:29:28Z</time>
      </trkpt>
      <trkpt lat="59.7837249" lon="17.6865417">
        <ele>56.3745</ele>
        <time>2014-06-01T11:29:29Z</time>
      </trkpt>
      <trkpt lat="59.7837261" lon="17.6865754">
        <ele>56.3745</ele>
        <time>2014-06-01T11:29:30Z</time>
      </trkpt>
      <trkpt lat="59.7837295" lon="17.6866114">
        <ele>56.3745</ele>
        <time>2014-06-01T11:29:31Z</time>
      </trkpt>
      <trkpt lat="59.7837369" lon="17.6866497">
        <ele>55.8938</ele>
        <time>2014-06-01T11:29:32Z</time>
      </trkpt>
      <trkpt lat="59.7837401" lon="17.6866872">
        <ele>55.4131</ele>
        <time>2014-06-01T11:29:33Z</time>
      </trkpt>
      <trkpt lat="59.7837442" lon="17.686724">
        <ele>54.9324</ele>
        <time>2014-06-01T11:29:34Z</time>
      </trkpt>
      <trkpt lat="59.7837468" lon="17.6867595">
        <ele>54.9324</ele>
        <time>2014-06-01T11:29:35Z</time>
      </trkpt>
      <trkpt lat="59.7837454" lon="17.6867916">
        <ele>54.4518</ele>
        <time>2014-06-01T11:29:36Z</time>
      </trkpt>
      <trkpt lat="59.7837428" lon="17.6868234">
        <ele>53.9712</ele>
        <time>2014-06-01T11:29:37Z</time>
      </trkpt>
      <trkpt lat="59.7837409" lon="17.6868561">
        <ele>53.9712</ele>
        <time>2014-06-01T11:29:38Z</time>
      </trkpt>
      <trkpt lat="59.7837416" lon="17.6868875">
        <ele>53.4905</ele>
        <time>2014-06-01T11:29:39Z</time>
      </trkpt>
      <trkpt lat="59.7837379" lon="17.6869188">
        <ele>53.4905</ele>
        <time>2014-06-01T11:29:40Z</time>
      </trkpt>
      <trkpt lat="59.7837414" lon="17.6869348">
        <ele>53.4905</ele>
        <time>2014-06-01T11:29:41Z</time>
      </trkpt>
      <trkpt lat="59.7837383" lon="17.6869553">
        <ele>53.0098</ele>
        <time>2014-06-01T11:29:42Z</time>
      </trkpt>
      <trkpt lat="59.783736" lon="17.6869882">
        <ele>52.5292</ele>
        <time>2014-06-01T11:29:43Z</time>
      </trkpt>
      <trkpt lat="59.7837327" lon="17.6870322">
        <ele>52.0486</ele>
        <time>2014-06-01T11:29:44Z</time>
      </trkpt>
      <trkpt lat="59.7837266" lon="17.6870685">
        <ele>52.5292</ele>
        <time>2014-06-01T11:29:45Z</time>
      </trkpt>
      <trkpt lat="59.7837155" lon="17.6870928">
        <ele>52.5292</ele>
        <time>2014-06-01T11:29:46Z</time>
      </trkpt>
      <trkpt lat="59.7837054" lon="17.6871156">
        <ele>52.0486</ele>
        <time>2014-06-01T11:29:47Z</time>
      </trkpt>
      <trkpt lat="59.7836976" lon="17.6871368">
        <ele>52.0486</ele>
        <time>2014-06-01T11:29:48Z</time>
      </trkpt>
      <trkpt lat="59.7836915" lon="17.6871537">
        <ele>52.5292</ele>
        <time>2014-06-01T11:29:49Z</time>
      </trkpt>
      <trkpt lat="59.7836868" lon="17.6871658">
        <ele>52.5292</ele>
        <time>2014-06-01T11:29:50Z</time>
      </trkpt>
      <trkpt lat="59.7836769" lon="17.6871841">
        <ele>52.5292</ele>
        <time>2014-06-01T11:29:51Z</time>
      </trkpt>
      <trkpt lat="59.7836684" lon="17.6871996">
        <ele>52.5292</ele>
        <time>2014-06-01T11:29:52Z</time>
      </trkpt>
      <trkpt lat="59.7836619" lon="17.6872099">
        <ele>53.4905</ele>
        <time>2014-06-01T11:29:53Z</time>
      </trkpt>
      <trkpt lat="59.7836516" lon="17.6872169">
        <ele>53.4905</ele>
        <time>2014-06-01T11:29:54Z</time>
      </trkpt>
      <trkpt lat="59.7836402" lon="17.6872281">
        <ele>53.4905</ele>
        <time>2014-06-01T11:29:55Z</time>
      </trkpt>
      <trkpt lat="59.7836318" lon="17.6872475">
        <ele>53.9712</ele>
        <time>2014-06-01T11:29:56Z</time>
      </trkpt>
      <trkpt lat="59.7836254" lon="17.687267">
        <ele>54.4518</ele>
        <time>2014-06-01T11:29:57Z</time>
      </trkpt>
      <trkpt lat="59.7836135" lon="17.6872829">
        <ele>54.9324</ele>
        <time>2014-06-01T11:29:58Z</time>
      </trkpt>
      <trkpt lat="59.7835997" lon="17.6872933">
        <ele>55.4131</ele>
        <time>2014-06-01T11:29:59Z</time>
      </trkpt>
      <trkpt lat="59.7835865" lon="17.6873062">
        <ele>55.4131</ele>
        <time>2014-06-01T11:30:00Z</time>
      </trkpt>
      <trkpt lat="59.783562" lon="17.6873239">
        <ele>55.8938</ele>
        <time>2014-06-01T11:30:01Z</time>
      </trkpt>
      <trkpt lat="59.783535" lon="17.687332">
        <ele>55.8938</ele>
        <time>2014-06-01T11:30:02Z</time>
      </trkpt>
      <trkpt lat="59.7835174" lon="17.6873288">
        <ele>56.3745</ele>
        <time>2014-06-01T11:30:03Z</time>
      </trkpt>
      <trkpt lat="59.7834983" lon="17.6873269">
        <ele>56.8551</ele>
        <time>2014-06-01T11:30:04Z</time>
      </trkpt>
      <trkpt lat="59.7834778" lon="17.687317">
        <ele>56.8551</ele>
        <time>2014-06-01T11:30:05Z</time>
      </trkpt>
      <trkpt lat="59.783464" lon="17.6873048">
        <ele>56.8551</ele>
        <time>2014-06-01T11:30:06Z</time>
      </trkpt>
      <trkpt lat="59.7834526" lon="17.6872959">
        <ele>57.3358</ele>
        <time>2014-06-01T11:30:07Z</time>
      </trkpt>
      <trkpt lat="59.7834345" lon="17.6872788">
        <ele>57.3358</ele>
        <time>2014-06-01T11:30:08Z</time>
      </trkpt>
      <trkpt lat="59.7834125" lon="17.6872602">
        <ele>57.3358</ele>
        <time>2014-06-01T11:30:09Z</time>
      </trkpt>
      <trkpt lat="59.7833936" lon="17.6872488">
        <ele>57.8165</ele>
        <time>2014-06-01T11:30:10Z</time>
      </trkpt>
      <trkpt lat="59.7833775" lon="17.6872451">
        <ele>58.2971</ele>
        <time>2014-06-01T11:30:11Z</time>
      </trkpt>
      <trkpt lat="59.78336" lon="17.6872389">
        <ele>58.7777</ele>
        <time>2014-06-01T11:30:12Z</time>
      </trkpt>
      <trkpt lat="59.7833444" lon="17.6872297">
        <ele>59.7391</ele>
        <time>2014-06-01T11:30:13Z</time>
      </trkpt>
      <trkpt lat="59.7833267" lon="17.6872255">
        <ele>60.2197</ele>
        <time>2014-06-01T11:30:14Z</time>
      </trkpt>
      <trkpt lat="59.7833102" lon="17.6872248">
        <ele>60.7003</ele>
        <time>2014-06-01T11:30:15Z</time>
      </trkpt>
      <trkpt lat="59.783294" lon="17.6872259">
        <ele>60.7003</ele>
        <time>2014-06-01T11:30:16Z</time>
      </trkpt>
      <trkpt lat="59.7832771" lon="17.6872337">
        <ele>60.7003</ele>
        <time>2014-06-01T11:30:17Z</time>
      </trkpt>
      <trkpt lat="59.7832597" lon="17.687244">
        <ele>61.181</ele>
        <time>2014-06-01T11:30:18Z</time>
      </trkpt>
      <trkpt lat="59.7832443" lon="17.6872461">
        <ele>60.7003</ele>
        <time>2014-06-01T11:30:19Z</time>
      </trkpt>
      <trkpt lat="59.7832345" lon="17.6872529">
        <ele>61.181</ele>
        <time>2014-06-01T11:30:20Z</time>
      </trkpt>
      <trkpt lat="59.7832287" lon="17.6872613">
        <ele>61.181</ele>
        <time>2014-06-01T11:30:21Z</time>
      </trkpt>
      <trkpt lat="59.7832241" lon="17.6872703">
        <ele>61.181</ele>
        <time>2014-06-01T11:30:22Z</time>
      </trkpt>
      <trkpt lat="59.783217" lon="17.6872798">
        <ele>61.6617</ele>
        <time>2014-06-01T11:30:23Z</time>
      </trkpt>
      <trkpt lat="59.7832152" lon="17.6872856">
        <ele>61.6617</ele>
        <time>2014-06-01T11:30:24Z</time>
      </trkpt>
      <trkpt lat="59.7832128" lon="17.6872897">
        <ele>62.1423</ele>
        <time>2014-06-01T11:30:25Z</time>
      </trkpt>
      <trkpt lat="59.7831538" lon="17.687515">
        <ele>61.181</ele>
        <time>2014-06-01T11:30:44Z</time>
      </trkpt>
      <trkpt lat="59.7831467" lon="17.6875351">
        <ele>61.181</ele>
        <time>2014-06-01T11:30:45Z</time>
      </trkpt>
      <trkpt lat="59.7831414" lon="17.6875534">
        <ele>61.181</ele>
        <time>2014-06-01T11:30:46Z</time>
      </trkpt>
      <trkpt lat="59.7831346" lon="17.6875738">
        <ele>61.181</ele>
        <time>2014-06-01T11:30:47Z</time>
      </trkpt>
      <trkpt lat="59.7831262" lon="17.6876">
        <ele>60.7003</ele>
        <time>2014-06-01T11:30:48Z</time>
      </trkpt>
      <trkpt lat="59.7831164" lon="17.68763">
        <ele>60.7003</ele>
        <time>2014-06-01T11:30:49Z</time>
      </trkpt>
      <trkpt lat="59.7831044" lon="17.6876656">
        <ele>60.7003</ele>
        <time>2014-06-01T11:30:50Z</time>
      </trkpt>
      <trkpt lat="59.7830919" lon="17.6877031">
        <ele>60.7003</ele>
        <time>2014-06-01T11:30:51Z</time>
      </trkpt>
      <trkpt lat="59.7830781" lon="17.6877399">
        <ele>60.7003</ele>
        <time>2014-06-01T11:30:52Z</time>
      </trkpt>
      <trkpt lat="59.7830676" lon="17.6877781">
        <ele>60.2197</ele>
        <time>2014-06-01T11:30:53Z</time>
      </trkpt>
      <trkpt lat="59.7830584" lon="17.6878159">
        <ele>60.2197</ele>
        <time>2014-06-01T11:30:54Z</time>
      </trkpt>
      <trkpt lat="59.7830519" lon="17.68786">
        <ele>59.7391</ele>
        <time>2014-06-01T11:30:55Z</time>
      </trkpt>
      <trkpt lat="59.7830453" lon="17.6879136">
        <ele>59.7391</ele>
        <time>2014-06-01T11:30:56Z</time>
      </trkpt>
      <trkpt lat="59.7830314" lon="17.6879685">
        <ele>59.2584</ele>
        <time>2014-06-01T11:30:57Z</time>
      </trkpt>
      <trkpt lat="59.7830128" lon="17.6880201">
        <ele>58.7777</ele>
        <time>2014-06-01T11:30:58Z</time>
      </trkpt>
      <trkpt lat="59.7830009" lon="17.6880682">
        <ele>58.2971</ele>
        <time>2014-06-01T11:30:59Z</time>
      </trkpt>
      <trkpt lat="59.7829968" lon="17.688112">
        <ele>58.2971</ele>
        <time>2014-06-01T11:31:00Z</time>
      </trkpt>
      <trkpt lat="59.7829986" lon="17.6881563">
        <ele>57.8165</ele>
        <time>2014-06-01T11:31:01Z</time>
      </trkpt>
      <trkpt lat="59.7829978" lon="17.6881976">
        <ele>57.8165</ele>
        <time>2014-06-01T11:31:02Z</time>
      </trkpt>
      <trkpt lat="59.7830002" lon="17.6882325">
        <ele>57.3358</ele>
        <time>2014-06-01T11:31:03Z</time>
      </trkpt>
      <trkpt lat="59.7829994" lon="17.6882686">
        <ele>56.8551</ele>
        <time>2014-06-01T11:31:04Z</time>
      </trkpt>
      <trkpt lat="59.7829952" lon="17.6882999">
        <ele>57.3358</ele>
        <time>2014-06-01T11:31:05Z</time>
      </trkpt>
      <trkpt lat="59.7829864" lon="17.6883246">
        <ele>57.3358</ele>
        <time>2014-06-01T11:31:06Z</time>
      </trkpt>
      <trkpt lat="59.7829763" lon="17.6883429">
        <ele>57.3358</ele>
        <time>2014-06-01T11:31:07Z</time>
      </trkpt>
      <trkpt lat="59.7829649" lon="17.6883614">
        <ele>57.3358</ele>
        <time>2014-06-01T11:31:08Z</time>
      </trkpt>
      <trkpt lat="59.7829496" lon="17.6883819">
        <ele>57.3358</ele>
        <time>2014-06-01T11:31:09Z</time>
      </trkpt>
      <trkpt lat="59.7829338" lon="17.6883996">
        <ele>57.3358</ele>
        <time>2014-06-01T11:31:10Z</time>
      </trkpt>
      <trkpt lat="59.7829194" lon="17.6884216">
        <ele>57.3358</ele>
        <time>2014-06-01T11:31:11Z</time>
      </trkpt>
      <trkpt lat="59.7829054" lon="17.6884526">
        <ele>57.3358</ele>
        <time>2014-06-01T11:31:12Z</time>
      </trkpt>
      <trkpt lat="59.7828916" lon="17.6884912">
        <ele>56.8551</ele>
        <time>2014-06-01T11:31:13Z</time>
      </trkpt>
      <trkpt lat="59.782876" lon="17.6885391">
        <ele>56.3745</ele>
        <time>2014-06-01T11:31:14Z</time>
      </trkpt>
      <trkpt lat="59.7828621" lon="17.6885817">
        <ele>55.8938</ele>
        <time>2014-06-01T11:31:15Z</time>
      </trkpt>
      <trkpt lat="59.7828465" lon="17.6886205">
        <ele>55.8938</ele>
        <time>2014-06-01T11:31:16Z</time>
      </trkpt>
      <trkpt lat="59.7828272" lon="17.6886587">
        <ele>55.8938</ele>
        <time>2014-06-01T11:31:17Z</time>
      </trkpt>
      <trkpt lat="59.7828077" lon="17.6886939">
        <ele>55.4131</ele>
        <time>2014-06-01T11:31:18Z</time>
      </trkpt>
      <trkpt lat="59.7827924" lon="17.6887271">
        <ele>55.4131</ele>
        <time>2014-06-01T11:31:19Z</time>
      </trkpt>
      <trkpt lat="59.7827791" lon="17.6887598">
        <ele>54.9324</ele>
        <time>2014-06-01T11:31:20Z</time>
      </trkpt>
      <trkpt lat="59.782773" lon="17.6887886">
        <ele>54.4518</ele>
        <time>2014-06-01T11:31:21Z</time>
      </trkpt>
      <trkpt lat="59.7827645" lon="17.6888163">
        <ele>54.4518</ele>
        <time>2014-06-01T11:31:22Z</time>
      </trkpt>
      <trkpt lat="59.7827513" lon="17.6888399">
        <ele>53.9712</ele>
        <time>2014-06-01T11:31:23Z</time>
      </trkpt>
      <trkpt lat="59.7827394" lon="17.6888596">
        <ele>53.9712</ele>
        <time>2014-06-01T11:31:24Z</time>
      </trkpt>
      <trkpt lat="59.7827254" lon="17.6888872">
        <ele>53.9712</ele>
        <time>2014-06-01T11:31:25Z</time>
      </trkpt>
      <trkpt lat="59.7827109" lon="17.688923">
        <ele>53.9712</ele>
        <time>2014-06-01T11:31:26Z</time>
      </trkpt>
      <trkpt lat="59.7826921" lon="17.6889673">
        <ele>53.4905</ele>
        <time>2014-06-01T11:31:27Z</time>
      </trkpt>
      <trkpt lat="59.7826754" lon="17.6890097">
        <ele>53.4905</ele>
        <time>2014-06-01T11:31:28Z</time>
      </trkpt>
      <trkpt lat="59.7826581" lon="17.6890605">
        <ele>53.0098</ele>
        <time>2014-06-01T11:31:29Z</time>
      </trkpt>
      <trkpt lat="59.7826415" lon="17.6891187">
        <ele>53.0098</ele>
        <time>2014-06-01T11:31:30Z</time>
      </trkpt>
      <trkpt lat="59.7826246" lon="17.6891823">
        <ele>53.0098</ele>
        <time>2014-06-01T11:31:31Z</time>
      </trkpt>
      <trkpt lat="59.7826072" lon="17.6892441">
        <ele>52.5292</ele>
        <time>2014-06-01T11:31:32Z</time>
      </trkpt>
      <trkpt lat="59.7825888" lon="17.6893063">
        <ele>52.5292</ele>
        <time>2014-06-01T11:31:33Z</time>
      </trkpt>
      <trkpt lat="59.7825715" lon="17.6893585">
        <ele>53.0098</ele>
        <time>2014-06-01T11:31:34Z</time>
      </trkpt>
      <trkpt lat="59.7825579" lon="17.6894027">
        <ele>53.0098</ele>
        <time>2014-06-01T11:31:35Z</time>
      </trkpt>
      <trkpt lat="59.782547" lon="17.6894397">
        <ele>52.5292</ele>
        <time>2014-06-01T11:31:36Z</time>
      </trkpt>
      <trkpt lat="59.7825394" lon="17.6894706">
        <ele>53.0098</ele>
        <time>2014-06-01T11:31:37Z</time>
      </trkpt>
      <trkpt lat="59.7825319" lon="17.6895101">
        <ele>52.5292</ele>
        <time>2014-06-01T11:31:38Z</time>
      </trkpt>
      <trkpt lat="59.7825269" lon="17.6895523">
        <ele>53.0098</ele>
        <time>2014-06-01T11:31:39Z</time>
      </trkpt>
      <trkpt lat="59.7825163" lon="17.6895818">
        <ele>53.9712</ele>
        <time>2014-06-01T11:31:40Z</time>
      </trkpt>
      <trkpt lat="59.7825068" lon="17.689598">
        <ele>54.4518</ele>
        <time>2014-06-01T11:31:41Z</time>
      </trkpt>
      <trkpt lat="59.7824983" lon="17.6896181">
        <ele>55.4131</ele>
        <time>2014-06-01T11:31:42Z</time>
      </trkpt>
      <trkpt lat="59.7824896" lon="17.689641">
        <ele>55.8938</ele>
        <time>2014-06-01T11:31:43Z</time>
      </trkpt>
      <trkpt lat="59.7824827" lon="17.6896708">
        <ele>56.3745</ele>
        <time>2014-06-01T11:31:44Z</time>
      </trkpt>
      <trkpt lat="59.7824713" lon="17.6897113">
        <ele>56.8551</ele>
        <time>2014-06-01T11:31:45Z</time>
      </trkpt>
      <trkpt lat="59.7824507" lon="17.6897486">
        <ele>57.3358</ele>
        <time>2014-06-01T11:31:46Z</time>
      </trkpt>
      <trkpt lat="59.7824298" lon="17.6897787">
        <ele>57.3358</ele>
        <time>2014-06-01T11:31:47Z</time>
      </trkpt>
      <trkpt lat="59.7824198" lon="17.6898104">
        <ele>57.3358</ele>
        <time>2014-06-01T11:31:48Z</time>
      </trkpt>
      <trkpt lat="59.7824193" lon="17.6898528">
        <ele>57.3358</ele>
        <time>2014-06-01T11:31:49Z</time>
      </trkpt>
      <trkpt lat="59.7824238" lon="17.6898995">
        <ele>57.8165</ele>
        <time>2014-06-01T11:31:50Z</time>
      </trkpt>
      <trkpt lat="59.7824231" lon="17.6899402">
        <ele>57.3358</ele>
        <time>2014-06-01T11:31:51Z</time>
      </trkpt>
      <trkpt lat="59.7824138" lon="17.6899693">
        <ele>57.3358</ele>
        <time>2014-06-01T11:31:52Z</time>
      </trkpt>
      <trkpt lat="59.7824073" lon="17.6899917">
        <ele>57.3358</ele>
        <time>2014-06-01T11:31:53Z</time>
      </trkpt>
      <trkpt lat="59.7824006" lon="17.6900102">
        <ele>57.3358</ele>
        <time>2014-06-01T11:31:54Z</time>
      </trkpt>
      <trkpt lat="59.7823904" lon="17.6900331">
        <ele>57.3358</ele>
        <time>2014-06-01T11:31:55Z</time>
      </trkpt>
      <trkpt lat="59.7823792" lon="17.6900558">
        <ele>57.3358</ele>
        <time>2014-06-01T11:31:56Z</time>
      </trkpt>
      <trkpt lat="59.7823692" lon="17.690078">
        <ele>57.3358</ele>
        <time>2014-06-01T11:31:57Z</time>
      </trkpt>
      <trkpt lat="59.782361" lon="17.6901009">
        <ele>56.8551</ele>
        <time>2014-06-01T11:31:58Z</time>
      </trkpt>
      <trkpt lat="59.7823553" lon="17.690123">
        <ele>56.3745</ele>
        <time>2014-06-01T11:31:59Z</time>
      </trkpt>
      <trkpt lat="59.7823497" lon="17.6901444">
        <ele>55.8938</ele>
        <time>2014-06-01T11:32:00Z</time>
      </trkpt>
      <trkpt lat="59.7823425" lon="17.6901677">
        <ele>55.8938</ele>
        <time>2014-06-01T11:32:01Z</time>
      </trkpt>
      <trkpt lat="59.7823351" lon="17.6901909">
        <ele>55.4131</ele>
        <time>2014-06-01T11:32:02Z</time>
      </trkpt>
      <trkpt lat="59.7823278" lon="17.6902159">
        <ele>55.8938</ele>
        <time>2014-06-01T11:32:03Z</time>
      </trkpt>
      <trkpt lat="59.7823143" lon="17.6902541">
        <ele>55.8938</ele>
        <time>2014-06-01T11:32:04Z</time>
      </trkpt>
      <trkpt lat="59.7823009" lon="17.6902968">
        <ele>56.3745</ele>
        <time>2014-06-01T11:32:05Z</time>
      </trkpt>
      <trkpt lat="59.7822866" lon="17.6903361">
        <ele>57.3358</ele>
        <time>2014-06-01T11:32:06Z</time>
      </trkpt>
      <trkpt lat="59.7822755" lon="17.6903714">
        <ele>57.3358</ele>
        <time>2014-06-01T11:32:07Z</time>
      </trkpt>
      <trkpt lat="59.7822659" lon="17.6904065">
        <ele>57.8165</ele>
        <time>2014-06-01T11:32:08Z</time>
      </trkpt>
      <trkpt lat="59.7822561" lon="17.6904531">
        <ele>58.2971</ele>
        <time>2014-06-01T11:32:09Z</time>
      </trkpt>
      <trkpt lat="59.7822455" lon="17.6905008">
        <ele>57.8165</ele>
        <time>2014-06-01T11:32:10Z</time>
      </trkpt>
      <trkpt lat="59.7822326" lon="17.6905546">
        <ele>57.8165</ele>
        <time>2014-06-01T11:32:11Z</time>
      </trkpt>
      <trkpt lat="59.782229" lon="17.6905882">
        <ele>57.3358</ele>
        <time>2014-06-01T11:32:12Z</time>
      </trkpt>
      <trkpt lat="59.7822234" lon="17.6906137">
        <ele>57.3358</ele>
        <time>2014-06-01T11:32:13Z</time>
      </trkpt>
      <trkpt lat="59.7822118" lon="17.6906294">
        <ele>57.3358</ele>
        <time>2014-06-01T11:32:14Z</time>
      </trkpt>
      <trkpt lat="59.7821969" lon="17.6906407">
        <ele>57.3358</ele>
        <time>2014-06-01T11:32:15Z</time>
      </trkpt>
      <trkpt lat="59.7821813" lon="17.6906583">
        <ele>57.8165</ele>
        <time>2014-06-01T11:32:16Z</time>
      </trkpt>
      <trkpt lat="59.7821672" lon="17.6906853">
        <ele>58.2971</ele>
        <time>2014-06-01T11:32:17Z</time>
      </trkpt>
      <trkpt lat="59.782153" lon="17.6907183">
        <ele>58.2971</ele>
        <time>2014-06-01T11:32:18Z</time>
      </trkpt>
      <trkpt lat="59.7821361" lon="17.6907513">
        <ele>58.2971</ele>
        <time>2014-06-01T11:32:19Z</time>
      </trkpt>
      <trkpt lat="59.7821208" lon="17.6907798">
        <ele>58.2971</ele>
        <time>2014-06-01T11:32:20Z</time>
      </trkpt>
      <trkpt lat="59.7821087" lon="17.6908044">
        <ele>57.8165</ele>
        <time>2014-06-01T11:32:21Z</time>
      </trkpt>
      <trkpt lat="59.7820921" lon="17.6908399">
        <ele>58.2971</ele>
        <time>2014-06-01T11:32:22Z</time>
      </trkpt>
      <trkpt lat="59.7820762" lon="17.6908696">
        <ele>58.2971</ele>
        <time>2014-06-01T11:32:23Z</time>
      </trkpt>
      <trkpt lat="59.7820649" lon="17.6908944">
        <ele>58.2971</ele>
        <time>2014-06-01T11:32:24Z</time>
      </trkpt>
      <trkpt lat="59.7820617" lon="17.6909169">
        <ele>57.8165</ele>
        <time>2014-06-01T11:32:25Z</time>
      </trkpt>
      <trkpt lat="59.7820598" lon="17.6909561">
        <ele>57.3358</ele>
        <time>2014-06-01T11:32:26Z</time>
      </trkpt>
      <trkpt lat="59.7820534" lon="17.6910094">
        <ele>56.3745</ele>
        <time>2014-06-01T11:32:27Z</time>
      </trkpt>
      <trkpt lat="59.7820429" lon="17.6910624">
        <ele>55.8938</ele>
        <time>2014-06-01T11:32:28Z</time>
      </trkpt>
      <trkpt lat="59.7820335" lon="17.691102">
        <ele>55.4131</ele>
        <time>2014-06-01T11:32:29Z</time>
      </trkpt>
      <trkpt lat="59.7820229" lon="17.6911404">
        <ele>55.8938</ele>
        <time>2014-06-01T11:32:30Z</time>
      </trkpt>
      <trkpt lat="59.7820199" lon="17.691173">
        <ele>55.8938</ele>
        <time>2014-06-01T11:32:31Z</time>
      </trkpt>
      <trkpt lat="59.7820276" lon="17.691203">
        <ele>55.8938</ele>
        <time>2014-06-01T11:32:32Z</time>
      </trkpt>
      <trkpt lat="59.7820286" lon="17.6912421">
        <ele>55.8938</ele>
        <time>2014-06-01T11:32:33Z</time>
      </trkpt>
      <trkpt lat="59.7820264" lon="17.6912799">
        <ele>55.4131</ele>
        <time>2014-06-01T11:32:34Z</time>
      </trkpt>
      <trkpt lat="59.7820201" lon="17.6913199">
        <ele>55.4131</ele>
        <time>2014-06-01T11:32:35Z</time>
      </trkpt>
      <trkpt lat="59.7820121" lon="17.691354">
        <ele>55.8938</ele>
        <time>2014-06-01T11:32:36Z</time>
      </trkpt>
      <trkpt lat="59.7820047" lon="17.6913834">
        <ele>56.8551</ele>
        <time>2014-06-01T11:32:37Z</time>
      </trkpt>
      <trkpt lat="59.7820004" lon="17.6914156">
        <ele>56.8551</ele>
        <time>2014-06-01T11:32:38Z</time>
      </trkpt>
      <trkpt lat="59.7819932" lon="17.6914566">
        <ele>57.8165</ele>
        <time>2014-06-01T11:32:39Z</time>
      </trkpt>
      <trkpt lat="59.7819866" lon="17.6914884">
        <ele>57.8165</ele>
        <time>2014-06-01T11:32:40Z</time>
      </trkpt>
      <trkpt lat="59.7819814" lon="17.6915262">
        <ele>57.8165</ele>
        <time>2014-06-01T11:32:41Z</time>
      </trkpt>
      <trkpt lat="59.7819799" lon="17.6915644">
        <ele>57.3358</ele>
        <time>2014-06-01T11:32:42Z</time>
      </trkpt>
      <trkpt lat="59.7819794" lon="17.6915918">
        <ele>57.3358</ele>
        <time>2014-06-01T11:32:43Z</time>
      </trkpt>
      <trkpt lat="59.7819792" lon="17.6916145">
        <ele>57.3358</ele>
        <time>2014-06-01T11:32:44Z</time>
      </trkpt>
      <trkpt lat="59.7819767" lon="17.691643">
        <ele>57.3358</ele>
        <time>2014-06-01T11:32:45Z</time>
      </trkpt>
      <trkpt lat="59.7819768" lon="17.6916801">
        <ele>57.3358</ele>
        <time>2014-06-01T11:32:46Z</time>
      </trkpt>
      <trkpt lat="59.7819729" lon="17.6917311">
        <ele>57.3358</ele>
        <time>2014-06-01T11:32:47Z</time>
      </trkpt>
      <trkpt lat="59.7819701" lon="17.6917792">
        <ele>56.8551</ele>
        <time>2014-06-01T11:32:48Z</time>
      </trkpt>
      <trkpt lat="59.7819652" lon="17.69183">
        <ele>56.3745</ele>
        <time>2014-06-01T11:32:49Z</time>
      </trkpt>
      <trkpt lat="59.7819575" lon="17.6918884">
        <ele>56.3745</ele>
        <time>2014-06-01T11:32:50Z</time>
      </trkpt>
      <trkpt lat="59.7819444" lon="17.6919533">
        <ele>56.8551</ele>
        <time>2014-06-01T11:32:51Z</time>
      </trkpt>
      <trkpt lat="59.7819353" lon="17.6920098">
        <ele>56.8551</ele>
        <time>2014-06-01T11:32:52Z</time>
      </trkpt>
      <trkpt lat="59.7819317" lon="17.6920572">
        <ele>56.8551</ele>
        <time>2014-06-01T11:32:53Z</time>
      </trkpt>
      <trkpt lat="59.7819301" lon="17.6920977">
        <ele>56.8551</ele>
        <time>2014-06-01T11:32:54Z</time>
      </trkpt>
      <trkpt lat="59.7819268" lon="17.6921375">
        <ele>56.8551</ele>
        <time>2014-06-01T11:32:55Z</time>
      </trkpt>
      <trkpt lat="59.7819248" lon="17.6921779">
        <ele>56.3745</ele>
        <time>2014-06-01T11:32:56Z</time>
      </trkpt>
      <trkpt lat="59.7819208" lon="17.6922196">
        <ele>56.3745</ele>
        <time>2014-06-01T11:32:57Z</time>
      </trkpt>
      <trkpt lat="59.7819155" lon="17.6922564">
        <ele>55.8938</ele>
        <time>2014-06-01T11:32:58Z</time>
      </trkpt>
      <trkpt lat="59.7819126" lon="17.6922827">
        <ele>55.4131</ele>
        <time>2014-06-01T11:32:59Z</time>
      </trkpt>
      <trkpt lat="59.7819038" lon="17.692317">
        <ele>55.8938</ele>
        <time>2014-06-01T11:33:00Z</time>
      </trkpt>
      <trkpt lat="59.7818944" lon="17.6923516">
        <ele>55.8938</ele>
        <time>2014-06-01T11:33:01Z</time>
      </trkpt>
      <trkpt lat="59.7818768" lon="17.6923791">
        <ele>56.3745</ele>
        <time>2014-06-01T11:33:02Z</time>
      </trkpt>
      <trkpt lat="59.7818551" lon="17.6923862">
        <ele>56.3745</ele>
        <time>2014-06-01T11:33:03Z</time>
      </trkpt>
      <trkpt lat="59.7818384" lon="17.6923823">
        <ele>56.8551</ele>
        <time>2014-06-01T11:33:04Z</time>
      </trkpt>
      <trkpt lat="59.7818254" lon="17.6923868">
        <ele>56.8551</ele>
        <time>2014-06-01T11:33:05Z</time>
      </trkpt>
      <trkpt lat="59.7818146" lon="17.6924072">
        <ele>57.3358</ele>
        <time>2014-06-01T11:33:06Z</time>
      </trkpt>
      <trkpt lat="59.7817982" lon="17.6924393">
        <ele>57.3358</ele>
        <time>2014-06-01T11:33:07Z</time>
      </trkpt>
      <trkpt lat="59.7817829" lon="17.6924563">
        <ele>57.3358</ele>
        <time>2014-06-01T11:33:08Z</time>
      </trkpt>
      <trkpt lat="59.781764" lon="17.6924618">
        <ele>57.8165</ele>
        <time>2014-06-01T11:33:09Z</time>
      </trkpt>
      <trkpt lat="59.7817415" lon="17.692469">
        <ele>57.8165</ele>
        <time>2014-06-01T11:33:10Z</time>
      </trkpt>
      <trkpt lat="59.7817193" lon="17.6924884">
        <ele>58.7777</ele>
        <time>2014-06-01T11:33:11Z</time>
      </trkpt>
      <trkpt lat="59.7817012" lon="17.6925071">
        <ele>59.2584</ele>
        <time>2014-06-01T11:33:12Z</time>
      </trkpt>
      <trkpt lat="59.781682" lon="17.6925163">
        <ele>59.2584</ele>
        <time>2014-06-01T11:33:13Z</time>
      </trkpt>
      <trkpt lat="59.7816608" lon="17.6925329">
        <ele>59.2584</ele>
        <time>2014-06-01T11:33:14Z</time>
      </trkpt>
      <trkpt lat="59.7816481" lon="17.6925573">
        <ele>59.2584</ele>
        <time>2014-06-01T11:33:15Z</time>
      </trkpt>
      <trkpt lat="59.7816358" lon="17.6925924">
        <ele>59.2584</ele>
        <time>2014-06-01T11:33:16Z</time>
      </trkpt>
      <trkpt lat="59.7816234" lon="17.6926317">
        <ele>59.2584</ele>
        <time>2014-06-01T11:33:17Z</time>
      </trkpt>
      <trkpt lat="59.7816068" lon="17.6926687">
        <ele>58.7777</ele>
        <time>2014-06-01T11:33:18Z</time>
      </trkpt>
      <trkpt lat="59.7815903" lon="17.6927058">
        <ele>59.2584</ele>
        <time>2014-06-01T11:33:19Z</time>
      </trkpt>
      <trkpt lat="59.7815731" lon="17.6927444">
        <ele>59.2584</ele>
        <time>2014-06-01T11:33:20Z</time>
      </trkpt>
      <trkpt lat="59.7815502" lon="17.6927843">
        <ele>59.7391</ele>
        <time>2014-06-01T11:33:21Z</time>
      </trkpt>
      <trkpt lat="59.7815354" lon="17.6928225">
        <ele>60.2197</ele>
        <time>2014-06-01T11:33:22Z</time>
      </trkpt>
      <trkpt lat="59.7815276" lon="17.6928525">
        <ele>59.7391</ele>
        <time>2014-06-01T11:33:23Z</time>
      </trkpt>
      <trkpt lat="59.78152" lon="17.6928764">
        <ele>59.2584</ele>
        <time>2014-06-01T11:33:24Z</time>
      </trkpt>
      <trkpt lat="59.7815101" lon="17.6928981">
        <ele>58.7777</ele>
        <time>2014-06-01T11:33:25Z</time>
      </trkpt>
      <trkpt lat="59.7814992" lon="17.692925">
        <ele>58.2971</ele>
        <time>2014-06-01T11:33:26Z</time>
      </trkpt>
      <trkpt lat="59.7814822" lon="17.6929661">
        <ele>59.2584</ele>
        <time>2014-06-01T11:33:27Z</time>
      </trkpt>
      <trkpt lat="59.7814668" lon="17.6930059">
        <ele>59.7391</ele>
        <time>2014-06-01T11:33:28Z</time>
      </trkpt>
      <trkpt lat="59.7814562" lon="17.6930438">
        <ele>60.2197</ele>
        <time>2014-06-01T11:33:29Z</time>
      </trkpt>
      <trkpt lat="59.7814363" lon="17.6930835">
        <ele>60.2197</ele>
        <time>2014-06-01T11:33:30Z</time>
      </trkpt>
      <trkpt lat="59.7814225" lon="17.6931178">
        <ele>59.7391</ele>
        <time>2014-06-01T11:33:31Z</time>
      </trkpt>
      <trkpt lat="59.7814037" lon="17.6931504">
        <ele>59.2584</ele>
        <time>2014-06-01T11:33:32Z</time>
      </trkpt>
      <trkpt lat="59.7813835" lon="17.6931762">
        <ele>59.2584</ele>
        <time>2014-06-01T11:33:33Z</time>
      </trkpt>
      <trkpt lat="59.7813703" lon="17.6932046">
        <ele>58.7777</ele>
        <time>2014-06-01T11:33:34Z</time>
      </trkpt>
      <trkpt lat="59.7813593" lon="17.6932409">
        <ele>57.8165</ele>
        <time>2014-06-01T11:33:35Z</time>
      </trkpt>
      <trkpt lat="59.7813484" lon="17.6932742">
        <ele>57.3358</ele>
        <time>2014-06-01T11:33:36Z</time>
      </trkpt>
      <trkpt lat="59.7813344" lon="17.6933099">
        <ele>56.8551</ele>
        <time>2014-06-01T11:33:37Z</time>
      </trkpt>
      <trkpt lat="59.7813203" lon="17.6933481">
        <ele>56.3745</ele>
        <time>2014-06-01T11:33:38Z</time>
      </trkpt>
      <trkpt lat="59.7813034" lon="17.6933831">
        <ele>55.8938</ele>
        <time>2014-06-01T11:33:39Z</time>
      </trkpt>
      <trkpt lat="59.7812817" lon="17.6934198">
        <ele>55.8938</ele>
        <time>2014-06-01T11:33:40Z</time>
      </trkpt>
      <trkpt lat="59.7812655" lon="17.6934601">
        <ele>55.4131</ele>
        <time>2014-06-01T11:33:41Z</time>
      </trkpt>
      <trkpt lat="59.7812443" lon="17.6935172">
        <ele>56.3745</ele>
        <time>2014-06-01T11:33:42Z</time>
      </trkpt>
      <trkpt lat="59.7812268" lon="17.6935731">
        <ele>56.8551</ele>
        <time>2014-06-01T11:33:43Z</time>
      </trkpt>
      <trkpt lat="59.7812122" lon="17.693628">
        <ele>57.3358</ele>
        <time>2014-06-01T11:33:44Z</time>
      </trkpt>
      <trkpt lat="59.7812032" lon="17.6936812">
        <ele>57.3358</ele>
        <time>2014-06-01T11:33:45Z</time>
      </trkpt>
      <trkpt lat="59.7811972" lon="17.6937276">
        <ele>56.8551</ele>
        <time>2014-06-01T11:33:46Z</time>
      </trkpt>
      <trkpt lat="59.7811887" lon="17.6937777">
        <ele>56.8551</ele>
        <time>2014-06-01T11:33:47Z</time>
      </trkpt>
      <trkpt lat="59.7811767" lon="17.693817">
        <ele>56.3745</ele>
        <time>2014-06-01T11:33:48Z</time>
      </trkpt>
      <trkpt lat="59.7811573" lon="17.6938559">
        <ele>56.8551</ele>
        <time>2014-06-01T11:33:49Z</time>
      </trkpt>
      <trkpt lat="59.7811402" lon="17.6938912">
        <ele>56.3745</ele>
        <time>2014-06-01T11:33:50Z</time>
      </trkpt>
      <trkpt lat="59.781118" lon="17.6939368">
        <ele>57.8165</ele>
        <time>2014-06-01T11:33:51Z</time>
      </trkpt>
      <trkpt lat="59.7811024" lon="17.6939668">
        <ele>58.2971</ele>
        <time>2014-06-01T11:33:52Z</time>
      </trkpt>
      <trkpt lat="59.7810924" lon="17.6939925">
        <ele>58.2971</ele>
        <time>2014-06-01T11:33:53Z</time>
      </trkpt>
      <trkpt lat="59.7810795" lon="17.6940103">
        <ele>58.2971</ele>
        <time>2014-06-01T11:33:54Z</time>
      </trkpt>
      <trkpt lat="59.7810639" lon="17.6940285">
        <ele>58.2971</ele>
        <time>2014-06-01T11:33:55Z</time>
      </trkpt>
      <trkpt lat="59.781052" lon="17.6940486">
        <ele>58.2971</ele>
        <time>2014-06-01T11:33:56Z</time>
      </trkpt>
      <trkpt lat="59.7810369" lon="17.6940862">
        <ele>58.7777</ele>
        <time>2014-06-01T11:33:57Z</time>
      </trkpt>
      <trkpt lat="59.7810271" lon="17.6941253">
        <ele>59.7391</ele>
        <time>2014-06-01T11:33:58Z</time>
      </trkpt>
      <trkpt lat="59.7810205" lon="17.6941617">
        <ele>59.2584</ele>
        <time>2014-06-01T11:33:59Z</time>
      </trkpt>
      <trkpt lat="59.7810153" lon="17.6942009">
        <ele>59.2584</ele>
        <time>2014-06-01T11:34:00Z</time>
      </trkpt>
      <trkpt lat="59.78101" lon="17.6942439">
        <ele>58.7777</ele>
        <time>2014-06-01T11:34:01Z</time>
      </trkpt>
      <trkpt lat="59.7809996" lon="17.6942805">
        <ele>58.7777</ele>
        <time>2014-06-01T11:34:02Z</time>
      </trkpt>
      <trkpt lat="59.7809875" lon="17.6943043">
        <ele>58.2971</ele>
        <time>2014-06-01T11:34:03Z</time>
      </trkpt>
      <trkpt lat="59.7809817" lon="17.6943277">
        <ele>58.2971</ele>
        <time>2014-06-01T11:34:04Z</time>
      </trkpt>
      <trkpt lat="59.780977" lon="17.6943551">
        <ele>57.8165</ele>
        <time>2014-06-01T11:34:05Z</time>
      </trkpt>
      <trkpt lat="59.7809703" lon="17.6943865">
        <ele>57.3358</ele>
        <time>2014-06-01T11:34:06Z</time>
      </trkpt>
      <trkpt lat="59.7809608" lon="17.6944225">
        <ele>57.3358</ele>
        <time>2014-06-01T11:34:07Z</time>
      </trkpt>
      <trkpt lat="59.7809563" lon="17.6944573">
        <ele>56.8551</ele>
        <time>2014-06-01T11:34:08Z</time>
      </trkpt>
      <trkpt lat="59.780947" lon="17.694504">
        <ele>57.3358</ele>
        <time>2014-06-01T11:34:09Z</time>
      </trkpt>
      <trkpt lat="59.7809307" lon="17.6945483">
        <ele>57.8165</ele>
        <time>2014-06-01T11:34:10Z</time>
      </trkpt>
      <trkpt lat="59.7809132" lon="17.6945853">
        <ele>57.8165</ele>
        <time>2014-06-01T11:34:11Z</time>
      </trkpt>
      <trkpt lat="59.7808984" lon="17.6946237">
        <ele>58.2971</ele>
        <time>2014-06-01T11:34:12Z</time>
      </trkpt>
      <trkpt lat="59.7808869" lon="17.694663">
        <ele>58.7777</ele>
        <time>2014-06-01T11:34:13Z</time>
      </trkpt>
      <trkpt lat="59.7808759" lon="17.6946884">
        <ele>58.7777</ele>
        <time>2014-06-01T11:34:14Z</time>
      </trkpt>
      <trkpt lat="59.7808666" lon="17.6947127">
        <ele>59.2584</ele>
        <time>2014-06-01T11:34:15Z</time>
      </trkpt>
      <trkpt lat="59.7808573" lon="17.6947371">
        <ele>58.2971</ele>
        <time>2014-06-01T11:34:16Z</time>
      </trkpt>
      <trkpt lat="59.7808469" lon="17.6947646">
        <ele>57.8165</ele>
        <time>2014-06-01T11:34:17Z</time>
      </trkpt>
      <trkpt lat="59.7808366" lon="17.6947965">
        <ele>57.8165</ele>
        <time>2014-06-01T11:34:18Z</time>
      </trkpt>
      <trkpt lat="59.7808304" lon="17.6948232">
        <ele>57.3358</ele>
        <time>2014-06-01T11:34:19Z</time>
      </trkpt>
      <trkpt lat="59.7808241" lon="17.6948496">
        <ele>56.8551</ele>
        <time>2014-06-01T11:34:20Z</time>
      </trkpt>
      <trkpt lat="59.78082" lon="17.6948764">
        <ele>56.3745</ele>
        <time>2014-06-01T11:34:21Z</time>
      </trkpt>
      <trkpt lat="59.7808081" lon="17.6949228">
        <ele>56.8551</ele>
        <time>2014-06-01T11:34:22Z</time>
      </trkpt>
      <trkpt lat="59.7807961" lon="17.6949685">
        <ele>57.3358</ele>
        <time>2014-06-01T11:34:23Z</time>
      </trkpt>
      <trkpt lat="59.7807846" lon="17.695009">
        <ele>57.3358</ele>
        <time>2014-06-01T11:34:24Z</time>
      </trkpt>
      <trkpt lat="59.7807734" lon="17.6950494">
        <ele>57.8165</ele>
        <time>2014-06-01T11:34:25Z</time>
      </trkpt>
      <trkpt lat="59.7807619" lon="17.6950909">
        <ele>58.2971</ele>
        <time>2014-06-01T11:34:26Z</time>
      </trkpt>
      <trkpt lat="59.7807521" lon="17.6951224">
        <ele>58.7777</ele>
        <time>2014-06-01T11:34:27Z</time>
      </trkpt>
      <trkpt lat="59.7807417" lon="17.6951524">
        <ele>59.2584</ele>
        <time>2014-06-01T11:34:28Z</time>
      </trkpt>
      <trkpt lat="59.780732" lon="17.6951855">
        <ele>59.2584</ele>
        <time>2014-06-01T11:34:29Z</time>
      </trkpt>
      <trkpt lat="59.7807181" lon="17.6952271">
        <ele>59.2584</ele>
        <time>2014-06-01T11:34:30Z</time>
      </trkpt>
      <trkpt lat="59.7807045" lon="17.6952707">
        <ele>59.7391</ele>
        <time>2014-06-01T11:34:31Z</time>
      </trkpt>
      <trkpt lat="59.7806912" lon="17.6953168">
        <ele>59.7391</ele>
        <time>2014-06-01T11:34:32Z</time>
      </trkpt>
      <trkpt lat="59.7806767" lon="17.6953618">
        <ele>59.7391</ele>
        <time>2014-06-01T11:34:33Z</time>
      </trkpt>
      <trkpt lat="59.7806593" lon="17.6954099">
        <ele>59.7391</ele>
        <time>2014-06-01T11:34:34Z</time>
      </trkpt>
      <trkpt lat="59.7806425" lon="17.6954583">
        <ele>59.7391</ele>
        <time>2014-06-01T11:34:35Z</time>
      </trkpt>
      <trkpt lat="59.7806284" lon="17.6955043">
        <ele>59.2584</ele>
        <time>2014-06-01T11:34:36Z</time>
      </trkpt>
      <trkpt lat="59.7806168" lon="17.6955539">
        <ele>59.2584</ele>
        <time>2014-06-01T11:34:37Z</time>
      </trkpt>
      <trkpt lat="59.7806046" lon="17.6956047">
        <ele>59.7391</ele>
        <time>2014-06-01T11:34:38Z</time>
      </trkpt>
      <trkpt lat="59.7805942" lon="17.6956497">
        <ele>58.7777</ele>
        <time>2014-06-01T11:34:39Z</time>
      </trkpt>
      <trkpt lat="59.7805845" lon="17.6957028">
        <ele>58.7777</ele>
        <time>2014-06-01T11:34:40Z</time>
      </trkpt>
      <trkpt lat="59.7805771" lon="17.6957508">
        <ele>58.7777</ele>
        <time>2014-06-01T11:34:41Z</time>
      </trkpt>
      <trkpt lat="59.7805683" lon="17.6957932">
        <ele>58.7777</ele>
        <time>2014-06-01T11:34:42Z</time>
      </trkpt>
      <trkpt lat="59.780556" lon="17.695826">
        <ele>58.7777</ele>
        <time>2014-06-01T11:34:43Z</time>
      </trkpt>
      <trkpt lat="59.7805445" lon="17.6958544">
        <ele>58.7777</ele>
        <time>2014-06-01T11:34:44Z</time>
      </trkpt>
      <trkpt lat="59.7805396" lon="17.6958866">
        <ele>58.7777</ele>
        <time>2014-06-01T11:34:45Z</time>
      </trkpt>
      <trkpt lat="59.7805403" lon="17.6959234">
        <ele>59.2584</ele>
        <time>2014-06-01T11:34:46Z</time>
      </trkpt>
      <trkpt lat="59.7805388" lon="17.6959667">
        <ele>59.2584</ele>
        <time>2014-06-01T11:34:47Z</time>
      </trkpt>
      <trkpt lat="59.780534" lon="17.696003">
        <ele>59.2584</ele>
        <time>2014-06-01T11:34:48Z</time>
      </trkpt>
      <trkpt lat="59.7805204" lon="17.6960383">
        <ele>59.2584</ele>
        <time>2014-06-01T11:34:49Z</time>
      </trkpt>
      <trkpt lat="59.7805054" lon="17.6960721">
        <ele>59.7391</ele>
        <time>2014-06-01T11:34:50Z</time>
      </trkpt>
      <trkpt lat="59.7804884" lon="17.6961092">
        <ele>59.7391</ele>
        <time>2014-06-01T11:34:51Z</time>
      </trkpt>
      <trkpt lat="59.7804704" lon="17.6961471">
        <ele>60.2197</ele>
        <time>2014-06-01T11:34:52Z</time>
      </trkpt>
      <trkpt lat="59.7804523" lon="17.6961807">
        <ele>60.2197</ele>
        <time>2014-06-01T11:34:53Z</time>
      </trkpt>
      <trkpt lat="59.7804372" lon="17.6961989">
        <ele>60.2197</ele>
        <time>2014-06-01T11:34:54Z</time>
      </trkpt>
      <trkpt lat="59.7804221" lon="17.6962169">
        <ele>59.7391</ele>
        <time>2014-06-01T11:34:55Z</time>
      </trkpt>
      <trkpt lat="59.7804063" lon="17.6962269">
        <ele>59.7391</ele>
        <time>2014-06-01T11:34:56Z</time>
      </trkpt>
      <trkpt lat="59.7803961" lon="17.6962277">
        <ele>59.7391</ele>
        <time>2014-06-01T11:34:57Z</time>
      </trkpt>
      <trkpt lat="59.7803896" lon="17.6962329">
        <ele>59.2584</ele>
        <time>2014-06-01T11:34:58Z</time>
      </trkpt>
      <trkpt lat="59.780385" lon="17.6962433">
        <ele>59.2584</ele>
        <time>2014-06-01T11:34:59Z</time>
      </trkpt>
      <trkpt lat="59.780378" lon="17.6962681">
        <ele>58.7777</ele>
        <time>2014-06-01T11:35:00Z</time>
      </trkpt>
      <trkpt lat="59.7803714" lon="17.696293">
        <ele>58.2971</ele>
        <time>2014-06-01T11:35:01Z</time>
      </trkpt>
      <trkpt lat="59.7803655" lon="17.696314">
        <ele>57.8165</ele>
        <time>2014-06-01T11:35:02Z</time>
      </trkpt>
      <trkpt lat="59.7803617" lon="17.6963393">
        <ele>57.8165</ele>
        <time>2014-06-01T11:35:03Z</time>
      </trkpt>
      <trkpt lat="59.7803591" lon="17.6963674">
        <ele>57.8165</ele>
        <time>2014-06-01T11:35:04Z</time>
      </trkpt>
      <trkpt lat="59.7803547" lon="17.6963875">
        <ele>57.8165</ele>
        <time>2014-06-01T11:35:05Z</time>
      </trkpt>
      <trkpt lat="59.7803445" lon="17.6964108">
        <ele>58.2971</ele>
        <time>2014-06-01T11:35:06Z</time>
      </trkpt>
      <trkpt lat="59.7803343" lon="17.696438">
        <ele>58.2971</ele>
        <time>2014-06-01T11:35:07Z</time>
      </trkpt>
      <trkpt lat="59.7803272" lon="17.6964599">
        <ele>58.2971</ele>
        <time>2014-06-01T11:35:08Z</time>
      </trkpt>
      <trkpt lat="59.78032" lon="17.6964854">
        <ele>57.8165</ele>
        <time>2014-06-01T11:35:09Z</time>
      </trkpt>
      <trkpt lat="59.7803117" lon="17.6965195">
        <ele>57.8165</ele>
        <time>2014-06-01T11:35:10Z</time>
      </trkpt>
      <trkpt lat="59.7802927" lon="17.6965646">
        <ele>58.2971</ele>
        <time>2014-06-01T11:35:11Z</time>
      </trkpt>
      <trkpt lat="59.7802747" lon="17.6965945">
        <ele>58.2971</ele>
        <time>2014-06-01T11:35:12Z</time>
      </trkpt>
      <trkpt lat="59.7802508" lon="17.6966215">
        <ele>58.2971</ele>
        <time>2014-06-01T11:35:13Z</time>
      </trkpt>
      <trkpt lat="59.7802255" lon="17.696651">
        <ele>58.2971</ele>
        <time>2014-06-01T11:35:14Z</time>
      </trkpt>
      <trkpt lat="59.7802108" lon="17.696677">
        <ele>58.7777</ele>
        <time>2014-06-01T11:35:15Z</time>
      </trkpt>
      <trkpt lat="59.7801988" lon="17.6967032">
        <ele>58.2971</ele>
        <time>2014-06-01T11:35:16Z</time>
      </trkpt>
      <trkpt lat="59.7801881" lon="17.696735">
        <ele>57.8165</ele>
        <time>2014-06-01T11:35:17Z</time>
      </trkpt>
      <trkpt lat="59.7801787" lon="17.6967579">
        <ele>58.2971</ele>
        <time>2014-06-01T11:35:18Z</time>
      </trkpt>
      <trkpt lat="59.7801679" lon="17.6967765">
        <ele>57.8165</ele>
        <time>2014-06-01T11:35:19Z</time>
      </trkpt>
      <trkpt lat="59.7801584" lon="17.6967993">
        <ele>57.8165</ele>
        <time>2014-06-01T11:35:20Z</time>
      </trkpt>
      <trkpt lat="59.7801508" lon="17.696821">
        <ele>57.3358</ele>
        <time>2014-06-01T11:35:21Z</time>
      </trkpt>
      <trkpt lat="59.7801368" lon="17.6968366">
        <ele>57.8165</ele>
        <time>2014-06-01T11:35:22Z</time>
      </trkpt>
      <trkpt lat="59.7801243" lon="17.6968433">
        <ele>58.2971</ele>
        <time>2014-06-01T11:35:23Z</time>
      </trkpt>
      <trkpt lat="59.7801161" lon="17.6968509">
        <ele>59.2584</ele>
        <time>2014-06-01T11:35:24Z</time>
      </trkpt>
      <trkpt lat="59.7801094" lon="17.6968574">
        <ele>59.7391</ele>
        <time>2014-06-01T11:35:25Z</time>
      </trkpt>
      <trkpt lat="59.7801042" lon="17.6968643">
        <ele>60.2197</ele>
        <time>2014-06-01T11:35:26Z</time>
      </trkpt>
      <trkpt lat="59.7801015" lon="17.6968733">
        <ele>60.7003</ele>
        <time>2014-06-01T11:35:27Z</time>
      </trkpt>
      <trkpt lat="59.7801016" lon="17.6968781">
        <ele>60.2197</ele>
        <time>2014-06-01T11:35:28Z</time>
      </trkpt>
      <trkpt lat="59.7800969" lon="17.6968814">
        <ele>60.7003</ele>
        <time>2014-06-01T11:35:29Z</time>
      </trkpt>
      <trkpt lat="59.7800918" lon="17.6968862">
        <ele>60.2197</ele>
        <time>2014-06-01T11:35:30Z</time>
      </trkpt>
      <trkpt lat="59.7800879" lon="17.6968983">
        <ele>60.2197</ele>
        <time>2014-06-01T11:35:31Z</time>
      </trkpt>
      <trkpt lat="59.7800843" lon="17.6969111">
        <ele>59.7391</ele>
        <time>2014-06-01T11:35:32Z</time>
      </trkpt>
      <trkpt lat="59.7800809" lon="17.6969169">
        <ele>59.7391</ele>
        <time>2014-06-01T11:35:33Z</time>
      </trkpt>
      <trkpt lat="59.7800791" lon="17.6969294">
        <ele>60.2197</ele>
        <time>2014-06-01T11:35:34Z</time>
      </trkpt>
      <trkpt lat="59.7800768" lon="17.6969458">
        <ele>60.7003</ele>
        <time>2014-06-01T11:35:35Z</time>
      </trkpt>
      <trkpt lat="59.7800737" lon="17.6969648">
        <ele>60.7003</ele>
        <time>2014-06-01T11:35:36Z</time>
      </trkpt>
      <trkpt lat="59.7800708" lon="17.6969872">
        <ele>61.181</ele>
        <time>2014-06-01T11:35:37Z</time>
      </trkpt>
      <trkpt lat="59.7800679" lon="17.6970081">
        <ele>61.6617</ele>
        <time>2014-06-01T11:35:38Z</time>
      </trkpt>
      <trkpt lat="59.7800643" lon="17.6970291">
        <ele>61.6617</ele>
        <time>2014-06-01T11:35:39Z</time>
      </trkpt>
      <trkpt lat="59.780061" lon="17.6970479">
        <ele>61.6617</ele>
        <time>2014-06-01T11:35:40Z</time>
      </trkpt>
      <trkpt lat="59.7800579" lon="17.6970672">
        <ele>61.6617</ele>
        <time>2014-06-01T11:35:41Z</time>
      </trkpt>
      <trkpt lat="59.7800548" lon="17.6970882">
        <ele>62.1423</ele>
        <time>2014-06-01T11:35:42Z</time>
      </trkpt>
      <trkpt lat="59.7800512" lon="17.6971111">
        <ele>61.6617</ele>
        <time>2014-06-01T11:35:43Z</time>
      </trkpt>
      <trkpt lat="59.7800482" lon="17.6971355">
        <ele>61.6617</ele>
        <time>2014-06-01T11:35:44Z</time>
      </trkpt>
      <trkpt lat="59.7800451" lon="17.6971601">
        <ele>61.6617</ele>
        <time>2014-06-01T11:35:45Z</time>
      </trkpt>
      <trkpt lat="59.7800416" lon="17.6971814">
        <ele>61.6617</ele>
        <time>2014-06-01T11:35:46Z</time>
      </trkpt>
      <trkpt lat="59.7800363" lon="17.6972019">
        <ele>61.6617</ele>
        <time>2014-06-01T11:35:47Z</time>
      </trkpt>
      <trkpt lat="59.7800319" lon="17.6972219">
        <ele>61.6617</ele>
        <time>2014-06-01T11:35:48Z</time>
      </trkpt>
      <trkpt lat="59.7800276" lon="17.6972391">
        <ele>62.1423</ele>
        <time>2014-06-01T11:35:49Z</time>
      </trkpt>
      <trkpt lat="59.7800254" lon="17.6972519">
        <ele>61.6617</ele>
        <time>2014-06-01T11:35:50Z</time>
      </trkpt>
      <trkpt lat="59.780024" lon="17.6972648">
        <ele>61.181</ele>
        <time>2014-06-01T11:35:51Z</time>
      </trkpt>
      <trkpt lat="59.7800182" lon="17.6972839">
        <ele>61.181</ele>
        <time>2014-06-01T11:35:52Z</time>
      </trkpt>
      <trkpt lat="59.7800155" lon="17.6972938">
        <ele>61.181</ele>
        <time>2014-06-01T11:35:53Z</time>
      </trkpt>
      <trkpt lat="59.7800103" lon="17.6973053">
        <ele>61.181</ele>
        <time>2014-06-01T11:35:54Z</time>
      </trkpt>
      <trkpt lat="59.7800041" lon="17.6973186">
        <ele>61.181</ele>
        <time>2014-06-01T11:35:55Z</time>
      </trkpt>
      <trkpt lat="59.7799999" lon="17.6973353">
        <ele>60.7003</ele>
        <time>2014-06-01T11:35:56Z</time>
      </trkpt>
      <trkpt lat="59.7799974" lon="17.697355">
        <ele>60.7003</ele>
        <time>2014-06-01T11:35:57Z</time>
      </trkpt>
      <trkpt lat="59.7799897" lon="17.6973811">
        <ele>60.2197</ele>
        <time>2014-06-01T11:35:58Z</time>
      </trkpt>
      <trkpt lat="59.7799762" lon="17.6974007">
        <ele>60.7003</ele>
        <time>2014-06-01T11:35:59Z</time>
      </trkpt>
      <trkpt lat="59.7799634" lon="17.6974166">
        <ele>60.7003</ele>
        <time>2014-06-01T11:36:00Z</time>
      </trkpt>
      <trkpt lat="59.7799478" lon="17.6974348">
        <ele>60.2197</ele>
        <time>2014-06-01T11:36:01Z</time>
      </trkpt>
      <trkpt lat="59.7799393" lon="17.6974535">
        <ele>59.7391</ele>
        <time>2014-06-01T11:36:02Z</time>
      </trkpt>
      <trkpt lat="59.7799382" lon="17.6974761">
        <ele>59.7391</ele>
        <time>2014-06-01T11:36:03Z</time>
      </trkpt>
      <trkpt lat="59.7799406" lon="17.6975049">
        <ele>59.2584</ele>
        <time>2014-06-01T11:36:04Z</time>
      </trkpt>
      <trkpt lat="59.7799449" lon="17.6975486">
        <ele>59.7391</ele>
        <time>2014-06-01T11:36:05Z</time>
      </trkpt>
      <trkpt lat="59.7799497" lon="17.6975917">
        <ele>59.7391</ele>
        <time>2014-06-01T11:36:06Z</time>
      </trkpt>
      <trkpt lat="59.7799504" lon="17.6976348">
        <ele>60.2197</ele>
        <time>2014-06-01T11:36:07Z</time>
      </trkpt>
      <trkpt lat="59.7799509" lon="17.6976673">
        <ele>60.2197</ele>
        <time>2014-06-01T11:36:08Z</time>
      </trkpt>
      <trkpt lat="59.7799425" lon="17.697698">
        <ele>60.2197</ele>
        <time>2014-06-01T11:36:09Z</time>
      </trkpt>
      <trkpt lat="59.7799305" lon="17.6977286">
        <ele>60.7003</ele>
        <time>2014-06-01T11:36:10Z</time>
      </trkpt>
      <trkpt lat="59.7799252" lon="17.6977546">
        <ele>60.7003</ele>
        <time>2014-06-01T11:36:11Z</time>
      </trkpt>
      <trkpt lat="59.7799202" lon="17.6977818">
        <ele>59.7391</ele>
        <time>2014-06-01T11:36:12Z</time>
      </trkpt>
      <trkpt lat="59.7799138" lon="17.6978188">
        <ele>59.7391</ele>
        <time>2014-06-01T11:36:13Z</time>
      </trkpt>
      <trkpt lat="59.7799056" lon="17.6978549">
        <ele>60.2197</ele>
        <time>2014-06-01T11:36:14Z</time>
      </trkpt>
      <trkpt lat="59.7799006" lon="17.6978918">
        <ele>60.7003</ele>
        <time>2014-06-01T11:36:15Z</time>
      </trkpt>
      <trkpt lat="59.7798958" lon="17.6979302">
        <ele>61.181</ele>
        <time>2014-06-01T11:36:16Z</time>
      </trkpt>
      <trkpt lat="59.7798846" lon="17.6979705">
        <ele>61.181</ele>
        <time>2014-06-01T11:36:17Z</time>
      </trkpt>
      <trkpt lat="59.7798751" lon="17.6980157">
        <ele>61.6617</ele>
        <time>2014-06-01T11:36:18Z</time>
      </trkpt>
      <trkpt lat="59.7798681" lon="17.6980537">
        <ele>61.6617</ele>
        <time>2014-06-01T11:36:19Z</time>
      </trkpt>
      <trkpt lat="59.7798654" lon="17.6980736">
        <ele>61.6617</ele>
        <time>2014-06-01T11:36:20Z</time>
      </trkpt>
      <trkpt lat="59.7798602" lon="17.6980902">
        <ele>62.1423</ele>
        <time>2014-06-01T11:36:21Z</time>
      </trkpt>
      <trkpt lat="59.7798514" lon="17.6981135">
        <ele>62.6229</ele>
        <time>2014-06-01T11:36:22Z</time>
      </trkpt>
      <trkpt lat="59.779847" lon="17.6981275">
        <ele>62.6229</ele>
        <time>2014-06-01T11:36:23Z</time>
      </trkpt>
      <trkpt lat="59.7798446" lon="17.6981355">
        <ele>62.6229</ele>
        <time>2014-06-01T11:36:24Z</time>
      </trkpt>
      <trkpt lat="59.7798415" lon="17.6981429">
        <ele>62.6229</ele>
        <time>2014-06-01T11:36:25Z</time>
      </trkpt>
      <trkpt lat="59.7798327" lon="17.6981622">
        <ele>62.6229</ele>
        <time>2014-06-01T11:36:26Z</time>
      </trkpt>
      <trkpt lat="59.779823" lon="17.6981829">
        <ele>63.1036</ele>
        <time>2014-06-01T11:36:27Z</time>
      </trkpt>
      <trkpt lat="59.779811" lon="17.6981949">
        <ele>63.1036</ele>
        <time>2014-06-01T11:36:28Z</time>
      </trkpt>
      <trkpt lat="59.7797989" lon="17.6981973">
        <ele>63.1036</ele>
        <time>2014-06-01T11:36:29Z</time>
      </trkpt>
      <trkpt lat="59.7797857" lon="17.6982004">
        <ele>63.5844</ele>
        <time>2014-06-01T11:36:30Z</time>
      </trkpt>
      <trkpt lat="59.7797777" lon="17.6981989">
        <ele>63.1036</ele>
        <time>2014-06-01T11:36:31Z</time>
      </trkpt>
      <trkpt lat="59.7797741" lon="17.6982006">
        <ele>63.1036</ele>
        <time>2014-06-01T11:36:32Z</time>
      </trkpt>
      <trkpt lat="59.7797707" lon="17.6982051">
        <ele>63.1036</ele>
        <time>2014-06-01T11:36:33Z</time>
      </trkpt>
      <trkpt lat="59.779696" lon="17.6982575">
        <ele>63.1036</ele>
        <time>2014-06-01T11:36:44Z</time>
      </trkpt>
      <trkpt lat="59.7796804" lon="17.6982744">
        <ele>63.5844</ele>
        <time>2014-06-01T11:36:45Z</time>
      </trkpt>
      <trkpt lat="59.7796647" lon="17.6982952">
        <ele>63.5844</ele>
        <time>2014-06-01T11:36:46Z</time>
      </trkpt>
      <trkpt lat="59.7796571" lon="17.6983149">
        <ele>63.5844</ele>
        <time>2014-06-01T11:36:47Z</time>
      </trkpt>
      <trkpt lat="59.779654" lon="17.6983376">
        <ele>63.5844</ele>
        <time>2014-06-01T11:36:48Z</time>
      </trkpt>
      <trkpt lat="59.779646" lon="17.6983629">
        <ele>64.0651</ele>
        <time>2014-06-01T11:36:49Z</time>
      </trkpt>
      <trkpt lat="59.7796338" lon="17.698388">
        <ele>64.0651</ele>
        <time>2014-06-01T11:36:50Z</time>
      </trkpt>
      <trkpt lat="59.7796183" lon="17.6984238">
        <ele>64.5457</ele>
        <time>2014-06-01T11:36:51Z</time>
      </trkpt>
      <trkpt lat="59.7796039" lon="17.6984631">
        <ele>64.5457</ele>
        <time>2014-06-01T11:36:52Z</time>
      </trkpt>
      <trkpt lat="59.7795918" lon="17.6985004">
        <ele>64.5457</ele>
        <time>2014-06-01T11:36:53Z</time>
      </trkpt>
      <trkpt lat="59.7795815" lon="17.6985321">
        <ele>64.5457</ele>
        <time>2014-06-01T11:36:54Z</time>
      </trkpt>
      <trkpt lat="59.7795701" lon="17.6985615">
        <ele>64.5457</ele>
        <time>2014-06-01T11:36:55Z</time>
      </trkpt>
      <trkpt lat="59.7795626" lon="17.6985924">
        <ele>64.0651</ele>
        <time>2014-06-01T11:36:56Z</time>
      </trkpt>
      <trkpt lat="59.7795577" lon="17.6986285">
        <ele>63.5844</ele>
        <time>2014-06-01T11:36:57Z</time>
      </trkpt>
      <trkpt lat="59.779553" lon="17.698662">
        <ele>63.5844</ele>
        <time>2014-06-01T11:36:58Z</time>
      </trkpt>
      <trkpt lat="59.7795541" lon="17.6986843">
        <ele>63.5844</ele>
        <time>2014-06-01T11:36:59Z</time>
      </trkpt>
      <trkpt lat="59.7795611" lon="17.6987096">
        <ele>63.1036</ele>
        <time>2014-06-01T11:37:00Z</time>
      </trkpt>
      <trkpt lat="59.77957" lon="17.6987398">
        <ele>63.1036</ele>
        <time>2014-06-01T11:37:01Z</time>
      </trkpt>
      <trkpt lat="59.779579" lon="17.698767">
        <ele>63.1036</ele>
        <time>2014-06-01T11:37:02Z</time>
      </trkpt>
      <trkpt lat="59.7795803" lon="17.6987987">
        <ele>63.1036</ele>
        <time>2014-06-01T11:37:03Z</time>
      </trkpt>
      <trkpt lat="59.7795793" lon="17.6988304">
        <ele>63.5844</ele>
        <time>2014-06-01T11:37:04Z</time>
      </trkpt>
      <trkpt lat="59.7795753" lon="17.6988656">
        <ele>63.5844</ele>
        <time>2014-06-01T11:37:05Z</time>
      </trkpt>
      <trkpt lat="59.77957" lon="17.6988967">
        <ele>63.5844</ele>
        <time>2014-06-01T11:37:06Z</time>
      </trkpt>
      <trkpt lat="59.7795688" lon="17.6989299">
        <ele>63.1036</ele>
        <time>2014-06-01T11:37:07Z</time>
      </trkpt>
      <trkpt lat="59.7795709" lon="17.6989624">
        <ele>63.1036</ele>
        <time>2014-06-01T11:37:08Z</time>
      </trkpt>
      <trkpt lat="59.779571" lon="17.6990034">
        <ele>63.1036</ele>
        <time>2014-06-01T11:37:09Z</time>
      </trkpt>
      <trkpt lat="59.7795658" lon="17.6990525">
        <ele>62.6229</ele>
        <time>2014-06-01T11:37:10Z</time>
      </trkpt>
      <trkpt lat="59.7795618" lon="17.6991084">
        <ele>62.6229</ele>
        <time>2014-06-01T11:37:11Z</time>
      </trkpt>
      <trkpt lat="59.7795577" lon="17.6991697">
        <ele>62.1423</ele>
        <time>2014-06-01T11:37:12Z</time>
      </trkpt>
      <trkpt lat="59.7795517" lon="17.6992323">
        <ele>62.1423</ele>
        <time>2014-06-01T11:37:13Z</time>
      </trkpt>
      <trkpt lat="59.7795443" lon="17.6992812">
        <ele>62.1423</ele>
        <time>2014-06-01T11:37:14Z</time>
      </trkpt>
      <trkpt lat="59.7795375" lon="17.6993215">
        <ele>61.6617</ele>
        <time>2014-06-01T11:37:15Z</time>
      </trkpt>
      <trkpt lat="59.779535" lon="17.6993567">
        <ele>61.6617</ele>
        <time>2014-06-01T11:37:16Z</time>
      </trkpt>
      <trkpt lat="59.7795364" lon="17.6993945">
        <ele>60.7003</ele>
        <time>2014-06-01T11:37:17Z</time>
      </trkpt>
      <trkpt lat="59.7795365" lon="17.6994318">
        <ele>60.2197</ele>
        <time>2014-06-01T11:37:18Z</time>
      </trkpt>
      <trkpt lat="59.7795343" lon="17.6994673">
        <ele>59.7391</ele>
        <time>2014-06-01T11:37:19Z</time>
      </trkpt>
      <trkpt lat="59.7795308" lon="17.6995041">
        <ele>59.2584</ele>
        <time>2014-06-01T11:37:20Z</time>
      </trkpt>
      <trkpt lat="59.7795292" lon="17.69954">
        <ele>59.2584</ele>
        <time>2014-06-01T11:37:21Z</time>
      </trkpt>
      <trkpt lat="59.779529" lon="17.6995758">
        <ele>58.7777</ele>
        <time>2014-06-01T11:37:22Z</time>
      </trkpt>
      <trkpt lat="59.7795261" lon="17.6996056">
        <ele>58.7777</ele>
        <time>2014-06-01T11:37:23Z</time>
      </trkpt>
      <trkpt lat="59.7795259" lon="17.6996262">
        <ele>58.7777</ele>
        <time>2014-06-01T11:37:24Z</time>
      </trkpt>
      <trkpt lat="59.7795271" lon="17.6996432">
        <ele>58.2971</ele>
        <time>2014-06-01T11:37:25Z</time>
      </trkpt>
      <trkpt lat="59.779528" lon="17.6996722">
        <ele>57.8165</ele>
        <time>2014-06-01T11:37:26Z</time>
      </trkpt>
      <trkpt lat="59.7795274" lon="17.6996999">
        <ele>57.3358</ele>
        <time>2014-06-01T11:37:27Z</time>
      </trkpt>
      <trkpt lat="59.7795272" lon="17.699732">
        <ele>57.3358</ele>
        <time>2014-06-01T11:37:28Z</time>
      </trkpt>
      <trkpt lat="59.7795262" lon="17.699764">
        <ele>56.8551</ele>
        <time>2014-06-01T11:37:29Z</time>
      </trkpt>
      <trkpt lat="59.779524" lon="17.6997875">
        <ele>56.3745</ele>
        <time>2014-06-01T11:37:30Z</time>
      </trkpt>
      <trkpt lat="59.7795223" lon="17.6998079">
        <ele>56.3745</ele>
        <time>2014-06-01T11:37:31Z</time>
      </trkpt>
      <trkpt lat="59.7795191" lon="17.699829">
        <ele>55.8938</ele>
        <time>2014-06-01T11:37:32Z</time>
      </trkpt>
      <trkpt lat="59.7795182" lon="17.6998483">
        <ele>55.8938</ele>
        <time>2014-06-01T11:37:33Z</time>
      </trkpt>
      <trkpt lat="59.7795222" lon="17.6998719">
        <ele>55.8938</ele>
        <time>2014-06-01T11:37:34Z</time>
      </trkpt>
      <trkpt lat="59.7795204" lon="17.6999019">
        <ele>55.8938</ele>
        <time>2014-06-01T11:37:35Z</time>
      </trkpt>
      <trkpt lat="59.7795158" lon="17.6999325">
        <ele>55.4131</ele>
        <time>2014-06-01T11:37:36Z</time>
      </trkpt>
      <trkpt lat="59.7795162" lon="17.6999781">
        <ele>55.4131</ele>
        <time>2014-06-01T11:37:37Z</time>
      </trkpt>
      <trkpt lat="59.779508" lon="17.7000395">
        <ele>56.3745</ele>
        <time>2014-06-01T11:37:38Z</time>
      </trkpt>
      <trkpt lat="59.7795002" lon="17.7000845">
        <ele>56.8551</ele>
        <time>2014-06-01T11:37:39Z</time>
      </trkpt>
      <trkpt lat="59.7794953" lon="17.7001118">
        <ele>56.3745</ele>
        <time>2014-06-01T11:37:40Z</time>
      </trkpt>
      <trkpt lat="59.7794909" lon="17.700144">
        <ele>55.8938</ele>
        <time>2014-06-01T11:37:41Z</time>
      </trkpt>
      <trkpt lat="59.7794877" lon="17.7001814">
        <ele>55.4131</ele>
        <time>2014-06-01T11:37:42Z</time>
      </trkpt>
      <trkpt lat="59.7794844" lon="17.70022">
        <ele>54.9324</ele>
        <time>2014-06-01T11:37:43Z</time>
      </trkpt>
      <trkpt lat="59.7794797" lon="17.7002575">
        <ele>54.4518</ele>
        <time>2014-06-01T11:37:44Z</time>
      </trkpt>
      <trkpt lat="59.7794652" lon="17.7003057">
        <ele>55.4131</ele>
        <time>2014-06-01T11:37:45Z</time>
      </trkpt>
      <trkpt lat="59.7794538" lon="17.7003498">
        <ele>55.8938</ele>
        <time>2014-06-01T11:37:46Z</time>
      </trkpt>
      <trkpt lat="59.7794523" lon="17.7003905">
        <ele>56.3745</ele>
        <time>2014-06-01T11:37:47Z</time>
      </trkpt>
      <trkpt lat="59.7794549" lon="17.7004298">
        <ele>56.3745</ele>
        <time>2014-06-01T11:37:48Z</time>
      </trkpt>
      <trkpt lat="59.7794547" lon="17.7004709">
        <ele>57.3358</ele>
        <time>2014-06-01T11:37:49Z</time>
      </trkpt>
      <trkpt lat="59.7794555" lon="17.7005063">
        <ele>57.8165</ele>
        <time>2014-06-01T11:37:50Z</time>
      </trkpt>
      <trkpt lat="59.779458" lon="17.7005393">
        <ele>57.8165</ele>
        <time>2014-06-01T11:37:51Z</time>
      </trkpt>
      <trkpt lat="59.7794607" lon="17.7005723">
        <ele>57.8165</ele>
        <time>2014-06-01T11:37:52Z</time>
      </trkpt>
      <trkpt lat="59.7794654" lon="17.7006033">
        <ele>57.8165</ele>
        <time>2014-06-01T11:37:53Z</time>
      </trkpt>
      <trkpt lat="59.7794717" lon="17.7006349">
        <ele>57.8165</ele>
        <time>2014-06-01T11:37:54Z</time>
      </trkpt>
      <trkpt lat="59.7794777" lon="17.7006624">
        <ele>57.3358</ele>
        <time>2014-06-01T11:37:55Z</time>
      </trkpt>
      <trkpt lat="59.7794893" lon="17.700692">
        <ele>57.3358</ele>
        <time>2014-06-01T11:37:56Z</time>
      </trkpt>
      <trkpt lat="59.7795074" lon="17.7007232">
        <ele>56.8551</ele>
        <time>2014-06-01T11:37:57Z</time>
      </trkpt>
      <trkpt lat="59.7795249" lon="17.7007559">
        <ele>56.8551</ele>
        <time>2014-06-01T11:37:58Z</time>
      </trkpt>
      <trkpt lat="59.779537" lon="17.7007868">
        <ele>56.8551</ele>
        <time>2014-06-01T11:37:59Z</time>
      </trkpt>
      <trkpt lat="59.7795499" lon="17.7008242">
        <ele>56.3745</ele>
        <time>2014-06-01T11:38:00Z</time>
      </trkpt>
      <trkpt lat="59.7795577" lon="17.7008652">
        <ele>56.3745</ele>
        <time>2014-06-01T11:38:01Z</time>
      </trkpt>
      <trkpt lat="59.7795628" lon="17.7008951">
        <ele>55.8938</ele>
        <time>2014-06-01T11:38:02Z</time>
      </trkpt>
      <trkpt lat="59.7795691" lon="17.7009251">
        <ele>55.4131</ele>
        <time>2014-06-01T11:38:03Z</time>
      </trkpt>
      <trkpt lat="59.7795743" lon="17.7009635">
        <ele>54.9324</ele>
        <time>2014-06-01T11:38:04Z</time>
      </trkpt>
      <trkpt lat="59.7795771" lon="17.7010102">
        <ele>54.9324</ele>
        <time>2014-06-01T11:38:05Z</time>
      </trkpt>
      <trkpt lat="59.7795723" lon="17.7010638">
        <ele>55.4131</ele>
        <time>2014-06-01T11:38:06Z</time>
      </trkpt>
      <trkpt lat="59.7795569" lon="17.7011115">
        <ele>55.4131</ele>
        <time>2014-06-01T11:38:07Z</time>
      </trkpt>
      <trkpt lat="59.7795442" lon="17.7011459">
        <ele>54.9324</ele>
        <time>2014-06-01T11:38:08Z</time>
      </trkpt>
      <trkpt lat="59.7795354" lon="17.7011775">
        <ele>55.4131</ele>
        <time>2014-06-01T11:38:09Z</time>
      </trkpt>
      <trkpt lat="59.7795341" lon="17.7012105">
        <ele>54.9324</ele>
        <time>2014-06-01T11:38:10Z</time>
      </trkpt>
      <trkpt lat="59.7795372" lon="17.7012434">
        <ele>54.9324</ele>
        <time>2014-06-01T11:38:11Z</time>
      </trkpt>
      <trkpt lat="59.779535" lon="17.7012842">
        <ele>55.4131</ele>
        <time>2014-06-01T11:38:12Z</time>
      </trkpt>
      <trkpt lat="59.7795275" lon="17.7013171">
        <ele>55.4131</ele>
        <time>2014-06-01T11:38:13Z</time>
      </trkpt>
      <trkpt lat="59.7795104" lon="17.701354">
        <ele>55.8938</ele>
        <time>2014-06-01T11:38:14Z</time>
      </trkpt>
      <trkpt lat="59.7795008" lon="17.7013791">
        <ele>56.3745</ele>
        <time>2014-06-01T11:38:15Z</time>
      </trkpt>
      <trkpt lat="59.779497" lon="17.7014005">
        <ele>55.8938</ele>
        <time>2014-06-01T11:38:16Z</time>
      </trkpt>
      <trkpt lat="59.7795002" lon="17.7014267">
        <ele>55.4131</ele>
        <time>2014-06-01T11:38:17Z</time>
      </trkpt>
      <trkpt lat="59.7795038" lon="17.701449">
        <ele>55.4131</ele>
        <time>2014-06-01T11:38:18Z</time>
      </trkpt>
      <trkpt lat="59.7795079" lon="17.7014629">
        <ele>55.4131</ele>
        <time>2014-06-01T11:38:19Z</time>
      </trkpt>
      <trkpt lat="59.7795145" lon="17.7014795">
        <ele>55.4131</ele>
        <time>2014-06-01T11:38:20Z</time>
      </trkpt>
      <trkpt lat="59.7795193" lon="17.701504">
        <ele>55.4131</ele>
        <time>2014-06-01T11:38:21Z</time>
      </trkpt>
      <trkpt lat="59.7795264" lon="17.7015387">
        <ele>55.8938</ele>
        <time>2014-06-01T11:38:22Z</time>
      </trkpt>
      <trkpt lat="59.7795348" lon="17.7015665">
        <ele>55.8938</ele>
        <time>2014-06-01T11:38:23Z</time>
      </trkpt>
      <trkpt lat="59.779538" lon="17.7015941">
        <ele>55.8938</ele>
        <time>2014-06-01T11:38:24Z</time>
      </trkpt>
      <trkpt lat="59.7795448" lon="17.7016301">
        <ele>55.8938</ele>
        <time>2014-06-01T11:38:25Z</time>
      </trkpt>
      <trkpt lat="59.7795629" lon="17.7016618">
        <ele>54.9324</ele>
        <time>2014-06-01T11:38:26Z</time>
      </trkpt>
      <trkpt lat="59.7795831" lon="17.7017052">
        <ele>54.4518</ele>
        <time>2014-06-01T11:38:27Z</time>
      </trkpt>
      <trkpt lat="59.7796027" lon="17.7017535">
        <ele>54.4518</ele>
        <time>2014-06-01T11:38:28Z</time>
      </trkpt>
      <trkpt lat="59.7796191" lon="17.7017989">
        <ele>54.4518</ele>
        <time>2014-06-01T11:38:29Z</time>
      </trkpt>
      <trkpt lat="59.7796338" lon="17.7018406">
        <ele>54.4518</ele>
        <time>2014-06-01T11:38:30Z</time>
      </trkpt>
      <trkpt lat="59.7796448" lon="17.7018759">
        <ele>54.4518</ele>
        <time>2014-06-01T11:38:31Z</time>
      </trkpt>
      <trkpt lat="59.7796487" lon="17.701896">
        <ele>54.4518</ele>
        <time>2014-06-01T11:38:32Z</time>
      </trkpt>
      <trkpt lat="59.7796508" lon="17.7019098">
        <ele>54.4518</ele>
        <time>2014-06-01T11:38:33Z</time>
      </trkpt>
      <trkpt lat="59.779651" lon="17.7019155">
        <ele>54.4518</ele>
        <time>2014-06-01T11:38:34Z</time>
      </trkpt>
      <trkpt lat="59.779653" lon="17.7019203">
        <ele>54.4518</ele>
        <time>2014-06-01T11:38:35Z</time>
      </trkpt>
      <trkpt lat="59.7796943" lon="17.7021103">
        <ele>55.8938</ele>
        <time>2014-06-01T11:39:00Z</time>
      </trkpt>
      <trkpt lat="59.7796895" lon="17.7021478">
        <ele>55.8938</ele>
        <time>2014-06-01T11:39:01Z</time>
      </trkpt>
      <trkpt lat="59.7796753" lon="17.70217">
        <ele>55.8938</ele>
        <time>2014-06-01T11:39:02Z</time>
      </trkpt>
      <trkpt lat="59.7796632" lon="17.7021783">
        <ele>56.3745</ele>
        <time>2014-06-01T11:39:03Z</time>
      </trkpt>
      <trkpt lat="59.7796514" lon="17.702186">
        <ele>55.8938</ele>
        <time>2014-06-01T11:39:04Z</time>
      </trkpt>
      <trkpt lat="59.7796409" lon="17.702196">
        <ele>55.4131</ele>
        <time>2014-06-01T11:39:05Z</time>
      </trkpt>
      <trkpt lat="59.7796312" lon="17.7022135">
        <ele>55.4131</ele>
        <time>2014-06-01T11:39:06Z</time>
      </trkpt>
      <trkpt lat="59.7796217" lon="17.7022326">
        <ele>54.9324</ele>
        <time>2014-06-01T11:39:07Z</time>
      </trkpt>
      <trkpt lat="59.7796149" lon="17.7022481">
        <ele>54.4518</ele>
        <time>2014-06-01T11:39:08Z</time>
      </trkpt>
      <trkpt lat="59.7796088" lon="17.702261">
        <ele>54.4518</ele>
        <time>2014-06-01T11:39:09Z</time>
      </trkpt>
      <trkpt lat="59.7796047" lon="17.7022698">
        <ele>53.9712</ele>
        <time>2014-06-01T11:39:10Z</time>
      </trkpt>
      <trkpt lat="59.7796032" lon="17.702277">
        <ele>53.9712</ele>
        <time>2014-06-01T11:39:11Z</time>
      </trkpt>
      <trkpt lat="59.7796025" lon="17.7022768">
        <ele>53.4905</ele>
        <time>2014-06-01T11:39:12Z</time>
      </trkpt>
      <trkpt lat="59.779537" lon="17.7026683">
        <ele>59.7391</ele>
        <time>2014-06-01T11:40:32Z</time>
      </trkpt>
      <trkpt lat="59.7795396" lon="17.7026985">
        <ele>59.2584</ele>
        <time>2014-06-01T11:40:33Z</time>
      </trkpt>
      <trkpt lat="59.7795457" lon="17.7027316">
        <ele>58.7777</ele>
        <time>2014-06-01T11:40:34Z</time>
      </trkpt>
      <trkpt lat="59.7795554" lon="17.7027538">
        <ele>58.7777</ele>
        <time>2014-06-01T11:40:35Z</time>
      </trkpt>
      <trkpt lat="59.7795587" lon="17.7027646">
        <ele>58.2971</ele>
        <time>2014-06-01T11:40:36Z</time>
      </trkpt>
      <trkpt lat="59.7795607" lon="17.7027739">
        <ele>58.7777</ele>
        <time>2014-06-01T11:40:37Z</time>
      </trkpt>
      <trkpt lat="59.7795631" lon="17.7027839">
        <ele>58.2971</ele>
        <time>2014-06-01T11:40:38Z</time>
      </trkpt>
      <trkpt lat="59.7795653" lon="17.7027957">
        <ele>57.8165</ele>
        <time>2014-06-01T11:40:39Z</time>
      </trkpt>
      <trkpt lat="59.779569" lon="17.7028093">
        <ele>57.8165</ele>
        <time>2014-06-01T11:40:40Z</time>
      </trkpt>
      <trkpt lat="59.7795756" lon="17.7028278">
        <ele>57.3358</ele>
        <time>2014-06-01T11:40:41Z</time>
      </trkpt>
      <trkpt lat="59.779581" lon="17.7028511">
        <ele>57.3358</ele>
        <time>2014-06-01T11:40:42Z</time>
      </trkpt>
      <trkpt lat="59.7795823" lon="17.7028735">
        <ele>57.8165</ele>
        <time>2014-06-01T11:40:43Z</time>
      </trkpt>
      <trkpt lat="59.7795828" lon="17.7028931">
        <ele>57.8165</ele>
        <time>2014-06-01T11:40:44Z</time>
      </trkpt>
      <trkpt lat="59.7795825" lon="17.7029143">
        <ele>57.8165</ele>
        <time>2014-06-01T11:40:45Z</time>
      </trkpt>
      <trkpt lat="59.7795787" lon="17.7029437">
        <ele>57.3358</ele>
        <time>2014-06-01T11:40:46Z</time>
      </trkpt>
      <trkpt lat="59.7795737" lon="17.702982">
        <ele>57.3358</ele>
        <time>2014-06-01T11:40:47Z</time>
      </trkpt>
      <trkpt lat="59.7795769" lon="17.7030113">
        <ele>57.8165</ele>
        <time>2014-06-01T11:40:48Z</time>
      </trkpt>
      <trkpt lat="59.7795831" lon="17.7030377">
        <ele>57.8165</ele>
        <time>2014-06-01T11:40:49Z</time>
      </trkpt>
      <trkpt lat="59.7795903" lon="17.7030652">
        <ele>57.3358</ele>
        <time>2014-06-01T11:40:50Z</time>
      </trkpt>
      <trkpt lat="59.7795982" lon="17.7030975">
        <ele>57.3358</ele>
        <time>2014-06-01T11:40:51Z</time>
      </trkpt>
      <trkpt lat="59.7796023" lon="17.7031277">
        <ele>57.3358</ele>
        <time>2014-06-01T11:40:52Z</time>
      </trkpt>
      <trkpt lat="59.7796058" lon="17.7031465">
        <ele>57.3358</ele>
        <time>2014-06-01T11:40:53Z</time>
      </trkpt>
      <trkpt lat="59.7796114" lon="17.7031569">
        <ele>57.3358</ele>
        <time>2014-06-01T11:40:54Z</time>
      </trkpt>
      <trkpt lat="59.7796131" lon="17.7031602">
        <ele>57.3358</ele>
        <time>2014-06-01T11:40:55Z</time>
      </trkpt>
      <trkpt lat="59.7796115" lon="17.7031574">
        <ele>57.8165</ele>
        <time>2014-06-01T11:40:56Z</time>
      </trkpt>
      <trkpt lat="59.7796126" lon="17.7034465">
        <ele>58.2971</ele>
        <time>2014-06-01T11:41:48Z</time>
      </trkpt>
      <trkpt lat="59.7796196" lon="17.7034625">
        <ele>58.7777</ele>
        <time>2014-06-01T11:41:49Z</time>
      </trkpt>
      <trkpt lat="59.779625" lon="17.7034655">
        <ele>58.7777</ele>
        <time>2014-06-01T11:41:50Z</time>
      </trkpt>
      <trkpt lat="59.7796323" lon="17.7034666">
        <ele>58.2971</ele>
        <time>2014-06-01T11:41:51Z</time>
      </trkpt>
      <trkpt lat="59.7796333" lon="17.703463">
        <ele>58.2971</ele>
        <time>2014-06-01T11:41:52Z</time>
      </trkpt>
      <trkpt lat="59.7796375" lon="17.7034552">
        <ele>58.2971</ele>
        <time>2014-06-01T11:41:53Z</time>
      </trkpt>
      <trkpt lat="59.779641" lon="17.7034484">
        <ele>58.2971</ele>
        <time>2014-06-01T11:41:54Z</time>
      </trkpt>
      <trkpt lat="59.7796395" lon="17.7034349">
        <ele>57.8165</ele>
        <time>2014-06-01T11:41:55Z</time>
      </trkpt>
      <trkpt lat="59.7796436" lon="17.7034148">
        <ele>57.3358</ele>
        <time>2014-06-01T11:41:56Z</time>
      </trkpt>
      <trkpt lat="59.7796477" lon="17.703392">
        <ele>57.3358</ele>
        <time>2014-06-01T11:41:57Z</time>
      </trkpt>
      <trkpt lat="59.7796477" lon="17.7033648">
        <ele>57.3358</ele>
        <time>2014-06-01T11:41:58Z</time>
      </trkpt>
      <trkpt lat="59.7796426" lon="17.7033483">
        <ele>57.3358</ele>
        <time>2014-06-01T11:41:59Z</time>
      </trkpt>
      <trkpt lat="59.7796403" lon="17.7033371">
        <ele>57.8165</ele>
        <time>2014-06-01T11:42:00Z</time>
      </trkpt>
      <trkpt lat="59.779639" lon="17.7033317">
        <ele>57.8165</ele>
        <time>2014-06-01T11:42:01Z</time>
      </trkpt>
      <trkpt lat="59.7796408" lon="17.7033327">
        <ele>58.2971</ele>
        <time>2014-06-01T11:42:02Z</time>
      </trkpt>
      <trkpt lat="59.7795619" lon="17.703709">
        <ele>61.6617</ele>
        <time>2014-06-01T11:43:07Z</time>
      </trkpt>
      <trkpt lat="59.7795634" lon="17.7037401">
        <ele>61.6617</ele>
        <time>2014-06-01T11:43:08Z</time>
      </trkpt>
      <trkpt lat="59.7795659" lon="17.7037686">
        <ele>61.6617</ele>
        <time>2014-06-01T11:43:09Z</time>
      </trkpt>
      <trkpt lat="59.7795647" lon="17.7037995">
        <ele>61.6617</ele>
        <time>2014-06-01T11:43:10Z</time>
      </trkpt>
      <trkpt lat="59.7795609" lon="17.7038321">
        <ele>61.181</ele>
        <time>2014-06-01T11:43:11Z</time>
      </trkpt>
      <trkpt lat="59.7795524" lon="17.7038722">
        <ele>60.7003</ele>
        <time>2014-06-01T11:43:12Z</time>
      </trkpt>
      <trkpt lat="59.77954" lon="17.7039208">
        <ele>60.7003</ele>
        <time>2014-06-01T11:43:13Z</time>
      </trkpt>
      <trkpt lat="59.7795297" lon="17.7039659">
        <ele>60.2197</ele>
        <time>2014-06-01T11:43:14Z</time>
      </trkpt>
      <trkpt lat="59.7795153" lon="17.7039918">
        <ele>60.2197</ele>
        <time>2014-06-01T11:43:15Z</time>
      </trkpt>
      <trkpt lat="59.7795011" lon="17.7040056">
        <ele>59.2584</ele>
        <time>2014-06-01T11:43:16Z</time>
      </trkpt>
      <trkpt lat="59.7794882" lon="17.7040197">
        <ele>59.2584</ele>
        <time>2014-06-01T11:43:17Z</time>
      </trkpt>
      <trkpt lat="59.7794764" lon="17.7040326">
        <ele>58.7777</ele>
        <time>2014-06-01T11:43:18Z</time>
      </trkpt>
      <trkpt lat="59.779466" lon="17.7040458">
        <ele>58.2971</ele>
        <time>2014-06-01T11:43:19Z</time>
      </trkpt>
      <trkpt lat="59.7794555" lon="17.7040638">
        <ele>57.8165</ele>
        <time>2014-06-01T11:43:20Z</time>
      </trkpt>
      <trkpt lat="59.7794443" lon="17.7040838">
        <ele>57.8165</ele>
        <time>2014-06-01T11:43:21Z</time>
      </trkpt>
      <trkpt lat="59.7794339" lon="17.7041061">
        <ele>57.3358</ele>
        <time>2014-06-01T11:43:22Z</time>
      </trkpt>
      <trkpt lat="59.7794292" lon="17.7041333">
        <ele>56.8551</ele>
        <time>2014-06-01T11:43:23Z</time>
      </trkpt>
      <trkpt lat="59.7794298" lon="17.704172">
        <ele>55.8938</ele>
        <time>2014-06-01T11:43:24Z</time>
      </trkpt>
      <trkpt lat="59.7794265" lon="17.7042263">
        <ele>56.3745</ele>
        <time>2014-06-01T11:43:25Z</time>
      </trkpt>
      <trkpt lat="59.7794248" lon="17.7042698">
        <ele>55.8938</ele>
        <time>2014-06-01T11:43:26Z</time>
      </trkpt>
      <trkpt lat="59.7794233" lon="17.7043116">
        <ele>55.8938</ele>
        <time>2014-06-01T11:43:27Z</time>
      </trkpt>
      <trkpt lat="59.7794223" lon="17.7043513">
        <ele>55.8938</ele>
        <time>2014-06-01T11:43:28Z</time>
      </trkpt>
      <trkpt lat="59.7794192" lon="17.7043933">
        <ele>55.4131</ele>
        <time>2014-06-01T11:43:29Z</time>
      </trkpt>
      <trkpt lat="59.7794109" lon="17.7044524">
        <ele>56.3745</ele>
        <time>2014-06-01T11:43:30Z</time>
      </trkpt>
      <trkpt lat="59.7793997" lon="17.7045074">
        <ele>56.8551</ele>
        <time>2014-06-01T11:43:31Z</time>
      </trkpt>
      <trkpt lat="59.7793866" lon="17.7045472">
        <ele>57.3358</ele>
        <time>2014-06-01T11:43:32Z</time>
      </trkpt>
      <trkpt lat="59.7793694" lon="17.7045804">
        <ele>57.3358</ele>
        <time>2014-06-01T11:43:33Z</time>
      </trkpt>
      <trkpt lat="59.7793536" lon="17.7046129">
        <ele>56.8551</ele>
        <time>2014-06-01T11:43:34Z</time>
      </trkpt>
      <trkpt lat="59.7793442" lon="17.7046465">
        <ele>56.8551</ele>
        <time>2014-06-01T11:43:35Z</time>
      </trkpt>
      <trkpt lat="59.7793373" lon="17.704687">
        <ele>56.3745</ele>
        <time>2014-06-01T11:43:36Z</time>
      </trkpt>
      <trkpt lat="59.7793363" lon="17.7047262">
        <ele>56.3745</ele>
        <time>2014-06-01T11:43:37Z</time>
      </trkpt>
      <trkpt lat="59.7793415" lon="17.7047599">
        <ele>56.8551</ele>
        <time>2014-06-01T11:43:38Z</time>
      </trkpt>
      <trkpt lat="59.7793445" lon="17.7047944">
        <ele>56.8551</ele>
        <time>2014-06-01T11:43:39Z</time>
      </trkpt>
      <trkpt lat="59.7793473" lon="17.7048358">
        <ele>56.8551</ele>
        <time>2014-06-01T11:43:40Z</time>
      </trkpt>
      <trkpt lat="59.7793552" lon="17.7048714">
        <ele>57.3358</ele>
        <time>2014-06-01T11:43:41Z</time>
      </trkpt>
      <trkpt lat="59.7793617" lon="17.7049101">
        <ele>57.3358</ele>
        <time>2014-06-01T11:43:42Z</time>
      </trkpt>
      <trkpt lat="59.7793721" lon="17.7049553">
        <ele>57.8165</ele>
        <time>2014-06-01T11:43:43Z</time>
      </trkpt>
      <trkpt lat="59.7793822" lon="17.7050004">
        <ele>57.8165</ele>
        <time>2014-06-01T11:43:44Z</time>
      </trkpt>
      <trkpt lat="59.7793888" lon="17.7050347">
        <ele>57.8165</ele>
        <time>2014-06-01T11:43:45Z</time>
      </trkpt>
      <trkpt lat="59.7793941" lon="17.7050569">
        <ele>57.8165</ele>
        <time>2014-06-01T11:43:46Z</time>
      </trkpt>
      <trkpt lat="59.7794002" lon="17.7050777">
        <ele>57.3358</ele>
        <time>2014-06-01T11:43:47Z</time>
      </trkpt>
      <trkpt lat="59.7794023" lon="17.7051019">
        <ele>57.3358</ele>
        <time>2014-06-01T11:43:48Z</time>
      </trkpt>
      <trkpt lat="59.7794039" lon="17.7051236">
        <ele>56.8551</ele>
        <time>2014-06-01T11:43:49Z</time>
      </trkpt>
      <trkpt lat="59.7794101" lon="17.7051502">
        <ele>56.3745</ele>
        <time>2014-06-01T11:43:50Z</time>
      </trkpt>
      <trkpt lat="59.7794152" lon="17.7051836">
        <ele>55.4131</ele>
        <time>2014-06-01T11:43:51Z</time>
      </trkpt>
      <trkpt lat="59.7794153" lon="17.7052123">
        <ele>55.4131</ele>
        <time>2014-06-01T11:43:52Z</time>
      </trkpt>
      <trkpt lat="59.7794141" lon="17.705225">
        <ele>54.9324</ele>
        <time>2014-06-01T11:43:53Z</time>
      </trkpt>
      <trkpt lat="59.7794108" lon="17.705244">
        <ele>54.9324</ele>
        <time>2014-06-01T11:43:54Z</time>
      </trkpt>
      <trkpt lat="59.7794109" lon="17.7052698">
        <ele>54.4518</ele>
        <time>2014-06-01T11:43:55Z</time>
      </trkpt>
      <trkpt lat="59.7794106" lon="17.7053014">
        <ele>55.4131</ele>
        <time>2014-06-01T11:43:56Z</time>
      </trkpt>
      <trkpt lat="59.7794073" lon="17.705345">
        <ele>55.4131</ele>
        <time>2014-06-01T11:43:57Z</time>
      </trkpt>
      <trkpt lat="59.7794006" lon="17.7053879">
        <ele>55.8938</ele>
        <time>2014-06-01T11:43:58Z</time>
      </trkpt>
      <trkpt lat="59.7793866" lon="17.7054279">
        <ele>56.3745</ele>
        <time>2014-06-01T11:43:59Z</time>
      </trkpt>
      <trkpt lat="59.77938" lon="17.705452">
        <ele>56.3745</ele>
        <time>2014-06-01T11:44:00Z</time>
      </trkpt>
      <trkpt lat="59.7793759" lon="17.7054733">
        <ele>55.8938</ele>
        <time>2014-06-01T11:44:01Z</time>
      </trkpt>
      <trkpt lat="59.7793748" lon="17.7054981">
        <ele>55.4131</ele>
        <time>2014-06-01T11:44:02Z</time>
      </trkpt>
      <trkpt lat="59.7793768" lon="17.7055289">
        <ele>55.4131</ele>
        <time>2014-06-01T11:44:03Z</time>
      </trkpt>
      <trkpt lat="59.7793754" lon="17.7055698">
        <ele>55.8938</ele>
        <time>2014-06-01T11:44:04Z</time>
      </trkpt>
      <trkpt lat="59.7793727" lon="17.7056101">
        <ele>56.3745</ele>
        <time>2014-06-01T11:44:05Z</time>
      </trkpt>
      <trkpt lat="59.7793665" lon="17.7056525">
        <ele>56.8551</ele>
        <time>2014-06-01T11:44:06Z</time>
      </trkpt>
      <trkpt lat="59.7793634" lon="17.7056909">
        <ele>57.3358</ele>
        <time>2014-06-01T11:44:07Z</time>
      </trkpt>
      <trkpt lat="59.7793661" lon="17.7057229">
        <ele>57.3358</ele>
        <time>2014-06-01T11:44:08Z</time>
      </trkpt>
      <trkpt lat="59.7793681" lon="17.705757">
        <ele>57.8165</ele>
        <time>2014-06-01T11:44:09Z</time>
      </trkpt>
      <trkpt lat="59.7793753" lon="17.7057876">
        <ele>57.8165</ele>
        <time>2014-06-01T11:44:10Z</time>
      </trkpt>
      <trkpt lat="59.7793765" lon="17.705825">
        <ele>57.3358</ele>
        <time>2014-06-01T11:44:11Z</time>
      </trkpt>
      <trkpt lat="59.7793694" lon="17.7058613">
        <ele>56.8551</ele>
        <time>2014-06-01T11:44:12Z</time>
      </trkpt>
      <trkpt lat="59.7793614" lon="17.7059001">
        <ele>56.3745</ele>
        <time>2014-06-01T11:44:13Z</time>
      </trkpt>
      <trkpt lat="59.7793585" lon="17.705937">
        <ele>55.8938</ele>
        <time>2014-06-01T11:44:14Z</time>
      </trkpt>
      <trkpt lat="59.7793536" lon="17.7059761">
        <ele>55.4131</ele>
        <time>2014-06-01T11:44:15Z</time>
      </trkpt>
      <trkpt lat="59.7793461" lon="17.7060131">
        <ele>54.9324</ele>
        <time>2014-06-01T11:44:16Z</time>
      </trkpt>
      <trkpt lat="59.7793407" lon="17.7060478">
        <ele>54.9324</ele>
        <time>2014-06-01T11:44:17Z</time>
      </trkpt>
      <trkpt lat="59.7793396" lon="17.7060706">
        <ele>53.9712</ele>
        <time>2014-06-01T11:44:18Z</time>
      </trkpt>
      <trkpt lat="59.77934" lon="17.7061006">
        <ele>53.9712</ele>
        <time>2014-06-01T11:44:19Z</time>
      </trkpt>
      <trkpt lat="59.7793365" lon="17.7061262">
        <ele>53.9712</ele>
        <time>2014-06-01T11:44:20Z</time>
      </trkpt>
      <trkpt lat="59.7793318" lon="17.7061498">
        <ele>53.9712</ele>
        <time>2014-06-01T11:44:21Z</time>
      </trkpt>
      <trkpt lat="59.779329" lon="17.7061769">
        <ele>53.4905</ele>
        <time>2014-06-01T11:44:22Z</time>
      </trkpt>
      <trkpt lat="59.7793202" lon="17.7062089">
        <ele>53.4905</ele>
        <time>2014-06-01T11:44:23Z</time>
      </trkpt>
      <trkpt lat="59.7793101" lon="17.7062307">
        <ele>53.4905</ele>
        <time>2014-06-01T11:44:24Z</time>
      </trkpt>
      <trkpt lat="59.7793045" lon="17.7062447">
        <ele>53.0098</ele>
        <time>2014-06-01T11:44:25Z</time>
      </trkpt>
      <trkpt lat="59.7793043" lon="17.7062561">
        <ele>53.0098</ele>
        <time>2014-06-01T11:44:26Z</time>
      </trkpt>
      <trkpt lat="59.7793055" lon="17.7062638">
        <ele>53.4905</ele>
        <time>2014-06-01T11:44:27Z</time>
      </trkpt>
      <trkpt lat="59.779306" lon="17.706271">
        <ele>53.4905</ele>
        <time>2014-06-01T11:44:28Z</time>
      </trkpt>
      <trkpt lat="59.779309" lon="17.7062807">
        <ele>53.9712</ele>
        <time>2014-06-01T11:44:29Z</time>
      </trkpt>
      <trkpt lat="59.7793131" lon="17.7062938">
        <ele>53.9712</ele>
        <time>2014-06-01T11:44:30Z</time>
      </trkpt>
      <trkpt lat="59.7793132" lon="17.7063136">
        <ele>53.9712</ele>
        <time>2014-06-01T11:44:31Z</time>
      </trkpt>
      <trkpt lat="59.7793133" lon="17.7063344">
        <ele>54.4518</ele>
        <time>2014-06-01T11:44:32Z</time>
      </trkpt>
      <trkpt lat="59.7793135" lon="17.7063488">
        <ele>54.4518</ele>
        <time>2014-06-01T11:44:33Z</time>
      </trkpt>
      <trkpt lat="59.7793145" lon="17.7063617">
        <ele>54.9324</ele>
        <time>2014-06-01T11:44:34Z</time>
      </trkpt>
      <trkpt lat="59.7793166" lon="17.7063705">
        <ele>54.9324</ele>
        <time>2014-06-01T11:44:35Z</time>
      </trkpt>
      <trkpt lat="59.7793199" lon="17.7063722">
        <ele>54.9324</ele>
        <time>2014-06-01T11:44:36Z</time>
      </trkpt>
      <trkpt lat="59.779324" lon="17.7063835">
        <ele>56.3745</ele>
        <time>2014-06-01T11:44:37Z</time>
      </trkpt>
      <trkpt lat="59.7793286" lon="17.7063887">
        <ele>56.3745</ele>
        <time>2014-06-01T11:44:38Z</time>
      </trkpt>
      <trkpt lat="59.7793297" lon="17.7063871">
        <ele>56.3745</ele>
        <time>2014-06-01T11:44:39Z</time>
      </trkpt>
      <trkpt lat="59.7793345" lon="17.7063846">
        <ele>56.3745</ele>
        <time>2014-06-01T11:44:40Z</time>
      </trkpt>
      <trkpt lat="59.7793392" lon="17.7063891">
        <ele>56.3745</ele>
        <time>2014-06-01T11:44:41Z</time>
      </trkpt>
      <trkpt lat="59.7793411" lon="17.7063952">
        <ele>56.8551</ele>
        <time>2014-06-01T11:44:42Z</time>
      </trkpt>
      <trkpt lat="59.7793428" lon="17.7063969">
        <ele>56.8551</ele>
        <time>2014-06-01T11:44:43Z</time>
      </trkpt>
      <trkpt lat="59.7793297" lon="17.7065244">
        <ele>56.8551</ele>
        <time>2014-06-01T11:44:48Z</time>
      </trkpt>
      <trkpt lat="59.7793271" lon="17.7065618">
        <ele>56.8551</ele>
        <time>2014-06-01T11:44:49Z</time>
      </trkpt>
      <trkpt lat="59.7793256" lon="17.7065996">
        <ele>57.3358</ele>
        <time>2014-06-01T11:44:50Z</time>
      </trkpt>
      <trkpt lat="59.7793266" lon="17.7066182">
        <ele>57.3358</ele>
        <time>2014-06-01T11:44:51Z</time>
      </trkpt>
      <trkpt lat="59.779329" lon="17.7066259">
        <ele>57.3358</ele>
        <time>2014-06-01T11:44:52Z</time>
      </trkpt>
      <trkpt lat="59.7793307" lon="17.7066333">
        <ele>57.3358</ele>
        <time>2014-06-01T11:44:53Z</time>
      </trkpt>
      <trkpt lat="59.77933" lon="17.7066393">
        <ele>57.3358</ele>
        <time>2014-06-01T11:44:54Z</time>
      </trkpt>
      <trkpt lat="59.7793304" lon="17.7066451">
        <ele>57.3358</ele>
        <time>2014-06-01T11:44:55Z</time>
      </trkpt>
      <trkpt lat="59.7793598" lon="17.7067632">
        <ele>58.7777</ele>
        <time>2014-06-01T11:45:04Z</time>
      </trkpt>
      <trkpt lat="59.7793627" lon="17.706802">
        <ele>58.7777</ele>
        <time>2014-06-01T11:45:05Z</time>
      </trkpt>
      <trkpt lat="59.7793618" lon="17.706842">
        <ele>58.7777</ele>
        <time>2014-06-01T11:45:06Z</time>
      </trkpt>
      <trkpt lat="59.7793556" lon="17.7068746">
        <ele>58.7777</ele>
        <time>2014-06-01T11:45:07Z</time>
      </trkpt>
      <trkpt lat="59.7793505" lon="17.7068974">
        <ele>58.7777</ele>
        <time>2014-06-01T11:45:08Z</time>
      </trkpt>
      <trkpt lat="59.7793494" lon="17.7069139">
        <ele>58.2971</ele>
        <time>2014-06-01T11:45:09Z</time>
      </trkpt>
      <trkpt lat="59.7793528" lon="17.7069351">
        <ele>57.8165</ele>
        <time>2014-06-01T11:45:10Z</time>
      </trkpt>
      <trkpt lat="59.7793555" lon="17.7069704">
        <ele>58.2971</ele>
        <time>2014-06-01T11:45:11Z</time>
      </trkpt>
      <trkpt lat="59.7793542" lon="17.7070019">
        <ele>58.2971</ele>
        <time>2014-06-01T11:45:12Z</time>
      </trkpt>
      <trkpt lat="59.779351" lon="17.707018">
        <ele>58.2971</ele>
        <time>2014-06-01T11:45:13Z</time>
      </trkpt>
      <trkpt lat="59.7793472" lon="17.70702">
        <ele>58.2971</ele>
        <time>2014-06-01T11:45:14Z</time>
      </trkpt>
      <trkpt lat="59.7793454" lon="17.7070191">
        <ele>58.2971</ele>
        <time>2014-06-01T11:45:15Z</time>
      </trkpt>
      <trkpt lat="59.7793221" lon="17.7071741">
        <ele>59.7391</ele>
        <time>2014-06-01T11:45:52Z</time>
      </trkpt>
      <trkpt lat="59.7793156" lon="17.7071906">
        <ele>59.7391</ele>
        <time>2014-06-01T11:45:53Z</time>
      </trkpt>
      <trkpt lat="59.7793121" lon="17.707205">
        <ele>59.7391</ele>
        <time>2014-06-01T11:45:54Z</time>
      </trkpt>
      <trkpt lat="59.7793137" lon="17.7072221">
        <ele>59.2584</ele>
        <time>2014-06-01T11:45:55Z</time>
      </trkpt>
      <trkpt lat="59.7793186" lon="17.7072445">
        <ele>59.7391</ele>
        <time>2014-06-01T11:45:56Z</time>
      </trkpt>
      <trkpt lat="59.7793203" lon="17.707263">
        <ele>59.7391</ele>
        <time>2014-06-01T11:45:57Z</time>
      </trkpt>
      <trkpt lat="59.7793164" lon="17.7072808">
        <ele>60.2197</ele>
        <time>2014-06-01T11:45:58Z</time>
      </trkpt>
      <trkpt lat="59.7793116" lon="17.707295">
        <ele>60.2197</ele>
        <time>2014-06-01T11:45:59Z</time>
      </trkpt>
      <trkpt lat="59.7793094" lon="17.7073039">
        <ele>60.2197</ele>
        <time>2014-06-01T11:46:00Z</time>
      </trkpt>
      <trkpt lat="59.7793074" lon="17.7073102">
        <ele>60.2197</ele>
        <time>2014-06-01T11:46:01Z</time>
      </trkpt>
      <trkpt lat="59.7793059" lon="17.7073129">
        <ele>60.2197</ele>
        <time>2014-06-01T11:46:02Z</time>
      </trkpt>
      <trkpt lat="59.7792832" lon="17.707598">
        <ele>63.5844</ele>
        <time>2014-06-01T11:46:31Z</time>
      </trkpt>
      <trkpt lat="59.7792867" lon="17.707624">
        <ele>63.5844</ele>
        <time>2014-06-01T11:46:32Z</time>
      </trkpt>
      <trkpt lat="59.779286" lon="17.7076495">
        <ele>63.5844</ele>
        <time>2014-06-01T11:46:33Z</time>
      </trkpt>
      <trkpt lat="59.7792795" lon="17.7076781">
        <ele>62.6229</ele>
        <time>2014-06-01T11:46:34Z</time>
      </trkpt>
      <trkpt lat="59.7792733" lon="17.7077095">
        <ele>61.6617</ele>
        <time>2014-06-01T11:46:35Z</time>
      </trkpt>
      <trkpt lat="59.7792727" lon="17.7077442">
        <ele>60.7003</ele>
        <time>2014-06-01T11:46:36Z</time>
      </trkpt>
      <trkpt lat="59.7792777" lon="17.707784">
        <ele>59.7391</ele>
        <time>2014-06-01T11:46:37Z</time>
      </trkpt>
      <trkpt lat="59.7792873" lon="17.7078179">
        <ele>59.2584</ele>
        <time>2014-06-01T11:46:38Z</time>
      </trkpt>
      <trkpt lat="59.7793016" lon="17.7078324">
        <ele>58.2971</ele>
        <time>2014-06-01T11:46:39Z</time>
      </trkpt>
      <trkpt lat="59.779321" lon="17.7078489">
        <ele>58.2971</ele>
        <time>2014-06-01T11:46:40Z</time>
      </trkpt>
      <trkpt lat="59.7793397" lon="17.7078729">
        <ele>57.8165</ele>
        <time>2014-06-01T11:46:41Z</time>
      </trkpt>
      <trkpt lat="59.7793515" lon="17.7078966">
        <ele>57.8165</ele>
        <time>2014-06-01T11:46:42Z</time>
      </trkpt>
      <trkpt lat="59.7793613" lon="17.7079197">
        <ele>57.8165</ele>
        <time>2014-06-01T11:46:43Z</time>
      </trkpt>
      <trkpt lat="59.7793722" lon="17.7079469">
        <ele>57.8165</ele>
        <time>2014-06-01T11:46:44Z</time>
      </trkpt>
      <trkpt lat="59.779385" lon="17.7079808">
        <ele>57.8165</ele>
        <time>2014-06-01T11:46:45Z</time>
      </trkpt>
      <trkpt lat="59.7793997" lon="17.7080219">
        <ele>57.8165</ele>
        <time>2014-06-01T11:46:46Z</time>
      </trkpt>
      <trkpt lat="59.7794172" lon="17.7080632">
        <ele>57.8165</ele>
        <time>2014-06-01T11:46:47Z</time>
      </trkpt>
      <trkpt lat="59.7794339" lon="17.7080997">
        <ele>57.8165</ele>
        <time>2014-06-01T11:46:48Z</time>
      </trkpt>
      <trkpt lat="59.7794504" lon="17.7081275">
        <ele>58.2971</ele>
        <time>2014-06-01T11:46:49Z</time>
      </trkpt>
      <trkpt lat="59.779464" lon="17.7081466">
        <ele>58.2971</ele>
        <time>2014-06-01T11:46:50Z</time>
      </trkpt>
      <trkpt lat="59.7794748" lon="17.7081624">
        <ele>57.8165</ele>
        <time>2014-06-01T11:46:51Z</time>
      </trkpt>
      <trkpt lat="59.779486" lon="17.7081804">
        <ele>57.8165</ele>
        <time>2014-06-01T11:46:52Z</time>
      </trkpt>
      <trkpt lat="59.7794989" lon="17.7082047">
        <ele>58.2971</ele>
        <time>2014-06-01T11:46:53Z</time>
      </trkpt>
      <trkpt lat="59.7795095" lon="17.7082312">
        <ele>58.2971</ele>
        <time>2014-06-01T11:46:54Z</time>
      </trkpt>
      <trkpt lat="59.7795166" lon="17.7082551">
        <ele>58.7777</ele>
        <time>2014-06-01T11:46:55Z</time>
      </trkpt>
      <trkpt lat="59.7795255" lon="17.7082761">
        <ele>58.7777</ele>
        <time>2014-06-01T11:46:56Z</time>
      </trkpt>
      <trkpt lat="59.7795302" lon="17.7083041">
        <ele>58.7777</ele>
        <time>2014-06-01T11:46:57Z</time>
      </trkpt>
      <trkpt lat="59.7795358" lon="17.7083415">
        <ele>58.2971</ele>
        <time>2014-06-01T11:46:58Z</time>
      </trkpt>
      <trkpt lat="59.7795376" lon="17.7083712">
        <ele>57.8165</ele>
        <time>2014-06-01T11:46:59Z</time>
      </trkpt>
      <trkpt lat="59.7795359" lon="17.7083964">
        <ele>56.8551</ele>
        <time>2014-06-01T11:47:00Z</time>
      </trkpt>
      <trkpt lat="59.7795307" lon="17.7084265">
        <ele>56.3745</ele>
        <time>2014-06-01T11:47:01Z</time>
      </trkpt>
      <trkpt lat="59.7795236" lon="17.7084631">
        <ele>55.4131</ele>
        <time>2014-06-01T11:47:02Z</time>
      </trkpt>
      <trkpt lat="59.7795235" lon="17.7085099">
        <ele>55.4131</ele>
        <time>2014-06-01T11:47:03Z</time>
      </trkpt>
      <trkpt lat="59.7795251" lon="17.7085632">
        <ele>54.4518</ele>
        <time>2014-06-01T11:47:04Z</time>
      </trkpt>
      <trkpt lat="59.7795266" lon="17.7086166">
        <ele>54.4518</ele>
        <time>2014-06-01T11:47:05Z</time>
      </trkpt>
      <trkpt lat="59.7795228" lon="17.7086705">
        <ele>53.4905</ele>
        <time>2014-06-01T11:47:06Z</time>
      </trkpt>
      <trkpt lat="59.7795168" lon="17.7087156">
        <ele>52.5292</ele>
        <time>2014-06-01T11:47:07Z</time>
      </trkpt>
      <trkpt lat="59.7795064" lon="17.7087464">
        <ele>52.0486</ele>
        <time>2014-06-01T11:47:08Z</time>
      </trkpt>
      <trkpt lat="59.7794866" lon="17.7087701">
        <ele>51.0872</ele>
        <time>2014-06-01T11:47:09Z</time>
      </trkpt>
      <trkpt lat="59.779467" lon="17.708804">
        <ele>50.6066</ele>
        <time>2014-06-01T11:47:10Z</time>
      </trkpt>
      <trkpt lat="59.7794511" lon="17.7088466">
        <ele>50.6066</ele>
        <time>2014-06-01T11:47:11Z</time>
      </trkpt>
      <trkpt lat="59.7794442" lon="17.7088892">
        <ele>50.6066</ele>
        <time>2014-06-01T11:47:12Z</time>
      </trkpt>
      <trkpt lat="59.7794424" lon="17.708941">
        <ele>50.6066</ele>
        <time>2014-06-01T11:47:13Z</time>
      </trkpt>
      <trkpt lat="59.7794374" lon="17.7089953">
        <ele>49.6453</ele>
        <time>2014-06-01T11:47:14Z</time>
      </trkpt>
      <trkpt lat="59.7794322" lon="17.7090444">
        <ele>49.6453</ele>
        <time>2014-06-01T11:47:15Z</time>
      </trkpt>
      <trkpt lat="59.7794173" lon="17.7091032">
        <ele>51.0872</ele>
        <time>2014-06-01T11:47:16Z</time>
      </trkpt>
      <trkpt lat="59.7793991" lon="17.7091533">
        <ele>52.0486</ele>
        <time>2014-06-01T11:47:17Z</time>
      </trkpt>
      <trkpt lat="59.7793789" lon="17.7092108">
        <ele>53.0098</ele>
        <time>2014-06-01T11:47:18Z</time>
      </trkpt>
      <trkpt lat="59.7793608" lon="17.7092605">
        <ele>53.9712</ele>
        <time>2014-06-01T11:47:19Z</time>
      </trkpt>
      <trkpt lat="59.7793498" lon="17.7092874">
        <ele>53.4905</ele>
        <time>2014-06-01T11:47:20Z</time>
      </trkpt>
      <trkpt lat="59.7793361" lon="17.7093086">
        <ele>53.4905</ele>
        <time>2014-06-01T11:47:21Z</time>
      </trkpt>
      <trkpt lat="59.7793152" lon="17.7093243">
        <ele>53.4905</ele>
        <time>2014-06-01T11:47:22Z</time>
      </trkpt>
      <trkpt lat="59.7792977" lon="17.7093495">
        <ele>53.0098</ele>
        <time>2014-06-01T11:47:23Z</time>
      </trkpt>
      <trkpt lat="59.7792866" lon="17.7093836">
        <ele>53.0098</ele>
        <time>2014-06-01T11:47:24Z</time>
      </trkpt>
      <trkpt lat="59.7792759" lon="17.7094274">
        <ele>52.5292</ele>
        <time>2014-06-01T11:47:25Z</time>
      </trkpt>
      <trkpt lat="59.7792686" lon="17.7094753">
        <ele>52.5292</ele>
        <time>2014-06-01T11:47:26Z</time>
      </trkpt>
      <trkpt lat="59.7792635" lon="17.7095245">
        <ele>52.0486</ele>
        <time>2014-06-01T11:47:27Z</time>
      </trkpt>
      <trkpt lat="59.7792592" lon="17.7095784">
        <ele>52.0486</ele>
        <time>2014-06-01T11:47:28Z</time>
      </trkpt>
      <trkpt lat="59.7792544" lon="17.709637">
        <ele>51.5679</ele>
        <time>2014-06-01T11:47:29Z</time>
      </trkpt>
      <trkpt lat="59.7792575" lon="17.7096913">
        <ele>51.0872</ele>
        <time>2014-06-01T11:47:30Z</time>
      </trkpt>
      <trkpt lat="59.7792551" lon="17.7097501">
        <ele>51.5679</ele>
        <time>2014-06-01T11:47:31Z</time>
      </trkpt>
      <trkpt lat="59.779256" lon="17.7097895">
        <ele>51.5679</ele>
        <time>2014-06-01T11:47:32Z</time>
      </trkpt>
      <trkpt lat="59.7792555" lon="17.7098275">
        <ele>52.5292</ele>
        <time>2014-06-01T11:47:33Z</time>
      </trkpt>
      <trkpt lat="59.7792598" lon="17.7098711">
        <ele>52.5292</ele>
        <time>2014-06-01T11:47:34Z</time>
      </trkpt>
      <trkpt lat="59.7792602" lon="17.7099303">
        <ele>53.4905</ele>
        <time>2014-06-01T11:47:35Z</time>
      </trkpt>
      <trkpt lat="59.7792598" lon="17.7099945">
        <ele>54.4518</ele>
        <time>2014-06-01T11:47:36Z</time>
      </trkpt>
      <trkpt lat="59.7792523" lon="17.7100496">
        <ele>54.9324</ele>
        <time>2014-06-01T11:47:37Z</time>
      </trkpt>
      <trkpt lat="59.7792472" lon="17.7100948">
        <ele>55.4131</ele>
        <time>2014-06-01T11:47:38Z</time>
      </trkpt>
      <trkpt lat="59.7792423" lon="17.7101345">
        <ele>56.3745</ele>
        <time>2014-06-01T11:47:39Z</time>
      </trkpt>
      <trkpt lat="59.7792355" lon="17.7101661">
        <ele>56.3745</ele>
        <time>2014-06-01T11:47:40Z</time>
      </trkpt>
      <trkpt lat="59.7792329" lon="17.7101997">
        <ele>56.8551</ele>
        <time>2014-06-01T11:47:41Z</time>
      </trkpt>
      <trkpt lat="59.7792255" lon="17.7102323">
        <ele>56.8551</ele>
        <time>2014-06-01T11:47:42Z</time>
      </trkpt>
      <trkpt lat="59.7792116" lon="17.7102676">
        <ele>57.3358</ele>
        <time>2014-06-01T11:47:43Z</time>
      </trkpt>
      <trkpt lat="59.7791935" lon="17.710298">
        <ele>57.8165</ele>
        <time>2014-06-01T11:47:44Z</time>
      </trkpt>
      <trkpt lat="59.7791811" lon="17.7103147">
        <ele>57.3358</ele>
        <time>2014-06-01T11:47:45Z</time>
      </trkpt>
      <trkpt lat="59.7791685" lon="17.7103217">
        <ele>56.3745</ele>
        <time>2014-06-01T11:47:46Z</time>
      </trkpt>
      <trkpt lat="59.7791557" lon="17.7103307">
        <ele>55.8938</ele>
        <time>2014-06-01T11:47:47Z</time>
      </trkpt>
      <trkpt lat="59.779139" lon="17.7103489">
        <ele>55.4131</ele>
        <time>2014-06-01T11:47:48Z</time>
      </trkpt>
      <trkpt lat="59.7791223" lon="17.7103701">
        <ele>54.9324</ele>
        <time>2014-06-01T11:47:49Z</time>
      </trkpt>
      <trkpt lat="59.7791073" lon="17.7103892">
        <ele>54.9324</ele>
        <time>2014-06-01T11:47:50Z</time>
      </trkpt>
      <trkpt lat="59.7790931" lon="17.7104106">
        <ele>54.9324</ele>
        <time>2014-06-01T11:47:51Z</time>
      </trkpt>
      <trkpt lat="59.7790822" lon="17.7104362">
        <ele>54.4518</ele>
        <time>2014-06-01T11:47:52Z</time>
      </trkpt>
      <trkpt lat="59.7790669" lon="17.7104665">
        <ele>53.9712</ele>
        <time>2014-06-01T11:47:53Z</time>
      </trkpt>
      <trkpt lat="59.7790506" lon="17.7104917">
        <ele>53.4905</ele>
        <time>2014-06-01T11:47:54Z</time>
      </trkpt>
      <trkpt lat="59.7790359" lon="17.7105126">
        <ele>53.0098</ele>
        <time>2014-06-01T11:47:55Z</time>
      </trkpt>
      <trkpt lat="59.7790182" lon="17.7105321">
        <ele>52.0486</ele>
        <time>2014-06-01T11:47:56Z</time>
      </trkpt>
      <trkpt lat="59.7789957" lon="17.7105612">
        <ele>53.0098</ele>
        <time>2014-06-01T11:47:57Z</time>
      </trkpt>
      <trkpt lat="59.7789688" lon="17.7105888">
        <ele>53.0098</ele>
        <time>2014-06-01T11:47:58Z</time>
      </trkpt>
      <trkpt lat="59.778948" lon="17.7106246">
        <ele>54.4518</ele>
        <time>2014-06-01T11:47:59Z</time>
      </trkpt>
      <trkpt lat="59.7789282" lon="17.7106447">
        <ele>54.4518</ele>
        <time>2014-06-01T11:48:00Z</time>
      </trkpt>
      <trkpt lat="59.7789136" lon="17.7106655">
        <ele>54.9324</ele>
        <time>2014-06-01T11:48:01Z</time>
      </trkpt>
      <trkpt lat="59.7789013" lon="17.7107011">
        <ele>55.4131</ele>
        <time>2014-06-01T11:48:02Z</time>
      </trkpt>
      <trkpt lat="59.7788791" lon="17.7107364">
        <ele>56.3745</ele>
        <time>2014-06-01T11:48:03Z</time>
      </trkpt>
      <trkpt lat="59.7788506" lon="17.7107628">
        <ele>56.3745</ele>
        <time>2014-06-01T11:48:04Z</time>
      </trkpt>
      <trkpt lat="59.7788278" lon="17.710783">
        <ele>56.8551</ele>
        <time>2014-06-01T11:48:05Z</time>
      </trkpt>
      <trkpt lat="59.7788079" lon="17.7108042">
        <ele>56.3745</ele>
        <time>2014-06-01T11:48:06Z</time>
      </trkpt>
      <trkpt lat="59.7787895" lon="17.7108268">
        <ele>55.8938</ele>
        <time>2014-06-01T11:48:07Z</time>
      </trkpt>
      <trkpt lat="59.7787707" lon="17.7108416">
        <ele>55.8938</ele>
        <time>2014-06-01T11:48:08Z</time>
      </trkpt>
      <trkpt lat="59.7787558" lon="17.7108475">
        <ele>55.8938</ele>
        <time>2014-06-01T11:48:09Z</time>
      </trkpt>
      <trkpt lat="59.7787418" lon="17.71086">
        <ele>55.8938</ele>
        <time>2014-06-01T11:48:10Z</time>
      </trkpt>
      <trkpt lat="59.7787272" lon="17.7108834">
        <ele>55.4131</ele>
        <time>2014-06-01T11:48:11Z</time>
      </trkpt>
      <trkpt lat="59.7787085" lon="17.710913">
        <ele>54.4518</ele>
        <time>2014-06-01T11:48:12Z</time>
      </trkpt>
      <trkpt lat="59.7786854" lon="17.7109397">
        <ele>53.9712</ele>
        <time>2014-06-01T11:48:13Z</time>
      </trkpt>
      <trkpt lat="59.7786647" lon="17.7109591">
        <ele>53.4905</ele>
        <time>2014-06-01T11:48:14Z</time>
      </trkpt>
      <trkpt lat="59.7786516" lon="17.7109841">
        <ele>53.4905</ele>
        <time>2014-06-01T11:48:15Z</time>
      </trkpt>
      <trkpt lat="59.7786382" lon="17.7110082">
        <ele>53.4905</ele>
        <time>2014-06-01T11:48:16Z</time>
      </trkpt>
      <trkpt lat="59.7786112" lon="17.7110433">
        <ele>54.4518</ele>
        <time>2014-06-01T11:48:17Z</time>
      </trkpt>
      <trkpt lat="59.7785937" lon="17.7110576">
        <ele>54.4518</ele>
        <time>2014-06-01T11:48:18Z</time>
      </trkpt>
      <trkpt lat="59.7785782" lon="17.7110637">
        <ele>53.9712</ele>
        <time>2014-06-01T11:48:19Z</time>
      </trkpt>
      <trkpt lat="59.778567" lon="17.7110704">
        <ele>53.9712</ele>
        <time>2014-06-01T11:48:20Z</time>
      </trkpt>
      <trkpt lat="59.7785578" lon="17.7110731">
        <ele>53.4905</ele>
        <time>2014-06-01T11:48:21Z</time>
      </trkpt>
      <trkpt lat="59.7785464" lon="17.7110773">
        <ele>53.0098</ele>
        <time>2014-06-01T11:48:22Z</time>
      </trkpt>
      <trkpt lat="59.7785336" lon="17.7110891">
        <ele>53.4905</ele>
        <time>2014-06-01T11:48:23Z</time>
      </trkpt>
      <trkpt lat="59.7785216" lon="17.7111047">
        <ele>53.4905</ele>
        <time>2014-06-01T11:48:24Z</time>
      </trkpt>
      <trkpt lat="59.7785101" lon="17.7111279">
        <ele>53.0098</ele>
        <time>2014-06-01T11:48:25Z</time>
      </trkpt>
      <trkpt lat="59.7784972" lon="17.711156">
        <ele>52.0486</ele>
        <time>2014-06-01T11:48:26Z</time>
      </trkpt>
      <trkpt lat="59.7784766" lon="17.7111744">
        <ele>52.0486</ele>
        <time>2014-06-01T11:48:27Z</time>
      </trkpt>
      <trkpt lat="59.7784543" lon="17.7111875">
        <ele>52.0486</ele>
        <time>2014-06-01T11:48:28Z</time>
      </trkpt>
      <trkpt lat="59.7784345" lon="17.7112101">
        <ele>51.5679</ele>
        <time>2014-06-01T11:48:29Z</time>
      </trkpt>
      <trkpt lat="59.7784155" lon="17.7112396">
        <ele>51.5679</ele>
        <time>2014-06-01T11:48:30Z</time>
      </trkpt>
      <trkpt lat="59.7783936" lon="17.71127">
        <ele>51.0872</ele>
        <time>2014-06-01T11:48:31Z</time>
      </trkpt>
      <trkpt lat="59.7783762" lon="17.7112985">
        <ele>51.0872</ele>
        <time>2014-06-01T11:48:32Z</time>
      </trkpt>
      <trkpt lat="59.7783625" lon="17.7113325">
        <ele>50.6066</ele>
        <time>2014-06-01T11:48:33Z</time>
      </trkpt>
      <trkpt lat="59.7783471" lon="17.7113699">
        <ele>50.6066</ele>
        <time>2014-06-01T11:48:34Z</time>
      </trkpt>
      <trkpt lat="59.7783283" lon="17.711406">
        <ele>50.6066</ele>
        <time>2014-06-01T11:48:35Z</time>
      </trkpt>
      <trkpt lat="59.7783116" lon="17.7114336">
        <ele>50.6066</ele>
        <time>2014-06-01T11:48:36Z</time>
      </trkpt>
      <trkpt lat="59.7782962" lon="17.7114558">
        <ele>50.6066</ele>
        <time>2014-06-01T11:48:37Z</time>
      </trkpt>
      <trkpt lat="59.7782802" lon="17.7114748">
        <ele>50.6066</ele>
        <time>2014-06-01T11:48:38Z</time>
      </trkpt>
      <trkpt lat="59.7782656" lon="17.7114961">
        <ele>50.6066</ele>
        <time>2014-06-01T11:48:39Z</time>
      </trkpt>
      <trkpt lat="59.7782471" lon="17.7115329">
        <ele>51.0872</ele>
        <time>2014-06-01T11:48:40Z</time>
      </trkpt>
      <trkpt lat="59.7782277" lon="17.7115784">
        <ele>51.5679</ele>
        <time>2014-06-01T11:48:41Z</time>
      </trkpt>
      <trkpt lat="59.7782072" lon="17.7116209">
        <ele>52.0486</ele>
        <time>2014-06-01T11:48:42Z</time>
      </trkpt>
      <trkpt lat="59.7781896" lon="17.7116496">
        <ele>52.0486</ele>
        <time>2014-06-01T11:48:43Z</time>
      </trkpt>
      <trkpt lat="59.7781739" lon="17.7116802">
        <ele>52.0486</ele>
        <time>2014-06-01T11:48:44Z</time>
      </trkpt>
      <trkpt lat="59.778161" lon="17.7117149">
        <ele>52.0486</ele>
        <time>2014-06-01T11:48:45Z</time>
      </trkpt>
      <trkpt lat="59.7781481" lon="17.7117452">
        <ele>51.5679</ele>
        <time>2014-06-01T11:48:46Z</time>
      </trkpt>
      <trkpt lat="59.7781329" lon="17.7117708">
        <ele>51.5679</ele>
        <time>2014-06-01T11:48:47Z</time>
      </trkpt>
      <trkpt lat="59.7781167" lon="17.7117878">
        <ele>51.0872</ele>
        <time>2014-06-01T11:48:48Z</time>
      </trkpt>
      <trkpt lat="59.7781036" lon="17.7118054">
        <ele>50.6066</ele>
        <time>2014-06-01T11:48:49Z</time>
      </trkpt>
      <trkpt lat="59.7780932" lon="17.7118267">
        <ele>50.126</ele>
        <time>2014-06-01T11:48:50Z</time>
      </trkpt>
      <trkpt lat="59.7780798" lon="17.7118707">
        <ele>50.6066</ele>
        <time>2014-06-01T11:48:51Z</time>
      </trkpt>
      <trkpt lat="59.7780683" lon="17.7119148">
        <ele>51.5679</ele>
        <time>2014-06-01T11:48:52Z</time>
      </trkpt>
      <trkpt lat="59.7780566" lon="17.7119521">
        <ele>52.5292</ele>
        <time>2014-06-01T11:48:53Z</time>
      </trkpt>
      <trkpt lat="59.7780464" lon="17.7119697">
        <ele>52.0486</ele>
        <time>2014-06-01T11:48:54Z</time>
      </trkpt>
      <trkpt lat="59.7780357" lon="17.7119805">
        <ele>52.0486</ele>
        <time>2014-06-01T11:48:55Z</time>
      </trkpt>
      <trkpt lat="59.7780224" lon="17.7119951">
        <ele>52.5292</ele>
        <time>2014-06-01T11:48:56Z</time>
      </trkpt>
      <trkpt lat="59.7780077" lon="17.7120044">
        <ele>53.0098</ele>
        <time>2014-06-01T11:48:57Z</time>
      </trkpt>
      <trkpt lat="59.7779901" lon="17.7120066">
        <ele>53.4905</ele>
        <time>2014-06-01T11:48:58Z</time>
      </trkpt>
      <trkpt lat="59.7779723" lon="17.7120002">
        <ele>53.4905</ele>
        <time>2014-06-01T11:48:59Z</time>
      </trkpt>
      <trkpt lat="59.7779543" lon="17.7119888">
        <ele>53.4905</ele>
        <time>2014-06-01T11:49:00Z</time>
      </trkpt>
      <trkpt lat="59.7779327" lon="17.7119745">
        <ele>53.9712</ele>
        <time>2014-06-01T11:49:01Z</time>
      </trkpt>
      <trkpt lat="59.7779099" lon="17.7119567">
        <ele>53.9712</ele>
        <time>2014-06-01T11:49:02Z</time>
      </trkpt>
      <trkpt lat="59.7778872" lon="17.7119387">
        <ele>54.4518</ele>
        <time>2014-06-01T11:49:03Z</time>
      </trkpt>
      <trkpt lat="59.7778674" lon="17.7119248">
        <ele>54.4518</ele>
        <time>2014-06-01T11:49:04Z</time>
      </trkpt>
      <trkpt lat="59.7778482" lon="17.7119113">
        <ele>54.4518</ele>
        <time>2014-06-01T11:49:05Z</time>
      </trkpt>
      <trkpt lat="59.7778296" lon="17.7119008">
        <ele>54.4518</ele>
        <time>2014-06-01T11:49:06Z</time>
      </trkpt>
      <trkpt lat="59.7778092" lon="17.7118931">
        <ele>54.4518</ele>
        <time>2014-06-01T11:49:07Z</time>
      </trkpt>
      <trkpt lat="59.7777844" lon="17.7118848">
        <ele>54.4518</ele>
        <time>2014-06-01T11:49:08Z</time>
      </trkpt>
      <trkpt lat="59.7777591" lon="17.7118818">
        <ele>54.9324</ele>
        <time>2014-06-01T11:49:09Z</time>
      </trkpt>
      <trkpt lat="59.7777383" lon="17.711884">
        <ele>54.4518</ele>
        <time>2014-06-01T11:49:10Z</time>
      </trkpt>
      <trkpt lat="59.7777216" lon="17.7118888">
        <ele>54.4518</ele>
        <time>2014-06-01T11:49:11Z</time>
      </trkpt>
      <trkpt lat="59.7777047" lon="17.7118949">
        <ele>54.4518</ele>
        <time>2014-06-01T11:49:12Z</time>
      </trkpt>
      <trkpt lat="59.7776836" lon="17.7119008">
        <ele>54.4518</ele>
        <time>2014-06-01T11:49:13Z</time>
      </trkpt>
      <trkpt lat="59.7776586" lon="17.7119029">
        <ele>54.4518</ele>
        <time>2014-06-01T11:49:14Z</time>
      </trkpt>
      <trkpt lat="59.7776341" lon="17.7118978">
        <ele>54.4518</ele>
        <time>2014-06-01T11:49:15Z</time>
      </trkpt>
      <trkpt lat="59.7776147" lon="17.7119007">
        <ele>54.4518</ele>
        <time>2014-06-01T11:49:16Z</time>
      </trkpt>
      <trkpt lat="59.7775989" lon="17.7119122">
        <ele>54.9324</ele>
        <time>2014-06-01T11:49:17Z</time>
      </trkpt>
      <trkpt lat="59.7775799" lon="17.7119279">
        <ele>54.4518</ele>
        <time>2014-06-01T11:49:18Z</time>
      </trkpt>
      <trkpt lat="59.777558" lon="17.711949">
        <ele>54.4518</ele>
        <time>2014-06-01T11:49:19Z</time>
      </trkpt>
      <trkpt lat="59.7775369" lon="17.7119718">
        <ele>53.9712</ele>
        <time>2014-06-01T11:49:20Z</time>
      </trkpt>
      <trkpt lat="59.7775173" lon="17.7119992">
        <ele>54.4518</ele>
        <time>2014-06-01T11:49:21Z</time>
      </trkpt>
      <trkpt lat="59.777496" lon="17.7120184">
        <ele>53.9712</ele>
        <time>2014-06-01T11:49:22Z</time>
      </trkpt>
      <trkpt lat="59.7774761" lon="17.7120391">
        <ele>53.9712</ele>
        <time>2014-06-01T11:49:23Z</time>
      </trkpt>
      <trkpt lat="59.7774583" lon="17.7120556">
        <ele>53.4905</ele>
        <time>2014-06-01T11:49:24Z</time>
      </trkpt>
      <trkpt lat="59.7774416" lon="17.7120722">
        <ele>53.4905</ele>
        <time>2014-06-01T11:49:25Z</time>
      </trkpt>
      <trkpt lat="59.7774359" lon="17.7120898">
        <ele>53.0098</ele>
        <time>2014-06-01T11:49:26Z</time>
      </trkpt>
      <trkpt lat="59.7774353" lon="17.7121206">
        <ele>53.0098</ele>
        <time>2014-06-01T11:49:27Z</time>
      </trkpt>
      <trkpt lat="59.7774307" lon="17.7121645">
        <ele>52.5292</ele>
        <time>2014-06-01T11:49:28Z</time>
      </trkpt>
      <trkpt lat="59.7774243" lon="17.7122085">
        <ele>52.0486</ele>
        <time>2014-06-01T11:49:29Z</time>
      </trkpt>
      <trkpt lat="59.7774157" lon="17.712242">
        <ele>51.5679</ele>
        <time>2014-06-01T11:49:30Z</time>
      </trkpt>
      <trkpt lat="59.7774057" lon="17.7122592">
        <ele>51.0872</ele>
        <time>2014-06-01T11:49:31Z</time>
      </trkpt>
      <trkpt lat="59.7773976" lon="17.7122656">
        <ele>51.0872</ele>
        <time>2014-06-01T11:49:32Z</time>
      </trkpt>
      <trkpt lat="59.7773891" lon="17.7122684">
        <ele>50.6066</ele>
        <time>2014-06-01T11:49:33Z</time>
      </trkpt>
      <trkpt lat="59.7773753" lon="17.7122754">
        <ele>51.5679</ele>
        <time>2014-06-01T11:49:34Z</time>
      </trkpt>
      <trkpt lat="59.7773603" lon="17.7122813">
        <ele>51.5679</ele>
        <time>2014-06-01T11:49:35Z</time>
      </trkpt>
      <trkpt lat="59.7773421" lon="17.7122891">
        <ele>52.0486</ele>
        <time>2014-06-01T11:49:36Z</time>
      </trkpt>
      <trkpt lat="59.7773224" lon="17.7122887">
        <ele>52.5292</ele>
        <time>2014-06-01T11:49:37Z</time>
      </trkpt>
      <trkpt lat="59.7773027" lon="17.7122946">
        <ele>52.5292</ele>
        <time>2014-06-01T11:49:38Z</time>
      </trkpt>
      <trkpt lat="59.7772825" lon="17.712305">
        <ele>53.0098</ele>
        <time>2014-06-01T11:49:39Z</time>
      </trkpt>
      <trkpt lat="59.7772596" lon="17.7123208">
        <ele>53.0098</ele>
        <time>2014-06-01T11:49:40Z</time>
      </trkpt>
      <trkpt lat="59.7772402" lon="17.7123361">
        <ele>53.0098</ele>
        <time>2014-06-01T11:49:41Z</time>
      </trkpt>
      <trkpt lat="59.7772236" lon="17.7123497">
        <ele>53.0098</ele>
        <time>2014-06-01T11:49:42Z</time>
      </trkpt>
      <trkpt lat="59.7772069" lon="17.7123591">
        <ele>53.0098</ele>
        <time>2014-06-01T11:49:43Z</time>
      </trkpt>
      <trkpt lat="59.7771901" lon="17.7123684">
        <ele>53.0098</ele>
        <time>2014-06-01T11:49:44Z</time>
      </trkpt>
      <trkpt lat="59.7771775" lon="17.7123774">
        <ele>53.4905</ele>
        <time>2014-06-01T11:49:45Z</time>
      </trkpt>
      <trkpt lat="59.777165" lon="17.7123919">
        <ele>53.4905</ele>
        <time>2014-06-01T11:49:46Z</time>
      </trkpt>
      <trkpt lat="59.7771566" lon="17.7124112">
        <ele>53.0098</ele>
        <time>2014-06-01T11:49:47Z</time>
      </trkpt>
      <trkpt lat="59.7771525" lon="17.7124411">
        <ele>53.0098</ele>
        <time>2014-06-01T11:49:48Z</time>
      </trkpt>
      <trkpt lat="59.7771454" lon="17.7124737">
        <ele>52.5292</ele>
        <time>2014-06-01T11:49:49Z</time>
      </trkpt>
      <trkpt lat="59.777136" lon="17.7124987">
        <ele>52.5292</ele>
        <time>2014-06-01T11:49:50Z</time>
      </trkpt>
      <trkpt lat="59.7771272" lon="17.712512">
        <ele>52.5292</ele>
        <time>2014-06-01T11:49:51Z</time>
      </trkpt>
      <trkpt lat="59.7771183" lon="17.7125219">
        <ele>52.0486</ele>
        <time>2014-06-01T11:49:52Z</time>
      </trkpt>
      <trkpt lat="59.7771084" lon="17.7125336">
        <ele>52.0486</ele>
        <time>2014-06-01T11:49:53Z</time>
      </trkpt>
      <trkpt lat="59.7770988" lon="17.7125531">
        <ele>51.5679</ele>
        <time>2014-06-01T11:49:54Z</time>
      </trkpt>
      <trkpt lat="59.7770872" lon="17.7125887">
        <ele>51.5679</ele>
        <time>2014-06-01T11:49:55Z</time>
      </trkpt>
      <trkpt lat="59.7770789" lon="17.7126256">
        <ele>52.0486</ele>
        <time>2014-06-01T11:49:56Z</time>
      </trkpt>
      <trkpt lat="59.7770702" lon="17.7126566">
        <ele>52.0486</ele>
        <time>2014-06-01T11:49:57Z</time>
      </trkpt>
      <trkpt lat="59.7770624" lon="17.7126916">
        <ele>52.5292</ele>
        <time>2014-06-01T11:49:58Z</time>
      </trkpt>
      <trkpt lat="59.7770562" lon="17.7127301">
        <ele>53.0098</ele>
        <time>2014-06-01T11:49:59Z</time>
      </trkpt>
      <trkpt lat="59.7770413" lon="17.7127655">
        <ele>53.9712</ele>
        <time>2014-06-01T11:50:00Z</time>
      </trkpt>
      <trkpt lat="59.7770244" lon="17.7127892">
        <ele>53.9712</ele>
        <time>2014-06-01T11:50:01Z</time>
      </trkpt>
      <trkpt lat="59.7770088" lon="17.7128225">
        <ele>53.9712</ele>
        <time>2014-06-01T11:50:02Z</time>
      </trkpt>
      <trkpt lat="59.776992" lon="17.7128539">
        <ele>53.9712</ele>
        <time>2014-06-01T11:50:03Z</time>
      </trkpt>
      <trkpt lat="59.7769744" lon="17.712883">
        <ele>53.4905</ele>
        <time>2014-06-01T11:50:04Z</time>
      </trkpt>
      <trkpt lat="59.7769555" lon="17.7129047">
        <ele>53.4905</ele>
        <time>2014-06-01T11:50:05Z</time>
      </trkpt>
      <trkpt lat="59.7769364" lon="17.7129165">
        <ele>53.4905</ele>
        <time>2014-06-01T11:50:06Z</time>
      </trkpt>
      <trkpt lat="59.7769166" lon="17.7129211">
        <ele>54.4518</ele>
        <time>2014-06-01T11:50:07Z</time>
      </trkpt>
      <trkpt lat="59.7769049" lon="17.712915">
        <ele>54.4518</ele>
        <time>2014-06-01T11:50:08Z</time>
      </trkpt>
      <trkpt lat="59.7768962" lon="17.7129047">
        <ele>55.4131</ele>
        <time>2014-06-01T11:50:09Z</time>
      </trkpt>
      <trkpt lat="59.7768876" lon="17.7128881">
        <ele>55.4131</ele>
        <time>2014-06-01T11:50:10Z</time>
      </trkpt>
      <trkpt lat="59.7768816" lon="17.71287">
        <ele>55.4131</ele>
        <time>2014-06-01T11:50:11Z</time>
      </trkpt>
      <trkpt lat="59.7768795" lon="17.7128524">
        <ele>55.4131</ele>
        <time>2014-06-01T11:50:12Z</time>
      </trkpt>
      <trkpt lat="59.776879" lon="17.7128337">
        <ele>55.4131</ele>
        <time>2014-06-01T11:50:13Z</time>
      </trkpt>
      <trkpt lat="59.7768771" lon="17.7128198">
        <ele>55.4131</ele>
        <time>2014-06-01T11:50:14Z</time>
      </trkpt>
      <trkpt lat="59.7768738" lon="17.7128136">
        <ele>55.4131</ele>
        <time>2014-06-01T11:50:15Z</time>
      </trkpt>
      <trkpt lat="59.7768688" lon="17.7128125">
        <ele>55.4131</ele>
        <time>2014-06-01T11:50:16Z</time>
      </trkpt>
      <trkpt lat="59.7768661" lon="17.7128135">
        <ele>54.9324</ele>
        <time>2014-06-01T11:50:17Z</time>
      </trkpt>
      <trkpt lat="59.7768645" lon="17.7128188">
        <ele>54.9324</ele>
        <time>2014-06-01T11:50:18Z</time>
      </trkpt>
      <trkpt lat="59.7766629" lon="17.7132144">
        <ele>47.7225</ele>
        <time>2014-06-01T11:50:52Z</time>
      </trkpt>
      <trkpt lat="59.7766527" lon="17.7132464">
        <ele>49.1646</ele>
        <time>2014-06-01T11:50:53Z</time>
      </trkpt>
      <trkpt lat="59.7766476" lon="17.7132632">
        <ele>48.684</ele>
        <time>2014-06-01T11:50:54Z</time>
      </trkpt>
      <trkpt lat="59.7766375" lon="17.7132882">
        <ele>50.126</ele>
        <time>2014-06-01T11:50:55Z</time>
      </trkpt>
      <trkpt lat="59.776634" lon="17.713298">
        <ele>50.126</ele>
        <time>2014-06-01T11:50:56Z</time>
      </trkpt>
      <trkpt lat="59.7766273" lon="17.713308">
        <ele>50.126</ele>
        <time>2014-06-01T11:50:57Z</time>
      </trkpt>
      <trkpt lat="59.7766164" lon="17.7133186">
        <ele>49.6453</ele>
        <time>2014-06-01T11:50:58Z</time>
      </trkpt>
      <trkpt lat="59.7766041" lon="17.7133285">
        <ele>49.6453</ele>
        <time>2014-06-01T11:50:59Z</time>
      </trkpt>
      <trkpt lat="59.7765913" lon="17.7133387">
        <ele>50.126</ele>
        <time>2014-06-01T11:51:00Z</time>
      </trkpt>
      <trkpt lat="59.7765775" lon="17.7133534">
        <ele>50.126</ele>
        <time>2014-06-01T11:51:01Z</time>
      </trkpt>
      <trkpt lat="59.7765625" lon="17.7133674">
        <ele>50.6066</ele>
        <time>2014-06-01T11:51:02Z</time>
      </trkpt>
      <trkpt lat="59.7765448" lon="17.7133761">
        <ele>50.6066</ele>
        <time>2014-06-01T11:51:03Z</time>
      </trkpt>
      <trkpt lat="59.7765283" lon="17.7133782">
        <ele>50.6066</ele>
        <time>2014-06-01T11:51:04Z</time>
      </trkpt>
      <trkpt lat="59.7765133" lon="17.7133788">
        <ele>51.0872</ele>
        <time>2014-06-01T11:51:05Z</time>
      </trkpt>
      <trkpt lat="59.7765009" lon="17.7133775">
        <ele>51.5679</ele>
        <time>2014-06-01T11:51:06Z</time>
      </trkpt>
      <trkpt lat="59.7764904" lon="17.7133724">
        <ele>51.5679</ele>
        <time>2014-06-01T11:51:07Z</time>
      </trkpt>
      <trkpt lat="59.7764807" lon="17.7133663">
        <ele>51.0872</ele>
        <time>2014-06-01T11:51:08Z</time>
      </trkpt>
      <trkpt lat="59.7764709" lon="17.7133588">
        <ele>51.0872</ele>
        <time>2014-06-01T11:51:09Z</time>
      </trkpt>
      <trkpt lat="59.7764605" lon="17.7133481">
        <ele>51.0872</ele>
        <time>2014-06-01T11:51:10Z</time>
      </trkpt>
      <trkpt lat="59.776447" lon="17.7133355">
        <ele>51.0872</ele>
        <time>2014-06-01T11:51:11Z</time>
      </trkpt>
      <trkpt lat="59.7764252" lon="17.7133155">
        <ele>51.5679</ele>
        <time>2014-06-01T11:51:12Z</time>
      </trkpt>
      <trkpt lat="59.7764041" lon="17.7132944">
        <ele>51.5679</ele>
        <time>2014-06-01T11:51:13Z</time>
      </trkpt>
      <trkpt lat="59.7763848" lon="17.7132744">
        <ele>51.5679</ele>
        <time>2014-06-01T11:51:14Z</time>
      </trkpt>
      <trkpt lat="59.7763657" lon="17.7132523">
        <ele>52.0486</ele>
        <time>2014-06-01T11:51:15Z</time>
      </trkpt>
      <trkpt lat="59.7763475" lon="17.713227">
        <ele>52.5292</ele>
        <time>2014-06-01T11:51:16Z</time>
      </trkpt>
      <trkpt lat="59.7763342" lon="17.7132015">
        <ele>52.5292</ele>
        <time>2014-06-01T11:51:17Z</time>
      </trkpt>
      <trkpt lat="59.7763246" lon="17.7131725">
        <ele>52.5292</ele>
        <time>2014-06-01T11:51:18Z</time>
      </trkpt>
      <trkpt lat="59.7763122" lon="17.7131402">
        <ele>53.0098</ele>
        <time>2014-06-01T11:51:19Z</time>
      </trkpt>
      <trkpt lat="59.7762989" lon="17.7131133">
        <ele>53.0098</ele>
        <time>2014-06-01T11:51:20Z</time>
      </trkpt>
      <trkpt lat="59.776287" lon="17.7130912">
        <ele>53.0098</ele>
        <time>2014-06-01T11:51:21Z</time>
      </trkpt>
      <trkpt lat="59.7762755" lon="17.7130737">
        <ele>53.0098</ele>
        <time>2014-06-01T11:51:22Z</time>
      </trkpt>
      <trkpt lat="59.7762625" lon="17.7130504">
        <ele>53.4905</ele>
        <time>2014-06-01T11:51:23Z</time>
      </trkpt>
      <trkpt lat="59.7762526" lon="17.7130197">
        <ele>53.4905</ele>
        <time>2014-06-01T11:51:24Z</time>
      </trkpt>
      <trkpt lat="59.7762444" lon="17.7129866">
        <ele>53.9712</ele>
        <time>2014-06-01T11:51:25Z</time>
      </trkpt>
      <trkpt lat="59.7762313" lon="17.7129577">
        <ele>54.4518</ele>
        <time>2014-06-01T11:51:26Z</time>
      </trkpt>
      <trkpt lat="59.7762166" lon="17.7129462">
        <ele>53.9712</ele>
        <time>2014-06-01T11:51:27Z</time>
      </trkpt>
      <trkpt lat="59.7762064" lon="17.7129544">
        <ele>53.9712</ele>
        <time>2014-06-01T11:51:28Z</time>
      </trkpt>
      <trkpt lat="59.776195" lon="17.712967">
        <ele>53.9712</ele>
        <time>2014-06-01T11:51:29Z</time>
      </trkpt>
      <trkpt lat="59.7761828" lon="17.7129827">
        <ele>53.9712</ele>
        <time>2014-06-01T11:51:30Z</time>
      </trkpt>
      <trkpt lat="59.7761728" lon="17.7129933">
        <ele>53.4905</ele>
        <time>2014-06-01T11:51:31Z</time>
      </trkpt>
      <trkpt lat="59.7761631" lon="17.712997">
        <ele>53.0098</ele>
        <time>2014-06-01T11:51:32Z</time>
      </trkpt>
      <trkpt lat="59.7761575" lon="17.7129974">
        <ele>53.0098</ele>
        <time>2014-06-01T11:51:33Z</time>
      </trkpt>
      <trkpt lat="59.7761501" lon="17.7129959">
        <ele>53.0098</ele>
        <time>2014-06-01T11:51:34Z</time>
      </trkpt>
      <trkpt lat="59.7761378" lon="17.7129924">
        <ele>53.4905</ele>
        <time>2014-06-01T11:51:35Z</time>
      </trkpt>
      <trkpt lat="59.7761253" lon="17.7129885">
        <ele>53.4905</ele>
        <time>2014-06-01T11:51:36Z</time>
      </trkpt>
      <trkpt lat="59.7761135" lon="17.7129903">
        <ele>53.4905</ele>
        <time>2014-06-01T11:51:37Z</time>
      </trkpt>
      <trkpt lat="59.7760982" lon="17.7130043">
        <ele>53.9712</ele>
        <time>2014-06-01T11:51:38Z</time>
      </trkpt>
      <trkpt lat="59.7760869" lon="17.7130197">
        <ele>54.4518</ele>
        <time>2014-06-01T11:51:39Z</time>
      </trkpt>
      <trkpt lat="59.7760734" lon="17.7130285">
        <ele>54.9324</ele>
        <time>2014-06-01T11:51:40Z</time>
      </trkpt>
      <trkpt lat="59.7760554" lon="17.7130222">
        <ele>54.9324</ele>
        <time>2014-06-01T11:51:41Z</time>
      </trkpt>
      <trkpt lat="59.7760376" lon="17.7130022">
        <ele>54.9324</ele>
        <time>2014-06-01T11:51:42Z</time>
      </trkpt>
      <trkpt lat="59.7760243" lon="17.7129767">
        <ele>55.4131</ele>
        <time>2014-06-01T11:51:43Z</time>
      </trkpt>
      <trkpt lat="59.776015" lon="17.7129507">
        <ele>55.4131</ele>
        <time>2014-06-01T11:51:44Z</time>
      </trkpt>
      <trkpt lat="59.7760068" lon="17.7129289">
        <ele>55.4131</ele>
        <time>2014-06-01T11:51:45Z</time>
      </trkpt>
      <trkpt lat="59.7759978" lon="17.7129192">
        <ele>54.9324</ele>
        <time>2014-06-01T11:51:46Z</time>
      </trkpt>
      <trkpt lat="59.775989" lon="17.7129208">
        <ele>54.9324</ele>
        <time>2014-06-01T11:51:47Z</time>
      </trkpt>
      <trkpt lat="59.7759804" lon="17.7129239">
        <ele>54.4518</ele>
        <time>2014-06-01T11:51:48Z</time>
      </trkpt>
      <trkpt lat="59.775969" lon="17.7129223">
        <ele>54.4518</ele>
        <time>2014-06-01T11:51:49Z</time>
      </trkpt>
      <trkpt lat="59.7759549" lon="17.712912">
        <ele>54.4518</ele>
        <time>2014-06-01T11:51:50Z</time>
      </trkpt>
      <trkpt lat="59.7759384" lon="17.712897">
        <ele>54.4518</ele>
        <time>2014-06-01T11:51:51Z</time>
      </trkpt>
      <trkpt lat="59.77593" lon="17.7128881">
        <ele>54.4518</ele>
        <time>2014-06-01T11:51:52Z</time>
      </trkpt>
      <trkpt lat="59.7759222" lon="17.712887">
        <ele>53.9712</ele>
        <time>2014-06-01T11:51:53Z</time>
      </trkpt>
      <trkpt lat="59.7759067" lon="17.7128856">
        <ele>53.9712</ele>
        <time>2014-06-01T11:51:54Z</time>
      </trkpt>
      <trkpt lat="59.7758876" lon="17.7128845">
        <ele>53.4905</ele>
        <time>2014-06-01T11:51:55Z</time>
      </trkpt>
      <trkpt lat="59.7758674" lon="17.7128879">
        <ele>53.4905</ele>
        <time>2014-06-01T11:51:56Z</time>
      </trkpt>
      <trkpt lat="59.7758501" lon="17.7128872">
        <ele>53.4905</ele>
        <time>2014-06-01T11:51:57Z</time>
      </trkpt>
      <trkpt lat="59.7758309" lon="17.7128872">
        <ele>53.4905</ele>
        <time>2014-06-01T11:51:58Z</time>
      </trkpt>
      <trkpt lat="59.775815" lon="17.7128969">
        <ele>53.0098</ele>
        <time>2014-06-01T11:51:59Z</time>
      </trkpt>
      <trkpt lat="59.7758073" lon="17.7129131">
        <ele>52.5292</ele>
        <time>2014-06-01T11:52:00Z</time>
      </trkpt>
      <trkpt lat="59.7757963" lon="17.7129312">
        <ele>52.5292</ele>
        <time>2014-06-01T11:52:01Z</time>
      </trkpt>
      <trkpt lat="59.7757818" lon="17.7129499">
        <ele>52.0486</ele>
        <time>2014-06-01T11:52:02Z</time>
      </trkpt>
      <trkpt lat="59.7757731" lon="17.7129581">
        <ele>52.5292</ele>
        <time>2014-06-01T11:52:03Z</time>
      </trkpt>
      <trkpt lat="59.7757646" lon="17.7129633">
        <ele>53.0098</ele>
        <time>2014-06-01T11:52:04Z</time>
      </trkpt>
      <trkpt lat="59.7757513" lon="17.712967">
        <ele>52.5292</ele>
        <time>2014-06-01T11:52:05Z</time>
      </trkpt>
      <trkpt lat="59.7757385" lon="17.7129791">
        <ele>53.0098</ele>
        <time>2014-06-01T11:52:06Z</time>
      </trkpt>
      <trkpt lat="59.7757285" lon="17.7129937">
        <ele>53.0098</ele>
        <time>2014-06-01T11:52:07Z</time>
      </trkpt>
      <trkpt lat="59.7757154" lon="17.7130068">
        <ele>53.4905</ele>
        <time>2014-06-01T11:52:08Z</time>
      </trkpt>
      <trkpt lat="59.7756989" lon="17.7130135">
        <ele>53.4905</ele>
        <time>2014-06-01T11:52:09Z</time>
      </trkpt>
      <trkpt lat="59.7756813" lon="17.7130151">
        <ele>53.4905</ele>
        <time>2014-06-01T11:52:10Z</time>
      </trkpt>
      <trkpt lat="59.7756651" lon="17.7130117">
        <ele>53.4905</ele>
        <time>2014-06-01T11:52:11Z</time>
      </trkpt>
      <trkpt lat="59.7756502" lon="17.7129981">
        <ele>53.9712</ele>
        <time>2014-06-01T11:52:12Z</time>
      </trkpt>
      <trkpt lat="59.7756279" lon="17.7129846">
        <ele>54.4518</ele>
        <time>2014-06-01T11:52:13Z</time>
      </trkpt>
      <trkpt lat="59.7756094" lon="17.7129774">
        <ele>54.4518</ele>
        <time>2014-06-01T11:52:14Z</time>
      </trkpt>
      <trkpt lat="59.775595" lon="17.712984">
        <ele>54.4518</ele>
        <time>2014-06-01T11:52:15Z</time>
      </trkpt>
      <trkpt lat="59.7755833" lon="17.713001">
        <ele>54.4518</ele>
        <time>2014-06-01T11:52:16Z</time>
      </trkpt>
      <trkpt lat="59.7755711" lon="17.7130207">
        <ele>54.4518</ele>
        <time>2014-06-01T11:52:17Z</time>
      </trkpt>
      <trkpt lat="59.7755623" lon="17.7130399">
        <ele>54.9324</ele>
        <time>2014-06-01T11:52:18Z</time>
      </trkpt>
      <trkpt lat="59.775555" lon="17.7130695">
        <ele>54.9324</ele>
        <time>2014-06-01T11:52:19Z</time>
      </trkpt>
      <trkpt lat="59.7755476" lon="17.7131069">
        <ele>55.4131</ele>
        <time>2014-06-01T11:52:20Z</time>
      </trkpt>
      <trkpt lat="59.7755405" lon="17.7131433">
        <ele>55.4131</ele>
        <time>2014-06-01T11:52:21Z</time>
      </trkpt>
      <trkpt lat="59.7755278" lon="17.7131772">
        <ele>56.3745</ele>
        <time>2014-06-01T11:52:22Z</time>
      </trkpt>
      <trkpt lat="59.7755182" lon="17.7131887">
        <ele>55.8938</ele>
        <time>2014-06-01T11:52:23Z</time>
      </trkpt>
      <trkpt lat="59.7755116" lon="17.7131915">
        <ele>55.8938</ele>
        <time>2014-06-01T11:52:24Z</time>
      </trkpt>
      <trkpt lat="59.7755033" lon="17.7131907">
        <ele>55.4131</ele>
        <time>2014-06-01T11:52:25Z</time>
      </trkpt>
      <trkpt lat="59.7754892" lon="17.7131884">
        <ele>56.3745</ele>
        <time>2014-06-01T11:52:26Z</time>
      </trkpt>
      <trkpt lat="59.775484" lon="17.7131725">
        <ele>56.3745</ele>
        <time>2014-06-01T11:52:27Z</time>
      </trkpt>
      <trkpt lat="59.7754808" lon="17.7131632">
        <ele>56.3745</ele>
        <time>2014-06-01T11:52:28Z</time>
      </trkpt>
      <trkpt lat="59.7754787" lon="17.7131617">
        <ele>56.8551</ele>
        <time>2014-06-01T11:52:29Z</time>
      </trkpt>
      <trkpt lat="59.7754659" lon="17.7131513">
        <ele>56.3745</ele>
        <time>2014-06-01T11:52:30Z</time>
      </trkpt>
      <trkpt lat="59.775458" lon="17.713158">
        <ele>56.8551</ele>
        <time>2014-06-01T11:52:31Z</time>
      </trkpt>
      <trkpt lat="59.7754576" lon="17.7131596">
        <ele>56.8551</ele>
        <time>2014-06-01T11:52:32Z</time>
      </trkpt>
      <trkpt lat="59.7754556" lon="17.7131765">
        <ele>58.2971</ele>
        <time>2014-06-01T11:52:33Z</time>
      </trkpt>
      <trkpt lat="59.7754543" lon="17.713185">
        <ele>58.7777</ele>
        <time>2014-06-01T11:52:34Z</time>
      </trkpt>
      <trkpt lat="59.7754535" lon="17.7131892">
        <ele>59.7391</ele>
        <time>2014-06-01T11:52:35Z</time>
      </trkpt>
      <trkpt lat="59.775451" lon="17.7131785">
        <ele>59.2584</ele>
        <time>2014-06-01T11:52:36Z</time>
      </trkpt>
      <trkpt lat="59.7754487" lon="17.7131662">
        <ele>58.2971</ele>
        <time>2014-06-01T11:52:37Z</time>
      </trkpt>
      <trkpt lat="59.7754462" lon="17.7131592">
        <ele>57.3358</ele>
        <time>2014-06-01T11:52:38Z</time>
      </trkpt>
      <trkpt lat="59.7754432" lon="17.7131561">
        <ele>57.3358</ele>
        <time>2014-06-01T11:52:39Z</time>
      </trkpt>
      <trkpt lat="59.7754369" lon="17.7131501">
        <ele>56.8551</ele>
        <time>2014-06-01T11:52:40Z</time>
      </trkpt>
      <trkpt lat="59.7754354" lon="17.7131528">
        <ele>57.3358</ele>
        <time>2014-06-01T11:52:41Z</time>
      </trkpt>
      <trkpt lat="59.7754375" lon="17.713156">
        <ele>58.7777</ele>
        <time>2014-06-01T11:52:42Z</time>
      </trkpt>
      <trkpt lat="59.7753187" lon="17.7133062">
        <ele>57.8165</ele>
        <time>2014-06-01T11:53:13Z</time>
      </trkpt>
      <trkpt lat="59.7753125" lon="17.7133402">
        <ele>57.8165</ele>
        <time>2014-06-01T11:53:14Z</time>
      </trkpt>
      <trkpt lat="59.7753067" lon="17.7133771">
        <ele>57.8165</ele>
        <time>2014-06-01T11:53:15Z</time>
      </trkpt>
      <trkpt lat="59.775295" lon="17.7134142">
        <ele>57.8165</ele>
        <time>2014-06-01T11:53:16Z</time>
      </trkpt>
      <trkpt lat="59.7752819" lon="17.7134471">
        <ele>57.8165</ele>
        <time>2014-06-01T11:53:17Z</time>
      </trkpt>
      <trkpt lat="59.7752722" lon="17.7134683">
        <ele>57.3358</ele>
        <time>2014-06-01T11:53:18Z</time>
      </trkpt>
      <trkpt lat="59.7752607" lon="17.7134816">
        <ele>57.3358</ele>
        <time>2014-06-01T11:53:19Z</time>
      </trkpt>
      <trkpt lat="59.775246" lon="17.7134888">
        <ele>57.3358</ele>
        <time>2014-06-01T11:53:20Z</time>
      </trkpt>
      <trkpt lat="59.7752353" lon="17.7134972">
        <ele>57.8165</ele>
        <time>2014-06-01T11:53:21Z</time>
      </trkpt>
      <trkpt lat="59.7752241" lon="17.7135092">
        <ele>57.3358</ele>
        <time>2014-06-01T11:53:22Z</time>
      </trkpt>
      <trkpt lat="59.7752069" lon="17.7135212">
        <ele>57.3358</ele>
        <time>2014-06-01T11:53:23Z</time>
      </trkpt>
      <trkpt lat="59.7751888" lon="17.7135329">
        <ele>56.8551</ele>
        <time>2014-06-01T11:53:24Z</time>
      </trkpt>
      <trkpt lat="59.775171" lon="17.7135517">
        <ele>56.3745</ele>
        <time>2014-06-01T11:53:25Z</time>
      </trkpt>
      <trkpt lat="59.7751526" lon="17.7135738">
        <ele>55.8938</ele>
        <time>2014-06-01T11:53:26Z</time>
      </trkpt>
      <trkpt lat="59.7751354" lon="17.7135881">
        <ele>54.9324</ele>
        <time>2014-06-01T11:53:27Z</time>
      </trkpt>
      <trkpt lat="59.7751244" lon="17.7136033">
        <ele>54.4518</ele>
        <time>2014-06-01T11:53:28Z</time>
      </trkpt>
      <trkpt lat="59.7751179" lon="17.7136197">
        <ele>53.9712</ele>
        <time>2014-06-01T11:53:29Z</time>
      </trkpt>
      <trkpt lat="59.7751147" lon="17.7136399">
        <ele>53.4905</ele>
        <time>2014-06-01T11:53:30Z</time>
      </trkpt>
      <trkpt lat="59.7751126" lon="17.7136688">
        <ele>53.0098</ele>
        <time>2014-06-01T11:53:31Z</time>
      </trkpt>
      <trkpt lat="59.7751063" lon="17.7137038">
        <ele>53.0098</ele>
        <time>2014-06-01T11:53:32Z</time>
      </trkpt>
      <trkpt lat="59.7750964" lon="17.7137297">
        <ele>52.5292</ele>
        <time>2014-06-01T11:53:33Z</time>
      </trkpt>
      <trkpt lat="59.7750866" lon="17.7137445">
        <ele>52.0486</ele>
        <time>2014-06-01T11:53:34Z</time>
      </trkpt>
      <trkpt lat="59.7750751" lon="17.71376">
        <ele>52.0486</ele>
        <time>2014-06-01T11:53:35Z</time>
      </trkpt>
      <trkpt lat="59.7750582" lon="17.7137772">
        <ele>53.4905</ele>
        <time>2014-06-01T11:53:36Z</time>
      </trkpt>
      <trkpt lat="59.775042" lon="17.7137926">
        <ele>54.9324</ele>
        <time>2014-06-01T11:53:37Z</time>
      </trkpt>
      <trkpt lat="59.7750264" lon="17.7137988">
        <ele>54.9324</ele>
        <time>2014-06-01T11:53:38Z</time>
      </trkpt>
      <trkpt lat="59.7750157" lon="17.7138143">
        <ele>54.9324</ele>
        <time>2014-06-01T11:53:39Z</time>
      </trkpt>
      <trkpt lat="59.7750142" lon="17.7138304">
        <ele>54.9324</ele>
        <time>2014-06-01T11:53:40Z</time>
      </trkpt>
      <trkpt lat="59.7750176" lon="17.7138507">
        <ele>54.4518</ele>
        <time>2014-06-01T11:53:41Z</time>
      </trkpt>
      <trkpt lat="59.7750102" lon="17.7138965">
        <ele>55.4131</ele>
        <time>2014-06-01T11:53:42Z</time>
      </trkpt>
      <trkpt lat="59.7750028" lon="17.7139485">
        <ele>56.3745</ele>
        <time>2014-06-01T11:53:43Z</time>
      </trkpt>
      <trkpt lat="59.7750058" lon="17.713995">
        <ele>56.8551</ele>
        <time>2014-06-01T11:53:44Z</time>
      </trkpt>
      <trkpt lat="59.7750126" lon="17.7140379">
        <ele>56.3745</ele>
        <time>2014-06-01T11:53:45Z</time>
      </trkpt>
      <trkpt lat="59.7750235" lon="17.7140827">
        <ele>56.3745</ele>
        <time>2014-06-01T11:53:46Z</time>
      </trkpt>
      <trkpt lat="59.7750261" lon="17.7141304">
        <ele>56.3745</ele>
        <time>2014-06-01T11:53:47Z</time>
      </trkpt>
      <trkpt lat="59.7750282" lon="17.7141726">
        <ele>55.8938</ele>
        <time>2014-06-01T11:53:48Z</time>
      </trkpt>
      <trkpt lat="59.7750238" lon="17.7142113">
        <ele>55.4131</ele>
        <time>2014-06-01T11:53:49Z</time>
      </trkpt>
      <trkpt lat="59.7750131" lon="17.7142577">
        <ele>54.9324</ele>
        <time>2014-06-01T11:53:50Z</time>
      </trkpt>
      <trkpt lat="59.7750003" lon="17.7142933">
        <ele>54.4518</ele>
        <time>2014-06-01T11:53:51Z</time>
      </trkpt>
      <trkpt lat="59.7749728" lon="17.7143344">
        <ele>55.8938</ele>
        <time>2014-06-01T11:53:52Z</time>
      </trkpt>
      <trkpt lat="59.774951" lon="17.7143598">
        <ele>55.4131</ele>
        <time>2014-06-01T11:53:53Z</time>
      </trkpt>
      <trkpt lat="59.7749251" lon="17.71438">
        <ele>54.9324</ele>
        <time>2014-06-01T11:53:54Z</time>
      </trkpt>
      <trkpt lat="59.7748935" lon="17.7143866">
        <ele>53.9712</ele>
        <time>2014-06-01T11:53:55Z</time>
      </trkpt>
      <trkpt lat="59.774865" lon="17.7143956">
        <ele>53.9712</ele>
        <time>2014-06-01T11:53:56Z</time>
      </trkpt>
      <trkpt lat="59.7748382" lon="17.7144163">
        <ele>54.4518</ele>
        <time>2014-06-01T11:53:57Z</time>
      </trkpt>
      <trkpt lat="59.7748172" lon="17.7144432">
        <ele>54.9324</ele>
        <time>2014-06-01T11:53:58Z</time>
      </trkpt>
      <trkpt lat="59.7747959" lon="17.7144743">
        <ele>55.4131</ele>
        <time>2014-06-01T11:53:59Z</time>
      </trkpt>
      <trkpt lat="59.7747793" lon="17.7144995">
        <ele>55.4131</ele>
        <time>2014-06-01T11:54:00Z</time>
      </trkpt>
      <trkpt lat="59.7747656" lon="17.7145235">
        <ele>54.9324</ele>
        <time>2014-06-01T11:54:01Z</time>
      </trkpt>
      <trkpt lat="59.7747537" lon="17.7145497">
        <ele>54.9324</ele>
        <time>2014-06-01T11:54:02Z</time>
      </trkpt>
      <trkpt lat="59.7747407" lon="17.7145818">
        <ele>54.9324</ele>
        <time>2014-06-01T11:54:03Z</time>
      </trkpt>
      <trkpt lat="59.7747291" lon="17.7146147">
        <ele>55.4131</ele>
        <time>2014-06-01T11:54:04Z</time>
      </trkpt>
      <trkpt lat="59.7747112" lon="17.7146505">
        <ele>55.4131</ele>
        <time>2014-06-01T11:54:05Z</time>
      </trkpt>
      <trkpt lat="59.7746924" lon="17.7146681">
        <ele>54.9324</ele>
        <time>2014-06-01T11:54:06Z</time>
      </trkpt>
      <trkpt lat="59.7746728" lon="17.7146761">
        <ele>54.4518</ele>
        <time>2014-06-01T11:54:07Z</time>
      </trkpt>
      <trkpt lat="59.7746583" lon="17.7146804">
        <ele>54.4518</ele>
        <time>2014-06-01T11:54:08Z</time>
      </trkpt>
      <trkpt lat="59.7746423" lon="17.7146899">
        <ele>53.9712</ele>
        <time>2014-06-01T11:54:09Z</time>
      </trkpt>
      <trkpt lat="59.7746255" lon="17.7146909">
        <ele>53.4905</ele>
        <time>2014-06-01T11:54:10Z</time>
      </trkpt>
      <trkpt lat="59.7746107" lon="17.7146872">
        <ele>53.0098</ele>
        <time>2014-06-01T11:54:11Z</time>
      </trkpt>
      <trkpt lat="59.774597" lon="17.714682">
        <ele>53.4905</ele>
        <time>2014-06-01T11:54:12Z</time>
      </trkpt>
      <trkpt lat="59.774577" lon="17.7146779">
        <ele>53.4905</ele>
        <time>2014-06-01T11:54:13Z</time>
      </trkpt>
      <trkpt lat="59.7745558" lon="17.7146748">
        <ele>53.0098</ele>
        <time>2014-06-01T11:54:14Z</time>
      </trkpt>
      <trkpt lat="59.7745334" lon="17.7146756">
        <ele>53.0098</ele>
        <time>2014-06-01T11:54:15Z</time>
      </trkpt>
      <trkpt lat="59.774506" lon="17.7146815">
        <ele>52.5292</ele>
        <time>2014-06-01T11:54:16Z</time>
      </trkpt>
      <trkpt lat="59.774474" lon="17.7146897">
        <ele>52.5292</ele>
        <time>2014-06-01T11:54:17Z</time>
      </trkpt>
      <trkpt lat="59.7744387" lon="17.7146973">
        <ele>52.5292</ele>
        <time>2014-06-01T11:54:18Z</time>
      </trkpt>
      <trkpt lat="59.7744018" lon="17.7147077">
        <ele>52.0486</ele>
        <time>2014-06-01T11:54:19Z</time>
      </trkpt>
      <trkpt lat="59.7743698" lon="17.7147199">
        <ele>51.5679</ele>
        <time>2014-06-01T11:54:20Z</time>
      </trkpt>
      <trkpt lat="59.7743452" lon="17.714739">
        <ele>51.5679</ele>
        <time>2014-06-01T11:54:21Z</time>
      </trkpt>
      <trkpt lat="59.7743221" lon="17.714756">
        <ele>50.6066</ele>
        <time>2014-06-01T11:54:22Z</time>
      </trkpt>
      <trkpt lat="59.7743033" lon="17.7147719">
        <ele>50.126</ele>
        <time>2014-06-01T11:54:23Z</time>
      </trkpt>
      <trkpt lat="59.7742812" lon="17.7147815">
        <ele>50.126</ele>
        <time>2014-06-01T11:54:24Z</time>
      </trkpt>
      <trkpt lat="59.7742552" lon="17.7147898">
        <ele>49.6453</ele>
        <time>2014-06-01T11:54:25Z</time>
      </trkpt>
      <trkpt lat="59.7742282" lon="17.7148113">
        <ele>50.126</ele>
        <time>2014-06-01T11:54:26Z</time>
      </trkpt>
      <trkpt lat="59.7742034" lon="17.7148295">
        <ele>50.126</ele>
        <time>2014-06-01T11:54:27Z</time>
      </trkpt>
      <trkpt lat="59.7741817" lon="17.7148487">
        <ele>50.6066</ele>
        <time>2014-06-01T11:54:28Z</time>
      </trkpt>
      <trkpt lat="59.7741591" lon="17.714865">
        <ele>51.0872</ele>
        <time>2014-06-01T11:54:29Z</time>
      </trkpt>
      <trkpt lat="59.7741394" lon="17.7148736">
        <ele>51.5679</ele>
        <time>2014-06-01T11:54:30Z</time>
      </trkpt>
      <trkpt lat="59.7741248" lon="17.7148814">
        <ele>51.0872</ele>
        <time>2014-06-01T11:54:31Z</time>
      </trkpt>
      <trkpt lat="59.7741155" lon="17.7148949">
        <ele>50.6066</ele>
        <time>2014-06-01T11:54:32Z</time>
      </trkpt>
      <trkpt lat="59.7741077" lon="17.7149156">
        <ele>50.126</ele>
        <time>2014-06-01T11:54:33Z</time>
      </trkpt>
      <trkpt lat="59.7740985" lon="17.7149336">
        <ele>49.6453</ele>
        <time>2014-06-01T11:54:34Z</time>
      </trkpt>
      <trkpt lat="59.7740862" lon="17.7149413">
        <ele>48.684</ele>
        <time>2014-06-01T11:54:35Z</time>
      </trkpt>
      <trkpt lat="59.7740722" lon="17.7149455">
        <ele>49.1646</ele>
        <time>2014-06-01T11:54:36Z</time>
      </trkpt>
      <trkpt lat="59.77406" lon="17.7149401">
        <ele>49.1646</ele>
        <time>2014-06-01T11:54:37Z</time>
      </trkpt>
      <trkpt lat="59.7740463" lon="17.7149339">
        <ele>49.1646</ele>
        <time>2014-06-01T11:54:38Z</time>
      </trkpt>
      <trkpt lat="59.7740293" lon="17.7149369">
        <ele>49.6453</ele>
        <time>2014-06-01T11:54:39Z</time>
      </trkpt>
      <trkpt lat="59.7740137" lon="17.714938">
        <ele>49.1646</ele>
        <time>2014-06-01T11:54:40Z</time>
      </trkpt>
      <trkpt lat="59.7739972" lon="17.7149333">
        <ele>49.1646</ele>
        <time>2014-06-01T11:54:41Z</time>
      </trkpt>
      <trkpt lat="59.7739782" lon="17.7149274">
        <ele>48.684</ele>
        <time>2014-06-01T11:54:42Z</time>
      </trkpt>
      <trkpt lat="59.773961" lon="17.7149242">
        <ele>48.684</ele>
        <time>2014-06-01T11:54:43Z</time>
      </trkpt>
      <trkpt lat="59.7739435" lon="17.7149229">
        <ele>48.684</ele>
        <time>2014-06-01T11:54:44Z</time>
      </trkpt>
      <trkpt lat="59.7739259" lon="17.7149176">
        <ele>48.684</ele>
        <time>2014-06-01T11:54:45Z</time>
      </trkpt>
      <trkpt lat="59.7739093" lon="17.7149233">
        <ele>49.1646</ele>
        <time>2014-06-01T11:54:46Z</time>
      </trkpt>
      <trkpt lat="59.773892" lon="17.7149425">
        <ele>49.6453</ele>
        <time>2014-06-01T11:54:47Z</time>
      </trkpt>
      <trkpt lat="59.7738776" lon="17.7149685">
        <ele>50.126</ele>
        <time>2014-06-01T11:54:48Z</time>
      </trkpt>
      <trkpt lat="59.7738645" lon="17.7149942">
        <ele>50.6066</ele>
        <time>2014-06-01T11:54:49Z</time>
      </trkpt>
      <trkpt lat="59.7738527" lon="17.7150206">
        <ele>51.0872</ele>
        <time>2014-06-01T11:54:50Z</time>
      </trkpt>
      <trkpt lat="59.7738425" lon="17.7150543">
        <ele>51.0872</ele>
        <time>2014-06-01T11:54:51Z</time>
      </trkpt>
      <trkpt lat="59.7738274" lon="17.7151">
        <ele>52.0486</ele>
        <time>2014-06-01T11:54:52Z</time>
      </trkpt>
      <trkpt lat="59.7738112" lon="17.7151436">
        <ele>52.5292</ele>
        <time>2014-06-01T11:54:53Z</time>
      </trkpt>
      <trkpt lat="59.7737984" lon="17.7151809">
        <ele>53.0098</ele>
        <time>2014-06-01T11:54:54Z</time>
      </trkpt>
      <trkpt lat="59.7737824" lon="17.7152248">
        <ele>53.4905</ele>
        <time>2014-06-01T11:54:55Z</time>
      </trkpt>
      <trkpt lat="59.7737749" lon="17.7152602">
        <ele>53.0098</ele>
        <time>2014-06-01T11:54:56Z</time>
      </trkpt>
      <trkpt lat="59.7737714" lon="17.7152922">
        <ele>53.4905</ele>
        <time>2014-06-01T11:54:57Z</time>
      </trkpt>
      <trkpt lat="59.7737679" lon="17.715325">
        <ele>53.0098</ele>
        <time>2014-06-01T11:54:58Z</time>
      </trkpt>
      <trkpt lat="59.7737605" lon="17.7153694">
        <ele>53.4905</ele>
        <time>2014-06-01T11:54:59Z</time>
      </trkpt>
      <trkpt lat="59.7737559" lon="17.715415">
        <ele>53.9712</ele>
        <time>2014-06-01T11:55:00Z</time>
      </trkpt>
      <trkpt lat="59.7737513" lon="17.7154518">
        <ele>53.9712</ele>
        <time>2014-06-01T11:55:01Z</time>
      </trkpt>
      <trkpt lat="59.7737474" lon="17.7154844">
        <ele>54.4518</ele>
        <time>2014-06-01T11:55:02Z</time>
      </trkpt>
      <trkpt lat="59.7737481" lon="17.7155251">
        <ele>54.4518</ele>
        <time>2014-06-01T11:55:03Z</time>
      </trkpt>
      <trkpt lat="59.7737482" lon="17.7155756">
        <ele>54.4518</ele>
        <time>2014-06-01T11:55:04Z</time>
      </trkpt>
      <trkpt lat="59.7737456" lon="17.7156341">
        <ele>54.9324</ele>
        <time>2014-06-01T11:55:05Z</time>
      </trkpt>
      <trkpt lat="59.7737471" lon="17.7156876">
        <ele>53.9712</ele>
        <time>2014-06-01T11:55:06Z</time>
      </trkpt>
      <trkpt lat="59.7737429" lon="17.7157435">
        <ele>53.4905</ele>
        <time>2014-06-01T11:55:07Z</time>
      </trkpt>
      <trkpt lat="59.7737278" lon="17.7157952">
        <ele>53.0098</ele>
        <time>2014-06-01T11:55:08Z</time>
      </trkpt>
      <trkpt lat="59.7737052" lon="17.7158319">
        <ele>53.0098</ele>
        <time>2014-06-01T11:55:09Z</time>
      </trkpt>
      <trkpt lat="59.7736817" lon="17.71586">
        <ele>52.5292</ele>
        <time>2014-06-01T11:55:10Z</time>
      </trkpt>
      <trkpt lat="59.773661" lon="17.7158881">
        <ele>52.5292</ele>
        <time>2014-06-01T11:55:11Z</time>
      </trkpt>
      <trkpt lat="59.7736385" lon="17.715921">
        <ele>52.5292</ele>
        <time>2014-06-01T11:55:12Z</time>
      </trkpt>
      <trkpt lat="59.7736145" lon="17.7159511">
        <ele>52.0486</ele>
        <time>2014-06-01T11:55:13Z</time>
      </trkpt>
      <trkpt lat="59.7735931" lon="17.7159702">
        <ele>51.5679</ele>
        <time>2014-06-01T11:55:14Z</time>
      </trkpt>
      <trkpt lat="59.7735724" lon="17.715994">
        <ele>52.5292</ele>
        <time>2014-06-01T11:55:15Z</time>
      </trkpt>
      <trkpt lat="59.7735601" lon="17.716006">
        <ele>52.5292</ele>
        <time>2014-06-01T11:55:16Z</time>
      </trkpt>
      <trkpt lat="59.7735498" lon="17.7160163">
        <ele>52.0486</ele>
        <time>2014-06-01T11:55:17Z</time>
      </trkpt>
      <trkpt lat="59.773541" lon="17.7160278">
        <ele>52.0486</ele>
        <time>2014-06-01T11:55:18Z</time>
      </trkpt>
      <trkpt lat="59.7735331" lon="17.7160303">
        <ele>52.5292</ele>
        <time>2014-06-01T11:55:19Z</time>
      </trkpt>
      <trkpt lat="59.773528" lon="17.716034">
        <ele>52.5292</ele>
        <time>2014-06-01T11:55:20Z</time>
      </trkpt>
      <trkpt lat="59.7735279" lon="17.7160392">
        <ele>52.0486</ele>
        <time>2014-06-01T11:55:21Z</time>
      </trkpt>
      <trkpt lat="59.7735248" lon="17.7160414">
        <ele>51.5679</ele>
        <time>2014-06-01T11:55:22Z</time>
      </trkpt>
      <trkpt lat="59.7734606" lon="17.716078">
        <ele>50.126</ele>
        <time>2014-06-01T11:55:28Z</time>
      </trkpt>
      <trkpt lat="59.7734441" lon="17.7161065">
        <ele>51.5679</ele>
        <time>2014-06-01T11:55:29Z</time>
      </trkpt>
      <trkpt lat="59.7734358" lon="17.71612">
        <ele>51.5679</ele>
        <time>2014-06-01T11:55:30Z</time>
      </trkpt>
      <trkpt lat="59.7734294" lon="17.7161278">
        <ele>51.0872</ele>
        <time>2014-06-01T11:55:31Z</time>
      </trkpt>
      <trkpt lat="59.7734239" lon="17.7161412">
        <ele>51.0872</ele>
        <time>2014-06-01T11:55:32Z</time>
      </trkpt>
      <trkpt lat="59.7734203" lon="17.7161532">
        <ele>50.6066</ele>
        <time>2014-06-01T11:55:33Z</time>
      </trkpt>
      <trkpt lat="59.7734115" lon="17.7161605">
        <ele>51.0872</ele>
        <time>2014-06-01T11:55:34Z</time>
      </trkpt>
      <trkpt lat="59.7734005" lon="17.7161634">
        <ele>51.0872</ele>
        <time>2014-06-01T11:55:35Z</time>
      </trkpt>
      <trkpt lat="59.7733942" lon="17.7161723">
        <ele>51.5679</ele>
        <time>2014-06-01T11:55:36Z</time>
      </trkpt>
      <trkpt lat="59.7733902" lon="17.7161811">
        <ele>51.0872</ele>
        <time>2014-06-01T11:55:37Z</time>
      </trkpt>
      <trkpt lat="59.7733855" lon="17.7161885">
        <ele>50.6066</ele>
        <time>2014-06-01T11:55:38Z</time>
      </trkpt>
      <trkpt lat="59.7733897" lon="17.7162022">
        <ele>50.126</ele>
        <time>2014-06-01T11:55:39Z</time>
      </trkpt>
      <trkpt lat="59.7733975" lon="17.7162234">
        <ele>49.6453</ele>
        <time>2014-06-01T11:55:40Z</time>
      </trkpt>
      <trkpt lat="59.7733944" lon="17.7162474">
        <ele>50.126</ele>
        <time>2014-06-01T11:55:41Z</time>
      </trkpt>
      <trkpt lat="59.773389" lon="17.7162614">
        <ele>50.126</ele>
        <time>2014-06-01T11:55:42Z</time>
      </trkpt>
      <trkpt lat="59.7733831" lon="17.7162708">
        <ele>49.6453</ele>
        <time>2014-06-01T11:55:43Z</time>
      </trkpt>
      <trkpt lat="59.7733786" lon="17.7162781">
        <ele>49.6453</ele>
        <time>2014-06-01T11:55:44Z</time>
      </trkpt>
      <trkpt lat="59.7733722" lon="17.7162902">
        <ele>49.1646</ele>
        <time>2014-06-01T11:55:45Z</time>
      </trkpt>
      <trkpt lat="59.7733605" lon="17.7163174">
        <ele>50.6066</ele>
        <time>2014-06-01T11:55:46Z</time>
      </trkpt>
      <trkpt lat="59.7733576" lon="17.7163374">
        <ele>49.6453</ele>
        <time>2014-06-01T11:55:47Z</time>
      </trkpt>
      <trkpt lat="59.7733504" lon="17.7163669">
        <ele>50.6066</ele>
        <time>2014-06-01T11:55:48Z</time>
      </trkpt>
      <trkpt lat="59.7733467" lon="17.7163874">
        <ele>50.126</ele>
        <time>2014-06-01T11:55:49Z</time>
      </trkpt>
      <trkpt lat="59.7733432" lon="17.7164049">
        <ele>50.126</ele>
        <time>2014-06-01T11:55:50Z</time>
      </trkpt>
      <trkpt lat="59.7733395" lon="17.7164241">
        <ele>50.126</ele>
        <time>2014-06-01T11:55:51Z</time>
      </trkpt>
      <trkpt lat="59.7733334" lon="17.7164463">
        <ele>49.6453</ele>
        <time>2014-06-01T11:55:52Z</time>
      </trkpt>
      <trkpt lat="59.7733294" lon="17.7164666">
        <ele>49.6453</ele>
        <time>2014-06-01T11:55:53Z</time>
      </trkpt>
      <trkpt lat="59.7733251" lon="17.7164935">
        <ele>49.6453</ele>
        <time>2014-06-01T11:55:54Z</time>
      </trkpt>
      <trkpt lat="59.7733225" lon="17.7165268">
        <ele>50.6066</ele>
        <time>2014-06-01T11:55:55Z</time>
      </trkpt>
      <trkpt lat="59.7733212" lon="17.716558">
        <ele>51.0872</ele>
        <time>2014-06-01T11:55:56Z</time>
      </trkpt>
      <trkpt lat="59.7733217" lon="17.7165847">
        <ele>51.5679</ele>
        <time>2014-06-01T11:55:57Z</time>
      </trkpt>
      <trkpt lat="59.7733224" lon="17.7166131">
        <ele>52.0486</ele>
        <time>2014-06-01T11:55:58Z</time>
      </trkpt>
      <trkpt lat="59.7733239" lon="17.7166365">
        <ele>52.0486</ele>
        <time>2014-06-01T11:55:59Z</time>
      </trkpt>
      <trkpt lat="59.7733219" lon="17.7166562">
        <ele>53.0098</ele>
        <time>2014-06-01T11:56:00Z</time>
      </trkpt>
      <trkpt lat="59.7733177" lon="17.716681">
        <ele>53.4905</ele>
        <time>2014-06-01T11:56:01Z</time>
      </trkpt>
      <trkpt lat="59.773313" lon="17.7166958">
        <ele>53.0098</ele>
        <time>2014-06-01T11:56:02Z</time>
      </trkpt>
      <trkpt lat="59.7733119" lon="17.7167059">
        <ele>52.5292</ele>
        <time>2014-06-01T11:56:03Z</time>
      </trkpt>
      <trkpt lat="59.7733056" lon="17.7167198">
        <ele>53.0098</ele>
        <time>2014-06-01T11:56:04Z</time>
      </trkpt>
      <trkpt lat="59.7732996" lon="17.7167265">
        <ele>53.0098</ele>
        <time>2014-06-01T11:56:05Z</time>
      </trkpt>
      <trkpt lat="59.7732934" lon="17.7167347">
        <ele>52.5292</ele>
        <time>2014-06-01T11:56:06Z</time>
      </trkpt>
      <trkpt lat="59.7732897" lon="17.7167519">
        <ele>53.0098</ele>
        <time>2014-06-01T11:56:07Z</time>
      </trkpt>
      <trkpt lat="59.7732913" lon="17.7167684">
        <ele>53.4905</ele>
        <time>2014-06-01T11:56:08Z</time>
      </trkpt>
      <trkpt lat="59.7732912" lon="17.7167881">
        <ele>53.4905</ele>
        <time>2014-06-01T11:56:09Z</time>
      </trkpt>
      <trkpt lat="59.7732953" lon="17.7168105">
        <ele>53.4905</ele>
        <time>2014-06-01T11:56:10Z</time>
      </trkpt>
      <trkpt lat="59.7732991" lon="17.7168402">
        <ele>53.9712</ele>
        <time>2014-06-01T11:56:11Z</time>
      </trkpt>
      <trkpt lat="59.7733031" lon="17.7168778">
        <ele>54.4518</ele>
        <time>2014-06-01T11:56:12Z</time>
      </trkpt>
      <trkpt lat="59.7733043" lon="17.716923">
        <ele>54.4518</ele>
        <time>2014-06-01T11:56:13Z</time>
      </trkpt>
      <trkpt lat="59.7733099" lon="17.716968">
        <ele>54.4518</ele>
        <time>2014-06-01T11:56:14Z</time>
      </trkpt>
      <trkpt lat="59.7733109" lon="17.7170193">
        <ele>55.4131</ele>
        <time>2014-06-01T11:56:15Z</time>
      </trkpt>
      <trkpt lat="59.7733089" lon="17.7170638">
        <ele>55.4131</ele>
        <time>2014-06-01T11:56:16Z</time>
      </trkpt>
      <trkpt lat="59.7733121" lon="17.7171011">
        <ele>55.4131</ele>
        <time>2014-06-01T11:56:17Z</time>
      </trkpt>
      <trkpt lat="59.7733219" lon="17.7171263">
        <ele>55.8938</ele>
        <time>2014-06-01T11:56:18Z</time>
      </trkpt>
      <trkpt lat="59.7733384" lon="17.7171326">
        <ele>55.4131</ele>
        <time>2014-06-01T11:56:19Z</time>
      </trkpt>
      <trkpt lat="59.7733523" lon="17.7171473">
        <ele>55.8938</ele>
        <time>2014-06-01T11:56:20Z</time>
      </trkpt>
      <trkpt lat="59.77336" lon="17.7171771">
        <ele>55.8938</ele>
        <time>2014-06-01T11:56:21Z</time>
      </trkpt>
      <trkpt lat="59.7733657" lon="17.7172031">
        <ele>55.8938</ele>
        <time>2014-06-01T11:56:22Z</time>
      </trkpt>
      <trkpt lat="59.7733703" lon="17.7172254">
        <ele>55.8938</ele>
        <time>2014-06-01T11:56:23Z</time>
      </trkpt>
      <trkpt lat="59.7733729" lon="17.7172487">
        <ele>55.8938</ele>
        <time>2014-06-01T11:56:24Z</time>
      </trkpt>
      <trkpt lat="59.7733714" lon="17.717275">
        <ele>55.4131</ele>
        <time>2014-06-01T11:56:25Z</time>
      </trkpt>
      <trkpt lat="59.7733688" lon="17.717302">
        <ele>55.4131</ele>
        <time>2014-06-01T11:56:26Z</time>
      </trkpt>
      <trkpt lat="59.7733669" lon="17.7173379">
        <ele>55.4131</ele>
        <time>2014-06-01T11:56:27Z</time>
      </trkpt>
      <trkpt lat="59.7733628" lon="17.7173802">
        <ele>55.8938</ele>
        <time>2014-06-01T11:56:28Z</time>
      </trkpt>
      <trkpt lat="59.7733534" lon="17.717421">
        <ele>55.8938</ele>
        <time>2014-06-01T11:56:29Z</time>
      </trkpt>
      <trkpt lat="59.7733426" lon="17.7174625">
        <ele>55.8938</ele>
        <time>2014-06-01T11:56:30Z</time>
      </trkpt>
      <trkpt lat="59.7733379" lon="17.7175051">
        <ele>55.4131</ele>
        <time>2014-06-01T11:56:31Z</time>
      </trkpt>
      <trkpt lat="59.7733352" lon="17.7175552">
        <ele>54.9324</ele>
        <time>2014-06-01T11:56:32Z</time>
      </trkpt>
      <trkpt lat="59.7733346" lon="17.7176052">
        <ele>54.4518</ele>
        <time>2014-06-01T11:56:33Z</time>
      </trkpt>
      <trkpt lat="59.7733312" lon="17.7176605">
        <ele>53.9712</ele>
        <time>2014-06-01T11:56:34Z</time>
      </trkpt>
      <trkpt lat="59.7733286" lon="17.7177068">
        <ele>53.4905</ele>
        <time>2014-06-01T11:56:35Z</time>
      </trkpt>
      <trkpt lat="59.7733287" lon="17.7177517">
        <ele>53.4905</ele>
        <time>2014-06-01T11:56:36Z</time>
      </trkpt>
      <trkpt lat="59.7733367" lon="17.7177968">
        <ele>53.4905</ele>
        <time>2014-06-01T11:56:37Z</time>
      </trkpt>
      <trkpt lat="59.7733446" lon="17.7178295">
        <ele>53.4905</ele>
        <time>2014-06-01T11:56:38Z</time>
      </trkpt>
      <trkpt lat="59.7733498" lon="17.717863">
        <ele>53.4905</ele>
        <time>2014-06-01T11:56:39Z</time>
      </trkpt>
      <trkpt lat="59.7733559" lon="17.7178989">
        <ele>53.4905</ele>
        <time>2014-06-01T11:56:40Z</time>
      </trkpt>
      <trkpt lat="59.7733638" lon="17.7179355">
        <ele>53.4905</ele>
        <time>2014-06-01T11:56:41Z</time>
      </trkpt>
      <trkpt lat="59.773371" lon="17.7179672">
        <ele>53.9712</ele>
        <time>2014-06-01T11:56:42Z</time>
      </trkpt>
      <trkpt lat="59.7733773" lon="17.7179921">
        <ele>53.9712</ele>
        <time>2014-06-01T11:56:43Z</time>
      </trkpt>
      <trkpt lat="59.7733844" lon="17.7180173">
        <ele>53.9712</ele>
        <time>2014-06-01T11:56:44Z</time>
      </trkpt>
      <trkpt lat="59.7733912" lon="17.7180423">
        <ele>53.9712</ele>
        <time>2014-06-01T11:56:45Z</time>
      </trkpt>
      <trkpt lat="59.7733979" lon="17.7180684">
        <ele>53.9712</ele>
        <time>2014-06-01T11:56:46Z</time>
      </trkpt>
      <trkpt lat="59.7734031" lon="17.7180992">
        <ele>53.9712</ele>
        <time>2014-06-01T11:56:47Z</time>
      </trkpt>
      <trkpt lat="59.7734016" lon="17.7181334">
        <ele>54.4518</ele>
        <time>2014-06-01T11:56:48Z</time>
      </trkpt>
      <trkpt lat="59.7733979" lon="17.7181635">
        <ele>54.4518</ele>
        <time>2014-06-01T11:56:49Z</time>
      </trkpt>
      <trkpt lat="59.7733886" lon="17.7181839">
        <ele>53.9712</ele>
        <time>2014-06-01T11:56:50Z</time>
      </trkpt>
      <trkpt lat="59.7733814" lon="17.7182018">
        <ele>53.4905</ele>
        <time>2014-06-01T11:56:51Z</time>
      </trkpt>
      <trkpt lat="59.7733794" lon="17.7182193">
        <ele>53.0098</ele>
        <time>2014-06-01T11:56:52Z</time>
      </trkpt>
      <trkpt lat="59.7733808" lon="17.7182414">
        <ele>53.0098</ele>
        <time>2014-06-01T11:56:53Z</time>
      </trkpt>
      <trkpt lat="59.7733815" lon="17.7182666">
        <ele>52.5292</ele>
        <time>2014-06-01T11:56:54Z</time>
      </trkpt>
      <trkpt lat="59.7733828" lon="17.7182862">
        <ele>53.0098</ele>
        <time>2014-06-01T11:56:55Z</time>
      </trkpt>
      <trkpt lat="59.7733804" lon="17.7182951">
        <ele>53.4905</ele>
        <time>2014-06-01T11:56:56Z</time>
      </trkpt>
      <trkpt lat="59.773381" lon="17.7182971">
        <ele>53.4905</ele>
        <time>2014-06-01T11:56:57Z</time>
      </trkpt>
      <trkpt lat="59.7733814" lon="17.7183105">
        <ele>53.4905</ele>
        <time>2014-06-01T11:56:58Z</time>
      </trkpt>
      <trkpt lat="59.773384" lon="17.7183241">
        <ele>53.0098</ele>
        <time>2014-06-01T11:56:59Z</time>
      </trkpt>
      <trkpt lat="59.7733856" lon="17.7183412">
        <ele>53.4905</ele>
        <time>2014-06-01T11:57:00Z</time>
      </trkpt>
      <trkpt lat="59.7733865" lon="17.7183561">
        <ele>53.4905</ele>
        <time>2014-06-01T11:57:01Z</time>
      </trkpt>
      <trkpt lat="59.7733888" lon="17.7183693">
        <ele>53.9712</ele>
        <time>2014-06-01T11:57:02Z</time>
      </trkpt>
      <trkpt lat="59.7733902" lon="17.718384">
        <ele>53.9712</ele>
        <time>2014-06-01T11:57:03Z</time>
      </trkpt>
      <trkpt lat="59.7733897" lon="17.7183977">
        <ele>53.9712</ele>
        <time>2014-06-01T11:57:04Z</time>
      </trkpt>
      <trkpt lat="59.7733892" lon="17.7184064">
        <ele>53.0098</ele>
        <time>2014-06-01T11:57:05Z</time>
      </trkpt>
      <trkpt lat="59.7733852" lon="17.7184143">
        <ele>53.0098</ele>
        <time>2014-06-01T11:57:06Z</time>
      </trkpt>
      <trkpt lat="59.7733814" lon="17.7184294">
        <ele>52.5292</ele>
        <time>2014-06-01T11:57:07Z</time>
      </trkpt>
      <trkpt lat="59.7733805" lon="17.7184495">
        <ele>52.0486</ele>
        <time>2014-06-01T11:57:08Z</time>
      </trkpt>
      <trkpt lat="59.7733809" lon="17.7184745">
        <ele>51.5679</ele>
        <time>2014-06-01T11:57:09Z</time>
      </trkpt>
      <trkpt lat="59.7733813" lon="17.7185029">
        <ele>51.5679</ele>
        <time>2014-06-01T11:57:10Z</time>
      </trkpt>
      <trkpt lat="59.7733814" lon="17.7185322">
        <ele>51.0872</ele>
        <time>2014-06-01T11:57:11Z</time>
      </trkpt>
      <trkpt lat="59.7733812" lon="17.7185612">
        <ele>51.0872</ele>
        <time>2014-06-01T11:57:12Z</time>
      </trkpt>
      <trkpt lat="59.7733768" lon="17.7185804">
        <ele>50.6066</ele>
        <time>2014-06-01T11:57:13Z</time>
      </trkpt>
      <trkpt lat="59.7733678" lon="17.7185939">
        <ele>50.126</ele>
        <time>2014-06-01T11:57:14Z</time>
      </trkpt>
      <trkpt lat="59.773353" lon="17.7186023">
        <ele>49.6453</ele>
        <time>2014-06-01T11:57:15Z</time>
      </trkpt>
      <trkpt lat="59.7733427" lon="17.718604">
        <ele>49.1646</ele>
        <time>2014-06-01T11:57:16Z</time>
      </trkpt>
      <trkpt lat="59.7733349" lon="17.7186085">
        <ele>48.684</ele>
        <time>2014-06-01T11:57:17Z</time>
      </trkpt>
      <trkpt lat="59.773325" lon="17.7186169">
        <ele>47.7225</ele>
        <time>2014-06-01T11:57:18Z</time>
      </trkpt>
      <trkpt lat="59.7733141" lon="17.7186277">
        <ele>47.2418</ele>
        <time>2014-06-01T11:57:19Z</time>
      </trkpt>
      <trkpt lat="59.7733038" lon="17.7186385">
        <ele>47.2418</ele>
        <time>2014-06-01T11:57:20Z</time>
      </trkpt>
      <trkpt lat="59.7732952" lon="17.7186526">
        <ele>46.7612</ele>
        <time>2014-06-01T11:57:21Z</time>
      </trkpt>
      <trkpt lat="59.7732845" lon="17.7186715">
        <ele>46.7612</ele>
        <time>2014-06-01T11:57:22Z</time>
      </trkpt>
      <trkpt lat="59.7732716" lon="17.7186838">
        <ele>46.2806</ele>
        <time>2014-06-01T11:57:23Z</time>
      </trkpt>
      <trkpt lat="59.773259" lon="17.7186893">
        <ele>45.7999</ele>
        <time>2014-06-01T11:57:24Z</time>
      </trkpt>
      <trkpt lat="59.7732497" lon="17.7187">
        <ele>45.3192</ele>
        <time>2014-06-01T11:57:25Z</time>
      </trkpt>
      <trkpt lat="59.7732398" lon="17.7187267">
        <ele>46.2806</ele>
        <time>2014-06-01T11:57:26Z</time>
      </trkpt>
      <trkpt lat="59.7732331" lon="17.718757">
        <ele>47.2418</ele>
        <time>2014-06-01T11:57:27Z</time>
      </trkpt>
      <trkpt lat="59.7732238" lon="17.7187867">
        <ele>47.7225</ele>
        <time>2014-06-01T11:57:28Z</time>
      </trkpt>
      <trkpt lat="59.7732126" lon="17.7188142">
        <ele>48.684</ele>
        <time>2014-06-01T11:57:29Z</time>
      </trkpt>
      <trkpt lat="59.7732012" lon="17.718839">
        <ele>49.1646</ele>
        <time>2014-06-01T11:57:30Z</time>
      </trkpt>
      <trkpt lat="59.7731851" lon="17.7188655">
        <ele>50.126</ele>
        <time>2014-06-01T11:57:31Z</time>
      </trkpt>
      <trkpt lat="59.7731711" lon="17.7188881">
        <ele>50.126</ele>
        <time>2014-06-01T11:57:32Z</time>
      </trkpt>
      <trkpt lat="59.7731583" lon="17.7189121">
        <ele>50.6066</ele>
        <time>2014-06-01T11:57:33Z</time>
      </trkpt>
      <trkpt lat="59.7731451" lon="17.7189395">
        <ele>50.6066</ele>
        <time>2014-06-01T11:57:34Z</time>
      </trkpt>
      <trkpt lat="59.7731302" lon="17.7189657">
        <ele>51.0872</ele>
        <time>2014-06-01T11:57:35Z</time>
      </trkpt>
      <trkpt lat="59.7731126" lon="17.7189826">
        <ele>51.5679</ele>
        <time>2014-06-01T11:57:36Z</time>
      </trkpt>
      <trkpt lat="59.7730995" lon="17.7189875">
        <ele>51.5679</ele>
        <time>2014-06-01T11:57:37Z</time>
      </trkpt>
      <trkpt lat="59.7730851" lon="17.719002">
        <ele>51.0872</ele>
        <time>2014-06-01T11:57:38Z</time>
      </trkpt>
      <trkpt lat="59.7730714" lon="17.7190254">
        <ele>50.126</ele>
        <time>2014-06-01T11:57:39Z</time>
      </trkpt>
      <trkpt lat="59.7730577" lon="17.7190504">
        <ele>49.6453</ele>
        <time>2014-06-01T11:57:40Z</time>
      </trkpt>
      <trkpt lat="59.7730431" lon="17.7190674">
        <ele>48.684</ele>
        <time>2014-06-01T11:57:41Z</time>
      </trkpt>
      <trkpt lat="59.7730281" lon="17.719083">
        <ele>49.1646</ele>
        <time>2014-06-01T11:57:42Z</time>
      </trkpt>
      <trkpt lat="59.7730204" lon="17.719088">
        <ele>49.1646</ele>
        <time>2014-06-01T11:57:43Z</time>
      </trkpt>
      <trkpt lat="59.7730132" lon="17.7190986">
        <ele>49.1646</ele>
        <time>2014-06-01T11:57:44Z</time>
      </trkpt>
      <trkpt lat="59.7730105" lon="17.7191068">
        <ele>49.1646</ele>
        <time>2014-06-01T11:57:45Z</time>
      </trkpt>
      <trkpt lat="59.7730083" lon="17.7191157">
        <ele>48.684</ele>
        <time>2014-06-01T11:57:46Z</time>
      </trkpt>
      <trkpt lat="59.7730053" lon="17.7191217">
        <ele>48.2034</ele>
        <time>2014-06-01T11:57:47Z</time>
      </trkpt>
      <trkpt lat="59.7730008" lon="17.7191286">
        <ele>48.2034</ele>
        <time>2014-06-01T11:57:48Z</time>
      </trkpt>
      <trkpt lat="59.772993" lon="17.7191364">
        <ele>48.2034</ele>
        <time>2014-06-01T11:57:49Z</time>
      </trkpt>
      <trkpt lat="59.7729839" lon="17.7191473">
        <ele>47.7225</ele>
        <time>2014-06-01T11:57:50Z</time>
      </trkpt>
      <trkpt lat="59.7729732" lon="17.7191596">
        <ele>47.2418</ele>
        <time>2014-06-01T11:57:51Z</time>
      </trkpt>
      <trkpt lat="59.7729611" lon="17.7191725">
        <ele>47.2418</ele>
        <time>2014-06-01T11:57:52Z</time>
      </trkpt>
      <trkpt lat="59.7729469" lon="17.7191917">
        <ele>46.2806</ele>
        <time>2014-06-01T11:57:53Z</time>
      </trkpt>
      <trkpt lat="59.7729339" lon="17.7192167">
        <ele>45.7999</ele>
        <time>2014-06-01T11:57:54Z</time>
      </trkpt>
      <trkpt lat="59.7729229" lon="17.7192446">
        <ele>45.3192</ele>
        <time>2014-06-01T11:57:55Z</time>
      </trkpt>
      <trkpt lat="59.7729116" lon="17.7192764">
        <ele>44.8386</ele>
        <time>2014-06-01T11:57:56Z</time>
      </trkpt>
      <trkpt lat="59.7729016" lon="17.7193139">
        <ele>44.8386</ele>
        <time>2014-06-01T11:57:57Z</time>
      </trkpt>
      <trkpt lat="59.7728941" lon="17.7193432">
        <ele>44.8386</ele>
        <time>2014-06-01T11:57:58Z</time>
      </trkpt>
      <trkpt lat="59.7728894" lon="17.7193659">
        <ele>43.8773</ele>
        <time>2014-06-01T11:57:59Z</time>
      </trkpt>
      <trkpt lat="59.7728909" lon="17.7193789">
        <ele>43.3966</ele>
        <time>2014-06-01T11:58:00Z</time>
      </trkpt>
      <trkpt lat="59.7728912" lon="17.7193976">
        <ele>42.916</ele>
        <time>2014-06-01T11:58:01Z</time>
      </trkpt>
      <trkpt lat="59.7728924" lon="17.7194235">
        <ele>42.916</ele>
        <time>2014-06-01T11:58:02Z</time>
      </trkpt>
      <trkpt lat="59.772894" lon="17.7194556">
        <ele>42.4354</ele>
        <time>2014-06-01T11:58:03Z</time>
      </trkpt>
      <trkpt lat="59.7728919" lon="17.7194923">
        <ele>41.9547</ele>
        <time>2014-06-01T11:58:04Z</time>
      </trkpt>
      <trkpt lat="59.7728856" lon="17.7195257">
        <ele>41.9547</ele>
        <time>2014-06-01T11:58:05Z</time>
      </trkpt>
      <trkpt lat="59.7728796" lon="17.719556">
        <ele>41.474</ele>
        <time>2014-06-01T11:58:06Z</time>
      </trkpt>
      <trkpt lat="59.7728702" lon="17.7195845">
        <ele>41.474</ele>
        <time>2014-06-01T11:58:07Z</time>
      </trkpt>
      <trkpt lat="59.7728598" lon="17.7196088">
        <ele>41.474</ele>
        <time>2014-06-01T11:58:08Z</time>
      </trkpt>
      <trkpt lat="59.7728567" lon="17.7196213">
        <ele>41.474</ele>
        <time>2014-06-01T11:58:09Z</time>
      </trkpt>
      <trkpt lat="59.7728531" lon="17.7196258">
        <ele>40.9934</ele>
        <time>2014-06-01T11:58:10Z</time>
      </trkpt>
      <trkpt lat="59.7728475" lon="17.7196302">
        <ele>41.474</ele>
        <time>2014-06-01T11:58:11Z</time>
      </trkpt>
      <trkpt lat="59.7728425" lon="17.7196347">
        <ele>40.9934</ele>
        <time>2014-06-01T11:58:12Z</time>
      </trkpt>
      <trkpt lat="59.7728359" lon="17.71964">
        <ele>40.9934</ele>
        <time>2014-06-01T11:58:13Z</time>
      </trkpt>
      <trkpt lat="59.7728273" lon="17.7196477">
        <ele>40.9934</ele>
        <time>2014-06-01T11:58:14Z</time>
      </trkpt>
      <trkpt lat="59.7728185" lon="17.7196604">
        <ele>40.9934</ele>
        <time>2014-06-01T11:58:15Z</time>
      </trkpt>
      <trkpt lat="59.7728112" lon="17.7196729">
        <ele>40.9934</ele>
        <time>2014-06-01T11:58:16Z</time>
      </trkpt>
      <trkpt lat="59.772808" lon="17.7196875">
        <ele>41.9547</ele>
        <time>2014-06-01T11:58:17Z</time>
      </trkpt>
      <trkpt lat="59.7728021" lon="17.7196958">
        <ele>41.9547</ele>
        <time>2014-06-01T11:58:18Z</time>
      </trkpt>
      <trkpt lat="59.7727847" lon="17.7197202">
        <ele>43.8773</ele>
        <time>2014-06-01T11:58:19Z</time>
      </trkpt>
      <trkpt lat="59.7727738" lon="17.7197303">
        <ele>43.8773</ele>
        <time>2014-06-01T11:58:20Z</time>
      </trkpt>
      <trkpt lat="59.7727619" lon="17.7197413">
        <ele>43.3966</ele>
        <time>2014-06-01T11:58:21Z</time>
      </trkpt>
      <trkpt lat="59.7727458" lon="17.7197586">
        <ele>43.3966</ele>
        <time>2014-06-01T11:58:22Z</time>
      </trkpt>
      <trkpt lat="59.7727178" lon="17.7197844">
        <ele>45.7999</ele>
        <time>2014-06-01T11:58:23Z</time>
      </trkpt>
      <trkpt lat="59.7726986" lon="17.7197906">
        <ele>46.7612</ele>
        <time>2014-06-01T11:58:24Z</time>
      </trkpt>
      <trkpt lat="59.7726856" lon="17.7197886">
        <ele>46.7612</ele>
        <time>2014-06-01T11:58:25Z</time>
      </trkpt>
      <trkpt lat="59.7726708" lon="17.7197906">
        <ele>46.2806</ele>
        <time>2014-06-01T11:58:26Z</time>
      </trkpt>
      <trkpt lat="59.772655" lon="17.7197963">
        <ele>46.2806</ele>
        <time>2014-06-01T11:58:27Z</time>
      </trkpt>
      <trkpt lat="59.7726389" lon="17.7197963">
        <ele>45.7999</ele>
        <time>2014-06-01T11:58:28Z</time>
      </trkpt>
      <trkpt lat="59.772622" lon="17.7197952">
        <ele>45.3192</ele>
        <time>2014-06-01T11:58:29Z</time>
      </trkpt>
      <trkpt lat="59.7725997" lon="17.7197942">
        <ele>45.7999</ele>
        <time>2014-06-01T11:58:30Z</time>
      </trkpt>
      <trkpt lat="59.7725784" lon="17.7197855">
        <ele>46.7612</ele>
        <time>2014-06-01T11:58:31Z</time>
      </trkpt>
      <trkpt lat="59.7725607" lon="17.7197864">
        <ele>47.7225</ele>
        <time>2014-06-01T11:58:32Z</time>
      </trkpt>
      <trkpt lat="59.7725488" lon="17.7197829">
        <ele>47.2418</ele>
        <time>2014-06-01T11:58:33Z</time>
      </trkpt>
      <trkpt lat="59.7725406" lon="17.7197782">
        <ele>47.2418</ele>
        <time>2014-06-01T11:58:34Z</time>
      </trkpt>
      <trkpt lat="59.772531" lon="17.7197716">
        <ele>47.7225</ele>
        <time>2014-06-01T11:58:35Z</time>
      </trkpt>
      <trkpt lat="59.7725252" lon="17.7197698">
        <ele>47.7225</ele>
        <time>2014-06-01T11:58:36Z</time>
      </trkpt>
      <trkpt lat="59.7725183" lon="17.719773">
        <ele>47.2418</ele>
        <time>2014-06-01T11:58:37Z</time>
      </trkpt>
      <trkpt lat="59.7725105" lon="17.7197803">
        <ele>47.7225</ele>
        <time>2014-06-01T11:58:38Z</time>
      </trkpt>
      <trkpt lat="59.7725003" lon="17.7197883">
        <ele>47.7225</ele>
        <time>2014-06-01T11:58:39Z</time>
      </trkpt>
      <trkpt lat="59.7724887" lon="17.7197989">
        <ele>48.684</ele>
        <time>2014-06-01T11:58:40Z</time>
      </trkpt>
      <trkpt lat="59.772478" lon="17.7197988">
        <ele>48.2034</ele>
        <time>2014-06-01T11:58:41Z</time>
      </trkpt>
      <trkpt lat="59.7724646" lon="17.7198041">
        <ele>48.684</ele>
        <time>2014-06-01T11:58:42Z</time>
      </trkpt>
      <trkpt lat="59.7724485" lon="17.7198057">
        <ele>48.684</ele>
        <time>2014-06-01T11:58:43Z</time>
      </trkpt>
      <trkpt lat="59.7724303" lon="17.7197968">
        <ele>48.2034</ele>
        <time>2014-06-01T11:58:44Z</time>
      </trkpt>
      <trkpt lat="59.772412" lon="17.719786">
        <ele>48.2034</ele>
        <time>2014-06-01T11:58:45Z</time>
      </trkpt>
      <trkpt lat="59.7723968" lon="17.719774">
        <ele>48.2034</ele>
        <time>2014-06-01T11:58:46Z</time>
      </trkpt>
      <trkpt lat="59.7723789" lon="17.7197708">
        <ele>48.684</ele>
        <time>2014-06-01T11:58:47Z</time>
      </trkpt>
      <trkpt lat="59.7723664" lon="17.7197669">
        <ele>48.2034</ele>
        <time>2014-06-01T11:58:48Z</time>
      </trkpt>
      <trkpt lat="59.7723507" lon="17.7197688">
        <ele>49.1646</ele>
        <time>2014-06-01T11:58:49Z</time>
      </trkpt>
      <trkpt lat="59.7723366" lon="17.7197689">
        <ele>49.6453</ele>
        <time>2014-06-01T11:58:50Z</time>
      </trkpt>
      <trkpt lat="59.772321" lon="17.7197648">
        <ele>50.126</ele>
        <time>2014-06-01T11:58:51Z</time>
      </trkpt>
      <trkpt lat="59.7723044" lon="17.71976">
        <ele>50.6066</ele>
        <time>2014-06-01T11:58:52Z</time>
      </trkpt>
      <trkpt lat="59.7722844" lon="17.7197559">
        <ele>50.6066</ele>
        <time>2014-06-01T11:58:53Z</time>
      </trkpt>
      <trkpt lat="59.7722667" lon="17.7197498">
        <ele>50.126</ele>
        <time>2014-06-01T11:58:54Z</time>
      </trkpt>
      <trkpt lat="59.7722476" lon="17.7197519">
        <ele>50.126</ele>
        <time>2014-06-01T11:58:55Z</time>
      </trkpt>
      <trkpt lat="59.7722267" lon="17.7197523">
        <ele>49.6453</ele>
        <time>2014-06-01T11:58:56Z</time>
      </trkpt>
      <trkpt lat="59.7722076" lon="17.719745">
        <ele>49.6453</ele>
        <time>2014-06-01T11:58:57Z</time>
      </trkpt>
      <trkpt lat="59.77219" lon="17.7197403">
        <ele>49.1646</ele>
        <time>2014-06-01T11:58:58Z</time>
      </trkpt>
      <trkpt lat="59.7721728" lon="17.7197338">
        <ele>49.1646</ele>
        <time>2014-06-01T11:58:59Z</time>
      </trkpt>
      <trkpt lat="59.7721578" lon="17.7197238">
        <ele>49.1646</ele>
        <time>2014-06-01T11:59:00Z</time>
      </trkpt>
      <trkpt lat="59.7721447" lon="17.7197191">
        <ele>48.684</ele>
        <time>2014-06-01T11:59:01Z</time>
      </trkpt>
      <trkpt lat="59.772132" lon="17.7197156">
        <ele>48.684</ele>
        <time>2014-06-01T11:59:02Z</time>
      </trkpt>
      <trkpt lat="59.7721175" lon="17.7197046">
        <ele>48.684</ele>
        <time>2014-06-01T11:59:03Z</time>
      </trkpt>
      <trkpt lat="59.7721067" lon="17.7196869">
        <ele>49.1646</ele>
        <time>2014-06-01T11:59:04Z</time>
      </trkpt>
      <trkpt lat="59.7720969" lon="17.7196648">
        <ele>48.684</ele>
        <time>2014-06-01T11:59:05Z</time>
      </trkpt>
      <trkpt lat="59.7720818" lon="17.7196508">
        <ele>49.1646</ele>
        <time>2014-06-01T11:59:06Z</time>
      </trkpt>
      <trkpt lat="59.772063" lon="17.719644">
        <ele>49.1646</ele>
        <time>2014-06-01T11:59:07Z</time>
      </trkpt>
      <trkpt lat="59.772045" lon="17.7196467">
        <ele>49.1646</ele>
        <time>2014-06-01T11:59:08Z</time>
      </trkpt>
      <trkpt lat="59.7720282" lon="17.7196575">
        <ele>49.6453</ele>
        <time>2014-06-01T11:59:09Z</time>
      </trkpt>
      <trkpt lat="59.7720093" lon="17.7196708">
        <ele>49.6453</ele>
        <time>2014-06-01T11:59:10Z</time>
      </trkpt>
      <trkpt lat="59.771995" lon="17.7196794">
        <ele>50.126</ele>
        <time>2014-06-01T11:59:11Z</time>
      </trkpt>
      <trkpt lat="59.7719793" lon="17.7196887">
        <ele>50.6066</ele>
        <time>2014-06-01T11:59:12Z</time>
      </trkpt>
      <trkpt lat="59.7719583" lon="17.719689">
        <ele>50.126</ele>
        <time>2014-06-01T11:59:13Z</time>
      </trkpt>
      <trkpt lat="59.7719363" lon="17.7196943">
        <ele>50.126</ele>
        <time>2014-06-01T11:59:14Z</time>
      </trkpt>
      <trkpt lat="59.7719207" lon="17.7197051">
        <ele>49.6453</ele>
        <time>2014-06-01T11:59:15Z</time>
      </trkpt>
      <trkpt lat="59.7719049" lon="17.7197174">
        <ele>49.1646</ele>
        <time>2014-06-01T11:59:16Z</time>
      </trkpt>
      <trkpt lat="59.7718871" lon="17.7197278">
        <ele>49.1646</ele>
        <time>2014-06-01T11:59:17Z</time>
      </trkpt>
      <trkpt lat="59.7718699" lon="17.7197298">
        <ele>49.6453</ele>
        <time>2014-06-01T11:59:18Z</time>
      </trkpt>
      <trkpt lat="59.7718548" lon="17.7197216">
        <ele>49.1646</ele>
        <time>2014-06-01T11:59:19Z</time>
      </trkpt>
      <trkpt lat="59.771842" lon="17.7197163">
        <ele>48.684</ele>
        <time>2014-06-01T11:59:20Z</time>
      </trkpt>
      <trkpt lat="59.7718287" lon="17.7197181">
        <ele>49.1646</ele>
        <time>2014-06-01T11:59:21Z</time>
      </trkpt>
      <trkpt lat="59.7718139" lon="17.7197325">
        <ele>49.6453</ele>
        <time>2014-06-01T11:59:22Z</time>
      </trkpt>
      <trkpt lat="59.7718072" lon="17.7197469">
        <ele>49.6453</ele>
        <time>2014-06-01T11:59:23Z</time>
      </trkpt>
      <trkpt lat="59.7718018" lon="17.7197749">
        <ele>50.6066</ele>
        <time>2014-06-01T11:59:24Z</time>
      </trkpt>
      <trkpt lat="59.771802" lon="17.7198047">
        <ele>51.0872</ele>
        <time>2014-06-01T11:59:25Z</time>
      </trkpt>
      <trkpt lat="59.7718014" lon="17.7198362">
        <ele>51.5679</ele>
        <time>2014-06-01T11:59:26Z</time>
      </trkpt>
      <trkpt lat="59.7717917" lon="17.7198686">
        <ele>52.5292</ele>
        <time>2014-06-01T11:59:27Z</time>
      </trkpt>
      <trkpt lat="59.7717817" lon="17.7199026">
        <ele>53.0098</ele>
        <time>2014-06-01T11:59:28Z</time>
      </trkpt>
      <trkpt lat="59.7717689" lon="17.7199446">
        <ele>53.9712</ele>
        <time>2014-06-01T11:59:29Z</time>
      </trkpt>
      <trkpt lat="59.7717537" lon="17.7199787">
        <ele>54.4518</ele>
        <time>2014-06-01T11:59:30Z</time>
      </trkpt>
      <trkpt lat="59.7717381" lon="17.7200175">
        <ele>53.9712</ele>
        <time>2014-06-01T11:59:31Z</time>
      </trkpt>
      <trkpt lat="59.7717246" lon="17.7200667">
        <ele>53.9712</ele>
        <time>2014-06-01T11:59:32Z</time>
      </trkpt>
      <trkpt lat="59.7717165" lon="17.7201051">
        <ele>53.4905</ele>
        <time>2014-06-01T11:59:33Z</time>
      </trkpt>
      <trkpt lat="59.7717027" lon="17.7201368">
        <ele>53.4905</ele>
        <time>2014-06-01T11:59:34Z</time>
      </trkpt>
      <trkpt lat="59.7716848" lon="17.7201596">
        <ele>53.4905</ele>
        <time>2014-06-01T11:59:35Z</time>
      </trkpt>
      <trkpt lat="59.771668" lon="17.7201789">
        <ele>52.5292</ele>
        <time>2014-06-01T11:59:36Z</time>
      </trkpt>
      <trkpt lat="59.7716571" lon="17.7202035">
        <ele>52.0486</ele>
        <time>2014-06-01T11:59:37Z</time>
      </trkpt>
      <trkpt lat="59.771645" lon="17.7202302">
        <ele>52.0486</ele>
        <time>2014-06-01T11:59:38Z</time>
      </trkpt>
      <trkpt lat="59.7716264" lon="17.7202574">
        <ele>51.5679</ele>
        <time>2014-06-01T11:59:39Z</time>
      </trkpt>
      <trkpt lat="59.7716053" lon="17.7202792">
        <ele>51.5679</ele>
        <time>2014-06-01T11:59:40Z</time>
      </trkpt>
      <trkpt lat="59.7715858" lon="17.720288">
        <ele>51.0872</ele>
        <time>2014-06-01T11:59:41Z</time>
      </trkpt>
      <trkpt lat="59.7715668" lon="17.7202951">
        <ele>50.6066</ele>
        <time>2014-06-01T11:59:42Z</time>
      </trkpt>
      <trkpt lat="59.771546" lon="17.7203112">
        <ele>51.5679</ele>
        <time>2014-06-01T11:59:43Z</time>
      </trkpt>
      <trkpt lat="59.7715254" lon="17.7203335">
        <ele>52.5292</ele>
        <time>2014-06-01T11:59:44Z</time>
      </trkpt>
      <trkpt lat="59.7715099" lon="17.7203444">
        <ele>51.5679</ele>
        <time>2014-06-01T11:59:45Z</time>
      </trkpt>
      <trkpt lat="59.7714986" lon="17.720358">
        <ele>50.6066</ele>
        <time>2014-06-01T11:59:46Z</time>
      </trkpt>
      <trkpt lat="59.7714897" lon="17.7203677">
        <ele>50.126</ele>
        <time>2014-06-01T11:59:47Z</time>
      </trkpt>
      <trkpt lat="59.7714806" lon="17.7203748">
        <ele>49.1646</ele>
        <time>2014-06-01T11:59:48Z</time>
      </trkpt>
      <trkpt lat="59.77147" lon="17.7203848">
        <ele>48.684</ele>
        <time>2014-06-01T11:59:49Z</time>
      </trkpt>
      <trkpt lat="59.7714574" lon="17.7204034">
        <ele>48.2034</ele>
        <time>2014-06-01T11:59:50Z</time>
      </trkpt>
      <trkpt lat="59.7714441" lon="17.7204284">
        <ele>47.2418</ele>
        <time>2014-06-01T11:59:51Z</time>
      </trkpt>
      <trkpt lat="59.7714327" lon="17.7204551">
        <ele>46.7612</ele>
        <time>2014-06-01T11:59:52Z</time>
      </trkpt>
      <trkpt lat="59.7714227" lon="17.7204832">
        <ele>45.7999</ele>
        <time>2014-06-01T11:59:53Z</time>
      </trkpt>
      <trkpt lat="59.7714133" lon="17.7205106">
        <ele>45.3192</ele>
        <time>2014-06-01T11:59:54Z</time>
      </trkpt>
      <trkpt lat="59.7714042" lon="17.7205371">
        <ele>44.8386</ele>
        <time>2014-06-01T11:59:55Z</time>
      </trkpt>
      <trkpt lat="59.771398" lon="17.7205599">
        <ele>44.358</ele>
        <time>2014-06-01T11:59:56Z</time>
      </trkpt>
      <trkpt lat="59.7713938" lon="17.7205854">
        <ele>42.916</ele>
        <time>2014-06-01T11:59:57Z</time>
      </trkpt>
      <trkpt lat="59.7713907" lon="17.7206183">
        <ele>42.4354</ele>
        <time>2014-06-01T11:59:58Z</time>
      </trkpt>
      <trkpt lat="59.7713855" lon="17.7206453">
        <ele>41.9547</ele>
        <time>2014-06-01T11:59:59Z</time>
      </trkpt>
      <trkpt lat="59.771381" lon="17.7206661">
        <ele>41.474</ele>
        <time>2014-06-01T12:00:00Z</time>
      </trkpt>
      <trkpt lat="59.7713774" lon="17.7206895">
        <ele>40.9934</ele>
        <time>2014-06-01T12:00:01Z</time>
      </trkpt>
      <trkpt lat="59.7713727" lon="17.7207218">
        <ele>40.9934</ele>
        <time>2014-06-01T12:00:02Z</time>
      </trkpt>
      <trkpt lat="59.7713644" lon="17.7207577">
        <ele>40.9934</ele>
        <time>2014-06-01T12:00:03Z</time>
      </trkpt>
      <trkpt lat="59.7713496" lon="17.7207874">
        <ele>40.0321</ele>
        <time>2014-06-01T12:00:04Z</time>
      </trkpt>
      <trkpt lat="59.771338" lon="17.7208128">
        <ele>40.0321</ele>
        <time>2014-06-01T12:00:05Z</time>
      </trkpt>
      <trkpt lat="59.7713292" lon="17.7208382">
        <ele>39.5513</ele>
        <time>2014-06-01T12:00:06Z</time>
      </trkpt>
      <trkpt lat="59.7713218" lon="17.7208608">
        <ele>40.0321</ele>
        <time>2014-06-01T12:00:07Z</time>
      </trkpt>
      <trkpt lat="59.7713136" lon="17.7208785">
        <ele>40.0321</ele>
        <time>2014-06-01T12:00:08Z</time>
      </trkpt>
      <trkpt lat="59.7713058" lon="17.7209008">
        <ele>40.0321</ele>
        <time>2014-06-01T12:00:09Z</time>
      </trkpt>
      <trkpt lat="59.771297" lon="17.7209183">
        <ele>40.0321</ele>
        <time>2014-06-01T12:00:10Z</time>
      </trkpt>
      <trkpt lat="59.7712866" lon="17.7209432">
        <ele>40.0321</ele>
        <time>2014-06-01T12:00:11Z</time>
      </trkpt>
      <trkpt lat="59.7712778" lon="17.7209717">
        <ele>40.5128</ele>
        <time>2014-06-01T12:00:12Z</time>
      </trkpt>
      <trkpt lat="59.7712685" lon="17.7210028">
        <ele>40.0321</ele>
        <time>2014-06-01T12:00:13Z</time>
      </trkpt>
      <trkpt lat="59.7712584" lon="17.721036">
        <ele>40.5128</ele>
        <time>2014-06-01T12:00:14Z</time>
      </trkpt>
      <trkpt lat="59.7712477" lon="17.7210561">
        <ele>40.5128</ele>
        <time>2014-06-01T12:00:15Z</time>
      </trkpt>
      <trkpt lat="59.7712396" lon="17.7210797">
        <ele>40.9934</ele>
        <time>2014-06-01T12:00:16Z</time>
      </trkpt>
      <trkpt lat="59.7712349" lon="17.7211062">
        <ele>40.9934</ele>
        <time>2014-06-01T12:00:17Z</time>
      </trkpt>
      <trkpt lat="59.7712301" lon="17.7211385">
        <ele>40.9934</ele>
        <time>2014-06-01T12:00:18Z</time>
      </trkpt>
      <trkpt lat="59.7712249" lon="17.721172">
        <ele>40.9934</ele>
        <time>2014-06-01T12:00:19Z</time>
      </trkpt>
      <trkpt lat="59.7712186" lon="17.7212065">
        <ele>40.9934</ele>
        <time>2014-06-01T12:00:20Z</time>
      </trkpt>
      <trkpt lat="59.7712118" lon="17.7212427">
        <ele>40.9934</ele>
        <time>2014-06-01T12:00:21Z</time>
      </trkpt>
      <trkpt lat="59.7712061" lon="17.7212787">
        <ele>40.9934</ele>
        <time>2014-06-01T12:00:22Z</time>
      </trkpt>
      <trkpt lat="59.7711991" lon="17.721316">
        <ele>40.9934</ele>
        <time>2014-06-01T12:00:23Z</time>
      </trkpt>
      <trkpt lat="59.7711926" lon="17.7213504">
        <ele>40.9934</ele>
        <time>2014-06-01T12:00:24Z</time>
      </trkpt>
      <trkpt lat="59.771185" lon="17.7213856">
        <ele>41.474</ele>
        <time>2014-06-01T12:00:25Z</time>
      </trkpt>
      <trkpt lat="59.7711753" lon="17.7214209">
        <ele>41.474</ele>
        <time>2014-06-01T12:00:26Z</time>
      </trkpt>
      <trkpt lat="59.7711643" lon="17.721457">
        <ele>41.474</ele>
        <time>2014-06-01T12:00:27Z</time>
      </trkpt>
      <trkpt lat="59.7711501" lon="17.7214907">
        <ele>41.9547</ele>
        <time>2014-06-01T12:00:28Z</time>
      </trkpt>
      <trkpt lat="59.7711343" lon="17.7215208">
        <ele>41.9547</ele>
        <time>2014-06-01T12:00:29Z</time>
      </trkpt>
      <trkpt lat="59.7711177" lon="17.7215501">
        <ele>41.9547</ele>
        <time>2014-06-01T12:00:30Z</time>
      </trkpt>
      <trkpt lat="59.7711004" lon="17.7215827">
        <ele>41.9547</ele>
        <time>2014-06-01T12:00:31Z</time>
      </trkpt>
      <trkpt lat="59.7710804" lon="17.7216164">
        <ele>42.4354</ele>
        <time>2014-06-01T12:00:32Z</time>
      </trkpt>
      <trkpt lat="59.7710543" lon="17.721672">
        <ele>44.358</ele>
        <time>2014-06-01T12:00:33Z</time>
      </trkpt>
      <trkpt lat="59.7710275" lon="17.7217119">
        <ele>46.2806</ele>
        <time>2014-06-01T12:00:34Z</time>
      </trkpt>
      <trkpt lat="59.7710039" lon="17.7217388">
        <ele>46.7612</ele>
        <time>2014-06-01T12:00:35Z</time>
      </trkpt>
      <trkpt lat="59.7709924" lon="17.721753">
        <ele>47.2418</ele>
        <time>2014-06-01T12:00:36Z</time>
      </trkpt>
      <trkpt lat="59.7709881" lon="17.7217622">
        <ele>47.2418</ele>
        <time>2014-06-01T12:00:37Z</time>
      </trkpt>
      <trkpt lat="59.7709872" lon="17.721773">
        <ele>47.2418</ele>
        <time>2014-06-01T12:00:38Z</time>
      </trkpt>
      <trkpt lat="59.7709866" lon="17.7217832">
        <ele>46.7612</ele>
        <time>2014-06-01T12:00:39Z</time>
      </trkpt>
      <trkpt lat="59.7709829" lon="17.7217985">
        <ele>46.7612</ele>
        <time>2014-06-01T12:00:40Z</time>
      </trkpt>
      <trkpt lat="59.7709728" lon="17.7218189">
        <ele>47.7225</ele>
        <time>2014-06-01T12:00:41Z</time>
      </trkpt>
      <trkpt lat="59.7709608" lon="17.7218306">
        <ele>48.684</ele>
        <time>2014-06-01T12:00:42Z</time>
      </trkpt>
      <trkpt lat="59.7709554" lon="17.7218348">
        <ele>49.6453</ele>
        <time>2014-06-01T12:00:43Z</time>
      </trkpt>
      <trkpt lat="59.770957" lon="17.7218337">
        <ele>49.6453</ele>
        <time>2014-06-01T12:00:44Z</time>
      </trkpt>
      <trkpt lat="59.7709587" lon="17.7218326">
        <ele>49.6453</ele>
        <time>2014-06-01T12:00:45Z</time>
      </trkpt>
      <trkpt lat="59.7709435" lon="17.7218289">
        <ele>51.5679</ele>
        <time>2014-06-01T12:02:43Z</time>
      </trkpt>
      <trkpt lat="59.770937" lon="17.7218265">
        <ele>51.0872</ele>
        <time>2014-06-01T12:02:44Z</time>
      </trkpt>
      <trkpt lat="59.7709326" lon="17.7218234">
        <ele>51.0872</ele>
        <time>2014-06-01T12:02:45Z</time>
      </trkpt>
      <trkpt lat="59.7709295" lon="17.7218216">
        <ele>50.6066</ele>
        <time>2014-06-01T12:02:46Z</time>
      </trkpt>
      <trkpt lat="59.7709276" lon="17.7218212">
        <ele>50.6066</ele>
        <time>2014-06-01T12:02:47Z</time>
      </trkpt>
      <trkpt lat="59.7709976" lon="17.7217482">
        <ele>48.684</ele>
        <time>2014-06-01T12:17:40Z</time>
      </trkpt>
      <trkpt lat="59.7710189" lon="17.7217187">
        <ele>48.684</ele>
        <time>2014-06-01T12:17:41Z</time>
      </trkpt>
      <trkpt lat="59.771038" lon="17.7216913">
        <ele>48.684</ele>
        <time>2014-06-01T12:17:42Z</time>
      </trkpt>
      <trkpt lat="59.7710557" lon="17.7216698">
        <ele>48.684</ele>
        <time>2014-06-01T12:17:43Z</time>
      </trkpt>
      <trkpt lat="59.7710716" lon="17.7216522">
        <ele>48.684</ele>
        <time>2014-06-01T12:17:44Z</time>
      </trkpt>
      <trkpt lat="59.7710856" lon="17.7216378">
        <ele>48.684</ele>
        <time>2014-06-01T12:17:45Z</time>
      </trkpt>
      <trkpt lat="59.7710983" lon="17.7216259">
        <ele>48.684</ele>
        <time>2014-06-01T12:17:46Z</time>
      </trkpt>
      <trkpt lat="59.7711115" lon="17.7216108">
        <ele>48.684</ele>
        <time>2014-06-01T12:17:47Z</time>
      </trkpt>
      <trkpt lat="59.7711212" lon="17.7215919">
        <ele>48.2034</ele>
        <time>2014-06-01T12:17:48Z</time>
      </trkpt>
      <trkpt lat="59.77113" lon="17.7215771">
        <ele>48.2034</ele>
        <time>2014-06-01T12:17:49Z</time>
      </trkpt>
      <trkpt lat="59.771137" lon="17.7215636">
        <ele>49.1646</ele>
        <time>2014-06-01T12:17:50Z</time>
      </trkpt>
      <trkpt lat="59.7711393" lon="17.7215566">
        <ele>49.6453</ele>
        <time>2014-06-01T12:17:51Z</time>
      </trkpt>
      <trkpt lat="59.7711395" lon="17.7215546">
        <ele>49.6453</ele>
        <time>2014-06-01T12:17:52Z</time>
      </trkpt>
      <trkpt lat="59.7711372" lon="17.7215511">
        <ele>49.6453</ele>
        <time>2014-06-01T12:17:53Z</time>
      </trkpt>
      <trkpt lat="59.7710668" lon="17.721558">
        <ele>48.684</ele>
        <time>2014-06-01T12:18:00Z</time>
      </trkpt>
      <trkpt lat="59.7710569" lon="17.7215373">
        <ele>48.2034</ele>
        <time>2014-06-01T12:18:01Z</time>
      </trkpt>
      <trkpt lat="59.7710514" lon="17.7215135">
        <ele>48.2034</ele>
        <time>2014-06-01T12:18:02Z</time>
      </trkpt>
      <trkpt lat="59.7710489" lon="17.7214882">
        <ele>48.2034</ele>
        <time>2014-06-01T12:18:03Z</time>
      </trkpt>
      <trkpt lat="59.7710483" lon="17.7214642">
        <ele>48.2034</ele>
        <time>2014-06-01T12:18:04Z</time>
      </trkpt>
      <trkpt lat="59.7710483" lon="17.72144">
        <ele>48.684</ele>
        <time>2014-06-01T12:18:05Z</time>
      </trkpt>
      <trkpt lat="59.7710488" lon="17.7214175">
        <ele>48.684</ele>
        <time>2014-06-01T12:18:06Z</time>
      </trkpt>
      <trkpt lat="59.7710486" lon="17.7213973">
        <ele>48.684</ele>
        <time>2014-06-01T12:18:07Z</time>
      </trkpt>
      <trkpt lat="59.7710465" lon="17.7213783">
        <ele>48.684</ele>
        <time>2014-06-01T12:18:08Z</time>
      </trkpt>
      <trkpt lat="59.7710419" lon="17.7213598">
        <ele>48.2034</ele>
        <time>2014-06-01T12:18:09Z</time>
      </trkpt>
      <trkpt lat="59.7710367" lon="17.7213405">
        <ele>48.684</ele>
        <time>2014-06-01T12:18:10Z</time>
      </trkpt>
      <trkpt lat="59.7710294" lon="17.7213203">
        <ele>48.684</ele>
        <time>2014-06-01T12:18:11Z</time>
      </trkpt>
      <trkpt lat="59.7710228" lon="17.7213009">
        <ele>48.684</ele>
        <time>2014-06-01T12:18:12Z</time>
      </trkpt>
      <trkpt lat="59.771016" lon="17.7212793">
        <ele>48.684</ele>
        <time>2014-06-01T12:18:13Z</time>
      </trkpt>
      <trkpt lat="59.7710111" lon="17.721257">
        <ele>48.684</ele>
        <time>2014-06-01T12:18:14Z</time>
      </trkpt>
      <trkpt lat="59.7710079" lon="17.7212362">
        <ele>49.1646</ele>
        <time>2014-06-01T12:18:15Z</time>
      </trkpt>
      <trkpt lat="59.7710013" lon="17.7212105">
        <ele>48.684</ele>
        <time>2014-06-01T12:18:16Z</time>
      </trkpt>
      <trkpt lat="59.7709986" lon="17.7211965">
        <ele>48.684</ele>
        <time>2014-06-01T12:18:17Z</time>
      </trkpt>
      <trkpt lat="59.7709959" lon="17.7211918">
        <ele>48.684</ele>
        <time>2014-06-01T12:18:18Z</time>
      </trkpt>
      <trkpt lat="59.770993" lon="17.7211878">
        <ele>48.2034</ele>
        <time>2014-06-01T12:18:19Z</time>
      </trkpt>
      <trkpt lat="59.7710124" lon="17.7212606">
        <ele>51.0872</ele>
        <time>2014-06-01T12:19:47Z</time>
      </trkpt>
      <trkpt lat="59.7710234" lon="17.7212987">
        <ele>51.0872</ele>
        <time>2014-06-01T12:19:48Z</time>
      </trkpt>
      <trkpt lat="59.7710395" lon="17.7213374">
        <ele>51.0872</ele>
        <time>2014-06-01T12:19:49Z</time>
      </trkpt>
      <trkpt lat="59.7710535" lon="17.7213688">
        <ele>51.5679</ele>
        <time>2014-06-01T12:19:50Z</time>
      </trkpt>
      <trkpt lat="59.7710662" lon="17.721384">
        <ele>51.5679</ele>
        <time>2014-06-01T12:19:51Z</time>
      </trkpt>
      <trkpt lat="59.7710839" lon="17.7213855">
        <ele>51.5679</ele>
        <time>2014-06-01T12:19:52Z</time>
      </trkpt>
      <trkpt lat="59.7711066" lon="17.7213866">
        <ele>52.0486</ele>
        <time>2014-06-01T12:19:53Z</time>
      </trkpt>
      <trkpt lat="59.7711296" lon="17.7213731">
        <ele>51.5679</ele>
        <time>2014-06-01T12:19:54Z</time>
      </trkpt>
      <trkpt lat="59.7711524" lon="17.7213446">
        <ele>51.0872</ele>
        <time>2014-06-01T12:19:55Z</time>
      </trkpt>
      <trkpt lat="59.7711763" lon="17.7213193">
        <ele>50.6066</ele>
        <time>2014-06-01T12:19:56Z</time>
      </trkpt>
      <trkpt lat="59.7712019" lon="17.7212923">
        <ele>49.6453</ele>
        <time>2014-06-01T12:19:57Z</time>
      </trkpt>
      <trkpt lat="59.7712292" lon="17.7212483">
        <ele>50.126</ele>
        <time>2014-06-01T12:19:58Z</time>
      </trkpt>
      <trkpt lat="59.7712502" lon="17.7212007">
        <ele>49.6453</ele>
        <time>2014-06-01T12:19:59Z</time>
      </trkpt>
      <trkpt lat="59.7712631" lon="17.7211603">
        <ele>49.1646</ele>
        <time>2014-06-01T12:20:00Z</time>
      </trkpt>
      <trkpt lat="59.7712649" lon="17.7211327">
        <ele>48.2034</ele>
        <time>2014-06-01T12:20:01Z</time>
      </trkpt>
      <trkpt lat="59.771269" lon="17.7211191">
        <ele>48.684</ele>
        <time>2014-06-01T12:20:02Z</time>
      </trkpt>
      <trkpt lat="59.7712695" lon="17.7211012">
        <ele>47.7225</ele>
        <time>2014-06-01T12:20:03Z</time>
      </trkpt>
      <trkpt lat="59.7712745" lon="17.7210877">
        <ele>48.2034</ele>
        <time>2014-06-01T12:20:04Z</time>
      </trkpt>
      <trkpt lat="59.7712788" lon="17.7210763">
        <ele>48.2034</ele>
        <time>2014-06-01T12:20:05Z</time>
      </trkpt>
      <trkpt lat="59.7712765" lon="17.7210561">
        <ele>47.7225</ele>
        <time>2014-06-01T12:20:06Z</time>
      </trkpt>
      <trkpt lat="59.7712751" lon="17.7210375">
        <ele>46.7612</ele>
        <time>2014-06-01T12:20:07Z</time>
      </trkpt>
      <trkpt lat="59.7712701" lon="17.7210131">
        <ele>45.7999</ele>
        <time>2014-06-01T12:20:08Z</time>
      </trkpt>
      <trkpt lat="59.7712665" lon="17.7209908">
        <ele>44.8386</ele>
        <time>2014-06-01T12:20:09Z</time>
      </trkpt>
      <trkpt lat="59.7712634" lon="17.7209712">
        <ele>43.8773</ele>
        <time>2014-06-01T12:20:10Z</time>
      </trkpt>
      <trkpt lat="59.7712618" lon="17.7209528">
        <ele>42.916</ele>
        <time>2014-06-01T12:20:11Z</time>
      </trkpt>
      <trkpt lat="59.771261" lon="17.7209287">
        <ele>41.9547</ele>
        <time>2014-06-01T12:20:12Z</time>
      </trkpt>
      <trkpt lat="59.7712597" lon="17.7208995">
        <ele>40.9934</ele>
        <time>2014-06-01T12:20:13Z</time>
      </trkpt>
      <trkpt lat="59.7712621" lon="17.7208715">
        <ele>40.5128</ele>
        <time>2014-06-01T12:20:14Z</time>
      </trkpt>
      <trkpt lat="59.7712714" lon="17.7208505">
        <ele>40.5128</ele>
        <time>2014-06-01T12:20:15Z</time>
      </trkpt>
      <trkpt lat="59.7712793" lon="17.7208273">
        <ele>40.9934</ele>
        <time>2014-06-01T12:20:16Z</time>
      </trkpt>
      <trkpt lat="59.771285" lon="17.7208003">
        <ele>41.474</ele>
        <time>2014-06-01T12:20:17Z</time>
      </trkpt>
      <trkpt lat="59.7712923" lon="17.7207795">
        <ele>41.474</ele>
        <time>2014-06-01T12:20:18Z</time>
      </trkpt>
      <trkpt lat="59.7713004" lon="17.7207527">
        <ele>41.474</ele>
        <time>2014-06-01T12:20:19Z</time>
      </trkpt>
      <trkpt lat="59.7713098" lon="17.7207277">
        <ele>41.9547</ele>
        <time>2014-06-01T12:20:20Z</time>
      </trkpt>
      <trkpt lat="59.7713144" lon="17.7207059">
        <ele>41.9547</ele>
        <time>2014-06-01T12:20:21Z</time>
      </trkpt>
      <trkpt lat="59.7713181" lon="17.7206852">
        <ele>41.474</ele>
        <time>2014-06-01T12:20:22Z</time>
      </trkpt>
      <trkpt lat="59.7713297" lon="17.7206653">
        <ele>42.4354</ele>
        <time>2014-06-01T12:20:23Z</time>
      </trkpt>
      <trkpt lat="59.7713403" lon="17.7206418">
        <ele>42.916</ele>
        <time>2014-06-01T12:20:24Z</time>
      </trkpt>
      <trkpt lat="59.7713468" lon="17.7206168">
        <ele>42.916</ele>
        <time>2014-06-01T12:20:25Z</time>
      </trkpt>
      <trkpt lat="59.7713532" lon="17.720598">
        <ele>43.3966</ele>
        <time>2014-06-01T12:20:26Z</time>
      </trkpt>
      <trkpt lat="59.7713558" lon="17.7205817">
        <ele>44.358</ele>
        <time>2014-06-01T12:20:27Z</time>
      </trkpt>
      <trkpt lat="59.7713534" lon="17.7205656">
        <ele>43.8773</ele>
        <time>2014-06-01T12:20:28Z</time>
      </trkpt>
      <trkpt lat="59.7713542" lon="17.7205505">
        <ele>43.3966</ele>
        <time>2014-06-01T12:20:29Z</time>
      </trkpt>
      <trkpt lat="59.7713602" lon="17.7205341">
        <ele>43.8773</ele>
        <time>2014-06-01T12:20:30Z</time>
      </trkpt>
      <trkpt lat="59.7713679" lon="17.7205179">
        <ele>43.8773</ele>
        <time>2014-06-01T12:20:31Z</time>
      </trkpt>
      <trkpt lat="59.7713739" lon="17.7205033">
        <ele>43.8773</ele>
        <time>2014-06-01T12:20:32Z</time>
      </trkpt>
      <trkpt lat="59.7713776" lon="17.7204905">
        <ele>43.3966</ele>
        <time>2014-06-01T12:20:33Z</time>
      </trkpt>
      <trkpt lat="59.7713855" lon="17.7204651">
        <ele>42.916</ele>
        <time>2014-06-01T12:20:34Z</time>
      </trkpt>
      <trkpt lat="59.7713969" lon="17.7204418">
        <ele>42.916</ele>
        <time>2014-06-01T12:20:35Z</time>
      </trkpt>
      <trkpt lat="59.7714056" lon="17.7204291">
        <ele>42.4354</ele>
        <time>2014-06-01T12:20:36Z</time>
      </trkpt>
      <trkpt lat="59.7714161" lon="17.7204221">
        <ele>42.4354</ele>
        <time>2014-06-01T12:20:37Z</time>
      </trkpt>
      <trkpt lat="59.7714242" lon="17.7204111">
        <ele>41.9547</ele>
        <time>2014-06-01T12:20:38Z</time>
      </trkpt>
      <trkpt lat="59.7714338" lon="17.7204029">
        <ele>41.9547</ele>
        <time>2014-06-01T12:20:39Z</time>
      </trkpt>
      <trkpt lat="59.7714416" lon="17.7203899">
        <ele>41.474</ele>
        <time>2014-06-01T12:20:40Z</time>
      </trkpt>
      <trkpt lat="59.7714524" lon="17.7203764">
        <ele>40.9934</ele>
        <time>2014-06-01T12:20:41Z</time>
      </trkpt>
      <trkpt lat="59.7714675" lon="17.7203699">
        <ele>40.9934</ele>
        <time>2014-06-01T12:20:42Z</time>
      </trkpt>
      <trkpt lat="59.7714807" lon="17.7203664">
        <ele>40.9934</ele>
        <time>2014-06-01T12:20:43Z</time>
      </trkpt>
      <trkpt lat="59.7714946" lon="17.7203703">
        <ele>40.9934</ele>
        <time>2014-06-01T12:20:44Z</time>
      </trkpt>
      <trkpt lat="59.771513" lon="17.7203751">
        <ele>41.9547</ele>
        <time>2014-06-01T12:20:45Z</time>
      </trkpt>
      <trkpt lat="59.7715249" lon="17.7203703">
        <ele>42.4354</ele>
        <time>2014-06-01T12:20:46Z</time>
      </trkpt>
      <trkpt lat="59.7715331" lon="17.7203578">
        <ele>42.4354</ele>
        <time>2014-06-01T12:20:47Z</time>
      </trkpt>
      <trkpt lat="59.7715379" lon="17.7203423">
        <ele>42.4354</ele>
        <time>2014-06-01T12:20:48Z</time>
      </trkpt>
      <trkpt lat="59.7715482" lon="17.7203256">
        <ele>41.9547</ele>
        <time>2014-06-01T12:20:49Z</time>
      </trkpt>
      <trkpt lat="59.7715592" lon="17.7203069">
        <ele>41.9547</ele>
        <time>2014-06-01T12:20:50Z</time>
      </trkpt>
      <trkpt lat="59.7715674" lon="17.7202887">
        <ele>41.474</ele>
        <time>2014-06-01T12:20:51Z</time>
      </trkpt>
      <trkpt lat="59.7715706" lon="17.7202681">
        <ele>40.9934</ele>
        <time>2014-06-01T12:20:52Z</time>
      </trkpt>
      <trkpt lat="59.7715806" lon="17.7202522">
        <ele>40.9934</ele>
        <time>2014-06-01T12:20:53Z</time>
      </trkpt>
      <trkpt lat="59.7715953" lon="17.7202392">
        <ele>40.9934</ele>
        <time>2014-06-01T12:20:54Z</time>
      </trkpt>
      <trkpt lat="59.7716105" lon="17.7202297">
        <ele>40.5128</ele>
        <time>2014-06-01T12:20:55Z</time>
      </trkpt>
      <trkpt lat="59.7716236" lon="17.7202184">
        <ele>40.5128</ele>
        <time>2014-06-01T12:20:56Z</time>
      </trkpt>
      <trkpt lat="59.7716321" lon="17.7201931">
        <ele>40.0321</ele>
        <time>2014-06-01T12:20:57Z</time>
      </trkpt>
      <trkpt lat="59.7716381" lon="17.7201608">
        <ele>38.5901</ele>
        <time>2014-06-01T12:20:58Z</time>
      </trkpt>
      <trkpt lat="59.7716436" lon="17.7201308">
        <ele>38.5901</ele>
        <time>2014-06-01T12:20:59Z</time>
      </trkpt>
      <trkpt lat="59.7716502" lon="17.7200957">
        <ele>37.6287</ele>
        <time>2014-06-01T12:21:00Z</time>
      </trkpt>
      <trkpt lat="59.7716635" lon="17.7200683">
        <ele>37.6287</ele>
        <time>2014-06-01T12:21:01Z</time>
      </trkpt>
      <trkpt lat="59.7716716" lon="17.7200391">
        <ele>37.1481</ele>
        <time>2014-06-01T12:21:02Z</time>
      </trkpt>
      <trkpt lat="59.7716806" lon="17.7200095">
        <ele>36.6675</ele>
        <time>2014-06-01T12:21:03Z</time>
      </trkpt>
      <trkpt lat="59.7716937" lon="17.7199816">
        <ele>36.6675</ele>
        <time>2014-06-01T12:21:04Z</time>
      </trkpt>
      <trkpt lat="59.771703" lon="17.71995">
        <ele>36.1868</ele>
        <time>2014-06-01T12:21:05Z</time>
      </trkpt>
      <trkpt lat="59.7717148" lon="17.719921">
        <ele>36.6675</ele>
        <time>2014-06-01T12:21:06Z</time>
      </trkpt>
      <trkpt lat="59.7717215" lon="17.7198896">
        <ele>36.1868</ele>
        <time>2014-06-01T12:21:07Z</time>
      </trkpt>
      <trkpt lat="59.7717272" lon="17.7198544">
        <ele>35.7061</ele>
        <time>2014-06-01T12:21:08Z</time>
      </trkpt>
      <trkpt lat="59.7717402" lon="17.7198288">
        <ele>35.2255</ele>
        <time>2014-06-01T12:21:09Z</time>
      </trkpt>
      <trkpt lat="59.771757" lon="17.7198135">
        <ele>35.7061</ele>
        <time>2014-06-01T12:21:10Z</time>
      </trkpt>
      <trkpt lat="59.771775" lon="17.7198057">
        <ele>35.7061</ele>
        <time>2014-06-01T12:21:11Z</time>
      </trkpt>
      <trkpt lat="59.7717871" lon="17.7198014">
        <ele>35.7061</ele>
        <time>2014-06-01T12:21:12Z</time>
      </trkpt>
      <trkpt lat="59.7717988" lon="17.7198011">
        <ele>36.1868</ele>
        <time>2014-06-01T12:21:13Z</time>
      </trkpt>
      <trkpt lat="59.7718096" lon="17.7197984">
        <ele>36.1868</ele>
        <time>2014-06-01T12:21:14Z</time>
      </trkpt>
      <trkpt lat="59.7718211" lon="17.7197899">
        <ele>36.1868</ele>
        <time>2014-06-01T12:21:15Z</time>
      </trkpt>
      <trkpt lat="59.7718329" lon="17.7197781">
        <ele>36.1868</ele>
        <time>2014-06-01T12:21:16Z</time>
      </trkpt>
      <trkpt lat="59.7718451" lon="17.7197663">
        <ele>36.6675</ele>
        <time>2014-06-01T12:21:17Z</time>
      </trkpt>
      <trkpt lat="59.7718569" lon="17.7197542">
        <ele>37.1481</ele>
        <time>2014-06-01T12:21:18Z</time>
      </trkpt>
      <trkpt lat="59.7718686" lon="17.7197414">
        <ele>37.1481</ele>
        <time>2014-06-01T12:21:19Z</time>
      </trkpt>
      <trkpt lat="59.7718849" lon="17.7197348">
        <ele>37.6287</ele>
        <time>2014-06-01T12:21:20Z</time>
      </trkpt>
      <trkpt lat="59.7719024" lon="17.7197316">
        <ele>38.1094</ele>
        <time>2014-06-01T12:21:21Z</time>
      </trkpt>
      <trkpt lat="59.7719173" lon="17.7197267">
        <ele>38.1094</ele>
        <time>2014-06-01T12:21:22Z</time>
      </trkpt>
      <trkpt lat="59.771932" lon="17.719717">
        <ele>38.1094</ele>
        <time>2014-06-01T12:21:23Z</time>
      </trkpt>
      <trkpt lat="59.7719429" lon="17.7197022">
        <ele>38.1094</ele>
        <time>2014-06-01T12:21:24Z</time>
      </trkpt>
      <trkpt lat="59.7719553" lon="17.7196864">
        <ele>38.1094</ele>
        <time>2014-06-01T12:21:25Z</time>
      </trkpt>
      <trkpt lat="59.7719704" lon="17.7196813">
        <ele>38.1094</ele>
        <time>2014-06-01T12:21:26Z</time>
      </trkpt>
      <trkpt lat="59.7719862" lon="17.7196864">
        <ele>39.0707</ele>
        <time>2014-06-01T12:21:27Z</time>
      </trkpt>
      <trkpt lat="59.7720066" lon="17.7196954">
        <ele>40.5128</ele>
        <time>2014-06-01T12:21:28Z</time>
      </trkpt>
      <trkpt lat="59.7720277" lon="17.7197067">
        <ele>42.916</ele>
        <time>2014-06-01T12:21:29Z</time>
      </trkpt>
      <trkpt lat="59.772046" lon="17.719717">
        <ele>44.358</ele>
        <time>2014-06-01T12:21:30Z</time>
      </trkpt>
      <trkpt lat="59.7720585" lon="17.7197296">
        <ele>45.7999</ele>
        <time>2014-06-01T12:21:31Z</time>
      </trkpt>
      <trkpt lat="59.7720698" lon="17.7197381">
        <ele>46.7612</ele>
        <time>2014-06-01T12:21:32Z</time>
      </trkpt>
      <trkpt lat="59.7720848" lon="17.7197376">
        <ele>47.7225</ele>
        <time>2014-06-01T12:21:33Z</time>
      </trkpt>
      <trkpt lat="59.7721017" lon="17.7197366">
        <ele>49.1646</ele>
        <time>2014-06-01T12:21:34Z</time>
      </trkpt>
      <trkpt lat="59.7721207" lon="17.7197357">
        <ele>50.126</ele>
        <time>2014-06-01T12:21:35Z</time>
      </trkpt>
      <trkpt lat="59.7721313" lon="17.7197377">
        <ele>50.126</ele>
        <time>2014-06-01T12:21:36Z</time>
      </trkpt>
      <trkpt lat="59.7721423" lon="17.7197381">
        <ele>50.126</ele>
        <time>2014-06-01T12:21:37Z</time>
      </trkpt>
      <trkpt lat="59.7721532" lon="17.7197409">
        <ele>49.6453</ele>
        <time>2014-06-01T12:21:38Z</time>
      </trkpt>
      <trkpt lat="59.7721691" lon="17.719744">
        <ele>51.0872</ele>
        <time>2014-06-01T12:21:39Z</time>
      </trkpt>
      <trkpt lat="59.7721838" lon="17.7197418">
        <ele>51.5679</ele>
        <time>2014-06-01T12:21:40Z</time>
      </trkpt>
      <trkpt lat="59.7721965" lon="17.719735">
        <ele>52.0486</ele>
        <time>2014-06-01T12:21:41Z</time>
      </trkpt>
      <trkpt lat="59.7722118" lon="17.7197247">
        <ele>52.0486</ele>
        <time>2014-06-01T12:21:42Z</time>
      </trkpt>
      <trkpt lat="59.7722279" lon="17.7197217">
        <ele>52.5292</ele>
        <time>2014-06-01T12:21:43Z</time>
      </trkpt>
      <trkpt lat="59.7722418" lon="17.7197347">
        <ele>52.5292</ele>
        <time>2014-06-01T12:21:44Z</time>
      </trkpt>
      <trkpt lat="59.772259" lon="17.7197465">
        <ele>53.0098</ele>
        <time>2014-06-01T12:21:45Z</time>
      </trkpt>
      <trkpt lat="59.7722711" lon="17.7197548">
        <ele>52.5292</ele>
        <time>2014-06-01T12:21:46Z</time>
      </trkpt>
      <trkpt lat="59.7722813" lon="17.7197574">
        <ele>52.0486</ele>
        <time>2014-06-01T12:21:47Z</time>
      </trkpt>
      <trkpt lat="59.7722972" lon="17.7197578">
        <ele>52.0486</ele>
        <time>2014-06-01T12:21:48Z</time>
      </trkpt>
      <trkpt lat="59.7723148" lon="17.7197586">
        <ele>52.0486</ele>
        <time>2014-06-01T12:21:49Z</time>
      </trkpt>
      <trkpt lat="59.7723314" lon="17.7197604">
        <ele>52.0486</ele>
        <time>2014-06-01T12:21:50Z</time>
      </trkpt>
      <trkpt lat="59.7723483" lon="17.7197602">
        <ele>53.0098</ele>
        <time>2014-06-01T12:21:51Z</time>
      </trkpt>
      <trkpt lat="59.7723621" lon="17.7197558">
        <ele>53.0098</ele>
        <time>2014-06-01T12:21:52Z</time>
      </trkpt>
      <trkpt lat="59.7723826" lon="17.7197544">
        <ele>53.4905</ele>
        <time>2014-06-01T12:21:53Z</time>
      </trkpt>
      <trkpt lat="59.7724007" lon="17.7197597">
        <ele>54.4518</ele>
        <time>2014-06-01T12:21:54Z</time>
      </trkpt>
      <trkpt lat="59.7724138" lon="17.7197652">
        <ele>54.4518</ele>
        <time>2014-06-01T12:21:55Z</time>
      </trkpt>
      <trkpt lat="59.7724234" lon="17.719773">
        <ele>54.4518</ele>
        <time>2014-06-01T12:21:56Z</time>
      </trkpt>
      <trkpt lat="59.7724372" lon="17.7197824">
        <ele>54.9324</ele>
        <time>2014-06-01T12:21:57Z</time>
      </trkpt>
      <trkpt lat="59.7724473" lon="17.7197979">
        <ele>54.9324</ele>
        <time>2014-06-01T12:21:58Z</time>
      </trkpt>
      <trkpt lat="59.772456" lon="17.7198066">
        <ele>55.4131</ele>
        <time>2014-06-01T12:21:59Z</time>
      </trkpt>
      <trkpt lat="59.7724599" lon="17.7198098">
        <ele>54.9324</ele>
        <time>2014-06-01T12:22:00Z</time>
      </trkpt>
      <trkpt lat="59.7724703" lon="17.7198089">
        <ele>55.4131</ele>
        <time>2014-06-01T12:22:01Z</time>
      </trkpt>
      <trkpt lat="59.7724799" lon="17.7198145">
        <ele>55.4131</ele>
        <time>2014-06-01T12:22:02Z</time>
      </trkpt>
      <trkpt lat="59.7724884" lon="17.7198256">
        <ele>55.4131</ele>
        <time>2014-06-01T12:22:03Z</time>
      </trkpt>
      <trkpt lat="59.772496" lon="17.7198358">
        <ele>55.8938</ele>
        <time>2014-06-01T12:22:04Z</time>
      </trkpt>
      <trkpt lat="59.7725037" lon="17.7198386">
        <ele>55.4131</ele>
        <time>2014-06-01T12:22:05Z</time>
      </trkpt>
      <trkpt lat="59.772509" lon="17.7198393">
        <ele>55.8938</ele>
        <time>2014-06-01T12:22:06Z</time>
      </trkpt>
      <trkpt lat="59.7725158" lon="17.7198402">
        <ele>56.8551</ele>
        <time>2014-06-01T12:22:07Z</time>
      </trkpt>
      <trkpt lat="59.772522" lon="17.7198415">
        <ele>57.3358</ele>
        <time>2014-06-01T12:22:08Z</time>
      </trkpt>
      <trkpt lat="59.7725284" lon="17.7198384">
        <ele>58.2971</ele>
        <time>2014-06-01T12:22:09Z</time>
      </trkpt>
      <trkpt lat="59.7725325" lon="17.7198321">
        <ele>58.7777</ele>
        <time>2014-06-01T12:22:10Z</time>
      </trkpt>
      <trkpt lat="59.7725371" lon="17.7198218">
        <ele>59.7391</ele>
        <time>2014-06-01T12:22:11Z</time>
      </trkpt>
      <trkpt lat="59.7725433" lon="17.7198156">
        <ele>60.7003</ele>
        <time>2014-06-01T12:22:12Z</time>
      </trkpt>
      <trkpt lat="59.7725412" lon="17.719802">
        <ele>60.7003</ele>
        <time>2014-06-01T12:22:13Z</time>
      </trkpt>
      <trkpt lat="59.7725375" lon="17.7197861">
        <ele>59.7391</ele>
        <time>2014-06-01T12:22:14Z</time>
      </trkpt>
      <trkpt lat="59.7725329" lon="17.7197702">
        <ele>58.7777</ele>
        <time>2014-06-01T12:22:15Z</time>
      </trkpt>
      <trkpt lat="59.7725272" lon="17.7197521">
        <ele>57.3358</ele>
        <time>2014-06-01T12:22:16Z</time>
      </trkpt>
      <trkpt lat="59.7725241" lon="17.7197425">
        <ele>56.3745</ele>
        <time>2014-06-01T12:22:17Z</time>
      </trkpt>
      <trkpt lat="59.7725252" lon="17.719736">
        <ele>56.3745</ele>
        <time>2014-06-01T12:22:18Z</time>
      </trkpt>
      <trkpt lat="59.7725275" lon="17.7197272">
        <ele>56.3745</ele>
        <time>2014-06-01T12:22:19Z</time>
      </trkpt>
      <trkpt lat="59.7725301" lon="17.7197243">
        <ele>56.3745</ele>
        <time>2014-06-01T12:22:20Z</time>
      </trkpt>
      <trkpt lat="59.7725301" lon="17.7197216">
        <ele>56.3745</ele>
        <time>2014-06-01T12:22:21Z</time>
      </trkpt>
      <trkpt lat="59.7725625" lon="17.7197145">
        <ele>59.2584</ele>
        <time>2014-06-01T12:22:37Z</time>
      </trkpt>
      <trkpt lat="59.7725695" lon="17.7197221">
        <ele>59.7391</ele>
        <time>2014-06-01T12:22:38Z</time>
      </trkpt>
      <trkpt lat="59.7725702" lon="17.7197227">
        <ele>59.7391</ele>
        <time>2014-06-01T12:22:39Z</time>
      </trkpt>
      <trkpt lat="59.7725726" lon="17.7197336">
        <ele>60.2197</ele>
        <time>2014-06-01T12:22:40Z</time>
      </trkpt>
      <trkpt lat="59.7725745" lon="17.719742">
        <ele>59.7391</ele>
        <time>2014-06-01T12:22:41Z</time>
      </trkpt>
      <trkpt lat="59.7725805" lon="17.7197523">
        <ele>59.2584</ele>
        <time>2014-06-01T12:22:42Z</time>
      </trkpt>
      <trkpt lat="59.7725923" lon="17.7197621">
        <ele>59.7391</ele>
        <time>2014-06-01T12:22:43Z</time>
      </trkpt>
      <trkpt lat="59.7726056" lon="17.7197614">
        <ele>59.7391</ele>
        <time>2014-06-01T12:22:44Z</time>
      </trkpt>
      <trkpt lat="59.7726199" lon="17.719758">
        <ele>59.7391</ele>
        <time>2014-06-01T12:22:45Z</time>
      </trkpt>
      <trkpt lat="59.7726293" lon="17.7197492">
        <ele>59.7391</ele>
        <time>2014-06-01T12:22:46Z</time>
      </trkpt>
      <trkpt lat="59.772639" lon="17.7197408">
        <ele>59.2584</ele>
        <time>2014-06-01T12:22:47Z</time>
      </trkpt>
      <trkpt lat="59.7726552" lon="17.7197425">
        <ele>59.2584</ele>
        <time>2014-06-01T12:22:48Z</time>
      </trkpt>
      <trkpt lat="59.7726741" lon="17.7197466">
        <ele>59.7391</ele>
        <time>2014-06-01T12:22:49Z</time>
      </trkpt>
      <trkpt lat="59.7726884" lon="17.7197474">
        <ele>59.7391</ele>
        <time>2014-06-01T12:22:50Z</time>
      </trkpt>
      <trkpt lat="59.7727063" lon="17.7197522">
        <ele>60.2197</ele>
        <time>2014-06-01T12:22:51Z</time>
      </trkpt>
      <trkpt lat="59.7727194" lon="17.7197583">
        <ele>59.7391</ele>
        <time>2014-06-01T12:22:52Z</time>
      </trkpt>
      <trkpt lat="59.7727324" lon="17.7197571">
        <ele>58.7777</ele>
        <time>2014-06-01T12:22:53Z</time>
      </trkpt>
      <trkpt lat="59.7727484" lon="17.7197446">
        <ele>58.7777</ele>
        <time>2014-06-01T12:22:54Z</time>
      </trkpt>
      <trkpt lat="59.7727607" lon="17.7197186">
        <ele>57.8165</ele>
        <time>2014-06-01T12:22:55Z</time>
      </trkpt>
      <trkpt lat="59.7727741" lon="17.7196911">
        <ele>56.3745</ele>
        <time>2014-06-01T12:22:56Z</time>
      </trkpt>
      <trkpt lat="59.7727857" lon="17.719669">
        <ele>55.8938</ele>
        <time>2014-06-01T12:22:57Z</time>
      </trkpt>
      <trkpt lat="59.7727908" lon="17.7196534">
        <ele>54.9324</ele>
        <time>2014-06-01T12:22:58Z</time>
      </trkpt>
      <trkpt lat="59.7727857" lon="17.7196416">
        <ele>53.4905</ele>
        <time>2014-06-01T12:22:59Z</time>
      </trkpt>
      <trkpt lat="59.7727866" lon="17.7196307">
        <ele>52.5292</ele>
        <time>2014-06-01T12:23:00Z</time>
      </trkpt>
      <trkpt lat="59.7727926" lon="17.7196143">
        <ele>51.5679</ele>
        <time>2014-06-01T12:23:01Z</time>
      </trkpt>
      <trkpt lat="59.7727982" lon="17.719598">
        <ele>50.6066</ele>
        <time>2014-06-01T12:23:02Z</time>
      </trkpt>
      <trkpt lat="59.7728031" lon="17.7195825">
        <ele>50.126</ele>
        <time>2014-06-01T12:23:03Z</time>
      </trkpt>
      <trkpt lat="59.7728073" lon="17.719571">
        <ele>49.6453</ele>
        <time>2014-06-01T12:23:04Z</time>
      </trkpt>
      <trkpt lat="59.7728054" lon="17.719558">
        <ele>49.1646</ele>
        <time>2014-06-01T12:23:05Z</time>
      </trkpt>
      <trkpt lat="59.7728054" lon="17.7195384">
        <ele>48.2034</ele>
        <time>2014-06-01T12:23:06Z</time>
      </trkpt>
      <trkpt lat="59.7728099" lon="17.7195134">
        <ele>47.7225</ele>
        <time>2014-06-01T12:23:07Z</time>
      </trkpt>
      <trkpt lat="59.7728153" lon="17.7194948">
        <ele>47.2418</ele>
        <time>2014-06-01T12:23:08Z</time>
      </trkpt>
      <trkpt lat="59.7728218" lon="17.7194794">
        <ele>46.7612</ele>
        <time>2014-06-01T12:23:09Z</time>
      </trkpt>
      <trkpt lat="59.7728257" lon="17.7194661">
        <ele>48.2034</ele>
        <time>2014-06-01T12:23:10Z</time>
      </trkpt>
      <trkpt lat="59.7728353" lon="17.7194556">
        <ele>49.6453</ele>
        <time>2014-06-01T12:23:11Z</time>
      </trkpt>
      <trkpt lat="59.7728391" lon="17.7194439">
        <ele>49.6453</ele>
        <time>2014-06-01T12:23:12Z</time>
      </trkpt>
      <trkpt lat="59.7728484" lon="17.71943">
        <ele>50.6066</ele>
        <time>2014-06-01T12:23:13Z</time>
      </trkpt>
      <trkpt lat="59.7728482" lon="17.7194113">
        <ele>50.126</ele>
        <time>2014-06-01T12:23:14Z</time>
      </trkpt>
      <trkpt lat="59.7728536" lon="17.7194026">
        <ele>51.0872</ele>
        <time>2014-06-01T12:23:15Z</time>
      </trkpt>
      <trkpt lat="59.7728613" lon="17.7193882">
        <ele>52.0486</ele>
        <time>2014-06-01T12:23:16Z</time>
      </trkpt>
      <trkpt lat="59.772867" lon="17.719369">
        <ele>51.5679</ele>
        <time>2014-06-01T12:23:17Z</time>
      </trkpt>
      <trkpt lat="59.7728746" lon="17.7193472">
        <ele>51.0872</ele>
        <time>2014-06-01T12:23:18Z</time>
      </trkpt>
      <trkpt lat="59.7728817" lon="17.7193203">
        <ele>50.126</ele>
        <time>2014-06-01T12:23:19Z</time>
      </trkpt>
      <trkpt lat="59.7728949" lon="17.7193012">
        <ele>49.6453</ele>
        <time>2014-06-01T12:23:20Z</time>
      </trkpt>
      <trkpt lat="59.7729057" lon="17.7192778">
        <ele>48.684</ele>
        <time>2014-06-01T12:23:21Z</time>
      </trkpt>
      <trkpt lat="59.7729188" lon="17.7192541">
        <ele>48.2034</ele>
        <time>2014-06-01T12:23:22Z</time>
      </trkpt>
      <trkpt lat="59.772929" lon="17.719233">
        <ele>47.2418</ele>
        <time>2014-06-01T12:23:23Z</time>
      </trkpt>
      <trkpt lat="59.7729415" lon="17.719212">
        <ele>47.2418</ele>
        <time>2014-06-01T12:23:24Z</time>
      </trkpt>
      <trkpt lat="59.7729575" lon="17.7191885">
        <ele>46.2806</ele>
        <time>2014-06-01T12:23:25Z</time>
      </trkpt>
      <trkpt lat="59.7729743" lon="17.7191695">
        <ele>46.2806</ele>
        <time>2014-06-01T12:23:26Z</time>
      </trkpt>
      <trkpt lat="59.7729902" lon="17.7191509">
        <ele>46.7612</ele>
        <time>2014-06-01T12:23:27Z</time>
      </trkpt>
      <trkpt lat="59.7730036" lon="17.7191317">
        <ele>47.7225</ele>
        <time>2014-06-01T12:23:28Z</time>
      </trkpt>
      <trkpt lat="59.7730153" lon="17.719114">
        <ele>48.2034</ele>
        <time>2014-06-01T12:23:29Z</time>
      </trkpt>
      <trkpt lat="59.7730204" lon="17.7190987">
        <ele>48.2034</ele>
        <time>2014-06-01T12:23:30Z</time>
      </trkpt>
      <trkpt lat="59.7730243" lon="17.7190876">
        <ele>47.7225</ele>
        <time>2014-06-01T12:23:31Z</time>
      </trkpt>
      <trkpt lat="59.7730251" lon="17.7190809">
        <ele>47.2418</ele>
        <time>2014-06-01T12:23:32Z</time>
      </trkpt>
      <trkpt lat="59.7730246" lon="17.719069">
        <ele>46.2806</ele>
        <time>2014-06-01T12:23:33Z</time>
      </trkpt>
      <trkpt lat="59.7730323" lon="17.7190533">
        <ele>46.2806</ele>
        <time>2014-06-01T12:23:34Z</time>
      </trkpt>
      <trkpt lat="59.7730431" lon="17.7190391">
        <ele>46.7612</ele>
        <time>2014-06-01T12:23:35Z</time>
      </trkpt>
      <trkpt lat="59.773051" lon="17.7190276">
        <ele>46.7612</ele>
        <time>2014-06-01T12:23:36Z</time>
      </trkpt>
      <trkpt lat="59.7730669" lon="17.7190152">
        <ele>48.2034</ele>
        <time>2014-06-01T12:23:37Z</time>
      </trkpt>
      <trkpt lat="59.7730783" lon="17.7190053">
        <ele>48.684</ele>
        <time>2014-06-01T12:23:38Z</time>
      </trkpt>
      <trkpt lat="59.7730913" lon="17.7189948">
        <ele>48.684</ele>
        <time>2014-06-01T12:23:39Z</time>
      </trkpt>
      <trkpt lat="59.7731056" lon="17.7189852">
        <ele>48.684</ele>
        <time>2014-06-01T12:23:40Z</time>
      </trkpt>
      <trkpt lat="59.7731166" lon="17.7189732">
        <ele>48.684</ele>
        <time>2014-06-01T12:23:41Z</time>
      </trkpt>
      <trkpt lat="59.7731307" lon="17.7189494">
        <ele>49.6453</ele>
        <time>2014-06-01T12:23:42Z</time>
      </trkpt>
      <trkpt lat="59.7731445" lon="17.7189219">
        <ele>50.126</ele>
        <time>2014-06-01T12:23:43Z</time>
      </trkpt>
      <trkpt lat="59.7731612" lon="17.7188976">
        <ele>50.6066</ele>
        <time>2014-06-01T12:23:44Z</time>
      </trkpt>
      <trkpt lat="59.7731788" lon="17.7188763">
        <ele>51.0872</ele>
        <time>2014-06-01T12:23:45Z</time>
      </trkpt>
      <trkpt lat="59.773196" lon="17.7188516">
        <ele>50.6066</ele>
        <time>2014-06-01T12:23:46Z</time>
      </trkpt>
      <trkpt lat="59.7732119" lon="17.7188269">
        <ele>49.6453</ele>
        <time>2014-06-01T12:23:47Z</time>
      </trkpt>
      <trkpt lat="59.7732245" lon="17.7188006">
        <ele>49.1646</ele>
        <time>2014-06-01T12:23:48Z</time>
      </trkpt>
      <trkpt lat="59.7732379" lon="17.718773">
        <ele>49.1646</ele>
        <time>2014-06-01T12:23:49Z</time>
      </trkpt>
      <trkpt lat="59.7732508" lon="17.7187471">
        <ele>48.684</ele>
        <time>2014-06-01T12:23:50Z</time>
      </trkpt>
      <trkpt lat="59.7732696" lon="17.7187269">
        <ele>48.684</ele>
        <time>2014-06-01T12:23:51Z</time>
      </trkpt>
      <trkpt lat="59.7732939" lon="17.7187047">
        <ele>50.126</ele>
        <time>2014-06-01T12:23:52Z</time>
      </trkpt>
      <trkpt lat="59.7733203" lon="17.7186737">
        <ele>51.5679</ele>
        <time>2014-06-01T12:23:53Z</time>
      </trkpt>
      <trkpt lat="59.7733385" lon="17.7186435">
        <ele>51.0872</ele>
        <time>2014-06-01T12:23:54Z</time>
      </trkpt>
      <trkpt lat="59.7733512" lon="17.7186095">
        <ele>51.0872</ele>
        <time>2014-06-01T12:23:55Z</time>
      </trkpt>
      <trkpt lat="59.7733586" lon="17.7185724">
        <ele>51.0872</ele>
        <time>2014-06-01T12:23:56Z</time>
      </trkpt>
      <trkpt lat="59.7733668" lon="17.718541">
        <ele>51.5679</ele>
        <time>2014-06-01T12:23:57Z</time>
      </trkpt>
      <trkpt lat="59.7733724" lon="17.7185143">
        <ele>51.5679</ele>
        <time>2014-06-01T12:23:58Z</time>
      </trkpt>
      <trkpt lat="59.7733814" lon="17.7184928">
        <ele>51.0872</ele>
        <time>2014-06-01T12:23:59Z</time>
      </trkpt>
      <trkpt lat="59.773384" lon="17.7184645">
        <ele>50.6066</ele>
        <time>2014-06-01T12:24:00Z</time>
      </trkpt>
      <trkpt lat="59.7733871" lon="17.7184393">
        <ele>50.6066</ele>
        <time>2014-06-01T12:24:01Z</time>
      </trkpt>
      <trkpt lat="59.77339" lon="17.7184156">
        <ele>50.6066</ele>
        <time>2014-06-01T12:24:02Z</time>
      </trkpt>
      <trkpt lat="59.7733931" lon="17.7183894">
        <ele>51.0872</ele>
        <time>2014-06-01T12:24:03Z</time>
      </trkpt>
      <trkpt lat="59.7733949" lon="17.7183639">
        <ele>51.0872</ele>
        <time>2014-06-01T12:24:04Z</time>
      </trkpt>
      <trkpt lat="59.7733928" lon="17.7183318">
        <ele>50.6066</ele>
        <time>2014-06-01T12:24:05Z</time>
      </trkpt>
      <trkpt lat="59.7733936" lon="17.7183081">
        <ele>50.126</ele>
        <time>2014-06-01T12:24:06Z</time>
      </trkpt>
      <trkpt lat="59.7733989" lon="17.7182915">
        <ele>49.6453</ele>
        <time>2014-06-01T12:24:07Z</time>
      </trkpt>
      <trkpt lat="59.7734027" lon="17.7182789">
        <ele>49.1646</ele>
        <time>2014-06-01T12:24:08Z</time>
      </trkpt>
      <trkpt lat="59.7734053" lon="17.7182608">
        <ele>48.2034</ele>
        <time>2014-06-01T12:24:09Z</time>
      </trkpt>
      <trkpt lat="59.7734074" lon="17.7182423">
        <ele>48.2034</ele>
        <time>2014-06-01T12:24:10Z</time>
      </trkpt>
      <trkpt lat="59.7734104" lon="17.7182181">
        <ele>47.7225</ele>
        <time>2014-06-01T12:24:11Z</time>
      </trkpt>
      <trkpt lat="59.7734147" lon="17.7181988">
        <ele>47.7225</ele>
        <time>2014-06-01T12:24:12Z</time>
      </trkpt>
      <trkpt lat="59.7734125" lon="17.7181856">
        <ele>47.2418</ele>
        <time>2014-06-01T12:24:13Z</time>
      </trkpt>
      <trkpt lat="59.7734099" lon="17.7181703">
        <ele>47.2418</ele>
        <time>2014-06-01T12:24:14Z</time>
      </trkpt>
      <trkpt lat="59.7734027" lon="17.7181458">
        <ele>46.2806</ele>
        <time>2014-06-01T12:24:15Z</time>
      </trkpt>
      <trkpt lat="59.7733963" lon="17.7181258">
        <ele>45.7999</ele>
        <time>2014-06-01T12:24:16Z</time>
      </trkpt>
      <trkpt lat="59.7733918" lon="17.7181082">
        <ele>45.7999</ele>
        <time>2014-06-01T12:24:17Z</time>
      </trkpt>
      <trkpt lat="59.7733857" lon="17.7180878">
        <ele>46.2806</ele>
        <time>2014-06-01T12:24:18Z</time>
      </trkpt>
      <trkpt lat="59.7733787" lon="17.7180667">
        <ele>46.7612</ele>
        <time>2014-06-01T12:24:19Z</time>
      </trkpt>
      <trkpt lat="59.773369" lon="17.7180382">
        <ele>46.7612</ele>
        <time>2014-06-01T12:24:20Z</time>
      </trkpt>
      <trkpt lat="59.7733633" lon="17.7180004">
        <ele>46.7612</ele>
        <time>2014-06-01T12:24:21Z</time>
      </trkpt>
      <trkpt lat="59.7733602" lon="17.7179563">
        <ele>46.7612</ele>
        <time>2014-06-01T12:24:22Z</time>
      </trkpt>
      <trkpt lat="59.7733587" lon="17.7179163">
        <ele>46.7612</ele>
        <time>2014-06-01T12:24:23Z</time>
      </trkpt>
      <trkpt lat="59.7733606" lon="17.7178792">
        <ele>47.2418</ele>
        <time>2014-06-01T12:24:24Z</time>
      </trkpt>
      <trkpt lat="59.7733598" lon="17.7178466">
        <ele>47.2418</ele>
        <time>2014-06-01T12:24:25Z</time>
      </trkpt>
      <trkpt lat="59.7733572" lon="17.7178149">
        <ele>47.2418</ele>
        <time>2014-06-01T12:24:26Z</time>
      </trkpt>
      <trkpt lat="59.773354" lon="17.7177798">
        <ele>46.7612</ele>
        <time>2014-06-01T12:24:27Z</time>
      </trkpt>
      <trkpt lat="59.773356" lon="17.7177461">
        <ele>46.2806</ele>
        <time>2014-06-01T12:24:28Z</time>
      </trkpt>
      <trkpt lat="59.7733626" lon="17.7177133">
        <ele>45.7999</ele>
        <time>2014-06-01T12:24:29Z</time>
      </trkpt>
      <trkpt lat="59.7733672" lon="17.7176806">
        <ele>45.7999</ele>
        <time>2014-06-01T12:24:30Z</time>
      </trkpt>
      <trkpt lat="59.7733699" lon="17.717651">
        <ele>45.7999</ele>
        <time>2014-06-01T12:24:31Z</time>
      </trkpt>
      <trkpt lat="59.7733643" lon="17.7176198">
        <ele>45.3192</ele>
        <time>2014-06-01T12:24:32Z</time>
      </trkpt>
      <trkpt lat="59.7733576" lon="17.717591">
        <ele>44.358</ele>
        <time>2014-06-01T12:24:33Z</time>
      </trkpt>
      <trkpt lat="59.773356" lon="17.7175617">
        <ele>43.8773</ele>
        <time>2014-06-01T12:24:34Z</time>
      </trkpt>
      <trkpt lat="59.7733565" lon="17.7175303">
        <ele>43.3966</ele>
        <time>2014-06-01T12:24:35Z</time>
      </trkpt>
      <trkpt lat="59.7733617" lon="17.7174999">
        <ele>42.916</ele>
        <time>2014-06-01T12:24:36Z</time>
      </trkpt>
      <trkpt lat="59.773368" lon="17.7174633">
        <ele>42.4354</ele>
        <time>2014-06-01T12:24:37Z</time>
      </trkpt>
      <trkpt lat="59.7733669" lon="17.7174228">
        <ele>41.9547</ele>
        <time>2014-06-01T12:24:38Z</time>
      </trkpt>
      <trkpt lat="59.7733636" lon="17.7173864">
        <ele>41.474</ele>
        <time>2014-06-01T12:24:39Z</time>
      </trkpt>
      <trkpt lat="59.7733622" lon="17.7173506">
        <ele>41.474</ele>
        <time>2014-06-01T12:24:40Z</time>
      </trkpt>
      <trkpt lat="59.7733636" lon="17.7173237">
        <ele>42.916</ele>
        <time>2014-06-01T12:24:41Z</time>
      </trkpt>
      <trkpt lat="59.7733524" lon="17.7172898">
        <ele>43.3966</ele>
        <time>2014-06-01T12:24:42Z</time>
      </trkpt>
      <trkpt lat="59.7733399" lon="17.71726">
        <ele>44.358</ele>
        <time>2014-06-01T12:24:43Z</time>
      </trkpt>
      <trkpt lat="59.77333" lon="17.7172452">
        <ele>45.3192</ele>
        <time>2014-06-01T12:24:44Z</time>
      </trkpt>
      <trkpt lat="59.773317" lon="17.7172313">
        <ele>45.3192</ele>
        <time>2014-06-01T12:24:45Z</time>
      </trkpt>
      <trkpt lat="59.7733037" lon="17.7172032">
        <ele>45.7999</ele>
        <time>2014-06-01T12:24:46Z</time>
      </trkpt>
      <trkpt lat="59.7732934" lon="17.7171752">
        <ele>45.7999</ele>
        <time>2014-06-01T12:24:47Z</time>
      </trkpt>
      <trkpt lat="59.7732836" lon="17.7171524">
        <ele>45.7999</ele>
        <time>2014-06-01T12:24:48Z</time>
      </trkpt>
      <trkpt lat="59.7732772" lon="17.7171275">
        <ele>46.2806</ele>
        <time>2014-06-01T12:24:49Z</time>
      </trkpt>
      <trkpt lat="59.7732748" lon="17.7170966">
        <ele>46.7612</ele>
        <time>2014-06-01T12:24:50Z</time>
      </trkpt>
      <trkpt lat="59.7732758" lon="17.7170676">
        <ele>46.7612</ele>
        <time>2014-06-01T12:24:51Z</time>
      </trkpt>
      <trkpt lat="59.7732762" lon="17.7170363">
        <ele>45.7999</ele>
        <time>2014-06-01T12:24:52Z</time>
      </trkpt>
      <trkpt lat="59.7732757" lon="17.7170043">
        <ele>45.3192</ele>
        <time>2014-06-01T12:24:53Z</time>
      </trkpt>
      <trkpt lat="59.7732731" lon="17.7169715">
        <ele>45.3192</ele>
        <time>2014-06-01T12:24:54Z</time>
      </trkpt>
      <trkpt lat="59.7732707" lon="17.7169461">
        <ele>45.7999</ele>
        <time>2014-06-01T12:24:55Z</time>
      </trkpt>
      <trkpt lat="59.7732668" lon="17.7169275">
        <ele>46.2806</ele>
        <time>2014-06-01T12:24:56Z</time>
      </trkpt>
      <trkpt lat="59.7732628" lon="17.7169012">
        <ele>46.2806</ele>
        <time>2014-06-01T12:24:57Z</time>
      </trkpt>
      <trkpt lat="59.7732591" lon="17.7168737">
        <ele>46.7612</ele>
        <time>2014-06-01T12:24:58Z</time>
      </trkpt>
      <trkpt lat="59.7732566" lon="17.7168472">
        <ele>46.7612</ele>
        <time>2014-06-01T12:24:59Z</time>
      </trkpt>
      <trkpt lat="59.7732561" lon="17.7168182">
        <ele>46.7612</ele>
        <time>2014-06-01T12:25:00Z</time>
      </trkpt>
      <trkpt lat="59.7732574" lon="17.7167914">
        <ele>46.7612</ele>
        <time>2014-06-01T12:25:01Z</time>
      </trkpt>
      <trkpt lat="59.7732596" lon="17.7167732">
        <ele>47.7225</ele>
        <time>2014-06-01T12:25:02Z</time>
      </trkpt>
      <trkpt lat="59.7732571" lon="17.716751">
        <ele>48.684</ele>
        <time>2014-06-01T12:25:03Z</time>
      </trkpt>
      <trkpt lat="59.7732518" lon="17.7167207">
        <ele>48.2034</ele>
        <time>2014-06-01T12:25:04Z</time>
      </trkpt>
      <trkpt lat="59.7732551" lon="17.716695">
        <ele>48.684</ele>
        <time>2014-06-01T12:25:05Z</time>
      </trkpt>
      <trkpt lat="59.7732596" lon="17.7166758">
        <ele>48.2034</ele>
        <time>2014-06-01T12:25:06Z</time>
      </trkpt>
      <trkpt lat="59.7732628" lon="17.7166619">
        <ele>47.7225</ele>
        <time>2014-06-01T12:25:07Z</time>
      </trkpt>
      <trkpt lat="59.7732668" lon="17.7166556">
        <ele>47.2418</ele>
        <time>2014-06-01T12:25:08Z</time>
      </trkpt>
      <trkpt lat="59.7732716" lon="17.7166487">
        <ele>46.7612</ele>
        <time>2014-06-01T12:25:09Z</time>
      </trkpt>
      <trkpt lat="59.7732714" lon="17.7166358">
        <ele>45.7999</ele>
        <time>2014-06-01T12:25:10Z</time>
      </trkpt>
      <trkpt lat="59.7732707" lon="17.7166182">
        <ele>45.3192</ele>
        <time>2014-06-01T12:25:11Z</time>
      </trkpt>
      <trkpt lat="59.7732702" lon="17.7165987">
        <ele>44.358</ele>
        <time>2014-06-01T12:25:12Z</time>
      </trkpt>
      <trkpt lat="59.7732732" lon="17.7165692">
        <ele>43.3966</ele>
        <time>2014-06-01T12:25:13Z</time>
      </trkpt>
      <trkpt lat="59.7732807" lon="17.716537">
        <ele>42.916</ele>
        <time>2014-06-01T12:25:14Z</time>
      </trkpt>
      <trkpt lat="59.7732886" lon="17.7165086">
        <ele>41.9547</ele>
        <time>2014-06-01T12:25:15Z</time>
      </trkpt>
      <trkpt lat="59.7732938" lon="17.7164805">
        <ele>40.5128</ele>
        <time>2014-06-01T12:25:16Z</time>
      </trkpt>
      <trkpt lat="59.7732963" lon="17.716447">
        <ele>40.0321</ele>
        <time>2014-06-01T12:25:17Z</time>
      </trkpt>
      <trkpt lat="59.7732978" lon="17.7164205">
        <ele>39.0707</ele>
        <time>2014-06-01T12:25:18Z</time>
      </trkpt>
      <trkpt lat="59.7733017" lon="17.7164019">
        <ele>38.5901</ele>
        <time>2014-06-01T12:25:19Z</time>
      </trkpt>
      <trkpt lat="59.7733102" lon="17.7163852">
        <ele>39.5513</ele>
        <time>2014-06-01T12:25:20Z</time>
      </trkpt>
      <trkpt lat="59.7733194" lon="17.7163745">
        <ele>40.5128</ele>
        <time>2014-06-01T12:25:21Z</time>
      </trkpt>
      <trkpt lat="59.7733322" lon="17.7163636">
        <ele>40.5128</ele>
        <time>2014-06-01T12:25:22Z</time>
      </trkpt>
      <trkpt lat="59.7733491" lon="17.7163514">
        <ele>40.9934</ele>
        <time>2014-06-01T12:25:23Z</time>
      </trkpt>
      <trkpt lat="59.773359" lon="17.7163329">
        <ele>40.9934</ele>
        <time>2014-06-01T12:25:24Z</time>
      </trkpt>
      <trkpt lat="59.7733659" lon="17.7163118">
        <ele>40.0321</ele>
        <time>2014-06-01T12:25:25Z</time>
      </trkpt>
      <trkpt lat="59.7733686" lon="17.716295">
        <ele>39.5513</ele>
        <time>2014-06-01T12:25:26Z</time>
      </trkpt>
      <trkpt lat="59.7733768" lon="17.7162785">
        <ele>41.9547</ele>
        <time>2014-06-01T12:25:27Z</time>
      </trkpt>
      <trkpt lat="59.773383" lon="17.7162677">
        <ele>43.3966</ele>
        <time>2014-06-01T12:25:28Z</time>
      </trkpt>
      <trkpt lat="59.7733926" lon="17.7162552">
        <ele>44.358</ele>
        <time>2014-06-01T12:25:29Z</time>
      </trkpt>
      <trkpt lat="59.7734041" lon="17.7162406">
        <ele>45.3192</ele>
        <time>2014-06-01T12:25:30Z</time>
      </trkpt>
      <trkpt lat="59.7734114" lon="17.7162351">
        <ele>46.2806</ele>
        <time>2014-06-01T12:25:31Z</time>
      </trkpt>
      <trkpt lat="59.7734157" lon="17.7162307">
        <ele>45.7999</ele>
        <time>2014-06-01T12:25:32Z</time>
      </trkpt>
      <trkpt lat="59.7734242" lon="17.7162204">
        <ele>46.2806</ele>
        <time>2014-06-01T12:25:33Z</time>
      </trkpt>
      <trkpt lat="59.7734332" lon="17.7162094">
        <ele>46.7612</ele>
        <time>2014-06-01T12:25:34Z</time>
      </trkpt>
      <trkpt lat="59.7734435" lon="17.7162018">
        <ele>47.7225</ele>
        <time>2014-06-01T12:25:35Z</time>
      </trkpt>
      <trkpt lat="59.7734507" lon="17.7161941">
        <ele>47.7225</ele>
        <time>2014-06-01T12:25:36Z</time>
      </trkpt>
      <trkpt lat="59.7734553" lon="17.716178">
        <ele>48.2034</ele>
        <time>2014-06-01T12:25:37Z</time>
      </trkpt>
      <trkpt lat="59.7734586" lon="17.716162">
        <ele>48.2034</ele>
        <time>2014-06-01T12:25:38Z</time>
      </trkpt>
      <trkpt lat="59.7734623" lon="17.7161488">
        <ele>47.7225</ele>
        <time>2014-06-01T12:25:39Z</time>
      </trkpt>
      <trkpt lat="59.7734731" lon="17.7161423">
        <ele>49.1646</ele>
        <time>2014-06-01T12:25:40Z</time>
      </trkpt>
      <trkpt lat="59.7734824" lon="17.7161439">
        <ele>50.126</ele>
        <time>2014-06-01T12:25:41Z</time>
      </trkpt>
      <trkpt lat="59.7734836" lon="17.7161362">
        <ele>50.126</ele>
        <time>2014-06-01T12:25:42Z</time>
      </trkpt>
      <trkpt lat="59.7734882" lon="17.7161247">
        <ele>49.6453</ele>
        <time>2014-06-01T12:25:43Z</time>
      </trkpt>
      <trkpt lat="59.7734941" lon="17.7161179">
        <ele>49.6453</ele>
        <time>2014-06-01T12:25:44Z</time>
      </trkpt>
      <trkpt lat="59.7734993" lon="17.7161127">
        <ele>49.6453</ele>
        <time>2014-06-01T12:25:45Z</time>
      </trkpt>
      <trkpt lat="59.7735022" lon="17.716106">
        <ele>49.1646</ele>
        <time>2014-06-01T12:25:46Z</time>
      </trkpt>
      <trkpt lat="59.7735086" lon="17.7160945">
        <ele>49.6453</ele>
        <time>2014-06-01T12:25:47Z</time>
      </trkpt>
      <trkpt lat="59.7735175" lon="17.7160785">
        <ele>49.6453</ele>
        <time>2014-06-01T12:25:48Z</time>
      </trkpt>
      <trkpt lat="59.7735275" lon="17.7160678">
        <ele>50.126</ele>
        <time>2014-06-01T12:25:49Z</time>
      </trkpt>
      <trkpt lat="59.7735378" lon="17.7160639">
        <ele>50.6066</ele>
        <time>2014-06-01T12:25:50Z</time>
      </trkpt>
      <trkpt lat="59.7735426" lon="17.7160635">
        <ele>50.6066</ele>
        <time>2014-06-01T12:25:51Z</time>
      </trkpt>
      <trkpt lat="59.7735463" lon="17.7160644">
        <ele>51.0872</ele>
        <time>2014-06-01T12:25:52Z</time>
      </trkpt>
      <trkpt lat="59.7735494" lon="17.716063">
        <ele>51.5679</ele>
        <time>2014-06-01T12:25:53Z</time>
      </trkpt>
      <trkpt lat="59.7735602" lon="17.7160509">
        <ele>52.0486</ele>
        <time>2014-06-01T12:25:56Z</time>
      </trkpt>
      <trkpt lat="59.7735806" lon="17.7160392">
        <ele>52.5292</ele>
        <time>2014-06-01T12:25:57Z</time>
      </trkpt>
      <trkpt lat="59.7735974" lon="17.7160295">
        <ele>52.0486</ele>
        <time>2014-06-01T12:25:58Z</time>
      </trkpt>
      <trkpt lat="59.7736114" lon="17.7160153">
        <ele>51.5679</ele>
        <time>2014-06-01T12:25:59Z</time>
      </trkpt>
      <trkpt lat="59.7736233" lon="17.7159922">
        <ele>50.6066</ele>
        <time>2014-06-01T12:26:00Z</time>
      </trkpt>
      <trkpt lat="59.7736327" lon="17.7159651">
        <ele>49.1646</ele>
        <time>2014-06-01T12:26:01Z</time>
      </trkpt>
      <trkpt lat="59.7736482" lon="17.7159412">
        <ele>48.684</ele>
        <time>2014-06-01T12:26:02Z</time>
      </trkpt>
      <trkpt lat="59.7736698" lon="17.7159212">
        <ele>48.2034</ele>
        <time>2014-06-01T12:26:03Z</time>
      </trkpt>
      <trkpt lat="59.7736872" lon="17.715904">
        <ele>47.7225</ele>
        <time>2014-06-01T12:26:04Z</time>
      </trkpt>
      <trkpt lat="59.7737045" lon="17.7158813">
        <ele>47.2418</ele>
        <time>2014-06-01T12:26:05Z</time>
      </trkpt>
      <trkpt lat="59.7737158" lon="17.7158458">
        <ele>47.2418</ele>
        <time>2014-06-01T12:26:06Z</time>
      </trkpt>
      <trkpt lat="59.7737208" lon="17.7158039">
        <ele>46.7612</ele>
        <time>2014-06-01T12:26:07Z</time>
      </trkpt>
      <trkpt lat="59.7737252" lon="17.7157658">
        <ele>46.7612</ele>
        <time>2014-06-01T12:26:08Z</time>
      </trkpt>
      <trkpt lat="59.7737264" lon="17.7157331">
        <ele>46.2806</ele>
        <time>2014-06-01T12:26:09Z</time>
      </trkpt>
      <trkpt lat="59.7737274" lon="17.7157081">
        <ele>46.2806</ele>
        <time>2014-06-01T12:26:10Z</time>
      </trkpt>
      <trkpt lat="59.7737278" lon="17.715675">
        <ele>46.2806</ele>
        <time>2014-06-01T12:26:11Z</time>
      </trkpt>
      <trkpt lat="59.773733" lon="17.7156352">
        <ele>46.7612</ele>
        <time>2014-06-01T12:26:12Z</time>
      </trkpt>
      <trkpt lat="59.7737421" lon="17.7155958">
        <ele>46.7612</ele>
        <time>2014-06-01T12:26:13Z</time>
      </trkpt>
      <trkpt lat="59.7737425" lon="17.7155466">
        <ele>46.2806</ele>
        <time>2014-06-01T12:26:14Z</time>
      </trkpt>
      <trkpt lat="59.7737424" lon="17.7155">
        <ele>46.2806</ele>
        <time>2014-06-01T12:26:15Z</time>
      </trkpt>
      <trkpt lat="59.7737466" lon="17.7154585">
        <ele>46.2806</ele>
        <time>2014-06-01T12:26:16Z</time>
      </trkpt>
      <trkpt lat="59.7737467" lon="17.7154045">
        <ele>46.2806</ele>
        <time>2014-06-01T12:26:17Z</time>
      </trkpt>
      <trkpt lat="59.7737507" lon="17.7153527">
        <ele>46.2806</ele>
        <time>2014-06-01T12:26:18Z</time>
      </trkpt>
      <trkpt lat="59.7737617" lon="17.7153098">
        <ele>47.2418</ele>
        <time>2014-06-01T12:26:19Z</time>
      </trkpt>
      <trkpt lat="59.7737704" lon="17.7152699">
        <ele>46.7612</ele>
        <time>2014-06-01T12:26:20Z</time>
      </trkpt>
      <trkpt lat="59.7737865" lon="17.7152342">
        <ele>47.2418</ele>
        <time>2014-06-01T12:26:21Z</time>
      </trkpt>
      <trkpt lat="59.7738009" lon="17.7151927">
        <ele>47.2418</ele>
        <time>2014-06-01T12:26:22Z</time>
      </trkpt>
      <trkpt lat="59.7738174" lon="17.7151471">
        <ele>47.7225</ele>
        <time>2014-06-01T12:26:23Z</time>
      </trkpt>
      <trkpt lat="59.7738347" lon="17.7151007">
        <ele>47.7225</ele>
        <time>2014-06-01T12:26:24Z</time>
      </trkpt>
      <trkpt lat="59.7738537" lon="17.7150575">
        <ele>47.2418</ele>
        <time>2014-06-01T12:26:25Z</time>
      </trkpt>
      <trkpt lat="59.7738785" lon="17.7150258">
        <ele>46.2806</ele>
        <time>2014-06-01T12:26:26Z</time>
      </trkpt>
      <trkpt lat="59.7739097" lon="17.715013">
        <ele>46.2806</ele>
        <time>2014-06-01T12:26:27Z</time>
      </trkpt>
      <trkpt lat="59.7739384" lon="17.7150105">
        <ele>46.7612</ele>
        <time>2014-06-01T12:26:28Z</time>
      </trkpt>
      <trkpt lat="59.7739568" lon="17.7150076">
        <ele>46.7612</ele>
        <time>2014-06-01T12:26:29Z</time>
      </trkpt>
      <trkpt lat="59.7739723" lon="17.7149985">
        <ele>46.7612</ele>
        <time>2014-06-01T12:26:30Z</time>
      </trkpt>
      <trkpt lat="59.7739849" lon="17.7149896">
        <ele>46.7612</ele>
        <time>2014-06-01T12:26:31Z</time>
      </trkpt>
      <trkpt lat="59.7739958" lon="17.7149833">
        <ele>46.7612</ele>
        <time>2014-06-01T12:26:32Z</time>
      </trkpt>
      <trkpt lat="59.7740077" lon="17.7149761">
        <ele>47.2418</ele>
        <time>2014-06-01T12:26:33Z</time>
      </trkpt>
      <trkpt lat="59.7740232" lon="17.7149674">
        <ele>47.2418</ele>
        <time>2014-06-01T12:26:34Z</time>
      </trkpt>
      <trkpt lat="59.7740414" lon="17.7149577">
        <ele>47.7225</ele>
        <time>2014-06-01T12:26:35Z</time>
      </trkpt>
      <trkpt lat="59.7740577" lon="17.7149465">
        <ele>47.7225</ele>
        <time>2014-06-01T12:26:36Z</time>
      </trkpt>
      <trkpt lat="59.7740756" lon="17.7149333">
        <ele>47.7225</ele>
        <time>2014-06-01T12:26:37Z</time>
      </trkpt>
      <trkpt lat="59.7740973" lon="17.7149234">
        <ele>48.2034</ele>
        <time>2014-06-01T12:26:38Z</time>
      </trkpt>
      <trkpt lat="59.7741173" lon="17.7149124">
        <ele>47.7225</ele>
        <time>2014-06-01T12:26:39Z</time>
      </trkpt>
      <trkpt lat="59.7741371" lon="17.7149015">
        <ele>47.7225</ele>
        <time>2014-06-01T12:26:40Z</time>
      </trkpt>
      <trkpt lat="59.774161" lon="17.7148923">
        <ele>47.2418</ele>
        <time>2014-06-01T12:26:41Z</time>
      </trkpt>
      <trkpt lat="59.7741879" lon="17.7148816">
        <ele>46.7612</ele>
        <time>2014-06-01T12:26:42Z</time>
      </trkpt>
      <trkpt lat="59.7742114" lon="17.7148686">
        <ele>47.2418</ele>
        <time>2014-06-01T12:26:43Z</time>
      </trkpt>
      <trkpt lat="59.7742321" lon="17.7148517">
        <ele>47.7225</ele>
        <time>2014-06-01T12:26:44Z</time>
      </trkpt>
      <trkpt lat="59.7742546" lon="17.7148383">
        <ele>48.2034</ele>
        <time>2014-06-01T12:26:45Z</time>
      </trkpt>
      <trkpt lat="59.774276" lon="17.7148232">
        <ele>49.6453</ele>
        <time>2014-06-01T12:26:46Z</time>
      </trkpt>
      <trkpt lat="59.7742878" lon="17.7148113">
        <ele>49.6453</ele>
        <time>2014-06-01T12:26:47Z</time>
      </trkpt>
      <trkpt lat="59.7742966" lon="17.7148009">
        <ele>49.6453</ele>
        <time>2014-06-01T12:26:48Z</time>
      </trkpt>
      <trkpt lat="59.7743098" lon="17.7147893">
        <ele>50.126</ele>
        <time>2014-06-01T12:26:49Z</time>
      </trkpt>
      <trkpt lat="59.7743268" lon="17.7147757">
        <ele>51.0872</ele>
        <time>2014-06-01T12:26:50Z</time>
      </trkpt>
      <trkpt lat="59.7743378" lon="17.7147706">
        <ele>50.6066</ele>
        <time>2014-06-01T12:26:51Z</time>
      </trkpt>
      <trkpt lat="59.7743589" lon="17.7147618">
        <ele>51.0872</ele>
        <time>2014-06-01T12:26:52Z</time>
      </trkpt>
      <trkpt lat="59.7743882" lon="17.7147528">
        <ele>51.5679</ele>
        <time>2014-06-01T12:26:53Z</time>
      </trkpt>
      <trkpt lat="59.7744191" lon="17.7147435">
        <ele>52.0486</ele>
        <time>2014-06-01T12:26:54Z</time>
      </trkpt>
      <trkpt lat="59.7744515" lon="17.7147372">
        <ele>52.0486</ele>
        <time>2014-06-01T12:26:55Z</time>
      </trkpt>
      <trkpt lat="59.7744877" lon="17.7147365">
        <ele>53.0098</ele>
        <time>2014-06-01T12:26:56Z</time>
      </trkpt>
      <trkpt lat="59.7745195" lon="17.7147442">
        <ele>54.4518</ele>
        <time>2014-06-01T12:26:57Z</time>
      </trkpt>
      <trkpt lat="59.7745476" lon="17.7147509">
        <ele>55.4131</ele>
        <time>2014-06-01T12:26:58Z</time>
      </trkpt>
      <trkpt lat="59.7745722" lon="17.7147517">
        <ele>55.8938</ele>
        <time>2014-06-01T12:26:59Z</time>
      </trkpt>
      <trkpt lat="59.7745916" lon="17.7147463">
        <ele>55.8938</ele>
        <time>2014-06-01T12:27:00Z</time>
      </trkpt>
      <trkpt lat="59.774609" lon="17.7147415">
        <ele>56.3745</ele>
        <time>2014-06-01T12:27:01Z</time>
      </trkpt>
      <trkpt lat="59.7746296" lon="17.7147391">
        <ele>57.3358</ele>
        <time>2014-06-01T12:27:02Z</time>
      </trkpt>
      <trkpt lat="59.7746457" lon="17.7147302">
        <ele>57.3358</ele>
        <time>2014-06-01T12:27:03Z</time>
      </trkpt>
      <trkpt lat="59.774655" lon="17.7147208">
        <ele>56.3745</ele>
        <time>2014-06-01T12:27:04Z</time>
      </trkpt>
      <trkpt lat="59.774663" lon="17.7147059">
        <ele>55.8938</ele>
        <time>2014-06-01T12:27:05Z</time>
      </trkpt>
      <trkpt lat="59.7746739" lon="17.7146893">
        <ele>55.8938</ele>
        <time>2014-06-01T12:27:06Z</time>
      </trkpt>
      <trkpt lat="59.7746909" lon="17.7146649">
        <ele>55.8938</ele>
        <time>2014-06-01T12:27:07Z</time>
      </trkpt>
      <trkpt lat="59.7747087" lon="17.7146327">
        <ele>56.8551</ele>
        <time>2014-06-01T12:27:08Z</time>
      </trkpt>
      <trkpt lat="59.7747216" lon="17.7145967">
        <ele>56.3745</ele>
        <time>2014-06-01T12:27:09Z</time>
      </trkpt>
      <trkpt lat="59.7747364" lon="17.7145711">
        <ele>56.8551</ele>
        <time>2014-06-01T12:27:10Z</time>
      </trkpt>
      <trkpt lat="59.7747541" lon="17.7145463">
        <ele>57.8165</ele>
        <time>2014-06-01T12:27:11Z</time>
      </trkpt>
      <trkpt lat="59.7747624" lon="17.7145291">
        <ele>57.3358</ele>
        <time>2014-06-01T12:27:12Z</time>
      </trkpt>
      <trkpt lat="59.7747693" lon="17.7145151">
        <ele>57.8165</ele>
        <time>2014-06-01T12:27:13Z</time>
      </trkpt>
      <trkpt lat="59.7747757" lon="17.7145031">
        <ele>57.8165</ele>
        <time>2014-06-01T12:27:14Z</time>
      </trkpt>
      <trkpt lat="59.7747827" lon="17.7144915">
        <ele>57.8165</ele>
        <time>2014-06-01T12:27:15Z</time>
      </trkpt>
      <trkpt lat="59.77479" lon="17.7144813">
        <ele>57.8165</ele>
        <time>2014-06-01T12:27:16Z</time>
      </trkpt>
      <trkpt lat="59.7748002" lon="17.7144686">
        <ele>57.3358</ele>
        <time>2014-06-01T12:27:17Z</time>
      </trkpt>
      <trkpt lat="59.7748148" lon="17.7144659">
        <ele>57.8165</ele>
        <time>2014-06-01T12:27:18Z</time>
      </trkpt>
      <trkpt lat="59.7748308" lon="17.7144635">
        <ele>57.8165</ele>
        <time>2014-06-01T12:27:19Z</time>
      </trkpt>
      <trkpt lat="59.7748537" lon="17.7144597">
        <ele>59.2584</ele>
        <time>2014-06-01T12:27:20Z</time>
      </trkpt>
      <trkpt lat="59.7748705" lon="17.7144577">
        <ele>60.2197</ele>
        <time>2014-06-01T12:27:21Z</time>
      </trkpt>
      <trkpt lat="59.7748816" lon="17.7144461">
        <ele>60.2197</ele>
        <time>2014-06-01T12:27:22Z</time>
      </trkpt>
      <trkpt lat="59.7748907" lon="17.7144334">
        <ele>59.2584</ele>
        <time>2014-06-01T12:27:23Z</time>
      </trkpt>
      <trkpt lat="59.774905" lon="17.7144302">
        <ele>59.7391</ele>
        <time>2014-06-01T12:27:24Z</time>
      </trkpt>
      <trkpt lat="59.7749185" lon="17.7144226">
        <ele>59.7391</ele>
        <time>2014-06-01T12:27:25Z</time>
      </trkpt>
      <trkpt lat="59.7749342" lon="17.7144079">
        <ele>60.2197</ele>
        <time>2014-06-01T12:27:26Z</time>
      </trkpt>
      <trkpt lat="59.7749468" lon="17.7144031">
        <ele>59.7391</ele>
        <time>2014-06-01T12:27:27Z</time>
      </trkpt>
      <trkpt lat="59.7749639" lon="17.7143899">
        <ele>58.7777</ele>
        <time>2014-06-01T12:27:28Z</time>
      </trkpt>
      <trkpt lat="59.7749868" lon="17.7143592">
        <ele>58.2971</ele>
        <time>2014-06-01T12:27:29Z</time>
      </trkpt>
      <trkpt lat="59.7749966" lon="17.7143224">
        <ele>57.3358</ele>
        <time>2014-06-01T12:27:30Z</time>
      </trkpt>
      <trkpt lat="59.7750038" lon="17.7142892">
        <ele>57.8165</ele>
        <time>2014-06-01T12:27:31Z</time>
      </trkpt>
      <trkpt lat="59.7750088" lon="17.7142573">
        <ele>58.2971</ele>
        <time>2014-06-01T12:27:32Z</time>
      </trkpt>
      <trkpt lat="59.775012" lon="17.7142272">
        <ele>59.2584</ele>
        <time>2014-06-01T12:27:33Z</time>
      </trkpt>
      <trkpt lat="59.7750157" lon="17.7142026">
        <ele>58.7777</ele>
        <time>2014-06-01T12:27:34Z</time>
      </trkpt>
      <trkpt lat="59.7750186" lon="17.714179">
        <ele>59.2584</ele>
        <time>2014-06-01T12:27:35Z</time>
      </trkpt>
      <trkpt lat="59.7750161" lon="17.7141573">
        <ele>59.7391</ele>
        <time>2014-06-01T12:27:36Z</time>
      </trkpt>
      <trkpt lat="59.7750023" lon="17.7141428">
        <ele>58.7777</ele>
        <time>2014-06-01T12:27:37Z</time>
      </trkpt>
      <trkpt lat="59.7749971" lon="17.71412">
        <ele>59.2584</ele>
        <time>2014-06-01T12:27:38Z</time>
      </trkpt>
      <trkpt lat="59.7749971" lon="17.7140882">
        <ele>59.2584</ele>
        <time>2014-06-01T12:27:39Z</time>
      </trkpt>
      <trkpt lat="59.7749928" lon="17.7140532">
        <ele>58.7777</ele>
        <time>2014-06-01T12:27:40Z</time>
      </trkpt>
      <trkpt lat="59.774992" lon="17.714025">
        <ele>58.2971</ele>
        <time>2014-06-01T12:27:41Z</time>
      </trkpt>
      <trkpt lat="59.7749886" lon="17.7139982">
        <ele>57.3358</ele>
        <time>2014-06-01T12:27:42Z</time>
      </trkpt>
      <trkpt lat="59.7749924" lon="17.7139804">
        <ele>58.2971</ele>
        <time>2014-06-01T12:27:43Z</time>
      </trkpt>
      <trkpt lat="59.7749988" lon="17.7139576">
        <ele>58.2971</ele>
        <time>2014-06-01T12:27:44Z</time>
      </trkpt>
      <trkpt lat="59.7750047" lon="17.7139355">
        <ele>58.7777</ele>
        <time>2014-06-01T12:27:45Z</time>
      </trkpt>
      <trkpt lat="59.7750064" lon="17.7139108">
        <ele>58.7777</ele>
        <time>2014-06-01T12:27:46Z</time>
      </trkpt>
      <trkpt lat="59.7750157" lon="17.7138843">
        <ele>59.7391</ele>
        <time>2014-06-01T12:27:47Z</time>
      </trkpt>
      <trkpt lat="59.7750312" lon="17.7138542">
        <ele>60.7003</ele>
        <time>2014-06-01T12:27:48Z</time>
      </trkpt>
      <trkpt lat="59.7750463" lon="17.7138408">
        <ele>61.181</ele>
        <time>2014-06-01T12:27:49Z</time>
      </trkpt>
      <trkpt lat="59.7750638" lon="17.7138378">
        <ele>61.181</ele>
        <time>2014-06-01T12:27:50Z</time>
      </trkpt>
      <trkpt lat="59.7750801" lon="17.7138231">
        <ele>60.7003</ele>
        <time>2014-06-01T12:27:51Z</time>
      </trkpt>
      <trkpt lat="59.7750936" lon="17.7137976">
        <ele>60.2197</ele>
        <time>2014-06-01T12:27:52Z</time>
      </trkpt>
      <trkpt lat="59.7750974" lon="17.7137724">
        <ele>58.7777</ele>
        <time>2014-06-01T12:27:53Z</time>
      </trkpt>
      <trkpt lat="59.7750976" lon="17.71375">
        <ele>58.2971</ele>
        <time>2014-06-01T12:27:54Z</time>
      </trkpt>
      <trkpt lat="59.7750979" lon="17.7137345">
        <ele>57.8165</ele>
        <time>2014-06-01T12:27:55Z</time>
      </trkpt>
      <trkpt lat="59.7751016" lon="17.713717">
        <ele>58.2971</ele>
        <time>2014-06-01T12:27:56Z</time>
      </trkpt>
      <trkpt lat="59.7751057" lon="17.7136969">
        <ele>57.8165</ele>
        <time>2014-06-01T12:27:57Z</time>
      </trkpt>
      <trkpt lat="59.7751058" lon="17.7136798">
        <ele>56.8551</ele>
        <time>2014-06-01T12:27:58Z</time>
      </trkpt>
      <trkpt lat="59.7751072" lon="17.7136693">
        <ele>56.8551</ele>
        <time>2014-06-01T12:27:59Z</time>
      </trkpt>
      <trkpt lat="59.7751044" lon="17.7136564">
        <ele>56.3745</ele>
        <time>2014-06-01T12:28:00Z</time>
      </trkpt>
      <trkpt lat="59.7751069" lon="17.7136459">
        <ele>56.3745</ele>
        <time>2014-06-01T12:28:01Z</time>
      </trkpt>
      <trkpt lat="59.7751157" lon="17.7136428">
        <ele>57.3358</ele>
        <time>2014-06-01T12:28:02Z</time>
      </trkpt>
      <trkpt lat="59.775121" lon="17.7136403">
        <ele>56.8551</ele>
        <time>2014-06-01T12:28:03Z</time>
      </trkpt>
      <trkpt lat="59.7751297" lon="17.7136347">
        <ele>57.3358</ele>
        <time>2014-06-01T12:28:04Z</time>
      </trkpt>
      <trkpt lat="59.775141" lon="17.7136206">
        <ele>57.3358</ele>
        <time>2014-06-01T12:28:05Z</time>
      </trkpt>
      <trkpt lat="59.7751535" lon="17.7136012">
        <ele>57.8165</ele>
        <time>2014-06-01T12:28:06Z</time>
      </trkpt>
      <trkpt lat="59.7751618" lon="17.713587">
        <ele>57.8165</ele>
        <time>2014-06-01T12:28:07Z</time>
      </trkpt>
      <trkpt lat="59.7751709" lon="17.7135813">
        <ele>57.8165</ele>
        <time>2014-06-01T12:28:08Z</time>
      </trkpt>
      <trkpt lat="59.7751779" lon="17.7135808">
        <ele>57.8165</ele>
        <time>2014-06-01T12:28:09Z</time>
      </trkpt>
      <trkpt lat="59.7751841" lon="17.7135761">
        <ele>57.8165</ele>
        <time>2014-06-01T12:28:10Z</time>
      </trkpt>
      <trkpt lat="59.7751918" lon="17.7135759">
        <ele>57.8165</ele>
        <time>2014-06-01T12:28:11Z</time>
      </trkpt>
      <trkpt lat="59.7752006" lon="17.7135717">
        <ele>57.3358</ele>
        <time>2014-06-01T12:28:12Z</time>
      </trkpt>
      <trkpt lat="59.775206" lon="17.7135616">
        <ele>57.3358</ele>
        <time>2014-06-01T12:28:13Z</time>
      </trkpt>
      <trkpt lat="59.7752113" lon="17.7135569">
        <ele>57.8165</ele>
        <time>2014-06-01T12:28:14Z</time>
      </trkpt>
      <trkpt lat="59.7752183" lon="17.7135502">
        <ele>57.8165</ele>
        <time>2014-06-01T12:28:15Z</time>
      </trkpt>
      <trkpt lat="59.7752284" lon="17.7135428">
        <ele>57.8165</ele>
        <time>2014-06-01T12:28:16Z</time>
      </trkpt>
      <trkpt lat="59.77524" lon="17.713537">
        <ele>57.8165</ele>
        <time>2014-06-01T12:28:17Z</time>
      </trkpt>
      <trkpt lat="59.7752567" lon="17.7135171">
        <ele>58.2971</ele>
        <time>2014-06-01T12:28:18Z</time>
      </trkpt>
      <trkpt lat="59.7752728" lon="17.7134818">
        <ele>58.2971</ele>
        <time>2014-06-01T12:28:19Z</time>
      </trkpt>
      <trkpt lat="59.7752891" lon="17.7134429">
        <ele>58.2971</ele>
        <time>2014-06-01T12:28:20Z</time>
      </trkpt>
      <trkpt lat="59.7752937" lon="17.7134155">
        <ele>58.2971</ele>
        <time>2014-06-01T12:28:21Z</time>
      </trkpt>
      <trkpt lat="59.7753038" lon="17.7133875">
        <ele>58.7777</ele>
        <time>2014-06-01T12:28:22Z</time>
      </trkpt>
      <trkpt lat="59.7753137" lon="17.7133601">
        <ele>58.2971</ele>
        <time>2014-06-01T12:28:23Z</time>
      </trkpt>
      <trkpt lat="59.7753238" lon="17.7133342">
        <ele>58.2971</ele>
        <time>2014-06-01T12:28:24Z</time>
      </trkpt>
      <trkpt lat="59.7753296" lon="17.7133061">
        <ele>57.8165</ele>
        <time>2014-06-01T12:28:25Z</time>
      </trkpt>
      <trkpt lat="59.7753406" lon="17.7132854">
        <ele>57.3358</ele>
        <time>2014-06-01T12:28:26Z</time>
      </trkpt>
      <trkpt lat="59.7753561" lon="17.7132751">
        <ele>57.3358</ele>
        <time>2014-06-01T12:28:27Z</time>
      </trkpt>
      <trkpt lat="59.7753683" lon="17.7132694">
        <ele>57.3358</ele>
        <time>2014-06-01T12:28:28Z</time>
      </trkpt>
      <trkpt lat="59.775381" lon="17.7132628">
        <ele>57.3358</ele>
        <time>2014-06-01T12:28:29Z</time>
      </trkpt>
      <trkpt lat="59.7753887" lon="17.7132491">
        <ele>56.8551</ele>
        <time>2014-06-01T12:28:30Z</time>
      </trkpt>
      <trkpt lat="59.775396" lon="17.7132269">
        <ele>56.3745</ele>
        <time>2014-06-01T12:28:31Z</time>
      </trkpt>
      <trkpt lat="59.7754033" lon="17.7132008">
        <ele>56.3745</ele>
        <time>2014-06-01T12:28:32Z</time>
      </trkpt>
      <trkpt lat="59.7754084" lon="17.7131813">
        <ele>55.8938</ele>
        <time>2014-06-01T12:28:33Z</time>
      </trkpt>
      <trkpt lat="59.7754131" lon="17.7131599">
        <ele>54.4518</ele>
        <time>2014-06-01T12:28:34Z</time>
      </trkpt>
      <trkpt lat="59.7754171" lon="17.7131394">
        <ele>53.4905</ele>
        <time>2014-06-01T12:28:35Z</time>
      </trkpt>
      <trkpt lat="59.7754228" lon="17.7131223">
        <ele>53.0098</ele>
        <time>2014-06-01T12:28:36Z</time>
      </trkpt>
      <trkpt lat="59.7754287" lon="17.7131119">
        <ele>53.0098</ele>
        <time>2014-06-01T12:28:37Z</time>
      </trkpt>
      <trkpt lat="59.7754348" lon="17.7131021">
        <ele>53.0098</ele>
        <time>2014-06-01T12:28:38Z</time>
      </trkpt>
      <trkpt lat="59.7754419" lon="17.7130894">
        <ele>52.5292</ele>
        <time>2014-06-01T12:28:39Z</time>
      </trkpt>
      <trkpt lat="59.7754535" lon="17.7130806">
        <ele>53.0098</ele>
        <time>2014-06-01T12:28:40Z</time>
      </trkpt>
      <trkpt lat="59.7754605" lon="17.7130794">
        <ele>53.0098</ele>
        <time>2014-06-01T12:28:41Z</time>
      </trkpt>
      <trkpt lat="59.7754667" lon="17.7130777">
        <ele>53.0098</ele>
        <time>2014-06-01T12:28:42Z</time>
      </trkpt>
      <trkpt lat="59.7754719" lon="17.7130762">
        <ele>53.9712</ele>
        <time>2014-06-01T12:28:43Z</time>
      </trkpt>
      <trkpt lat="59.7754773" lon="17.7130742">
        <ele>54.9324</ele>
        <time>2014-06-01T12:28:44Z</time>
      </trkpt>
      <trkpt lat="59.7754839" lon="17.713075">
        <ele>56.3745</ele>
        <time>2014-06-01T12:28:45Z</time>
      </trkpt>
      <trkpt lat="59.7754913" lon="17.7130777">
        <ele>56.8551</ele>
        <time>2014-06-01T12:28:46Z</time>
      </trkpt>
      <trkpt lat="59.7754966" lon="17.7130726">
        <ele>57.8165</ele>
        <time>2014-06-01T12:28:47Z</time>
      </trkpt>
      <trkpt lat="59.7755021" lon="17.7130662">
        <ele>58.2971</ele>
        <time>2014-06-01T12:28:48Z</time>
      </trkpt>
      <trkpt lat="59.7755068" lon="17.7130604">
        <ele>58.7777</ele>
        <time>2014-06-01T12:28:49Z</time>
      </trkpt>
      <trkpt lat="59.7755124" lon="17.7130521">
        <ele>59.2584</ele>
        <time>2014-06-01T12:28:50Z</time>
      </trkpt>
      <trkpt lat="59.7755192" lon="17.7130421">
        <ele>60.7003</ele>
        <time>2014-06-01T12:28:51Z</time>
      </trkpt>
      <trkpt lat="59.7755232" lon="17.7130358">
        <ele>61.181</ele>
        <time>2014-06-01T12:28:52Z</time>
      </trkpt>
      <trkpt lat="59.7755305" lon="17.7130305">
        <ele>61.181</ele>
        <time>2014-06-01T12:28:53Z</time>
      </trkpt>
      <trkpt lat="59.7755408" lon="17.713014">
        <ele>60.7003</ele>
        <time>2014-06-01T12:28:54Z</time>
      </trkpt>
      <trkpt lat="59.7755533" lon="17.712995">
        <ele>59.7391</ele>
        <time>2014-06-01T12:28:55Z</time>
      </trkpt>
      <trkpt lat="59.7755677" lon="17.7129851">
        <ele>59.2584</ele>
        <time>2014-06-01T12:28:56Z</time>
      </trkpt>
      <trkpt lat="59.7755813" lon="17.7129814">
        <ele>59.2584</ele>
        <time>2014-06-01T12:28:57Z</time>
      </trkpt>
      <trkpt lat="59.7755969" lon="17.7129819">
        <ele>59.2584</ele>
        <time>2014-06-01T12:28:58Z</time>
      </trkpt>
      <trkpt lat="59.7756104" lon="17.7129798">
        <ele>58.7777</ele>
        <time>2014-06-01T12:28:59Z</time>
      </trkpt>
      <trkpt lat="59.7756318" lon="17.7129709">
        <ele>59.2584</ele>
        <time>2014-06-01T12:29:00Z</time>
      </trkpt>
      <trkpt lat="59.7756529" lon="17.712969">
        <ele>60.2197</ele>
        <time>2014-06-01T12:29:01Z</time>
      </trkpt>
      <trkpt lat="59.775668" lon="17.7129735">
        <ele>59.7391</ele>
        <time>2014-06-01T12:29:02Z</time>
      </trkpt>
      <trkpt lat="59.7756803" lon="17.7129804">
        <ele>59.7391</ele>
        <time>2014-06-01T12:29:03Z</time>
      </trkpt>
      <trkpt lat="59.7756946" lon="17.7129794">
        <ele>60.2197</ele>
        <time>2014-06-01T12:29:04Z</time>
      </trkpt>
      <trkpt lat="59.7757076" lon="17.7129771">
        <ele>60.2197</ele>
        <time>2014-06-01T12:29:05Z</time>
      </trkpt>
      <trkpt lat="59.7757243" lon="17.7129761">
        <ele>60.2197</ele>
        <time>2014-06-01T12:29:06Z</time>
      </trkpt>
      <trkpt lat="59.7757358" lon="17.7129729">
        <ele>59.7391</ele>
        <time>2014-06-01T12:29:07Z</time>
      </trkpt>
      <trkpt lat="59.7757498" lon="17.7129585">
        <ele>59.7391</ele>
        <time>2014-06-01T12:29:08Z</time>
      </trkpt>
      <trkpt lat="59.7757653" lon="17.7129332">
        <ele>59.2584</ele>
        <time>2014-06-01T12:29:09Z</time>
      </trkpt>
      <trkpt lat="59.7757799" lon="17.7129156">
        <ele>58.7777</ele>
        <time>2014-06-01T12:29:10Z</time>
      </trkpt>
      <trkpt lat="59.775799" lon="17.7129031">
        <ele>59.7391</ele>
        <time>2014-06-01T12:29:11Z</time>
      </trkpt>
      <trkpt lat="59.775813" lon="17.7128937">
        <ele>59.2584</ele>
        <time>2014-06-01T12:29:12Z</time>
      </trkpt>
      <trkpt lat="59.775831" lon="17.712887">
        <ele>59.2584</ele>
        <time>2014-06-01T12:29:13Z</time>
      </trkpt>
      <trkpt lat="59.7758493" lon="17.7128892">
        <ele>58.7777</ele>
        <time>2014-06-01T12:29:14Z</time>
      </trkpt>
      <trkpt lat="59.7758701" lon="17.7129009">
        <ele>58.2971</ele>
        <time>2014-06-01T12:29:15Z</time>
      </trkpt>
      <trkpt lat="59.7758887" lon="17.7129176">
        <ele>58.2971</ele>
        <time>2014-06-01T12:29:16Z</time>
      </trkpt>
      <trkpt lat="59.7759055" lon="17.7129296">
        <ele>58.2971</ele>
        <time>2014-06-01T12:29:17Z</time>
      </trkpt>
      <trkpt lat="59.7759201" lon="17.7129373">
        <ele>58.2971</ele>
        <time>2014-06-01T12:29:18Z</time>
      </trkpt>
      <trkpt lat="59.7759345" lon="17.7129375">
        <ele>57.8165</ele>
        <time>2014-06-01T12:29:19Z</time>
      </trkpt>
      <trkpt lat="59.7759492" lon="17.7129341">
        <ele>57.3358</ele>
        <time>2014-06-01T12:29:20Z</time>
      </trkpt>
      <trkpt lat="59.7759659" lon="17.7129393">
        <ele>57.3358</ele>
        <time>2014-06-01T12:29:21Z</time>
      </trkpt>
      <trkpt lat="59.7759817" lon="17.712957">
        <ele>57.3358</ele>
        <time>2014-06-01T12:29:22Z</time>
      </trkpt>
      <trkpt lat="59.7759946" lon="17.7129792">
        <ele>57.3358</ele>
        <time>2014-06-01T12:29:23Z</time>
      </trkpt>
      <trkpt lat="59.7760077" lon="17.7130012">
        <ele>57.3358</ele>
        <time>2014-06-01T12:29:24Z</time>
      </trkpt>
      <trkpt lat="59.7760233" lon="17.7130155">
        <ele>57.3358</ele>
        <time>2014-06-01T12:29:25Z</time>
      </trkpt>
      <trkpt lat="59.7760362" lon="17.7130183">
        <ele>56.8551</ele>
        <time>2014-06-01T12:29:26Z</time>
      </trkpt>
      <trkpt lat="59.7760453" lon="17.7130118">
        <ele>56.3745</ele>
        <time>2014-06-01T12:29:27Z</time>
      </trkpt>
      <trkpt lat="59.7760528" lon="17.7130073">
        <ele>55.8938</ele>
        <time>2014-06-01T12:29:28Z</time>
      </trkpt>
      <trkpt lat="59.7760558" lon="17.7130063">
        <ele>55.8938</ele>
        <time>2014-06-01T12:29:29Z</time>
      </trkpt>
      <trkpt lat="59.7760553" lon="17.7130078">
        <ele>55.4131</ele>
        <time>2014-06-01T12:29:30Z</time>
      </trkpt>
      <trkpt lat="59.7760816" lon="17.7130115">
        <ele>55.4131</ele>
        <time>2014-06-01T12:29:33Z</time>
      </trkpt>
      <trkpt lat="59.7761005" lon="17.7130102">
        <ele>54.9324</ele>
        <time>2014-06-01T12:29:34Z</time>
      </trkpt>
      <trkpt lat="59.7761181" lon="17.713005">
        <ele>55.4131</ele>
        <time>2014-06-01T12:29:35Z</time>
      </trkpt>
      <trkpt lat="59.7761306" lon="17.7129943">
        <ele>54.9324</ele>
        <time>2014-06-01T12:29:36Z</time>
      </trkpt>
      <trkpt lat="59.776146" lon="17.7129742">
        <ele>53.9712</ele>
        <time>2014-06-01T12:29:37Z</time>
      </trkpt>
      <trkpt lat="59.7761635" lon="17.7129545">
        <ele>53.9712</ele>
        <time>2014-06-01T12:29:38Z</time>
      </trkpt>
      <trkpt lat="59.7761725" lon="17.7129441">
        <ele>53.9712</ele>
        <time>2014-06-01T12:29:39Z</time>
      </trkpt>
      <trkpt lat="59.7761735" lon="17.712947">
        <ele>54.4518</ele>
        <time>2014-06-01T12:29:40Z</time>
      </trkpt>
      <trkpt lat="59.7761725" lon="17.7129508">
        <ele>53.9712</ele>
        <time>2014-06-01T12:29:41Z</time>
      </trkpt>
      <trkpt lat="59.776246" lon="17.712869">
        <ele>66.949</ele>
        <time>2014-06-01T12:31:22Z</time>
      </trkpt>
      <trkpt lat="59.7762572" lon="17.7128948">
        <ele>66.4683</ele>
        <time>2014-06-01T12:31:23Z</time>
      </trkpt>
      <trkpt lat="59.7762626" lon="17.7129218">
        <ele>65.5071</ele>
        <time>2014-06-01T12:31:24Z</time>
      </trkpt>
      <trkpt lat="59.7762776" lon="17.712957">
        <ele>65.5071</ele>
        <time>2014-06-01T12:31:25Z</time>
      </trkpt>
      <trkpt lat="59.776292" lon="17.7129774">
        <ele>65.5071</ele>
        <time>2014-06-01T12:31:26Z</time>
      </trkpt>
      <trkpt lat="59.7763057" lon="17.7129973">
        <ele>65.5071</ele>
        <time>2014-06-01T12:31:27Z</time>
      </trkpt>
      <trkpt lat="59.7763175" lon="17.7130237">
        <ele>65.9877</ele>
        <time>2014-06-01T12:31:28Z</time>
      </trkpt>
      <trkpt lat="59.7763249" lon="17.7130504">
        <ele>65.9877</ele>
        <time>2014-06-01T12:31:29Z</time>
      </trkpt>
      <trkpt lat="59.7763311" lon="17.7130797">
        <ele>65.5071</ele>
        <time>2014-06-01T12:31:30Z</time>
      </trkpt>
      <trkpt lat="59.7763356" lon="17.7131109">
        <ele>65.5071</ele>
        <time>2014-06-01T12:31:31Z</time>
      </trkpt>
      <trkpt lat="59.7763409" lon="17.7131358">
        <ele>65.0264</ele>
        <time>2014-06-01T12:31:32Z</time>
      </trkpt>
      <trkpt lat="59.7763533" lon="17.7131632">
        <ele>64.5457</ele>
        <time>2014-06-01T12:31:33Z</time>
      </trkpt>
      <trkpt lat="59.776371" lon="17.7131959">
        <ele>64.5457</ele>
        <time>2014-06-01T12:31:34Z</time>
      </trkpt>
      <trkpt lat="59.7763865" lon="17.7132203">
        <ele>64.5457</ele>
        <time>2014-06-01T12:31:35Z</time>
      </trkpt>
      <trkpt lat="59.7763973" lon="17.7132382">
        <ele>64.5457</ele>
        <time>2014-06-01T12:31:36Z</time>
      </trkpt>
      <trkpt lat="59.776407" lon="17.7132521">
        <ele>64.5457</ele>
        <time>2014-06-01T12:31:37Z</time>
      </trkpt>
      <trkpt lat="59.7764206" lon="17.7132674">
        <ele>64.5457</ele>
        <time>2014-06-01T12:31:38Z</time>
      </trkpt>
      <trkpt lat="59.7764396" lon="17.7132912">
        <ele>64.5457</ele>
        <time>2014-06-01T12:31:39Z</time>
      </trkpt>
      <trkpt lat="59.7764605" lon="17.7133176">
        <ele>64.0651</ele>
        <time>2014-06-01T12:31:40Z</time>
      </trkpt>
      <trkpt lat="59.7764779" lon="17.7133368">
        <ele>63.5844</ele>
        <time>2014-06-01T12:31:41Z</time>
      </trkpt>
      <trkpt lat="59.7764926" lon="17.7133496">
        <ele>63.5844</ele>
        <time>2014-06-01T12:31:42Z</time>
      </trkpt>
      <trkpt lat="59.7765066" lon="17.7133595">
        <ele>63.5844</ele>
        <time>2014-06-01T12:31:43Z</time>
      </trkpt>
      <trkpt lat="59.7765185" lon="17.7133626">
        <ele>63.1036</ele>
        <time>2014-06-01T12:31:44Z</time>
      </trkpt>
      <trkpt lat="59.776534" lon="17.7133533">
        <ele>63.5844</ele>
        <time>2014-06-01T12:31:45Z</time>
      </trkpt>
      <trkpt lat="59.776547" lon="17.7133423">
        <ele>63.1036</ele>
        <time>2014-06-01T12:31:46Z</time>
      </trkpt>
      <trkpt lat="59.7765635" lon="17.7133336">
        <ele>62.6229</ele>
        <time>2014-06-01T12:31:47Z</time>
      </trkpt>
      <trkpt lat="59.7765844" lon="17.7133243">
        <ele>62.6229</ele>
        <time>2014-06-01T12:31:48Z</time>
      </trkpt>
      <trkpt lat="59.7766033" lon="17.7133101">
        <ele>62.1423</ele>
        <time>2014-06-01T12:31:49Z</time>
      </trkpt>
      <trkpt lat="59.7766149" lon="17.7132882">
        <ele>62.1423</ele>
        <time>2014-06-01T12:31:50Z</time>
      </trkpt>
      <trkpt lat="59.7766247" lon="17.7132609">
        <ele>62.1423</ele>
        <time>2014-06-01T12:31:51Z</time>
      </trkpt>
      <trkpt lat="59.7766315" lon="17.7132306">
        <ele>61.6617</ele>
        <time>2014-06-01T12:31:52Z</time>
      </trkpt>
      <trkpt lat="59.7766376" lon="17.713203">
        <ele>61.181</ele>
        <time>2014-06-01T12:31:53Z</time>
      </trkpt>
      <trkpt lat="59.7766454" lon="17.7131844">
        <ele>60.2197</ele>
        <time>2014-06-01T12:31:54Z</time>
      </trkpt>
      <trkpt lat="59.7766581" lon="17.7131768">
        <ele>60.2197</ele>
        <time>2014-06-01T12:31:55Z</time>
      </trkpt>
      <trkpt lat="59.7766664" lon="17.7131721">
        <ele>59.2584</ele>
        <time>2014-06-01T12:31:56Z</time>
      </trkpt>
      <trkpt lat="59.7766749" lon="17.7131656">
        <ele>58.7777</ele>
        <time>2014-06-01T12:31:57Z</time>
      </trkpt>
      <trkpt lat="59.7766828" lon="17.7131547">
        <ele>58.2971</ele>
        <time>2014-06-01T12:31:58Z</time>
      </trkpt>
      <trkpt lat="59.776691" lon="17.7131415">
        <ele>57.8165</ele>
        <time>2014-06-01T12:31:59Z</time>
      </trkpt>
      <trkpt lat="59.776702" lon="17.7131286">
        <ele>57.3358</ele>
        <time>2014-06-01T12:32:00Z</time>
      </trkpt>
      <trkpt lat="59.7767169" lon="17.7131151">
        <ele>57.3358</ele>
        <time>2014-06-01T12:32:01Z</time>
      </trkpt>
      <trkpt lat="59.7767345" lon="17.7130978">
        <ele>56.8551</ele>
        <time>2014-06-01T12:32:02Z</time>
      </trkpt>
      <trkpt lat="59.7767553" lon="17.713078">
        <ele>56.8551</ele>
        <time>2014-06-01T12:32:03Z</time>
      </trkpt>
      <trkpt lat="59.7767723" lon="17.7130553">
        <ele>56.8551</ele>
        <time>2014-06-01T12:32:04Z</time>
      </trkpt>
      <trkpt lat="59.7767854" lon="17.7130327">
        <ele>57.3358</ele>
        <time>2014-06-01T12:32:05Z</time>
      </trkpt>
      <trkpt lat="59.776793" lon="17.7130125">
        <ele>56.8551</ele>
        <time>2014-06-01T12:32:06Z</time>
      </trkpt>
      <trkpt lat="59.7767982" lon="17.7129906">
        <ele>57.3358</ele>
        <time>2014-06-01T12:32:07Z</time>
      </trkpt>
      <trkpt lat="59.776803" lon="17.7129674">
        <ele>56.8551</ele>
        <time>2014-06-01T12:32:08Z</time>
      </trkpt>
      <trkpt lat="59.7768101" lon="17.7129496">
        <ele>56.3745</ele>
        <time>2014-06-01T12:32:09Z</time>
      </trkpt>
      <trkpt lat="59.7768189" lon="17.7129261">
        <ele>56.8551</ele>
        <time>2014-06-01T12:32:10Z</time>
      </trkpt>
      <trkpt lat="59.7768222" lon="17.7129026">
        <ele>56.8551</ele>
        <time>2014-06-01T12:32:11Z</time>
      </trkpt>
      <trkpt lat="59.7768247" lon="17.7128846">
        <ele>56.3745</ele>
        <time>2014-06-01T12:32:12Z</time>
      </trkpt>
      <trkpt lat="59.7768314" lon="17.712867">
        <ele>56.3745</ele>
        <time>2014-06-01T12:32:13Z</time>
      </trkpt>
      <trkpt lat="59.7768391" lon="17.7128488">
        <ele>56.3745</ele>
        <time>2014-06-01T12:32:14Z</time>
      </trkpt>
      <trkpt lat="59.7768479" lon="17.7128395">
        <ele>56.3745</ele>
        <time>2014-06-01T12:32:15Z</time>
      </trkpt>
      <trkpt lat="59.7768557" lon="17.712839">
        <ele>56.3745</ele>
        <time>2014-06-01T12:32:16Z</time>
      </trkpt>
      <trkpt lat="59.7768612" lon="17.7128396">
        <ele>56.8551</ele>
        <time>2014-06-01T12:32:17Z</time>
      </trkpt>
      <trkpt lat="59.7768645" lon="17.7128449">
        <ele>57.3358</ele>
        <time>2014-06-01T12:32:18Z</time>
      </trkpt>
      <trkpt lat="59.7768671" lon="17.7128576">
        <ele>57.3358</ele>
        <time>2014-06-01T12:32:19Z</time>
      </trkpt>
      <trkpt lat="59.7768717" lon="17.7128743">
        <ele>57.8165</ele>
        <time>2014-06-01T12:32:20Z</time>
      </trkpt>
      <trkpt lat="59.7768718" lon="17.7128918">
        <ele>57.8165</ele>
        <time>2014-06-01T12:32:21Z</time>
      </trkpt>
      <trkpt lat="59.7768747" lon="17.7129064">
        <ele>57.8165</ele>
        <time>2014-06-01T12:32:22Z</time>
      </trkpt>
      <trkpt lat="59.776879" lon="17.7129182">
        <ele>58.2971</ele>
        <time>2014-06-01T12:32:23Z</time>
      </trkpt>
      <trkpt lat="59.7768837" lon="17.7129363">
        <ele>58.2971</ele>
        <time>2014-06-01T12:32:24Z</time>
      </trkpt>
      <trkpt lat="59.7768853" lon="17.7129473">
        <ele>58.7777</ele>
        <time>2014-06-01T12:32:25Z</time>
      </trkpt>
      <trkpt lat="59.7768889" lon="17.7129476">
        <ele>58.7777</ele>
        <time>2014-06-01T12:32:26Z</time>
      </trkpt>
      <trkpt lat="59.7768926" lon="17.7129508">
        <ele>59.2584</ele>
        <time>2014-06-01T12:32:27Z</time>
      </trkpt>
      <trkpt lat="59.7768992" lon="17.7129592">
        <ele>59.7391</ele>
        <time>2014-06-01T12:32:28Z</time>
      </trkpt>
      <trkpt lat="59.7769111" lon="17.7129665">
        <ele>59.7391</ele>
        <time>2014-06-01T12:32:29Z</time>
      </trkpt>
      <trkpt lat="59.7769265" lon="17.7129615">
        <ele>60.2197</ele>
        <time>2014-06-01T12:32:30Z</time>
      </trkpt>
      <trkpt lat="59.7769355" lon="17.7129496">
        <ele>59.2584</ele>
        <time>2014-06-01T12:32:31Z</time>
      </trkpt>
      <trkpt lat="59.7769443" lon="17.7129347">
        <ele>59.2584</ele>
        <time>2014-06-01T12:32:32Z</time>
      </trkpt>
      <trkpt lat="59.7769557" lon="17.7129178">
        <ele>58.7777</ele>
        <time>2014-06-01T12:32:33Z</time>
      </trkpt>
      <trkpt lat="59.7769686" lon="17.7129015">
        <ele>59.2584</ele>
        <time>2014-06-01T12:32:34Z</time>
      </trkpt>
      <trkpt lat="59.7769755" lon="17.712884">
        <ele>58.7777</ele>
        <time>2014-06-01T12:32:35Z</time>
      </trkpt>
      <trkpt lat="59.7769837" lon="17.7128617">
        <ele>58.2971</ele>
        <time>2014-06-01T12:32:36Z</time>
      </trkpt>
      <trkpt lat="59.7769986" lon="17.7128332">
        <ele>58.2971</ele>
        <time>2014-06-01T12:32:37Z</time>
      </trkpt>
      <trkpt lat="59.7770136" lon="17.712812">
        <ele>57.8165</ele>
        <time>2014-06-01T12:32:38Z</time>
      </trkpt>
      <trkpt lat="59.7770272" lon="17.71279">
        <ele>58.2971</ele>
        <time>2014-06-01T12:32:39Z</time>
      </trkpt>
      <trkpt lat="59.7770356" lon="17.7127612">
        <ele>57.8165</ele>
        <time>2014-06-01T12:32:40Z</time>
      </trkpt>
      <trkpt lat="59.7770417" lon="17.7127251">
        <ele>57.8165</ele>
        <time>2014-06-01T12:32:41Z</time>
      </trkpt>
      <trkpt lat="59.7770489" lon="17.7126883">
        <ele>57.8165</ele>
        <time>2014-06-01T12:32:42Z</time>
      </trkpt>
      <trkpt lat="59.7770613" lon="17.7126488">
        <ele>57.8165</ele>
        <time>2014-06-01T12:32:43Z</time>
      </trkpt>
      <trkpt lat="59.7770804" lon="17.7126082">
        <ele>57.3358</ele>
        <time>2014-06-01T12:32:44Z</time>
      </trkpt>
      <trkpt lat="59.7771037" lon="17.7125754">
        <ele>57.8165</ele>
        <time>2014-06-01T12:32:45Z</time>
      </trkpt>
      <trkpt lat="59.7771256" lon="17.7125499">
        <ele>58.2971</ele>
        <time>2014-06-01T12:32:46Z</time>
      </trkpt>
      <trkpt lat="59.777137" lon="17.7125277">
        <ele>57.8165</ele>
        <time>2014-06-01T12:32:47Z</time>
      </trkpt>
      <trkpt lat="59.7771484" lon="17.7125054">
        <ele>57.8165</ele>
        <time>2014-06-01T12:32:48Z</time>
      </trkpt>
      <trkpt lat="59.777156" lon="17.7124831">
        <ele>57.8165</ele>
        <time>2014-06-01T12:32:49Z</time>
      </trkpt>
      <trkpt lat="59.777167" lon="17.7124684">
        <ele>57.8165</ele>
        <time>2014-06-01T12:32:50Z</time>
      </trkpt>
      <trkpt lat="59.7771793" lon="17.7124509">
        <ele>57.8165</ele>
        <time>2014-06-01T12:32:51Z</time>
      </trkpt>
      <trkpt lat="59.7771903" lon="17.7124352">
        <ele>56.8551</ele>
        <time>2014-06-01T12:32:52Z</time>
      </trkpt>
      <trkpt lat="59.7772036" lon="17.7124264">
        <ele>56.8551</ele>
        <time>2014-06-01T12:32:53Z</time>
      </trkpt>
      <trkpt lat="59.7772174" lon="17.7124191">
        <ele>55.8938</ele>
        <time>2014-06-01T12:32:54Z</time>
      </trkpt>
      <trkpt lat="59.7772373" lon="17.712414">
        <ele>55.8938</ele>
        <time>2014-06-01T12:32:55Z</time>
      </trkpt>
      <trkpt lat="59.777258" lon="17.7124126">
        <ele>55.4131</ele>
        <time>2014-06-01T12:32:56Z</time>
      </trkpt>
      <trkpt lat="59.7772706" lon="17.712415">
        <ele>54.9324</ele>
        <time>2014-06-01T12:32:57Z</time>
      </trkpt>
      <trkpt lat="59.7772801" lon="17.7124105">
        <ele>54.9324</ele>
        <time>2014-06-01T12:32:58Z</time>
      </trkpt>
      <trkpt lat="59.7772906" lon="17.7123985">
        <ele>54.4518</ele>
        <time>2014-06-01T12:32:59Z</time>
      </trkpt>
      <trkpt lat="59.7773043" lon="17.7123831">
        <ele>54.4518</ele>
        <time>2014-06-01T12:33:00Z</time>
      </trkpt>
      <trkpt lat="59.7773187" lon="17.7123655">
        <ele>54.4518</ele>
        <time>2014-06-01T12:33:01Z</time>
      </trkpt>
      <trkpt lat="59.7773318" lon="17.7123504">
        <ele>53.9712</ele>
        <time>2014-06-01T12:33:02Z</time>
      </trkpt>
      <trkpt lat="59.7773446" lon="17.7123411">
        <ele>54.4518</ele>
        <time>2014-06-01T12:33:03Z</time>
      </trkpt>
      <trkpt lat="59.7773603" lon="17.7123314">
        <ele>54.4518</ele>
        <time>2014-06-01T12:33:04Z</time>
      </trkpt>
      <trkpt lat="59.777379" lon="17.712309">
        <ele>54.4518</ele>
        <time>2014-06-01T12:33:05Z</time>
      </trkpt>
      <trkpt lat="59.7773985" lon="17.7122774">
        <ele>54.9324</ele>
        <time>2014-06-01T12:33:06Z</time>
      </trkpt>
      <trkpt lat="59.7774108" lon="17.7122437">
        <ele>55.4131</ele>
        <time>2014-06-01T12:33:07Z</time>
      </trkpt>
      <trkpt lat="59.7774183" lon="17.712208">
        <ele>55.4131</ele>
        <time>2014-06-01T12:33:08Z</time>
      </trkpt>
      <trkpt lat="59.7774301" lon="17.7121777">
        <ele>55.8938</ele>
        <time>2014-06-01T12:33:09Z</time>
      </trkpt>
      <trkpt lat="59.7774388" lon="17.7121457">
        <ele>54.9324</ele>
        <time>2014-06-01T12:33:10Z</time>
      </trkpt>
      <trkpt lat="59.7774531" lon="17.71212">
        <ele>54.9324</ele>
        <time>2014-06-01T12:33:11Z</time>
      </trkpt>
      <trkpt lat="59.7774676" lon="17.7120909">
        <ele>55.4131</ele>
        <time>2014-06-01T12:33:12Z</time>
      </trkpt>
      <trkpt lat="59.777479" lon="17.7120623">
        <ele>54.9324</ele>
        <time>2014-06-01T12:33:13Z</time>
      </trkpt>
      <trkpt lat="59.7774966" lon="17.7120286">
        <ele>55.8938</ele>
        <time>2014-06-01T12:33:14Z</time>
      </trkpt>
      <trkpt lat="59.7775135" lon="17.7119998">
        <ele>55.8938</ele>
        <time>2014-06-01T12:33:15Z</time>
      </trkpt>
      <trkpt lat="59.7775286" lon="17.7119842">
        <ele>56.3745</ele>
        <time>2014-06-01T12:33:16Z</time>
      </trkpt>
      <trkpt lat="59.7775457" lon="17.7119716">
        <ele>56.8551</ele>
        <time>2014-06-01T12:33:17Z</time>
      </trkpt>
      <trkpt lat="59.7775658" lon="17.7119573">
        <ele>56.3745</ele>
        <time>2014-06-01T12:33:18Z</time>
      </trkpt>
      <trkpt lat="59.7775918" lon="17.7119462">
        <ele>56.8551</ele>
        <time>2014-06-01T12:33:19Z</time>
      </trkpt>
      <trkpt lat="59.7776217" lon="17.7119366">
        <ele>57.8165</ele>
        <time>2014-06-01T12:33:20Z</time>
      </trkpt>
      <trkpt lat="59.777655" lon="17.7119245">
        <ele>58.2971</ele>
        <time>2014-06-01T12:33:21Z</time>
      </trkpt>
      <trkpt lat="59.7776874" lon="17.7119082">
        <ele>58.7777</ele>
        <time>2014-06-01T12:33:22Z</time>
      </trkpt>
      <trkpt lat="59.7777154" lon="17.7119013">
        <ele>58.7777</ele>
        <time>2014-06-01T12:33:23Z</time>
      </trkpt>
      <trkpt lat="59.7777379" lon="17.7119073">
        <ele>58.2971</ele>
        <time>2014-06-01T12:33:24Z</time>
      </trkpt>
      <trkpt lat="59.7777555" lon="17.7119142">
        <ele>58.7777</ele>
        <time>2014-06-01T12:33:25Z</time>
      </trkpt>
      <trkpt lat="59.7777726" lon="17.711919">
        <ele>58.7777</ele>
        <time>2014-06-01T12:33:26Z</time>
      </trkpt>
      <trkpt lat="59.777795" lon="17.7119268">
        <ele>59.2584</ele>
        <time>2014-06-01T12:33:27Z</time>
      </trkpt>
      <trkpt lat="59.7778188" lon="17.7119374">
        <ele>60.2197</ele>
        <time>2014-06-01T12:33:28Z</time>
      </trkpt>
      <trkpt lat="59.7778429" lon="17.711954">
        <ele>60.7003</ele>
        <time>2014-06-01T12:33:29Z</time>
      </trkpt>
      <trkpt lat="59.7778664" lon="17.711975">
        <ele>61.181</ele>
        <time>2014-06-01T12:33:30Z</time>
      </trkpt>
      <trkpt lat="59.7778886" lon="17.7119973">
        <ele>61.6617</ele>
        <time>2014-06-01T12:33:31Z</time>
      </trkpt>
      <trkpt lat="59.7779108" lon="17.7120182">
        <ele>61.6617</ele>
        <time>2014-06-01T12:33:32Z</time>
      </trkpt>
      <trkpt lat="59.7779321" lon="17.7120384">
        <ele>61.6617</ele>
        <time>2014-06-01T12:33:33Z</time>
      </trkpt>
      <trkpt lat="59.7779495" lon="17.7120543">
        <ele>61.6617</ele>
        <time>2014-06-01T12:33:34Z</time>
      </trkpt>
      <trkpt lat="59.7779663" lon="17.7120593">
        <ele>61.6617</ele>
        <time>2014-06-01T12:33:35Z</time>
      </trkpt>
      <trkpt lat="59.7779845" lon="17.7120567">
        <ele>61.6617</ele>
        <time>2014-06-01T12:33:36Z</time>
      </trkpt>
      <trkpt lat="59.7780021" lon="17.7120478">
        <ele>62.1423</ele>
        <time>2014-06-01T12:33:37Z</time>
      </trkpt>
      <trkpt lat="59.7780159" lon="17.7120329">
        <ele>62.1423</ele>
        <time>2014-06-01T12:33:38Z</time>
      </trkpt>
      <trkpt lat="59.7780315" lon="17.7120039">
        <ele>62.6229</ele>
        <time>2014-06-01T12:33:39Z</time>
      </trkpt>
      <trkpt lat="59.7780452" lon="17.7119665">
        <ele>62.6229</ele>
        <time>2014-06-01T12:33:40Z</time>
      </trkpt>
      <trkpt lat="59.7780646" lon="17.7119344">
        <ele>62.6229</ele>
        <time>2014-06-01T12:33:41Z</time>
      </trkpt>
      <trkpt lat="59.7780777" lon="17.7119048">
        <ele>62.6229</ele>
        <time>2014-06-01T12:33:42Z</time>
      </trkpt>
      <trkpt lat="59.778087" lon="17.7118791">
        <ele>63.1036</ele>
        <time>2014-06-01T12:33:43Z</time>
      </trkpt>
      <trkpt lat="59.7780907" lon="17.7118577">
        <ele>63.5844</ele>
        <time>2014-06-01T12:33:44Z</time>
      </trkpt>
      <trkpt lat="59.7780953" lon="17.7118374">
        <ele>63.5844</ele>
        <time>2014-06-01T12:33:45Z</time>
      </trkpt>
      <trkpt lat="59.7781026" lon="17.7118234">
        <ele>63.5844</ele>
        <time>2014-06-01T12:33:46Z</time>
      </trkpt>
      <trkpt lat="59.7781082" lon="17.7118122">
        <ele>63.1036</ele>
        <time>2014-06-01T12:33:47Z</time>
      </trkpt>
      <trkpt lat="59.7781138" lon="17.7117958">
        <ele>62.6229</ele>
        <time>2014-06-01T12:33:48Z</time>
      </trkpt>
      <trkpt lat="59.7781179" lon="17.7117749">
        <ele>61.6617</ele>
        <time>2014-06-01T12:33:49Z</time>
      </trkpt>
      <trkpt lat="59.7781254" lon="17.7117568">
        <ele>61.181</ele>
        <time>2014-06-01T12:33:50Z</time>
      </trkpt>
      <trkpt lat="59.778144" lon="17.711734">
        <ele>61.6617</ele>
        <time>2014-06-01T12:33:51Z</time>
      </trkpt>
      <trkpt lat="59.7781622" lon="17.7116976">
        <ele>61.181</ele>
        <time>2014-06-01T12:33:52Z</time>
      </trkpt>
      <trkpt lat="59.7781827" lon="17.7116579">
        <ele>61.181</ele>
        <time>2014-06-01T12:33:53Z</time>
      </trkpt>
      <trkpt lat="59.7781998" lon="17.7116198">
        <ele>60.7003</ele>
        <time>2014-06-01T12:33:54Z</time>
      </trkpt>
      <trkpt lat="59.7782122" lon="17.7115952">
        <ele>60.7003</ele>
        <time>2014-06-01T12:33:55Z</time>
      </trkpt>
      <trkpt lat="59.7782182" lon="17.7115703">
        <ele>60.2197</ele>
        <time>2014-06-01T12:33:56Z</time>
      </trkpt>
      <trkpt lat="59.7782269" lon="17.7115387">
        <ele>60.7003</ele>
        <time>2014-06-01T12:33:57Z</time>
      </trkpt>
      <trkpt lat="59.7782399" lon="17.7115119">
        <ele>60.7003</ele>
        <time>2014-06-01T12:33:58Z</time>
      </trkpt>
      <trkpt lat="59.7782553" lon="17.7114948">
        <ele>60.7003</ele>
        <time>2014-06-01T12:33:59Z</time>
      </trkpt>
      <trkpt lat="59.7782686" lon="17.7114767">
        <ele>60.2197</ele>
        <time>2014-06-01T12:34:00Z</time>
      </trkpt>
      <trkpt lat="59.7782845" lon="17.7114511">
        <ele>59.7391</ele>
        <time>2014-06-01T12:34:01Z</time>
      </trkpt>
      <trkpt lat="59.7782973" lon="17.71142">
        <ele>59.2584</ele>
        <time>2014-06-01T12:34:02Z</time>
      </trkpt>
      <trkpt lat="59.7783077" lon="17.7113942">
        <ele>59.2584</ele>
        <time>2014-06-01T12:34:03Z</time>
      </trkpt>
      <trkpt lat="59.7783158" lon="17.7113718">
        <ele>58.7777</ele>
        <time>2014-06-01T12:34:04Z</time>
      </trkpt>
      <trkpt lat="59.7783335" lon="17.7113522">
        <ele>58.7777</ele>
        <time>2014-06-01T12:34:05Z</time>
      </trkpt>
      <trkpt lat="59.7783569" lon="17.7113305">
        <ele>59.2584</ele>
        <time>2014-06-01T12:34:06Z</time>
      </trkpt>
      <trkpt lat="59.7783828" lon="17.7113061">
        <ele>59.7391</ele>
        <time>2014-06-01T12:34:07Z</time>
      </trkpt>
      <trkpt lat="59.7784078" lon="17.7112895">
        <ele>59.7391</ele>
        <time>2014-06-01T12:34:08Z</time>
      </trkpt>
      <trkpt lat="59.7784331" lon="17.7112797">
        <ele>59.7391</ele>
        <time>2014-06-01T12:34:09Z</time>
      </trkpt>
      <trkpt lat="59.7784526" lon="17.7112569">
        <ele>59.7391</ele>
        <time>2014-06-01T12:34:10Z</time>
      </trkpt>
      <trkpt lat="59.7784662" lon="17.7112304">
        <ele>58.7777</ele>
        <time>2014-06-01T12:34:11Z</time>
      </trkpt>
      <trkpt lat="59.7784852" lon="17.7111999">
        <ele>59.7391</ele>
        <time>2014-06-01T12:34:12Z</time>
      </trkpt>
      <trkpt lat="59.7785061" lon="17.7111684">
        <ele>60.2197</ele>
        <time>2014-06-01T12:34:13Z</time>
      </trkpt>
      <trkpt lat="59.778521" lon="17.7111445">
        <ele>59.7391</ele>
        <time>2014-06-01T12:34:14Z</time>
      </trkpt>
      <trkpt lat="59.7785337" lon="17.7111249">
        <ele>60.2197</ele>
        <time>2014-06-01T12:34:15Z</time>
      </trkpt>
      <trkpt lat="59.7785478" lon="17.7111079">
        <ele>60.2197</ele>
        <time>2014-06-01T12:34:16Z</time>
      </trkpt>
      <trkpt lat="59.7785631" lon="17.7110897">
        <ele>60.2197</ele>
        <time>2014-06-01T12:34:17Z</time>
      </trkpt>
      <trkpt lat="59.778578" lon="17.7110694">
        <ele>59.7391</ele>
        <time>2014-06-01T12:34:18Z</time>
      </trkpt>
      <trkpt lat="59.7785914" lon="17.7110495">
        <ele>59.2584</ele>
        <time>2014-06-01T12:34:19Z</time>
      </trkpt>
      <trkpt lat="59.778608" lon="17.71103">
        <ele>59.2584</ele>
        <time>2014-06-01T12:34:20Z</time>
      </trkpt>
      <trkpt lat="59.7786262" lon="17.7110027">
        <ele>59.2584</ele>
        <time>2014-06-01T12:34:21Z</time>
      </trkpt>
      <trkpt lat="59.7786419" lon="17.7109749">
        <ele>59.2584</ele>
        <time>2014-06-01T12:34:22Z</time>
      </trkpt>
      <trkpt lat="59.7786532" lon="17.7109495">
        <ele>59.2584</ele>
        <time>2014-06-01T12:34:23Z</time>
      </trkpt>
      <trkpt lat="59.7786536" lon="17.7109317">
        <ele>59.2584</ele>
        <time>2014-06-01T12:34:24Z</time>
      </trkpt>
      <trkpt lat="59.7786542" lon="17.7109218">
        <ele>59.7391</ele>
        <time>2014-06-01T12:34:25Z</time>
      </trkpt>
      <trkpt lat="59.7786562" lon="17.7109094">
        <ele>60.2197</ele>
        <time>2014-06-01T12:34:26Z</time>
      </trkpt>
      <trkpt lat="59.7786589" lon="17.7108965">
        <ele>60.7003</ele>
        <time>2014-06-01T12:34:27Z</time>
      </trkpt>
      <trkpt lat="59.7786613" lon="17.7108892">
        <ele>60.7003</ele>
        <time>2014-06-01T12:34:28Z</time>
      </trkpt>
      <trkpt lat="59.7786725" lon="17.7108867">
        <ele>61.181</ele>
        <time>2014-06-01T12:34:29Z</time>
      </trkpt>
      <trkpt lat="59.7786853" lon="17.7108829">
        <ele>61.181</ele>
        <time>2014-06-01T12:34:30Z</time>
      </trkpt>
      <trkpt lat="59.7787055" lon="17.7108695">
        <ele>61.181</ele>
        <time>2014-06-01T12:34:31Z</time>
      </trkpt>
      <trkpt lat="59.7787283" lon="17.7108456">
        <ele>61.181</ele>
        <time>2014-06-01T12:34:32Z</time>
      </trkpt>
      <trkpt lat="59.7787499" lon="17.7108218">
        <ele>61.6617</ele>
        <time>2014-06-01T12:34:33Z</time>
      </trkpt>
      <trkpt lat="59.7787713" lon="17.7107999">
        <ele>62.1423</ele>
        <time>2014-06-01T12:34:34Z</time>
      </trkpt>
      <trkpt lat="59.7787898" lon="17.7107748">
        <ele>61.181</ele>
        <time>2014-06-01T12:34:35Z</time>
      </trkpt>
      <trkpt lat="59.778805" lon="17.7107477">
        <ele>60.7003</ele>
        <time>2014-06-01T12:34:36Z</time>
      </trkpt>
      <trkpt lat="59.7788226" lon="17.7107326">
        <ele>60.7003</ele>
        <time>2014-06-01T12:34:37Z</time>
      </trkpt>
      <trkpt lat="59.7788365" lon="17.7107182">
        <ele>60.7003</ele>
        <time>2014-06-01T12:34:38Z</time>
      </trkpt>
      <trkpt lat="59.7788481" lon="17.7107057">
        <ele>60.2197</ele>
        <time>2014-06-01T12:34:39Z</time>
      </trkpt>
      <trkpt lat="59.7788644" lon="17.7106927">
        <ele>60.2197</ele>
        <time>2014-06-01T12:34:40Z</time>
      </trkpt>
      <trkpt lat="59.7788838" lon="17.7106793">
        <ele>60.2197</ele>
        <time>2014-06-01T12:34:41Z</time>
      </trkpt>
      <trkpt lat="59.7789065" lon="17.7106638">
        <ele>60.2197</ele>
        <time>2014-06-01T12:34:42Z</time>
      </trkpt>
      <trkpt lat="59.7789358" lon="17.710646">
        <ele>61.6617</ele>
        <time>2014-06-01T12:34:43Z</time>
      </trkpt>
      <trkpt lat="59.7789526" lon="17.7106268">
        <ele>61.181</ele>
        <time>2014-06-01T12:34:44Z</time>
      </trkpt>
      <trkpt lat="59.7789706" lon="17.71061">
        <ele>61.6617</ele>
        <time>2014-06-01T12:34:45Z</time>
      </trkpt>
      <trkpt lat="59.7789868" lon="17.7105909">
        <ele>61.181</ele>
        <time>2014-06-01T12:34:46Z</time>
      </trkpt>
      <trkpt lat="59.7790018" lon="17.7105664">
        <ele>61.6617</ele>
        <time>2014-06-01T12:34:47Z</time>
      </trkpt>
      <trkpt lat="59.7790086" lon="17.7105474">
        <ele>61.181</ele>
        <time>2014-06-01T12:34:48Z</time>
      </trkpt>
      <trkpt lat="59.7790109" lon="17.7105255">
        <ele>60.2197</ele>
        <time>2014-06-01T12:34:49Z</time>
      </trkpt>
      <trkpt lat="59.779021" lon="17.7105011">
        <ele>60.7003</ele>
        <time>2014-06-01T12:34:50Z</time>
      </trkpt>
      <trkpt lat="59.7790422" lon="17.7104784">
        <ele>62.1423</ele>
        <time>2014-06-01T12:34:51Z</time>
      </trkpt>
      <trkpt lat="59.7790551" lon="17.7104598">
        <ele>61.6617</ele>
        <time>2014-06-01T12:34:52Z</time>
      </trkpt>
      <trkpt lat="59.7790614" lon="17.7104328">
        <ele>60.7003</ele>
        <time>2014-06-01T12:34:53Z</time>
      </trkpt>
      <trkpt lat="59.7790666" lon="17.7104027">
        <ele>60.2197</ele>
        <time>2014-06-01T12:34:54Z</time>
      </trkpt>
      <trkpt lat="59.7790717" lon="17.710378">
        <ele>59.7391</ele>
        <time>2014-06-01T12:34:55Z</time>
      </trkpt>
      <trkpt lat="59.7790769" lon="17.7103451">
        <ele>59.7391</ele>
        <time>2014-06-01T12:34:56Z</time>
      </trkpt>
      <trkpt lat="59.7790799" lon="17.7103064">
        <ele>58.7777</ele>
        <time>2014-06-01T12:34:57Z</time>
      </trkpt>
      <trkpt lat="59.7790872" lon="17.7102685">
        <ele>58.7777</ele>
        <time>2014-06-01T12:34:58Z</time>
      </trkpt>
      <trkpt lat="59.7790944" lon="17.7102321">
        <ele>58.7777</ele>
        <time>2014-06-01T12:34:59Z</time>
      </trkpt>
      <trkpt lat="59.7791055" lon="17.7101993">
        <ele>59.2584</ele>
        <time>2014-06-01T12:35:00Z</time>
      </trkpt>
      <trkpt lat="59.7791225" lon="17.710168">
        <ele>59.7391</ele>
        <time>2014-06-01T12:35:01Z</time>
      </trkpt>
      <trkpt lat="59.7791428" lon="17.7101519">
        <ele>60.2197</ele>
        <time>2014-06-01T12:35:02Z</time>
      </trkpt>
      <trkpt lat="59.7791644" lon="17.7101478">
        <ele>61.181</ele>
        <time>2014-06-01T12:35:03Z</time>
      </trkpt>
      <trkpt lat="59.779178" lon="17.7101499">
        <ele>61.6617</ele>
        <time>2014-06-01T12:35:04Z</time>
      </trkpt>
      <trkpt lat="59.7791899" lon="17.7101406">
        <ele>62.1423</ele>
        <time>2014-06-01T12:35:05Z</time>
      </trkpt>
      <trkpt lat="59.7792014" lon="17.710122">
        <ele>62.1423</ele>
        <time>2014-06-01T12:35:06Z</time>
      </trkpt>
      <trkpt lat="59.7792106" lon="17.7100874">
        <ele>62.1423</ele>
        <time>2014-06-01T12:35:07Z</time>
      </trkpt>
      <trkpt lat="59.7792135" lon="17.7100364">
        <ele>61.181</ele>
        <time>2014-06-01T12:35:08Z</time>
      </trkpt>
      <trkpt lat="59.779211" lon="17.7099852">
        <ele>61.181</ele>
        <time>2014-06-01T12:35:09Z</time>
      </trkpt>
      <trkpt lat="59.7792059" lon="17.7099395">
        <ele>60.7003</ele>
        <time>2014-06-01T12:35:10Z</time>
      </trkpt>
      <trkpt lat="59.779198" lon="17.7098934">
        <ele>60.2197</ele>
        <time>2014-06-01T12:35:11Z</time>
      </trkpt>
      <trkpt lat="59.7791945" lon="17.70985">
        <ele>60.7003</ele>
        <time>2014-06-01T12:35:12Z</time>
      </trkpt>
      <trkpt lat="59.7791955" lon="17.7098058">
        <ele>61.181</ele>
        <time>2014-06-01T12:35:13Z</time>
      </trkpt>
      <trkpt lat="59.7792002" lon="17.7097614">
        <ele>61.181</ele>
        <time>2014-06-01T12:35:14Z</time>
      </trkpt>
      <trkpt lat="59.7792116" lon="17.7097177">
        <ele>62.1423</ele>
        <time>2014-06-01T12:35:15Z</time>
      </trkpt>
      <trkpt lat="59.7792159" lon="17.7096552">
        <ele>61.181</ele>
        <time>2014-06-01T12:35:16Z</time>
      </trkpt>
      <trkpt lat="59.7792192" lon="17.7095864">
        <ele>60.2197</ele>
        <time>2014-06-01T12:35:17Z</time>
      </trkpt>
      <trkpt lat="59.7792264" lon="17.709524">
        <ele>59.7391</ele>
        <time>2014-06-01T12:35:18Z</time>
      </trkpt>
      <trkpt lat="59.779237" lon="17.709475">
        <ele>59.7391</ele>
        <time>2014-06-01T12:35:19Z</time>
      </trkpt>
      <trkpt lat="59.7792489" lon="17.7094381">
        <ele>60.2197</ele>
        <time>2014-06-01T12:35:20Z</time>
      </trkpt>
      <trkpt lat="59.7792629" lon="17.7094136">
        <ele>60.2197</ele>
        <time>2014-06-01T12:35:21Z</time>
      </trkpt>
      <trkpt lat="59.7792765" lon="17.7093976">
        <ele>59.7391</ele>
        <time>2014-06-01T12:35:22Z</time>
      </trkpt>
      <trkpt lat="59.779295" lon="17.7093801">
        <ele>59.7391</ele>
        <time>2014-06-01T12:35:23Z</time>
      </trkpt>
      <trkpt lat="59.7793135" lon="17.7093553">
        <ele>59.7391</ele>
        <time>2014-06-01T12:35:24Z</time>
      </trkpt>
      <trkpt lat="59.7793265" lon="17.7093222">
        <ele>59.2584</ele>
        <time>2014-06-01T12:35:25Z</time>
      </trkpt>
      <trkpt lat="59.7793405" lon="17.7092912">
        <ele>59.2584</ele>
        <time>2014-06-01T12:35:26Z</time>
      </trkpt>
      <trkpt lat="59.7793511" lon="17.709259">
        <ele>59.2584</ele>
        <time>2014-06-01T12:35:27Z</time>
      </trkpt>
      <trkpt lat="59.7793632" lon="17.7092284">
        <ele>59.2584</ele>
        <time>2014-06-01T12:35:28Z</time>
      </trkpt>
      <trkpt lat="59.7793759" lon="17.7091971">
        <ele>58.7777</ele>
        <time>2014-06-01T12:35:29Z</time>
      </trkpt>
      <trkpt lat="59.7793898" lon="17.7091588">
        <ele>59.2584</ele>
        <time>2014-06-01T12:35:30Z</time>
      </trkpt>
      <trkpt lat="59.7794003" lon="17.7091151">
        <ele>59.2584</ele>
        <time>2014-06-01T12:35:31Z</time>
      </trkpt>
      <trkpt lat="59.7794041" lon="17.7090626">
        <ele>58.7777</ele>
        <time>2014-06-01T12:35:32Z</time>
      </trkpt>
      <trkpt lat="59.7794104" lon="17.7090098">
        <ele>58.7777</ele>
        <time>2014-06-01T12:35:33Z</time>
      </trkpt>
      <trkpt lat="59.7794246" lon="17.7089605">
        <ele>58.2971</ele>
        <time>2014-06-01T12:35:34Z</time>
      </trkpt>
      <trkpt lat="59.7794436" lon="17.7089124">
        <ele>58.2971</ele>
        <time>2014-06-01T12:35:35Z</time>
      </trkpt>
      <trkpt lat="59.7794623" lon="17.70887">
        <ele>58.2971</ele>
        <time>2014-06-01T12:35:36Z</time>
      </trkpt>
      <trkpt lat="59.7794862" lon="17.7088341">
        <ele>58.2971</ele>
        <time>2014-06-01T12:35:37Z</time>
      </trkpt>
      <trkpt lat="59.7795093" lon="17.7087948">
        <ele>58.2971</ele>
        <time>2014-06-01T12:35:38Z</time>
      </trkpt>
      <trkpt lat="59.7795196" lon="17.7087498">
        <ele>57.8165</ele>
        <time>2014-06-01T12:35:39Z</time>
      </trkpt>
      <trkpt lat="59.7795261" lon="17.7087003">
        <ele>57.3358</ele>
        <time>2014-06-01T12:35:40Z</time>
      </trkpt>
      <trkpt lat="59.7795272" lon="17.7086522">
        <ele>57.3358</ele>
        <time>2014-06-01T12:35:41Z</time>
      </trkpt>
      <trkpt lat="59.7795251" lon="17.7086105">
        <ele>58.2971</ele>
        <time>2014-06-01T12:35:42Z</time>
      </trkpt>
      <trkpt lat="59.7795197" lon="17.7085659">
        <ele>58.2971</ele>
        <time>2014-06-01T12:35:43Z</time>
      </trkpt>
      <trkpt lat="59.7795157" lon="17.7085219">
        <ele>58.2971</ele>
        <time>2014-06-01T12:35:44Z</time>
      </trkpt>
      <trkpt lat="59.7795147" lon="17.7084922">
        <ele>58.7777</ele>
        <time>2014-06-01T12:35:45Z</time>
      </trkpt>
      <trkpt lat="59.7795153" lon="17.7084721">
        <ele>59.2584</ele>
        <time>2014-06-01T12:35:46Z</time>
      </trkpt>
      <trkpt lat="59.7795121" lon="17.7084477">
        <ele>58.7777</ele>
        <time>2014-06-01T12:35:47Z</time>
      </trkpt>
      <trkpt lat="59.779509" lon="17.7084224">
        <ele>59.2584</ele>
        <time>2014-06-01T12:35:48Z</time>
      </trkpt>
      <trkpt lat="59.7794996" lon="17.7083943">
        <ele>59.2584</ele>
        <time>2014-06-01T12:35:49Z</time>
      </trkpt>
      <trkpt lat="59.7794856" lon="17.7083649">
        <ele>59.7391</ele>
        <time>2014-06-01T12:35:50Z</time>
      </trkpt>
      <trkpt lat="59.7794737" lon="17.7083353">
        <ele>59.2584</ele>
        <time>2014-06-01T12:35:51Z</time>
      </trkpt>
      <trkpt lat="59.7794678" lon="17.7083136">
        <ele>59.2584</ele>
        <time>2014-06-01T12:35:52Z</time>
      </trkpt>
      <trkpt lat="59.779467" lon="17.7082961">
        <ele>59.7391</ele>
        <time>2014-06-01T12:35:53Z</time>
      </trkpt>
      <trkpt lat="59.779466" lon="17.7082761">
        <ele>59.7391</ele>
        <time>2014-06-01T12:35:54Z</time>
      </trkpt>
      <trkpt lat="59.7794573" lon="17.7082499">
        <ele>59.2584</ele>
        <time>2014-06-01T12:35:55Z</time>
      </trkpt>
      <trkpt lat="59.7794462" lon="17.7082224">
        <ele>59.2584</ele>
        <time>2014-06-01T12:35:56Z</time>
      </trkpt>
      <trkpt lat="59.7794339" lon="17.7081917">
        <ele>58.7777</ele>
        <time>2014-06-01T12:35:57Z</time>
      </trkpt>
      <trkpt lat="59.7794219" lon="17.7081583">
        <ele>58.7777</ele>
        <time>2014-06-01T12:35:58Z</time>
      </trkpt>
      <trkpt lat="59.7794088" lon="17.7081209">
        <ele>58.2971</ele>
        <time>2014-06-01T12:35:59Z</time>
      </trkpt>
      <trkpt lat="59.7793934" lon="17.708079">
        <ele>58.2971</ele>
        <time>2014-06-01T12:36:00Z</time>
      </trkpt>
      <trkpt lat="59.7793701" lon="17.7080251">
        <ele>57.3358</ele>
        <time>2014-06-01T12:36:01Z</time>
      </trkpt>
      <trkpt lat="59.7793461" lon="17.7079734">
        <ele>56.3745</ele>
        <time>2014-06-01T12:36:02Z</time>
      </trkpt>
      <trkpt lat="59.7793231" lon="17.7079352">
        <ele>55.8938</ele>
        <time>2014-06-01T12:36:03Z</time>
      </trkpt>
      <trkpt lat="59.7792979" lon="17.7079003">
        <ele>55.8938</ele>
        <time>2014-06-01T12:36:04Z</time>
      </trkpt>
      <trkpt lat="59.7792759" lon="17.707866">
        <ele>55.4131</ele>
        <time>2014-06-01T12:36:05Z</time>
      </trkpt>
      <trkpt lat="59.7792599" lon="17.7078235">
        <ele>55.4131</ele>
        <time>2014-06-01T12:36:06Z</time>
      </trkpt>
      <trkpt lat="59.779252" lon="17.707775">
        <ele>54.4518</ele>
        <time>2014-06-01T12:36:07Z</time>
      </trkpt>
      <trkpt lat="59.7792454" lon="17.7077227">
        <ele>53.9712</ele>
        <time>2014-06-01T12:36:08Z</time>
      </trkpt>
      <trkpt lat="59.7792495" lon="17.7076773">
        <ele>53.9712</ele>
        <time>2014-06-01T12:36:09Z</time>
      </trkpt>
      <trkpt lat="59.7792554" lon="17.7076376">
        <ele>53.9712</ele>
        <time>2014-06-01T12:36:10Z</time>
      </trkpt>
      <trkpt lat="59.7792598" lon="17.7075923">
        <ele>53.0098</ele>
        <time>2014-06-01T12:36:11Z</time>
      </trkpt>
      <trkpt lat="59.7792732" lon="17.7075567">
        <ele>53.4905</ele>
        <time>2014-06-01T12:36:12Z</time>
      </trkpt>
      <trkpt lat="59.7792826" lon="17.7075102">
        <ele>52.5292</ele>
        <time>2014-06-01T12:36:13Z</time>
      </trkpt>
      <trkpt lat="59.7792919" lon="17.7074594">
        <ele>52.0486</ele>
        <time>2014-06-01T12:36:14Z</time>
      </trkpt>
      <trkpt lat="59.7792982" lon="17.7074141">
        <ele>52.0486</ele>
        <time>2014-06-01T12:36:15Z</time>
      </trkpt>
      <trkpt lat="59.7792975" lon="17.7073742">
        <ele>52.0486</ele>
        <time>2014-06-01T12:36:16Z</time>
      </trkpt>
      <trkpt lat="59.7792975" lon="17.7073402">
        <ele>52.0486</ele>
        <time>2014-06-01T12:36:17Z</time>
      </trkpt>
      <trkpt lat="59.7792962" lon="17.7073101">
        <ele>51.5679</ele>
        <time>2014-06-01T12:36:18Z</time>
      </trkpt>
      <trkpt lat="59.7792987" lon="17.7072888">
        <ele>52.0486</ele>
        <time>2014-06-01T12:36:19Z</time>
      </trkpt>
      <trkpt lat="59.7793011" lon="17.7072627">
        <ele>52.0486</ele>
        <time>2014-06-01T12:36:20Z</time>
      </trkpt>
      <trkpt lat="59.7793033" lon="17.7072314">
        <ele>53.0098</ele>
        <time>2014-06-01T12:36:21Z</time>
      </trkpt>
      <trkpt lat="59.7793085" lon="17.7071983">
        <ele>53.9712</ele>
        <time>2014-06-01T12:36:22Z</time>
      </trkpt>
      <trkpt lat="59.7793153" lon="17.7071645">
        <ele>54.4518</ele>
        <time>2014-06-01T12:36:23Z</time>
      </trkpt>
      <trkpt lat="59.7793229" lon="17.7071351">
        <ele>53.9712</ele>
        <time>2014-06-01T12:36:24Z</time>
      </trkpt>
      <trkpt lat="59.7793283" lon="17.7071103">
        <ele>53.9712</ele>
        <time>2014-06-01T12:36:25Z</time>
      </trkpt>
      <trkpt lat="59.7793278" lon="17.7070854">
        <ele>53.0098</ele>
        <time>2014-06-01T12:36:26Z</time>
      </trkpt>
      <trkpt lat="59.7793302" lon="17.7070686">
        <ele>52.5292</ele>
        <time>2014-06-01T12:36:27Z</time>
      </trkpt>
      <trkpt lat="59.7793349" lon="17.7070528">
        <ele>53.0098</ele>
        <time>2014-06-01T12:36:28Z</time>
      </trkpt>
      <trkpt lat="59.7793381" lon="17.7070386">
        <ele>53.4905</ele>
        <time>2014-06-01T12:36:29Z</time>
      </trkpt>
      <trkpt lat="59.7793422" lon="17.7070243">
        <ele>54.4518</ele>
        <time>2014-06-01T12:36:30Z</time>
      </trkpt>
      <trkpt lat="59.7793405" lon="17.7070113">
        <ele>54.9324</ele>
        <time>2014-06-01T12:36:31Z</time>
      </trkpt>
      <trkpt lat="59.7793401" lon="17.7070002">
        <ele>55.4131</ele>
        <time>2014-06-01T12:36:32Z</time>
      </trkpt>
      <trkpt lat="59.7793396" lon="17.7069973">
        <ele>55.4131</ele>
        <time>2014-06-01T12:36:33Z</time>
      </trkpt>
      <trkpt lat="59.7793399" lon="17.7069937">
        <ele>55.8938</ele>
        <time>2014-06-01T12:36:34Z</time>
      </trkpt>
      <trkpt lat="59.7793112" lon="17.706814">
        <ele>55.4131</ele>
        <time>2014-06-01T12:36:42Z</time>
      </trkpt>
      <trkpt lat="59.7793158" lon="17.706787">
        <ele>55.8938</ele>
        <time>2014-06-01T12:36:43Z</time>
      </trkpt>
      <trkpt lat="59.7793204" lon="17.7067646">
        <ele>55.8938</ele>
        <time>2014-06-01T12:36:44Z</time>
      </trkpt>
      <trkpt lat="59.7793264" lon="17.7067389">
        <ele>56.3745</ele>
        <time>2014-06-01T12:36:45Z</time>
      </trkpt>
      <trkpt lat="59.77933" lon="17.7067143">
        <ele>56.8551</ele>
        <time>2014-06-01T12:36:46Z</time>
      </trkpt>
      <trkpt lat="59.779326" lon="17.7066917">
        <ele>56.8551</ele>
        <time>2014-06-01T12:36:47Z</time>
      </trkpt>
      <trkpt lat="59.7793163" lon="17.7066711">
        <ele>57.3358</ele>
        <time>2014-06-01T12:36:48Z</time>
      </trkpt>
      <trkpt lat="59.779308" lon="17.7066501">
        <ele>56.8551</ele>
        <time>2014-06-01T12:36:49Z</time>
      </trkpt>
      <trkpt lat="59.7793045" lon="17.7066252">
        <ele>56.3745</ele>
        <time>2014-06-01T12:36:50Z</time>
      </trkpt>
      <trkpt lat="59.779307" lon="17.7065871">
        <ele>56.3745</ele>
        <time>2014-06-01T12:36:51Z</time>
      </trkpt>
      <trkpt lat="59.7793116" lon="17.7065366">
        <ele>55.8938</ele>
        <time>2014-06-01T12:36:52Z</time>
      </trkpt>
      <trkpt lat="59.7793132" lon="17.7064965">
        <ele>55.8938</ele>
        <time>2014-06-01T12:36:53Z</time>
      </trkpt>
      <trkpt lat="59.7793095" lon="17.7064627">
        <ele>55.4131</ele>
        <time>2014-06-01T12:36:54Z</time>
      </trkpt>
      <trkpt lat="59.7793037" lon="17.7064353">
        <ele>55.8938</ele>
        <time>2014-06-01T12:36:55Z</time>
      </trkpt>
      <trkpt lat="59.7792955" lon="17.7064177">
        <ele>55.8938</ele>
        <time>2014-06-01T12:36:56Z</time>
      </trkpt>
      <trkpt lat="59.7792874" lon="17.7064001">
        <ele>55.4131</ele>
        <time>2014-06-01T12:36:57Z</time>
      </trkpt>
      <trkpt lat="59.7792827" lon="17.70638">
        <ele>56.3745</ele>
        <time>2014-06-01T12:36:58Z</time>
      </trkpt>
      <trkpt lat="59.7792774" lon="17.7063577">
        <ele>56.3745</ele>
        <time>2014-06-01T12:36:59Z</time>
      </trkpt>
      <trkpt lat="59.7792765" lon="17.7063342">
        <ele>56.8551</ele>
        <time>2014-06-01T12:37:00Z</time>
      </trkpt>
      <trkpt lat="59.7792769" lon="17.706302">
        <ele>57.8165</ele>
        <time>2014-06-01T12:37:01Z</time>
      </trkpt>
      <trkpt lat="59.7792843" lon="17.7062707">
        <ele>58.2971</ele>
        <time>2014-06-01T12:37:02Z</time>
      </trkpt>
      <trkpt lat="59.7792982" lon="17.7062493">
        <ele>58.2971</ele>
        <time>2014-06-01T12:37:03Z</time>
      </trkpt>
      <trkpt lat="59.7793131" lon="17.7062326">
        <ele>58.2971</ele>
        <time>2014-06-01T12:37:04Z</time>
      </trkpt>
      <trkpt lat="59.7793249" lon="17.7062131">
        <ele>58.7777</ele>
        <time>2014-06-01T12:37:05Z</time>
      </trkpt>
      <trkpt lat="59.7793311" lon="17.706193">
        <ele>58.2971</ele>
        <time>2014-06-01T12:37:06Z</time>
      </trkpt>
      <trkpt lat="59.7793374" lon="17.7061685">
        <ele>57.8165</ele>
        <time>2014-06-01T12:37:07Z</time>
      </trkpt>
      <trkpt lat="59.7793407" lon="17.7061354">
        <ele>57.8165</ele>
        <time>2014-06-01T12:37:08Z</time>
      </trkpt>
      <trkpt lat="59.7793435" lon="17.7060927">
        <ele>57.8165</ele>
        <time>2014-06-01T12:37:09Z</time>
      </trkpt>
      <trkpt lat="59.7793539" lon="17.7060442">
        <ele>58.7777</ele>
        <time>2014-06-01T12:37:10Z</time>
      </trkpt>
      <trkpt lat="59.7793623" lon="17.7060048">
        <ele>58.7777</ele>
        <time>2014-06-01T12:37:11Z</time>
      </trkpt>
      <trkpt lat="59.7793707" lon="17.7059758">
        <ele>59.7391</ele>
        <time>2014-06-01T12:37:12Z</time>
      </trkpt>
      <trkpt lat="59.7793763" lon="17.7059417">
        <ele>60.2197</ele>
        <time>2014-06-01T12:37:13Z</time>
      </trkpt>
      <trkpt lat="59.7793879" lon="17.7059019">
        <ele>60.2197</ele>
        <time>2014-06-01T12:37:14Z</time>
      </trkpt>
      <trkpt lat="59.7794002" lon="17.70587">
        <ele>60.7003</ele>
        <time>2014-06-01T12:37:15Z</time>
      </trkpt>
      <trkpt lat="59.7794002" lon="17.7058443">
        <ele>60.7003</ele>
        <time>2014-06-01T12:37:16Z</time>
      </trkpt>
      <trkpt lat="59.7793928" lon="17.7058121">
        <ele>60.7003</ele>
        <time>2014-06-01T12:37:17Z</time>
      </trkpt>
      <trkpt lat="59.7793888" lon="17.7057734">
        <ele>61.181</ele>
        <time>2014-06-01T12:37:18Z</time>
      </trkpt>
      <trkpt lat="59.7793904" lon="17.7057354">
        <ele>61.6617</ele>
        <time>2014-06-01T12:37:19Z</time>
      </trkpt>
      <trkpt lat="59.779396" lon="17.7056936">
        <ele>61.6617</ele>
        <time>2014-06-01T12:37:20Z</time>
      </trkpt>
      <trkpt lat="59.7794013" lon="17.7056422">
        <ele>60.2197</ele>
        <time>2014-06-01T12:37:21Z</time>
      </trkpt>
      <trkpt lat="59.7794147" lon="17.7055972">
        <ele>60.7003</ele>
        <time>2014-06-01T12:37:22Z</time>
      </trkpt>
      <trkpt lat="59.779423" lon="17.7055552">
        <ele>60.2197</ele>
        <time>2014-06-01T12:37:23Z</time>
      </trkpt>
      <trkpt lat="59.7794312" lon="17.7055178">
        <ele>60.7003</ele>
        <time>2014-06-01T12:37:24Z</time>
      </trkpt>
      <trkpt lat="59.7794322" lon="17.7054771">
        <ele>60.7003</ele>
        <time>2014-06-01T12:37:25Z</time>
      </trkpt>
      <trkpt lat="59.7794301" lon="17.705432">
        <ele>60.7003</ele>
        <time>2014-06-01T12:37:26Z</time>
      </trkpt>
      <trkpt lat="59.7794287" lon="17.7053877">
        <ele>60.2197</ele>
        <time>2014-06-01T12:37:27Z</time>
      </trkpt>
      <trkpt lat="59.7794322" lon="17.7053423">
        <ele>59.7391</ele>
        <time>2014-06-01T12:37:28Z</time>
      </trkpt>
      <trkpt lat="59.7794353" lon="17.7052977">
        <ele>60.7003</ele>
        <time>2014-06-01T12:37:29Z</time>
      </trkpt>
      <trkpt lat="59.7794282" lon="17.7052542">
        <ele>60.2197</ele>
        <time>2014-06-01T12:37:30Z</time>
      </trkpt>
      <trkpt lat="59.7794297" lon="17.705237">
        <ele>60.7003</ele>
        <time>2014-06-01T12:37:31Z</time>
      </trkpt>
      <trkpt lat="59.7794271" lon="17.7052209">
        <ele>61.181</ele>
        <time>2014-06-01T12:37:32Z</time>
      </trkpt>
      <trkpt lat="59.7794204" lon="17.7052074">
        <ele>62.1423</ele>
        <time>2014-06-01T12:37:33Z</time>
      </trkpt>
      <trkpt lat="59.7794121" lon="17.7051941">
        <ele>63.1036</ele>
        <time>2014-06-01T12:37:34Z</time>
      </trkpt>
      <trkpt lat="59.7793986" lon="17.7051787">
        <ele>62.6229</ele>
        <time>2014-06-01T12:37:35Z</time>
      </trkpt>
      <trkpt lat="59.7793851" lon="17.7051682">
        <ele>61.6617</ele>
        <time>2014-06-01T12:37:36Z</time>
      </trkpt>
      <trkpt lat="59.779372" lon="17.7051546">
        <ele>61.181</ele>
        <time>2014-06-01T12:37:37Z</time>
      </trkpt>
      <trkpt lat="59.779362" lon="17.7051351">
        <ele>60.2197</ele>
        <time>2014-06-01T12:37:38Z</time>
      </trkpt>
      <trkpt lat="59.7793633" lon="17.7051184">
        <ele>60.2197</ele>
        <time>2014-06-01T12:37:39Z</time>
      </trkpt>
      <trkpt lat="59.779362" lon="17.7051025">
        <ele>59.7391</ele>
        <time>2014-06-01T12:37:40Z</time>
      </trkpt>
      <trkpt lat="59.7793612" lon="17.7050926">
        <ele>59.7391</ele>
        <time>2014-06-01T12:37:41Z</time>
      </trkpt>
      <trkpt lat="59.7793613" lon="17.7050807">
        <ele>60.2197</ele>
        <time>2014-06-01T12:37:42Z</time>
      </trkpt>
      <trkpt lat="59.779353" lon="17.7050557">
        <ele>59.2584</ele>
        <time>2014-06-01T12:37:43Z</time>
      </trkpt>
      <trkpt lat="59.7793464" lon="17.7050293">
        <ele>59.7391</ele>
        <time>2014-06-01T12:37:44Z</time>
      </trkpt>
      <trkpt lat="59.7793395" lon="17.7049906">
        <ele>60.2197</ele>
        <time>2014-06-01T12:37:45Z</time>
      </trkpt>
      <trkpt lat="59.77933" lon="17.7049408">
        <ele>59.7391</ele>
        <time>2014-06-01T12:37:46Z</time>
      </trkpt>
      <trkpt lat="59.7793251" lon="17.7048916">
        <ele>60.2197</ele>
        <time>2014-06-01T12:37:47Z</time>
      </trkpt>
      <trkpt lat="59.779323" lon="17.7048378">
        <ele>59.7391</ele>
        <time>2014-06-01T12:37:48Z</time>
      </trkpt>
      <trkpt lat="59.779324" lon="17.7047853">
        <ele>58.7777</ele>
        <time>2014-06-01T12:37:49Z</time>
      </trkpt>
      <trkpt lat="59.7793307" lon="17.7047465">
        <ele>58.7777</ele>
        <time>2014-06-01T12:37:50Z</time>
      </trkpt>
      <trkpt lat="59.7793358" lon="17.7047134">
        <ele>58.7777</ele>
        <time>2014-06-01T12:37:51Z</time>
      </trkpt>
      <trkpt lat="59.7793385" lon="17.704684">
        <ele>58.2971</ele>
        <time>2014-06-01T12:37:52Z</time>
      </trkpt>
      <trkpt lat="59.7793422" lon="17.7046659">
        <ele>57.8165</ele>
        <time>2014-06-01T12:37:53Z</time>
      </trkpt>
      <trkpt lat="59.7793488" lon="17.7046615">
        <ele>57.8165</ele>
        <time>2014-06-01T12:37:54Z</time>
      </trkpt>
      <trkpt lat="59.7793551" lon="17.7046676">
        <ele>57.3358</ele>
        <time>2014-06-01T12:37:55Z</time>
      </trkpt>
      <trkpt lat="59.7793634" lon="17.7046725">
        <ele>58.2971</ele>
        <time>2014-06-01T12:37:56Z</time>
      </trkpt>
      <trkpt lat="59.7793608" lon="17.7046699">
        <ele>59.2584</ele>
        <time>2014-06-01T12:37:57Z</time>
      </trkpt>
      <trkpt lat="59.7793628" lon="17.7046631">
        <ele>60.7003</ele>
        <time>2014-06-01T12:37:58Z</time>
      </trkpt>
      <trkpt lat="59.7793665" lon="17.704644">
        <ele>61.6617</ele>
        <time>2014-06-01T12:37:59Z</time>
      </trkpt>
      <trkpt lat="59.7793741" lon="17.7046247">
        <ele>62.1423</ele>
        <time>2014-06-01T12:38:00Z</time>
      </trkpt>
      <trkpt lat="59.7793809" lon="17.7046207">
        <ele>62.6229</ele>
        <time>2014-06-01T12:38:01Z</time>
      </trkpt>
      <trkpt lat="59.7793844" lon="17.7046255">
        <ele>63.1036</ele>
        <time>2014-06-01T12:38:02Z</time>
      </trkpt>
      <trkpt lat="59.7793876" lon="17.7046202">
        <ele>63.5844</ele>
        <time>2014-06-01T12:38:03Z</time>
      </trkpt>
      <trkpt lat="59.7793903" lon="17.7046041">
        <ele>63.5844</ele>
        <time>2014-06-01T12:38:04Z</time>
      </trkpt>
      <trkpt lat="59.779396" lon="17.7045877">
        <ele>64.0651</ele>
        <time>2014-06-01T12:38:05Z</time>
      </trkpt>
      <trkpt lat="59.7794" lon="17.7045672">
        <ele>63.5844</ele>
        <time>2014-06-01T12:38:06Z</time>
      </trkpt>
      <trkpt lat="59.7794006" lon="17.7045383">
        <ele>63.1036</ele>
        <time>2014-06-01T12:38:07Z</time>
      </trkpt>
      <trkpt lat="59.7794067" lon="17.7045055">
        <ele>63.5844</ele>
        <time>2014-06-01T12:38:08Z</time>
      </trkpt>
      <trkpt lat="59.7794124" lon="17.7044683">
        <ele>64.0651</ele>
        <time>2014-06-01T12:38:09Z</time>
      </trkpt>
      <trkpt lat="59.7794145" lon="17.7044321">
        <ele>64.5457</ele>
        <time>2014-06-01T12:38:10Z</time>
      </trkpt>
      <trkpt lat="59.7794129" lon="17.7043855">
        <ele>65.0264</ele>
        <time>2014-06-01T12:38:11Z</time>
      </trkpt>
      <trkpt lat="59.7794142" lon="17.7043327">
        <ele>64.5457</ele>
        <time>2014-06-01T12:38:12Z</time>
      </trkpt>
      <trkpt lat="59.7794225" lon="17.7042892">
        <ele>65.0264</ele>
        <time>2014-06-01T12:38:13Z</time>
      </trkpt>
      <trkpt lat="59.7794275" lon="17.7042476">
        <ele>65.5071</ele>
        <time>2014-06-01T12:38:14Z</time>
      </trkpt>
      <trkpt lat="59.779427" lon="17.7042037">
        <ele>65.5071</ele>
        <time>2014-06-01T12:38:15Z</time>
      </trkpt>
      <trkpt lat="59.7794274" lon="17.7041652">
        <ele>65.5071</ele>
        <time>2014-06-01T12:38:16Z</time>
      </trkpt>
      <trkpt lat="59.7794332" lon="17.7041289">
        <ele>65.5071</ele>
        <time>2014-06-01T12:38:17Z</time>
      </trkpt>
      <trkpt lat="59.7794427" lon="17.7040964">
        <ele>65.5071</ele>
        <time>2014-06-01T12:38:18Z</time>
      </trkpt>
      <trkpt lat="59.7794528" lon="17.7040629">
        <ele>65.0264</ele>
        <time>2014-06-01T12:38:19Z</time>
      </trkpt>
      <trkpt lat="59.779469" lon="17.7040355">
        <ele>64.5457</ele>
        <time>2014-06-01T12:38:20Z</time>
      </trkpt>
      <trkpt lat="59.7794862" lon="17.7040061">
        <ele>64.0651</ele>
        <time>2014-06-01T12:38:21Z</time>
      </trkpt>
      <trkpt lat="59.779507" lon="17.7039779">
        <ele>63.5844</ele>
        <time>2014-06-01T12:38:22Z</time>
      </trkpt>
      <trkpt lat="59.7795282" lon="17.7039502">
        <ele>63.1036</ele>
        <time>2014-06-01T12:38:23Z</time>
      </trkpt>
      <trkpt lat="59.7795468" lon="17.7039157">
        <ele>63.1036</ele>
        <time>2014-06-01T12:38:24Z</time>
      </trkpt>
      <trkpt lat="59.7795619" lon="17.7038717">
        <ele>62.6229</ele>
        <time>2014-06-01T12:38:25Z</time>
      </trkpt>
      <trkpt lat="59.779579" lon="17.7038281">
        <ele>62.6229</ele>
        <time>2014-06-01T12:38:26Z</time>
      </trkpt>
      <trkpt lat="59.7795955" lon="17.7037829">
        <ele>62.6229</ele>
        <time>2014-06-01T12:38:27Z</time>
      </trkpt>
      <trkpt lat="59.7796111" lon="17.7037397">
        <ele>63.5844</ele>
        <time>2014-06-01T12:38:28Z</time>
      </trkpt>
      <trkpt lat="59.7796171" lon="17.7036966">
        <ele>63.1036</ele>
        <time>2014-06-01T12:38:29Z</time>
      </trkpt>
      <trkpt lat="59.7796188" lon="17.7036588">
        <ele>63.5844</ele>
        <time>2014-06-01T12:38:30Z</time>
      </trkpt>
      <trkpt lat="59.7796145" lon="17.7036216">
        <ele>63.5844</ele>
        <time>2014-06-01T12:38:31Z</time>
      </trkpt>
      <trkpt lat="59.77961" lon="17.7035867">
        <ele>63.5844</ele>
        <time>2014-06-01T12:38:32Z</time>
      </trkpt>
      <trkpt lat="59.7796073" lon="17.7035539">
        <ele>63.1036</ele>
        <time>2014-06-01T12:38:33Z</time>
      </trkpt>
      <trkpt lat="59.7796049" lon="17.7035254">
        <ele>62.1423</ele>
        <time>2014-06-01T12:38:34Z</time>
      </trkpt>
      <trkpt lat="59.7796027" lon="17.7034949">
        <ele>61.181</ele>
        <time>2014-06-01T12:38:35Z</time>
      </trkpt>
      <trkpt lat="59.7796105" lon="17.7034655">
        <ele>60.7003</ele>
        <time>2014-06-01T12:38:36Z</time>
      </trkpt>
      <trkpt lat="59.7796219" lon="17.7034235">
        <ele>61.181</ele>
        <time>2014-06-01T12:38:37Z</time>
      </trkpt>
      <trkpt lat="59.7796315" lon="17.7033764">
        <ele>61.6617</ele>
        <time>2014-06-01T12:38:38Z</time>
      </trkpt>
      <trkpt lat="59.7796388" lon="17.7033348">
        <ele>61.6617</ele>
        <time>2014-06-01T12:38:39Z</time>
      </trkpt>
      <trkpt lat="59.779641" lon="17.7032915">
        <ele>61.181</ele>
        <time>2014-06-01T12:38:40Z</time>
      </trkpt>
      <trkpt lat="59.7796421" lon="17.7032599">
        <ele>62.1423</ele>
        <time>2014-06-01T12:38:41Z</time>
      </trkpt>
      <trkpt lat="59.7796336" lon="17.7032326">
        <ele>61.6617</ele>
        <time>2014-06-01T12:38:42Z</time>
      </trkpt>
      <trkpt lat="59.779625" lon="17.703201">
        <ele>61.181</ele>
        <time>2014-06-01T12:38:43Z</time>
      </trkpt>
      <trkpt lat="59.7796139" lon="17.7031696">
        <ele>61.181</ele>
        <time>2014-06-01T12:38:44Z</time>
      </trkpt>
      <trkpt lat="59.7796002" lon="17.7031423">
        <ele>61.181</ele>
        <time>2014-06-01T12:38:45Z</time>
      </trkpt>
      <trkpt lat="59.7795872" lon="17.7031141">
        <ele>60.7003</ele>
        <time>2014-06-01T12:38:46Z</time>
      </trkpt>
      <trkpt lat="59.7795808" lon="17.7030905">
        <ele>60.7003</ele>
        <time>2014-06-01T12:38:47Z</time>
      </trkpt>
      <trkpt lat="59.7795787" lon="17.7030554">
        <ele>60.7003</ele>
        <time>2014-06-01T12:38:48Z</time>
      </trkpt>
      <trkpt lat="59.7795837" lon="17.7030071">
        <ele>60.2197</ele>
        <time>2014-06-01T12:38:49Z</time>
      </trkpt>
      <trkpt lat="59.7795901" lon="17.7029615">
        <ele>60.7003</ele>
        <time>2014-06-01T12:38:50Z</time>
      </trkpt>
      <trkpt lat="59.7795871" lon="17.7029266">
        <ele>60.7003</ele>
        <time>2014-06-01T12:38:51Z</time>
      </trkpt>
      <trkpt lat="59.7795773" lon="17.7028941">
        <ele>60.7003</ele>
        <time>2014-06-01T12:38:52Z</time>
      </trkpt>
      <trkpt lat="59.779568" lon="17.7028621">
        <ele>61.181</ele>
        <time>2014-06-01T12:38:53Z</time>
      </trkpt>
      <trkpt lat="59.7795577" lon="17.7028274">
        <ele>61.181</ele>
        <time>2014-06-01T12:38:54Z</time>
      </trkpt>
      <trkpt lat="59.7795486" lon="17.7027845">
        <ele>61.181</ele>
        <time>2014-06-01T12:38:55Z</time>
      </trkpt>
      <trkpt lat="59.7795421" lon="17.7027329">
        <ele>61.181</ele>
        <time>2014-06-01T12:38:56Z</time>
      </trkpt>
      <trkpt lat="59.7795383" lon="17.7026871">
        <ele>60.7003</ele>
        <time>2014-06-01T12:38:57Z</time>
      </trkpt>
      <trkpt lat="59.7795354" lon="17.7026547">
        <ele>60.7003</ele>
        <time>2014-06-01T12:38:58Z</time>
      </trkpt>
      <trkpt lat="59.7795293" lon="17.702618">
        <ele>60.7003</ele>
        <time>2014-06-01T12:38:59Z</time>
      </trkpt>
      <trkpt lat="59.7795266" lon="17.7025777">
        <ele>60.7003</ele>
        <time>2014-06-01T12:39:00Z</time>
      </trkpt>
      <trkpt lat="59.779526" lon="17.7025286">
        <ele>60.2197</ele>
        <time>2014-06-01T12:39:01Z</time>
      </trkpt>
      <trkpt lat="59.7795312" lon="17.7024788">
        <ele>60.2197</ele>
        <time>2014-06-01T12:39:02Z</time>
      </trkpt>
      <trkpt lat="59.7795494" lon="17.7024415">
        <ele>60.2197</ele>
        <time>2014-06-01T12:39:03Z</time>
      </trkpt>
      <trkpt lat="59.7795696" lon="17.7024047">
        <ele>59.7391</ele>
        <time>2014-06-01T12:39:04Z</time>
      </trkpt>
      <trkpt lat="59.7795909" lon="17.7023754">
        <ele>60.2197</ele>
        <time>2014-06-01T12:39:05Z</time>
      </trkpt>
      <trkpt lat="59.7796046" lon="17.7023346">
        <ele>59.2584</ele>
        <time>2014-06-01T12:39:06Z</time>
      </trkpt>
      <trkpt lat="59.7796201" lon="17.7022981">
        <ele>60.2197</ele>
        <time>2014-06-01T12:39:07Z</time>
      </trkpt>
      <trkpt lat="59.7796322" lon="17.7022669">
        <ele>60.7003</ele>
        <time>2014-06-01T12:39:08Z</time>
      </trkpt>
      <trkpt lat="59.7796442" lon="17.7022379">
        <ele>61.181</ele>
        <time>2014-06-01T12:39:09Z</time>
      </trkpt>
      <trkpt lat="59.7796546" lon="17.7022062">
        <ele>61.181</ele>
        <time>2014-06-01T12:39:10Z</time>
      </trkpt>
      <trkpt lat="59.7796657" lon="17.7021761">
        <ele>61.6617</ele>
        <time>2014-06-01T12:39:11Z</time>
      </trkpt>
      <trkpt lat="59.7796804" lon="17.7021498">
        <ele>62.1423</ele>
        <time>2014-06-01T12:39:12Z</time>
      </trkpt>
      <trkpt lat="59.7796944" lon="17.7021216">
        <ele>62.1423</ele>
        <time>2014-06-01T12:39:13Z</time>
      </trkpt>
      <trkpt lat="59.7797025" lon="17.7020913">
        <ele>62.6229</ele>
        <time>2014-06-01T12:39:14Z</time>
      </trkpt>
      <trkpt lat="59.7797032" lon="17.7020581">
        <ele>62.6229</ele>
        <time>2014-06-01T12:39:15Z</time>
      </trkpt>
      <trkpt lat="59.7796937" lon="17.7020206">
        <ele>61.6617</ele>
        <time>2014-06-01T12:39:16Z</time>
      </trkpt>
      <trkpt lat="59.7796805" lon="17.7019814">
        <ele>61.181</ele>
        <time>2014-06-01T12:39:17Z</time>
      </trkpt>
      <trkpt lat="59.77967" lon="17.7019388">
        <ele>60.7003</ele>
        <time>2014-06-01T12:39:18Z</time>
      </trkpt>
      <trkpt lat="59.7796633" lon="17.7019004">
        <ele>60.2197</ele>
        <time>2014-06-01T12:39:19Z</time>
      </trkpt>
      <trkpt lat="59.7796524" lon="17.7018665">
        <ele>59.2584</ele>
        <time>2014-06-01T12:39:20Z</time>
      </trkpt>
      <trkpt lat="59.7796333" lon="17.7018303">
        <ele>58.2971</ele>
        <time>2014-06-01T12:39:21Z</time>
      </trkpt>
      <trkpt lat="59.779609" lon="17.7017944">
        <ele>57.3358</ele>
        <time>2014-06-01T12:39:22Z</time>
      </trkpt>
      <trkpt lat="59.7795852" lon="17.7017539">
        <ele>56.8551</ele>
        <time>2014-06-01T12:39:23Z</time>
      </trkpt>
      <trkpt lat="59.779571" lon="17.7017131">
        <ele>56.3745</ele>
        <time>2014-06-01T12:39:24Z</time>
      </trkpt>
      <trkpt lat="59.7795617" lon="17.7016795">
        <ele>56.8551</ele>
        <time>2014-06-01T12:39:25Z</time>
      </trkpt>
      <trkpt lat="59.7795493" lon="17.7016463">
        <ele>56.3745</ele>
        <time>2014-06-01T12:39:26Z</time>
      </trkpt>
      <trkpt lat="59.7795334" lon="17.701607">
        <ele>55.8938</ele>
        <time>2014-06-01T12:39:27Z</time>
      </trkpt>
      <trkpt lat="59.7795197" lon="17.7015749">
        <ele>54.9324</ele>
        <time>2014-06-01T12:39:28Z</time>
      </trkpt>
      <trkpt lat="59.7795126" lon="17.7015537">
        <ele>54.9324</ele>
        <time>2014-06-01T12:39:29Z</time>
      </trkpt>
      <trkpt lat="59.7795101" lon="17.7015366">
        <ele>55.4131</ele>
        <time>2014-06-01T12:39:30Z</time>
      </trkpt>
      <trkpt lat="59.779512" lon="17.7015275">
        <ele>55.4131</ele>
        <time>2014-06-01T12:39:31Z</time>
      </trkpt>
      <trkpt lat="59.7795141" lon="17.7015183">
        <ele>55.4131</ele>
        <time>2014-06-01T12:39:32Z</time>
      </trkpt>
      <trkpt lat="59.7795117" lon="17.7014992">
        <ele>54.9324</ele>
        <time>2014-06-01T12:39:33Z</time>
      </trkpt>
      <trkpt lat="59.7795166" lon="17.7014783">
        <ele>54.4518</ele>
        <time>2014-06-01T12:39:34Z</time>
      </trkpt>
      <trkpt lat="59.7795251" lon="17.7014475">
        <ele>53.9712</ele>
        <time>2014-06-01T12:39:35Z</time>
      </trkpt>
      <trkpt lat="59.7795343" lon="17.7014102">
        <ele>53.4905</ele>
        <time>2014-06-01T12:39:36Z</time>
      </trkpt>
      <trkpt lat="59.7795436" lon="17.7013655">
        <ele>53.4905</ele>
        <time>2014-06-01T12:39:37Z</time>
      </trkpt>
      <trkpt lat="59.7795502" lon="17.7013203">
        <ele>53.4905</ele>
        <time>2014-06-01T12:39:38Z</time>
      </trkpt>
      <trkpt lat="59.7795592" lon="17.7012733">
        <ele>53.4905</ele>
        <time>2014-06-01T12:39:39Z</time>
      </trkpt>
      <trkpt lat="59.7795743" lon="17.7012375">
        <ele>53.4905</ele>
        <time>2014-06-01T12:39:40Z</time>
      </trkpt>
      <trkpt lat="59.7795902" lon="17.7012024">
        <ele>54.4518</ele>
        <time>2014-06-01T12:39:41Z</time>
      </trkpt>
      <trkpt lat="59.7795944" lon="17.7011509">
        <ele>53.0098</ele>
        <time>2014-06-01T12:39:42Z</time>
      </trkpt>
      <trkpt lat="59.7795949" lon="17.7010965">
        <ele>52.5292</ele>
        <time>2014-06-01T12:39:43Z</time>
      </trkpt>
      <trkpt lat="59.7795917" lon="17.7010493">
        <ele>53.0098</ele>
        <time>2014-06-01T12:39:44Z</time>
      </trkpt>
      <trkpt lat="59.779582" lon="17.7010076">
        <ele>53.9712</ele>
        <time>2014-06-01T12:39:45Z</time>
      </trkpt>
      <trkpt lat="59.7795697" lon="17.7009619">
        <ele>54.9324</ele>
        <time>2014-06-01T12:39:46Z</time>
      </trkpt>
      <trkpt lat="59.7795512" lon="17.7009087">
        <ele>55.4131</ele>
        <time>2014-06-01T12:39:47Z</time>
      </trkpt>
      <trkpt lat="59.7795297" lon="17.7008616">
        <ele>55.4131</ele>
        <time>2014-06-01T12:39:48Z</time>
      </trkpt>
      <trkpt lat="59.7795114" lon="17.7008267">
        <ele>56.3745</ele>
        <time>2014-06-01T12:39:49Z</time>
      </trkpt>
      <trkpt lat="59.7794946" lon="17.7007914">
        <ele>56.3745</ele>
        <time>2014-06-01T12:39:50Z</time>
      </trkpt>
      <trkpt lat="59.7794837" lon="17.7007536">
        <ele>56.3745</ele>
        <time>2014-06-01T12:39:51Z</time>
      </trkpt>
      <trkpt lat="59.7794829" lon="17.7007154">
        <ele>57.8165</ele>
        <time>2014-06-01T12:39:52Z</time>
      </trkpt>
      <trkpt lat="59.779481" lon="17.7006707">
        <ele>58.2971</ele>
        <time>2014-06-01T12:39:53Z</time>
      </trkpt>
      <trkpt lat="59.7794753" lon="17.7006279">
        <ele>58.2971</ele>
        <time>2014-06-01T12:39:54Z</time>
      </trkpt>
      <trkpt lat="59.7794732" lon="17.7005938">
        <ele>59.2584</ele>
        <time>2014-06-01T12:39:55Z</time>
      </trkpt>
      <trkpt lat="59.7794659" lon="17.7005645">
        <ele>58.2971</ele>
        <time>2014-06-01T12:39:56Z</time>
      </trkpt>
      <trkpt lat="59.7794612" lon="17.7005443">
        <ele>58.7777</ele>
        <time>2014-06-01T12:39:57Z</time>
      </trkpt>
      <trkpt lat="59.7794513" lon="17.7005177">
        <ele>58.2971</ele>
        <time>2014-06-01T12:39:58Z</time>
      </trkpt>
      <trkpt lat="59.7794447" lon="17.7004916">
        <ele>58.7777</ele>
        <time>2014-06-01T12:39:59Z</time>
      </trkpt>
      <trkpt lat="59.7794447" lon="17.7004718">
        <ele>59.7391</ele>
        <time>2014-06-01T12:40:00Z</time>
      </trkpt>
      <trkpt lat="59.7794467" lon="17.7004562">
        <ele>60.2197</ele>
        <time>2014-06-01T12:40:01Z</time>
      </trkpt>
      <trkpt lat="59.7794505" lon="17.7004438">
        <ele>60.7003</ele>
        <time>2014-06-01T12:40:02Z</time>
      </trkpt>
      <trkpt lat="59.779455" lon="17.7004285">
        <ele>60.7003</ele>
        <time>2014-06-01T12:40:03Z</time>
      </trkpt>
      <trkpt lat="59.7794634" lon="17.7004042">
        <ele>61.6617</ele>
        <time>2014-06-01T12:40:04Z</time>
      </trkpt>
      <trkpt lat="59.7794746" lon="17.700371">
        <ele>63.1036</ele>
        <time>2014-06-01T12:40:05Z</time>
      </trkpt>
      <trkpt lat="59.7794868" lon="17.7003299">
        <ele>63.5844</ele>
        <time>2014-06-01T12:40:06Z</time>
      </trkpt>
      <trkpt lat="59.7794986" lon="17.7002952">
        <ele>64.0651</ele>
        <time>2014-06-01T12:40:07Z</time>
      </trkpt>
      <trkpt lat="59.7795145" lon="17.7002596">
        <ele>64.5457</ele>
        <time>2014-06-01T12:40:08Z</time>
      </trkpt>
      <trkpt lat="59.7795272" lon="17.7002353">
        <ele>65.5071</ele>
        <time>2014-06-01T12:40:09Z</time>
      </trkpt>
      <trkpt lat="59.7795374" lon="17.7002025">
        <ele>65.9877</ele>
        <time>2014-06-01T12:40:10Z</time>
      </trkpt>
      <trkpt lat="59.7795472" lon="17.7001622">
        <ele>66.949</ele>
        <time>2014-06-01T12:40:11Z</time>
      </trkpt>
      <trkpt lat="59.7795564" lon="17.7001235">
        <ele>68.3909</ele>
        <time>2014-06-01T12:40:12Z</time>
      </trkpt>
      <trkpt lat="59.7795611" lon="17.7000836">
        <ele>69.3523</ele>
        <time>2014-06-01T12:40:13Z</time>
      </trkpt>
      <trkpt lat="59.7795606" lon="17.700048">
        <ele>69.3523</ele>
        <time>2014-06-01T12:40:14Z</time>
      </trkpt>
      <trkpt lat="59.7795639" lon="17.700011">
        <ele>69.8329</ele>
        <time>2014-06-01T12:40:15Z</time>
      </trkpt>
      <trkpt lat="59.779572" lon="17.6999659">
        <ele>69.8329</ele>
        <time>2014-06-01T12:40:16Z</time>
      </trkpt>
      <trkpt lat="59.7795804" lon="17.6999159">
        <ele>70.3135</ele>
        <time>2014-06-01T12:40:17Z</time>
      </trkpt>
      <trkpt lat="59.7795867" lon="17.6998711">
        <ele>70.7942</ele>
        <time>2014-06-01T12:40:18Z</time>
      </trkpt>
      <trkpt lat="59.7795908" lon="17.6998349">
        <ele>70.7942</ele>
        <time>2014-06-01T12:40:19Z</time>
      </trkpt>
      <trkpt lat="59.7795948" lon="17.6997961">
        <ele>70.3135</ele>
        <time>2014-06-01T12:40:20Z</time>
      </trkpt>
      <trkpt lat="59.7795984" lon="17.6997417">
        <ele>69.8329</ele>
        <time>2014-06-01T12:40:21Z</time>
      </trkpt>
      <trkpt lat="59.7796028" lon="17.6996813">
        <ele>69.3523</ele>
        <time>2014-06-01T12:40:22Z</time>
      </trkpt>
      <trkpt lat="59.779611" lon="17.699636">
        <ele>69.8329</ele>
        <time>2014-06-01T12:40:23Z</time>
      </trkpt>
      <trkpt lat="59.7796099" lon="17.6995846">
        <ele>68.8716</ele>
        <time>2014-06-01T12:40:24Z</time>
      </trkpt>
      <trkpt lat="59.7796108" lon="17.6995314">
        <ele>68.8716</ele>
        <time>2014-06-01T12:40:25Z</time>
      </trkpt>
      <trkpt lat="59.7796172" lon="17.6994909">
        <ele>68.8716</ele>
        <time>2014-06-01T12:40:26Z</time>
      </trkpt>
      <trkpt lat="59.7796238" lon="17.6994545">
        <ele>68.8716</ele>
        <time>2014-06-01T12:40:27Z</time>
      </trkpt>
      <trkpt lat="59.7796213" lon="17.6993981">
        <ele>67.9103</ele>
        <time>2014-06-01T12:40:28Z</time>
      </trkpt>
      <trkpt lat="59.7796172" lon="17.6993394">
        <ele>66.4683</ele>
        <time>2014-06-01T12:40:29Z</time>
      </trkpt>
      <trkpt lat="59.7796115" lon="17.6992852">
        <ele>64.5457</ele>
        <time>2014-06-01T12:40:30Z</time>
      </trkpt>
      <trkpt lat="59.7796068" lon="17.6992358">
        <ele>63.5844</ele>
        <time>2014-06-01T12:40:31Z</time>
      </trkpt>
      <trkpt lat="59.7795994" lon="17.6991815">
        <ele>63.1036</ele>
        <time>2014-06-01T12:40:32Z</time>
      </trkpt>
      <trkpt lat="59.7796002" lon="17.6991387">
        <ele>63.1036</ele>
        <time>2014-06-01T12:40:33Z</time>
      </trkpt>
      <trkpt lat="59.7795997" lon="17.6990936">
        <ele>63.1036</ele>
        <time>2014-06-01T12:40:34Z</time>
      </trkpt>
      <trkpt lat="59.7796058" lon="17.6990609">
        <ele>64.0651</ele>
        <time>2014-06-01T12:40:35Z</time>
      </trkpt>
      <trkpt lat="59.7796075" lon="17.6990275">
        <ele>65.0264</ele>
        <time>2014-06-01T12:40:36Z</time>
      </trkpt>
      <trkpt lat="59.7796038" lon="17.6989868">
        <ele>65.5071</ele>
        <time>2014-06-01T12:40:37Z</time>
      </trkpt>
      <trkpt lat="59.7796002" lon="17.6989505">
        <ele>65.9877</ele>
        <time>2014-06-01T12:40:38Z</time>
      </trkpt>
      <trkpt lat="59.7796048" lon="17.6989148">
        <ele>65.9877</ele>
        <time>2014-06-01T12:40:39Z</time>
      </trkpt>
      <trkpt lat="59.7796017" lon="17.6988681">
        <ele>64.5457</ele>
        <time>2014-06-01T12:40:40Z</time>
      </trkpt>
      <trkpt lat="59.779607" lon="17.698831">
        <ele>64.0651</ele>
        <time>2014-06-01T12:40:41Z</time>
      </trkpt>
      <trkpt lat="59.7796172" lon="17.698791">
        <ele>64.5457</ele>
        <time>2014-06-01T12:40:42Z</time>
      </trkpt>
      <trkpt lat="59.7796235" lon="17.6987506">
        <ele>65.0264</ele>
        <time>2014-06-01T12:40:43Z</time>
      </trkpt>
      <trkpt lat="59.7796267" lon="17.6987158">
        <ele>65.5071</ele>
        <time>2014-06-01T12:40:44Z</time>
      </trkpt>
      <trkpt lat="59.779629" lon="17.6986749">
        <ele>65.0264</ele>
        <time>2014-06-01T12:40:45Z</time>
      </trkpt>
      <trkpt lat="59.7796354" lon="17.6986352">
        <ele>65.5071</ele>
        <time>2014-06-01T12:40:46Z</time>
      </trkpt>
      <trkpt lat="59.77964" lon="17.6986028">
        <ele>65.5071</ele>
        <time>2014-06-01T12:40:47Z</time>
      </trkpt>
      <trkpt lat="59.7796415" lon="17.698573">
        <ele>65.5071</ele>
        <time>2014-06-01T12:40:48Z</time>
      </trkpt>
      <trkpt lat="59.7796443" lon="17.6985439">
        <ele>65.5071</ele>
        <time>2014-06-01T12:40:49Z</time>
      </trkpt>
      <trkpt lat="59.7796509" lon="17.6985106">
        <ele>65.0264</ele>
        <time>2014-06-01T12:40:50Z</time>
      </trkpt>
      <trkpt lat="59.7796597" lon="17.6984719">
        <ele>65.0264</ele>
        <time>2014-06-01T12:40:51Z</time>
      </trkpt>
      <trkpt lat="59.7796628" lon="17.6984284">
        <ele>65.5071</ele>
        <time>2014-06-01T12:40:52Z</time>
      </trkpt>
      <trkpt lat="59.7796623" lon="17.6983933">
        <ele>65.9877</ele>
        <time>2014-06-01T12:40:53Z</time>
      </trkpt>
      <trkpt lat="59.7796623" lon="17.6983672">
        <ele>66.4683</ele>
        <time>2014-06-01T12:40:54Z</time>
      </trkpt>
      <trkpt lat="59.7796611" lon="17.6983404">
        <ele>66.4683</ele>
        <time>2014-06-01T12:40:55Z</time>
      </trkpt>
      <trkpt lat="59.7796674" lon="17.6983216">
        <ele>66.4683</ele>
        <time>2014-06-01T12:40:56Z</time>
      </trkpt>
      <trkpt lat="59.779669" lon="17.6982932">
        <ele>65.5071</ele>
        <time>2014-06-01T12:40:57Z</time>
      </trkpt>
      <trkpt lat="59.7796711" lon="17.6982738">
        <ele>64.5457</ele>
        <time>2014-06-01T12:40:58Z</time>
      </trkpt>
      <trkpt lat="59.7796763" lon="17.6982647">
        <ele>64.0651</ele>
        <time>2014-06-01T12:40:59Z</time>
      </trkpt>
      <trkpt lat="59.7796943" lon="17.6982668">
        <ele>64.0651</ele>
        <time>2014-06-01T12:41:00Z</time>
      </trkpt>
      <trkpt lat="59.7797083" lon="17.6982595">
        <ele>64.5457</ele>
        <time>2014-06-01T12:41:01Z</time>
      </trkpt>
      <trkpt lat="59.7797198" lon="17.6982465">
        <ele>64.5457</ele>
        <time>2014-06-01T12:41:02Z</time>
      </trkpt>
      <trkpt lat="59.7797286" lon="17.6982291">
        <ele>64.0651</ele>
        <time>2014-06-01T12:41:03Z</time>
      </trkpt>
      <trkpt lat="59.7797364" lon="17.6982176">
        <ele>64.0651</ele>
        <time>2014-06-01T12:41:04Z</time>
      </trkpt>
      <trkpt lat="59.7797417" lon="17.6982134">
        <ele>64.5457</ele>
        <time>2014-06-01T12:41:05Z</time>
      </trkpt>
      <trkpt lat="59.7797472" lon="17.6982112">
        <ele>64.5457</ele>
        <time>2014-06-01T12:41:06Z</time>
      </trkpt>
      <trkpt lat="59.779756" lon="17.6982068">
        <ele>65.0264</ele>
        <time>2014-06-01T12:41:07Z</time>
      </trkpt>
      <trkpt lat="59.7797649" lon="17.6982014">
        <ele>65.0264</ele>
        <time>2014-06-01T12:41:08Z</time>
      </trkpt>
      <trkpt lat="59.7797695" lon="17.6981962">
        <ele>65.0264</ele>
        <time>2014-06-01T12:41:09Z</time>
      </trkpt>
      <trkpt lat="59.7797742" lon="17.6981962">
        <ele>65.0264</ele>
        <time>2014-06-01T12:41:10Z</time>
      </trkpt>
      <trkpt lat="59.7797786" lon="17.6981998">
        <ele>65.5071</ele>
        <time>2014-06-01T12:41:11Z</time>
      </trkpt>
      <trkpt lat="59.779783" lon="17.6982068">
        <ele>65.5071</ele>
        <time>2014-06-01T12:41:12Z</time>
      </trkpt>
      <trkpt lat="59.7797893" lon="17.6982155">
        <ele>65.9877</ele>
        <time>2014-06-01T12:41:13Z</time>
      </trkpt>
      <trkpt lat="59.7797952" lon="17.6982233">
        <ele>65.9877</ele>
        <time>2014-06-01T12:41:14Z</time>
      </trkpt>
      <trkpt lat="59.7797984" lon="17.6982279">
        <ele>65.9877</ele>
        <time>2014-06-01T12:41:15Z</time>
      </trkpt>
      <trkpt lat="59.7798011" lon="17.6982248">
        <ele>65.9877</ele>
        <time>2014-06-01T12:41:16Z</time>
      </trkpt>
      <trkpt lat="59.7798325" lon="17.6981843">
        <ele>65.9877</ele>
        <time>2014-06-01T12:41:19Z</time>
      </trkpt>
      <trkpt lat="59.779843" lon="17.6981507">
        <ele>65.0264</ele>
        <time>2014-06-01T12:41:20Z</time>
      </trkpt>
      <trkpt lat="59.7798572" lon="17.698114">
        <ele>64.5457</ele>
        <time>2014-06-01T12:41:21Z</time>
      </trkpt>
      <trkpt lat="59.7798726" lon="17.6980703">
        <ele>65.0264</ele>
        <time>2014-06-01T12:41:22Z</time>
      </trkpt>
      <trkpt lat="59.7798895" lon="17.6980219">
        <ele>65.0264</ele>
        <time>2014-06-01T12:41:23Z</time>
      </trkpt>
      <trkpt lat="59.779909" lon="17.6979755">
        <ele>65.0264</ele>
        <time>2014-06-01T12:41:24Z</time>
      </trkpt>
      <trkpt lat="59.7799192" lon="17.6979243">
        <ele>65.5071</ele>
        <time>2014-06-01T12:41:25Z</time>
      </trkpt>
      <trkpt lat="59.7799149" lon="17.6978685">
        <ele>65.5071</ele>
        <time>2014-06-01T12:41:26Z</time>
      </trkpt>
      <trkpt lat="59.7799077" lon="17.6978207">
        <ele>65.0264</ele>
        <time>2014-06-01T12:41:27Z</time>
      </trkpt>
      <trkpt lat="59.7799047" lon="17.6977839">
        <ele>65.0264</ele>
        <time>2014-06-01T12:41:28Z</time>
      </trkpt>
      <trkpt lat="59.7799042" lon="17.6977532">
        <ele>65.0264</ele>
        <time>2014-06-01T12:41:29Z</time>
      </trkpt>
      <trkpt lat="59.7799081" lon="17.6977261">
        <ele>64.0651</ele>
        <time>2014-06-01T12:41:30Z</time>
      </trkpt>
      <trkpt lat="59.7799196" lon="17.6977016">
        <ele>64.0651</ele>
        <time>2014-06-01T12:41:31Z</time>
      </trkpt>
      <trkpt lat="59.7799341" lon="17.6976726">
        <ele>64.0651</ele>
        <time>2014-06-01T12:41:32Z</time>
      </trkpt>
      <trkpt lat="59.7799361" lon="17.6976396">
        <ele>64.5457</ele>
        <time>2014-06-01T12:41:33Z</time>
      </trkpt>
      <trkpt lat="59.7799294" lon="17.6976089">
        <ele>65.0264</ele>
        <time>2014-06-01T12:41:34Z</time>
      </trkpt>
      <trkpt lat="59.779924" lon="17.6975702">
        <ele>65.0264</ele>
        <time>2014-06-01T12:41:35Z</time>
      </trkpt>
      <trkpt lat="59.7799234" lon="17.6975291">
        <ele>65.5071</ele>
        <time>2014-06-01T12:41:36Z</time>
      </trkpt>
      <trkpt lat="59.779927" lon="17.6974894">
        <ele>65.0264</ele>
        <time>2014-06-01T12:41:37Z</time>
      </trkpt>
      <trkpt lat="59.7799323" lon="17.6974606">
        <ele>64.5457</ele>
        <time>2014-06-01T12:41:38Z</time>
      </trkpt>
      <trkpt lat="59.7799384" lon="17.6974344">
        <ele>63.5844</ele>
        <time>2014-06-01T12:41:39Z</time>
      </trkpt>
      <trkpt lat="59.7799496" lon="17.6974219">
        <ele>63.1036</ele>
        <time>2014-06-01T12:41:40Z</time>
      </trkpt>
      <trkpt lat="59.7799643" lon="17.6974033">
        <ele>63.1036</ele>
        <time>2014-06-01T12:41:41Z</time>
      </trkpt>
      <trkpt lat="59.7799784" lon="17.6973877">
        <ele>62.6229</ele>
        <time>2014-06-01T12:41:42Z</time>
      </trkpt>
      <trkpt lat="59.7799903" lon="17.6973656">
        <ele>62.6229</ele>
        <time>2014-06-01T12:41:43Z</time>
      </trkpt>
      <trkpt lat="59.7800004" lon="17.6973396">
        <ele>62.6229</ele>
        <time>2014-06-01T12:41:44Z</time>
      </trkpt>
      <trkpt lat="59.7800088" lon="17.6973106">
        <ele>62.6229</ele>
        <time>2014-06-01T12:41:45Z</time>
      </trkpt>
      <trkpt lat="59.7800187" lon="17.6972806">
        <ele>62.6229</ele>
        <time>2014-06-01T12:41:46Z</time>
      </trkpt>
      <trkpt lat="59.780028" lon="17.6972427">
        <ele>62.6229</ele>
        <time>2014-06-01T12:41:47Z</time>
      </trkpt>
      <trkpt lat="59.7800359" lon="17.6971948">
        <ele>62.6229</ele>
        <time>2014-06-01T12:41:48Z</time>
      </trkpt>
      <trkpt lat="59.7800455" lon="17.6971405">
        <ele>62.1423</ele>
        <time>2014-06-01T12:41:49Z</time>
      </trkpt>
      <trkpt lat="59.7800623" lon="17.6970848">
        <ele>62.6229</ele>
        <time>2014-06-01T12:41:50Z</time>
      </trkpt>
      <trkpt lat="59.7800846" lon="17.6970381">
        <ele>63.1036</ele>
        <time>2014-06-01T12:41:51Z</time>
      </trkpt>
      <trkpt lat="59.7801053" lon="17.6969956">
        <ele>63.5844</ele>
        <time>2014-06-01T12:41:52Z</time>
      </trkpt>
      <trkpt lat="59.780115" lon="17.6969454">
        <ele>63.1036</ele>
        <time>2014-06-01T12:41:53Z</time>
      </trkpt>
      <trkpt lat="59.7801149" lon="17.696913">
        <ele>62.1423</ele>
        <time>2014-06-01T12:41:54Z</time>
      </trkpt>
      <trkpt lat="59.7801154" lon="17.6968882">
        <ele>62.1423</ele>
        <time>2014-06-01T12:41:55Z</time>
      </trkpt>
      <trkpt lat="59.7801242" lon="17.6968595">
        <ele>62.6229</ele>
        <time>2014-06-01T12:41:56Z</time>
      </trkpt>
      <trkpt lat="59.7801383" lon="17.6968335">
        <ele>63.1036</ele>
        <time>2014-06-01T12:41:57Z</time>
      </trkpt>
      <trkpt lat="59.7801563" lon="17.6968056">
        <ele>63.1036</ele>
        <time>2014-06-01T12:41:58Z</time>
      </trkpt>
      <trkpt lat="59.7801819" lon="17.6967828">
        <ele>65.0264</ele>
        <time>2014-06-01T12:41:59Z</time>
      </trkpt>
      <trkpt lat="59.7801987" lon="17.6967642">
        <ele>65.5071</ele>
        <time>2014-06-01T12:42:00Z</time>
      </trkpt>
      <trkpt lat="59.7802098" lon="17.6967433">
        <ele>65.0264</ele>
        <time>2014-06-01T12:42:01Z</time>
      </trkpt>
      <trkpt lat="59.780226" lon="17.6967136">
        <ele>65.0264</ele>
        <time>2014-06-01T12:42:02Z</time>
      </trkpt>
      <trkpt lat="59.7802392" lon="17.6966825">
        <ele>65.0264</ele>
        <time>2014-06-01T12:42:03Z</time>
      </trkpt>
      <trkpt lat="59.7802527" lon="17.6966537">
        <ele>65.0264</ele>
        <time>2014-06-01T12:42:04Z</time>
      </trkpt>
      <trkpt lat="59.7802689" lon="17.6966305">
        <ele>65.5071</ele>
        <time>2014-06-01T12:42:05Z</time>
      </trkpt>
      <trkpt lat="59.7802825" lon="17.6966079">
        <ele>65.5071</ele>
        <time>2014-06-01T12:42:06Z</time>
      </trkpt>
      <trkpt lat="59.7802957" lon="17.6965833">
        <ele>65.9877</ele>
        <time>2014-06-01T12:42:07Z</time>
      </trkpt>
      <trkpt lat="59.7803026" lon="17.6965568">
        <ele>65.5071</ele>
        <time>2014-06-01T12:42:08Z</time>
      </trkpt>
      <trkpt lat="59.7803062" lon="17.6965362">
        <ele>65.0264</ele>
        <time>2014-06-01T12:42:09Z</time>
      </trkpt>
      <trkpt lat="59.7803109" lon="17.696518">
        <ele>64.5457</ele>
        <time>2014-06-01T12:42:10Z</time>
      </trkpt>
      <trkpt lat="59.7803202" lon="17.6964948">
        <ele>64.5457</ele>
        <time>2014-06-01T12:42:11Z</time>
      </trkpt>
      <trkpt lat="59.780328" lon="17.696463">
        <ele>63.1036</ele>
        <time>2014-06-01T12:42:12Z</time>
      </trkpt>
      <trkpt lat="59.7803388" lon="17.6964429">
        <ele>63.1036</ele>
        <time>2014-06-01T12:42:13Z</time>
      </trkpt>
      <trkpt lat="59.7803424" lon="17.6964154">
        <ele>62.6229</ele>
        <time>2014-06-01T12:42:14Z</time>
      </trkpt>
      <trkpt lat="59.780343" lon="17.696374">
        <ele>62.1423</ele>
        <time>2014-06-01T12:42:15Z</time>
      </trkpt>
      <trkpt lat="59.7803502" lon="17.6963439">
        <ele>62.6229</ele>
        <time>2014-06-01T12:42:16Z</time>
      </trkpt>
      <trkpt lat="59.7803575" lon="17.6963253">
        <ele>62.1423</ele>
        <time>2014-06-01T12:42:17Z</time>
      </trkpt>
      <trkpt lat="59.7803671" lon="17.6963107">
        <ele>62.1423</ele>
        <time>2014-06-01T12:42:18Z</time>
      </trkpt>
      <trkpt lat="59.7803797" lon="17.6962942">
        <ele>63.1036</ele>
        <time>2014-06-01T12:42:19Z</time>
      </trkpt>
      <trkpt lat="59.7803944" lon="17.6962791">
        <ele>63.1036</ele>
        <time>2014-06-01T12:42:20Z</time>
      </trkpt>
      <trkpt lat="59.7804112" lon="17.6962705">
        <ele>63.5844</ele>
        <time>2014-06-01T12:42:21Z</time>
      </trkpt>
      <trkpt lat="59.7804321" lon="17.6962523">
        <ele>64.5457</ele>
        <time>2014-06-01T12:42:22Z</time>
      </trkpt>
      <trkpt lat="59.7804495" lon="17.6962268">
        <ele>65.0264</ele>
        <time>2014-06-01T12:42:23Z</time>
      </trkpt>
      <trkpt lat="59.7804609" lon="17.6961865">
        <ele>65.0264</ele>
        <time>2014-06-01T12:42:24Z</time>
      </trkpt>
      <trkpt lat="59.7804707" lon="17.6961423">
        <ele>65.0264</ele>
        <time>2014-06-01T12:42:25Z</time>
      </trkpt>
      <trkpt lat="59.7804844" lon="17.6960992">
        <ele>64.5457</ele>
        <time>2014-06-01T12:42:26Z</time>
      </trkpt>
      <trkpt lat="59.7804925" lon="17.6960516">
        <ele>63.5844</ele>
        <time>2014-06-01T12:42:27Z</time>
      </trkpt>
      <trkpt lat="59.7804984" lon="17.696011">
        <ele>63.5844</ele>
        <time>2014-06-01T12:42:28Z</time>
      </trkpt>
      <trkpt lat="59.7805036" lon="17.6959747">
        <ele>63.1036</ele>
        <time>2014-06-01T12:42:29Z</time>
      </trkpt>
      <trkpt lat="59.7805129" lon="17.6959369">
        <ele>62.6229</ele>
        <time>2014-06-01T12:42:30Z</time>
      </trkpt>
      <trkpt lat="59.7805196" lon="17.6958988">
        <ele>62.1423</ele>
        <time>2014-06-01T12:42:31Z</time>
      </trkpt>
      <trkpt lat="59.7805241" lon="17.695868">
        <ele>62.6229</ele>
        <time>2014-06-01T12:42:32Z</time>
      </trkpt>
      <trkpt lat="59.7805292" lon="17.6958384">
        <ele>63.1036</ele>
        <time>2014-06-01T12:42:33Z</time>
      </trkpt>
      <trkpt lat="59.7805308" lon="17.6958113">
        <ele>62.6229</ele>
        <time>2014-06-01T12:42:34Z</time>
      </trkpt>
      <trkpt lat="59.7805362" lon="17.6957943">
        <ele>63.1036</ele>
        <time>2014-06-01T12:42:35Z</time>
      </trkpt>
      <trkpt lat="59.7805434" lon="17.6957725">
        <ele>63.1036</ele>
        <time>2014-06-01T12:42:36Z</time>
      </trkpt>
      <trkpt lat="59.7805547" lon="17.6957456">
        <ele>63.1036</ele>
        <time>2014-06-01T12:42:37Z</time>
      </trkpt>
      <trkpt lat="59.7805676" lon="17.6957108">
        <ele>63.1036</ele>
        <time>2014-06-01T12:42:38Z</time>
      </trkpt>
      <trkpt lat="59.7805817" lon="17.6956753">
        <ele>63.1036</ele>
        <time>2014-06-01T12:42:39Z</time>
      </trkpt>
      <trkpt lat="59.780594" lon="17.6956352">
        <ele>62.6229</ele>
        <time>2014-06-01T12:42:40Z</time>
      </trkpt>
      <trkpt lat="59.780607" lon="17.6955886">
        <ele>62.6229</ele>
        <time>2014-06-01T12:42:41Z</time>
      </trkpt>
      <trkpt lat="59.7806191" lon="17.6955307">
        <ele>62.1423</ele>
        <time>2014-06-01T12:42:42Z</time>
      </trkpt>
      <trkpt lat="59.7806315" lon="17.6954769">
        <ele>62.1423</ele>
        <time>2014-06-01T12:42:43Z</time>
      </trkpt>
      <trkpt lat="59.7806419" lon="17.695424">
        <ele>62.6229</ele>
        <time>2014-06-01T12:42:44Z</time>
      </trkpt>
      <trkpt lat="59.7806548" lon="17.6953655">
        <ele>62.1423</ele>
        <time>2014-06-01T12:42:45Z</time>
      </trkpt>
      <trkpt lat="59.7806736" lon="17.6953127">
        <ele>61.6617</ele>
        <time>2014-06-01T12:42:46Z</time>
      </trkpt>
      <trkpt lat="59.7806909" lon="17.6952547">
        <ele>60.7003</ele>
        <time>2014-06-01T12:42:47Z</time>
      </trkpt>
      <trkpt lat="59.7807102" lon="17.6951981">
        <ele>61.181</ele>
        <time>2014-06-01T12:42:48Z</time>
      </trkpt>
      <trkpt lat="59.7807164" lon="17.6951313">
        <ele>61.181</ele>
        <time>2014-06-01T12:42:49Z</time>
      </trkpt>
      <trkpt lat="59.7807225" lon="17.6950702">
        <ele>60.7003</ele>
        <time>2014-06-01T12:42:50Z</time>
      </trkpt>
      <trkpt lat="59.7807315" lon="17.6950221">
        <ele>61.181</ele>
        <time>2014-06-01T12:42:51Z</time>
      </trkpt>
      <trkpt lat="59.7807333" lon="17.6949747">
        <ele>60.2197</ele>
        <time>2014-06-01T12:42:52Z</time>
      </trkpt>
      <trkpt lat="59.7807434" lon="17.6949366">
        <ele>61.181</ele>
        <time>2014-06-01T12:42:53Z</time>
      </trkpt>
      <trkpt lat="59.7807554" lon="17.6949026">
        <ele>61.6617</ele>
        <time>2014-06-01T12:42:54Z</time>
      </trkpt>
      <trkpt lat="59.7807689" lon="17.6948778">
        <ele>62.6229</ele>
        <time>2014-06-01T12:42:55Z</time>
      </trkpt>
      <trkpt lat="59.7807796" lon="17.6948504">
        <ele>63.1036</ele>
        <time>2014-06-01T12:42:56Z</time>
      </trkpt>
      <trkpt lat="59.7807879" lon="17.6948241">
        <ele>62.6229</ele>
        <time>2014-06-01T12:42:57Z</time>
      </trkpt>
      <trkpt lat="59.7807991" lon="17.694805">
        <ele>62.6229</ele>
        <time>2014-06-01T12:42:58Z</time>
      </trkpt>
      <trkpt lat="59.7808138" lon="17.6947835">
        <ele>63.5844</ele>
        <time>2014-06-01T12:42:59Z</time>
      </trkpt>
      <trkpt lat="59.7808273" lon="17.6947553">
        <ele>63.5844</ele>
        <time>2014-06-01T12:43:00Z</time>
      </trkpt>
      <trkpt lat="59.7808426" lon="17.6947253">
        <ele>63.1036</ele>
        <time>2014-06-01T12:43:01Z</time>
      </trkpt>
      <trkpt lat="59.7808598" lon="17.6946957">
        <ele>63.1036</ele>
        <time>2014-06-01T12:43:02Z</time>
      </trkpt>
      <trkpt lat="59.7808771" lon="17.6946708">
        <ele>62.6229</ele>
        <time>2014-06-01T12:43:03Z</time>
      </trkpt>
      <trkpt lat="59.7808905" lon="17.6946476">
        <ele>62.6229</ele>
        <time>2014-06-01T12:43:04Z</time>
      </trkpt>
      <trkpt lat="59.7808935" lon="17.6946194">
        <ele>62.1423</ele>
        <time>2014-06-01T12:43:05Z</time>
      </trkpt>
      <trkpt lat="59.7808891" lon="17.6945879">
        <ele>62.1423</ele>
        <time>2014-06-01T12:43:06Z</time>
      </trkpt>
      <trkpt lat="59.7808848" lon="17.6945657">
        <ele>61.181</ele>
        <time>2014-06-01T12:43:07Z</time>
      </trkpt>
      <trkpt lat="59.7808823" lon="17.6945501">
        <ele>60.7003</ele>
        <time>2014-06-01T12:43:08Z</time>
      </trkpt>
      <trkpt lat="59.780879" lon="17.6945388">
        <ele>60.2197</ele>
        <time>2014-06-01T12:43:09Z</time>
      </trkpt>
      <trkpt lat="59.7808759" lon="17.6945251">
        <ele>60.2197</ele>
        <time>2014-06-01T12:43:10Z</time>
      </trkpt>
      <trkpt lat="59.7808732" lon="17.6945034">
        <ele>59.7391</ele>
        <time>2014-06-01T12:43:11Z</time>
      </trkpt>
      <trkpt lat="59.7808773" lon="17.6944771">
        <ele>59.7391</ele>
        <time>2014-06-01T12:43:12Z</time>
      </trkpt>
      <trkpt lat="59.7808873" lon="17.694454">
        <ele>60.2197</ele>
        <time>2014-06-01T12:43:13Z</time>
      </trkpt>
      <trkpt lat="59.7808988" lon="17.6944342">
        <ele>60.7003</ele>
        <time>2014-06-01T12:43:14Z</time>
      </trkpt>
      <trkpt lat="59.7809089" lon="17.6944276">
        <ele>61.6617</ele>
        <time>2014-06-01T12:43:15Z</time>
      </trkpt>
      <trkpt lat="59.7809066" lon="17.6944062">
        <ele>61.181</ele>
        <time>2014-06-01T12:43:16Z</time>
      </trkpt>
      <trkpt lat="59.780912" lon="17.6943912">
        <ele>61.181</ele>
        <time>2014-06-01T12:43:17Z</time>
      </trkpt>
      <trkpt lat="59.7809199" lon="17.6943772">
        <ele>61.6617</ele>
        <time>2014-06-01T12:43:18Z</time>
      </trkpt>
      <trkpt lat="59.7809238" lon="17.6943577">
        <ele>61.6617</ele>
        <time>2014-06-01T12:43:19Z</time>
      </trkpt>
      <trkpt lat="59.7809329" lon="17.6943401">
        <ele>61.6617</ele>
        <time>2014-06-01T12:43:20Z</time>
      </trkpt>
      <trkpt lat="59.7809444" lon="17.6943248">
        <ele>62.1423</ele>
        <time>2014-06-01T12:43:21Z</time>
      </trkpt>
      <trkpt lat="59.7809535" lon="17.6942988">
        <ele>62.1423</ele>
        <time>2014-06-01T12:43:22Z</time>
      </trkpt>
      <trkpt lat="59.78096" lon="17.6942697">
        <ele>62.6229</ele>
        <time>2014-06-01T12:43:23Z</time>
      </trkpt>
      <trkpt lat="59.7809651" lon="17.6942392">
        <ele>63.1036</ele>
        <time>2014-06-01T12:43:24Z</time>
      </trkpt>
      <trkpt lat="59.7809723" lon="17.6942161">
        <ele>63.5844</ele>
        <time>2014-06-01T12:43:25Z</time>
      </trkpt>
      <trkpt lat="59.7809791" lon="17.6941963">
        <ele>63.5844</ele>
        <time>2014-06-01T12:43:26Z</time>
      </trkpt>
      <trkpt lat="59.7809854" lon="17.6941683">
        <ele>63.5844</ele>
        <time>2014-06-01T12:43:27Z</time>
      </trkpt>
      <trkpt lat="59.7809931" lon="17.6941372">
        <ele>64.0651</ele>
        <time>2014-06-01T12:43:28Z</time>
      </trkpt>
      <trkpt lat="59.781006" lon="17.6941072">
        <ele>64.5457</ele>
        <time>2014-06-01T12:43:29Z</time>
      </trkpt>
      <trkpt lat="59.781019" lon="17.6940833">
        <ele>64.5457</ele>
        <time>2014-06-01T12:43:30Z</time>
      </trkpt>
      <trkpt lat="59.7810338" lon="17.6940611">
        <ele>64.5457</ele>
        <time>2014-06-01T12:43:31Z</time>
      </trkpt>
      <trkpt lat="59.7810532" lon="17.6940346">
        <ele>65.5071</ele>
        <time>2014-06-01T12:43:32Z</time>
      </trkpt>
      <trkpt lat="59.7810722" lon="17.6940103">
        <ele>66.949</ele>
        <time>2014-06-01T12:43:33Z</time>
      </trkpt>
      <trkpt lat="59.7810848" lon="17.6939834">
        <ele>67.4297</ele>
        <time>2014-06-01T12:43:34Z</time>
      </trkpt>
      <trkpt lat="59.7810962" lon="17.693958">
        <ele>68.3909</ele>
        <time>2014-06-01T12:43:35Z</time>
      </trkpt>
      <trkpt lat="59.7811096" lon="17.6939353">
        <ele>68.3909</ele>
        <time>2014-06-01T12:43:36Z</time>
      </trkpt>
      <trkpt lat="59.7811268" lon="17.6939103">
        <ele>68.8716</ele>
        <time>2014-06-01T12:43:37Z</time>
      </trkpt>
      <trkpt lat="59.7811384" lon="17.6938754">
        <ele>68.3909</ele>
        <time>2014-06-01T12:43:38Z</time>
      </trkpt>
      <trkpt lat="59.7811443" lon="17.6938433">
        <ele>68.3909</ele>
        <time>2014-06-01T12:43:39Z</time>
      </trkpt>
      <trkpt lat="59.7811511" lon="17.6938123">
        <ele>68.3909</ele>
        <time>2014-06-01T12:43:40Z</time>
      </trkpt>
      <trkpt lat="59.7811588" lon="17.6937788">
        <ele>68.8716</ele>
        <time>2014-06-01T12:43:41Z</time>
      </trkpt>
      <trkpt lat="59.7811688" lon="17.6937441">
        <ele>68.3909</ele>
        <time>2014-06-01T12:43:42Z</time>
      </trkpt>
      <trkpt lat="59.7811856" lon="17.6937083">
        <ele>68.3909</ele>
        <time>2014-06-01T12:43:43Z</time>
      </trkpt>
      <trkpt lat="59.781203" lon="17.6936711">
        <ele>67.9103</ele>
        <time>2014-06-01T12:43:44Z</time>
      </trkpt>
      <trkpt lat="59.7812205" lon="17.6936254">
        <ele>67.4297</ele>
        <time>2014-06-01T12:43:45Z</time>
      </trkpt>
      <trkpt lat="59.7812427" lon="17.6935827">
        <ele>67.9103</ele>
        <time>2014-06-01T12:43:46Z</time>
      </trkpt>
      <trkpt lat="59.7812604" lon="17.6935432">
        <ele>66.4683</ele>
        <time>2014-06-01T12:43:47Z</time>
      </trkpt>
      <trkpt lat="59.7812763" lon="17.6934979">
        <ele>65.5071</ele>
        <time>2014-06-01T12:43:48Z</time>
      </trkpt>
      <trkpt lat="59.7812924" lon="17.6934499">
        <ele>64.5457</ele>
        <time>2014-06-01T12:43:49Z</time>
      </trkpt>
      <trkpt lat="59.7813107" lon="17.6934068">
        <ele>63.5844</ele>
        <time>2014-06-01T12:43:50Z</time>
      </trkpt>
      <trkpt lat="59.7813287" lon="17.6933717">
        <ele>63.5844</ele>
        <time>2014-06-01T12:43:51Z</time>
      </trkpt>
      <trkpt lat="59.7813427" lon="17.6933292">
        <ele>64.0651</ele>
        <time>2014-06-01T12:43:52Z</time>
      </trkpt>
      <trkpt lat="59.78135" lon="17.6932916">
        <ele>64.0651</ele>
        <time>2014-06-01T12:43:53Z</time>
      </trkpt>
      <trkpt lat="59.7813567" lon="17.6932693">
        <ele>64.0651</ele>
        <time>2014-06-01T12:43:54Z</time>
      </trkpt>
      <trkpt lat="59.7813665" lon="17.6932509">
        <ele>64.0651</ele>
        <time>2014-06-01T12:43:55Z</time>
      </trkpt>
      <trkpt lat="59.7813789" lon="17.6932303">
        <ele>64.5457</ele>
        <time>2014-06-01T12:43:56Z</time>
      </trkpt>
      <trkpt lat="59.7813878" lon="17.693197">
        <ele>65.0264</ele>
        <time>2014-06-01T12:43:57Z</time>
      </trkpt>
      <trkpt lat="59.7814016" lon="17.6931587">
        <ele>65.0264</ele>
        <time>2014-06-01T12:43:58Z</time>
      </trkpt>
      <trkpt lat="59.7814224" lon="17.6931168">
        <ele>64.5457</ele>
        <time>2014-06-01T12:43:59Z</time>
      </trkpt>
      <trkpt lat="59.7814487" lon="17.693077">
        <ele>64.0651</ele>
        <time>2014-06-01T12:44:00Z</time>
      </trkpt>
      <trkpt lat="59.7814701" lon="17.6930266">
        <ele>62.6229</ele>
        <time>2014-06-01T12:44:01Z</time>
      </trkpt>
      <trkpt lat="59.7814905" lon="17.6929832">
        <ele>62.6229</ele>
        <time>2014-06-01T12:44:02Z</time>
      </trkpt>
      <trkpt lat="59.7815116" lon="17.6929468">
        <ele>63.1036</ele>
        <time>2014-06-01T12:44:03Z</time>
      </trkpt>
      <trkpt lat="59.7815283" lon="17.6929125">
        <ele>63.5844</ele>
        <time>2014-06-01T12:44:04Z</time>
      </trkpt>
      <trkpt lat="59.781537" lon="17.692869">
        <ele>63.1036</ele>
        <time>2014-06-01T12:44:05Z</time>
      </trkpt>
      <trkpt lat="59.7815492" lon="17.6928309">
        <ele>63.1036</ele>
        <time>2014-06-01T12:44:06Z</time>
      </trkpt>
      <trkpt lat="59.781563" lon="17.6928011">
        <ele>62.6229</ele>
        <time>2014-06-01T12:44:07Z</time>
      </trkpt>
      <trkpt lat="59.7815733" lon="17.6927733">
        <ele>62.6229</ele>
        <time>2014-06-01T12:44:08Z</time>
      </trkpt>
      <trkpt lat="59.7815835" lon="17.6927358">
        <ele>62.6229</ele>
        <time>2014-06-01T12:44:09Z</time>
      </trkpt>
      <trkpt lat="59.7815938" lon="17.6926954">
        <ele>62.1423</ele>
        <time>2014-06-01T12:44:10Z</time>
      </trkpt>
      <trkpt lat="59.7816034" lon="17.6926592">
        <ele>62.1423</ele>
        <time>2014-06-01T12:44:11Z</time>
      </trkpt>
      <trkpt lat="59.7816199" lon="17.6926309">
        <ele>62.1423</ele>
        <time>2014-06-01T12:44:12Z</time>
      </trkpt>
      <trkpt lat="59.7816378" lon="17.6925973">
        <ele>61.6617</ele>
        <time>2014-06-01T12:44:13Z</time>
      </trkpt>
      <trkpt lat="59.7816607" lon="17.6925721">
        <ele>61.6617</ele>
        <time>2014-06-01T12:44:14Z</time>
      </trkpt>
      <trkpt lat="59.7816835" lon="17.6925516">
        <ele>62.1423</ele>
        <time>2014-06-01T12:44:15Z</time>
      </trkpt>
      <trkpt lat="59.781702" lon="17.6925397">
        <ele>62.6229</ele>
        <time>2014-06-01T12:44:16Z</time>
      </trkpt>
      <trkpt lat="59.7817191" lon="17.6925358">
        <ele>62.6229</ele>
        <time>2014-06-01T12:44:17Z</time>
      </trkpt>
      <trkpt lat="59.7817352" lon="17.6925195">
        <ele>63.5844</ele>
        <time>2014-06-01T12:44:18Z</time>
      </trkpt>
      <trkpt lat="59.7817528" lon="17.6925092">
        <ele>63.1036</ele>
        <time>2014-06-01T12:44:19Z</time>
      </trkpt>
      <trkpt lat="59.7817663" lon="17.6924888">
        <ele>63.1036</ele>
        <time>2014-06-01T12:44:20Z</time>
      </trkpt>
      <trkpt lat="59.7817828" lon="17.6924568">
        <ele>63.1036</ele>
        <time>2014-06-01T12:44:21Z</time>
      </trkpt>
      <trkpt lat="59.7818022" lon="17.6924283">
        <ele>63.1036</ele>
        <time>2014-06-01T12:44:22Z</time>
      </trkpt>
      <trkpt lat="59.7818193" lon="17.6924066">
        <ele>63.5844</ele>
        <time>2014-06-01T12:44:23Z</time>
      </trkpt>
      <trkpt lat="59.7818341" lon="17.6923804">
        <ele>63.5844</ele>
        <time>2014-06-01T12:44:24Z</time>
      </trkpt>
      <trkpt lat="59.7818488" lon="17.692349">
        <ele>63.5844</ele>
        <time>2014-06-01T12:44:25Z</time>
      </trkpt>
      <trkpt lat="59.7818623" lon="17.6923121">
        <ele>64.0651</ele>
        <time>2014-06-01T12:44:26Z</time>
      </trkpt>
      <trkpt lat="59.7818752" lon="17.6922719">
        <ele>64.5457</ele>
        <time>2014-06-01T12:44:27Z</time>
      </trkpt>
      <trkpt lat="59.7818901" lon="17.692233">
        <ele>65.0264</ele>
        <time>2014-06-01T12:44:28Z</time>
      </trkpt>
      <trkpt lat="59.7819048" lon="17.6922046">
        <ele>65.5071</ele>
        <time>2014-06-01T12:44:29Z</time>
      </trkpt>
      <trkpt lat="59.7819162" lon="17.6921857">
        <ele>65.5071</ele>
        <time>2014-06-01T12:44:30Z</time>
      </trkpt>
      <trkpt lat="59.7819261" lon="17.6921691">
        <ele>65.5071</ele>
        <time>2014-06-01T12:44:31Z</time>
      </trkpt>
      <trkpt lat="59.7819373" lon="17.6921516">
        <ele>65.9877</ele>
        <time>2014-06-01T12:44:32Z</time>
      </trkpt>
      <trkpt lat="59.7819447" lon="17.6921262">
        <ele>65.5071</ele>
        <time>2014-06-01T12:44:33Z</time>
      </trkpt>
      <trkpt lat="59.781954" lon="17.692102">
        <ele>65.5071</ele>
        <time>2014-06-01T12:44:34Z</time>
      </trkpt>
      <trkpt lat="59.7819696" lon="17.6920748">
        <ele>65.5071</ele>
        <time>2014-06-01T12:44:35Z</time>
      </trkpt>
      <trkpt lat="59.7819825" lon="17.6920402">
        <ele>65.9877</ele>
        <time>2014-06-01T12:44:36Z</time>
      </trkpt>
      <trkpt lat="59.7819918" lon="17.6919968">
        <ele>66.4683</ele>
        <time>2014-06-01T12:44:37Z</time>
      </trkpt>
      <trkpt lat="59.7819963" lon="17.6919554">
        <ele>67.4297</ele>
        <time>2014-06-01T12:44:38Z</time>
      </trkpt>
      <trkpt lat="59.7819921" lon="17.6919052">
        <ele>66.949</ele>
        <time>2014-06-01T12:44:39Z</time>
      </trkpt>
      <trkpt lat="59.7819905" lon="17.6918523">
        <ele>67.4297</ele>
        <time>2014-06-01T12:44:40Z</time>
      </trkpt>
      <trkpt lat="59.7819933" lon="17.6917998">
        <ele>67.4297</ele>
        <time>2014-06-01T12:44:41Z</time>
      </trkpt>
      <trkpt lat="59.781999" lon="17.6917478">
        <ele>66.949</ele>
        <time>2014-06-01T12:44:42Z</time>
      </trkpt>
      <trkpt lat="59.782005" lon="17.6917039">
        <ele>65.0264</ele>
        <time>2014-06-01T12:44:43Z</time>
      </trkpt>
      <trkpt lat="59.7820177" lon="17.6916662">
        <ele>64.5457</ele>
        <time>2014-06-01T12:44:44Z</time>
      </trkpt>
      <trkpt lat="59.7820244" lon="17.6916279">
        <ele>63.5844</ele>
        <time>2014-06-01T12:44:45Z</time>
      </trkpt>
      <trkpt lat="59.7820333" lon="17.6915913">
        <ele>63.5844</ele>
        <time>2014-06-01T12:44:46Z</time>
      </trkpt>
      <trkpt lat="59.782044" lon="17.6915573">
        <ele>63.5844</ele>
        <time>2014-06-01T12:44:47Z</time>
      </trkpt>
      <trkpt lat="59.7820491" lon="17.6915217">
        <ele>63.5844</ele>
        <time>2014-06-01T12:44:48Z</time>
      </trkpt>
      <trkpt lat="59.7820484" lon="17.6914867">
        <ele>63.5844</ele>
        <time>2014-06-01T12:44:49Z</time>
      </trkpt>
      <trkpt lat="59.7820408" lon="17.6914408">
        <ele>63.5844</ele>
        <time>2014-06-01T12:44:50Z</time>
      </trkpt>
      <trkpt lat="59.7820341" lon="17.6913973">
        <ele>62.6229</ele>
        <time>2014-06-01T12:44:51Z</time>
      </trkpt>
      <trkpt lat="59.782026" lon="17.6913487">
        <ele>62.1423</ele>
        <time>2014-06-01T12:44:52Z</time>
      </trkpt>
      <trkpt lat="59.7820229" lon="17.6912865">
        <ele>61.6617</ele>
        <time>2014-06-01T12:44:53Z</time>
      </trkpt>
      <trkpt lat="59.7820313" lon="17.691228">
        <ele>61.181</ele>
        <time>2014-06-01T12:44:54Z</time>
      </trkpt>
      <trkpt lat="59.7820446" lon="17.6911869">
        <ele>61.6617</ele>
        <time>2014-06-01T12:44:55Z</time>
      </trkpt>
      <trkpt lat="59.7820555" lon="17.6911489">
        <ele>62.1423</ele>
        <time>2014-06-01T12:44:56Z</time>
      </trkpt>
      <trkpt lat="59.7820686" lon="17.6911079">
        <ele>62.6229</ele>
        <time>2014-06-01T12:44:57Z</time>
      </trkpt>
      <trkpt lat="59.7820798" lon="17.691067">
        <ele>63.1036</ele>
        <time>2014-06-01T12:44:58Z</time>
      </trkpt>
      <trkpt lat="59.7820871" lon="17.6910267">
        <ele>62.6229</ele>
        <time>2014-06-01T12:44:59Z</time>
      </trkpt>
      <trkpt lat="59.7820985" lon="17.6909792">
        <ele>63.1036</ele>
        <time>2014-06-01T12:45:00Z</time>
      </trkpt>
      <trkpt lat="59.7821182" lon="17.6909293">
        <ele>62.6229</ele>
        <time>2014-06-01T12:45:01Z</time>
      </trkpt>
      <trkpt lat="59.7821373" lon="17.6908765">
        <ele>62.6229</ele>
        <time>2014-06-01T12:45:02Z</time>
      </trkpt>
      <trkpt lat="59.782152" lon="17.690813">
        <ele>62.6229</ele>
        <time>2014-06-01T12:45:03Z</time>
      </trkpt>
      <trkpt lat="59.7821682" lon="17.6907541">
        <ele>62.6229</ele>
        <time>2014-06-01T12:45:04Z</time>
      </trkpt>
      <trkpt lat="59.7821828" lon="17.6907095">
        <ele>62.6229</ele>
        <time>2014-06-01T12:45:05Z</time>
      </trkpt>
      <trkpt lat="59.7821918" lon="17.6906767">
        <ele>62.6229</ele>
        <time>2014-06-01T12:45:06Z</time>
      </trkpt>
      <trkpt lat="59.7821989" lon="17.6906464">
        <ele>62.6229</ele>
        <time>2014-06-01T12:45:07Z</time>
      </trkpt>
      <trkpt lat="59.7822068" lon="17.6906162">
        <ele>62.6229</ele>
        <time>2014-06-01T12:45:08Z</time>
      </trkpt>
      <trkpt lat="59.7822192" lon="17.690581">
        <ele>62.6229</ele>
        <time>2014-06-01T12:45:09Z</time>
      </trkpt>
      <trkpt lat="59.7822347" lon="17.6905325">
        <ele>62.6229</ele>
        <time>2014-06-01T12:45:10Z</time>
      </trkpt>
      <trkpt lat="59.7822532" lon="17.6904814">
        <ele>62.6229</ele>
        <time>2014-06-01T12:45:11Z</time>
      </trkpt>
      <trkpt lat="59.78227" lon="17.6904389">
        <ele>63.1036</ele>
        <time>2014-06-01T12:45:12Z</time>
      </trkpt>
      <trkpt lat="59.7822715" lon="17.6903949">
        <ele>62.6229</ele>
        <time>2014-06-01T12:45:13Z</time>
      </trkpt>
      <trkpt lat="59.7822739" lon="17.6903711">
        <ele>62.6229</ele>
        <time>2014-06-01T12:45:14Z</time>
      </trkpt>
      <trkpt lat="59.7822771" lon="17.6903597">
        <ele>63.1036</ele>
        <time>2014-06-01T12:45:15Z</time>
      </trkpt>
      <trkpt lat="59.7822834" lon="17.6903475">
        <ele>63.1036</ele>
        <time>2014-06-01T12:45:16Z</time>
      </trkpt>
      <trkpt lat="59.782291" lon="17.6903313">
        <ele>63.1036</ele>
        <time>2014-06-01T12:45:17Z</time>
      </trkpt>
      <trkpt lat="59.7822951" lon="17.690316">
        <ele>63.1036</ele>
        <time>2014-06-01T12:45:18Z</time>
      </trkpt>
      <trkpt lat="59.7822964" lon="17.6903043">
        <ele>63.1036</ele>
        <time>2014-06-01T12:45:19Z</time>
      </trkpt>
      <trkpt lat="59.7822993" lon="17.6902904">
        <ele>63.5844</ele>
        <time>2014-06-01T12:45:20Z</time>
      </trkpt>
      <trkpt lat="59.7823026" lon="17.6902761">
        <ele>63.1036</ele>
        <time>2014-06-01T12:45:21Z</time>
      </trkpt>
      <trkpt lat="59.7823136" lon="17.6902647">
        <ele>63.1036</ele>
        <time>2014-06-01T12:45:22Z</time>
      </trkpt>
      <trkpt lat="59.7823249" lon="17.6902431">
        <ele>62.6229</ele>
        <time>2014-06-01T12:45:23Z</time>
      </trkpt>
      <trkpt lat="59.7823361" lon="17.6902143">
        <ele>63.1036</ele>
        <time>2014-06-01T12:45:24Z</time>
      </trkpt>
      <trkpt lat="59.782344" lon="17.6901864">
        <ele>63.5844</ele>
        <time>2014-06-01T12:45:25Z</time>
      </trkpt>
      <trkpt lat="59.7823487" lon="17.6901553">
        <ele>63.1036</ele>
        <time>2014-06-01T12:45:26Z</time>
      </trkpt>
      <trkpt lat="59.7823621" lon="17.6901252">
        <ele>63.1036</ele>
        <time>2014-06-01T12:45:27Z</time>
      </trkpt>
      <trkpt lat="59.7823766" lon="17.6900912">
        <ele>62.6229</ele>
        <time>2014-06-01T12:45:28Z</time>
      </trkpt>
      <trkpt lat="59.7823877" lon="17.6900668">
        <ele>62.6229</ele>
        <time>2014-06-01T12:45:29Z</time>
      </trkpt>
      <trkpt lat="59.7823948" lon="17.6900497">
        <ele>62.1423</ele>
        <time>2014-06-01T12:45:30Z</time>
      </trkpt>
      <trkpt lat="59.7824" lon="17.6900303">
        <ele>62.1423</ele>
        <time>2014-06-01T12:45:31Z</time>
      </trkpt>
      <trkpt lat="59.7824034" lon="17.6900083">
        <ele>61.6617</ele>
        <time>2014-06-01T12:45:32Z</time>
      </trkpt>
      <trkpt lat="59.7824114" lon="17.6899858">
        <ele>62.1423</ele>
        <time>2014-06-01T12:45:33Z</time>
      </trkpt>
      <trkpt lat="59.7824196" lon="17.6899471">
        <ele>62.6229</ele>
        <time>2014-06-01T12:45:34Z</time>
      </trkpt>
      <trkpt lat="59.7824274" lon="17.6898955">
        <ele>62.1423</ele>
        <time>2014-06-01T12:45:35Z</time>
      </trkpt>
      <trkpt lat="59.7824425" lon="17.6898475">
        <ele>61.6617</ele>
        <time>2014-06-01T12:45:36Z</time>
      </trkpt>
      <trkpt lat="59.7824573" lon="17.6897865">
        <ele>61.6617</ele>
        <time>2014-06-01T12:45:37Z</time>
      </trkpt>
      <trkpt lat="59.7824715" lon="17.6897269">
        <ele>61.6617</ele>
        <time>2014-06-01T12:45:38Z</time>
      </trkpt>
      <trkpt lat="59.7824828" lon="17.6896817">
        <ele>61.6617</ele>
        <time>2014-06-01T12:45:39Z</time>
      </trkpt>
      <trkpt lat="59.782498" lon="17.6896628">
        <ele>61.6617</ele>
        <time>2014-06-01T12:45:40Z</time>
      </trkpt>
      <trkpt lat="59.7825082" lon="17.6896459">
        <ele>61.181</ele>
        <time>2014-06-01T12:45:41Z</time>
      </trkpt>
      <trkpt lat="59.7825196" lon="17.689617">
        <ele>60.7003</ele>
        <time>2014-06-01T12:45:42Z</time>
      </trkpt>
      <trkpt lat="59.7825383" lon="17.6895851">
        <ele>60.7003</ele>
        <time>2014-06-01T12:45:43Z</time>
      </trkpt>
      <trkpt lat="59.7825538" lon="17.6895552">
        <ele>60.7003</ele>
        <time>2014-06-01T12:45:44Z</time>
      </trkpt>
      <trkpt lat="59.7825591" lon="17.6895263">
        <ele>60.7003</ele>
        <time>2014-06-01T12:45:45Z</time>
      </trkpt>
      <trkpt lat="59.7825624" lon="17.689496">
        <ele>60.7003</ele>
        <time>2014-06-01T12:45:46Z</time>
      </trkpt>
      <trkpt lat="59.7825635" lon="17.689467">
        <ele>61.181</ele>
        <time>2014-06-01T12:45:47Z</time>
      </trkpt>
      <trkpt lat="59.7825681" lon="17.6894394">
        <ele>60.7003</ele>
        <time>2014-06-01T12:45:48Z</time>
      </trkpt>
      <trkpt lat="59.7825777" lon="17.6894079">
        <ele>60.7003</ele>
        <time>2014-06-01T12:45:49Z</time>
      </trkpt>
      <trkpt lat="59.7825911" lon="17.6893772">
        <ele>60.2197</ele>
        <time>2014-06-01T12:45:50Z</time>
      </trkpt>
      <trkpt lat="59.7826042" lon="17.6893392">
        <ele>60.2197</ele>
        <time>2014-06-01T12:45:51Z</time>
      </trkpt>
      <trkpt lat="59.7826168" lon="17.6893024">
        <ele>60.2197</ele>
        <time>2014-06-01T12:45:52Z</time>
      </trkpt>
      <trkpt lat="59.7826279" lon="17.6892646">
        <ele>60.2197</ele>
        <time>2014-06-01T12:45:53Z</time>
      </trkpt>
      <trkpt lat="59.7826367" lon="17.689223">
        <ele>59.7391</ele>
        <time>2014-06-01T12:45:54Z</time>
      </trkpt>
      <trkpt lat="59.7826445" lon="17.6891808">
        <ele>59.7391</ele>
        <time>2014-06-01T12:45:55Z</time>
      </trkpt>
      <trkpt lat="59.7826538" lon="17.6891435">
        <ele>60.2197</ele>
        <time>2014-06-01T12:45:56Z</time>
      </trkpt>
      <trkpt lat="59.7826656" lon="17.6891095">
        <ele>60.2197</ele>
        <time>2014-06-01T12:45:57Z</time>
      </trkpt>
      <trkpt lat="59.7826787" lon="17.6890767">
        <ele>60.7003</ele>
        <time>2014-06-01T12:45:58Z</time>
      </trkpt>
      <trkpt lat="59.782689" lon="17.6890478">
        <ele>60.7003</ele>
        <time>2014-06-01T12:45:59Z</time>
      </trkpt>
      <trkpt lat="59.7826988" lon="17.6890165">
        <ele>60.2197</ele>
        <time>2014-06-01T12:46:00Z</time>
      </trkpt>
      <trkpt lat="59.7827132" lon="17.6889826">
        <ele>60.2197</ele>
        <time>2014-06-01T12:46:01Z</time>
      </trkpt>
      <trkpt lat="59.7827341" lon="17.6889429">
        <ele>60.2197</ele>
        <time>2014-06-01T12:46:02Z</time>
      </trkpt>
      <trkpt lat="59.7827541" lon="17.6889048">
        <ele>60.7003</ele>
        <time>2014-06-01T12:46:03Z</time>
      </trkpt>
      <trkpt lat="59.7827687" lon="17.6888862">
        <ele>60.7003</ele>
        <time>2014-06-01T12:46:04Z</time>
      </trkpt>
      <trkpt lat="59.7827818" lon="17.6888655">
        <ele>60.7003</ele>
        <time>2014-06-01T12:46:05Z</time>
      </trkpt>
      <trkpt lat="59.7827926" lon="17.6888364">
        <ele>60.7003</ele>
        <time>2014-06-01T12:46:06Z</time>
      </trkpt>
      <trkpt lat="59.782803" lon="17.688801">
        <ele>60.7003</ele>
        <time>2014-06-01T12:46:07Z</time>
      </trkpt>
      <trkpt lat="59.7828126" lon="17.6887629">
        <ele>60.7003</ele>
        <time>2014-06-01T12:46:08Z</time>
      </trkpt>
      <trkpt lat="59.7828259" lon="17.6887243">
        <ele>60.7003</ele>
        <time>2014-06-01T12:46:09Z</time>
      </trkpt>
      <trkpt lat="59.7828396" lon="17.688684">
        <ele>60.2197</ele>
        <time>2014-06-01T12:46:10Z</time>
      </trkpt>
      <trkpt lat="59.7828548" lon="17.6886442">
        <ele>60.2197</ele>
        <time>2014-06-01T12:46:11Z</time>
      </trkpt>
      <trkpt lat="59.7828732" lon="17.6886068">
        <ele>60.2197</ele>
        <time>2014-06-01T12:46:12Z</time>
      </trkpt>
      <trkpt lat="59.7828858" lon="17.6885653">
        <ele>60.2197</ele>
        <time>2014-06-01T12:46:13Z</time>
      </trkpt>
      <trkpt lat="59.7828942" lon="17.6885254">
        <ele>60.2197</ele>
        <time>2014-06-01T12:46:14Z</time>
      </trkpt>
      <trkpt lat="59.7829033" lon="17.6884943">
        <ele>60.2197</ele>
        <time>2014-06-01T12:46:15Z</time>
      </trkpt>
      <trkpt lat="59.7829112" lon="17.6884685">
        <ele>60.7003</ele>
        <time>2014-06-01T12:46:16Z</time>
      </trkpt>
      <trkpt lat="59.7829221" lon="17.6884475">
        <ele>60.7003</ele>
        <time>2014-06-01T12:46:17Z</time>
      </trkpt>
      <trkpt lat="59.7829351" lon="17.688424">
        <ele>61.181</ele>
        <time>2014-06-01T12:46:18Z</time>
      </trkpt>
      <trkpt lat="59.7829506" lon="17.6884004">
        <ele>61.181</ele>
        <time>2014-06-01T12:46:19Z</time>
      </trkpt>
      <trkpt lat="59.7829704" lon="17.6883784">
        <ele>61.181</ele>
        <time>2014-06-01T12:46:20Z</time>
      </trkpt>
      <trkpt lat="59.7829921" lon="17.6883463">
        <ele>61.181</ele>
        <time>2014-06-01T12:46:21Z</time>
      </trkpt>
      <trkpt lat="59.7830126" lon="17.6883117">
        <ele>61.181</ele>
        <time>2014-06-01T12:46:22Z</time>
      </trkpt>
      <trkpt lat="59.7830185" lon="17.6882832">
        <ele>61.181</ele>
        <time>2014-06-01T12:46:23Z</time>
      </trkpt>
      <trkpt lat="59.7830179" lon="17.688264">
        <ele>61.181</ele>
        <time>2014-06-01T12:46:24Z</time>
      </trkpt>
      <trkpt lat="59.7830159" lon="17.6882403">
        <ele>61.181</ele>
        <time>2014-06-01T12:46:25Z</time>
      </trkpt>
      <trkpt lat="59.7830132" lon="17.688204">
        <ele>60.7003</ele>
        <time>2014-06-01T12:46:26Z</time>
      </trkpt>
      <trkpt lat="59.7830106" lon="17.6881641">
        <ele>61.181</ele>
        <time>2014-06-01T12:46:27Z</time>
      </trkpt>
      <trkpt lat="59.7830076" lon="17.6881291">
        <ele>61.181</ele>
        <time>2014-06-01T12:46:28Z</time>
      </trkpt>
      <trkpt lat="59.7830075" lon="17.6880953">
        <ele>61.6617</ele>
        <time>2014-06-01T12:46:29Z</time>
      </trkpt>
      <trkpt lat="59.7830107" lon="17.6880579">
        <ele>62.1423</ele>
        <time>2014-06-01T12:46:30Z</time>
      </trkpt>
      <trkpt lat="59.7830169" lon="17.6880233">
        <ele>62.1423</ele>
        <time>2014-06-01T12:46:31Z</time>
      </trkpt>
      <trkpt lat="59.7830247" lon="17.6879888">
        <ele>62.1423</ele>
        <time>2014-06-01T12:46:32Z</time>
      </trkpt>
      <trkpt lat="59.78303" lon="17.6879527">
        <ele>61.6617</ele>
        <time>2014-06-01T12:46:33Z</time>
      </trkpt>
      <trkpt lat="59.783036" lon="17.6879214">
        <ele>61.6617</ele>
        <time>2014-06-01T12:46:34Z</time>
      </trkpt>
      <trkpt lat="59.7830431" lon="17.6878891">
        <ele>62.1423</ele>
        <time>2014-06-01T12:46:35Z</time>
      </trkpt>
      <trkpt lat="59.7830488" lon="17.6878522">
        <ele>62.1423</ele>
        <time>2014-06-01T12:46:36Z</time>
      </trkpt>
      <trkpt lat="59.7830602" lon="17.6878237">
        <ele>63.1036</ele>
        <time>2014-06-01T12:46:37Z</time>
      </trkpt>
      <trkpt lat="59.7830672" lon="17.6877983">
        <ele>62.6229</ele>
        <time>2014-06-01T12:46:38Z</time>
      </trkpt>
      <trkpt lat="59.7830737" lon="17.6877683">
        <ele>63.1036</ele>
        <time>2014-06-01T12:46:39Z</time>
      </trkpt>
      <trkpt lat="59.7830879" lon="17.6877393">
        <ele>63.1036</ele>
        <time>2014-06-01T12:46:40Z</time>
      </trkpt>
      <trkpt lat="59.7831014" lon="17.6876981">
        <ele>62.6229</ele>
        <time>2014-06-01T12:46:41Z</time>
      </trkpt>
      <trkpt lat="59.7831158" lon="17.6876495">
        <ele>62.1423</ele>
        <time>2014-06-01T12:46:42Z</time>
      </trkpt>
      <trkpt lat="59.7831329" lon="17.6876016">
        <ele>62.1423</ele>
        <time>2014-06-01T12:46:43Z</time>
      </trkpt>
      <trkpt lat="59.7831562" lon="17.6875537">
        <ele>61.6617</ele>
        <time>2014-06-01T12:46:44Z</time>
      </trkpt>
      <trkpt lat="59.7831842" lon="17.6874999">
        <ele>61.6617</ele>
        <time>2014-06-01T12:46:45Z</time>
      </trkpt>
      <trkpt lat="59.7832143" lon="17.6874495">
        <ele>61.181</ele>
        <time>2014-06-01T12:46:46Z</time>
      </trkpt>
      <trkpt lat="59.7832452" lon="17.6874202">
        <ele>61.181</ele>
        <time>2014-06-01T12:46:47Z</time>
      </trkpt>
      <trkpt lat="59.7832676" lon="17.6874075">
        <ele>60.7003</ele>
        <time>2014-06-01T12:46:48Z</time>
      </trkpt>
      <trkpt lat="59.7832868" lon="17.6874029">
        <ele>60.2197</ele>
        <time>2014-06-01T12:46:49Z</time>
      </trkpt>
      <trkpt lat="59.7833039" lon="17.6873932">
        <ele>60.2197</ele>
        <time>2014-06-01T12:46:50Z</time>
      </trkpt>
      <trkpt lat="59.7833132" lon="17.6873752">
        <ele>59.7391</ele>
        <time>2014-06-01T12:46:51Z</time>
      </trkpt>
      <trkpt lat="59.7833184" lon="17.6873604">
        <ele>59.7391</ele>
        <time>2014-06-01T12:46:52Z</time>
      </trkpt>
      <trkpt lat="59.7833198" lon="17.6873548">
        <ele>60.2197</ele>
        <time>2014-06-01T12:46:53Z</time>
      </trkpt>
      <trkpt lat="59.78332" lon="17.6873485">
        <ele>60.7003</ele>
        <time>2014-06-01T12:46:54Z</time>
      </trkpt>
      <trkpt lat="59.7833842" lon="17.6872782">
        <ele>62.6229</ele>
        <time>2014-06-01T12:47:01Z</time>
      </trkpt>
      <trkpt lat="59.7834012" lon="17.6872932">
        <ele>63.1036</ele>
        <time>2014-06-01T12:47:02Z</time>
      </trkpt>
      <trkpt lat="59.7834148" lon="17.6873056">
        <ele>63.5844</ele>
        <time>2014-06-01T12:47:03Z</time>
      </trkpt>
      <trkpt lat="59.7834251" lon="17.6873146">
        <ele>64.0651</ele>
        <time>2014-06-01T12:47:04Z</time>
      </trkpt>
      <trkpt lat="59.783439" lon="17.6873265">
        <ele>64.5457</ele>
        <time>2014-06-01T12:47:05Z</time>
      </trkpt>
      <trkpt lat="59.7834567" lon="17.687345">
        <ele>64.5457</ele>
        <time>2014-06-01T12:47:06Z</time>
      </trkpt>
      <trkpt lat="59.7834759" lon="17.6873637">
        <ele>64.5457</ele>
        <time>2014-06-01T12:47:07Z</time>
      </trkpt>
      <trkpt lat="59.7834945" lon="17.687377">
        <ele>64.0651</ele>
        <time>2014-06-01T12:47:08Z</time>
      </trkpt>
      <trkpt lat="59.7835158" lon="17.6873789">
        <ele>64.0651</ele>
        <time>2014-06-01T12:47:09Z</time>
      </trkpt>
      <trkpt lat="59.7835396" lon="17.6873726">
        <ele>65.0264</ele>
        <time>2014-06-01T12:47:10Z</time>
      </trkpt>
      <trkpt lat="59.7835625" lon="17.6873687">
        <ele>64.5457</ele>
        <time>2014-06-01T12:47:11Z</time>
      </trkpt>
      <trkpt lat="59.7835878" lon="17.6873615">
        <ele>65.5071</ele>
        <time>2014-06-01T12:47:12Z</time>
      </trkpt>
      <trkpt lat="59.7836152" lon="17.687343">
        <ele>66.949</ele>
        <time>2014-06-01T12:47:13Z</time>
      </trkpt>
      <trkpt lat="59.7836344" lon="17.687313">
        <ele>66.949</ele>
        <time>2014-06-01T12:47:14Z</time>
      </trkpt>
      <trkpt lat="59.7836525" lon="17.6872768">
        <ele>66.4683</ele>
        <time>2014-06-01T12:47:15Z</time>
      </trkpt>
      <trkpt lat="59.7836679" lon="17.6872509">
        <ele>66.4683</ele>
        <time>2014-06-01T12:47:16Z</time>
      </trkpt>
      <trkpt lat="59.7836773" lon="17.6872371">
        <ele>65.5071</ele>
        <time>2014-06-01T12:47:17Z</time>
      </trkpt>
      <trkpt lat="59.7836878" lon="17.6872274">
        <ele>65.5071</ele>
        <time>2014-06-01T12:47:18Z</time>
      </trkpt>
      <trkpt lat="59.7837015" lon="17.687217">
        <ele>65.5071</ele>
        <time>2014-06-01T12:47:19Z</time>
      </trkpt>
      <trkpt lat="59.7837122" lon="17.6872034">
        <ele>65.0264</ele>
        <time>2014-06-01T12:47:20Z</time>
      </trkpt>
      <trkpt lat="59.7837222" lon="17.6871796">
        <ele>65.0264</ele>
        <time>2014-06-01T12:47:21Z</time>
      </trkpt>
      <trkpt lat="59.7837337" lon="17.6871472">
        <ele>64.5457</ele>
        <time>2014-06-01T12:47:22Z</time>
      </trkpt>
      <trkpt lat="59.78375" lon="17.6871206">
        <ele>65.0264</ele>
        <time>2014-06-01T12:47:23Z</time>
      </trkpt>
      <trkpt lat="59.7837595" lon="17.6870922">
        <ele>65.0264</ele>
        <time>2014-06-01T12:47:24Z</time>
      </trkpt>
      <trkpt lat="59.7837644" lon="17.6870631">
        <ele>65.0264</ele>
        <time>2014-06-01T12:47:25Z</time>
      </trkpt>
      <trkpt lat="59.7837656" lon="17.6870339">
        <ele>65.5071</ele>
        <time>2014-06-01T12:47:26Z</time>
      </trkpt>
      <trkpt lat="59.783763" lon="17.6870067">
        <ele>65.5071</ele>
        <time>2014-06-01T12:47:27Z</time>
      </trkpt>
      <trkpt lat="59.783758" lon="17.6869809">
        <ele>65.5071</ele>
        <time>2014-06-01T12:47:28Z</time>
      </trkpt>
      <trkpt lat="59.7837545" lon="17.6869525">
        <ele>65.5071</ele>
        <time>2014-06-01T12:47:29Z</time>
      </trkpt>
      <trkpt lat="59.7837552" lon="17.6869199">
        <ele>66.4683</ele>
        <time>2014-06-01T12:47:30Z</time>
      </trkpt>
      <trkpt lat="59.7837592" lon="17.6868807">
        <ele>66.4683</ele>
        <time>2014-06-01T12:47:31Z</time>
      </trkpt>
      <trkpt lat="59.7837634" lon="17.6868465">
        <ele>66.949</ele>
        <time>2014-06-01T12:47:32Z</time>
      </trkpt>
      <trkpt lat="59.7837644" lon="17.6868203">
        <ele>66.949</ele>
        <time>2014-06-01T12:47:33Z</time>
      </trkpt>
      <trkpt lat="59.7837542" lon="17.6867911">
        <ele>67.4297</ele>
        <time>2014-06-01T12:47:34Z</time>
      </trkpt>
      <trkpt lat="59.783739" lon="17.686757">
        <ele>66.949</ele>
        <time>2014-06-01T12:47:35Z</time>
      </trkpt>
      <trkpt lat="59.7837259" lon="17.6867146">
        <ele>66.949</ele>
        <time>2014-06-01T12:47:36Z</time>
      </trkpt>
      <trkpt lat="59.7837214" lon="17.6866742">
        <ele>67.4297</ele>
        <time>2014-06-01T12:47:37Z</time>
      </trkpt>
      <trkpt lat="59.7837231" lon="17.6866399">
        <ele>67.4297</ele>
        <time>2014-06-01T12:47:38Z</time>
      </trkpt>
      <trkpt lat="59.7837362" lon="17.6866074">
        <ele>67.4297</ele>
        <time>2014-06-01T12:47:39Z</time>
      </trkpt>
      <trkpt lat="59.7837547" lon="17.6865757">
        <ele>67.4297</ele>
        <time>2014-06-01T12:47:40Z</time>
      </trkpt>
      <trkpt lat="59.7837643" lon="17.6865449">
        <ele>67.4297</ele>
        <time>2014-06-01T12:47:41Z</time>
      </trkpt>
      <trkpt lat="59.783766" lon="17.6865244">
        <ele>67.9103</ele>
        <time>2014-06-01T12:47:42Z</time>
      </trkpt>
      <trkpt lat="59.783769" lon="17.6864984">
        <ele>68.3909</ele>
        <time>2014-06-01T12:47:43Z</time>
      </trkpt>
      <trkpt lat="59.7837742" lon="17.6864655">
        <ele>68.3909</ele>
        <time>2014-06-01T12:47:44Z</time>
      </trkpt>
      <trkpt lat="59.7837766" lon="17.6864416">
        <ele>68.8716</ele>
        <time>2014-06-01T12:47:45Z</time>
      </trkpt>
      <trkpt lat="59.783773" lon="17.6864209">
        <ele>69.3523</ele>
        <time>2014-06-01T12:47:46Z</time>
      </trkpt>
      <trkpt lat="59.7837648" lon="17.6863893">
        <ele>68.8716</ele>
        <time>2014-06-01T12:47:47Z</time>
      </trkpt>
      <trkpt lat="59.783767" lon="17.6863495">
        <ele>68.8716</ele>
        <time>2014-06-01T12:47:48Z</time>
      </trkpt>
      <trkpt lat="59.7837767" lon="17.6862976">
        <ele>68.8716</ele>
        <time>2014-06-01T12:47:49Z</time>
      </trkpt>
      <trkpt lat="59.7837862" lon="17.6862293">
        <ele>68.3909</ele>
        <time>2014-06-01T12:47:50Z</time>
      </trkpt>
      <trkpt lat="59.7837946" lon="17.6861602">
        <ele>68.3909</ele>
        <time>2014-06-01T12:47:51Z</time>
      </trkpt>
      <trkpt lat="59.7837996" lon="17.6860908">
        <ele>68.3909</ele>
        <time>2014-06-01T12:47:52Z</time>
      </trkpt>
      <trkpt lat="59.7838031" lon="17.6860235">
        <ele>67.9103</ele>
        <time>2014-06-01T12:47:53Z</time>
      </trkpt>
      <trkpt lat="59.7838069" lon="17.685969">
        <ele>67.9103</ele>
        <time>2014-06-01T12:47:54Z</time>
      </trkpt>
      <trkpt lat="59.7838113" lon="17.6859299">
        <ele>67.4297</ele>
        <time>2014-06-01T12:47:55Z</time>
      </trkpt>
      <trkpt lat="59.7838186" lon="17.6858971">
        <ele>67.4297</ele>
        <time>2014-06-01T12:47:56Z</time>
      </trkpt>
      <trkpt lat="59.7838262" lon="17.685858">
        <ele>67.4297</ele>
        <time>2014-06-01T12:47:57Z</time>
      </trkpt>
      <trkpt lat="59.7838297" lon="17.6858205">
        <ele>67.4297</ele>
        <time>2014-06-01T12:47:58Z</time>
      </trkpt>
      <trkpt lat="59.7838238" lon="17.6857815">
        <ele>67.4297</ele>
        <time>2014-06-01T12:47:59Z</time>
      </trkpt>
      <trkpt lat="59.7838157" lon="17.6857315">
        <ele>67.4297</ele>
        <time>2014-06-01T12:48:00Z</time>
      </trkpt>
      <trkpt lat="59.7838095" lon="17.6856789">
        <ele>67.4297</ele>
        <time>2014-06-01T12:48:01Z</time>
      </trkpt>
      <trkpt lat="59.7838047" lon="17.6856403">
        <ele>67.9103</ele>
        <time>2014-06-01T12:48:02Z</time>
      </trkpt>
      <trkpt lat="59.7837965" lon="17.6856081">
        <ele>67.9103</ele>
        <time>2014-06-01T12:48:03Z</time>
      </trkpt>
      <trkpt lat="59.7837882" lon="17.6855699">
        <ele>68.3909</ele>
        <time>2014-06-01T12:48:04Z</time>
      </trkpt>
      <trkpt lat="59.7837858" lon="17.6855314">
        <ele>67.9103</ele>
        <time>2014-06-01T12:48:05Z</time>
      </trkpt>
      <trkpt lat="59.7837872" lon="17.685505">
        <ele>68.3909</ele>
        <time>2014-06-01T12:48:06Z</time>
      </trkpt>
      <trkpt lat="59.7837923" lon="17.6854823">
        <ele>68.8716</ele>
        <time>2014-06-01T12:48:07Z</time>
      </trkpt>
      <trkpt lat="59.7838007" lon="17.685456">
        <ele>68.8716</ele>
        <time>2014-06-01T12:48:08Z</time>
      </trkpt>
      <trkpt lat="59.7837986" lon="17.6854217">
        <ele>67.9103</ele>
        <time>2014-06-01T12:48:09Z</time>
      </trkpt>
      <trkpt lat="59.7837907" lon="17.6853912">
        <ele>67.4297</ele>
        <time>2014-06-01T12:48:10Z</time>
      </trkpt>
      <trkpt lat="59.783793" lon="17.6853715">
        <ele>67.4297</ele>
        <time>2014-06-01T12:48:11Z</time>
      </trkpt>
      <trkpt lat="59.7838015" lon="17.6853521">
        <ele>66.949</ele>
        <time>2014-06-01T12:48:12Z</time>
      </trkpt>
      <trkpt lat="59.7838101" lon="17.685333">
        <ele>65.9877</ele>
        <time>2014-06-01T12:48:13Z</time>
      </trkpt>
      <trkpt lat="59.7838163" lon="17.6853228">
        <ele>65.0264</ele>
        <time>2014-06-01T12:48:14Z</time>
      </trkpt>
      <trkpt lat="59.7838162" lon="17.6853165">
        <ele>64.5457</ele>
        <time>2014-06-01T12:48:15Z</time>
      </trkpt>
      <trkpt lat="59.783817" lon="17.6853041">
        <ele>64.0651</ele>
        <time>2014-06-01T12:48:16Z</time>
      </trkpt>
      <trkpt lat="59.7838193" lon="17.6852892">
        <ele>63.5844</ele>
        <time>2014-06-01T12:48:17Z</time>
      </trkpt>
      <trkpt lat="59.7838196" lon="17.685273">
        <ele>63.5844</ele>
        <time>2014-06-01T12:48:18Z</time>
      </trkpt>
      <trkpt lat="59.7838188" lon="17.6852559">
        <ele>63.5844</ele>
        <time>2014-06-01T12:48:19Z</time>
      </trkpt>
      <trkpt lat="59.7838228" lon="17.6852412">
        <ele>64.0651</ele>
        <time>2014-06-01T12:48:20Z</time>
      </trkpt>
      <trkpt lat="59.78383" lon="17.6852222">
        <ele>64.5457</ele>
        <time>2014-06-01T12:48:21Z</time>
      </trkpt>
      <trkpt lat="59.7838394" lon="17.6851996">
        <ele>65.0264</ele>
        <time>2014-06-01T12:48:22Z</time>
      </trkpt>
      <trkpt lat="59.7838512" lon="17.6851741">
        <ele>65.0264</ele>
        <time>2014-06-01T12:48:23Z</time>
      </trkpt>
      <trkpt lat="59.7838638" lon="17.68516">
        <ele>65.0264</ele>
        <time>2014-06-01T12:48:24Z</time>
      </trkpt>
      <trkpt lat="59.7838773" lon="17.6851539">
        <ele>64.5457</ele>
        <time>2014-06-01T12:48:25Z</time>
      </trkpt>
      <trkpt lat="59.7838893" lon="17.6851358">
        <ele>64.0651</ele>
        <time>2014-06-01T12:48:26Z</time>
      </trkpt>
      <trkpt lat="59.7839046" lon="17.6851123">
        <ele>63.5844</ele>
        <time>2014-06-01T12:48:27Z</time>
      </trkpt>
      <trkpt lat="59.7839213" lon="17.6850859">
        <ele>63.1036</ele>
        <time>2014-06-01T12:48:28Z</time>
      </trkpt>
      <trkpt lat="59.7839393" lon="17.68506">
        <ele>63.5844</ele>
        <time>2014-06-01T12:48:29Z</time>
      </trkpt>
      <trkpt lat="59.7839509" lon="17.685034">
        <ele>63.1036</ele>
        <time>2014-06-01T12:48:30Z</time>
      </trkpt>
      <trkpt lat="59.7839606" lon="17.6850017">
        <ele>63.5844</ele>
        <time>2014-06-01T12:48:31Z</time>
      </trkpt>
      <trkpt lat="59.783964" lon="17.68497">
        <ele>64.0651</ele>
        <time>2014-06-01T12:48:32Z</time>
      </trkpt>
      <trkpt lat="59.7839549" lon="17.684941">
        <ele>64.0651</ele>
        <time>2014-06-01T12:48:33Z</time>
      </trkpt>
      <trkpt lat="59.7839426" lon="17.6849068">
        <ele>63.5844</ele>
        <time>2014-06-01T12:48:34Z</time>
      </trkpt>
      <trkpt lat="59.7839378" lon="17.6848778">
        <ele>63.1036</ele>
        <time>2014-06-01T12:48:35Z</time>
      </trkpt>
      <trkpt lat="59.7839374" lon="17.684853">
        <ele>63.1036</ele>
        <time>2014-06-01T12:48:36Z</time>
      </trkpt>
      <trkpt lat="59.7839369" lon="17.684822">
        <ele>62.6229</ele>
        <time>2014-06-01T12:48:37Z</time>
      </trkpt>
      <trkpt lat="59.7839389" lon="17.6847875">
        <ele>62.6229</ele>
        <time>2014-06-01T12:48:38Z</time>
      </trkpt>
      <trkpt lat="59.783939" lon="17.6847494">
        <ele>62.6229</ele>
        <time>2014-06-01T12:48:39Z</time>
      </trkpt>
      <trkpt lat="59.7839349" lon="17.6847111">
        <ele>62.6229</ele>
        <time>2014-06-01T12:48:40Z</time>
      </trkpt>
      <trkpt lat="59.7839251" lon="17.6846741">
        <ele>62.6229</ele>
        <time>2014-06-01T12:48:41Z</time>
      </trkpt>
      <trkpt lat="59.7839167" lon="17.6846437">
        <ele>62.6229</ele>
        <time>2014-06-01T12:48:42Z</time>
      </trkpt>
      <trkpt lat="59.7839108" lon="17.6846209">
        <ele>62.6229</ele>
        <time>2014-06-01T12:48:43Z</time>
      </trkpt>
      <trkpt lat="59.7839073" lon="17.6845958">
        <ele>62.6229</ele>
        <time>2014-06-01T12:48:44Z</time>
      </trkpt>
      <trkpt lat="59.7839114" lon="17.6845692">
        <ele>63.1036</ele>
        <time>2014-06-01T12:48:45Z</time>
      </trkpt>
      <trkpt lat="59.7839196" lon="17.6845436">
        <ele>62.6229</ele>
        <time>2014-06-01T12:48:46Z</time>
      </trkpt>
      <trkpt lat="59.78393" lon="17.6845156">
        <ele>62.6229</ele>
        <time>2014-06-01T12:48:47Z</time>
      </trkpt>
      <trkpt lat="59.7839441" lon="17.6844982">
        <ele>63.1036</ele>
        <time>2014-06-01T12:48:48Z</time>
      </trkpt>
      <trkpt lat="59.7839509" lon="17.6844919">
        <ele>63.5844</ele>
        <time>2014-06-01T12:48:49Z</time>
      </trkpt>
      <trkpt lat="59.7839556" lon="17.6844902">
        <ele>64.0651</ele>
        <time>2014-06-01T12:48:50Z</time>
      </trkpt>
      <trkpt lat="59.7839572" lon="17.6844913">
        <ele>64.5457</ele>
        <time>2014-06-01T12:48:51Z</time>
      </trkpt>
      <trkpt lat="59.7839618" lon="17.6844956">
        <ele>64.5457</ele>
        <time>2014-06-01T12:48:52Z</time>
      </trkpt>
      <trkpt lat="59.7839667" lon="17.6844991">
        <ele>64.5457</ele>
        <time>2014-06-01T12:48:53Z</time>
      </trkpt>
      <trkpt lat="59.7839725" lon="17.6845002">
        <ele>64.5457</ele>
        <time>2014-06-01T12:48:54Z</time>
      </trkpt>
      <trkpt lat="59.7839779" lon="17.6845017">
        <ele>65.0264</ele>
        <time>2014-06-01T12:48:55Z</time>
      </trkpt>
      <trkpt lat="59.7839794" lon="17.6844995">
        <ele>65.0264</ele>
        <time>2014-06-01T12:48:56Z</time>
      </trkpt>
      <trkpt lat="59.7839819" lon="17.6844951">
        <ele>64.5457</ele>
        <time>2014-06-01T12:48:57Z</time>
      </trkpt>
      <trkpt lat="59.7840004" lon="17.6844557">
        <ele>64.0651</ele>
        <time>2014-06-01T12:49:00Z</time>
      </trkpt>
      <trkpt lat="59.784016" lon="17.6844173">
        <ele>64.0651</ele>
        <time>2014-06-01T12:49:01Z</time>
      </trkpt>
      <trkpt lat="59.7840301" lon="17.6843782">
        <ele>63.5844</ele>
        <time>2014-06-01T12:49:02Z</time>
      </trkpt>
      <trkpt lat="59.7840386" lon="17.6843385">
        <ele>64.0651</ele>
        <time>2014-06-01T12:49:03Z</time>
      </trkpt>
      <trkpt lat="59.7840478" lon="17.6843065">
        <ele>64.0651</ele>
        <time>2014-06-01T12:49:04Z</time>
      </trkpt>
      <trkpt lat="59.784055" lon="17.6842873">
        <ele>64.0651</ele>
        <time>2014-06-01T12:49:05Z</time>
      </trkpt>
      <trkpt lat="59.7840576" lon="17.684266">
        <ele>64.0651</ele>
        <time>2014-06-01T12:49:06Z</time>
      </trkpt>
      <trkpt lat="59.7840603" lon="17.6842479">
        <ele>64.0651</ele>
        <time>2014-06-01T12:49:07Z</time>
      </trkpt>
      <trkpt lat="59.7840616" lon="17.6842375">
        <ele>64.0651</ele>
        <time>2014-06-01T12:49:08Z</time>
      </trkpt>
      <trkpt lat="59.7840607" lon="17.6842307">
        <ele>64.0651</ele>
        <time>2014-06-01T12:49:09Z</time>
      </trkpt>
      <trkpt lat="59.7840598" lon="17.6842244">
        <ele>64.0651</ele>
        <time>2014-06-01T12:49:10Z</time>
      </trkpt>
      <trkpt lat="59.7840634" lon="17.6841013">
        <ele>66.4683</ele>
        <time>2014-06-01T12:49:14Z</time>
      </trkpt>
      <trkpt lat="59.7840624" lon="17.6840648">
        <ele>66.949</ele>
        <time>2014-06-01T12:49:15Z</time>
      </trkpt>
      <trkpt lat="59.7840637" lon="17.6840229">
        <ele>67.4297</ele>
        <time>2014-06-01T12:49:16Z</time>
      </trkpt>
      <trkpt lat="59.7840574" lon="17.683964">
        <ele>67.9103</ele>
        <time>2014-06-01T12:49:17Z</time>
      </trkpt>
      <trkpt lat="59.7840503" lon="17.683902">
        <ele>68.3909</ele>
        <time>2014-06-01T12:49:18Z</time>
      </trkpt>
      <trkpt lat="59.7840452" lon="17.6838454">
        <ele>67.9103</ele>
        <time>2014-06-01T12:49:19Z</time>
      </trkpt>
      <trkpt lat="59.7840432" lon="17.6838053">
        <ele>67.9103</ele>
        <time>2014-06-01T12:49:20Z</time>
      </trkpt>
      <trkpt lat="59.7840487" lon="17.6837751">
        <ele>68.3909</ele>
        <time>2014-06-01T12:49:21Z</time>
      </trkpt>
      <trkpt lat="59.7840527" lon="17.6837378">
        <ele>68.3909</ele>
        <time>2014-06-01T12:49:22Z</time>
      </trkpt>
      <trkpt lat="59.7840555" lon="17.6837081">
        <ele>68.8716</ele>
        <time>2014-06-01T12:49:23Z</time>
      </trkpt>
      <trkpt lat="59.7840562" lon="17.6836846">
        <ele>69.3523</ele>
        <time>2014-06-01T12:49:24Z</time>
      </trkpt>
      <trkpt lat="59.7840478" lon="17.6836605">
        <ele>69.3523</ele>
        <time>2014-06-01T12:49:25Z</time>
      </trkpt>
      <trkpt lat="59.7840421" lon="17.6836329">
        <ele>70.3135</ele>
        <time>2014-06-01T12:49:26Z</time>
      </trkpt>
      <trkpt lat="59.7840382" lon="17.6835967">
        <ele>69.8329</ele>
        <time>2014-06-01T12:49:27Z</time>
      </trkpt>
      <trkpt lat="59.784043" lon="17.683561">
        <ele>69.3523</ele>
        <time>2014-06-01T12:49:28Z</time>
      </trkpt>
      <trkpt lat="59.7840519" lon="17.6835228">
        <ele>69.3523</ele>
        <time>2014-06-01T12:49:29Z</time>
      </trkpt>
      <trkpt lat="59.7840581" lon="17.6834906">
        <ele>69.3523</ele>
        <time>2014-06-01T12:49:30Z</time>
      </trkpt>
      <trkpt lat="59.784058" lon="17.683459">
        <ele>69.8329</ele>
        <time>2014-06-01T12:49:31Z</time>
      </trkpt>
      <trkpt lat="59.7840574" lon="17.6834223">
        <ele>69.3523</ele>
        <time>2014-06-01T12:49:32Z</time>
      </trkpt>
      <trkpt lat="59.7840523" lon="17.6833705">
        <ele>68.3909</ele>
        <time>2014-06-01T12:49:33Z</time>
      </trkpt>
      <trkpt lat="59.7840555" lon="17.68333">
        <ele>67.9103</ele>
        <time>2014-06-01T12:49:34Z</time>
      </trkpt>
      <trkpt lat="59.7840607" lon="17.6832895">
        <ele>67.9103</ele>
        <time>2014-06-01T12:49:35Z</time>
      </trkpt>
      <trkpt lat="59.7840676" lon="17.6832455">
        <ele>67.9103</ele>
        <time>2014-06-01T12:49:36Z</time>
      </trkpt>
      <trkpt lat="59.7840788" lon="17.6832009">
        <ele>67.4297</ele>
        <time>2014-06-01T12:49:37Z</time>
      </trkpt>
      <trkpt lat="59.7840935" lon="17.6831545">
        <ele>66.949</ele>
        <time>2014-06-01T12:49:38Z</time>
      </trkpt>
      <trkpt lat="59.7841079" lon="17.6831141">
        <ele>66.4683</ele>
        <time>2014-06-01T12:49:39Z</time>
      </trkpt>
      <trkpt lat="59.7841244" lon="17.6830699">
        <ele>66.4683</ele>
        <time>2014-06-01T12:49:40Z</time>
      </trkpt>
      <trkpt lat="59.7841446" lon="17.6830188">
        <ele>66.949</ele>
        <time>2014-06-01T12:49:41Z</time>
      </trkpt>
      <trkpt lat="59.7841617" lon="17.6829637">
        <ele>66.4683</ele>
        <time>2014-06-01T12:49:42Z</time>
      </trkpt>
      <trkpt lat="59.7841807" lon="17.6829117">
        <ele>65.9877</ele>
        <time>2014-06-01T12:49:43Z</time>
      </trkpt>
      <trkpt lat="59.7841964" lon="17.6828618">
        <ele>65.9877</ele>
        <time>2014-06-01T12:49:44Z</time>
      </trkpt>
      <trkpt lat="59.7842105" lon="17.682809">
        <ele>65.5071</ele>
        <time>2014-06-01T12:49:45Z</time>
      </trkpt>
      <trkpt lat="59.7842265" lon="17.6827622">
        <ele>65.0264</ele>
        <time>2014-06-01T12:49:46Z</time>
      </trkpt>
      <trkpt lat="59.7842436" lon="17.6827135">
        <ele>65.0264</ele>
        <time>2014-06-01T12:49:47Z</time>
      </trkpt>
      <trkpt lat="59.7842621" lon="17.6826623">
        <ele>65.0264</ele>
        <time>2014-06-01T12:49:48Z</time>
      </trkpt>
      <trkpt lat="59.7842767" lon="17.6826087">
        <ele>64.5457</ele>
        <time>2014-06-01T12:49:49Z</time>
      </trkpt>
      <trkpt lat="59.7842874" lon="17.6825518">
        <ele>64.5457</ele>
        <time>2014-06-01T12:49:50Z</time>
      </trkpt>
      <trkpt lat="59.7842991" lon="17.6824989">
        <ele>64.5457</ele>
        <time>2014-06-01T12:49:51Z</time>
      </trkpt>
      <trkpt lat="59.7843114" lon="17.682454">
        <ele>64.5457</ele>
        <time>2014-06-01T12:49:52Z</time>
      </trkpt>
      <trkpt lat="59.784324" lon="17.6824207">
        <ele>65.0264</ele>
        <time>2014-06-01T12:49:53Z</time>
      </trkpt>
      <trkpt lat="59.7843373" lon="17.6823919">
        <ele>65.0264</ele>
        <time>2014-06-01T12:49:54Z</time>
      </trkpt>
      <trkpt lat="59.7843558" lon="17.6823675">
        <ele>65.5071</ele>
        <time>2014-06-01T12:49:55Z</time>
      </trkpt>
      <trkpt lat="59.7843556" lon="17.6823176">
        <ele>65.5071</ele>
        <time>2014-06-01T12:49:56Z</time>
      </trkpt>
      <trkpt lat="59.7843596" lon="17.68228">
        <ele>65.9877</ele>
        <time>2014-06-01T12:49:57Z</time>
      </trkpt>
      <trkpt lat="59.7843653" lon="17.6822515">
        <ele>65.9877</ele>
        <time>2014-06-01T12:49:58Z</time>
      </trkpt>
      <trkpt lat="59.7843734" lon="17.6822225">
        <ele>65.9877</ele>
        <time>2014-06-01T12:49:59Z</time>
      </trkpt>
      <trkpt lat="59.7843804" lon="17.6821888">
        <ele>66.4683</ele>
        <time>2014-06-01T12:50:00Z</time>
      </trkpt>
      <trkpt lat="59.7843856" lon="17.6821406">
        <ele>65.9877</ele>
        <time>2014-06-01T12:50:01Z</time>
      </trkpt>
      <trkpt lat="59.7843952" lon="17.6820913">
        <ele>66.949</ele>
        <time>2014-06-01T12:50:02Z</time>
      </trkpt>
      <trkpt lat="59.7844042" lon="17.6820257">
        <ele>66.949</ele>
        <time>2014-06-01T12:50:03Z</time>
      </trkpt>
      <trkpt lat="59.7844167" lon="17.6819636">
        <ele>66.949</ele>
        <time>2014-06-01T12:50:04Z</time>
      </trkpt>
      <trkpt lat="59.7844337" lon="17.6819123">
        <ele>67.4297</ele>
        <time>2014-06-01T12:50:05Z</time>
      </trkpt>
      <trkpt lat="59.7844512" lon="17.6818556">
        <ele>66.949</ele>
        <time>2014-06-01T12:50:06Z</time>
      </trkpt>
      <trkpt lat="59.7844544" lon="17.6817726">
        <ele>66.4683</ele>
        <time>2014-06-01T12:50:07Z</time>
      </trkpt>
      <trkpt lat="59.7844626" lon="17.6816947">
        <ele>65.5071</ele>
        <time>2014-06-01T12:50:08Z</time>
      </trkpt>
      <trkpt lat="59.7844695" lon="17.6816214">
        <ele>65.0264</ele>
        <time>2014-06-01T12:50:09Z</time>
      </trkpt>
      <trkpt lat="59.7844834" lon="17.6815624">
        <ele>65.0264</ele>
        <time>2014-06-01T12:50:10Z</time>
      </trkpt>
      <trkpt lat="59.7844923" lon="17.6815095">
        <ele>64.5457</ele>
        <time>2014-06-01T12:50:11Z</time>
      </trkpt>
      <trkpt lat="59.7844985" lon="17.6814667">
        <ele>64.5457</ele>
        <time>2014-06-01T12:50:12Z</time>
      </trkpt>
      <trkpt lat="59.7845031" lon="17.6814173">
        <ele>64.5457</ele>
        <time>2014-06-01T12:50:13Z</time>
      </trkpt>
      <trkpt lat="59.7845129" lon="17.681358">
        <ele>63.5844</ele>
        <time>2014-06-01T12:50:14Z</time>
      </trkpt>
      <trkpt lat="59.7845217" lon="17.681301">
        <ele>63.5844</ele>
        <time>2014-06-01T12:50:15Z</time>
      </trkpt>
      <trkpt lat="59.7845237" lon="17.6812548">
        <ele>63.5844</ele>
        <time>2014-06-01T12:50:16Z</time>
      </trkpt>
      <trkpt lat="59.7845228" lon="17.6812161">
        <ele>64.0651</ele>
        <time>2014-06-01T12:50:17Z</time>
      </trkpt>
      <trkpt lat="59.7845278" lon="17.6811783">
        <ele>63.5844</ele>
        <time>2014-06-01T12:50:18Z</time>
      </trkpt>
      <trkpt lat="59.7845355" lon="17.6811238">
        <ele>62.1423</ele>
        <time>2014-06-01T12:50:19Z</time>
      </trkpt>
      <trkpt lat="59.7845462" lon="17.6810652">
        <ele>61.6617</ele>
        <time>2014-06-01T12:50:20Z</time>
      </trkpt>
      <trkpt lat="59.7845568" lon="17.6810027">
        <ele>61.6617</ele>
        <time>2014-06-01T12:50:21Z</time>
      </trkpt>
      <trkpt lat="59.784572" lon="17.6809455">
        <ele>61.6617</ele>
        <time>2014-06-01T12:50:22Z</time>
      </trkpt>
      <trkpt lat="59.7845873" lon="17.6809011">
        <ele>61.6617</ele>
        <time>2014-06-01T12:50:23Z</time>
      </trkpt>
      <trkpt lat="59.7846018" lon="17.680871">
        <ele>61.181</ele>
        <time>2014-06-01T12:50:24Z</time>
      </trkpt>
      <trkpt lat="59.7846129" lon="17.6808394">
        <ele>61.6617</ele>
        <time>2014-06-01T12:50:25Z</time>
      </trkpt>
      <trkpt lat="59.7846174" lon="17.6808015">
        <ele>61.6617</ele>
        <time>2014-06-01T12:50:26Z</time>
      </trkpt>
      <trkpt lat="59.7846242" lon="17.6807612">
        <ele>61.6617</ele>
        <time>2014-06-01T12:50:27Z</time>
      </trkpt>
      <trkpt lat="59.784634" lon="17.6807187">
        <ele>61.6617</ele>
        <time>2014-06-01T12:50:28Z</time>
      </trkpt>
      <trkpt lat="59.7846502" lon="17.6806756">
        <ele>62.1423</ele>
        <time>2014-06-01T12:50:29Z</time>
      </trkpt>
      <trkpt lat="59.7846689" lon="17.680629">
        <ele>62.1423</ele>
        <time>2014-06-01T12:50:30Z</time>
      </trkpt>
      <trkpt lat="59.7846816" lon="17.6805823">
        <ele>62.1423</ele>
        <time>2014-06-01T12:50:31Z</time>
      </trkpt>
      <trkpt lat="59.7846933" lon="17.680547">
        <ele>62.1423</ele>
        <time>2014-06-01T12:50:32Z</time>
      </trkpt>
      <trkpt lat="59.7847041" lon="17.68051">
        <ele>61.181</ele>
        <time>2014-06-01T12:50:33Z</time>
      </trkpt>
      <trkpt lat="59.78472" lon="17.6804639">
        <ele>60.7003</ele>
        <time>2014-06-01T12:50:34Z</time>
      </trkpt>
      <trkpt lat="59.784736" lon="17.6804232">
        <ele>59.2584</ele>
        <time>2014-06-01T12:50:35Z</time>
      </trkpt>
      <trkpt lat="59.7847543" lon="17.6803938">
        <ele>58.7777</ele>
        <time>2014-06-01T12:50:36Z</time>
      </trkpt>
      <trkpt lat="59.7847735" lon="17.6803809">
        <ele>58.7777</ele>
        <time>2014-06-01T12:50:37Z</time>
      </trkpt>
      <trkpt lat="59.784792" lon="17.6803643">
        <ele>58.7777</ele>
        <time>2014-06-01T12:50:38Z</time>
      </trkpt>
      <trkpt lat="59.7848108" lon="17.6803333">
        <ele>58.7777</ele>
        <time>2014-06-01T12:50:39Z</time>
      </trkpt>
      <trkpt lat="59.7848279" lon="17.6802979">
        <ele>59.2584</ele>
        <time>2014-06-01T12:50:40Z</time>
      </trkpt>
      <trkpt lat="59.7848432" lon="17.6802644">
        <ele>59.7391</ele>
        <time>2014-06-01T12:50:41Z</time>
      </trkpt>
      <trkpt lat="59.7848474" lon="17.6802301">
        <ele>60.7003</ele>
        <time>2014-06-01T12:50:42Z</time>
      </trkpt>
      <trkpt lat="59.784843" lon="17.6801898">
        <ele>61.181</ele>
        <time>2014-06-01T12:50:43Z</time>
      </trkpt>
      <trkpt lat="59.7848422" lon="17.6801447">
        <ele>62.1423</ele>
        <time>2014-06-01T12:50:44Z</time>
      </trkpt>
      <trkpt lat="59.7848465" lon="17.680099">
        <ele>62.6229</ele>
        <time>2014-06-01T12:50:45Z</time>
      </trkpt>
      <trkpt lat="59.7848538" lon="17.6800587">
        <ele>62.6229</ele>
        <time>2014-06-01T12:50:46Z</time>
      </trkpt>
      <trkpt lat="59.7848657" lon="17.6800249">
        <ele>62.6229</ele>
        <time>2014-06-01T12:50:47Z</time>
      </trkpt>
      <trkpt lat="59.7848766" lon="17.6799946">
        <ele>63.1036</ele>
        <time>2014-06-01T12:50:48Z</time>
      </trkpt>
      <trkpt lat="59.7848831" lon="17.6799635">
        <ele>63.1036</ele>
        <time>2014-06-01T12:50:49Z</time>
      </trkpt>
      <trkpt lat="59.7848834" lon="17.6799304">
        <ele>63.1036</ele>
        <time>2014-06-01T12:50:50Z</time>
      </trkpt>
      <trkpt lat="59.7848807" lon="17.6798957">
        <ele>62.6229</ele>
        <time>2014-06-01T12:50:51Z</time>
      </trkpt>
      <trkpt lat="59.7848762" lon="17.6798671">
        <ele>62.6229</ele>
        <time>2014-06-01T12:50:52Z</time>
      </trkpt>
      <trkpt lat="59.7848735" lon="17.6798417">
        <ele>63.1036</ele>
        <time>2014-06-01T12:50:53Z</time>
      </trkpt>
      <trkpt lat="59.7848771" lon="17.6798115">
        <ele>63.1036</ele>
        <time>2014-06-01T12:50:54Z</time>
      </trkpt>
      <trkpt lat="59.784875" lon="17.6797692">
        <ele>62.6229</ele>
        <time>2014-06-01T12:50:55Z</time>
      </trkpt>
      <trkpt lat="59.7848779" lon="17.6797303">
        <ele>63.1036</ele>
        <time>2014-06-01T12:50:56Z</time>
      </trkpt>
      <trkpt lat="59.7848858" lon="17.679691">
        <ele>63.1036</ele>
        <time>2014-06-01T12:50:57Z</time>
      </trkpt>
      <trkpt lat="59.7848931" lon="17.6796588">
        <ele>62.6229</ele>
        <time>2014-06-01T12:50:58Z</time>
      </trkpt>
      <trkpt lat="59.784904" lon="17.6796222">
        <ele>62.1423</ele>
        <time>2014-06-01T12:50:59Z</time>
      </trkpt>
      <trkpt lat="59.7849222" lon="17.6795952">
        <ele>61.6617</ele>
        <time>2014-06-01T12:51:00Z</time>
      </trkpt>
      <trkpt lat="59.78493" lon="17.6795647">
        <ele>61.6617</ele>
        <time>2014-06-01T12:51:01Z</time>
      </trkpt>
      <trkpt lat="59.7849269" lon="17.6795294">
        <ele>61.6617</ele>
        <time>2014-06-01T12:51:02Z</time>
      </trkpt>
      <trkpt lat="59.7849201" lon="17.6794916">
        <ele>61.181</ele>
        <time>2014-06-01T12:51:03Z</time>
      </trkpt>
      <trkpt lat="59.7849152" lon="17.6794585">
        <ele>62.1423</ele>
        <time>2014-06-01T12:51:04Z</time>
      </trkpt>
      <trkpt lat="59.7849121" lon="17.6794195">
        <ele>61.6617</ele>
        <time>2014-06-01T12:51:05Z</time>
      </trkpt>
      <trkpt lat="59.7849163" lon="17.6793786">
        <ele>61.181</ele>
        <time>2014-06-01T12:51:06Z</time>
      </trkpt>
      <trkpt lat="59.7849258" lon="17.6793271">
        <ele>61.6617</ele>
        <time>2014-06-01T12:51:07Z</time>
      </trkpt>
      <trkpt lat="59.7849365" lon="17.679278">
        <ele>61.6617</ele>
        <time>2014-06-01T12:51:08Z</time>
      </trkpt>
      <trkpt lat="59.7849437" lon="17.6792357">
        <ele>61.6617</ele>
        <time>2014-06-01T12:51:09Z</time>
      </trkpt>
      <trkpt lat="59.7849469" lon="17.6791937">
        <ele>62.1423</ele>
        <time>2014-06-01T12:51:10Z</time>
      </trkpt>
      <trkpt lat="59.7849527" lon="17.6791595">
        <ele>62.6229</ele>
        <time>2014-06-01T12:51:11Z</time>
      </trkpt>
      <trkpt lat="59.7849584" lon="17.6791408">
        <ele>62.6229</ele>
        <time>2014-06-01T12:51:12Z</time>
      </trkpt>
      <trkpt lat="59.7849629" lon="17.6791243">
        <ele>63.5844</ele>
        <time>2014-06-01T12:51:13Z</time>
      </trkpt>
      <trkpt lat="59.7849678" lon="17.6791016">
        <ele>64.0651</ele>
        <time>2014-06-01T12:51:14Z</time>
      </trkpt>
      <trkpt lat="59.7849766" lon="17.6790829">
        <ele>64.0651</ele>
        <time>2014-06-01T12:51:15Z</time>
      </trkpt>
      <trkpt lat="59.7849911" lon="17.6790704">
        <ele>64.5457</ele>
        <time>2014-06-01T12:51:16Z</time>
      </trkpt>
      <trkpt lat="59.785004" lon="17.6790583">
        <ele>64.5457</ele>
        <time>2014-06-01T12:51:17Z</time>
      </trkpt>
      <trkpt lat="59.7850076" lon="17.6790409">
        <ele>64.0651</ele>
        <time>2014-06-01T12:51:18Z</time>
      </trkpt>
      <trkpt lat="59.7850046" lon="17.6790282">
        <ele>63.5844</ele>
        <time>2014-06-01T12:51:19Z</time>
      </trkpt>
      <trkpt lat="59.7850033" lon="17.679016">
        <ele>63.5844</ele>
        <time>2014-06-01T12:51:20Z</time>
      </trkpt>
      <trkpt lat="59.785005" lon="17.6790071">
        <ele>63.5844</ele>
        <time>2014-06-01T12:51:21Z</time>
      </trkpt>
      <trkpt lat="59.7850038" lon="17.678994">
        <ele>63.1036</ele>
        <time>2014-06-01T12:51:22Z</time>
      </trkpt>
      <trkpt lat="59.7850061" lon="17.6789796">
        <ele>62.6229</ele>
        <time>2014-06-01T12:51:23Z</time>
      </trkpt>
      <trkpt lat="59.7850065" lon="17.6789664">
        <ele>62.1423</ele>
        <time>2014-06-01T12:51:24Z</time>
      </trkpt>
      <trkpt lat="59.7850075" lon="17.6789599">
        <ele>61.6617</ele>
        <time>2014-06-01T12:51:25Z</time>
      </trkpt>
      <trkpt lat="59.7850102" lon="17.6789515">
        <ele>61.6617</ele>
        <time>2014-06-01T12:51:26Z</time>
      </trkpt>
      <trkpt lat="59.7850166" lon="17.6789429">
        <ele>61.6617</ele>
        <time>2014-06-01T12:51:27Z</time>
      </trkpt>
      <trkpt lat="59.7850242" lon="17.67893">
        <ele>61.181</ele>
        <time>2014-06-01T12:51:28Z</time>
      </trkpt>
      <trkpt lat="59.7850279" lon="17.6789113">
        <ele>61.181</ele>
        <time>2014-06-01T12:51:29Z</time>
      </trkpt>
      <trkpt lat="59.7850297" lon="17.6788926">
        <ele>60.7003</ele>
        <time>2014-06-01T12:51:30Z</time>
      </trkpt>
      <trkpt lat="59.7850432" lon="17.6788728">
        <ele>62.1423</ele>
        <time>2014-06-01T12:51:31Z</time>
      </trkpt>
      <trkpt lat="59.7850512" lon="17.6788575">
        <ele>63.1036</ele>
        <time>2014-06-01T12:51:32Z</time>
      </trkpt>
      <trkpt lat="59.7850558" lon="17.6788456">
        <ele>63.5844</ele>
        <time>2014-06-01T12:51:33Z</time>
      </trkpt>
      <trkpt lat="59.7850585" lon="17.6788321">
        <ele>64.0651</ele>
        <time>2014-06-01T12:51:34Z</time>
      </trkpt>
      <trkpt lat="59.7850593" lon="17.6788195">
        <ele>64.5457</ele>
        <time>2014-06-01T12:51:35Z</time>
      </trkpt>
      <trkpt lat="59.7850611" lon="17.6788129">
        <ele>65.0264</ele>
        <time>2014-06-01T12:51:36Z</time>
      </trkpt>
      <trkpt lat="59.7850642" lon="17.6788004">
        <ele>65.5071</ele>
        <time>2014-06-01T12:51:37Z</time>
      </trkpt>
      <trkpt lat="59.7850693" lon="17.6787767">
        <ele>65.0264</ele>
        <time>2014-06-01T12:51:38Z</time>
      </trkpt>
      <trkpt lat="59.7850764" lon="17.6787523">
        <ele>65.0264</ele>
        <time>2014-06-01T12:51:39Z</time>
      </trkpt>
      <trkpt lat="59.7850896" lon="17.6787248">
        <ele>65.5071</ele>
        <time>2014-06-01T12:51:40Z</time>
      </trkpt>
      <trkpt lat="59.7851055" lon="17.6787074">
        <ele>65.5071</ele>
        <time>2014-06-01T12:51:41Z</time>
      </trkpt>
      <trkpt lat="59.7851237" lon="17.6787067">
        <ele>65.5071</ele>
        <time>2014-06-01T12:51:42Z</time>
      </trkpt>
      <trkpt lat="59.7851404" lon="17.6787086">
        <ele>65.0264</ele>
        <time>2014-06-01T12:51:43Z</time>
      </trkpt>
      <trkpt lat="59.7851556" lon="17.6786994">
        <ele>65.0264</ele>
        <time>2014-06-01T12:51:44Z</time>
      </trkpt>
      <trkpt lat="59.7851667" lon="17.6786782">
        <ele>64.5457</ele>
        <time>2014-06-01T12:51:45Z</time>
      </trkpt>
      <trkpt lat="59.785175" lon="17.6786461">
        <ele>64.5457</ele>
        <time>2014-06-01T12:51:46Z</time>
      </trkpt>
      <trkpt lat="59.785183" lon="17.6786074">
        <ele>65.0264</ele>
        <time>2014-06-01T12:51:47Z</time>
      </trkpt>
      <trkpt lat="59.785193" lon="17.6785643">
        <ele>65.5071</ele>
        <time>2014-06-01T12:51:48Z</time>
      </trkpt>
      <trkpt lat="59.7851998" lon="17.6785235">
        <ele>65.9877</ele>
        <time>2014-06-01T12:51:49Z</time>
      </trkpt>
      <trkpt lat="59.7852046" lon="17.67849">
        <ele>66.4683</ele>
        <time>2014-06-01T12:51:50Z</time>
      </trkpt>
      <trkpt lat="59.7852106" lon="17.6784514">
        <ele>66.949</ele>
        <time>2014-06-01T12:51:51Z</time>
      </trkpt>
      <trkpt lat="59.7852243" lon="17.6784084">
        <ele>66.949</ele>
        <time>2014-06-01T12:51:52Z</time>
      </trkpt>
      <trkpt lat="59.7852369" lon="17.6783741">
        <ele>67.4297</ele>
        <time>2014-06-01T12:51:53Z</time>
      </trkpt>
      <trkpt lat="59.7852408" lon="17.6783467">
        <ele>67.9103</ele>
        <time>2014-06-01T12:51:54Z</time>
      </trkpt>
      <trkpt lat="59.7852377" lon="17.6783144">
        <ele>67.9103</ele>
        <time>2014-06-01T12:51:55Z</time>
      </trkpt>
      <trkpt lat="59.7852226" lon="17.6782705">
        <ele>67.9103</ele>
        <time>2014-06-01T12:51:56Z</time>
      </trkpt>
      <trkpt lat="59.7852055" lon="17.6782139">
        <ele>67.4297</ele>
        <time>2014-06-01T12:51:57Z</time>
      </trkpt>
      <trkpt lat="59.7851977" lon="17.6781509">
        <ele>67.4297</ele>
        <time>2014-06-01T12:51:58Z</time>
      </trkpt>
      <trkpt lat="59.7851972" lon="17.6780857">
        <ele>67.4297</ele>
        <time>2014-06-01T12:51:59Z</time>
      </trkpt>
      <trkpt lat="59.7852018" lon="17.6780207">
        <ele>66.949</ele>
        <time>2014-06-01T12:52:00Z</time>
      </trkpt>
      <trkpt lat="59.7852092" lon="17.6779617">
        <ele>66.4683</ele>
        <time>2014-06-01T12:52:01Z</time>
      </trkpt>
      <trkpt lat="59.7852206" lon="17.6779143">
        <ele>66.949</ele>
        <time>2014-06-01T12:52:02Z</time>
      </trkpt>
      <trkpt lat="59.7852341" lon="17.6778733">
        <ele>66.4683</ele>
        <time>2014-06-01T12:52:03Z</time>
      </trkpt>
      <trkpt lat="59.7852495" lon="17.6778339">
        <ele>65.9877</ele>
        <time>2014-06-01T12:52:04Z</time>
      </trkpt>
      <trkpt lat="59.7852624" lon="17.677796">
        <ele>65.5071</ele>
        <time>2014-06-01T12:52:05Z</time>
      </trkpt>
      <trkpt lat="59.7852713" lon="17.6777671">
        <ele>65.0264</ele>
        <time>2014-06-01T12:52:06Z</time>
      </trkpt>
      <trkpt lat="59.7852733" lon="17.6777415">
        <ele>64.0651</ele>
        <time>2014-06-01T12:52:07Z</time>
      </trkpt>
      <trkpt lat="59.7852792" lon="17.6777194">
        <ele>63.5844</ele>
        <time>2014-06-01T12:52:08Z</time>
      </trkpt>
      <trkpt lat="59.7852882" lon="17.6776914">
        <ele>63.1036</ele>
        <time>2014-06-01T12:52:09Z</time>
      </trkpt>
      <trkpt lat="59.7854122" lon="17.6774709">
        <ele>61.6617</ele>
        <time>2014-06-01T12:52:37Z</time>
      </trkpt>
      <trkpt lat="59.7854122" lon="17.6774716">
        <ele>62.6229</ele>
        <time>2014-06-01T12:52:38Z</time>
      </trkpt>
      <trkpt lat="59.7854116" lon="17.6774708">
        <ele>63.5844</ele>
        <time>2014-06-01T12:52:39Z</time>
      </trkpt>
      <trkpt lat="59.7854485" lon="17.6774759">
        <ele>62.6229</ele>
        <time>2014-06-01T12:52:43Z</time>
      </trkpt>
      <trkpt lat="59.7854695" lon="17.6774768">
        <ele>62.6229</ele>
        <time>2014-06-01T12:52:44Z</time>
      </trkpt>
      <trkpt lat="59.7854947" lon="17.677448">
        <ele>64.0651</ele>
        <time>2014-06-01T12:52:45Z</time>
      </trkpt>
      <trkpt lat="59.7855138" lon="17.6774116">
        <ele>65.9877</ele>
        <time>2014-06-01T12:52:46Z</time>
      </trkpt>
      <trkpt lat="59.7855183" lon="17.6773724">
        <ele>65.5071</ele>
        <time>2014-06-01T12:52:47Z</time>
      </trkpt>
      <trkpt lat="59.7855315" lon="17.6773387">
        <ele>65.9877</ele>
        <time>2014-06-01T12:52:48Z</time>
      </trkpt>
      <trkpt lat="59.7855396" lon="17.6773055">
        <ele>65.5071</ele>
        <time>2014-06-01T12:52:49Z</time>
      </trkpt>
      <trkpt lat="59.7855459" lon="17.6772682">
        <ele>65.5071</ele>
        <time>2014-06-01T12:52:50Z</time>
      </trkpt>
      <trkpt lat="59.7855422" lon="17.6772333">
        <ele>65.9877</ele>
        <time>2014-06-01T12:52:51Z</time>
      </trkpt>
      <trkpt lat="59.7855353" lon="17.6771986">
        <ele>66.949</ele>
        <time>2014-06-01T12:52:52Z</time>
      </trkpt>
      <trkpt lat="59.7855282" lon="17.6771671">
        <ele>66.949</ele>
        <time>2014-06-01T12:52:53Z</time>
      </trkpt>
      <trkpt lat="59.7855263" lon="17.6771411">
        <ele>66.4683</ele>
        <time>2014-06-01T12:52:54Z</time>
      </trkpt>
      <trkpt lat="59.7855282" lon="17.6771158">
        <ele>66.4683</ele>
        <time>2014-06-01T12:52:55Z</time>
      </trkpt>
      <trkpt lat="59.7855277" lon="17.6770843">
        <ele>65.5071</ele>
        <time>2014-06-01T12:52:56Z</time>
      </trkpt>
      <trkpt lat="59.7855391" lon="17.677057">
        <ele>65.9877</ele>
        <time>2014-06-01T12:52:57Z</time>
      </trkpt>
      <trkpt lat="59.7855499" lon="17.6770356">
        <ele>65.9877</ele>
        <time>2014-06-01T12:52:58Z</time>
      </trkpt>
      <trkpt lat="59.7855515" lon="17.6770025">
        <ele>65.0264</ele>
        <time>2014-06-01T12:52:59Z</time>
      </trkpt>
      <trkpt lat="59.7855589" lon="17.6769683">
        <ele>64.0651</ele>
        <time>2014-06-01T12:53:00Z</time>
      </trkpt>
      <trkpt lat="59.7855716" lon="17.676929">
        <ele>63.5844</ele>
        <time>2014-06-01T12:53:01Z</time>
      </trkpt>
      <trkpt lat="59.7855815" lon="17.6768964">
        <ele>63.5844</ele>
        <time>2014-06-01T12:53:02Z</time>
      </trkpt>
      <trkpt lat="59.7855826" lon="17.676874">
        <ele>63.1036</ele>
        <time>2014-06-01T12:53:03Z</time>
      </trkpt>
      <trkpt lat="59.7855871" lon="17.6768495">
        <ele>63.1036</ele>
        <time>2014-06-01T12:53:04Z</time>
      </trkpt>
      <trkpt lat="59.7855918" lon="17.6768237">
        <ele>63.5844</ele>
        <time>2014-06-01T12:53:05Z</time>
      </trkpt>
      <trkpt lat="59.7855962" lon="17.6767968">
        <ele>63.5844</ele>
        <time>2014-06-01T12:53:06Z</time>
      </trkpt>
      <trkpt lat="59.7856003" lon="17.6767708">
        <ele>63.5844</ele>
        <time>2014-06-01T12:53:07Z</time>
      </trkpt>
      <trkpt lat="59.7856043" lon="17.6767439">
        <ele>63.5844</ele>
        <time>2014-06-01T12:53:08Z</time>
      </trkpt>
      <trkpt lat="59.7856084" lon="17.6767226">
        <ele>63.5844</ele>
        <time>2014-06-01T12:53:09Z</time>
      </trkpt>
      <trkpt lat="59.7856116" lon="17.6766975">
        <ele>63.1036</ele>
        <time>2014-06-01T12:53:10Z</time>
      </trkpt>
      <trkpt lat="59.7856179" lon="17.6766761">
        <ele>63.1036</ele>
        <time>2014-06-01T12:53:11Z</time>
      </trkpt>
      <trkpt lat="59.7856208" lon="17.676647">
        <ele>63.1036</ele>
        <time>2014-06-01T12:53:12Z</time>
      </trkpt>
      <trkpt lat="59.7856262" lon="17.6766205">
        <ele>63.1036</ele>
        <time>2014-06-01T12:53:13Z</time>
      </trkpt>
      <trkpt lat="59.7856329" lon="17.6765855">
        <ele>62.6229</ele>
        <time>2014-06-01T12:53:14Z</time>
      </trkpt>
      <trkpt lat="59.7856407" lon="17.6765465">
        <ele>62.1423</ele>
        <time>2014-06-01T12:53:15Z</time>
      </trkpt>
      <trkpt lat="59.7856493" lon="17.6765091">
        <ele>62.1423</ele>
        <time>2014-06-01T12:53:16Z</time>
      </trkpt>
      <trkpt lat="59.7856563" lon="17.6764716">
        <ele>61.6617</ele>
        <time>2014-06-01T12:53:17Z</time>
      </trkpt>
      <trkpt lat="59.7856651" lon="17.6764416">
        <ele>61.181</ele>
        <time>2014-06-01T12:53:18Z</time>
      </trkpt>
      <trkpt lat="59.7856671" lon="17.6764161">
        <ele>60.7003</ele>
        <time>2014-06-01T12:53:19Z</time>
      </trkpt>
      <trkpt lat="59.7856679" lon="17.6764026">
        <ele>60.7003</ele>
        <time>2014-06-01T12:53:20Z</time>
      </trkpt>
      <trkpt lat="59.785671" lon="17.6763891">
        <ele>61.181</ele>
        <time>2014-06-01T12:53:21Z</time>
      </trkpt>
      <trkpt lat="59.7856736" lon="17.6763715">
        <ele>61.181</ele>
        <time>2014-06-01T12:53:22Z</time>
      </trkpt>
      <trkpt lat="59.7856754" lon="17.6763581">
        <ele>61.181</ele>
        <time>2014-06-01T12:53:23Z</time>
      </trkpt>
      <trkpt lat="59.78568" lon="17.6763502">
        <ele>62.1423</ele>
        <time>2014-06-01T12:53:24Z</time>
      </trkpt>
      <trkpt lat="59.7856834" lon="17.676338">
        <ele>62.1423</ele>
        <time>2014-06-01T12:53:25Z</time>
      </trkpt>
      <trkpt lat="59.7856845" lon="17.6763213">
        <ele>62.6229</ele>
        <time>2014-06-01T12:53:26Z</time>
      </trkpt>
      <trkpt lat="59.7856861" lon="17.6763052">
        <ele>62.6229</ele>
        <time>2014-06-01T12:53:27Z</time>
      </trkpt>
      <trkpt lat="59.7856867" lon="17.6762845">
        <ele>61.6617</ele>
        <time>2014-06-01T12:53:28Z</time>
      </trkpt>
      <trkpt lat="59.7856918" lon="17.6762633">
        <ele>61.181</ele>
        <time>2014-06-01T12:53:29Z</time>
      </trkpt>
      <trkpt lat="59.7856967" lon="17.6762447">
        <ele>60.7003</ele>
        <time>2014-06-01T12:53:30Z</time>
      </trkpt>
      <trkpt lat="59.7857003" lon="17.6762313">
        <ele>60.2197</ele>
        <time>2014-06-01T12:53:31Z</time>
      </trkpt>
      <trkpt lat="59.7857006" lon="17.6762115">
        <ele>59.7391</ele>
        <time>2014-06-01T12:53:32Z</time>
      </trkpt>
      <trkpt lat="59.7856987" lon="17.6761885">
        <ele>59.7391</ele>
        <time>2014-06-01T12:53:33Z</time>
      </trkpt>
      <trkpt lat="59.7856953" lon="17.6761695">
        <ele>60.2197</ele>
        <time>2014-06-01T12:53:34Z</time>
      </trkpt>
      <trkpt lat="59.7856909" lon="17.6761482">
        <ele>59.7391</ele>
        <time>2014-06-01T12:53:35Z</time>
      </trkpt>
      <trkpt lat="59.7856877" lon="17.676124">
        <ele>59.7391</ele>
        <time>2014-06-01T12:53:36Z</time>
      </trkpt>
      <trkpt lat="59.7856867" lon="17.6761077">
        <ele>59.2584</ele>
        <time>2014-06-01T12:53:37Z</time>
      </trkpt>
      <trkpt lat="59.7856874" lon="17.6761011">
        <ele>59.2584</ele>
        <time>2014-06-01T12:53:38Z</time>
      </trkpt>
      <trkpt lat="59.7856862" lon="17.6760902">
        <ele>58.7777</ele>
        <time>2014-06-01T12:53:39Z</time>
      </trkpt>
      <trkpt lat="59.7856867" lon="17.6760706">
        <ele>58.2971</ele>
        <time>2014-06-01T12:53:40Z</time>
      </trkpt>
      <trkpt lat="59.7856872" lon="17.6760358">
        <ele>57.8165</ele>
        <time>2014-06-01T12:53:41Z</time>
      </trkpt>
      <trkpt lat="59.7856898" lon="17.6760004">
        <ele>57.8165</ele>
        <time>2014-06-01T12:53:42Z</time>
      </trkpt>
      <trkpt lat="59.7856956" lon="17.6759685">
        <ele>57.3358</ele>
        <time>2014-06-01T12:53:43Z</time>
      </trkpt>
      <trkpt lat="59.7857064" lon="17.6759457">
        <ele>57.3358</ele>
        <time>2014-06-01T12:53:44Z</time>
      </trkpt>
      <trkpt lat="59.7857208" lon="17.6759285">
        <ele>57.3358</ele>
        <time>2014-06-01T12:53:45Z</time>
      </trkpt>
      <trkpt lat="59.7857276" lon="17.675909">
        <ele>56.8551</ele>
        <time>2014-06-01T12:53:46Z</time>
      </trkpt>
      <trkpt lat="59.7857347" lon="17.6758933">
        <ele>56.8551</ele>
        <time>2014-06-01T12:53:47Z</time>
      </trkpt>
      <trkpt lat="59.785744" lon="17.6758739">
        <ele>56.3745</ele>
        <time>2014-06-01T12:53:48Z</time>
      </trkpt>
      <trkpt lat="59.7857519" lon="17.6758505">
        <ele>55.8938</ele>
        <time>2014-06-01T12:53:49Z</time>
      </trkpt>
      <trkpt lat="59.7857594" lon="17.6758308">
        <ele>55.8938</ele>
        <time>2014-06-01T12:53:50Z</time>
      </trkpt>
      <trkpt lat="59.7857686" lon="17.6758131">
        <ele>55.4131</ele>
        <time>2014-06-01T12:53:51Z</time>
      </trkpt>
      <trkpt lat="59.7857738" lon="17.6757872">
        <ele>54.9324</ele>
        <time>2014-06-01T12:53:52Z</time>
      </trkpt>
      <trkpt lat="59.7857764" lon="17.6757594">
        <ele>54.9324</ele>
        <time>2014-06-01T12:53:53Z</time>
      </trkpt>
      <trkpt lat="59.785779" lon="17.6757345">
        <ele>54.9324</ele>
        <time>2014-06-01T12:53:54Z</time>
      </trkpt>
      <trkpt lat="59.785781" lon="17.6757093">
        <ele>54.9324</ele>
        <time>2014-06-01T12:53:55Z</time>
      </trkpt>
      <trkpt lat="59.7857814" lon="17.6756796">
        <ele>54.9324</ele>
        <time>2014-06-01T12:53:56Z</time>
      </trkpt>
      <trkpt lat="59.7857841" lon="17.6756451">
        <ele>54.9324</ele>
        <time>2014-06-01T12:53:57Z</time>
      </trkpt>
      <trkpt lat="59.7857898" lon="17.6756089">
        <ele>54.4518</ele>
        <time>2014-06-01T12:53:58Z</time>
      </trkpt>
      <trkpt lat="59.7858007" lon="17.6755662">
        <ele>54.4518</ele>
        <time>2014-06-01T12:53:59Z</time>
      </trkpt>
      <trkpt lat="59.7858131" lon="17.6755241">
        <ele>54.4518</ele>
        <time>2014-06-01T12:54:00Z</time>
      </trkpt>
      <trkpt lat="59.7858317" lon="17.6754858">
        <ele>53.9712</ele>
        <time>2014-06-01T12:54:01Z</time>
      </trkpt>
      <trkpt lat="59.7858515" lon="17.6754444">
        <ele>53.9712</ele>
        <time>2014-06-01T12:54:02Z</time>
      </trkpt>
      <trkpt lat="59.78587" lon="17.6753993">
        <ele>53.9712</ele>
        <time>2014-06-01T12:54:03Z</time>
      </trkpt>
      <trkpt lat="59.785886" lon="17.6753639">
        <ele>54.4518</ele>
        <time>2014-06-01T12:54:04Z</time>
      </trkpt>
      <trkpt lat="59.7859007" lon="17.67534">
        <ele>53.4905</ele>
        <time>2014-06-01T12:54:05Z</time>
      </trkpt>
      <trkpt lat="59.7859266" lon="17.6753168">
        <ele>55.4131</ele>
        <time>2014-06-01T12:54:06Z</time>
      </trkpt>
      <trkpt lat="59.7859497" lon="17.6753019">
        <ele>55.4131</ele>
        <time>2014-06-01T12:54:07Z</time>
      </trkpt>
      <trkpt lat="59.7859659" lon="17.6752766">
        <ele>54.9324</ele>
        <time>2014-06-01T12:54:08Z</time>
      </trkpt>
      <trkpt lat="59.7859783" lon="17.6752546">
        <ele>54.9324</ele>
        <time>2014-06-01T12:54:09Z</time>
      </trkpt>
      <trkpt lat="59.7859887" lon="17.6752387">
        <ele>54.9324</ele>
        <time>2014-06-01T12:54:10Z</time>
      </trkpt>
      <trkpt lat="59.7859989" lon="17.6752108">
        <ele>54.9324</ele>
        <time>2014-06-01T12:54:11Z</time>
      </trkpt>
      <trkpt lat="59.7860072" lon="17.6751718">
        <ele>54.9324</ele>
        <time>2014-06-01T12:54:12Z</time>
      </trkpt>
      <trkpt lat="59.786011" lon="17.675136">
        <ele>54.9324</ele>
        <time>2014-06-01T12:54:13Z</time>
      </trkpt>
      <trkpt lat="59.7860116" lon="17.6750974">
        <ele>54.9324</ele>
        <time>2014-06-01T12:54:14Z</time>
      </trkpt>
      <trkpt lat="59.7860187" lon="17.6750699">
        <ele>55.4131</ele>
        <time>2014-06-01T12:54:15Z</time>
      </trkpt>
      <trkpt lat="59.7860235" lon="17.6750543">
        <ele>55.4131</ele>
        <time>2014-06-01T12:54:16Z</time>
      </trkpt>
      <trkpt lat="59.7860323" lon="17.6750396">
        <ele>55.4131</ele>
        <time>2014-06-01T12:54:17Z</time>
      </trkpt>
      <trkpt lat="59.7860393" lon="17.6750178">
        <ele>54.9324</ele>
        <time>2014-06-01T12:54:18Z</time>
      </trkpt>
      <trkpt lat="59.7860525" lon="17.6750014">
        <ele>54.9324</ele>
        <time>2014-06-01T12:54:19Z</time>
      </trkpt>
      <trkpt lat="59.7860735" lon="17.6749755">
        <ele>54.4518</ele>
        <time>2014-06-01T12:54:20Z</time>
      </trkpt>
      <trkpt lat="59.7860955" lon="17.6749501">
        <ele>54.4518</ele>
        <time>2014-06-01T12:54:21Z</time>
      </trkpt>
      <trkpt lat="59.7861145" lon="17.6749154">
        <ele>54.4518</ele>
        <time>2014-06-01T12:54:22Z</time>
      </trkpt>
      <trkpt lat="59.7861484" lon="17.6748714">
        <ele>57.8165</ele>
        <time>2014-06-01T12:54:23Z</time>
      </trkpt>
      <trkpt lat="59.7861663" lon="17.6748363">
        <ele>59.2584</ele>
        <time>2014-06-01T12:54:24Z</time>
      </trkpt>
      <trkpt lat="59.786168" lon="17.6748046">
        <ele>60.2197</ele>
        <time>2014-06-01T12:54:25Z</time>
      </trkpt>
      <trkpt lat="59.7861659" lon="17.674775">
        <ele>61.181</ele>
        <time>2014-06-01T12:54:26Z</time>
      </trkpt>
      <trkpt lat="59.7861637" lon="17.6747445">
        <ele>62.6229</ele>
        <time>2014-06-01T12:54:27Z</time>
      </trkpt>
      <trkpt lat="59.7861571" lon="17.6747072">
        <ele>62.6229</ele>
        <time>2014-06-01T12:54:28Z</time>
      </trkpt>
      <trkpt lat="59.7861486" lon="17.6746655">
        <ele>62.6229</ele>
        <time>2014-06-01T12:54:29Z</time>
      </trkpt>
      <trkpt lat="59.7861456" lon="17.6746166">
        <ele>62.6229</ele>
        <time>2014-06-01T12:54:30Z</time>
      </trkpt>
      <trkpt lat="59.7861456" lon="17.6745637">
        <ele>63.1036</ele>
        <time>2014-06-01T12:54:31Z</time>
      </trkpt>
      <trkpt lat="59.7861414" lon="17.6745102">
        <ele>62.6229</ele>
        <time>2014-06-01T12:54:32Z</time>
      </trkpt>
      <trkpt lat="59.7861435" lon="17.6744663">
        <ele>63.1036</ele>
        <time>2014-06-01T12:54:33Z</time>
      </trkpt>
      <trkpt lat="59.7861453" lon="17.67443">
        <ele>63.5844</ele>
        <time>2014-06-01T12:54:34Z</time>
      </trkpt>
      <trkpt lat="59.7861524" lon="17.6743868">
        <ele>63.1036</ele>
        <time>2014-06-01T12:54:35Z</time>
      </trkpt>
      <trkpt lat="59.7861613" lon="17.674326">
        <ele>62.6229</ele>
        <time>2014-06-01T12:54:36Z</time>
      </trkpt>
      <trkpt lat="59.7861785" lon="17.6742714">
        <ele>63.1036</ele>
        <time>2014-06-01T12:54:37Z</time>
      </trkpt>
      <trkpt lat="59.786189" lon="17.6742196">
        <ele>62.6229</ele>
        <time>2014-06-01T12:54:38Z</time>
      </trkpt>
      <trkpt lat="59.7861996" lon="17.6741665">
        <ele>63.1036</ele>
        <time>2014-06-01T12:54:39Z</time>
      </trkpt>
      <trkpt lat="59.7862072" lon="17.6741199">
        <ele>63.1036</ele>
        <time>2014-06-01T12:54:40Z</time>
      </trkpt>
      <trkpt lat="59.7862136" lon="17.6740745">
        <ele>63.5844</ele>
        <time>2014-06-01T12:54:41Z</time>
      </trkpt>
      <trkpt lat="59.7862202" lon="17.6740322">
        <ele>64.5457</ele>
        <time>2014-06-01T12:54:42Z</time>
      </trkpt>
      <trkpt lat="59.7862185" lon="17.673972">
        <ele>64.5457</ele>
        <time>2014-06-01T12:54:43Z</time>
      </trkpt>
      <trkpt lat="59.7862187" lon="17.6739123">
        <ele>65.0264</ele>
        <time>2014-06-01T12:54:44Z</time>
      </trkpt>
      <trkpt lat="59.7862167" lon="17.6738452">
        <ele>65.0264</ele>
        <time>2014-06-01T12:54:45Z</time>
      </trkpt>
      <trkpt lat="59.7862088" lon="17.6737923">
        <ele>65.5071</ele>
        <time>2014-06-01T12:54:46Z</time>
      </trkpt>
      <trkpt lat="59.7861911" lon="17.6737509">
        <ele>64.0651</ele>
        <time>2014-06-01T12:54:47Z</time>
      </trkpt>
      <trkpt lat="59.7861633" lon="17.6737109">
        <ele>63.1036</ele>
        <time>2014-06-01T12:54:48Z</time>
      </trkpt>
      <trkpt lat="59.7861255" lon="17.6736542">
        <ele>63.1036</ele>
        <time>2014-06-01T12:54:49Z</time>
      </trkpt>
      <trkpt lat="59.7860899" lon="17.6735922">
        <ele>63.1036</ele>
        <time>2014-06-01T12:54:50Z</time>
      </trkpt>
      <trkpt lat="59.7860652" lon="17.6735016">
        <ele>64.0651</ele>
        <time>2014-06-01T12:54:51Z</time>
      </trkpt>
      <trkpt lat="59.786054" lon="17.6733474">
        <ele>64.0651</ele>
        <time>2014-06-01T12:54:52Z</time>
      </trkpt>
      <trkpt lat="59.7860545" lon="17.6732247">
        <ele>63.1036</ele>
        <time>2014-06-01T12:54:53Z</time>
      </trkpt>
      <trkpt lat="59.7860611" lon="17.67311">
        <ele>62.1423</ele>
        <time>2014-06-01T12:54:54Z</time>
      </trkpt>
      <trkpt lat="59.7860545" lon="17.6729759">
        <ele>60.7003</ele>
        <time>2014-06-01T12:54:55Z</time>
      </trkpt>
      <trkpt lat="59.7860624" lon="17.6728668">
        <ele>60.7003</ele>
        <time>2014-06-01T12:54:56Z</time>
      </trkpt>
      <trkpt lat="59.78607" lon="17.6727382">
        <ele>61.181</ele>
        <time>2014-06-01T12:54:57Z</time>
      </trkpt>
      <trkpt lat="59.7861022" lon="17.6726393">
        <ele>61.6617</ele>
        <time>2014-06-01T12:54:58Z</time>
      </trkpt>
      <trkpt lat="59.7861343" lon="17.6725557">
        <ele>62.1423</ele>
        <time>2014-06-01T12:54:59Z</time>
      </trkpt>
      <trkpt lat="59.7861426" lon="17.6724513">
        <ele>61.181</ele>
        <time>2014-06-01T12:55:00Z</time>
      </trkpt>
      <trkpt lat="59.7861488" lon="17.6723368">
        <ele>60.7003</ele>
        <time>2014-06-01T12:55:01Z</time>
      </trkpt>
      <trkpt lat="59.7861685" lon="17.6722347">
        <ele>59.7391</ele>
        <time>2014-06-01T12:55:02Z</time>
      </trkpt>
      <trkpt lat="59.7861789" lon="17.6721321">
        <ele>58.2971</ele>
        <time>2014-06-01T12:55:03Z</time>
      </trkpt>
      <trkpt lat="59.7862093" lon="17.6720021">
        <ele>61.6617</ele>
        <time>2014-06-01T12:55:04Z</time>
      </trkpt>
      <trkpt lat="59.786239" lon="17.6718789">
        <ele>64.0651</ele>
        <time>2014-06-01T12:55:05Z</time>
      </trkpt>
      <trkpt lat="59.7862356" lon="17.6717421">
        <ele>64.0651</ele>
        <time>2014-06-01T12:55:06Z</time>
      </trkpt>
      <trkpt lat="59.7862265" lon="17.6716023">
        <ele>64.0651</ele>
        <time>2014-06-01T12:55:07Z</time>
      </trkpt>
      <trkpt lat="59.7862123" lon="17.6714417">
        <ele>64.0651</ele>
        <time>2014-06-01T12:55:08Z</time>
      </trkpt>
      <trkpt lat="59.7862094" lon="17.6712982">
        <ele>65.5071</ele>
        <time>2014-06-01T12:55:09Z</time>
      </trkpt>
      <trkpt lat="59.7861944" lon="17.6711389">
        <ele>65.0264</ele>
        <time>2014-06-01T12:55:10Z</time>
      </trkpt>
      <trkpt lat="59.7861918" lon="17.6709884">
        <ele>65.9877</ele>
        <time>2014-06-01T12:55:11Z</time>
      </trkpt>
      <trkpt lat="59.7861861" lon="17.6708287">
        <ele>65.9877</ele>
        <time>2014-06-01T12:55:12Z</time>
      </trkpt>
      <trkpt lat="59.7861907" lon="17.6707113">
        <ele>66.4683</ele>
        <time>2014-06-01T12:55:13Z</time>
      </trkpt>
      <trkpt lat="59.7862071" lon="17.6705987">
        <ele>66.949</ele>
        <time>2014-06-01T12:55:14Z</time>
      </trkpt>
      <trkpt lat="59.7862369" lon="17.6704962">
        <ele>66.949</ele>
        <time>2014-06-01T12:55:15Z</time>
      </trkpt>
      <trkpt lat="59.7862652" lon="17.6703885">
        <ele>66.4683</ele>
        <time>2014-06-01T12:55:16Z</time>
      </trkpt>
      <trkpt lat="59.7863051" lon="17.6702781">
        <ele>65.9877</ele>
        <time>2014-06-01T12:55:17Z</time>
      </trkpt>
      <trkpt lat="59.7863346" lon="17.6701426">
        <ele>66.949</ele>
        <time>2014-06-01T12:55:18Z</time>
      </trkpt>
      <trkpt lat="59.7863685" lon="17.670014">
        <ele>67.4297</ele>
        <time>2014-06-01T12:55:19Z</time>
      </trkpt>
      <trkpt lat="59.7863836" lon="17.6698995">
        <ele>68.8716</ele>
        <time>2014-06-01T12:55:20Z</time>
      </trkpt>
      <trkpt lat="59.7864129" lon="17.6697928">
        <ele>66.949</ele>
        <time>2014-06-01T12:55:21Z</time>
      </trkpt>
      <trkpt lat="59.7864494" lon="17.6696975">
        <ele>65.9877</ele>
        <time>2014-06-01T12:55:22Z</time>
      </trkpt>
      <trkpt lat="59.7864784" lon="17.6695974">
        <ele>66.4683</ele>
        <time>2014-06-01T12:55:23Z</time>
      </trkpt>
      <trkpt lat="59.7865169" lon="17.6694909">
        <ele>65.5071</ele>
        <time>2014-06-01T12:55:24Z</time>
      </trkpt>
      <trkpt lat="59.7865513" lon="17.6693596">
        <ele>65.0264</ele>
        <time>2014-06-01T12:55:25Z</time>
      </trkpt>
      <trkpt lat="59.7865724" lon="17.6692174">
        <ele>64.5457</ele>
        <time>2014-06-01T12:55:26Z</time>
      </trkpt>
      <trkpt lat="59.786592" lon="17.6690866">
        <ele>63.5844</ele>
        <time>2014-06-01T12:55:27Z</time>
      </trkpt>
      <trkpt lat="59.7865999" lon="17.6689504">
        <ele>62.1423</ele>
        <time>2014-06-01T12:55:28Z</time>
      </trkpt>
      <trkpt lat="59.7866093" lon="17.6688276">
        <ele>62.1423</ele>
        <time>2014-06-01T12:55:29Z</time>
      </trkpt>
      <trkpt lat="59.7866003" lon="17.6687095">
        <ele>60.2197</ele>
        <time>2014-06-01T12:55:30Z</time>
      </trkpt>
      <trkpt lat="59.7865946" lon="17.6686118">
        <ele>60.2197</ele>
        <time>2014-06-01T12:55:31Z</time>
      </trkpt>
      <trkpt lat="59.7865791" lon="17.6685061">
        <ele>59.7391</ele>
        <time>2014-06-01T12:55:32Z</time>
      </trkpt>
      <trkpt lat="59.7865539" lon="17.6684199">
        <ele>57.8165</ele>
        <time>2014-06-01T12:55:33Z</time>
      </trkpt>
      <trkpt lat="59.7865144" lon="17.6683336">
        <ele>55.4131</ele>
        <time>2014-06-01T12:55:34Z</time>
      </trkpt>
      <trkpt lat="59.7864736" lon="17.668263">
        <ele>53.9712</ele>
        <time>2014-06-01T12:55:35Z</time>
      </trkpt>
      <trkpt lat="59.7864348" lon="17.668199">
        <ele>53.0098</ele>
        <time>2014-06-01T12:55:36Z</time>
      </trkpt>
      <trkpt lat="59.786399" lon="17.6681246">
        <ele>51.5679</ele>
        <time>2014-06-01T12:55:37Z</time>
      </trkpt>
      <trkpt lat="59.7863612" lon="17.6680459">
        <ele>50.126</ele>
        <time>2014-06-01T12:55:38Z</time>
      </trkpt>
      <trkpt lat="59.7863333" lon="17.6679561">
        <ele>49.1646</ele>
        <time>2014-06-01T12:55:39Z</time>
      </trkpt>
      <trkpt lat="59.7863084" lon="17.6678543">
        <ele>48.684</ele>
        <time>2014-06-01T12:55:40Z</time>
      </trkpt>
      <trkpt lat="59.786285" lon="17.6677581">
        <ele>47.2418</ele>
        <time>2014-06-01T12:55:41Z</time>
      </trkpt>
      <trkpt lat="59.7862703" lon="17.6676636">
        <ele>46.7612</ele>
        <time>2014-06-01T12:55:42Z</time>
      </trkpt>
      <trkpt lat="59.786246" lon="17.6675477">
        <ele>44.8386</ele>
        <time>2014-06-01T12:55:43Z</time>
      </trkpt>
      <trkpt lat="59.7862296" lon="17.6674649">
        <ele>43.3966</ele>
        <time>2014-06-01T12:55:44Z</time>
      </trkpt>
      <trkpt lat="59.7862156" lon="17.6673996">
        <ele>41.9547</ele>
        <time>2014-06-01T12:55:45Z</time>
      </trkpt>
      <trkpt lat="59.7862062" lon="17.6673488">
        <ele>40.5128</ele>
        <time>2014-06-01T12:55:46Z</time>
      </trkpt>
      <trkpt lat="59.7862025" lon="17.6673043">
        <ele>39.5513</ele>
        <time>2014-06-01T12:55:47Z</time>
      </trkpt>
      <trkpt lat="59.7861999" lon="17.667267">
        <ele>38.5901</ele>
        <time>2014-06-01T12:55:48Z</time>
      </trkpt>
      <trkpt lat="59.7862026" lon="17.6672427">
        <ele>38.1094</ele>
        <time>2014-06-01T12:55:49Z</time>
      </trkpt>
      <trkpt lat="59.7861989" lon="17.6672143">
        <ele>37.1481</ele>
        <time>2014-06-01T12:55:50Z</time>
      </trkpt>
      <trkpt lat="59.7862058" lon="17.6672067">
        <ele>39.0707</ele>
        <time>2014-06-01T12:55:51Z</time>
      </trkpt>
      <trkpt lat="59.7862049" lon="17.6671887">
        <ele>39.5513</ele>
        <time>2014-06-01T12:55:52Z</time>
      </trkpt>
      <trkpt lat="59.7862072" lon="17.6671746">
        <ele>40.9934</ele>
        <time>2014-06-01T12:55:53Z</time>
      </trkpt>
      <trkpt lat="59.7862006" lon="17.6671265">
        <ele>40.5128</ele>
        <time>2014-06-01T12:55:54Z</time>
      </trkpt>
      <trkpt lat="59.7862037" lon="17.66708">
        <ele>41.474</ele>
        <time>2014-06-01T12:55:55Z</time>
      </trkpt>
      <trkpt lat="59.786195" lon="17.6670152">
        <ele>40.5128</ele>
        <time>2014-06-01T12:55:56Z</time>
      </trkpt>
      <trkpt lat="59.7861819" lon="17.6669458">
        <ele>40.0321</ele>
        <time>2014-06-01T12:55:57Z</time>
      </trkpt>
      <trkpt lat="59.786168" lon="17.6668825">
        <ele>39.0707</ele>
        <time>2014-06-01T12:55:58Z</time>
      </trkpt>
      <trkpt lat="59.7861447" lon="17.6667909">
        <ele>37.1481</ele>
        <time>2014-06-01T12:55:59Z</time>
      </trkpt>
      <trkpt lat="59.7861281" lon="17.6667198">
        <ele>35.2255</ele>
        <time>2014-06-01T12:56:00Z</time>
      </trkpt>
      <trkpt lat="59.7861099" lon="17.6666494">
        <ele>33.7834</ele>
        <time>2014-06-01T12:56:01Z</time>
      </trkpt>
      <trkpt lat="59.7860908" lon="17.6665817">
        <ele>32.3416</ele>
        <time>2014-06-01T12:56:02Z</time>
      </trkpt>
      <trkpt lat="59.7860705" lon="17.6665087">
        <ele>31.3801</ele>
        <time>2014-06-01T12:56:03Z</time>
      </trkpt>
      <trkpt lat="59.7860462" lon="17.6664318">
        <ele>29.9381</ele>
        <time>2014-06-01T12:56:04Z</time>
      </trkpt>
      <trkpt lat="59.7860153" lon="17.6663543">
        <ele>29.4575</ele>
        <time>2014-06-01T12:56:05Z</time>
      </trkpt>
      <trkpt lat="59.7859395" lon="17.6661695">
        <ele>28.4962</ele>
        <time>2014-06-01T12:56:06Z</time>
      </trkpt>
      <trkpt lat="59.78591" lon="17.666074">
        <ele>27.0543</ele>
        <time>2014-06-01T12:56:07Z</time>
      </trkpt>
      <trkpt lat="59.785883" lon="17.6659573">
        <ele>27.0543</ele>
        <time>2014-06-01T12:56:08Z</time>
      </trkpt>
      <trkpt lat="59.785849" lon="17.6658446">
        <ele>26.5736</ele>
        <time>2014-06-01T12:56:09Z</time>
      </trkpt>
      <trkpt lat="59.7858095" lon="17.6657472">
        <ele>26.0929</ele>
        <time>2014-06-01T12:56:10Z</time>
      </trkpt>
      <trkpt lat="59.7857671" lon="17.6656641">
        <ele>25.6123</ele>
        <time>2014-06-01T12:56:11Z</time>
      </trkpt>
      <trkpt lat="59.7857183" lon="17.6655949">
        <ele>25.6123</ele>
        <time>2014-06-01T12:56:12Z</time>
      </trkpt>
      <trkpt lat="59.7856731" lon="17.6655383">
        <ele>25.1317</ele>
        <time>2014-06-01T12:56:13Z</time>
      </trkpt>
      <trkpt lat="59.7856421" lon="17.6654681">
        <ele>24.1703</ele>
        <time>2014-06-01T12:56:14Z</time>
      </trkpt>
      <trkpt lat="59.7856308" lon="17.6653877">
        <ele>23.6896</ele>
        <time>2014-06-01T12:56:15Z</time>
      </trkpt>
      <trkpt lat="59.7856329" lon="17.6653006">
        <ele>22.7283</ele>
        <time>2014-06-01T12:56:16Z</time>
      </trkpt>
      <trkpt lat="59.7856558" lon="17.6652378">
        <ele>22.7283</ele>
        <time>2014-06-01T12:56:17Z</time>
      </trkpt>
      <trkpt lat="59.7856882" lon="17.6651975">
        <ele>22.2476</ele>
        <time>2014-06-01T12:56:18Z</time>
      </trkpt>
      <trkpt lat="59.7857303" lon="17.6651784">
        <ele>21.767</ele>
        <time>2014-06-01T12:56:19Z</time>
      </trkpt>
      <trkpt lat="59.785777" lon="17.665181">
        <ele>21.2864</ele>
        <time>2014-06-01T12:56:20Z</time>
      </trkpt>
      <trkpt lat="59.7858246" lon="17.6651982">
        <ele>21.2864</ele>
        <time>2014-06-01T12:56:21Z</time>
      </trkpt>
      <trkpt lat="59.7858722" lon="17.6652229">
        <ele>20.8057</ele>
        <time>2014-06-01T12:56:22Z</time>
      </trkpt>
      <trkpt lat="59.7859217" lon="17.665245">
        <ele>20.325</ele>
        <time>2014-06-01T12:56:23Z</time>
      </trkpt>
      <trkpt lat="59.7859733" lon="17.6652582">
        <ele>20.325</ele>
        <time>2014-06-01T12:56:24Z</time>
      </trkpt>
      <trkpt lat="59.7860266" lon="17.6652628">
        <ele>19.8444</ele>
        <time>2014-06-01T12:56:25Z</time>
      </trkpt>
      <trkpt lat="59.7860816" lon="17.6652633">
        <ele>19.3638</ele>
        <time>2014-06-01T12:56:26Z</time>
      </trkpt>
      <trkpt lat="59.7861388" lon="17.6652652">
        <ele>19.3638</ele>
        <time>2014-06-01T12:56:27Z</time>
      </trkpt>
      <trkpt lat="59.7861976" lon="17.6652613">
        <ele>18.8831</ele>
        <time>2014-06-01T12:56:28Z</time>
      </trkpt>
      <trkpt lat="59.7862586" lon="17.6652422">
        <ele>18.4023</ele>
        <time>2014-06-01T12:56:29Z</time>
      </trkpt>
      <trkpt lat="59.7863211" lon="17.6652084">
        <ele>17.9218</ele>
        <time>2014-06-01T12:56:30Z</time>
      </trkpt>
      <trkpt lat="59.7863839" lon="17.6651601">
        <ele>17.4412</ele>
        <time>2014-06-01T12:56:31Z</time>
      </trkpt>
      <trkpt lat="59.7864456" lon="17.6650949">
        <ele>16.9604</ele>
        <time>2014-06-01T12:56:32Z</time>
      </trkpt>
      <trkpt lat="59.7865056" lon="17.6650152">
        <ele>16.4797</ele>
        <time>2014-06-01T12:56:33Z</time>
      </trkpt>
      <trkpt lat="59.7865653" lon="17.6649252">
        <ele>15.999</ele>
        <time>2014-06-01T12:56:34Z</time>
      </trkpt>
      <trkpt lat="59.7866242" lon="17.6648277">
        <ele>15.0377</ele>
        <time>2014-06-01T12:56:35Z</time>
      </trkpt>
      <trkpt lat="59.7866804" lon="17.6647214">
        <ele>14.557</ele>
        <time>2014-06-01T12:56:36Z</time>
      </trkpt>
      <trkpt lat="59.7867332" lon="17.6646029">
        <ele>14.0764</ele>
        <time>2014-06-01T12:56:37Z</time>
      </trkpt>
      <trkpt lat="59.786783" lon="17.6644735">
        <ele>13.5958</ele>
        <time>2014-06-01T12:56:38Z</time>
      </trkpt>
      <trkpt lat="59.786829" lon="17.6643355">
        <ele>13.1151</ele>
        <time>2014-06-01T12:56:39Z</time>
      </trkpt>
      <trkpt lat="59.7868729" lon="17.66419">
        <ele>12.6344</ele>
        <time>2014-06-01T12:56:40Z</time>
      </trkpt>
      <trkpt lat="59.786916" lon="17.6640398">
        <ele>12.1538</ele>
        <time>2014-06-01T12:56:41Z</time>
      </trkpt>
      <trkpt lat="59.7869608" lon="17.6638854">
        <ele>11.6732</ele>
        <time>2014-06-01T12:56:42Z</time>
      </trkpt>
      <trkpt lat="59.7870056" lon="17.6637279">
        <ele>11.1925</ele>
        <time>2014-06-01T12:56:43Z</time>
      </trkpt>
      <trkpt lat="59.7870502" lon="17.6635696">
        <ele>10.7118</ele>
        <time>2014-06-01T12:56:44Z</time>
      </trkpt>
      <trkpt lat="59.7870952" lon="17.6634125">
        <ele>10.2312</ele>
        <time>2014-06-01T12:56:45Z</time>
      </trkpt>
      <trkpt lat="59.7871372" lon="17.6632631">
        <ele>10.2312</ele>
        <time>2014-06-01T12:56:46Z</time>
      </trkpt>
      <trkpt lat="59.787172" lon="17.6631323">
        <ele>9.75061</ele>
        <time>2014-06-01T12:56:47Z</time>
      </trkpt>
      <trkpt lat="59.787203" lon="17.66302">
        <ele>9.75061</ele>
        <time>2014-06-01T12:56:48Z</time>
      </trkpt>
      <trkpt lat="59.7872349" lon="17.6629276">
        <ele>9.2699</ele>
        <time>2014-06-01T12:56:49Z</time>
      </trkpt>
      <trkpt lat="59.7872686" lon="17.6628423">
        <ele>9.2699</ele>
        <time>2014-06-01T12:56:50Z</time>
      </trkpt>
      <trkpt lat="59.7872951" lon="17.6627475">
        <ele>9.2699</ele>
        <time>2014-06-01T12:56:51Z</time>
      </trkpt>
      <trkpt lat="59.7873169" lon="17.6626467">
        <ele>9.2699</ele>
        <time>2014-06-01T12:56:52Z</time>
      </trkpt>
      <trkpt lat="59.7873412" lon="17.6625474">
        <ele>9.2699</ele>
        <time>2014-06-01T12:56:53Z</time>
      </trkpt>
      <trkpt lat="59.7873671" lon="17.6624495">
        <ele>9.2699</ele>
        <time>2014-06-01T12:56:54Z</time>
      </trkpt>
      <trkpt lat="59.7873944" lon="17.6623506">
        <ele>9.2699</ele>
        <time>2014-06-01T12:56:55Z</time>
      </trkpt>
      <trkpt lat="59.7874227" lon="17.6622511">
        <ele>9.2699</ele>
        <time>2014-06-01T12:56:56Z</time>
      </trkpt>
      <trkpt lat="59.7874516" lon="17.6621504">
        <ele>9.2699</ele>
        <time>2014-06-01T12:56:57Z</time>
      </trkpt>
      <trkpt lat="59.7874787" lon="17.6620494">
        <ele>8.78918</ele>
        <time>2014-06-01T12:56:58Z</time>
      </trkpt>
      <trkpt lat="59.7875065" lon="17.6619482">
        <ele>8.30859</ele>
        <time>2014-06-01T12:56:59Z</time>
      </trkpt>
      <trkpt lat="59.7875327" lon="17.6618477">
        <ele>8.30859</ele>
        <time>2014-06-01T12:57:00Z</time>
      </trkpt>
      <trkpt lat="59.7875588" lon="17.6617512">
        <ele>7.82788</ele>
        <time>2014-06-01T12:57:01Z</time>
      </trkpt>
      <trkpt lat="59.7875869" lon="17.6616637">
        <ele>7.82788</ele>
        <time>2014-06-01T12:57:02Z</time>
      </trkpt>
      <trkpt lat="59.7876162" lon="17.6615829">
        <ele>7.34717</ele>
        <time>2014-06-01T12:57:03Z</time>
      </trkpt>
      <trkpt lat="59.7876438" lon="17.6615055">
        <ele>7.34717</ele>
        <time>2014-06-01T12:57:04Z</time>
      </trkpt>
      <trkpt lat="59.7876696" lon="17.6614299">
        <ele>7.82788</ele>
        <time>2014-06-01T12:57:05Z</time>
      </trkpt>
      <trkpt lat="59.7876943" lon="17.6613506">
        <ele>7.82788</ele>
        <time>2014-06-01T12:57:06Z</time>
      </trkpt>
      <trkpt lat="59.787718" lon="17.6612747">
        <ele>7.82788</ele>
        <time>2014-06-01T12:57:07Z</time>
      </trkpt>
      <trkpt lat="59.7877415" lon="17.6612053">
        <ele>8.30859</ele>
        <time>2014-06-01T12:57:08Z</time>
      </trkpt>
      <trkpt lat="59.7877635" lon="17.6611409">
        <ele>8.30859</ele>
        <time>2014-06-01T12:57:09Z</time>
      </trkpt>
      <trkpt lat="59.7877847" lon="17.6610773">
        <ele>8.30859</ele>
        <time>2014-06-01T12:57:10Z</time>
      </trkpt>
      <trkpt lat="59.7878048" lon="17.6610209">
        <ele>7.82788</ele>
        <time>2014-06-01T12:57:11Z</time>
      </trkpt>
      <trkpt lat="59.7878219" lon="17.6609629">
        <ele>8.30859</ele>
        <time>2014-06-01T12:57:12Z</time>
      </trkpt>
      <trkpt lat="59.78784" lon="17.6609046">
        <ele>8.30859</ele>
        <time>2014-06-01T12:57:13Z</time>
      </trkpt>
      <trkpt lat="59.7878614" lon="17.6608492">
        <ele>8.30859</ele>
        <time>2014-06-01T12:57:14Z</time>
      </trkpt>
      <trkpt lat="59.7878971" lon="17.6608344">
        <ele>8.78918</ele>
        <time>2014-06-01T12:57:15Z</time>
      </trkpt>
      <trkpt lat="59.7879348" lon="17.6608587">
        <ele>9.75061</ele>
        <time>2014-06-01T12:57:16Z</time>
      </trkpt>
      <trkpt lat="59.7879682" lon="17.6609047">
        <ele>9.75061</ele>
        <time>2014-06-01T12:57:17Z</time>
      </trkpt>
      <trkpt lat="59.7879976" lon="17.6609684">
        <ele>9.2699</ele>
        <time>2014-06-01T12:57:18Z</time>
      </trkpt>
      <trkpt lat="59.788027" lon="17.6610224">
        <ele>8.78918</ele>
        <time>2014-06-01T12:57:19Z</time>
      </trkpt>
      <trkpt lat="59.7880618" lon="17.6610663">
        <ele>8.30859</ele>
        <time>2014-06-01T12:57:20Z</time>
      </trkpt>
      <trkpt lat="59.7881022" lon="17.6611087">
        <ele>8.30859</ele>
        <time>2014-06-01T12:57:21Z</time>
      </trkpt>
      <trkpt lat="59.7881473" lon="17.6611555">
        <ele>8.78918</ele>
        <time>2014-06-01T12:57:22Z</time>
      </trkpt>
      <trkpt lat="59.7881893" lon="17.6612084">
        <ele>9.2699</ele>
        <time>2014-06-01T12:57:23Z</time>
      </trkpt>
      <trkpt lat="59.7882312" lon="17.6612539">
        <ele>9.75061</ele>
        <time>2014-06-01T12:57:24Z</time>
      </trkpt>
      <trkpt lat="59.7882711" lon="17.6612973">
        <ele>9.75061</ele>
        <time>2014-06-01T12:57:25Z</time>
      </trkpt>
      <trkpt lat="59.7883123" lon="17.6613384">
        <ele>10.2312</ele>
        <time>2014-06-01T12:57:26Z</time>
      </trkpt>
      <trkpt lat="59.7883493" lon="17.6613805">
        <ele>9.75061</ele>
        <time>2014-06-01T12:57:27Z</time>
      </trkpt>
      <trkpt lat="59.7883814" lon="17.6614155">
        <ele>9.2699</ele>
        <time>2014-06-01T12:57:28Z</time>
      </trkpt>
      <trkpt lat="59.7884125" lon="17.6614612">
        <ele>7.82788</ele>
        <time>2014-06-01T12:57:29Z</time>
      </trkpt>
      <trkpt lat="59.7884465" lon="17.661517">
        <ele>9.75061</ele>
        <time>2014-06-01T12:57:30Z</time>
      </trkpt>
      <trkpt lat="59.7884706" lon="17.6615719">
        <ele>10.7118</ele>
        <time>2014-06-01T12:57:31Z</time>
      </trkpt>
      <trkpt lat="59.7884918" lon="17.66163">
        <ele>11.6732</ele>
        <time>2014-06-01T12:57:32Z</time>
      </trkpt>
      <trkpt lat="59.7885073" lon="17.6616916">
        <ele>11.1925</ele>
        <time>2014-06-01T12:57:33Z</time>
      </trkpt>
      <trkpt lat="59.788524" lon="17.6617606">
        <ele>11.1925</ele>
        <time>2014-06-01T12:57:34Z</time>
      </trkpt>
      <trkpt lat="59.7885441" lon="17.6618263">
        <ele>10.7118</ele>
        <time>2014-06-01T12:57:35Z</time>
      </trkpt>
      <trkpt lat="59.7885668" lon="17.6618836">
        <ele>11.1925</ele>
        <time>2014-06-01T12:57:36Z</time>
      </trkpt>
      <trkpt lat="59.7885879" lon="17.6619487">
        <ele>11.1925</ele>
        <time>2014-06-01T12:57:37Z</time>
      </trkpt>
      <trkpt lat="59.7886087" lon="17.6620159">
        <ele>10.2312</ele>
        <time>2014-06-01T12:57:38Z</time>
      </trkpt>
      <trkpt lat="59.7886333" lon="17.6620735">
        <ele>11.1925</ele>
        <time>2014-06-01T12:57:39Z</time>
      </trkpt>
      <trkpt lat="59.7886576" lon="17.6621127">
        <ele>11.1925</ele>
        <time>2014-06-01T12:57:40Z</time>
      </trkpt>
      <trkpt lat="59.7886807" lon="17.6621496">
        <ele>11.1925</ele>
        <time>2014-06-01T12:57:41Z</time>
      </trkpt>
      <trkpt lat="59.7887021" lon="17.6621786">
        <ele>10.7118</ele>
        <time>2014-06-01T12:57:42Z</time>
      </trkpt>
      <trkpt lat="59.7887213" lon="17.6622062">
        <ele>11.1925</ele>
        <time>2014-06-01T12:57:43Z</time>
      </trkpt>
      <trkpt lat="59.7887408" lon="17.6622349">
        <ele>11.6732</ele>
        <time>2014-06-01T12:57:44Z</time>
      </trkpt>
      <trkpt lat="59.7887599" lon="17.662258">
        <ele>11.6732</ele>
        <time>2014-06-01T12:57:45Z</time>
      </trkpt>
      <trkpt lat="59.788785" lon="17.6622774">
        <ele>13.5958</ele>
        <time>2014-06-01T12:57:46Z</time>
      </trkpt>
      <trkpt lat="59.7888058" lon="17.6622935">
        <ele>14.0764</ele>
        <time>2014-06-01T12:57:47Z</time>
      </trkpt>
      <trkpt lat="59.788827" lon="17.6623006">
        <ele>13.5958</ele>
        <time>2014-06-01T12:57:48Z</time>
      </trkpt>
      <trkpt lat="59.7888497" lon="17.6623029">
        <ele>13.1151</ele>
        <time>2014-06-01T12:57:49Z</time>
      </trkpt>
      <trkpt lat="59.7888757" lon="17.6623015">
        <ele>13.5958</ele>
        <time>2014-06-01T12:57:50Z</time>
      </trkpt>
      <trkpt lat="59.7889015" lon="17.662294">
        <ele>13.5958</ele>
        <time>2014-06-01T12:57:51Z</time>
      </trkpt>
      <trkpt lat="59.7889311" lon="17.6622905">
        <ele>13.5958</ele>
        <time>2014-06-01T12:57:52Z</time>
      </trkpt>
      <trkpt lat="59.7889637" lon="17.6622892">
        <ele>13.1151</ele>
        <time>2014-06-01T12:57:53Z</time>
      </trkpt>
      <trkpt lat="59.7890008" lon="17.6622849">
        <ele>14.0764</ele>
        <time>2014-06-01T12:57:54Z</time>
      </trkpt>
      <trkpt lat="59.7890376" lon="17.6622775">
        <ele>14.557</ele>
        <time>2014-06-01T12:57:55Z</time>
      </trkpt>
      <trkpt lat="59.7890759" lon="17.6622707">
        <ele>15.5184</ele>
        <time>2014-06-01T12:57:56Z</time>
      </trkpt>
      <trkpt lat="59.7891064" lon="17.6622624">
        <ele>15.0377</ele>
        <time>2014-06-01T12:57:57Z</time>
      </trkpt>
      <trkpt lat="59.7891397" lon="17.6622532">
        <ele>15.999</ele>
        <time>2014-06-01T12:57:58Z</time>
      </trkpt>
      <trkpt lat="59.7891744" lon="17.6622424">
        <ele>15.0377</ele>
        <time>2014-06-01T12:57:59Z</time>
      </trkpt>
      <trkpt lat="59.7892112" lon="17.662234">
        <ele>14.557</ele>
        <time>2014-06-01T12:58:00Z</time>
      </trkpt>
      <trkpt lat="59.789247" lon="17.6622295">
        <ele>15.0377</ele>
        <time>2014-06-01T12:58:01Z</time>
      </trkpt>
      <trkpt lat="59.7892865" lon="17.6622313">
        <ele>15.999</ele>
        <time>2014-06-01T12:58:02Z</time>
      </trkpt>
      <trkpt lat="59.7893271" lon="17.6622465">
        <ele>16.4797</ele>
        <time>2014-06-01T12:58:03Z</time>
      </trkpt>
      <trkpt lat="59.7893714" lon="17.6622735">
        <ele>16.9604</ele>
        <time>2014-06-01T12:58:04Z</time>
      </trkpt>
      <trkpt lat="59.7894175" lon="17.6623199">
        <ele>18.4023</ele>
        <time>2014-06-01T12:58:05Z</time>
      </trkpt>
      <trkpt lat="59.7894625" lon="17.6623737">
        <ele>18.8831</ele>
        <time>2014-06-01T12:58:06Z</time>
      </trkpt>
      <trkpt lat="59.7895157" lon="17.66242">
        <ele>19.3638</ele>
        <time>2014-06-01T12:58:07Z</time>
      </trkpt>
      <trkpt lat="59.7895732" lon="17.6624692">
        <ele>18.4023</ele>
        <time>2014-06-01T12:58:08Z</time>
      </trkpt>
      <trkpt lat="59.7896355" lon="17.6625148">
        <ele>16.9604</ele>
        <time>2014-06-01T12:58:09Z</time>
      </trkpt>
      <trkpt lat="59.7897044" lon="17.6625552">
        <ele>16.9604</ele>
        <time>2014-06-01T12:58:10Z</time>
      </trkpt>
      <trkpt lat="59.789763" lon="17.6626033">
        <ele>16.4797</ele>
        <time>2014-06-01T12:58:11Z</time>
      </trkpt>
      <trkpt lat="59.7898218" lon="17.6626553">
        <ele>15.999</ele>
        <time>2014-06-01T12:58:12Z</time>
      </trkpt>
      <trkpt lat="59.7898838" lon="17.662705">
        <ele>15.5184</ele>
        <time>2014-06-01T12:58:13Z</time>
      </trkpt>
      <trkpt lat="59.7899509" lon="17.6627413">
        <ele>16.4797</ele>
        <time>2014-06-01T12:58:14Z</time>
      </trkpt>
      <trkpt lat="59.7900167" lon="17.662777">
        <ele>15.999</ele>
        <time>2014-06-01T12:58:15Z</time>
      </trkpt>
      <trkpt lat="59.79008" lon="17.6628157">
        <ele>15.0377</ele>
        <time>2014-06-01T12:58:16Z</time>
      </trkpt>
      <trkpt lat="59.7901405" lon="17.6628575">
        <ele>14.0764</ele>
        <time>2014-06-01T12:58:17Z</time>
      </trkpt>
      <trkpt lat="59.7902105" lon="17.6629021">
        <ele>16.9604</ele>
        <time>2014-06-01T12:58:18Z</time>
      </trkpt>
      <trkpt lat="59.7902743" lon="17.6629436">
        <ele>15.5184</ele>
        <time>2014-06-01T12:58:19Z</time>
      </trkpt>
      <trkpt lat="59.7903412" lon="17.6629834">
        <ele>15.999</ele>
        <time>2014-06-01T12:58:20Z</time>
      </trkpt>
      <trkpt lat="59.7904094" lon="17.6630082">
        <ele>16.9604</ele>
        <time>2014-06-01T12:58:21Z</time>
      </trkpt>
      <trkpt lat="59.7904742" lon="17.6630207">
        <ele>15.999</ele>
        <time>2014-06-01T12:58:22Z</time>
      </trkpt>
      <trkpt lat="59.7905421" lon="17.6630241">
        <ele>16.4797</ele>
        <time>2014-06-01T12:58:23Z</time>
      </trkpt>
      <trkpt lat="59.7906089" lon="17.6630203">
        <ele>15.999</ele>
        <time>2014-06-01T12:58:24Z</time>
      </trkpt>
      <trkpt lat="59.7906804" lon="17.663007">
        <ele>16.4797</ele>
        <time>2014-06-01T12:58:25Z</time>
      </trkpt>
      <trkpt lat="59.7907538" lon="17.6629847">
        <ele>15.5184</ele>
        <time>2014-06-01T12:58:26Z</time>
      </trkpt>
      <trkpt lat="59.7908258" lon="17.6629587">
        <ele>15.0377</ele>
        <time>2014-06-01T12:58:27Z</time>
      </trkpt>
      <trkpt lat="59.7908934" lon="17.6629313">
        <ele>14.557</ele>
        <time>2014-06-01T12:58:28Z</time>
      </trkpt>
      <trkpt lat="59.7909507" lon="17.6629021">
        <ele>14.0764</ele>
        <time>2014-06-01T12:58:29Z</time>
      </trkpt>
      <trkpt lat="59.7910036" lon="17.6628622">
        <ele>14.557</ele>
        <time>2014-06-01T12:58:30Z</time>
      </trkpt>
      <trkpt lat="59.7910465" lon="17.6628008">
        <ele>13.5958</ele>
        <time>2014-06-01T12:58:31Z</time>
      </trkpt>
      <trkpt lat="59.7910849" lon="17.6626716">
        <ele>12.6344</ele>
        <time>2014-06-01T12:58:32Z</time>
      </trkpt>
      <trkpt lat="59.7910932" lon="17.662552">
        <ele>12.1538</ele>
        <time>2014-06-01T12:58:33Z</time>
      </trkpt>
      <trkpt lat="59.7910782" lon="17.6623863">
        <ele>10.7118</ele>
        <time>2014-06-01T12:58:34Z</time>
      </trkpt>
      <trkpt lat="59.7910704" lon="17.6622165">
        <ele>10.2312</ele>
        <time>2014-06-01T12:58:35Z</time>
      </trkpt>
      <trkpt lat="59.7910736" lon="17.6620527">
        <ele>10.2312</ele>
        <time>2014-06-01T12:58:36Z</time>
      </trkpt>
      <trkpt lat="59.7910823" lon="17.6618984">
        <ele>9.2699</ele>
        <time>2014-06-01T12:58:37Z</time>
      </trkpt>
      <trkpt lat="59.7910984" lon="17.6617558">
        <ele>8.78918</ele>
        <time>2014-06-01T12:58:38Z</time>
      </trkpt>
      <trkpt lat="59.7911215" lon="17.6616238">
        <ele>8.30859</ele>
        <time>2014-06-01T12:58:39Z</time>
      </trkpt>
      <trkpt lat="59.7911482" lon="17.6615021">
        <ele>8.30859</ele>
        <time>2014-06-01T12:58:40Z</time>
      </trkpt>
      <trkpt lat="59.7911796" lon="17.6613915">
        <ele>7.82788</ele>
        <time>2014-06-01T12:58:41Z</time>
      </trkpt>
      <trkpt lat="59.7912109" lon="17.6612886">
        <ele>7.82788</ele>
        <time>2014-06-01T12:58:42Z</time>
      </trkpt>
      <trkpt lat="59.7912407" lon="17.6611914">
        <ele>7.82788</ele>
        <time>2014-06-01T12:58:43Z</time>
      </trkpt>
      <trkpt lat="59.7912686" lon="17.6610996">
        <ele>7.82788</ele>
        <time>2014-06-01T12:58:44Z</time>
      </trkpt>
      <trkpt lat="59.7912952" lon="17.6610157">
        <ele>7.82788</ele>
        <time>2014-06-01T12:58:45Z</time>
      </trkpt>
      <trkpt lat="59.7913213" lon="17.6609411">
        <ele>7.82788</ele>
        <time>2014-06-01T12:58:46Z</time>
      </trkpt>
      <trkpt lat="59.7913463" lon="17.6608749">
        <ele>7.82788</ele>
        <time>2014-06-01T12:58:47Z</time>
      </trkpt>
      <trkpt lat="59.7913678" lon="17.6608145">
        <ele>8.30859</ele>
        <time>2014-06-01T12:58:48Z</time>
      </trkpt>
      <trkpt lat="59.7913864" lon="17.6607612">
        <ele>8.30859</ele>
        <time>2014-06-01T12:58:49Z</time>
      </trkpt>
      <trkpt lat="59.7914031" lon="17.660714">
        <ele>8.30859</ele>
        <time>2014-06-01T12:58:50Z</time>
      </trkpt>
      <trkpt lat="59.7914184" lon="17.6606685">
        <ele>8.78918</ele>
        <time>2014-06-01T12:58:51Z</time>
      </trkpt>
      <trkpt lat="59.7914299" lon="17.6606224">
        <ele>9.2699</ele>
        <time>2014-06-01T12:58:52Z</time>
      </trkpt>
      <trkpt lat="59.7914377" lon="17.6605759">
        <ele>9.75061</ele>
        <time>2014-06-01T12:58:53Z</time>
      </trkpt>
      <trkpt lat="59.7914448" lon="17.6605251">
        <ele>9.75061</ele>
        <time>2014-06-01T12:58:54Z</time>
      </trkpt>
      <trkpt lat="59.7914556" lon="17.6604744">
        <ele>10.2312</ele>
        <time>2014-06-01T12:58:55Z</time>
      </trkpt>
      <trkpt lat="59.7914681" lon="17.6604256">
        <ele>10.7118</ele>
        <time>2014-06-01T12:58:56Z</time>
      </trkpt>
      <trkpt lat="59.7914796" lon="17.66038">
        <ele>11.1925</ele>
        <time>2014-06-01T12:58:57Z</time>
      </trkpt>
      <trkpt lat="59.7914896" lon="17.6603348">
        <ele>11.6732</ele>
        <time>2014-06-01T12:58:58Z</time>
      </trkpt>
      <trkpt lat="59.7914989" lon="17.6602897">
        <ele>11.6732</ele>
        <time>2014-06-01T12:58:59Z</time>
      </trkpt>
      <trkpt lat="59.7915081" lon="17.6602459">
        <ele>12.1538</ele>
        <time>2014-06-01T12:59:00Z</time>
      </trkpt>
      <trkpt lat="59.7915152" lon="17.6602027">
        <ele>12.6344</ele>
        <time>2014-06-01T12:59:01Z</time>
      </trkpt>
      <trkpt lat="59.7915199" lon="17.6601562">
        <ele>13.1151</ele>
        <time>2014-06-01T12:59:02Z</time>
      </trkpt>
      <trkpt lat="59.7915251" lon="17.6601086">
        <ele>13.5958</ele>
        <time>2014-06-01T12:59:03Z</time>
      </trkpt>
      <trkpt lat="59.7915292" lon="17.6600614">
        <ele>14.0764</ele>
        <time>2014-06-01T12:59:04Z</time>
      </trkpt>
      <trkpt lat="59.7915303" lon="17.6600132">
        <ele>14.0764</ele>
        <time>2014-06-01T12:59:05Z</time>
      </trkpt>
      <trkpt lat="59.7915282" lon="17.6599621">
        <ele>14.557</ele>
        <time>2014-06-01T12:59:06Z</time>
      </trkpt>
      <trkpt lat="59.7915247" lon="17.6599107">
        <ele>15.0377</ele>
        <time>2014-06-01T12:59:07Z</time>
      </trkpt>
      <trkpt lat="59.7915181" lon="17.6598595">
        <ele>15.0377</ele>
        <time>2014-06-01T12:59:08Z</time>
      </trkpt>
      <trkpt lat="59.7915087" lon="17.6598097">
        <ele>15.999</ele>
        <time>2014-06-01T12:59:09Z</time>
      </trkpt>
      <trkpt lat="59.7914996" lon="17.6597627">
        <ele>16.4797</ele>
        <time>2014-06-01T12:59:10Z</time>
      </trkpt>
      <trkpt lat="59.7914905" lon="17.6597182">
        <ele>16.4797</ele>
        <time>2014-06-01T12:59:11Z</time>
      </trkpt>
      <trkpt lat="59.7914828" lon="17.6596766">
        <ele>16.9604</ele>
        <time>2014-06-01T12:59:12Z</time>
      </trkpt>
      <trkpt lat="59.7914761" lon="17.6596393">
        <ele>16.9604</ele>
        <time>2014-06-01T12:59:13Z</time>
      </trkpt>
      <trkpt lat="59.7914691" lon="17.6596026">
        <ele>16.9604</ele>
        <time>2014-06-01T12:59:14Z</time>
      </trkpt>
      <trkpt lat="59.791465" lon="17.6595725">
        <ele>16.9604</ele>
        <time>2014-06-01T12:59:15Z</time>
      </trkpt>
      <trkpt lat="59.791461" lon="17.6595378">
        <ele>16.9604</ele>
        <time>2014-06-01T12:59:16Z</time>
      </trkpt>
      <trkpt lat="59.7914652" lon="17.6595092">
        <ele>17.4412</ele>
        <time>2014-06-01T12:59:17Z</time>
      </trkpt>
      <trkpt lat="59.7914692" lon="17.6594767">
        <ele>17.9218</ele>
        <time>2014-06-01T12:59:18Z</time>
      </trkpt>
      <trkpt lat="59.7914761" lon="17.6594423">
        <ele>18.4023</ele>
        <time>2014-06-01T12:59:19Z</time>
      </trkpt>
      <trkpt lat="59.7914974" lon="17.6594187">
        <ele>19.8444</ele>
        <time>2014-06-01T12:59:20Z</time>
      </trkpt>
      <trkpt lat="59.791518" lon="17.6593985">
        <ele>20.325</ele>
        <time>2014-06-01T12:59:21Z</time>
      </trkpt>
      <trkpt lat="59.7915385" lon="17.6593762">
        <ele>20.325</ele>
        <time>2014-06-01T12:59:22Z</time>
      </trkpt>
      <trkpt lat="59.7915606" lon="17.6593565">
        <ele>20.8057</ele>
        <time>2014-06-01T12:59:23Z</time>
      </trkpt>
      <trkpt lat="59.791578" lon="17.6593332">
        <ele>21.2864</ele>
        <time>2014-06-01T12:59:24Z</time>
      </trkpt>
      <trkpt lat="59.7915984" lon="17.6593104">
        <ele>21.2864</ele>
        <time>2014-06-01T12:59:25Z</time>
      </trkpt>
      <trkpt lat="59.791616" lon="17.6592814">
        <ele>21.2864</ele>
        <time>2014-06-01T12:59:26Z</time>
      </trkpt>
      <trkpt lat="59.7916351" lon="17.6592504">
        <ele>21.767</ele>
        <time>2014-06-01T12:59:27Z</time>
      </trkpt>
      <trkpt lat="59.7916535" lon="17.6592212">
        <ele>21.767</ele>
        <time>2014-06-01T12:59:28Z</time>
      </trkpt>
      <trkpt lat="59.7916699" lon="17.6591937">
        <ele>21.767</ele>
        <time>2014-06-01T12:59:29Z</time>
      </trkpt>
      <trkpt lat="59.7916868" lon="17.6591704">
        <ele>21.767</ele>
        <time>2014-06-01T12:59:30Z</time>
      </trkpt>
      <trkpt lat="59.7917029" lon="17.6591473">
        <ele>22.2476</ele>
        <time>2014-06-01T12:59:31Z</time>
      </trkpt>
      <trkpt lat="59.7917199" lon="17.6591292">
        <ele>22.7283</ele>
        <time>2014-06-01T12:59:32Z</time>
      </trkpt>
      <trkpt lat="59.7917391" lon="17.6591134">
        <ele>23.6896</ele>
        <time>2014-06-01T12:59:33Z</time>
      </trkpt>
      <trkpt lat="59.7917629" lon="17.6590895">
        <ele>24.651</ele>
        <time>2014-06-01T12:59:34Z</time>
      </trkpt>
      <trkpt lat="59.7917884" lon="17.6590704">
        <ele>25.6123</ele>
        <time>2014-06-01T12:59:35Z</time>
      </trkpt>
      <trkpt lat="59.7918177" lon="17.6590476">
        <ele>26.0929</ele>
        <time>2014-06-01T12:59:36Z</time>
      </trkpt>
      <trkpt lat="59.79185" lon="17.6590134">
        <ele>26.0929</ele>
        <time>2014-06-01T12:59:37Z</time>
      </trkpt>
      <trkpt lat="59.7918876" lon="17.6589918">
        <ele>27.0543</ele>
        <time>2014-06-01T12:59:38Z</time>
      </trkpt>
      <trkpt lat="59.7919289" lon="17.6589813">
        <ele>27.0543</ele>
        <time>2014-06-01T12:59:39Z</time>
      </trkpt>
      <trkpt lat="59.7919831" lon="17.6589669">
        <ele>27.5349</ele>
        <time>2014-06-01T12:59:40Z</time>
      </trkpt>
      <trkpt lat="59.7920411" lon="17.6589555">
        <ele>28.0155</ele>
        <time>2014-06-01T12:59:41Z</time>
      </trkpt>
      <trkpt lat="59.792099" lon="17.6589576">
        <ele>28.4962</ele>
        <time>2014-06-01T12:59:42Z</time>
      </trkpt>
      <trkpt lat="59.7921575" lon="17.658968">
        <ele>29.4575</ele>
        <time>2014-06-01T12:59:43Z</time>
      </trkpt>
      <trkpt lat="59.7922145" lon="17.6589727">
        <ele>30.4188</ele>
        <time>2014-06-01T12:59:44Z</time>
      </trkpt>
      <trkpt lat="59.7922717" lon="17.6589696">
        <ele>31.8607</ele>
        <time>2014-06-01T12:59:45Z</time>
      </trkpt>
      <trkpt lat="59.792343" lon="17.6589592">
        <ele>37.1481</ele>
        <time>2014-06-01T12:59:46Z</time>
      </trkpt>
      <trkpt lat="59.7924027" lon="17.6589627">
        <ele>39.0707</ele>
        <time>2014-06-01T12:59:47Z</time>
      </trkpt>
      <trkpt lat="59.7924689" lon="17.6589726">
        <ele>40.0321</ele>
        <time>2014-06-01T12:59:48Z</time>
      </trkpt>
      <trkpt lat="59.7925384" lon="17.6589866">
        <ele>41.474</ele>
        <time>2014-06-01T12:59:49Z</time>
      </trkpt>
      <trkpt lat="59.7925959" lon="17.6590009">
        <ele>41.9547</ele>
        <time>2014-06-01T12:59:50Z</time>
      </trkpt>
      <trkpt lat="59.7926491" lon="17.6590201">
        <ele>41.9547</ele>
        <time>2014-06-01T12:59:51Z</time>
      </trkpt>
      <trkpt lat="59.7927353" lon="17.659038">
        <ele>48.2034</ele>
        <time>2014-06-01T12:59:52Z</time>
      </trkpt>
      <trkpt lat="59.7928052" lon="17.6590493">
        <ele>50.126</ele>
        <time>2014-06-01T12:59:53Z</time>
      </trkpt>
      <trkpt lat="59.7928711" lon="17.6590457">
        <ele>50.6066</ele>
        <time>2014-06-01T12:59:54Z</time>
      </trkpt>
      <trkpt lat="59.7929368" lon="17.6590379">
        <ele>50.6066</ele>
        <time>2014-06-01T12:59:55Z</time>
      </trkpt>
      <trkpt lat="59.7929985" lon="17.659024">
        <ele>50.126</ele>
        <time>2014-06-01T12:59:56Z</time>
      </trkpt>
      <trkpt lat="59.7930578" lon="17.6590115">
        <ele>50.126</ele>
        <time>2014-06-01T12:59:57Z</time>
      </trkpt>
      <trkpt lat="59.7931103" lon="17.6590047">
        <ele>48.684</ele>
        <time>2014-06-01T12:59:58Z</time>
      </trkpt>
      <trkpt lat="59.793159" lon="17.6589999">
        <ele>47.2418</ele>
        <time>2014-06-01T12:59:59Z</time>
      </trkpt>
      <trkpt lat="59.793216" lon="17.6589877">
        <ele>47.2418</ele>
        <time>2014-06-01T13:00:00Z</time>
      </trkpt>
      <trkpt lat="59.7932798" lon="17.6589821">
        <ele>46.7612</ele>
        <time>2014-06-01T13:00:01Z</time>
      </trkpt>
      <trkpt lat="59.7933376" lon="17.6589804">
        <ele>45.3192</ele>
        <time>2014-06-01T13:00:02Z</time>
      </trkpt>
      <trkpt lat="59.7933927" lon="17.6589819">
        <ele>43.8773</ele>
        <time>2014-06-01T13:00:03Z</time>
      </trkpt>
      <trkpt lat="59.793447" lon="17.6589914">
        <ele>43.3966</ele>
        <time>2014-06-01T13:00:04Z</time>
      </trkpt>
      <trkpt lat="59.7935013" lon="17.659011">
        <ele>43.8773</ele>
        <time>2014-06-01T13:00:05Z</time>
      </trkpt>
      <trkpt lat="59.7935554" lon="17.6590392">
        <ele>44.8386</ele>
        <time>2014-06-01T13:00:06Z</time>
      </trkpt>
      <trkpt lat="59.7936071" lon="17.6590644">
        <ele>43.3966</ele>
        <time>2014-06-01T13:00:07Z</time>
      </trkpt>
      <trkpt lat="59.7936592" lon="17.6590949">
        <ele>42.916</ele>
        <time>2014-06-01T13:00:08Z</time>
      </trkpt>
      <trkpt lat="59.7937155" lon="17.6591212">
        <ele>41.9547</ele>
        <time>2014-06-01T13:00:09Z</time>
      </trkpt>
      <trkpt lat="59.7937759" lon="17.6591591">
        <ele>42.916</ele>
        <time>2014-06-01T13:00:10Z</time>
      </trkpt>
      <trkpt lat="59.793832" lon="17.659197">
        <ele>42.4354</ele>
        <time>2014-06-01T13:00:11Z</time>
      </trkpt>
      <trkpt lat="59.7938874" lon="17.6592258">
        <ele>41.474</ele>
        <time>2014-06-01T13:00:12Z</time>
      </trkpt>
      <trkpt lat="59.7939442" lon="17.6592478">
        <ele>40.5128</ele>
        <time>2014-06-01T13:00:13Z</time>
      </trkpt>
      <trkpt lat="59.7940048" lon="17.6592632">
        <ele>40.0321</ele>
        <time>2014-06-01T13:00:14Z</time>
      </trkpt>
      <trkpt lat="59.7940638" lon="17.6592787">
        <ele>40.0321</ele>
        <time>2014-06-01T13:00:15Z</time>
      </trkpt>
      <trkpt lat="59.794119" lon="17.6592849">
        <ele>39.5513</ele>
        <time>2014-06-01T13:00:16Z</time>
      </trkpt>
      <trkpt lat="59.7941659" lon="17.6592881">
        <ele>38.5901</ele>
        <time>2014-06-01T13:00:17Z</time>
      </trkpt>
      <trkpt lat="59.7942094" lon="17.6592845">
        <ele>38.1094</ele>
        <time>2014-06-01T13:00:18Z</time>
      </trkpt>
      <trkpt lat="59.7942503" lon="17.6592668">
        <ele>37.1481</ele>
        <time>2014-06-01T13:00:19Z</time>
      </trkpt>
      <trkpt lat="59.7943001" lon="17.6592538">
        <ele>35.2255</ele>
        <time>2014-06-01T13:00:20Z</time>
      </trkpt>
      <trkpt lat="59.7943582" lon="17.6592483">
        <ele>34.7449</ele>
        <time>2014-06-01T13:00:21Z</time>
      </trkpt>
      <trkpt lat="59.7944204" lon="17.659242">
        <ele>33.7834</ele>
        <time>2014-06-01T13:00:22Z</time>
      </trkpt>
      <trkpt lat="59.7944831" lon="17.6592333">
        <ele>31.8607</ele>
        <time>2014-06-01T13:00:23Z</time>
      </trkpt>
      <trkpt lat="59.7945525" lon="17.6592174">
        <ele>30.4188</ele>
        <time>2014-06-01T13:00:24Z</time>
      </trkpt>
      <trkpt lat="59.7946126" lon="17.6591995">
        <ele>29.4575</ele>
        <time>2014-06-01T13:00:25Z</time>
      </trkpt>
      <trkpt lat="59.794678" lon="17.659195">
        <ele>28.9769</ele>
        <time>2014-06-01T13:00:26Z</time>
      </trkpt>
      <trkpt lat="59.7947425" lon="17.659199">
        <ele>28.0155</ele>
        <time>2014-06-01T13:00:27Z</time>
      </trkpt>
      <trkpt lat="59.7947963" lon="17.659214">
        <ele>27.0543</ele>
        <time>2014-06-01T13:00:28Z</time>
      </trkpt>
      <trkpt lat="59.7948592" lon="17.6592351">
        <ele>27.5349</ele>
        <time>2014-06-01T13:00:29Z</time>
      </trkpt>
      <trkpt lat="59.7949175" lon="17.6592658">
        <ele>28.0155</ele>
        <time>2014-06-01T13:00:30Z</time>
      </trkpt>
      <trkpt lat="59.7949794" lon="17.6593011">
        <ele>28.4962</ele>
        <time>2014-06-01T13:00:31Z</time>
      </trkpt>
      <trkpt lat="59.7950414" lon="17.6593377">
        <ele>28.4962</ele>
        <time>2014-06-01T13:00:32Z</time>
      </trkpt>
      <trkpt lat="59.7951057" lon="17.6593721">
        <ele>29.4575</ele>
        <time>2014-06-01T13:00:33Z</time>
      </trkpt>
      <trkpt lat="59.7951737" lon="17.6594072">
        <ele>30.4188</ele>
        <time>2014-06-01T13:00:34Z</time>
      </trkpt>
      <trkpt lat="59.7952473" lon="17.6594528">
        <ele>30.8995</ele>
        <time>2014-06-01T13:00:35Z</time>
      </trkpt>
      <trkpt lat="59.7953166" lon="17.6594948">
        <ele>30.8995</ele>
        <time>2014-06-01T13:00:36Z</time>
      </trkpt>
      <trkpt lat="59.7953838" lon="17.6595259">
        <ele>31.8607</ele>
        <time>2014-06-01T13:00:37Z</time>
      </trkpt>
      <trkpt lat="59.7954526" lon="17.6595573">
        <ele>32.8223</ele>
        <time>2014-06-01T13:00:38Z</time>
      </trkpt>
      <trkpt lat="59.7955254" lon="17.659583">
        <ele>33.3029</ele>
        <time>2014-06-01T13:00:39Z</time>
      </trkpt>
      <trkpt lat="59.7956025" lon="17.6596096">
        <ele>33.7834</ele>
        <time>2014-06-01T13:00:40Z</time>
      </trkpt>
      <trkpt lat="59.7956801" lon="17.6596417">
        <ele>35.2255</ele>
        <time>2014-06-01T13:00:41Z</time>
      </trkpt>
      <trkpt lat="59.7957584" lon="17.6596776">
        <ele>36.1868</ele>
        <time>2014-06-01T13:00:42Z</time>
      </trkpt>
      <trkpt lat="59.7958366" lon="17.6597077">
        <ele>36.1868</ele>
        <time>2014-06-01T13:00:43Z</time>
      </trkpt>
      <trkpt lat="59.7959059" lon="17.6597339">
        <ele>37.1481</ele>
        <time>2014-06-01T13:00:44Z</time>
      </trkpt>
      <trkpt lat="59.7959722" lon="17.6597665">
        <ele>39.5513</ele>
        <time>2014-06-01T13:00:45Z</time>
      </trkpt>
      <trkpt lat="59.7960366" lon="17.6597956">
        <ele>40.5128</ele>
        <time>2014-06-01T13:00:46Z</time>
      </trkpt>
      <trkpt lat="59.7960972" lon="17.6598236">
        <ele>41.474</ele>
        <time>2014-06-01T13:00:47Z</time>
      </trkpt>
      <trkpt lat="59.7961552" lon="17.6598443">
        <ele>43.3966</ele>
        <time>2014-06-01T13:00:48Z</time>
      </trkpt>
      <trkpt lat="59.7962042" lon="17.65986">
        <ele>44.358</ele>
        <time>2014-06-01T13:00:49Z</time>
      </trkpt>
      <trkpt lat="59.7962557" lon="17.6598662">
        <ele>45.7999</ele>
        <time>2014-06-01T13:00:50Z</time>
      </trkpt>
      <trkpt lat="59.7963052" lon="17.6598677">
        <ele>45.7999</ele>
        <time>2014-06-01T13:00:51Z</time>
      </trkpt>
      <trkpt lat="59.79635" lon="17.6598499">
        <ele>46.7612</ele>
        <time>2014-06-01T13:00:52Z</time>
      </trkpt>
      <trkpt lat="59.7963971" lon="17.6598329">
        <ele>46.2806</ele>
        <time>2014-06-01T13:00:53Z</time>
      </trkpt>
      <trkpt lat="59.7964402" lon="17.6598356">
        <ele>47.7225</ele>
        <time>2014-06-01T13:00:54Z</time>
      </trkpt>
      <trkpt lat="59.7964829" lon="17.6598521">
        <ele>49.1646</ele>
        <time>2014-06-01T13:00:55Z</time>
      </trkpt>
      <trkpt lat="59.7965246" lon="17.6598724">
        <ele>51.0872</ele>
        <time>2014-06-01T13:00:56Z</time>
      </trkpt>
      <trkpt lat="59.7965707" lon="17.6599014">
        <ele>53.4905</ele>
        <time>2014-06-01T13:00:57Z</time>
      </trkpt>
      <trkpt lat="59.7966089" lon="17.6599329">
        <ele>53.9712</ele>
        <time>2014-06-01T13:00:58Z</time>
      </trkpt>
      <trkpt lat="59.7966513" lon="17.6599539">
        <ele>54.9324</ele>
        <time>2014-06-01T13:00:59Z</time>
      </trkpt>
      <trkpt lat="59.7966929" lon="17.6599787">
        <ele>55.8938</ele>
        <time>2014-06-01T13:01:00Z</time>
      </trkpt>
      <trkpt lat="59.7967318" lon="17.6600138">
        <ele>56.8551</ele>
        <time>2014-06-01T13:01:01Z</time>
      </trkpt>
      <trkpt lat="59.79677" lon="17.6600423">
        <ele>57.3358</ele>
        <time>2014-06-01T13:01:02Z</time>
      </trkpt>
      <trkpt lat="59.7968064" lon="17.6600744">
        <ele>57.8165</ele>
        <time>2014-06-01T13:01:03Z</time>
      </trkpt>
      <trkpt lat="59.796845" lon="17.6601041">
        <ele>58.7777</ele>
        <time>2014-06-01T13:01:04Z</time>
      </trkpt>
      <trkpt lat="59.7968802" lon="17.6601377">
        <ele>59.2584</ele>
        <time>2014-06-01T13:01:05Z</time>
      </trkpt>
      <trkpt lat="59.7969167" lon="17.6601728">
        <ele>62.1423</ele>
        <time>2014-06-01T13:01:06Z</time>
      </trkpt>
      <trkpt lat="59.7969465" lon="17.6602013">
        <ele>62.1423</ele>
        <time>2014-06-01T13:01:07Z</time>
      </trkpt>
      <trkpt lat="59.7969795" lon="17.6602314">
        <ele>64.0651</ele>
        <time>2014-06-01T13:01:08Z</time>
      </trkpt>
      <trkpt lat="59.7970094" lon="17.6602583">
        <ele>64.0651</ele>
        <time>2014-06-01T13:01:09Z</time>
      </trkpt>
      <trkpt lat="59.7970395" lon="17.6602847">
        <ele>64.0651</ele>
        <time>2014-06-01T13:01:10Z</time>
      </trkpt>
      <trkpt lat="59.7970689" lon="17.6603081">
        <ele>63.1036</ele>
        <time>2014-06-01T13:01:11Z</time>
      </trkpt>
      <trkpt lat="59.7970938" lon="17.6603277">
        <ele>61.181</ele>
        <time>2014-06-01T13:01:12Z</time>
      </trkpt>
      <trkpt lat="59.7971216" lon="17.6603434">
        <ele>60.2197</ele>
        <time>2014-06-01T13:01:13Z</time>
      </trkpt>
      <trkpt lat="59.7971498" lon="17.6603622">
        <ele>60.7003</ele>
        <time>2014-06-01T13:01:14Z</time>
      </trkpt>
      <trkpt lat="59.7971747" lon="17.6603799">
        <ele>61.181</ele>
        <time>2014-06-01T13:01:15Z</time>
      </trkpt>
      <trkpt lat="59.7971962" lon="17.6603972">
        <ele>61.181</ele>
        <time>2014-06-01T13:01:16Z</time>
      </trkpt>
      <trkpt lat="59.7972162" lon="17.660408">
        <ele>62.6229</ele>
        <time>2014-06-01T13:01:17Z</time>
      </trkpt>
      <trkpt lat="59.7972394" lon="17.6604201">
        <ele>64.0651</ele>
        <time>2014-06-01T13:01:18Z</time>
      </trkpt>
      <trkpt lat="59.7972612" lon="17.660432">
        <ele>65.0264</ele>
        <time>2014-06-01T13:01:19Z</time>
      </trkpt>
      <trkpt lat="59.7972772" lon="17.660448">
        <ele>65.0264</ele>
        <time>2014-06-01T13:01:20Z</time>
      </trkpt>
      <trkpt lat="59.7972902" lon="17.66045">
        <ele>64.0651</ele>
        <time>2014-06-01T13:01:21Z</time>
      </trkpt>
      <trkpt lat="59.7973043" lon="17.6604488">
        <ele>63.5844</ele>
        <time>2014-06-01T13:01:22Z</time>
      </trkpt>
      <trkpt lat="59.797326" lon="17.6604572">
        <ele>63.5844</ele>
        <time>2014-06-01T13:01:23Z</time>
      </trkpt>
      <trkpt lat="59.797346" lon="17.6604583">
        <ele>62.1423</ele>
        <time>2014-06-01T13:01:24Z</time>
      </trkpt>
      <trkpt lat="59.7973692" lon="17.6604666">
        <ele>62.6229</ele>
        <time>2014-06-01T13:01:25Z</time>
      </trkpt>
      <trkpt lat="59.797389" lon="17.6604732">
        <ele>62.6229</ele>
        <time>2014-06-01T13:01:26Z</time>
      </trkpt>
      <trkpt lat="59.7974093" lon="17.6604815">
        <ele>63.5844</ele>
        <time>2014-06-01T13:01:27Z</time>
      </trkpt>
      <trkpt lat="59.7974337" lon="17.6604903">
        <ele>64.0651</ele>
        <time>2014-06-01T13:01:28Z</time>
      </trkpt>
      <trkpt lat="59.7974581" lon="17.6604941">
        <ele>64.0651</ele>
        <time>2014-06-01T13:01:29Z</time>
      </trkpt>
      <trkpt lat="59.7974751" lon="17.6604935">
        <ele>64.0651</ele>
        <time>2014-06-01T13:01:30Z</time>
      </trkpt>
      <trkpt lat="59.7974868" lon="17.6604858">
        <ele>62.1423</ele>
        <time>2014-06-01T13:01:31Z</time>
      </trkpt>
      <trkpt lat="59.7975027" lon="17.6604749">
        <ele>61.181</ele>
        <time>2014-06-01T13:01:32Z</time>
      </trkpt>
      <trkpt lat="59.7975176" lon="17.6604719">
        <ele>61.181</ele>
        <time>2014-06-01T13:01:33Z</time>
      </trkpt>
      <trkpt lat="59.7975336" lon="17.6604727">
        <ele>60.7003</ele>
        <time>2014-06-01T13:01:34Z</time>
      </trkpt>
      <trkpt lat="59.7975513" lon="17.6604755">
        <ele>60.7003</ele>
        <time>2014-06-01T13:01:35Z</time>
      </trkpt>
      <trkpt lat="59.7975663" lon="17.6604775">
        <ele>59.2584</ele>
        <time>2014-06-01T13:01:36Z</time>
      </trkpt>
      <trkpt lat="59.7975906" lon="17.6604759">
        <ele>59.7391</ele>
        <time>2014-06-01T13:01:37Z</time>
      </trkpt>
      <trkpt lat="59.797615" lon="17.6604739">
        <ele>60.2197</ele>
        <time>2014-06-01T13:01:38Z</time>
      </trkpt>
      <trkpt lat="59.7976387" lon="17.6604728">
        <ele>62.1423</ele>
        <time>2014-06-01T13:01:39Z</time>
      </trkpt>
      <trkpt lat="59.7976617" lon="17.66047">
        <ele>64.5457</ele>
        <time>2014-06-01T13:01:40Z</time>
      </trkpt>
      <trkpt lat="59.7976837" lon="17.6604733">
        <ele>66.4683</ele>
        <time>2014-06-01T13:01:41Z</time>
      </trkpt>
      <trkpt lat="59.7977019" lon="17.6604772">
        <ele>67.9103</ele>
        <time>2014-06-01T13:01:42Z</time>
      </trkpt>
      <trkpt lat="59.7977135" lon="17.6604773">
        <ele>67.4297</ele>
        <time>2014-06-01T13:01:43Z</time>
      </trkpt>
      <trkpt lat="59.797728" lon="17.6604759">
        <ele>66.949</ele>
        <time>2014-06-01T13:01:44Z</time>
      </trkpt>
      <trkpt lat="59.7977427" lon="17.6604737">
        <ele>66.949</ele>
        <time>2014-06-01T13:01:45Z</time>
      </trkpt>
      <trkpt lat="59.7977495" lon="17.6604698">
        <ele>65.0264</ele>
        <time>2014-06-01T13:01:46Z</time>
      </trkpt>
      <trkpt lat="59.7977606" lon="17.6604687">
        <ele>64.0651</ele>
        <time>2014-06-01T13:01:47Z</time>
      </trkpt>
      <trkpt lat="59.7977702" lon="17.6604702">
        <ele>62.6229</ele>
        <time>2014-06-01T13:01:48Z</time>
      </trkpt>
      <trkpt lat="59.7977816" lon="17.6604712">
        <ele>62.6229</ele>
        <time>2014-06-01T13:01:49Z</time>
      </trkpt>
      <trkpt lat="59.7977916" lon="17.6604688">
        <ele>62.1423</ele>
        <time>2014-06-01T13:01:50Z</time>
      </trkpt>
      <trkpt lat="59.7978021" lon="17.6604641">
        <ele>61.181</ele>
        <time>2014-06-01T13:01:51Z</time>
      </trkpt>
      <trkpt lat="59.7978132" lon="17.6604578">
        <ele>61.181</ele>
        <time>2014-06-01T13:01:52Z</time>
      </trkpt>
      <trkpt lat="59.7978263" lon="17.6604567">
        <ele>60.7003</ele>
        <time>2014-06-01T13:01:53Z</time>
      </trkpt>
      <trkpt lat="59.7978382" lon="17.6604593">
        <ele>59.7391</ele>
        <time>2014-06-01T13:01:54Z</time>
      </trkpt>
      <trkpt lat="59.7978484" lon="17.6604643">
        <ele>59.2584</ele>
        <time>2014-06-01T13:01:55Z</time>
      </trkpt>
      <trkpt lat="59.7978611" lon="17.6604712">
        <ele>59.7391</ele>
        <time>2014-06-01T13:01:56Z</time>
      </trkpt>
      <trkpt lat="59.7978741" lon="17.6604817">
        <ele>59.2584</ele>
        <time>2014-06-01T13:01:57Z</time>
      </trkpt>
      <trkpt lat="59.7978906" lon="17.6604944">
        <ele>58.7777</ele>
        <time>2014-06-01T13:01:58Z</time>
      </trkpt>
      <trkpt lat="59.7979116" lon="17.6605088">
        <ele>58.7777</ele>
        <time>2014-06-01T13:01:59Z</time>
      </trkpt>
      <trkpt lat="59.7979304" lon="17.6605349">
        <ele>57.8165</ele>
        <time>2014-06-01T13:02:00Z</time>
      </trkpt>
      <trkpt lat="59.7979492" lon="17.6605676">
        <ele>57.3358</ele>
        <time>2014-06-01T13:02:01Z</time>
      </trkpt>
      <trkpt lat="59.7979654" lon="17.6606026">
        <ele>55.8938</ele>
        <time>2014-06-01T13:02:02Z</time>
      </trkpt>
      <trkpt lat="59.7979806" lon="17.6606396">
        <ele>54.4518</ele>
        <time>2014-06-01T13:02:03Z</time>
      </trkpt>
      <trkpt lat="59.7979961" lon="17.6606742">
        <ele>53.9712</ele>
        <time>2014-06-01T13:02:04Z</time>
      </trkpt>
      <trkpt lat="59.7980097" lon="17.6607032">
        <ele>52.5292</ele>
        <time>2014-06-01T13:02:05Z</time>
      </trkpt>
      <trkpt lat="59.7980247" lon="17.660724">
        <ele>52.5292</ele>
        <time>2014-06-01T13:02:06Z</time>
      </trkpt>
      <trkpt lat="59.7980434" lon="17.6607319">
        <ele>51.5679</ele>
        <time>2014-06-01T13:02:07Z</time>
      </trkpt>
      <trkpt lat="59.7980641" lon="17.6607234">
        <ele>50.6066</ele>
        <time>2014-06-01T13:02:08Z</time>
      </trkpt>
      <trkpt lat="59.7980858" lon="17.6606949">
        <ele>49.1646</ele>
        <time>2014-06-01T13:02:09Z</time>
      </trkpt>
      <trkpt lat="59.7981084" lon="17.6606588">
        <ele>47.7225</ele>
        <time>2014-06-01T13:02:10Z</time>
      </trkpt>
      <trkpt lat="59.7981245" lon="17.6606203">
        <ele>46.2806</ele>
        <time>2014-06-01T13:02:11Z</time>
      </trkpt>
      <trkpt lat="59.7981354" lon="17.6605733">
        <ele>44.358</ele>
        <time>2014-06-01T13:02:12Z</time>
      </trkpt>
      <trkpt lat="59.7981527" lon="17.6605177">
        <ele>43.3966</ele>
        <time>2014-06-01T13:02:13Z</time>
      </trkpt>
      <trkpt lat="59.7981737" lon="17.6604516">
        <ele>41.9547</ele>
        <time>2014-06-01T13:02:14Z</time>
      </trkpt>
      <trkpt lat="59.7981993" lon="17.6604047">
        <ele>41.474</ele>
        <time>2014-06-01T13:02:15Z</time>
      </trkpt>
      <trkpt lat="59.7982277" lon="17.6603657">
        <ele>39.5513</ele>
        <time>2014-06-01T13:02:16Z</time>
      </trkpt>
      <trkpt lat="59.7982612" lon="17.6603485">
        <ele>39.0707</ele>
        <time>2014-06-01T13:02:17Z</time>
      </trkpt>
      <trkpt lat="59.7982905" lon="17.6603524">
        <ele>37.6287</ele>
        <time>2014-06-01T13:02:18Z</time>
      </trkpt>
      <trkpt lat="59.7983236" lon="17.660363">
        <ele>38.1094</ele>
        <time>2014-06-01T13:02:19Z</time>
      </trkpt>
      <trkpt lat="59.7983537" lon="17.6603986">
        <ele>38.1094</ele>
        <time>2014-06-01T13:02:20Z</time>
      </trkpt>
      <trkpt lat="59.7983795" lon="17.6604609">
        <ele>39.0707</ele>
        <time>2014-06-01T13:02:21Z</time>
      </trkpt>
      <trkpt lat="59.7984143" lon="17.6605338">
        <ele>40.0321</ele>
        <time>2014-06-01T13:02:22Z</time>
      </trkpt>
      <trkpt lat="59.7984485" lon="17.6605985">
        <ele>40.9934</ele>
        <time>2014-06-01T13:02:23Z</time>
      </trkpt>
      <trkpt lat="59.7984798" lon="17.6606613">
        <ele>41.474</ele>
        <time>2014-06-01T13:02:24Z</time>
      </trkpt>
      <trkpt lat="59.7985209" lon="17.6607107">
        <ele>40.9934</ele>
        <time>2014-06-01T13:02:25Z</time>
      </trkpt>
      <trkpt lat="59.7985643" lon="17.6607525">
        <ele>40.0321</ele>
        <time>2014-06-01T13:02:26Z</time>
      </trkpt>
      <trkpt lat="59.7986089" lon="17.6607982">
        <ele>39.0707</ele>
        <time>2014-06-01T13:02:27Z</time>
      </trkpt>
      <trkpt lat="59.7986466" lon="17.6608415">
        <ele>38.1094</ele>
        <time>2014-06-01T13:02:28Z</time>
      </trkpt>
      <trkpt lat="59.7986794" lon="17.6608934">
        <ele>38.1094</ele>
        <time>2014-06-01T13:02:29Z</time>
      </trkpt>
      <trkpt lat="59.7987096" lon="17.6609533">
        <ele>38.5901</ele>
        <time>2014-06-01T13:02:30Z</time>
      </trkpt>
      <trkpt lat="59.7987447" lon="17.6609982">
        <ele>37.6287</ele>
        <time>2014-06-01T13:02:31Z</time>
      </trkpt>
      <trkpt lat="59.7987803" lon="17.6610395">
        <ele>37.6287</ele>
        <time>2014-06-01T13:02:32Z</time>
      </trkpt>
      <trkpt lat="59.7988143" lon="17.6610778">
        <ele>37.1481</ele>
        <time>2014-06-01T13:02:33Z</time>
      </trkpt>
      <trkpt lat="59.7988411" lon="17.6611208">
        <ele>35.7061</ele>
        <time>2014-06-01T13:02:34Z</time>
      </trkpt>
      <trkpt lat="59.7988649" lon="17.6611639">
        <ele>33.7834</ele>
        <time>2014-06-01T13:02:35Z</time>
      </trkpt>
      <trkpt lat="59.7988898" lon="17.6612089">
        <ele>34.2642</ele>
        <time>2014-06-01T13:02:36Z</time>
      </trkpt>
      <trkpt lat="59.7989184" lon="17.6612549">
        <ele>34.2642</ele>
        <time>2014-06-01T13:02:37Z</time>
      </trkpt>
      <trkpt lat="59.7989353" lon="17.6612943">
        <ele>33.7834</ele>
        <time>2014-06-01T13:02:38Z</time>
      </trkpt>
      <trkpt lat="59.7989555" lon="17.661331">
        <ele>32.8223</ele>
        <time>2014-06-01T13:02:39Z</time>
      </trkpt>
      <trkpt lat="59.7989697" lon="17.6613715">
        <ele>30.8995</ele>
        <time>2014-06-01T13:02:40Z</time>
      </trkpt>
      <trkpt lat="59.7989893" lon="17.6614112">
        <ele>29.9381</ele>
        <time>2014-06-01T13:02:41Z</time>
      </trkpt>
      <trkpt lat="59.7990066" lon="17.6614513">
        <ele>29.9381</ele>
        <time>2014-06-01T13:02:42Z</time>
      </trkpt>
      <trkpt lat="59.7990336" lon="17.6614851">
        <ele>30.4188</ele>
        <time>2014-06-01T13:02:43Z</time>
      </trkpt>
      <trkpt lat="59.7990585" lon="17.6615231">
        <ele>29.9381</ele>
        <time>2014-06-01T13:02:44Z</time>
      </trkpt>
      <trkpt lat="59.7990753" lon="17.6615596">
        <ele>30.4188</ele>
        <time>2014-06-01T13:02:45Z</time>
      </trkpt>
      <trkpt lat="59.7991011" lon="17.6615979">
        <ele>31.8607</ele>
        <time>2014-06-01T13:02:46Z</time>
      </trkpt>
      <trkpt lat="59.7991204" lon="17.6616314">
        <ele>31.8607</ele>
        <time>2014-06-01T13:02:47Z</time>
      </trkpt>
      <trkpt lat="59.7991413" lon="17.6616596">
        <ele>32.3416</ele>
        <time>2014-06-01T13:02:48Z</time>
      </trkpt>
      <trkpt lat="59.7991602" lon="17.6616911">
        <ele>32.3416</ele>
        <time>2014-06-01T13:02:49Z</time>
      </trkpt>
      <trkpt lat="59.7991762" lon="17.6617135">
        <ele>32.3416</ele>
        <time>2014-06-01T13:02:50Z</time>
      </trkpt>
      <trkpt lat="59.7991964" lon="17.6617376">
        <ele>31.8607</ele>
        <time>2014-06-01T13:02:51Z</time>
      </trkpt>
      <trkpt lat="59.7992124" lon="17.6617629">
        <ele>30.8995</ele>
        <time>2014-06-01T13:02:52Z</time>
      </trkpt>
      <trkpt lat="59.7992258" lon="17.6617933">
        <ele>29.9381</ele>
        <time>2014-06-01T13:02:53Z</time>
      </trkpt>
      <trkpt lat="59.7992462" lon="17.6618287">
        <ele>30.4188</ele>
        <time>2014-06-01T13:02:54Z</time>
      </trkpt>
      <trkpt lat="59.7992637" lon="17.6618626">
        <ele>30.4188</ele>
        <time>2014-06-01T13:02:55Z</time>
      </trkpt>
      <trkpt lat="59.7992855" lon="17.6618868">
        <ele>31.8607</ele>
        <time>2014-06-01T13:02:56Z</time>
      </trkpt>
      <trkpt lat="59.7992938" lon="17.6619107">
        <ele>32.3416</ele>
        <time>2014-06-01T13:02:57Z</time>
      </trkpt>
      <trkpt lat="59.7993074" lon="17.6619305">
        <ele>32.3416</ele>
        <time>2014-06-01T13:02:58Z</time>
      </trkpt>
      <trkpt lat="59.7993207" lon="17.6619582">
        <ele>31.3801</ele>
        <time>2014-06-01T13:02:59Z</time>
      </trkpt>
      <trkpt lat="59.7993406" lon="17.6619874">
        <ele>30.8995</ele>
        <time>2014-06-01T13:03:00Z</time>
      </trkpt>
      <trkpt lat="59.7993568" lon="17.6620306">
        <ele>29.9381</ele>
        <time>2014-06-01T13:03:01Z</time>
      </trkpt>
      <trkpt lat="59.7993713" lon="17.6620755">
        <ele>29.9381</ele>
        <time>2014-06-01T13:03:02Z</time>
      </trkpt>
      <trkpt lat="59.7993844" lon="17.6621137">
        <ele>29.4575</ele>
        <time>2014-06-01T13:03:03Z</time>
      </trkpt>
      <trkpt lat="59.7994001" lon="17.6621461">
        <ele>28.9769</ele>
        <time>2014-06-01T13:03:04Z</time>
      </trkpt>
      <trkpt lat="59.7994228" lon="17.662186">
        <ele>30.4188</ele>
        <time>2014-06-01T13:03:05Z</time>
      </trkpt>
      <trkpt lat="59.7994436" lon="17.6622209">
        <ele>30.4188</ele>
        <time>2014-06-01T13:03:06Z</time>
      </trkpt>
      <trkpt lat="59.799458" lon="17.6622531">
        <ele>29.4575</ele>
        <time>2014-06-01T13:03:07Z</time>
      </trkpt>
      <trkpt lat="59.7994755" lon="17.6622865">
        <ele>29.4575</ele>
        <time>2014-06-01T13:03:08Z</time>
      </trkpt>
      <trkpt lat="59.7994959" lon="17.6623242">
        <ele>29.9381</ele>
        <time>2014-06-01T13:03:09Z</time>
      </trkpt>
      <trkpt lat="59.7995198" lon="17.6623704">
        <ele>29.4575</ele>
        <time>2014-06-01T13:03:10Z</time>
      </trkpt>
      <trkpt lat="59.79954" lon="17.6624118">
        <ele>28.9769</ele>
        <time>2014-06-01T13:03:11Z</time>
      </trkpt>
      <trkpt lat="59.7995571" lon="17.662456">
        <ele>27.5349</ele>
        <time>2014-06-01T13:03:12Z</time>
      </trkpt>
      <trkpt lat="59.799577" lon="17.6624988">
        <ele>27.0543</ele>
        <time>2014-06-01T13:03:13Z</time>
      </trkpt>
      <trkpt lat="59.7995928" lon="17.6625395">
        <ele>26.5736</ele>
        <time>2014-06-01T13:03:14Z</time>
      </trkpt>
      <trkpt lat="59.7996132" lon="17.6625807">
        <ele>26.5736</ele>
        <time>2014-06-01T13:03:15Z</time>
      </trkpt>
      <trkpt lat="59.7996312" lon="17.6626184">
        <ele>26.0929</ele>
        <time>2014-06-01T13:03:16Z</time>
      </trkpt>
      <trkpt lat="59.7996464" lon="17.6626552">
        <ele>26.0929</ele>
        <time>2014-06-01T13:03:17Z</time>
      </trkpt>
      <trkpt lat="59.7996606" lon="17.6626918">
        <ele>25.1317</ele>
        <time>2014-06-01T13:03:18Z</time>
      </trkpt>
      <trkpt lat="59.7996719" lon="17.6627311">
        <ele>23.209</ele>
        <time>2014-06-01T13:03:19Z</time>
      </trkpt>
      <trkpt lat="59.7996882" lon="17.6627705">
        <ele>23.6896</ele>
        <time>2014-06-01T13:03:20Z</time>
      </trkpt>
      <trkpt lat="59.7997056" lon="17.6628058">
        <ele>23.209</ele>
        <time>2014-06-01T13:03:21Z</time>
      </trkpt>
      <trkpt lat="59.7997181" lon="17.6628412">
        <ele>23.6896</ele>
        <time>2014-06-01T13:03:22Z</time>
      </trkpt>
      <trkpt lat="59.7997331" lon="17.6628803">
        <ele>23.6896</ele>
        <time>2014-06-01T13:03:23Z</time>
      </trkpt>
      <trkpt lat="59.7997508" lon="17.6629195">
        <ele>24.1703</ele>
        <time>2014-06-01T13:03:24Z</time>
      </trkpt>
      <trkpt lat="59.7997612" lon="17.6629551">
        <ele>23.6896</ele>
        <time>2014-06-01T13:03:25Z</time>
      </trkpt>
      <trkpt lat="59.7997741" lon="17.6629923">
        <ele>24.651</ele>
        <time>2014-06-01T13:03:26Z</time>
      </trkpt>
      <trkpt lat="59.7997838" lon="17.6630239">
        <ele>24.651</ele>
        <time>2014-06-01T13:03:27Z</time>
      </trkpt>
      <trkpt lat="59.7997899" lon="17.6630486">
        <ele>24.651</ele>
        <time>2014-06-01T13:03:28Z</time>
      </trkpt>
      <trkpt lat="59.7997943" lon="17.6630749">
        <ele>25.6123</ele>
        <time>2014-06-01T13:03:29Z</time>
      </trkpt>
      <trkpt lat="59.7997958" lon="17.663099">
        <ele>24.651</ele>
        <time>2014-06-01T13:03:30Z</time>
      </trkpt>
      <trkpt lat="59.7998005" lon="17.6631297">
        <ele>25.1317</ele>
        <time>2014-06-01T13:03:31Z</time>
      </trkpt>
      <trkpt lat="59.7998003" lon="17.6631654">
        <ele>24.651</ele>
        <time>2014-06-01T13:03:32Z</time>
      </trkpt>
      <trkpt lat="59.7998005" lon="17.6632015">
        <ele>24.651</ele>
        <time>2014-06-01T13:03:33Z</time>
      </trkpt>
      <trkpt lat="59.7998031" lon="17.6632365">
        <ele>25.1317</ele>
        <time>2014-06-01T13:03:34Z</time>
      </trkpt>
      <trkpt lat="59.7998045" lon="17.6632664">
        <ele>23.6896</ele>
        <time>2014-06-01T13:03:35Z</time>
      </trkpt>
      <trkpt lat="59.7998108" lon="17.6632965">
        <ele>23.6896</ele>
        <time>2014-06-01T13:03:36Z</time>
      </trkpt>
      <trkpt lat="59.7998153" lon="17.663329">
        <ele>21.2864</ele>
        <time>2014-06-01T13:03:37Z</time>
      </trkpt>
      <trkpt lat="59.799821" lon="17.6633563">
        <ele>20.325</ele>
        <time>2014-06-01T13:03:38Z</time>
      </trkpt>
      <trkpt lat="59.7998292" lon="17.6633872">
        <ele>19.3638</ele>
        <time>2014-06-01T13:03:39Z</time>
      </trkpt>
      <trkpt lat="59.7998407" lon="17.6634191">
        <ele>18.4023</ele>
        <time>2014-06-01T13:03:40Z</time>
      </trkpt>
      <trkpt lat="59.7998496" lon="17.6634477">
        <ele>17.9218</ele>
        <time>2014-06-01T13:03:41Z</time>
      </trkpt>
      <trkpt lat="59.7998559" lon="17.6634773">
        <ele>17.4412</ele>
        <time>2014-06-01T13:03:42Z</time>
      </trkpt>
      <trkpt lat="59.7998638" lon="17.66351">
        <ele>16.9604</ele>
        <time>2014-06-01T13:03:43Z</time>
      </trkpt>
      <trkpt lat="59.7998691" lon="17.6635544">
        <ele>15.999</ele>
        <time>2014-06-01T13:03:44Z</time>
      </trkpt>
      <trkpt lat="59.7998736" lon="17.6636004">
        <ele>15.0377</ele>
        <time>2014-06-01T13:03:45Z</time>
      </trkpt>
      <trkpt lat="59.7998767" lon="17.6636534">
        <ele>14.0764</ele>
        <time>2014-06-01T13:03:46Z</time>
      </trkpt>
      <trkpt lat="59.7998807" lon="17.6637149">
        <ele>13.5958</ele>
        <time>2014-06-01T13:03:47Z</time>
      </trkpt>
      <trkpt lat="59.7998899" lon="17.6637766">
        <ele>14.557</ele>
        <time>2014-06-01T13:03:48Z</time>
      </trkpt>
      <trkpt lat="59.7998995" lon="17.6638265">
        <ele>14.0764</ele>
        <time>2014-06-01T13:03:49Z</time>
      </trkpt>
      <trkpt lat="59.7999016" lon="17.6638666">
        <ele>13.5958</ele>
        <time>2014-06-01T13:03:50Z</time>
      </trkpt>
      <trkpt lat="59.7999119" lon="17.6639148">
        <ele>15.5184</ele>
        <time>2014-06-01T13:03:51Z</time>
      </trkpt>
      <trkpt lat="59.7999223" lon="17.6639674">
        <ele>15.5184</ele>
        <time>2014-06-01T13:03:52Z</time>
      </trkpt>
      <trkpt lat="59.7999196" lon="17.6640147">
        <ele>13.1151</ele>
        <time>2014-06-01T13:03:53Z</time>
      </trkpt>
      <trkpt lat="59.799919" lon="17.6640683">
        <ele>14.0764</ele>
        <time>2014-06-01T13:03:54Z</time>
      </trkpt>
      <trkpt lat="59.7999174" lon="17.6641153">
        <ele>15.999</ele>
        <time>2014-06-01T13:03:55Z</time>
      </trkpt>
      <trkpt lat="59.799921" lon="17.6641554">
        <ele>17.9218</ele>
        <time>2014-06-01T13:03:56Z</time>
      </trkpt>
      <trkpt lat="59.7999248" lon="17.6641934">
        <ele>19.8444</ele>
        <time>2014-06-01T13:03:57Z</time>
      </trkpt>
      <trkpt lat="59.7999233" lon="17.6642109">
        <ele>20.8057</ele>
        <time>2014-06-01T13:03:58Z</time>
      </trkpt>
      <trkpt lat="59.7999282" lon="17.6642024">
        <ele>20.8057</ele>
        <time>2014-06-01T13:03:59Z</time>
      </trkpt>
      <trkpt lat="59.7999358" lon="17.6641883">
        <ele>21.767</ele>
        <time>2014-06-01T13:04:00Z</time>
      </trkpt>
      <trkpt lat="59.7999357" lon="17.664174">
        <ele>22.7283</ele>
        <time>2014-06-01T13:04:01Z</time>
      </trkpt>
      <trkpt lat="59.7999349" lon="17.6641593">
        <ele>23.6896</ele>
        <time>2014-06-01T13:04:02Z</time>
      </trkpt>
      <trkpt lat="59.7999324" lon="17.6641474">
        <ele>24.1703</ele>
        <time>2014-06-01T13:04:03Z</time>
      </trkpt>
      <trkpt lat="59.7999247" lon="17.6641214">
        <ele>24.1703</ele>
        <time>2014-06-01T13:04:04Z</time>
      </trkpt>
      <trkpt lat="59.7999199" lon="17.6640859">
        <ele>24.1703</ele>
        <time>2014-06-01T13:04:05Z</time>
      </trkpt>
      <trkpt lat="59.7999156" lon="17.6640523">
        <ele>24.651</ele>
        <time>2014-06-01T13:04:06Z</time>
      </trkpt>
      <trkpt lat="59.7999134" lon="17.6640217">
        <ele>24.1703</ele>
        <time>2014-06-01T13:04:07Z</time>
      </trkpt>
      <trkpt lat="59.7999128" lon="17.6639941">
        <ele>23.6896</ele>
        <time>2014-06-01T13:04:08Z</time>
      </trkpt>
      <trkpt lat="59.7999127" lon="17.6639657">
        <ele>23.6896</ele>
        <time>2014-06-01T13:04:09Z</time>
      </trkpt>
      <trkpt lat="59.7999035" lon="17.6639163">
        <ele>22.7283</ele>
        <time>2014-06-01T13:04:10Z</time>
      </trkpt>
      <trkpt lat="59.7998937" lon="17.6638658">
        <ele>22.2476</ele>
        <time>2014-06-01T13:04:11Z</time>
      </trkpt>
      <trkpt lat="59.7998878" lon="17.6638166">
        <ele>22.7283</ele>
        <time>2014-06-01T13:04:12Z</time>
      </trkpt>
      <trkpt lat="59.7998823" lon="17.6637569">
        <ele>22.7283</ele>
        <time>2014-06-01T13:04:13Z</time>
      </trkpt>
      <trkpt lat="59.7998754" lon="17.6636916">
        <ele>22.2476</ele>
        <time>2014-06-01T13:04:14Z</time>
      </trkpt>
      <trkpt lat="59.7998673" lon="17.6636213">
        <ele>21.767</ele>
        <time>2014-06-01T13:04:15Z</time>
      </trkpt>
      <trkpt lat="59.7998642" lon="17.6635556">
        <ele>21.767</ele>
        <time>2014-06-01T13:04:16Z</time>
      </trkpt>
      <trkpt lat="59.79986" lon="17.6634918">
        <ele>22.2476</ele>
        <time>2014-06-01T13:04:17Z</time>
      </trkpt>
      <trkpt lat="59.7998517" lon="17.6634239">
        <ele>21.767</ele>
        <time>2014-06-01T13:04:18Z</time>
      </trkpt>
      <trkpt lat="59.7998438" lon="17.6633688">
        <ele>21.2864</ele>
        <time>2014-06-01T13:04:19Z</time>
      </trkpt>
      <trkpt lat="59.7998321" lon="17.6633054">
        <ele>20.8057</ele>
        <time>2014-06-01T13:04:20Z</time>
      </trkpt>
      <trkpt lat="59.7998197" lon="17.6632338">
        <ele>20.325</ele>
        <time>2014-06-01T13:04:21Z</time>
      </trkpt>
      <trkpt lat="59.7998051" lon="17.6631671">
        <ele>20.325</ele>
        <time>2014-06-01T13:04:22Z</time>
      </trkpt>
      <trkpt lat="59.799787" lon="17.6631001">
        <ele>19.8444</ele>
        <time>2014-06-01T13:04:23Z</time>
      </trkpt>
      <trkpt lat="59.7997693" lon="17.6630266">
        <ele>19.8444</ele>
        <time>2014-06-01T13:04:24Z</time>
      </trkpt>
      <trkpt lat="59.7997479" lon="17.662955">
        <ele>19.3638</ele>
        <time>2014-06-01T13:04:25Z</time>
      </trkpt>
      <trkpt lat="59.7997226" lon="17.6628894">
        <ele>18.8831</ele>
        <time>2014-06-01T13:04:26Z</time>
      </trkpt>
      <trkpt lat="59.7996969" lon="17.6628288">
        <ele>19.3638</ele>
        <time>2014-06-01T13:04:27Z</time>
      </trkpt>
      <trkpt lat="59.7996714" lon="17.6627598">
        <ele>19.3638</ele>
        <time>2014-06-01T13:04:28Z</time>
      </trkpt>
      <trkpt lat="59.7996456" lon="17.662692">
        <ele>19.3638</ele>
        <time>2014-06-01T13:04:29Z</time>
      </trkpt>
      <trkpt lat="59.7996196" lon="17.6626195">
        <ele>19.3638</ele>
        <time>2014-06-01T13:04:30Z</time>
      </trkpt>
      <trkpt lat="59.7995927" lon="17.6625451">
        <ele>18.8831</ele>
        <time>2014-06-01T13:04:31Z</time>
      </trkpt>
      <trkpt lat="59.7995689" lon="17.6624852">
        <ele>18.8831</ele>
        <time>2014-06-01T13:04:32Z</time>
      </trkpt>
      <trkpt lat="59.7995414" lon="17.6624117">
        <ele>20.325</ele>
        <time>2014-06-01T13:04:33Z</time>
      </trkpt>
      <trkpt lat="59.7995053" lon="17.6623229">
        <ele>20.8057</ele>
        <time>2014-06-01T13:04:34Z</time>
      </trkpt>
      <trkpt lat="59.7994685" lon="17.6622349">
        <ele>20.325</ele>
        <time>2014-06-01T13:04:35Z</time>
      </trkpt>
      <trkpt lat="59.7994353" lon="17.662162">
        <ele>20.325</ele>
        <time>2014-06-01T13:04:36Z</time>
      </trkpt>
      <trkpt lat="59.7994087" lon="17.6621128">
        <ele>19.8444</ele>
        <time>2014-06-01T13:04:37Z</time>
      </trkpt>
      <trkpt lat="59.7993797" lon="17.6620614">
        <ele>20.8057</ele>
        <time>2014-06-01T13:04:38Z</time>
      </trkpt>
      <trkpt lat="59.7993459" lon="17.6619906">
        <ele>20.8057</ele>
        <time>2014-06-01T13:04:39Z</time>
      </trkpt>
      <trkpt lat="59.7993146" lon="17.6619267">
        <ele>20.8057</ele>
        <time>2014-06-01T13:04:40Z</time>
      </trkpt>
      <trkpt lat="59.7992848" lon="17.6618663">
        <ele>20.8057</ele>
        <time>2014-06-01T13:04:41Z</time>
      </trkpt>
      <trkpt lat="59.7992527" lon="17.6618068">
        <ele>21.2864</ele>
        <time>2014-06-01T13:04:42Z</time>
      </trkpt>
      <trkpt lat="59.7992264" lon="17.6617543">
        <ele>21.2864</ele>
        <time>2014-06-01T13:04:43Z</time>
      </trkpt>
      <trkpt lat="59.7992217" lon="17.6617251">
        <ele>21.2864</ele>
        <time>2014-06-01T13:04:44Z</time>
      </trkpt>
      <trkpt lat="59.7992245" lon="17.6617044">
        <ele>21.2864</ele>
        <time>2014-06-01T13:04:45Z</time>
      </trkpt>
      <trkpt lat="59.7992278" lon="17.6616768">
        <ele>21.2864</ele>
        <time>2014-06-01T13:04:46Z</time>
      </trkpt>
      <trkpt lat="59.7992332" lon="17.6616679">
        <ele>21.2864</ele>
        <time>2014-06-01T13:04:47Z</time>
      </trkpt>
      <trkpt lat="59.7992429" lon="17.6616601">
        <ele>21.2864</ele>
        <time>2014-06-01T13:04:48Z</time>
      </trkpt>
      <trkpt lat="59.7992575" lon="17.6616507">
        <ele>20.8057</ele>
        <time>2014-06-01T13:04:49Z</time>
      </trkpt>
      <trkpt lat="59.7992774" lon="17.661646">
        <ele>20.8057</ele>
        <time>2014-06-01T13:04:50Z</time>
      </trkpt>
      <trkpt lat="59.7992924" lon="17.6616295">
        <ele>21.2864</ele>
        <time>2014-06-01T13:04:51Z</time>
      </trkpt>
      <trkpt lat="59.7992994" lon="17.6615972">
        <ele>20.8057</ele>
        <time>2014-06-01T13:04:52Z</time>
      </trkpt>
      <trkpt lat="59.7993068" lon="17.6615596">
        <ele>20.325</ele>
        <time>2014-06-01T13:04:53Z</time>
      </trkpt>
      <trkpt lat="59.7993128" lon="17.6615238">
        <ele>19.3638</ele>
        <time>2014-06-01T13:04:54Z</time>
      </trkpt>
      <trkpt lat="59.7993094" lon="17.6614921">
        <ele>18.4023</ele>
        <time>2014-06-01T13:04:55Z</time>
      </trkpt>
      <trkpt lat="59.7993037" lon="17.661471">
        <ele>18.4023</ele>
        <time>2014-06-01T13:04:56Z</time>
      </trkpt>
      <trkpt lat="59.7992995" lon="17.6614545">
        <ele>18.4023</ele>
        <time>2014-06-01T13:04:57Z</time>
      </trkpt>
      <trkpt lat="59.7992937" lon="17.6614346">
        <ele>17.4412</ele>
        <time>2014-06-01T13:04:58Z</time>
      </trkpt>
      <trkpt lat="59.7992929" lon="17.6614275">
        <ele>16.9604</ele>
        <time>2014-06-01T13:04:59Z</time>
      </trkpt>
      <trkpt lat="59.7992976" lon="17.661415">
        <ele>15.999</ele>
        <time>2014-06-01T13:05:00Z</time>
      </trkpt>
      <trkpt lat="59.7993038" lon="17.6614024">
        <ele>15.999</ele>
        <time>2014-06-01T13:05:01Z</time>
      </trkpt>
      <trkpt lat="59.7993048" lon="17.6613866">
        <ele>15.0377</ele>
        <time>2014-06-01T13:05:02Z</time>
      </trkpt>
      <trkpt lat="59.7993084" lon="17.6613718">
        <ele>15.0377</ele>
        <time>2014-06-01T13:05:03Z</time>
      </trkpt>
      <trkpt lat="59.7993081" lon="17.661345">
        <ele>14.0764</ele>
        <time>2014-06-01T13:05:04Z</time>
      </trkpt>
      <trkpt lat="59.7993149" lon="17.6613195">
        <ele>12.6344</ele>
        <time>2014-06-01T13:05:05Z</time>
      </trkpt>
      <trkpt lat="59.7993242" lon="17.6612939">
        <ele>11.6732</ele>
        <time>2014-06-01T13:05:06Z</time>
      </trkpt>
      <trkpt lat="59.7993375" lon="17.6612621">
        <ele>10.7118</ele>
        <time>2014-06-01T13:05:07Z</time>
      </trkpt>
      <trkpt lat="59.7993539" lon="17.6612337">
        <ele>10.2312</ele>
        <time>2014-06-01T13:05:08Z</time>
      </trkpt>
      <trkpt lat="59.79937" lon="17.6612">
        <ele>9.2699</ele>
        <time>2014-06-01T13:05:09Z</time>
      </trkpt>
      <trkpt lat="59.7993895" lon="17.6611432">
        <ele>7.82788</ele>
        <time>2014-06-01T13:05:10Z</time>
      </trkpt>
      <trkpt lat="59.7994139" lon="17.6610595">
        <ele>7.34717</ele>
        <time>2014-06-01T13:05:11Z</time>
      </trkpt>
      <trkpt lat="59.7994335" lon="17.6609761">
        <ele>6.38586</ele>
        <time>2014-06-01T13:05:12Z</time>
      </trkpt>
      <trkpt lat="59.7994521" lon="17.66088">
        <ele>5.90527</ele>
        <time>2014-06-01T13:05:13Z</time>
      </trkpt>
      <trkpt lat="59.7994711" lon="17.6608062">
        <ele>4.94385</ele>
        <time>2014-06-01T13:05:14Z</time>
      </trkpt>
      <trkpt lat="59.7994974" lon="17.6607405">
        <ele>4.46326</ele>
        <time>2014-06-01T13:05:15Z</time>
      </trkpt>
      <trkpt lat="59.799532" lon="17.6606788">
        <ele>3.98267</ele>
        <time>2014-06-01T13:05:16Z</time>
      </trkpt>
      <trkpt lat="59.7995638" lon="17.6606127">
        <ele>3.50195</ele>
        <time>2014-06-01T13:05:17Z</time>
      </trkpt>
      <trkpt lat="59.7995969" lon="17.6605467">
        <ele>3.02124</ele>
        <time>2014-06-01T13:05:18Z</time>
      </trkpt>
      <trkpt lat="59.7996397" lon="17.6604729">
        <ele>3.50195</ele>
        <time>2014-06-01T13:05:19Z</time>
      </trkpt>
      <trkpt lat="59.7996849" lon="17.6604006">
        <ele>3.50195</ele>
        <time>2014-06-01T13:05:20Z</time>
      </trkpt>
      <trkpt lat="59.7997298" lon="17.6603324">
        <ele>3.02124</ele>
        <time>2014-06-01T13:05:21Z</time>
      </trkpt>
      <trkpt lat="59.799774" lon="17.6602697">
        <ele>2.54065</ele>
        <time>2014-06-01T13:05:22Z</time>
      </trkpt>
      <trkpt lat="59.7998239" lon="17.6602199">
        <ele>3.02124</ele>
        <time>2014-06-01T13:05:23Z</time>
      </trkpt>
      <trkpt lat="59.7998777" lon="17.660187">
        <ele>3.50195</ele>
        <time>2014-06-01T13:05:24Z</time>
      </trkpt>
      <trkpt lat="59.7999342" lon="17.6601796">
        <ele>3.98267</ele>
        <time>2014-06-01T13:05:25Z</time>
      </trkpt>
      <trkpt lat="59.7999912" lon="17.660192">
        <ele>4.46326</ele>
        <time>2014-06-01T13:05:26Z</time>
      </trkpt>
      <trkpt lat="59.8000484" lon="17.6602148">
        <ele>4.94385</ele>
        <time>2014-06-01T13:05:27Z</time>
      </trkpt>
      <trkpt lat="59.8001034" lon="17.6602419">
        <ele>5.42456</ele>
        <time>2014-06-01T13:05:28Z</time>
      </trkpt>
      <trkpt lat="59.8001584" lon="17.6602738">
        <ele>5.42456</ele>
        <time>2014-06-01T13:05:29Z</time>
      </trkpt>
      <trkpt lat="59.8002122" lon="17.660311">
        <ele>5.42456</ele>
        <time>2014-06-01T13:05:30Z</time>
      </trkpt>
      <trkpt lat="59.8002649" lon="17.6603532">
        <ele>5.42456</ele>
        <time>2014-06-01T13:05:31Z</time>
      </trkpt>
      <trkpt lat="59.8003168" lon="17.6603992">
        <ele>5.42456</ele>
        <time>2014-06-01T13:05:32Z</time>
      </trkpt>
      <trkpt lat="59.8003685" lon="17.6604475">
        <ele>5.42456</ele>
        <time>2014-06-01T13:05:33Z</time>
      </trkpt>
      <trkpt lat="59.8004201" lon="17.6604947">
        <ele>5.90527</ele>
        <time>2014-06-01T13:05:34Z</time>
      </trkpt>
      <trkpt lat="59.8004718" lon="17.6605396">
        <ele>5.42456</ele>
        <time>2014-06-01T13:05:35Z</time>
      </trkpt>
      <trkpt lat="59.8005235" lon="17.6605829">
        <ele>4.94385</ele>
        <time>2014-06-01T13:05:36Z</time>
      </trkpt>
      <trkpt lat="59.8005783" lon="17.6606271">
        <ele>5.42456</ele>
        <time>2014-06-01T13:05:37Z</time>
      </trkpt>
      <trkpt lat="59.8006318" lon="17.6606732">
        <ele>5.42456</ele>
        <time>2014-06-01T13:05:38Z</time>
      </trkpt>
      <trkpt lat="59.800685" lon="17.6607228">
        <ele>5.42456</ele>
        <time>2014-06-01T13:05:39Z</time>
      </trkpt>
      <trkpt lat="59.8007368" lon="17.6607763">
        <ele>5.42456</ele>
        <time>2014-06-01T13:05:40Z</time>
      </trkpt>
      <trkpt lat="59.8007882" lon="17.6608272">
        <ele>5.42456</ele>
        <time>2014-06-01T13:05:41Z</time>
      </trkpt>
      <trkpt lat="59.8008402" lon="17.6608746">
        <ele>5.90527</ele>
        <time>2014-06-01T13:05:42Z</time>
      </trkpt>
      <trkpt lat="59.8008918" lon="17.6609234">
        <ele>6.38586</ele>
        <time>2014-06-01T13:05:43Z</time>
      </trkpt>
      <trkpt lat="59.800939" lon="17.6610126">
        <ele>5.42456</ele>
        <time>2014-06-01T13:05:44Z</time>
      </trkpt>
      <trkpt lat="59.8009767" lon="17.6610985">
        <ele>4.46326</ele>
        <time>2014-06-01T13:05:45Z</time>
      </trkpt>
      <trkpt lat="59.8010157" lon="17.6611738">
        <ele>4.46326</ele>
        <time>2014-06-01T13:05:46Z</time>
      </trkpt>
      <trkpt lat="59.8010556" lon="17.6612336">
        <ele>4.46326</ele>
        <time>2014-06-01T13:05:47Z</time>
      </trkpt>
      <trkpt lat="59.8011021" lon="17.6612876">
        <ele>5.42456</ele>
        <time>2014-06-01T13:05:48Z</time>
      </trkpt>
      <trkpt lat="59.8011499" lon="17.6613441">
        <ele>4.94385</ele>
        <time>2014-06-01T13:05:49Z</time>
      </trkpt>
      <trkpt lat="59.8011986" lon="17.6614087">
        <ele>5.42456</ele>
        <time>2014-06-01T13:05:50Z</time>
      </trkpt>
      <trkpt lat="59.8012539" lon="17.6614446">
        <ele>5.42456</ele>
        <time>2014-06-01T13:05:51Z</time>
      </trkpt>
      <trkpt lat="59.8013108" lon="17.6614644">
        <ele>5.90527</ele>
        <time>2014-06-01T13:05:52Z</time>
      </trkpt>
      <trkpt lat="59.8013709" lon="17.6614787">
        <ele>6.38586</ele>
        <time>2014-06-01T13:05:53Z</time>
      </trkpt>
      <trkpt lat="59.8014305" lon="17.6614934">
        <ele>6.38586</ele>
        <time>2014-06-01T13:05:54Z</time>
      </trkpt>
      <trkpt lat="59.8014944" lon="17.6615144">
        <ele>7.34717</ele>
        <time>2014-06-01T13:05:55Z</time>
      </trkpt>
      <trkpt lat="59.801549" lon="17.6615418">
        <ele>6.86646</ele>
        <time>2014-06-01T13:05:56Z</time>
      </trkpt>
      <trkpt lat="59.8016051" lon="17.6615736">
        <ele>6.86646</ele>
        <time>2014-06-01T13:05:57Z</time>
      </trkpt>
      <trkpt lat="59.8016613" lon="17.6616138">
        <ele>6.86646</ele>
        <time>2014-06-01T13:05:58Z</time>
      </trkpt>
      <trkpt lat="59.8017151" lon="17.6616571">
        <ele>6.86646</ele>
        <time>2014-06-01T13:05:59Z</time>
      </trkpt>
      <trkpt lat="59.8017667" lon="17.6616967">
        <ele>6.86646</ele>
        <time>2014-06-01T13:06:00Z</time>
      </trkpt>
      <trkpt lat="59.8018194" lon="17.661736">
        <ele>6.86646</ele>
        <time>2014-06-01T13:06:01Z</time>
      </trkpt>
      <trkpt lat="59.8018725" lon="17.6617755">
        <ele>7.34717</ele>
        <time>2014-06-01T13:06:02Z</time>
      </trkpt>
      <trkpt lat="59.8019238" lon="17.6618118">
        <ele>7.34717</ele>
        <time>2014-06-01T13:06:03Z</time>
      </trkpt>
      <trkpt lat="59.8019751" lon="17.6618495">
        <ele>7.82788</ele>
        <time>2014-06-01T13:06:04Z</time>
      </trkpt>
      <trkpt lat="59.8020259" lon="17.6618801">
        <ele>8.30859</ele>
        <time>2014-06-01T13:06:05Z</time>
      </trkpt>
      <trkpt lat="59.8020761" lon="17.6619111">
        <ele>8.30859</ele>
        <time>2014-06-01T13:06:06Z</time>
      </trkpt>
      <trkpt lat="59.8021227" lon="17.6619408">
        <ele>8.30859</ele>
        <time>2014-06-01T13:06:07Z</time>
      </trkpt>
      <trkpt lat="59.8021562" lon="17.6619651">
        <ele>7.82788</ele>
        <time>2014-06-01T13:06:08Z</time>
      </trkpt>
      <trkpt lat="59.8021833" lon="17.6619888">
        <ele>7.34717</ele>
        <time>2014-06-01T13:06:09Z</time>
      </trkpt>
      <trkpt lat="59.8022087" lon="17.6620148">
        <ele>7.34717</ele>
        <time>2014-06-01T13:06:10Z</time>
      </trkpt>
      <trkpt lat="59.8022329" lon="17.6620388">
        <ele>7.34717</ele>
        <time>2014-06-01T13:06:11Z</time>
      </trkpt>
      <trkpt lat="59.8022548" lon="17.6620589">
        <ele>6.86646</ele>
        <time>2014-06-01T13:06:12Z</time>
      </trkpt>
      <trkpt lat="59.8022784" lon="17.6620811">
        <ele>6.86646</ele>
        <time>2014-06-01T13:06:13Z</time>
      </trkpt>
      <trkpt lat="59.802301" lon="17.6621022">
        <ele>6.86646</ele>
        <time>2014-06-01T13:06:14Z</time>
      </trkpt>
      <trkpt lat="59.802322" lon="17.662123">
        <ele>6.86646</ele>
        <time>2014-06-01T13:06:15Z</time>
      </trkpt>
      <trkpt lat="59.802343" lon="17.6621511">
        <ele>6.38586</ele>
        <time>2014-06-01T13:06:16Z</time>
      </trkpt>
      <trkpt lat="59.8023647" lon="17.662186">
        <ele>5.90527</ele>
        <time>2014-06-01T13:06:17Z</time>
      </trkpt>
      <trkpt lat="59.8023889" lon="17.6622263">
        <ele>5.90527</ele>
        <time>2014-06-01T13:06:18Z</time>
      </trkpt>
      <trkpt lat="59.8024163" lon="17.6622683">
        <ele>5.42456</ele>
        <time>2014-06-01T13:06:19Z</time>
      </trkpt>
      <trkpt lat="59.8024463" lon="17.6623143">
        <ele>5.42456</ele>
        <time>2014-06-01T13:06:20Z</time>
      </trkpt>
      <trkpt lat="59.8024785" lon="17.6623633">
        <ele>5.42456</ele>
        <time>2014-06-01T13:06:21Z</time>
      </trkpt>
      <trkpt lat="59.8025139" lon="17.6624128">
        <ele>4.94385</ele>
        <time>2014-06-01T13:06:22Z</time>
      </trkpt>
      <trkpt lat="59.8025507" lon="17.662468">
        <ele>4.94385</ele>
        <time>2014-06-01T13:06:23Z</time>
      </trkpt>
      <trkpt lat="59.8025879" lon="17.6625289">
        <ele>4.94385</ele>
        <time>2014-06-01T13:06:24Z</time>
      </trkpt>
      <trkpt lat="59.8026272" lon="17.6625921">
        <ele>4.46326</ele>
        <time>2014-06-01T13:06:25Z</time>
      </trkpt>
      <trkpt lat="59.8026682" lon="17.6626571">
        <ele>4.46326</ele>
        <time>2014-06-01T13:06:26Z</time>
      </trkpt>
      <trkpt lat="59.8027117" lon="17.6627259">
        <ele>4.46326</ele>
        <time>2014-06-01T13:06:27Z</time>
      </trkpt>
      <trkpt lat="59.8027543" lon="17.6627945">
        <ele>4.46326</ele>
        <time>2014-06-01T13:06:28Z</time>
      </trkpt>
      <trkpt lat="59.8027975" lon="17.6628658">
        <ele>4.46326</ele>
        <time>2014-06-01T13:06:29Z</time>
      </trkpt>
      <trkpt lat="59.8028413" lon="17.6629381">
        <ele>4.46326</ele>
        <time>2014-06-01T13:06:30Z</time>
      </trkpt>
      <trkpt lat="59.8028876" lon="17.6630078">
        <ele>4.46326</ele>
        <time>2014-06-01T13:06:31Z</time>
      </trkpt>
      <trkpt lat="59.8029332" lon="17.6630784">
        <ele>3.98267</ele>
        <time>2014-06-01T13:06:32Z</time>
      </trkpt>
      <trkpt lat="59.8029801" lon="17.6631499">
        <ele>3.98267</ele>
        <time>2014-06-01T13:06:33Z</time>
      </trkpt>
      <trkpt lat="59.8030264" lon="17.6632232">
        <ele>3.50195</ele>
        <time>2014-06-01T13:06:34Z</time>
      </trkpt>
      <trkpt lat="59.803072" lon="17.6632996">
        <ele>3.50195</ele>
        <time>2014-06-01T13:06:35Z</time>
      </trkpt>
      <trkpt lat="59.8031176" lon="17.6633742">
        <ele>3.02124</ele>
        <time>2014-06-01T13:06:36Z</time>
      </trkpt>
      <trkpt lat="59.8031644" lon="17.6634411">
        <ele>2.54065</ele>
        <time>2014-06-01T13:06:37Z</time>
      </trkpt>
      <trkpt lat="59.8032134" lon="17.6634981">
        <ele>2.54065</ele>
        <time>2014-06-01T13:06:38Z</time>
      </trkpt>
      <trkpt lat="59.8032647" lon="17.6635492">
        <ele>2.54065</ele>
        <time>2014-06-01T13:06:39Z</time>
      </trkpt>
      <trkpt lat="59.803314" lon="17.6635964">
        <ele>3.02124</ele>
        <time>2014-06-01T13:06:40Z</time>
      </trkpt>
      <trkpt lat="59.8033606" lon="17.6636414">
        <ele>2.54065</ele>
        <time>2014-06-01T13:06:41Z</time>
      </trkpt>
      <trkpt lat="59.8034054" lon="17.6636839">
        <ele>2.54065</ele>
        <time>2014-06-01T13:06:42Z</time>
      </trkpt>
      <trkpt lat="59.8034493" lon="17.6637226">
        <ele>2.54065</ele>
        <time>2014-06-01T13:06:43Z</time>
      </trkpt>
      <trkpt lat="59.8034923" lon="17.6637562">
        <ele>2.06006</ele>
        <time>2014-06-01T13:06:44Z</time>
      </trkpt>
      <trkpt lat="59.8035323" lon="17.6637884">
        <ele>1.57935</ele>
        <time>2014-06-01T13:06:45Z</time>
      </trkpt>
      <trkpt lat="59.8035719" lon="17.663816">
        <ele>1.09863</ele>
        <time>2014-06-01T13:06:46Z</time>
      </trkpt>
      <trkpt lat="59.8036104" lon="17.6638424">
        <ele>1.09863</ele>
        <time>2014-06-01T13:06:47Z</time>
      </trkpt>
      <trkpt lat="59.8036459" lon="17.6638724">
        <ele>1.09863</ele>
        <time>2014-06-01T13:06:48Z</time>
      </trkpt>
      <trkpt lat="59.8036757" lon="17.663906">
        <ele>0.618042</ele>
        <time>2014-06-01T13:06:49Z</time>
      </trkpt>
      <trkpt lat="59.8037012" lon="17.6639352">
        <ele>0.137451</ele>
        <time>2014-06-01T13:06:50Z</time>
      </trkpt>
      <trkpt lat="59.8037245" lon="17.6639572">
        <ele>0.137451</ele>
        <time>2014-06-01T13:06:51Z</time>
      </trkpt>
      <trkpt lat="59.8037439" lon="17.6639725">
        <ele>0.137451</ele>
        <time>2014-06-01T13:06:52Z</time>
      </trkpt>
      <trkpt lat="59.8037548" lon="17.6639787">
        <ele>0.137451</ele>
        <time>2014-06-01T13:06:53Z</time>
      </trkpt>
      <trkpt lat="59.8037558" lon="17.6639803">
        <ele>0.137451</ele>
        <time>2014-06-01T13:06:54Z</time>
      </trkpt>
      <trkpt lat="59.8037527" lon="17.6639808">
        <ele>0.618042</ele>
        <time>2014-06-01T13:06:55Z</time>
      </trkpt>
      <trkpt lat="59.8037849" lon="17.6640124">
        <ele>6.38586</ele>
        <time>2014-06-01T13:08:36Z</time>
      </trkpt>
      <trkpt lat="59.8038014" lon="17.6640278">
        <ele>6.38586</ele>
        <time>2014-06-01T13:08:37Z</time>
      </trkpt>
      <trkpt lat="59.8038182" lon="17.6640425">
        <ele>6.38586</ele>
        <time>2014-06-01T13:08:38Z</time>
      </trkpt>
      <trkpt lat="59.8038356" lon="17.6640546">
        <ele>6.38586</ele>
        <time>2014-06-01T13:08:39Z</time>
      </trkpt>
      <trkpt lat="59.8038549" lon="17.6640693">
        <ele>6.38586</ele>
        <time>2014-06-01T13:08:40Z</time>
      </trkpt>
      <trkpt lat="59.8038776" lon="17.664086">
        <ele>6.38586</ele>
        <time>2014-06-01T13:08:41Z</time>
      </trkpt>
      <trkpt lat="59.8039029" lon="17.6641038">
        <ele>6.38586</ele>
        <time>2014-06-01T13:08:42Z</time>
      </trkpt>
      <trkpt lat="59.803928" lon="17.6641247">
        <ele>6.38586</ele>
        <time>2014-06-01T13:08:43Z</time>
      </trkpt>
      <trkpt lat="59.8039533" lon="17.6641435">
        <ele>6.38586</ele>
        <time>2014-06-01T13:08:44Z</time>
      </trkpt>
      <trkpt lat="59.8039808" lon="17.6641593">
        <ele>6.38586</ele>
        <time>2014-06-01T13:08:45Z</time>
      </trkpt>
      <trkpt lat="59.8040089" lon="17.6641784">
        <ele>6.38586</ele>
        <time>2014-06-01T13:08:46Z</time>
      </trkpt>
      <trkpt lat="59.8040383" lon="17.6641994">
        <ele>6.86646</ele>
        <time>2014-06-01T13:08:47Z</time>
      </trkpt>
      <trkpt lat="59.8040698" lon="17.6642206">
        <ele>6.86646</ele>
        <time>2014-06-01T13:08:48Z</time>
      </trkpt>
      <trkpt lat="59.804103" lon="17.6642418">
        <ele>6.86646</ele>
        <time>2014-06-01T13:08:49Z</time>
      </trkpt>
      <trkpt lat="59.8041383" lon="17.6642652">
        <ele>6.86646</ele>
        <time>2014-06-01T13:08:50Z</time>
      </trkpt>
      <trkpt lat="59.8041754" lon="17.6642891">
        <ele>6.86646</ele>
        <time>2014-06-01T13:08:51Z</time>
      </trkpt>
      <trkpt lat="59.8042152" lon="17.6643123">
        <ele>6.86646</ele>
        <time>2014-06-01T13:08:52Z</time>
      </trkpt>
      <trkpt lat="59.8042573" lon="17.6643356">
        <ele>6.86646</ele>
        <time>2014-06-01T13:08:53Z</time>
      </trkpt>
      <trkpt lat="59.8043014" lon="17.6643542">
        <ele>6.86646</ele>
        <time>2014-06-01T13:08:54Z</time>
      </trkpt>
      <trkpt lat="59.8043474" lon="17.6643656">
        <ele>6.86646</ele>
        <time>2014-06-01T13:08:55Z</time>
      </trkpt>
      <trkpt lat="59.8043952" lon="17.664372">
        <ele>6.86646</ele>
        <time>2014-06-01T13:08:56Z</time>
      </trkpt>
      <trkpt lat="59.8044456" lon="17.6643771">
        <ele>6.86646</ele>
        <time>2014-06-01T13:08:57Z</time>
      </trkpt>
      <trkpt lat="59.8044968" lon="17.664377">
        <ele>6.86646</ele>
        <time>2014-06-01T13:08:58Z</time>
      </trkpt>
      <trkpt lat="59.8045481" lon="17.6643719">
        <ele>6.86646</ele>
        <time>2014-06-01T13:08:59Z</time>
      </trkpt>
      <trkpt lat="59.8046019" lon="17.6643668">
        <ele>6.86646</ele>
        <time>2014-06-01T13:09:00Z</time>
      </trkpt>
      <trkpt lat="59.8046568" lon="17.6643646">
        <ele>6.86646</ele>
        <time>2014-06-01T13:09:01Z</time>
      </trkpt>
      <trkpt lat="59.8047125" lon="17.6643685">
        <ele>6.38586</ele>
        <time>2014-06-01T13:09:02Z</time>
      </trkpt>
      <trkpt lat="59.8047682" lon="17.6643764">
        <ele>6.38586</ele>
        <time>2014-06-01T13:09:03Z</time>
      </trkpt>
      <trkpt lat="59.8048231" lon="17.6643869">
        <ele>6.38586</ele>
        <time>2014-06-01T13:09:04Z</time>
      </trkpt>
      <trkpt lat="59.8048763" lon="17.6644034">
        <ele>6.38586</ele>
        <time>2014-06-01T13:09:05Z</time>
      </trkpt>
      <trkpt lat="59.8049246" lon="17.6644258">
        <ele>6.38586</ele>
        <time>2014-06-01T13:09:06Z</time>
      </trkpt>
      <trkpt lat="59.8049732" lon="17.664453">
        <ele>5.90527</ele>
        <time>2014-06-01T13:09:07Z</time>
      </trkpt>
      <trkpt lat="59.8050233" lon="17.6644786">
        <ele>5.90527</ele>
        <time>2014-06-01T13:09:08Z</time>
      </trkpt>
      <trkpt lat="59.8050707" lon="17.6645025">
        <ele>6.38586</ele>
        <time>2014-06-01T13:09:09Z</time>
      </trkpt>
      <trkpt lat="59.8051151" lon="17.6645376">
        <ele>6.38586</ele>
        <time>2014-06-01T13:09:10Z</time>
      </trkpt>
      <trkpt lat="59.8051588" lon="17.6645805">
        <ele>6.38586</ele>
        <time>2014-06-01T13:09:11Z</time>
      </trkpt>
      <trkpt lat="59.8052041" lon="17.6646345">
        <ele>7.34717</ele>
        <time>2014-06-01T13:09:12Z</time>
      </trkpt>
      <trkpt lat="59.8052488" lon="17.6646895">
        <ele>7.82788</ele>
        <time>2014-06-01T13:09:13Z</time>
      </trkpt>
      <trkpt lat="59.8052857" lon="17.6647495">
        <ele>7.82788</ele>
        <time>2014-06-01T13:09:14Z</time>
      </trkpt>
      <trkpt lat="59.8053165" lon="17.6648091">
        <ele>7.82788</ele>
        <time>2014-06-01T13:09:15Z</time>
      </trkpt>
      <trkpt lat="59.8053435" lon="17.6648698">
        <ele>7.34717</ele>
        <time>2014-06-01T13:09:16Z</time>
      </trkpt>
      <trkpt lat="59.8053758" lon="17.6649333">
        <ele>6.86646</ele>
        <time>2014-06-01T13:09:17Z</time>
      </trkpt>
      <trkpt lat="59.8054141" lon="17.6649997">
        <ele>7.34717</ele>
        <time>2014-06-01T13:09:18Z</time>
      </trkpt>
      <trkpt lat="59.8054561" lon="17.6650635">
        <ele>7.82788</ele>
        <time>2014-06-01T13:09:19Z</time>
      </trkpt>
      <trkpt lat="59.8055009" lon="17.6651127">
        <ele>7.82788</ele>
        <time>2014-06-01T13:09:20Z</time>
      </trkpt>
      <trkpt lat="59.8055523" lon="17.665139">
        <ele>7.82788</ele>
        <time>2014-06-01T13:09:21Z</time>
      </trkpt>
      <trkpt lat="59.8056061" lon="17.6651442">
        <ele>8.30859</ele>
        <time>2014-06-01T13:09:22Z</time>
      </trkpt>
      <trkpt lat="59.8056592" lon="17.6651266">
        <ele>8.30859</ele>
        <time>2014-06-01T13:09:23Z</time>
      </trkpt>
      <trkpt lat="59.8057139" lon="17.6650922">
        <ele>8.30859</ele>
        <time>2014-06-01T13:09:24Z</time>
      </trkpt>
      <trkpt lat="59.8057689" lon="17.6650571">
        <ele>8.78918</ele>
        <time>2014-06-01T13:09:25Z</time>
      </trkpt>
      <trkpt lat="59.8058214" lon="17.665026">
        <ele>9.2699</ele>
        <time>2014-06-01T13:09:26Z</time>
      </trkpt>
      <trkpt lat="59.8058752" lon="17.6649925">
        <ele>9.75061</ele>
        <time>2014-06-01T13:09:27Z</time>
      </trkpt>
      <trkpt lat="59.805931" lon="17.6649563">
        <ele>9.75061</ele>
        <time>2014-06-01T13:09:28Z</time>
      </trkpt>
      <trkpt lat="59.8059865" lon="17.6649238">
        <ele>10.2312</ele>
        <time>2014-06-01T13:09:29Z</time>
      </trkpt>
      <trkpt lat="59.8060419" lon="17.6648905">
        <ele>10.2312</ele>
        <time>2014-06-01T13:09:30Z</time>
      </trkpt>
      <trkpt lat="59.8061" lon="17.6648531">
        <ele>10.2312</ele>
        <time>2014-06-01T13:09:31Z</time>
      </trkpt>
      <trkpt lat="59.8061596" lon="17.664813">
        <ele>10.7118</ele>
        <time>2014-06-01T13:09:32Z</time>
      </trkpt>
      <trkpt lat="59.80622" lon="17.6647765">
        <ele>11.1925</ele>
        <time>2014-06-01T13:09:33Z</time>
      </trkpt>
      <trkpt lat="59.8062812" lon="17.6647417">
        <ele>11.6732</ele>
        <time>2014-06-01T13:09:34Z</time>
      </trkpt>
      <trkpt lat="59.8063419" lon="17.6647087">
        <ele>11.6732</ele>
        <time>2014-06-01T13:09:35Z</time>
      </trkpt>
      <trkpt lat="59.8064005" lon="17.6646783">
        <ele>12.1538</ele>
        <time>2014-06-01T13:09:36Z</time>
      </trkpt>
      <trkpt lat="59.8064604" lon="17.6646511">
        <ele>12.1538</ele>
        <time>2014-06-01T13:09:37Z</time>
      </trkpt>
      <trkpt lat="59.806519" lon="17.6646325">
        <ele>12.1538</ele>
        <time>2014-06-01T13:09:38Z</time>
      </trkpt>
      <trkpt lat="59.8065785" lon="17.664621">
        <ele>11.6732</ele>
        <time>2014-06-01T13:09:39Z</time>
      </trkpt>
      <trkpt lat="59.8066382" lon="17.6646105">
        <ele>11.6732</ele>
        <time>2014-06-01T13:09:40Z</time>
      </trkpt>
      <trkpt lat="59.8066981" lon="17.6646024">
        <ele>11.6732</ele>
        <time>2014-06-01T13:09:41Z</time>
      </trkpt>
      <trkpt lat="59.8067561" lon="17.6645982">
        <ele>11.6732</ele>
        <time>2014-06-01T13:09:42Z</time>
      </trkpt>
      <trkpt lat="59.8068155" lon="17.6645977">
        <ele>11.6732</ele>
        <time>2014-06-01T13:09:43Z</time>
      </trkpt>
      <trkpt lat="59.8068739" lon="17.6645986">
        <ele>11.6732</ele>
        <time>2014-06-01T13:09:44Z</time>
      </trkpt>
      <trkpt lat="59.8069322" lon="17.664603">
        <ele>12.1538</ele>
        <time>2014-06-01T13:09:45Z</time>
      </trkpt>
      <trkpt lat="59.8069887" lon="17.6646081">
        <ele>11.6732</ele>
        <time>2014-06-01T13:09:46Z</time>
      </trkpt>
      <trkpt lat="59.8070452" lon="17.6646112">
        <ele>11.1925</ele>
        <time>2014-06-01T13:09:47Z</time>
      </trkpt>
      <trkpt lat="59.8071034" lon="17.6646158">
        <ele>11.1925</ele>
        <time>2014-06-01T13:09:48Z</time>
      </trkpt>
      <trkpt lat="59.8071622" lon="17.6646215">
        <ele>10.7118</ele>
        <time>2014-06-01T13:09:49Z</time>
      </trkpt>
      <trkpt lat="59.8072203" lon="17.6646265">
        <ele>10.7118</ele>
        <time>2014-06-01T13:09:50Z</time>
      </trkpt>
      <trkpt lat="59.8072789" lon="17.6646303">
        <ele>10.2312</ele>
        <time>2014-06-01T13:09:51Z</time>
      </trkpt>
      <trkpt lat="59.807337" lon="17.6646343">
        <ele>10.2312</ele>
        <time>2014-06-01T13:09:52Z</time>
      </trkpt>
      <trkpt lat="59.8073954" lon="17.6646407">
        <ele>10.2312</ele>
        <time>2014-06-01T13:09:53Z</time>
      </trkpt>
      <trkpt lat="59.8074526" lon="17.6646508">
        <ele>9.75061</ele>
        <time>2014-06-01T13:09:54Z</time>
      </trkpt>
      <trkpt lat="59.8075094" lon="17.6646607">
        <ele>9.75061</ele>
        <time>2014-06-01T13:09:55Z</time>
      </trkpt>
      <trkpt lat="59.8075664" lon="17.6646706">
        <ele>9.75061</ele>
        <time>2014-06-01T13:09:56Z</time>
      </trkpt>
      <trkpt lat="59.8076238" lon="17.6646796">
        <ele>9.2699</ele>
        <time>2014-06-01T13:09:57Z</time>
      </trkpt>
      <trkpt lat="59.8076816" lon="17.6646884">
        <ele>9.2699</ele>
        <time>2014-06-01T13:09:58Z</time>
      </trkpt>
      <trkpt lat="59.8077401" lon="17.6647013">
        <ele>8.78918</ele>
        <time>2014-06-01T13:09:59Z</time>
      </trkpt>
      <trkpt lat="59.8077984" lon="17.6647188">
        <ele>8.78918</ele>
        <time>2014-06-01T13:10:00Z</time>
      </trkpt>
      <trkpt lat="59.8078571" lon="17.6647363">
        <ele>8.78918</ele>
        <time>2014-06-01T13:10:01Z</time>
      </trkpt>
      <trkpt lat="59.8079171" lon="17.6647526">
        <ele>8.30859</ele>
        <time>2014-06-01T13:10:02Z</time>
      </trkpt>
      <trkpt lat="59.8079782" lon="17.6647698">
        <ele>8.30859</ele>
        <time>2014-06-01T13:10:03Z</time>
      </trkpt>
      <trkpt lat="59.8080397" lon="17.6647902">
        <ele>8.30859</ele>
        <time>2014-06-01T13:10:04Z</time>
      </trkpt>
      <trkpt lat="59.8081009" lon="17.6648136">
        <ele>8.30859</ele>
        <time>2014-06-01T13:10:05Z</time>
      </trkpt>
      <trkpt lat="59.8081618" lon="17.6648391">
        <ele>8.30859</ele>
        <time>2014-06-01T13:10:06Z</time>
      </trkpt>
      <trkpt lat="59.8082228" lon="17.6648667">
        <ele>7.82788</ele>
        <time>2014-06-01T13:10:07Z</time>
      </trkpt>
      <trkpt lat="59.8082839" lon="17.6648938">
        <ele>7.82788</ele>
        <time>2014-06-01T13:10:08Z</time>
      </trkpt>
      <trkpt lat="59.8083451" lon="17.6649193">
        <ele>7.82788</ele>
        <time>2014-06-01T13:10:09Z</time>
      </trkpt>
      <trkpt lat="59.8084062" lon="17.6649444">
        <ele>7.82788</ele>
        <time>2014-06-01T13:10:10Z</time>
      </trkpt>
      <trkpt lat="59.8084672" lon="17.6649718">
        <ele>7.34717</ele>
        <time>2014-06-01T13:10:11Z</time>
      </trkpt>
      <trkpt lat="59.8085274" lon="17.6650048">
        <ele>7.34717</ele>
        <time>2014-06-01T13:10:12Z</time>
      </trkpt>
      <trkpt lat="59.8085881" lon="17.6650415">
        <ele>7.82788</ele>
        <time>2014-06-01T13:10:13Z</time>
      </trkpt>
      <trkpt lat="59.8086455" lon="17.6650837">
        <ele>7.82788</ele>
        <time>2014-06-01T13:10:14Z</time>
      </trkpt>
      <trkpt lat="59.8086967" lon="17.6651334">
        <ele>8.30859</ele>
        <time>2014-06-01T13:10:15Z</time>
      </trkpt>
      <trkpt lat="59.8087424" lon="17.6651857">
        <ele>8.30859</ele>
        <time>2014-06-01T13:10:16Z</time>
      </trkpt>
      <trkpt lat="59.8087851" lon="17.6652359">
        <ele>8.78918</ele>
        <time>2014-06-01T13:10:17Z</time>
      </trkpt>
      <trkpt lat="59.8088278" lon="17.6652845">
        <ele>8.78918</ele>
        <time>2014-06-01T13:10:18Z</time>
      </trkpt>
      <trkpt lat="59.8088732" lon="17.6653311">
        <ele>8.78918</ele>
        <time>2014-06-01T13:10:19Z</time>
      </trkpt>
      <trkpt lat="59.8089219" lon="17.665372">
        <ele>8.78918</ele>
        <time>2014-06-01T13:10:20Z</time>
      </trkpt>
      <trkpt lat="59.8089739" lon="17.6654032">
        <ele>8.78918</ele>
        <time>2014-06-01T13:10:21Z</time>
      </trkpt>
      <trkpt lat="59.8090257" lon="17.6654223">
        <ele>8.78918</ele>
        <time>2014-06-01T13:10:22Z</time>
      </trkpt>
      <trkpt lat="59.8090776" lon="17.6654315">
        <ele>8.78918</ele>
        <time>2014-06-01T13:10:23Z</time>
      </trkpt>
      <trkpt lat="59.8091303" lon="17.665436">
        <ele>9.2699</ele>
        <time>2014-06-01T13:10:24Z</time>
      </trkpt>
      <trkpt lat="59.8091832" lon="17.6654396">
        <ele>8.78918</ele>
        <time>2014-06-01T13:10:25Z</time>
      </trkpt>
      <trkpt lat="59.8092366" lon="17.6654426">
        <ele>8.78918</ele>
        <time>2014-06-01T13:10:26Z</time>
      </trkpt>
      <trkpt lat="59.8092908" lon="17.6654502">
        <ele>8.78918</ele>
        <time>2014-06-01T13:10:27Z</time>
      </trkpt>
      <trkpt lat="59.8093435" lon="17.6654761">
        <ele>8.30859</ele>
        <time>2014-06-01T13:10:28Z</time>
      </trkpt>
      <trkpt lat="59.8093953" lon="17.665527">
        <ele>8.30859</ele>
        <time>2014-06-01T13:10:29Z</time>
      </trkpt>
      <trkpt lat="59.8094389" lon="17.6656051">
        <ele>7.82788</ele>
        <time>2014-06-01T13:10:30Z</time>
      </trkpt>
      <trkpt lat="59.8094774" lon="17.6657021">
        <ele>8.30859</ele>
        <time>2014-06-01T13:10:31Z</time>
      </trkpt>
      <trkpt lat="59.8095104" lon="17.6658055">
        <ele>7.82788</ele>
        <time>2014-06-01T13:10:32Z</time>
      </trkpt>
      <trkpt lat="59.8095374" lon="17.6659127">
        <ele>7.34717</ele>
        <time>2014-06-01T13:10:33Z</time>
      </trkpt>
      <trkpt lat="59.8095656" lon="17.6660231">
        <ele>6.38586</ele>
        <time>2014-06-01T13:10:34Z</time>
      </trkpt>
      <trkpt lat="59.8095984" lon="17.6661345">
        <ele>6.38586</ele>
        <time>2014-06-01T13:10:35Z</time>
      </trkpt>
      <trkpt lat="59.8096313" lon="17.6662424">
        <ele>6.38586</ele>
        <time>2014-06-01T13:10:36Z</time>
      </trkpt>
      <trkpt lat="59.8096642" lon="17.6663458">
        <ele>6.38586</ele>
        <time>2014-06-01T13:10:37Z</time>
      </trkpt>
      <trkpt lat="59.8096951" lon="17.6664456">
        <ele>6.38586</ele>
        <time>2014-06-01T13:10:38Z</time>
      </trkpt>
      <trkpt lat="59.8097267" lon="17.6665398">
        <ele>5.90527</ele>
        <time>2014-06-01T13:10:39Z</time>
      </trkpt>
      <trkpt lat="59.8097592" lon="17.6666317">
        <ele>5.90527</ele>
        <time>2014-06-01T13:10:40Z</time>
      </trkpt>
      <trkpt lat="59.8097898" lon="17.666727">
        <ele>5.90527</ele>
        <time>2014-06-01T13:10:41Z</time>
      </trkpt>
      <trkpt lat="59.8098199" lon="17.6668232">
        <ele>5.90527</ele>
        <time>2014-06-01T13:10:42Z</time>
      </trkpt>
      <trkpt lat="59.8098455" lon="17.6669166">
        <ele>6.38586</ele>
        <time>2014-06-01T13:10:43Z</time>
      </trkpt>
      <trkpt lat="59.8098685" lon="17.6670106">
        <ele>6.38586</ele>
        <time>2014-06-01T13:10:44Z</time>
      </trkpt>
      <trkpt lat="59.8098893" lon="17.6671074">
        <ele>5.90527</ele>
        <time>2014-06-01T13:10:45Z</time>
      </trkpt>
      <trkpt lat="59.8099017" lon="17.6672074">
        <ele>5.90527</ele>
        <time>2014-06-01T13:10:46Z</time>
      </trkpt>
      <trkpt lat="59.8099059" lon="17.6673085">
        <ele>5.42456</ele>
        <time>2014-06-01T13:10:47Z</time>
      </trkpt>
      <trkpt lat="59.8099011" lon="17.6674064">
        <ele>5.42456</ele>
        <time>2014-06-01T13:10:48Z</time>
      </trkpt>
      <trkpt lat="59.8098835" lon="17.6674925">
        <ele>5.42456</ele>
        <time>2014-06-01T13:10:49Z</time>
      </trkpt>
      <trkpt lat="59.8098541" lon="17.6675747">
        <ele>5.42456</ele>
        <time>2014-06-01T13:10:50Z</time>
      </trkpt>
      <trkpt lat="59.8098217" lon="17.6676616">
        <ele>5.42456</ele>
        <time>2014-06-01T13:10:51Z</time>
      </trkpt>
      <trkpt lat="59.8097898" lon="17.667753">
        <ele>5.42456</ele>
        <time>2014-06-01T13:10:52Z</time>
      </trkpt>
      <trkpt lat="59.8097605" lon="17.6678601">
        <ele>3.98267</ele>
        <time>2014-06-01T13:10:53Z</time>
      </trkpt>
      <trkpt lat="59.8097372" lon="17.667972">
        <ele>3.02124</ele>
        <time>2014-06-01T13:10:54Z</time>
      </trkpt>
      <trkpt lat="59.809715" lon="17.6681151">
        <ele>2.06006</ele>
        <time>2014-06-01T13:10:55Z</time>
      </trkpt>
      <trkpt lat="59.8097054" lon="17.668232">
        <ele>1.57935</ele>
        <time>2014-06-01T13:10:56Z</time>
      </trkpt>
      <trkpt lat="59.809712" lon="17.6683269">
        <ele>1.09863</ele>
        <time>2014-06-01T13:10:57Z</time>
      </trkpt>
      <trkpt lat="59.8097255" lon="17.6684503">
        <ele>1.57935</ele>
        <time>2014-06-01T13:10:58Z</time>
      </trkpt>
      <trkpt lat="59.8097515" lon="17.6685475">
        <ele>1.09863</ele>
        <time>2014-06-01T13:10:59Z</time>
      </trkpt>
      <trkpt lat="59.8098043" lon="17.6686169">
        <ele>1.57935</ele>
        <time>2014-06-01T13:11:00Z</time>
      </trkpt>
      <trkpt lat="59.80986" lon="17.6686703">
        <ele>2.06006</ele>
        <time>2014-06-01T13:11:01Z</time>
      </trkpt>
      <trkpt lat="59.8099199" lon="17.6687227">
        <ele>2.54065</ele>
        <time>2014-06-01T13:11:02Z</time>
      </trkpt>
      <trkpt lat="59.8099824" lon="17.6687698">
        <ele>3.02124</ele>
        <time>2014-06-01T13:11:03Z</time>
      </trkpt>
      <trkpt lat="59.8100451" lon="17.668816">
        <ele>3.02124</ele>
        <time>2014-06-01T13:11:04Z</time>
      </trkpt>
      <trkpt lat="59.8101063" lon="17.6688612">
        <ele>3.02124</ele>
        <time>2014-06-01T13:11:05Z</time>
      </trkpt>
      <trkpt lat="59.8101683" lon="17.668907">
        <ele>3.50195</ele>
        <time>2014-06-01T13:11:06Z</time>
      </trkpt>
      <trkpt lat="59.8102291" lon="17.6689546">
        <ele>3.50195</ele>
        <time>2014-06-01T13:11:07Z</time>
      </trkpt>
      <trkpt lat="59.8102899" lon="17.6690004">
        <ele>3.50195</ele>
        <time>2014-06-01T13:11:08Z</time>
      </trkpt>
      <trkpt lat="59.8103506" lon="17.6690429">
        <ele>3.50195</ele>
        <time>2014-06-01T13:11:09Z</time>
      </trkpt>
      <trkpt lat="59.8104115" lon="17.6690861">
        <ele>3.98267</ele>
        <time>2014-06-01T13:11:10Z</time>
      </trkpt>
      <trkpt lat="59.8104725" lon="17.6691299">
        <ele>4.46326</ele>
        <time>2014-06-01T13:11:11Z</time>
      </trkpt>
      <trkpt lat="59.8105334" lon="17.6691754">
        <ele>4.46326</ele>
        <time>2014-06-01T13:11:12Z</time>
      </trkpt>
      <trkpt lat="59.8105945" lon="17.669219">
        <ele>4.94385</ele>
        <time>2014-06-01T13:11:13Z</time>
      </trkpt>
      <trkpt lat="59.8106553" lon="17.6692619">
        <ele>4.94385</ele>
        <time>2014-06-01T13:11:14Z</time>
      </trkpt>
      <trkpt lat="59.8107171" lon="17.6693067">
        <ele>5.42456</ele>
        <time>2014-06-01T13:11:15Z</time>
      </trkpt>
      <trkpt lat="59.8107795" lon="17.6693551">
        <ele>5.42456</ele>
        <time>2014-06-01T13:11:16Z</time>
      </trkpt>
      <trkpt lat="59.8108406" lon="17.6694031">
        <ele>5.90527</ele>
        <time>2014-06-01T13:11:17Z</time>
      </trkpt>
      <trkpt lat="59.8109015" lon="17.6694502">
        <ele>5.90527</ele>
        <time>2014-06-01T13:11:18Z</time>
      </trkpt>
      <trkpt lat="59.8109631" lon="17.669496">
        <ele>5.90527</ele>
        <time>2014-06-01T13:11:19Z</time>
      </trkpt>
      <trkpt lat="59.8110255" lon="17.6695427">
        <ele>5.90527</ele>
        <time>2014-06-01T13:11:20Z</time>
      </trkpt>
      <trkpt lat="59.8110882" lon="17.6695918">
        <ele>5.90527</ele>
        <time>2014-06-01T13:11:21Z</time>
      </trkpt>
      <trkpt lat="59.8111517" lon="17.6696424">
        <ele>5.90527</ele>
        <time>2014-06-01T13:11:22Z</time>
      </trkpt>
      <trkpt lat="59.8112153" lon="17.6696923">
        <ele>6.38586</ele>
        <time>2014-06-01T13:11:23Z</time>
      </trkpt>
      <trkpt lat="59.811279" lon="17.6697417">
        <ele>6.38586</ele>
        <time>2014-06-01T13:11:24Z</time>
      </trkpt>
      <trkpt lat="59.8113429" lon="17.6697902">
        <ele>6.38586</ele>
        <time>2014-06-01T13:11:25Z</time>
      </trkpt>
      <trkpt lat="59.8114081" lon="17.6698373">
        <ele>6.38586</ele>
        <time>2014-06-01T13:11:26Z</time>
      </trkpt>
      <trkpt lat="59.8114734" lon="17.6698835">
        <ele>6.38586</ele>
        <time>2014-06-01T13:11:27Z</time>
      </trkpt>
      <trkpt lat="59.8115392" lon="17.6699304">
        <ele>6.38586</ele>
        <time>2014-06-01T13:11:28Z</time>
      </trkpt>
      <trkpt lat="59.8116039" lon="17.6699773">
        <ele>6.38586</ele>
        <time>2014-06-01T13:11:29Z</time>
      </trkpt>
      <trkpt lat="59.811668" lon="17.6700212">
        <ele>6.38586</ele>
        <time>2014-06-01T13:11:30Z</time>
      </trkpt>
      <trkpt lat="59.8117317" lon="17.6700555">
        <ele>6.38586</ele>
        <time>2014-06-01T13:11:31Z</time>
      </trkpt>
      <trkpt lat="59.8117963" lon="17.6700793">
        <ele>6.38586</ele>
        <time>2014-06-01T13:11:32Z</time>
      </trkpt>
      <trkpt lat="59.8118624" lon="17.6700954">
        <ele>6.86646</ele>
        <time>2014-06-01T13:11:33Z</time>
      </trkpt>
      <trkpt lat="59.8119296" lon="17.6701062">
        <ele>6.86646</ele>
        <time>2014-06-01T13:11:34Z</time>
      </trkpt>
      <trkpt lat="59.8119971" lon="17.6701145">
        <ele>6.86646</ele>
        <time>2014-06-01T13:11:35Z</time>
      </trkpt>
      <trkpt lat="59.8120647" lon="17.6701233">
        <ele>6.86646</ele>
        <time>2014-06-01T13:11:36Z</time>
      </trkpt>
      <trkpt lat="59.8121337" lon="17.6701286">
        <ele>6.86646</ele>
        <time>2014-06-01T13:11:37Z</time>
      </trkpt>
      <trkpt lat="59.8122012" lon="17.6701378">
        <ele>6.86646</ele>
        <time>2014-06-01T13:11:38Z</time>
      </trkpt>
      <trkpt lat="59.8122694" lon="17.6701524">
        <ele>6.86646</ele>
        <time>2014-06-01T13:11:39Z</time>
      </trkpt>
      <trkpt lat="59.8123359" lon="17.670168">
        <ele>6.86646</ele>
        <time>2014-06-01T13:11:40Z</time>
      </trkpt>
      <trkpt lat="59.8124001" lon="17.6701797">
        <ele>6.86646</ele>
        <time>2014-06-01T13:11:41Z</time>
      </trkpt>
      <trkpt lat="59.8124627" lon="17.6701863">
        <ele>6.86646</ele>
        <time>2014-06-01T13:11:42Z</time>
      </trkpt>
      <trkpt lat="59.8125267" lon="17.670193">
        <ele>6.86646</ele>
        <time>2014-06-01T13:11:43Z</time>
      </trkpt>
      <trkpt lat="59.8125912" lon="17.6702046">
        <ele>6.86646</ele>
        <time>2014-06-01T13:11:44Z</time>
      </trkpt>
      <trkpt lat="59.8126559" lon="17.6702227">
        <ele>6.86646</ele>
        <time>2014-06-01T13:11:45Z</time>
      </trkpt>
      <trkpt lat="59.8127207" lon="17.6702435">
        <ele>6.86646</ele>
        <time>2014-06-01T13:11:46Z</time>
      </trkpt>
      <trkpt lat="59.8127854" lon="17.6702695">
        <ele>6.86646</ele>
        <time>2014-06-01T13:11:47Z</time>
      </trkpt>
      <trkpt lat="59.8128492" lon="17.670306">
        <ele>6.86646</ele>
        <time>2014-06-01T13:11:48Z</time>
      </trkpt>
      <trkpt lat="59.8129117" lon="17.6703518">
        <ele>7.34717</ele>
        <time>2014-06-01T13:11:49Z</time>
      </trkpt>
      <trkpt lat="59.8129722" lon="17.6704026">
        <ele>7.34717</ele>
        <time>2014-06-01T13:11:50Z</time>
      </trkpt>
      <trkpt lat="59.8130325" lon="17.6704517">
        <ele>7.34717</ele>
        <time>2014-06-01T13:11:51Z</time>
      </trkpt>
      <trkpt lat="59.8130942" lon="17.6704947">
        <ele>7.34717</ele>
        <time>2014-06-01T13:11:52Z</time>
      </trkpt>
      <trkpt lat="59.8131547" lon="17.670537">
        <ele>7.34717</ele>
        <time>2014-06-01T13:11:53Z</time>
      </trkpt>
      <trkpt lat="59.8132129" lon="17.6705724">
        <ele>7.34717</ele>
        <time>2014-06-01T13:11:54Z</time>
      </trkpt>
      <trkpt lat="59.8132698" lon="17.6706047">
        <ele>7.34717</ele>
        <time>2014-06-01T13:11:55Z</time>
      </trkpt>
      <trkpt lat="59.8133255" lon="17.6706434">
        <ele>7.34717</ele>
        <time>2014-06-01T13:11:56Z</time>
      </trkpt>
      <trkpt lat="59.8133842" lon="17.6706753">
        <ele>7.34717</ele>
        <time>2014-06-01T13:11:57Z</time>
      </trkpt>
      <trkpt lat="59.8134469" lon="17.6706993">
        <ele>7.34717</ele>
        <time>2014-06-01T13:11:58Z</time>
      </trkpt>
      <trkpt lat="59.8135111" lon="17.6707137">
        <ele>7.34717</ele>
        <time>2014-06-01T13:11:59Z</time>
      </trkpt>
      <trkpt lat="59.813579" lon="17.6707263">
        <ele>7.34717</ele>
        <time>2014-06-01T13:12:00Z</time>
      </trkpt>
      <trkpt lat="59.8136492" lon="17.6707346">
        <ele>7.82788</ele>
        <time>2014-06-01T13:12:01Z</time>
      </trkpt>
      <trkpt lat="59.8137178" lon="17.6707413">
        <ele>7.82788</ele>
        <time>2014-06-01T13:12:02Z</time>
      </trkpt>
      <trkpt lat="59.8137858" lon="17.6707471">
        <ele>7.82788</ele>
        <time>2014-06-01T13:12:03Z</time>
      </trkpt>
      <trkpt lat="59.8138526" lon="17.6707494">
        <ele>7.82788</ele>
        <time>2014-06-01T13:12:04Z</time>
      </trkpt>
      <trkpt lat="59.8139183" lon="17.6707455">
        <ele>7.82788</ele>
        <time>2014-06-01T13:12:05Z</time>
      </trkpt>
      <trkpt lat="59.813983" lon="17.6707356">
        <ele>7.82788</ele>
        <time>2014-06-01T13:12:06Z</time>
      </trkpt>
      <trkpt lat="59.8140474" lon="17.6707106">
        <ele>7.82788</ele>
        <time>2014-06-01T13:12:07Z</time>
      </trkpt>
      <trkpt lat="59.8141079" lon="17.6706926">
        <ele>7.82788</ele>
        <time>2014-06-01T13:12:08Z</time>
      </trkpt>
      <trkpt lat="59.8141691" lon="17.6706712">
        <ele>7.82788</ele>
        <time>2014-06-01T13:12:09Z</time>
      </trkpt>
      <trkpt lat="59.8142291" lon="17.6706451">
        <ele>7.82788</ele>
        <time>2014-06-01T13:12:10Z</time>
      </trkpt>
      <trkpt lat="59.8142892" lon="17.6706133">
        <ele>7.82788</ele>
        <time>2014-06-01T13:12:11Z</time>
      </trkpt>
      <trkpt lat="59.8143466" lon="17.6705823">
        <ele>7.34717</ele>
        <time>2014-06-01T13:12:12Z</time>
      </trkpt>
      <trkpt lat="59.8144036" lon="17.670542">
        <ele>7.34717</ele>
        <time>2014-06-01T13:12:13Z</time>
      </trkpt>
      <trkpt lat="59.8144613" lon="17.6705041">
        <ele>7.34717</ele>
        <time>2014-06-01T13:12:14Z</time>
      </trkpt>
      <trkpt lat="59.814517" lon="17.6704634">
        <ele>7.82788</ele>
        <time>2014-06-01T13:12:15Z</time>
      </trkpt>
      <trkpt lat="59.814571" lon="17.6704222">
        <ele>7.82788</ele>
        <time>2014-06-01T13:12:16Z</time>
      </trkpt>
      <trkpt lat="59.8146227" lon="17.6703801">
        <ele>7.82788</ele>
        <time>2014-06-01T13:12:17Z</time>
      </trkpt>
      <trkpt lat="59.8146746" lon="17.6703374">
        <ele>8.30859</ele>
        <time>2014-06-01T13:12:18Z</time>
      </trkpt>
      <trkpt lat="59.8147283" lon="17.6702963">
        <ele>8.30859</ele>
        <time>2014-06-01T13:12:19Z</time>
      </trkpt>
      <trkpt lat="59.8147811" lon="17.6702549">
        <ele>8.30859</ele>
        <time>2014-06-01T13:12:20Z</time>
      </trkpt>
      <trkpt lat="59.8148308" lon="17.6702098">
        <ele>8.30859</ele>
        <time>2014-06-01T13:12:21Z</time>
      </trkpt>
      <trkpt lat="59.8148765" lon="17.6701588">
        <ele>8.30859</ele>
        <time>2014-06-01T13:12:22Z</time>
      </trkpt>
      <trkpt lat="59.8149195" lon="17.670101">
        <ele>8.30859</ele>
        <time>2014-06-01T13:12:23Z</time>
      </trkpt>
      <trkpt lat="59.8149568" lon="17.6700337">
        <ele>7.82788</ele>
        <time>2014-06-01T13:12:24Z</time>
      </trkpt>
      <trkpt lat="59.8149852" lon="17.6699482">
        <ele>7.82788</ele>
        <time>2014-06-01T13:12:25Z</time>
      </trkpt>
      <trkpt lat="59.8150051" lon="17.669856">
        <ele>7.82788</ele>
        <time>2014-06-01T13:12:26Z</time>
      </trkpt>
      <trkpt lat="59.8150139" lon="17.6697607">
        <ele>7.82788</ele>
        <time>2014-06-01T13:12:27Z</time>
      </trkpt>
      <trkpt lat="59.8150127" lon="17.6696561">
        <ele>8.30859</ele>
        <time>2014-06-01T13:12:28Z</time>
      </trkpt>
      <trkpt lat="59.8150049" lon="17.6695458">
        <ele>7.82788</ele>
        <time>2014-06-01T13:12:29Z</time>
      </trkpt>
      <trkpt lat="59.8149928" lon="17.669436">
        <ele>7.82788</ele>
        <time>2014-06-01T13:12:30Z</time>
      </trkpt>
      <trkpt lat="59.8149805" lon="17.6693274">
        <ele>7.82788</ele>
        <time>2014-06-01T13:12:31Z</time>
      </trkpt>
      <trkpt lat="59.8149686" lon="17.669219">
        <ele>7.34717</ele>
        <time>2014-06-01T13:12:32Z</time>
      </trkpt>
      <trkpt lat="59.8149586" lon="17.6691118">
        <ele>7.82788</ele>
        <time>2014-06-01T13:12:33Z</time>
      </trkpt>
      <trkpt lat="59.8149502" lon="17.6690058">
        <ele>7.82788</ele>
        <time>2014-06-01T13:12:34Z</time>
      </trkpt>
      <trkpt lat="59.8149422" lon="17.6689002">
        <ele>7.82788</ele>
        <time>2014-06-01T13:12:35Z</time>
      </trkpt>
      <trkpt lat="59.8149332" lon="17.6687951">
        <ele>7.82788</ele>
        <time>2014-06-01T13:12:36Z</time>
      </trkpt>
      <trkpt lat="59.8149237" lon="17.6686895">
        <ele>7.34717</ele>
        <time>2014-06-01T13:12:37Z</time>
      </trkpt>
      <trkpt lat="59.8149148" lon="17.6685864">
        <ele>7.34717</ele>
        <time>2014-06-01T13:12:38Z</time>
      </trkpt>
      <trkpt lat="59.8149056" lon="17.6684863">
        <ele>7.34717</ele>
        <time>2014-06-01T13:12:39Z</time>
      </trkpt>
      <trkpt lat="59.8148987" lon="17.6683906">
        <ele>7.34717</ele>
        <time>2014-06-01T13:12:40Z</time>
      </trkpt>
      <trkpt lat="59.8148958" lon="17.6683026">
        <ele>7.82788</ele>
        <time>2014-06-01T13:12:41Z</time>
      </trkpt>
      <trkpt lat="59.8148948" lon="17.6682164">
        <ele>7.82788</ele>
        <time>2014-06-01T13:12:42Z</time>
      </trkpt>
      <trkpt lat="59.8148946" lon="17.668129">
        <ele>7.82788</ele>
        <time>2014-06-01T13:12:43Z</time>
      </trkpt>
      <trkpt lat="59.8148967" lon="17.6680409">
        <ele>7.82788</ele>
        <time>2014-06-01T13:12:44Z</time>
      </trkpt>
      <trkpt lat="59.8148979" lon="17.6679497">
        <ele>8.30859</ele>
        <time>2014-06-01T13:12:45Z</time>
      </trkpt>
      <trkpt lat="59.8148999" lon="17.6678568">
        <ele>8.30859</ele>
        <time>2014-06-01T13:12:46Z</time>
      </trkpt>
      <trkpt lat="59.8149035" lon="17.6677627">
        <ele>8.30859</ele>
        <time>2014-06-01T13:12:47Z</time>
      </trkpt>
      <trkpt lat="59.8149077" lon="17.6676674">
        <ele>8.30859</ele>
        <time>2014-06-01T13:12:48Z</time>
      </trkpt>
      <trkpt lat="59.8149117" lon="17.6675719">
        <ele>8.30859</ele>
        <time>2014-06-01T13:12:49Z</time>
      </trkpt>
      <trkpt lat="59.814915" lon="17.6674769">
        <ele>8.30859</ele>
        <time>2014-06-01T13:12:50Z</time>
      </trkpt>
      <trkpt lat="59.814919" lon="17.6673813">
        <ele>8.30859</ele>
        <time>2014-06-01T13:12:51Z</time>
      </trkpt>
      <trkpt lat="59.8149275" lon="17.6672841">
        <ele>8.30859</ele>
        <time>2014-06-01T13:12:52Z</time>
      </trkpt>
      <trkpt lat="59.814946" lon="17.6671899">
        <ele>8.30859</ele>
        <time>2014-06-01T13:12:53Z</time>
      </trkpt>
      <trkpt lat="59.8149735" lon="17.6670976">
        <ele>8.30859</ele>
        <time>2014-06-01T13:12:54Z</time>
      </trkpt>
      <trkpt lat="59.8150023" lon="17.6670078">
        <ele>8.30859</ele>
        <time>2014-06-01T13:12:55Z</time>
      </trkpt>
      <trkpt lat="59.8150222" lon="17.6669135">
        <ele>8.30859</ele>
        <time>2014-06-01T13:12:56Z</time>
      </trkpt>
      <trkpt lat="59.8150331" lon="17.6668097">
        <ele>7.82788</ele>
        <time>2014-06-01T13:12:57Z</time>
      </trkpt>
      <trkpt lat="59.8150383" lon="17.6666982">
        <ele>7.82788</ele>
        <time>2014-06-01T13:12:58Z</time>
      </trkpt>
      <trkpt lat="59.8150393" lon="17.6665827">
        <ele>8.30859</ele>
        <time>2014-06-01T13:12:59Z</time>
      </trkpt>
      <trkpt lat="59.8150391" lon="17.6664667">
        <ele>8.30859</ele>
        <time>2014-06-01T13:13:00Z</time>
      </trkpt>
      <trkpt lat="59.8150393" lon="17.6663516">
        <ele>8.30859</ele>
        <time>2014-06-01T13:13:01Z</time>
      </trkpt>
      <trkpt lat="59.8150393" lon="17.6662381">
        <ele>8.78918</ele>
        <time>2014-06-01T13:13:02Z</time>
      </trkpt>
      <trkpt lat="59.8150377" lon="17.6661269">
        <ele>8.78918</ele>
        <time>2014-06-01T13:13:03Z</time>
      </trkpt>
      <trkpt lat="59.8150351" lon="17.6660208">
        <ele>9.2699</ele>
        <time>2014-06-01T13:13:04Z</time>
      </trkpt>
      <trkpt lat="59.815031" lon="17.6659196">
        <ele>9.75061</ele>
        <time>2014-06-01T13:13:05Z</time>
      </trkpt>
      <trkpt lat="59.8150269" lon="17.6658238">
        <ele>10.2312</ele>
        <time>2014-06-01T13:13:06Z</time>
      </trkpt>
      <trkpt lat="59.8150304" lon="17.665731">
        <ele>10.2312</ele>
        <time>2014-06-01T13:13:07Z</time>
      </trkpt>
      <trkpt lat="59.8150563" lon="17.6656311">
        <ele>11.1925</ele>
        <time>2014-06-01T13:13:08Z</time>
      </trkpt>
      <trkpt lat="59.8150989" lon="17.6656">
        <ele>11.6732</ele>
        <time>2014-06-01T13:13:09Z</time>
      </trkpt>
      <trkpt lat="59.8151438" lon="17.6656074">
        <ele>11.6732</ele>
        <time>2014-06-01T13:13:10Z</time>
      </trkpt>
      <trkpt lat="59.81519" lon="17.6656243">
        <ele>12.6344</ele>
        <time>2014-06-01T13:13:11Z</time>
      </trkpt>
      <trkpt lat="59.8152397" lon="17.6656395">
        <ele>13.1151</ele>
        <time>2014-06-01T13:13:12Z</time>
      </trkpt>
      <trkpt lat="59.8152874" lon="17.6656558">
        <ele>13.5958</ele>
        <time>2014-06-01T13:13:13Z</time>
      </trkpt>
      <trkpt lat="59.8153317" lon="17.6656658">
        <ele>13.5958</ele>
        <time>2014-06-01T13:13:14Z</time>
      </trkpt>
      <trkpt lat="59.8153737" lon="17.665673">
        <ele>14.0764</ele>
        <time>2014-06-01T13:13:15Z</time>
      </trkpt>
      <trkpt lat="59.8154184" lon="17.6656778">
        <ele>14.557</ele>
        <time>2014-06-01T13:13:16Z</time>
      </trkpt>
      <trkpt lat="59.8154625" lon="17.6656825">
        <ele>15.0377</ele>
        <time>2014-06-01T13:13:17Z</time>
      </trkpt>
      <trkpt lat="59.8155035" lon="17.6656932">
        <ele>15.0377</ele>
        <time>2014-06-01T13:13:18Z</time>
      </trkpt>
      <trkpt lat="59.8155454" lon="17.6656998">
        <ele>15.5184</ele>
        <time>2014-06-01T13:13:19Z</time>
      </trkpt>
      <trkpt lat="59.8155871" lon="17.6657068">
        <ele>15.999</ele>
        <time>2014-06-01T13:13:20Z</time>
      </trkpt>
      <trkpt lat="59.8156296" lon="17.6657135">
        <ele>16.9604</ele>
        <time>2014-06-01T13:13:21Z</time>
      </trkpt>
      <trkpt lat="59.8156718" lon="17.6657166">
        <ele>17.9218</ele>
        <time>2014-06-01T13:13:22Z</time>
      </trkpt>
      <trkpt lat="59.8157132" lon="17.6657207">
        <ele>18.4023</ele>
        <time>2014-06-01T13:13:23Z</time>
      </trkpt>
      <trkpt lat="59.815751" lon="17.6657249">
        <ele>19.3638</ele>
        <time>2014-06-01T13:13:24Z</time>
      </trkpt>
      <trkpt lat="59.8157857" lon="17.6657286">
        <ele>19.8444</ele>
        <time>2014-06-01T13:13:25Z</time>
      </trkpt>
      <trkpt lat="59.8158188" lon="17.6657361">
        <ele>20.8057</ele>
        <time>2014-06-01T13:13:26Z</time>
      </trkpt>
      <trkpt lat="59.8158519" lon="17.6657435">
        <ele>21.767</ele>
        <time>2014-06-01T13:13:27Z</time>
      </trkpt>
      <trkpt lat="59.8158816" lon="17.6657477">
        <ele>21.767</ele>
        <time>2014-06-01T13:13:28Z</time>
      </trkpt>
      <trkpt lat="59.8159142" lon="17.6657477">
        <ele>22.7283</ele>
        <time>2014-06-01T13:13:29Z</time>
      </trkpt>
      <trkpt lat="59.8159451" lon="17.6657487">
        <ele>23.209</ele>
        <time>2014-06-01T13:13:30Z</time>
      </trkpt>
      <trkpt lat="59.8159725" lon="17.6657518">
        <ele>23.209</ele>
        <time>2014-06-01T13:13:31Z</time>
      </trkpt>
      <trkpt lat="59.8159987" lon="17.6657487">
        <ele>23.6896</ele>
        <time>2014-06-01T13:13:32Z</time>
      </trkpt>
      <trkpt lat="59.8160248" lon="17.6657428">
        <ele>23.6896</ele>
        <time>2014-06-01T13:13:33Z</time>
      </trkpt>
      <trkpt lat="59.8160515" lon="17.665739">
        <ele>24.1703</ele>
        <time>2014-06-01T13:13:34Z</time>
      </trkpt>
      <trkpt lat="59.8160783" lon="17.6657357">
        <ele>24.651</ele>
        <time>2014-06-01T13:13:35Z</time>
      </trkpt>
      <trkpt lat="59.8161022" lon="17.6657301">
        <ele>25.1317</ele>
        <time>2014-06-01T13:13:36Z</time>
      </trkpt>
      <trkpt lat="59.8161301" lon="17.6657212">
        <ele>25.6123</ele>
        <time>2014-06-01T13:13:37Z</time>
      </trkpt>
      <trkpt lat="59.8161592" lon="17.6657108">
        <ele>26.0929</ele>
        <time>2014-06-01T13:13:38Z</time>
      </trkpt>
      <trkpt lat="59.816186" lon="17.6657012">
        <ele>26.0929</ele>
        <time>2014-06-01T13:13:39Z</time>
      </trkpt>
      <trkpt lat="59.8162118" lon="17.6656879">
        <ele>27.0543</ele>
        <time>2014-06-01T13:13:40Z</time>
      </trkpt>
      <trkpt lat="59.8162363" lon="17.6656747">
        <ele>27.0543</ele>
        <time>2014-06-01T13:13:41Z</time>
      </trkpt>
      <trkpt lat="59.8162601" lon="17.6656623">
        <ele>27.0543</ele>
        <time>2014-06-01T13:13:42Z</time>
      </trkpt>
      <trkpt lat="59.8162789" lon="17.6656482">
        <ele>27.0543</ele>
        <time>2014-06-01T13:13:43Z</time>
      </trkpt>
      <trkpt lat="59.8162989" lon="17.6656352">
        <ele>27.0543</ele>
        <time>2014-06-01T13:13:44Z</time>
      </trkpt>
      <trkpt lat="59.8163217" lon="17.6656228">
        <ele>27.0543</ele>
        <time>2014-06-01T13:13:45Z</time>
      </trkpt>
      <trkpt lat="59.8163467" lon="17.6656139">
        <ele>27.5349</ele>
        <time>2014-06-01T13:13:46Z</time>
      </trkpt>
      <trkpt lat="59.8163696" lon="17.6656036">
        <ele>27.5349</ele>
        <time>2014-06-01T13:13:47Z</time>
      </trkpt>
      <trkpt lat="59.8163908" lon="17.6655871">
        <ele>27.5349</ele>
        <time>2014-06-01T13:13:48Z</time>
      </trkpt>
      <trkpt lat="59.8164116" lon="17.6655657">
        <ele>28.0155</ele>
        <time>2014-06-01T13:13:49Z</time>
      </trkpt>
      <trkpt lat="59.816431" lon="17.6655405">
        <ele>28.0155</ele>
        <time>2014-06-01T13:13:50Z</time>
      </trkpt>
      <trkpt lat="59.8164497" lon="17.665514">
        <ele>28.4962</ele>
        <time>2014-06-01T13:13:51Z</time>
      </trkpt>
      <trkpt lat="59.8164668" lon="17.6654865">
        <ele>28.4962</ele>
        <time>2014-06-01T13:13:52Z</time>
      </trkpt>
      <trkpt lat="59.816484" lon="17.6654576">
        <ele>28.9769</ele>
        <time>2014-06-01T13:13:53Z</time>
      </trkpt>
      <trkpt lat="59.8165016" lon="17.6654274">
        <ele>28.9769</ele>
        <time>2014-06-01T13:13:54Z</time>
      </trkpt>
      <trkpt lat="59.8165218" lon="17.6653975">
        <ele>28.9769</ele>
        <time>2014-06-01T13:13:55Z</time>
      </trkpt>
      <trkpt lat="59.8165445" lon="17.6653711">
        <ele>29.4575</ele>
        <time>2014-06-01T13:13:56Z</time>
      </trkpt>
      <trkpt lat="59.8165688" lon="17.6653477">
        <ele>29.4575</ele>
        <time>2014-06-01T13:13:57Z</time>
      </trkpt>
      <trkpt lat="59.8165932" lon="17.6653258">
        <ele>29.4575</ele>
        <time>2014-06-01T13:13:58Z</time>
      </trkpt>
      <trkpt lat="59.8166157" lon="17.6653033">
        <ele>29.4575</ele>
        <time>2014-06-01T13:13:59Z</time>
      </trkpt>
      <trkpt lat="59.8166384" lon="17.6652811">
        <ele>29.4575</ele>
        <time>2014-06-01T13:14:00Z</time>
      </trkpt>
      <trkpt lat="59.8166601" lon="17.6652645">
        <ele>29.4575</ele>
        <time>2014-06-01T13:14:01Z</time>
      </trkpt>
      <trkpt lat="59.8166818" lon="17.6652489">
        <ele>29.4575</ele>
        <time>2014-06-01T13:14:02Z</time>
      </trkpt>
      <trkpt lat="59.816703" lon="17.6652327">
        <ele>29.9381</ele>
        <time>2014-06-01T13:14:03Z</time>
      </trkpt>
      <trkpt lat="59.8167202" lon="17.665214">
        <ele>29.9381</ele>
        <time>2014-06-01T13:14:04Z</time>
      </trkpt>
      <trkpt lat="59.8167347" lon="17.6651937">
        <ele>30.4188</ele>
        <time>2014-06-01T13:14:05Z</time>
      </trkpt>
      <trkpt lat="59.8167497" lon="17.6651712">
        <ele>30.4188</ele>
        <time>2014-06-01T13:14:06Z</time>
      </trkpt>
      <trkpt lat="59.8167666" lon="17.6651498">
        <ele>30.8995</ele>
        <time>2014-06-01T13:14:07Z</time>
      </trkpt>
      <trkpt lat="59.816782" lon="17.6651295">
        <ele>31.3801</ele>
        <time>2014-06-01T13:14:08Z</time>
      </trkpt>
      <trkpt lat="59.8167967" lon="17.6651111">
        <ele>31.3801</ele>
        <time>2014-06-01T13:14:09Z</time>
      </trkpt>
      <trkpt lat="59.8168136" lon="17.6650891">
        <ele>32.3416</ele>
        <time>2014-06-01T13:14:10Z</time>
      </trkpt>
      <trkpt lat="59.8168322" lon="17.6650633">
        <ele>32.3416</ele>
        <time>2014-06-01T13:14:11Z</time>
      </trkpt>
      <trkpt lat="59.8168513" lon="17.6650352">
        <ele>32.3416</ele>
        <time>2014-06-01T13:14:12Z</time>
      </trkpt>
      <trkpt lat="59.8168704" lon="17.6650127">
        <ele>32.3416</ele>
        <time>2014-06-01T13:14:13Z</time>
      </trkpt>
      <trkpt lat="59.8168907" lon="17.6649961">
        <ele>31.8607</ele>
        <time>2014-06-01T13:14:14Z</time>
      </trkpt>
      <trkpt lat="59.8169122" lon="17.6649768">
        <ele>32.3416</ele>
        <time>2014-06-01T13:14:15Z</time>
      </trkpt>
      <trkpt lat="59.8169319" lon="17.6649488">
        <ele>32.3416</ele>
        <time>2014-06-01T13:14:16Z</time>
      </trkpt>
      <trkpt lat="59.8169534" lon="17.664926">
        <ele>31.8607</ele>
        <time>2014-06-01T13:14:17Z</time>
      </trkpt>
      <trkpt lat="59.8169695" lon="17.6649001">
        <ele>31.8607</ele>
        <time>2014-06-01T13:14:18Z</time>
      </trkpt>
      <trkpt lat="59.8169909" lon="17.66487">
        <ele>31.3801</ele>
        <time>2014-06-01T13:14:19Z</time>
      </trkpt>
      <trkpt lat="59.8170125" lon="17.6648325">
        <ele>29.9381</ele>
        <time>2014-06-01T13:14:20Z</time>
      </trkpt>
      <trkpt lat="59.8170348" lon="17.6647992">
        <ele>29.4575</ele>
        <time>2014-06-01T13:14:21Z</time>
      </trkpt>
      <trkpt lat="59.8170575" lon="17.6647665">
        <ele>29.9381</ele>
        <time>2014-06-01T13:14:22Z</time>
      </trkpt>
      <trkpt lat="59.8170806" lon="17.664737">
        <ele>29.9381</ele>
        <time>2014-06-01T13:14:23Z</time>
      </trkpt>
      <trkpt lat="59.8171011" lon="17.6647068">
        <ele>29.9381</ele>
        <time>2014-06-01T13:14:24Z</time>
      </trkpt>
      <trkpt lat="59.8171221" lon="17.6646728">
        <ele>29.9381</ele>
        <time>2014-06-01T13:14:25Z</time>
      </trkpt>
      <trkpt lat="59.8171432" lon="17.6646372">
        <ele>29.4575</ele>
        <time>2014-06-01T13:14:26Z</time>
      </trkpt>
      <trkpt lat="59.8171652" lon="17.6646051">
        <ele>29.4575</ele>
        <time>2014-06-01T13:14:27Z</time>
      </trkpt>
      <trkpt lat="59.817189" lon="17.6645776">
        <ele>29.9381</ele>
        <time>2014-06-01T13:14:28Z</time>
      </trkpt>
      <trkpt lat="59.8172117" lon="17.6645537">
        <ele>30.4188</ele>
        <time>2014-06-01T13:14:29Z</time>
      </trkpt>
      <trkpt lat="59.8172328" lon="17.6645247">
        <ele>30.4188</ele>
        <time>2014-06-01T13:14:30Z</time>
      </trkpt>
      <trkpt lat="59.8172558" lon="17.6644946">
        <ele>30.8995</ele>
        <time>2014-06-01T13:14:31Z</time>
      </trkpt>
      <trkpt lat="59.8172801" lon="17.6644647">
        <ele>30.8995</ele>
        <time>2014-06-01T13:14:32Z</time>
      </trkpt>
      <trkpt lat="59.8173028" lon="17.6644387">
        <ele>30.4188</ele>
        <time>2014-06-01T13:14:33Z</time>
      </trkpt>
      <trkpt lat="59.8173278" lon="17.6644132">
        <ele>30.4188</ele>
        <time>2014-06-01T13:14:34Z</time>
      </trkpt>
      <trkpt lat="59.8173511" lon="17.6643874">
        <ele>30.4188</ele>
        <time>2014-06-01T13:14:35Z</time>
      </trkpt>
      <trkpt lat="59.8173718" lon="17.6643692">
        <ele>30.4188</ele>
        <time>2014-06-01T13:14:36Z</time>
      </trkpt>
      <trkpt lat="59.8173941" lon="17.6643465">
        <ele>30.8995</ele>
        <time>2014-06-01T13:14:37Z</time>
      </trkpt>
      <trkpt lat="59.8174206" lon="17.6643233">
        <ele>31.8607</ele>
        <time>2014-06-01T13:14:38Z</time>
      </trkpt>
      <trkpt lat="59.8174434" lon="17.6643018">
        <ele>31.8607</ele>
        <time>2014-06-01T13:14:39Z</time>
      </trkpt>
      <trkpt lat="59.8174656" lon="17.6642833">
        <ele>32.8223</ele>
        <time>2014-06-01T13:14:40Z</time>
      </trkpt>
      <trkpt lat="59.8174905" lon="17.6642616">
        <ele>33.3029</ele>
        <time>2014-06-01T13:14:41Z</time>
      </trkpt>
      <trkpt lat="59.8175164" lon="17.6642401">
        <ele>33.7834</ele>
        <time>2014-06-01T13:14:42Z</time>
      </trkpt>
      <trkpt lat="59.8175361" lon="17.6642258">
        <ele>33.7834</ele>
        <time>2014-06-01T13:14:43Z</time>
      </trkpt>
      <trkpt lat="59.8175612" lon="17.6642132">
        <ele>33.7834</ele>
        <time>2014-06-01T13:14:44Z</time>
      </trkpt>
      <trkpt lat="59.8175901" lon="17.6641978">
        <ele>34.2642</ele>
        <time>2014-06-01T13:14:45Z</time>
      </trkpt>
      <trkpt lat="59.8176198" lon="17.6641832">
        <ele>33.7834</ele>
        <time>2014-06-01T13:14:46Z</time>
      </trkpt>
      <trkpt lat="59.817653" lon="17.6641718">
        <ele>33.7834</ele>
        <time>2014-06-01T13:14:47Z</time>
      </trkpt>
      <trkpt lat="59.8176884" lon="17.664162">
        <ele>33.7834</ele>
        <time>2014-06-01T13:14:48Z</time>
      </trkpt>
      <trkpt lat="59.8177247" lon="17.6641562">
        <ele>34.2642</ele>
        <time>2014-06-01T13:14:49Z</time>
      </trkpt>
      <trkpt lat="59.8177562" lon="17.6641511">
        <ele>35.2255</ele>
        <time>2014-06-01T13:14:50Z</time>
      </trkpt>
      <trkpt lat="59.8177786" lon="17.6641429">
        <ele>35.2255</ele>
        <time>2014-06-01T13:14:51Z</time>
      </trkpt>
      <trkpt lat="59.817798" lon="17.6641305">
        <ele>35.7061</ele>
        <time>2014-06-01T13:14:52Z</time>
      </trkpt>
      <trkpt lat="59.8178193" lon="17.6641217">
        <ele>36.1868</ele>
        <time>2014-06-01T13:14:53Z</time>
      </trkpt>
      <trkpt lat="59.8178406" lon="17.6641127">
        <ele>36.1868</ele>
        <time>2014-06-01T13:14:54Z</time>
      </trkpt>
      <trkpt lat="59.817867" lon="17.664103">
        <ele>36.6675</ele>
        <time>2014-06-01T13:14:55Z</time>
      </trkpt>
      <trkpt lat="59.8178957" lon="17.6640948">
        <ele>37.1481</ele>
        <time>2014-06-01T13:14:56Z</time>
      </trkpt>
      <trkpt lat="59.8179236" lon="17.6640957">
        <ele>38.5901</ele>
        <time>2014-06-01T13:14:57Z</time>
      </trkpt>
      <trkpt lat="59.8179515" lon="17.6640953">
        <ele>39.5513</ele>
        <time>2014-06-01T13:14:58Z</time>
      </trkpt>
      <trkpt lat="59.8179782" lon="17.6640953">
        <ele>40.0321</ele>
        <time>2014-06-01T13:14:59Z</time>
      </trkpt>
      <trkpt lat="59.8180048" lon="17.6640906">
        <ele>40.5128</ele>
        <time>2014-06-01T13:15:00Z</time>
      </trkpt>
      <trkpt lat="59.8180319" lon="17.6640863">
        <ele>40.5128</ele>
        <time>2014-06-01T13:15:01Z</time>
      </trkpt>
      <trkpt lat="59.8180618" lon="17.6640824">
        <ele>40.5128</ele>
        <time>2014-06-01T13:15:02Z</time>
      </trkpt>
      <trkpt lat="59.8180915" lon="17.6640713">
        <ele>40.5128</ele>
        <time>2014-06-01T13:15:03Z</time>
      </trkpt>
      <trkpt lat="59.8181226" lon="17.6640605">
        <ele>40.5128</ele>
        <time>2014-06-01T13:15:04Z</time>
      </trkpt>
      <trkpt lat="59.8181544" lon="17.6640503">
        <ele>40.5128</ele>
        <time>2014-06-01T13:15:05Z</time>
      </trkpt>
      <trkpt lat="59.8181847" lon="17.6640455">
        <ele>40.9934</ele>
        <time>2014-06-01T13:15:06Z</time>
      </trkpt>
      <trkpt lat="59.8182163" lon="17.6640434">
        <ele>41.474</ele>
        <time>2014-06-01T13:15:07Z</time>
      </trkpt>
      <trkpt lat="59.818249" lon="17.6640469">
        <ele>41.474</ele>
        <time>2014-06-01T13:15:08Z</time>
      </trkpt>
      <trkpt lat="59.8182815" lon="17.6640542">
        <ele>41.9547</ele>
        <time>2014-06-01T13:15:09Z</time>
      </trkpt>
      <trkpt lat="59.8183119" lon="17.6640579">
        <ele>41.9547</ele>
        <time>2014-06-01T13:15:10Z</time>
      </trkpt>
      <trkpt lat="59.8183431" lon="17.6640598">
        <ele>41.9547</ele>
        <time>2014-06-01T13:15:11Z</time>
      </trkpt>
      <trkpt lat="59.8183784" lon="17.6640594">
        <ele>42.4354</ele>
        <time>2014-06-01T13:15:12Z</time>
      </trkpt>
      <trkpt lat="59.8184131" lon="17.6640604">
        <ele>42.4354</ele>
        <time>2014-06-01T13:15:13Z</time>
      </trkpt>
      <trkpt lat="59.8184482" lon="17.6640599">
        <ele>42.4354</ele>
        <time>2014-06-01T13:15:14Z</time>
      </trkpt>
      <trkpt lat="59.8184851" lon="17.6640578">
        <ele>42.916</ele>
        <time>2014-06-01T13:15:15Z</time>
      </trkpt>
      <trkpt lat="59.8185234" lon="17.664061">
        <ele>42.916</ele>
        <time>2014-06-01T13:15:16Z</time>
      </trkpt>
      <trkpt lat="59.8185613" lon="17.6640624">
        <ele>42.4354</ele>
        <time>2014-06-01T13:15:17Z</time>
      </trkpt>
      <trkpt lat="59.8185996" lon="17.6640605">
        <ele>42.4354</ele>
        <time>2014-06-01T13:15:18Z</time>
      </trkpt>
      <trkpt lat="59.8186389" lon="17.6640569">
        <ele>42.4354</ele>
        <time>2014-06-01T13:15:19Z</time>
      </trkpt>
      <trkpt lat="59.8186786" lon="17.6640527">
        <ele>41.9547</ele>
        <time>2014-06-01T13:15:20Z</time>
      </trkpt>
      <trkpt lat="59.8187197" lon="17.6640489">
        <ele>41.9547</ele>
        <time>2014-06-01T13:15:21Z</time>
      </trkpt>
      <trkpt lat="59.8187641" lon="17.6640444">
        <ele>41.9547</ele>
        <time>2014-06-01T13:15:22Z</time>
      </trkpt>
      <trkpt lat="59.8188058" lon="17.6640424">
        <ele>41.9547</ele>
        <time>2014-06-01T13:15:23Z</time>
      </trkpt>
      <trkpt lat="59.8188492" lon="17.6640455">
        <ele>41.9547</ele>
        <time>2014-06-01T13:15:24Z</time>
      </trkpt>
      <trkpt lat="59.8188922" lon="17.6640409">
        <ele>41.9547</ele>
        <time>2014-06-01T13:15:25Z</time>
      </trkpt>
      <trkpt lat="59.8189369" lon="17.6640259">
        <ele>41.474</ele>
        <time>2014-06-01T13:15:26Z</time>
      </trkpt>
      <trkpt lat="59.8189768" lon="17.6640129">
        <ele>40.9934</ele>
        <time>2014-06-01T13:15:27Z</time>
      </trkpt>
      <trkpt lat="59.8190164" lon="17.6640019">
        <ele>41.474</ele>
        <time>2014-06-01T13:15:28Z</time>
      </trkpt>
      <trkpt lat="59.8190555" lon="17.663988">
        <ele>41.474</ele>
        <time>2014-06-01T13:15:29Z</time>
      </trkpt>
      <trkpt lat="59.8191006" lon="17.6639735">
        <ele>41.9547</ele>
        <time>2014-06-01T13:15:30Z</time>
      </trkpt>
      <trkpt lat="59.8191424" lon="17.6639638">
        <ele>42.4354</ele>
        <time>2014-06-01T13:15:31Z</time>
      </trkpt>
      <trkpt lat="59.8191863" lon="17.6639605">
        <ele>42.916</ele>
        <time>2014-06-01T13:15:32Z</time>
      </trkpt>
      <trkpt lat="59.8192294" lon="17.6639581">
        <ele>42.916</ele>
        <time>2014-06-01T13:15:33Z</time>
      </trkpt>
      <trkpt lat="59.8192691" lon="17.6639518">
        <ele>42.916</ele>
        <time>2014-06-01T13:15:34Z</time>
      </trkpt>
      <trkpt lat="59.8193073" lon="17.6639482">
        <ele>43.3966</ele>
        <time>2014-06-01T13:15:35Z</time>
      </trkpt>
      <trkpt lat="59.8193386" lon="17.663946">
        <ele>43.3966</ele>
        <time>2014-06-01T13:15:36Z</time>
      </trkpt>
      <trkpt lat="59.8193729" lon="17.6639513">
        <ele>43.8773</ele>
        <time>2014-06-01T13:15:37Z</time>
      </trkpt>
      <trkpt lat="59.8194119" lon="17.6639581">
        <ele>43.8773</ele>
        <time>2014-06-01T13:15:38Z</time>
      </trkpt>
      <trkpt lat="59.8194499" lon="17.6639512">
        <ele>44.358</ele>
        <time>2014-06-01T13:15:39Z</time>
      </trkpt>
      <trkpt lat="59.8194857" lon="17.6639438">
        <ele>44.8386</ele>
        <time>2014-06-01T13:15:40Z</time>
      </trkpt>
      <trkpt lat="59.8195209" lon="17.663942">
        <ele>45.3192</ele>
        <time>2014-06-01T13:15:41Z</time>
      </trkpt>
      <trkpt lat="59.8195522" lon="17.6639409">
        <ele>44.8386</ele>
        <time>2014-06-01T13:15:42Z</time>
      </trkpt>
      <trkpt lat="59.8195942" lon="17.6639361">
        <ele>45.3192</ele>
        <time>2014-06-01T13:15:43Z</time>
      </trkpt>
      <trkpt lat="59.819632" lon="17.6639295">
        <ele>45.3192</ele>
        <time>2014-06-01T13:15:44Z</time>
      </trkpt>
      <trkpt lat="59.8196732" lon="17.6639341">
        <ele>46.2806</ele>
        <time>2014-06-01T13:15:45Z</time>
      </trkpt>
      <trkpt lat="59.8197195" lon="17.6639388">
        <ele>47.2418</ele>
        <time>2014-06-01T13:15:46Z</time>
      </trkpt>
      <trkpt lat="59.8197621" lon="17.6639428">
        <ele>47.2418</ele>
        <time>2014-06-01T13:15:47Z</time>
      </trkpt>
      <trkpt lat="59.8198112" lon="17.6639497">
        <ele>48.684</ele>
        <time>2014-06-01T13:15:48Z</time>
      </trkpt>
      <trkpt lat="59.8198577" lon="17.6639576">
        <ele>49.6453</ele>
        <time>2014-06-01T13:15:49Z</time>
      </trkpt>
      <trkpt lat="59.8199071" lon="17.6639752">
        <ele>52.0486</ele>
        <time>2014-06-01T13:15:50Z</time>
      </trkpt>
      <trkpt lat="59.8199449" lon="17.6639982">
        <ele>52.0486</ele>
        <time>2014-06-01T13:15:51Z</time>
      </trkpt>
      <trkpt lat="59.8199795" lon="17.6640182">
        <ele>52.5292</ele>
        <time>2014-06-01T13:15:52Z</time>
      </trkpt>
      <trkpt lat="59.8200214" lon="17.6640324">
        <ele>53.4905</ele>
        <time>2014-06-01T13:15:53Z</time>
      </trkpt>
      <trkpt lat="59.8200524" lon="17.6640367">
        <ele>53.9712</ele>
        <time>2014-06-01T13:15:54Z</time>
      </trkpt>
      <trkpt lat="59.8200837" lon="17.6640446">
        <ele>53.9712</ele>
        <time>2014-06-01T13:15:55Z</time>
      </trkpt>
      <trkpt lat="59.8201209" lon="17.6640494">
        <ele>54.9324</ele>
        <time>2014-06-01T13:15:56Z</time>
      </trkpt>
      <trkpt lat="59.8201551" lon="17.6640551">
        <ele>54.9324</ele>
        <time>2014-06-01T13:15:57Z</time>
      </trkpt>
      <trkpt lat="59.8201879" lon="17.6640631">
        <ele>54.4518</ele>
        <time>2014-06-01T13:15:58Z</time>
      </trkpt>
      <trkpt lat="59.8202251" lon="17.6640722">
        <ele>54.9324</ele>
        <time>2014-06-01T13:15:59Z</time>
      </trkpt>
      <trkpt lat="59.8202692" lon="17.6640795">
        <ele>56.3745</ele>
        <time>2014-06-01T13:16:00Z</time>
      </trkpt>
      <trkpt lat="59.8203126" lon="17.6640823">
        <ele>57.8165</ele>
        <time>2014-06-01T13:16:01Z</time>
      </trkpt>
      <trkpt lat="59.8203656" lon="17.6640818">
        <ele>59.7391</ele>
        <time>2014-06-01T13:16:02Z</time>
      </trkpt>
      <trkpt lat="59.8204034" lon="17.6640834">
        <ele>60.2197</ele>
        <time>2014-06-01T13:16:03Z</time>
      </trkpt>
      <trkpt lat="59.8204321" lon="17.6640823">
        <ele>60.2197</ele>
        <time>2014-06-01T13:16:04Z</time>
      </trkpt>
      <trkpt lat="59.8204567" lon="17.6640787">
        <ele>59.7391</ele>
        <time>2014-06-01T13:16:05Z</time>
      </trkpt>
      <trkpt lat="59.8204877" lon="17.6640684">
        <ele>59.7391</ele>
        <time>2014-06-01T13:16:06Z</time>
      </trkpt>
      <trkpt lat="59.8205197" lon="17.6640577">
        <ele>59.7391</ele>
        <time>2014-06-01T13:16:07Z</time>
      </trkpt>
      <trkpt lat="59.8205498" lon="17.6640516">
        <ele>60.2197</ele>
        <time>2014-06-01T13:16:08Z</time>
      </trkpt>
      <trkpt lat="59.8205732" lon="17.6640356">
        <ele>57.8165</ele>
        <time>2014-06-01T13:16:09Z</time>
      </trkpt>
      <trkpt lat="59.8206097" lon="17.6640165">
        <ele>56.8551</ele>
        <time>2014-06-01T13:16:10Z</time>
      </trkpt>
      <trkpt lat="59.8206531" lon="17.6640101">
        <ele>56.8551</ele>
        <time>2014-06-01T13:16:11Z</time>
      </trkpt>
      <trkpt lat="59.8206937" lon="17.6640065">
        <ele>56.3745</ele>
        <time>2014-06-01T13:16:12Z</time>
      </trkpt>
      <trkpt lat="59.8207413" lon="17.6640019">
        <ele>55.8938</ele>
        <time>2014-06-01T13:16:13Z</time>
      </trkpt>
      <trkpt lat="59.8207959" lon="17.6639958">
        <ele>56.3745</ele>
        <time>2014-06-01T13:16:14Z</time>
      </trkpt>
      <trkpt lat="59.8208496" lon="17.6639832">
        <ele>57.3358</ele>
        <time>2014-06-01T13:16:15Z</time>
      </trkpt>
      <trkpt lat="59.8209047" lon="17.6639677">
        <ele>57.3358</ele>
        <time>2014-06-01T13:16:16Z</time>
      </trkpt>
      <trkpt lat="59.8209632" lon="17.6639512">
        <ele>56.8551</ele>
        <time>2014-06-01T13:16:17Z</time>
      </trkpt>
      <trkpt lat="59.8210257" lon="17.6639375">
        <ele>55.8938</ele>
        <time>2014-06-01T13:16:18Z</time>
      </trkpt>
      <trkpt lat="59.8210907" lon="17.6639227">
        <ele>54.9324</ele>
        <time>2014-06-01T13:16:19Z</time>
      </trkpt>
      <trkpt lat="59.8211536" lon="17.6639097">
        <ele>53.9712</ele>
        <time>2014-06-01T13:16:20Z</time>
      </trkpt>
      <trkpt lat="59.8212184" lon="17.6639045">
        <ele>53.4905</ele>
        <time>2014-06-01T13:16:21Z</time>
      </trkpt>
      <trkpt lat="59.8212852" lon="17.6639049">
        <ele>52.5292</ele>
        <time>2014-06-01T13:16:22Z</time>
      </trkpt>
      <trkpt lat="59.821347" lon="17.6639134">
        <ele>52.5292</ele>
        <time>2014-06-01T13:16:23Z</time>
      </trkpt>
      <trkpt lat="59.8214014" lon="17.6639252">
        <ele>53.0098</ele>
        <time>2014-06-01T13:16:24Z</time>
      </trkpt>
      <trkpt lat="59.821452" lon="17.6639402">
        <ele>53.0098</ele>
        <time>2014-06-01T13:16:25Z</time>
      </trkpt>
      <trkpt lat="59.8215004" lon="17.6639601">
        <ele>52.5292</ele>
        <time>2014-06-01T13:16:26Z</time>
      </trkpt>
      <trkpt lat="59.8215537" lon="17.6639808">
        <ele>52.0486</ele>
        <time>2014-06-01T13:16:27Z</time>
      </trkpt>
      <trkpt lat="59.8216195" lon="17.6639952">
        <ele>52.5292</ele>
        <time>2014-06-01T13:16:28Z</time>
      </trkpt>
      <trkpt lat="59.8216874" lon="17.6639999">
        <ele>53.0098</ele>
        <time>2014-06-01T13:16:29Z</time>
      </trkpt>
      <trkpt lat="59.8217628" lon="17.6639968">
        <ele>53.4905</ele>
        <time>2014-06-01T13:16:30Z</time>
      </trkpt>
      <trkpt lat="59.8218418" lon="17.6639987">
        <ele>53.9712</ele>
        <time>2014-06-01T13:16:31Z</time>
      </trkpt>
      <trkpt lat="59.8219087" lon="17.6639964">
        <ele>54.4518</ele>
        <time>2014-06-01T13:16:32Z</time>
      </trkpt>
      <trkpt lat="59.8219832" lon="17.6639931">
        <ele>54.9324</ele>
        <time>2014-06-01T13:16:33Z</time>
      </trkpt>
      <trkpt lat="59.822062" lon="17.663977">
        <ele>55.8938</ele>
        <time>2014-06-01T13:16:34Z</time>
      </trkpt>
      <trkpt lat="59.8221395" lon="17.663958">
        <ele>56.3745</ele>
        <time>2014-06-01T13:16:35Z</time>
      </trkpt>
      <trkpt lat="59.8222163" lon="17.663949">
        <ele>56.3745</ele>
        <time>2014-06-01T13:16:36Z</time>
      </trkpt>
      <trkpt lat="59.8222943" lon="17.6639458">
        <ele>56.3745</ele>
        <time>2014-06-01T13:16:37Z</time>
      </trkpt>
      <trkpt lat="59.8223722" lon="17.663945">
        <ele>56.8551</ele>
        <time>2014-06-01T13:16:38Z</time>
      </trkpt>
      <trkpt lat="59.8224445" lon="17.6639368">
        <ele>57.3358</ele>
        <time>2014-06-01T13:16:39Z</time>
      </trkpt>
      <trkpt lat="59.8225104" lon="17.6639289">
        <ele>57.8165</ele>
        <time>2014-06-01T13:16:40Z</time>
      </trkpt>
      <trkpt lat="59.8225794" lon="17.6639119">
        <ele>58.7777</ele>
        <time>2014-06-01T13:16:41Z</time>
      </trkpt>
      <trkpt lat="59.8226461" lon="17.6638875">
        <ele>57.8165</ele>
        <time>2014-06-01T13:16:42Z</time>
      </trkpt>
      <trkpt lat="59.8227255" lon="17.6638611">
        <ele>58.7777</ele>
        <time>2014-06-01T13:16:43Z</time>
      </trkpt>
      <trkpt lat="59.8228136" lon="17.6638114">
        <ele>56.3745</ele>
        <time>2014-06-01T13:16:44Z</time>
      </trkpt>
      <trkpt lat="59.822898" lon="17.6637751">
        <ele>55.8938</ele>
        <time>2014-06-01T13:16:45Z</time>
      </trkpt>
      <trkpt lat="59.8229751" lon="17.6637477">
        <ele>54.4518</ele>
        <time>2014-06-01T13:16:46Z</time>
      </trkpt>
      <trkpt lat="59.8230845" lon="17.6637083">
        <ele>54.4518</ele>
        <time>2014-06-01T13:16:47Z</time>
      </trkpt>
      <trkpt lat="59.8232047" lon="17.6636859">
        <ele>54.4518</ele>
        <time>2014-06-01T13:16:48Z</time>
      </trkpt>
      <trkpt lat="59.823279" lon="17.6636965">
        <ele>53.9712</ele>
        <time>2014-06-01T13:16:49Z</time>
      </trkpt>
      <trkpt lat="59.823335" lon="17.6637017">
        <ele>53.0098</ele>
        <time>2014-06-01T13:16:50Z</time>
      </trkpt>
      <trkpt lat="59.8233957" lon="17.6637093">
        <ele>51.5679</ele>
        <time>2014-06-01T13:16:51Z</time>
      </trkpt>
      <trkpt lat="59.823461" lon="17.6637148">
        <ele>51.5679</ele>
        <time>2014-06-01T13:16:52Z</time>
      </trkpt>
      <trkpt lat="59.823516" lon="17.6637306">
        <ele>50.6066</ele>
        <time>2014-06-01T13:16:53Z</time>
      </trkpt>
      <trkpt lat="59.8235684" lon="17.663744">
        <ele>48.684</ele>
        <time>2014-06-01T13:16:54Z</time>
      </trkpt>
      <trkpt lat="59.8236201" lon="17.6637539">
        <ele>47.7225</ele>
        <time>2014-06-01T13:16:55Z</time>
      </trkpt>
      <trkpt lat="59.8236822" lon="17.6637679">
        <ele>47.2418</ele>
        <time>2014-06-01T13:16:56Z</time>
      </trkpt>
      <trkpt lat="59.8237416" lon="17.6637695">
        <ele>47.2418</ele>
        <time>2014-06-01T13:16:57Z</time>
      </trkpt>
      <trkpt lat="59.823793" lon="17.663757">
        <ele>46.2806</ele>
        <time>2014-06-01T13:16:58Z</time>
      </trkpt>
      <trkpt lat="59.823847" lon="17.6637517">
        <ele>45.7999</ele>
        <time>2014-06-01T13:16:59Z</time>
      </trkpt>
      <trkpt lat="59.8239087" lon="17.6637547">
        <ele>45.7999</ele>
        <time>2014-06-01T13:17:00Z</time>
      </trkpt>
      <trkpt lat="59.8239678" lon="17.6637583">
        <ele>45.3192</ele>
        <time>2014-06-01T13:17:01Z</time>
      </trkpt>
      <trkpt lat="59.824027" lon="17.6637509">
        <ele>45.3192</ele>
        <time>2014-06-01T13:17:02Z</time>
      </trkpt>
      <trkpt lat="59.8240811" lon="17.6637415">
        <ele>44.8386</ele>
        <time>2014-06-01T13:17:03Z</time>
      </trkpt>
      <trkpt lat="59.824133" lon="17.6637333">
        <ele>44.358</ele>
        <time>2014-06-01T13:17:04Z</time>
      </trkpt>
      <trkpt lat="59.8241919" lon="17.6637283">
        <ele>44.358</ele>
        <time>2014-06-01T13:17:05Z</time>
      </trkpt>
      <trkpt lat="59.8242428" lon="17.6637211">
        <ele>44.358</ele>
        <time>2014-06-01T13:17:06Z</time>
      </trkpt>
      <trkpt lat="59.8242947" lon="17.6637098">
        <ele>44.358</ele>
        <time>2014-06-01T13:17:07Z</time>
      </trkpt>
      <trkpt lat="59.8243441" lon="17.6637004">
        <ele>43.3966</ele>
        <time>2014-06-01T13:17:08Z</time>
      </trkpt>
      <trkpt lat="59.8243972" lon="17.6636911">
        <ele>43.3966</ele>
        <time>2014-06-01T13:17:09Z</time>
      </trkpt>
      <trkpt lat="59.824453" lon="17.6636699">
        <ele>44.358</ele>
        <time>2014-06-01T13:17:10Z</time>
      </trkpt>
      <trkpt lat="59.8245088" lon="17.6636439">
        <ele>44.358</ele>
        <time>2014-06-01T13:17:11Z</time>
      </trkpt>
      <trkpt lat="59.8245653" lon="17.6636128">
        <ele>44.8386</ele>
        <time>2014-06-01T13:17:12Z</time>
      </trkpt>
      <trkpt lat="59.8246188" lon="17.6635758">
        <ele>44.8386</ele>
        <time>2014-06-01T13:17:13Z</time>
      </trkpt>
      <trkpt lat="59.8246748" lon="17.6635361">
        <ele>45.3192</ele>
        <time>2014-06-01T13:17:14Z</time>
      </trkpt>
      <trkpt lat="59.8247305" lon="17.6635022">
        <ele>45.3192</ele>
        <time>2014-06-01T13:17:15Z</time>
      </trkpt>
      <trkpt lat="59.824782" lon="17.6634662">
        <ele>45.3192</ele>
        <time>2014-06-01T13:17:16Z</time>
      </trkpt>
      <trkpt lat="59.8248281" lon="17.6634294">
        <ele>45.7999</ele>
        <time>2014-06-01T13:17:17Z</time>
      </trkpt>
      <trkpt lat="59.8248745" lon="17.6633839">
        <ele>45.7999</ele>
        <time>2014-06-01T13:17:18Z</time>
      </trkpt>
      <trkpt lat="59.824922" lon="17.6633292">
        <ele>45.7999</ele>
        <time>2014-06-01T13:17:19Z</time>
      </trkpt>
      <trkpt lat="59.8249674" lon="17.6632716">
        <ele>45.7999</ele>
        <time>2014-06-01T13:17:20Z</time>
      </trkpt>
      <trkpt lat="59.8250167" lon="17.6632059">
        <ele>45.3192</ele>
        <time>2014-06-01T13:17:21Z</time>
      </trkpt>
      <trkpt lat="59.8250698" lon="17.6631368">
        <ele>45.3192</ele>
        <time>2014-06-01T13:17:22Z</time>
      </trkpt>
      <trkpt lat="59.825127" lon="17.6630595">
        <ele>44.8386</ele>
        <time>2014-06-01T13:17:23Z</time>
      </trkpt>
      <trkpt lat="59.8251819" lon="17.6629908">
        <ele>44.358</ele>
        <time>2014-06-01T13:17:24Z</time>
      </trkpt>
      <trkpt lat="59.8252342" lon="17.6629209">
        <ele>43.8773</ele>
        <time>2014-06-01T13:17:25Z</time>
      </trkpt>
      <trkpt lat="59.8252869" lon="17.6628474">
        <ele>44.358</ele>
        <time>2014-06-01T13:17:26Z</time>
      </trkpt>
      <trkpt lat="59.8253335" lon="17.6627801">
        <ele>44.358</ele>
        <time>2014-06-01T13:17:27Z</time>
      </trkpt>
      <trkpt lat="59.8253742" lon="17.6627162">
        <ele>44.358</ele>
        <time>2014-06-01T13:17:28Z</time>
      </trkpt>
      <trkpt lat="59.8254158" lon="17.6626515">
        <ele>44.358</ele>
        <time>2014-06-01T13:17:29Z</time>
      </trkpt>
      <trkpt lat="59.8254581" lon="17.6625924">
        <ele>43.8773</ele>
        <time>2014-06-01T13:17:30Z</time>
      </trkpt>
      <trkpt lat="59.8255016" lon="17.662536">
        <ele>43.8773</ele>
        <time>2014-06-01T13:17:31Z</time>
      </trkpt>
      <trkpt lat="59.8255457" lon="17.6624819">
        <ele>43.8773</ele>
        <time>2014-06-01T13:17:32Z</time>
      </trkpt>
      <trkpt lat="59.8255899" lon="17.6624294">
        <ele>43.3966</ele>
        <time>2014-06-01T13:17:33Z</time>
      </trkpt>
      <trkpt lat="59.8256296" lon="17.6623764">
        <ele>43.8773</ele>
        <time>2014-06-01T13:17:34Z</time>
      </trkpt>
      <trkpt lat="59.8256647" lon="17.6623097">
        <ele>44.8386</ele>
        <time>2014-06-01T13:17:35Z</time>
      </trkpt>
      <trkpt lat="59.8256941" lon="17.6622413">
        <ele>44.8386</ele>
        <time>2014-06-01T13:17:36Z</time>
      </trkpt>
      <trkpt lat="59.8257225" lon="17.66218">
        <ele>45.3192</ele>
        <time>2014-06-01T13:17:37Z</time>
      </trkpt>
      <trkpt lat="59.8257479" lon="17.662125">
        <ele>45.7999</ele>
        <time>2014-06-01T13:17:38Z</time>
      </trkpt>
      <trkpt lat="59.8257775" lon="17.6620776">
        <ele>45.3192</ele>
        <time>2014-06-01T13:17:39Z</time>
      </trkpt>
      <trkpt lat="59.8258073" lon="17.662032">
        <ele>45.3192</ele>
        <time>2014-06-01T13:17:40Z</time>
      </trkpt>
      <trkpt lat="59.8258337" lon="17.6619792">
        <ele>44.8386</ele>
        <time>2014-06-01T13:17:41Z</time>
      </trkpt>
      <trkpt lat="59.8258619" lon="17.6619206">
        <ele>44.8386</ele>
        <time>2014-06-01T13:17:42Z</time>
      </trkpt>
      <trkpt lat="59.8258921" lon="17.6618715">
        <ele>44.8386</ele>
        <time>2014-06-01T13:17:43Z</time>
      </trkpt>
      <trkpt lat="59.8259248" lon="17.6618316">
        <ele>45.7999</ele>
        <time>2014-06-01T13:17:44Z</time>
      </trkpt>
      <trkpt lat="59.8259611" lon="17.6617949">
        <ele>45.7999</ele>
        <time>2014-06-01T13:17:45Z</time>
      </trkpt>
      <trkpt lat="59.8259972" lon="17.6617541">
        <ele>45.7999</ele>
        <time>2014-06-01T13:17:46Z</time>
      </trkpt>
      <trkpt lat="59.8260372" lon="17.6617205">
        <ele>45.7999</ele>
        <time>2014-06-01T13:17:47Z</time>
      </trkpt>
      <trkpt lat="59.8260742" lon="17.661684">
        <ele>45.7999</ele>
        <time>2014-06-01T13:17:48Z</time>
      </trkpt>
      <trkpt lat="59.8261107" lon="17.6616513">
        <ele>45.7999</ele>
        <time>2014-06-01T13:17:49Z</time>
      </trkpt>
      <trkpt lat="59.8261465" lon="17.6616197">
        <ele>46.2806</ele>
        <time>2014-06-01T13:17:50Z</time>
      </trkpt>
      <trkpt lat="59.8261818" lon="17.6615848">
        <ele>46.7612</ele>
        <time>2014-06-01T13:17:51Z</time>
      </trkpt>
      <trkpt lat="59.8262172" lon="17.6615486">
        <ele>46.7612</ele>
        <time>2014-06-01T13:17:52Z</time>
      </trkpt>
      <trkpt lat="59.8262551" lon="17.6615166">
        <ele>46.7612</ele>
        <time>2014-06-01T13:17:53Z</time>
      </trkpt>
      <trkpt lat="59.8262977" lon="17.6614872">
        <ele>46.7612</ele>
        <time>2014-06-01T13:17:54Z</time>
      </trkpt>
      <trkpt lat="59.8263416" lon="17.6614575">
        <ele>47.2418</ele>
        <time>2014-06-01T13:17:55Z</time>
      </trkpt>
      <trkpt lat="59.8263909" lon="17.6614216">
        <ele>47.2418</ele>
        <time>2014-06-01T13:17:56Z</time>
      </trkpt>
      <trkpt lat="59.8264377" lon="17.661377">
        <ele>47.2418</ele>
        <time>2014-06-01T13:17:57Z</time>
      </trkpt>
      <trkpt lat="59.8264829" lon="17.6613249">
        <ele>47.2418</ele>
        <time>2014-06-01T13:17:58Z</time>
      </trkpt>
      <trkpt lat="59.8265228" lon="17.6612677">
        <ele>46.7612</ele>
        <time>2014-06-01T13:17:59Z</time>
      </trkpt>
      <trkpt lat="59.8265592" lon="17.6612099">
        <ele>46.7612</ele>
        <time>2014-06-01T13:18:00Z</time>
      </trkpt>
      <trkpt lat="59.8265878" lon="17.6611663">
        <ele>47.2418</ele>
        <time>2014-06-01T13:18:01Z</time>
      </trkpt>
      <trkpt lat="59.826601" lon="17.6611372">
        <ele>47.2418</ele>
        <time>2014-06-01T13:18:02Z</time>
      </trkpt>
      <trkpt lat="59.8266054" lon="17.6611199">
        <ele>46.7612</ele>
        <time>2014-06-01T13:18:03Z</time>
      </trkpt>
      <trkpt lat="59.8266075" lon="17.6611177">
        <ele>46.7612</ele>
        <time>2014-06-01T13:18:04Z</time>
      </trkpt>
      <trkpt lat="59.8266068" lon="17.6611177">
        <ele>46.7612</ele>
        <time>2014-06-01T13:18:05Z</time>
      </trkpt>
      <trkpt lat="59.8265816" lon="17.6609606">
        <ele>47.7225</ele>
        <time>2014-06-01T13:19:03Z</time>
      </trkpt>
      <trkpt lat="59.8266043" lon="17.6609585">
        <ele>47.2418</ele>
        <time>2014-06-01T13:19:04Z</time>
      </trkpt>
      <trkpt lat="59.8266273" lon="17.6609476">
        <ele>47.2418</ele>
        <time>2014-06-01T13:19:05Z</time>
      </trkpt>
      <trkpt lat="59.8266536" lon="17.6609368">
        <ele>47.2418</ele>
        <time>2014-06-01T13:19:06Z</time>
      </trkpt>
      <trkpt lat="59.8266811" lon="17.6609192">
        <ele>46.7612</ele>
        <time>2014-06-01T13:19:07Z</time>
      </trkpt>
      <trkpt lat="59.8267114" lon="17.6608893">
        <ele>46.7612</ele>
        <time>2014-06-01T13:19:08Z</time>
      </trkpt>
      <trkpt lat="59.8267436" lon="17.6608478">
        <ele>46.7612</ele>
        <time>2014-06-01T13:19:09Z</time>
      </trkpt>
      <trkpt lat="59.826779" lon="17.6608029">
        <ele>46.7612</ele>
        <time>2014-06-01T13:19:10Z</time>
      </trkpt>
      <trkpt lat="59.8268172" lon="17.660757">
        <ele>46.7612</ele>
        <time>2014-06-01T13:19:11Z</time>
      </trkpt>
      <trkpt lat="59.826857" lon="17.6607085">
        <ele>46.2806</ele>
        <time>2014-06-01T13:19:12Z</time>
      </trkpt>
      <trkpt lat="59.8268958" lon="17.6606577">
        <ele>46.2806</ele>
        <time>2014-06-01T13:19:13Z</time>
      </trkpt>
      <trkpt lat="59.8269313" lon="17.6606023">
        <ele>46.2806</ele>
        <time>2014-06-01T13:19:14Z</time>
      </trkpt>
      <trkpt lat="59.826965" lon="17.6605442">
        <ele>46.7612</ele>
        <time>2014-06-01T13:19:15Z</time>
      </trkpt>
      <trkpt lat="59.826998" lon="17.6604868">
        <ele>46.2806</ele>
        <time>2014-06-01T13:19:16Z</time>
      </trkpt>
      <trkpt lat="59.8270292" lon="17.6604329">
        <ele>46.2806</ele>
        <time>2014-06-01T13:19:17Z</time>
      </trkpt>
      <trkpt lat="59.8270617" lon="17.6603752">
        <ele>46.2806</ele>
        <time>2014-06-01T13:19:18Z</time>
      </trkpt>
      <trkpt lat="59.8270954" lon="17.6603245">
        <ele>45.7999</ele>
        <time>2014-06-01T13:19:19Z</time>
      </trkpt>
      <trkpt lat="59.8271307" lon="17.6602792">
        <ele>45.3192</ele>
        <time>2014-06-01T13:19:20Z</time>
      </trkpt>
      <trkpt lat="59.8271658" lon="17.6602231">
        <ele>45.3192</ele>
        <time>2014-06-01T13:19:21Z</time>
      </trkpt>
      <trkpt lat="59.8272043" lon="17.6601721">
        <ele>45.3192</ele>
        <time>2014-06-01T13:19:22Z</time>
      </trkpt>
      <trkpt lat="59.8272451" lon="17.6601314">
        <ele>45.3192</ele>
        <time>2014-06-01T13:19:23Z</time>
      </trkpt>
      <trkpt lat="59.8272818" lon="17.6600955">
        <ele>45.7999</ele>
        <time>2014-06-01T13:19:24Z</time>
      </trkpt>
      <trkpt lat="59.8273208" lon="17.6600734">
        <ele>45.3192</ele>
        <time>2014-06-01T13:19:25Z</time>
      </trkpt>
      <trkpt lat="59.8273662" lon="17.6600501">
        <ele>45.7999</ele>
        <time>2014-06-01T13:19:26Z</time>
      </trkpt>
      <trkpt lat="59.8274069" lon="17.6600232">
        <ele>46.2806</ele>
        <time>2014-06-01T13:19:27Z</time>
      </trkpt>
      <trkpt lat="59.827447" lon="17.6599957">
        <ele>46.7612</ele>
        <time>2014-06-01T13:19:28Z</time>
      </trkpt>
      <trkpt lat="59.8274855" lon="17.6599671">
        <ele>47.2418</ele>
        <time>2014-06-01T13:19:29Z</time>
      </trkpt>
      <trkpt lat="59.8275255" lon="17.6599361">
        <ele>47.7225</ele>
        <time>2014-06-01T13:19:30Z</time>
      </trkpt>
      <trkpt lat="59.8275672" lon="17.6598929">
        <ele>47.7225</ele>
        <time>2014-06-01T13:19:31Z</time>
      </trkpt>
      <trkpt lat="59.8276084" lon="17.6598446">
        <ele>47.2418</ele>
        <time>2014-06-01T13:19:32Z</time>
      </trkpt>
      <trkpt lat="59.8276516" lon="17.6598039">
        <ele>47.7225</ele>
        <time>2014-06-01T13:19:33Z</time>
      </trkpt>
      <trkpt lat="59.8276959" lon="17.6597641">
        <ele>47.7225</ele>
        <time>2014-06-01T13:19:34Z</time>
      </trkpt>
      <trkpt lat="59.8277384" lon="17.6597246">
        <ele>47.2418</ele>
        <time>2014-06-01T13:19:35Z</time>
      </trkpt>
      <trkpt lat="59.827785" lon="17.6596819">
        <ele>47.2418</ele>
        <time>2014-06-01T13:19:36Z</time>
      </trkpt>
      <trkpt lat="59.8278308" lon="17.6596436">
        <ele>47.7225</ele>
        <time>2014-06-01T13:19:37Z</time>
      </trkpt>
      <trkpt lat="59.8278776" lon="17.6596009">
        <ele>47.7225</ele>
        <time>2014-06-01T13:19:38Z</time>
      </trkpt>
      <trkpt lat="59.8279264" lon="17.6595646">
        <ele>47.7225</ele>
        <time>2014-06-01T13:19:39Z</time>
      </trkpt>
      <trkpt lat="59.8279709" lon="17.659533">
        <ele>47.2418</ele>
        <time>2014-06-01T13:19:40Z</time>
      </trkpt>
      <trkpt lat="59.8280168" lon="17.6594911">
        <ele>46.7612</ele>
        <time>2014-06-01T13:19:41Z</time>
      </trkpt>
      <trkpt lat="59.8280624" lon="17.6594508">
        <ele>47.2418</ele>
        <time>2014-06-01T13:19:42Z</time>
      </trkpt>
      <trkpt lat="59.8281106" lon="17.6594144">
        <ele>47.7225</ele>
        <time>2014-06-01T13:19:43Z</time>
      </trkpt>
      <trkpt lat="59.8281567" lon="17.6593839">
        <ele>47.7225</ele>
        <time>2014-06-01T13:19:44Z</time>
      </trkpt>
      <trkpt lat="59.828203" lon="17.6593571">
        <ele>47.7225</ele>
        <time>2014-06-01T13:19:45Z</time>
      </trkpt>
      <trkpt lat="59.828248" lon="17.6593224">
        <ele>47.7225</ele>
        <time>2014-06-01T13:19:46Z</time>
      </trkpt>
      <trkpt lat="59.8282941" lon="17.6592798">
        <ele>48.2034</ele>
        <time>2014-06-01T13:19:47Z</time>
      </trkpt>
      <trkpt lat="59.8283413" lon="17.6592406">
        <ele>48.2034</ele>
        <time>2014-06-01T13:19:48Z</time>
      </trkpt>
      <trkpt lat="59.8283852" lon="17.6592031">
        <ele>48.2034</ele>
        <time>2014-06-01T13:19:49Z</time>
      </trkpt>
      <trkpt lat="59.8284286" lon="17.6591636">
        <ele>48.2034</ele>
        <time>2014-06-01T13:19:50Z</time>
      </trkpt>
      <trkpt lat="59.828478" lon="17.6591249">
        <ele>48.2034</ele>
        <time>2014-06-01T13:19:51Z</time>
      </trkpt>
      <trkpt lat="59.8285314" lon="17.659083">
        <ele>48.2034</ele>
        <time>2014-06-01T13:19:52Z</time>
      </trkpt>
      <trkpt lat="59.8285826" lon="17.6590468">
        <ele>48.684</ele>
        <time>2014-06-01T13:19:53Z</time>
      </trkpt>
      <trkpt lat="59.8286337" lon="17.659012">
        <ele>48.684</ele>
        <time>2014-06-01T13:19:54Z</time>
      </trkpt>
      <trkpt lat="59.8286861" lon="17.6589757">
        <ele>48.684</ele>
        <time>2014-06-01T13:19:55Z</time>
      </trkpt>
      <trkpt lat="59.8287371" lon="17.6589414">
        <ele>49.1646</ele>
        <time>2014-06-01T13:19:56Z</time>
      </trkpt>
      <trkpt lat="59.8287891" lon="17.6589049">
        <ele>49.6453</ele>
        <time>2014-06-01T13:19:57Z</time>
      </trkpt>
      <trkpt lat="59.8288399" lon="17.658872">
        <ele>50.126</ele>
        <time>2014-06-01T13:19:58Z</time>
      </trkpt>
      <trkpt lat="59.8288934" lon="17.6588389">
        <ele>50.126</ele>
        <time>2014-06-01T13:19:59Z</time>
      </trkpt>
      <trkpt lat="59.8289445" lon="17.6588079">
        <ele>50.6066</ele>
        <time>2014-06-01T13:20:00Z</time>
      </trkpt>
      <trkpt lat="59.8289883" lon="17.6587793">
        <ele>50.6066</ele>
        <time>2014-06-01T13:20:01Z</time>
      </trkpt>
      <trkpt lat="59.8290345" lon="17.6587505">
        <ele>50.6066</ele>
        <time>2014-06-01T13:20:02Z</time>
      </trkpt>
      <trkpt lat="59.8290901" lon="17.658725">
        <ele>50.6066</ele>
        <time>2014-06-01T13:20:03Z</time>
      </trkpt>
      <trkpt lat="59.8291548" lon="17.6586956">
        <ele>51.0872</ele>
        <time>2014-06-01T13:20:04Z</time>
      </trkpt>
      <trkpt lat="59.8292151" lon="17.6586655">
        <ele>51.5679</ele>
        <time>2014-06-01T13:20:05Z</time>
      </trkpt>
      <trkpt lat="59.8292679" lon="17.6586379">
        <ele>52.0486</ele>
        <time>2014-06-01T13:20:06Z</time>
      </trkpt>
      <trkpt lat="59.8293207" lon="17.6586073">
        <ele>51.5679</ele>
        <time>2014-06-01T13:20:07Z</time>
      </trkpt>
      <trkpt lat="59.8294256" lon="17.6585551">
        <ele>51.5679</ele>
        <time>2014-06-01T13:20:08Z</time>
      </trkpt>
      <trkpt lat="59.8295037" lon="17.6584991">
        <ele>52.0486</ele>
        <time>2014-06-01T13:20:09Z</time>
      </trkpt>
      <trkpt lat="59.8295783" lon="17.6584464">
        <ele>51.5679</ele>
        <time>2014-06-01T13:20:10Z</time>
      </trkpt>
      <trkpt lat="59.8296383" lon="17.6584151">
        <ele>52.0486</ele>
        <time>2014-06-01T13:20:11Z</time>
      </trkpt>
      <trkpt lat="59.8296969" lon="17.6583878">
        <ele>51.5679</ele>
        <time>2014-06-01T13:20:12Z</time>
      </trkpt>
      <trkpt lat="59.8297498" lon="17.658364">
        <ele>51.0872</ele>
        <time>2014-06-01T13:20:13Z</time>
      </trkpt>
      <trkpt lat="59.8298041" lon="17.6583469">
        <ele>51.0872</ele>
        <time>2014-06-01T13:20:14Z</time>
      </trkpt>
      <trkpt lat="59.8298543" lon="17.6583266">
        <ele>51.0872</ele>
        <time>2014-06-01T13:20:15Z</time>
      </trkpt>
      <trkpt lat="59.8299035" lon="17.6583057">
        <ele>50.126</ele>
        <time>2014-06-01T13:20:16Z</time>
      </trkpt>
      <trkpt lat="59.8299496" lon="17.6582819">
        <ele>49.6453</ele>
        <time>2014-06-01T13:20:17Z</time>
      </trkpt>
      <trkpt lat="59.8299963" lon="17.6582609">
        <ele>48.684</ele>
        <time>2014-06-01T13:20:18Z</time>
      </trkpt>
      <trkpt lat="59.8300434" lon="17.6582392">
        <ele>48.2034</ele>
        <time>2014-06-01T13:20:19Z</time>
      </trkpt>
      <trkpt lat="59.8300925" lon="17.6582149">
        <ele>48.2034</ele>
        <time>2014-06-01T13:20:20Z</time>
      </trkpt>
      <trkpt lat="59.83015" lon="17.6581588">
        <ele>46.7612</ele>
        <time>2014-06-01T13:20:21Z</time>
      </trkpt>
      <trkpt lat="59.830194" lon="17.6581014">
        <ele>46.7612</ele>
        <time>2014-06-01T13:20:22Z</time>
      </trkpt>
      <trkpt lat="59.8302399" lon="17.6580231">
        <ele>45.7999</ele>
        <time>2014-06-01T13:20:23Z</time>
      </trkpt>
      <trkpt lat="59.830281" lon="17.6579385">
        <ele>44.8386</ele>
        <time>2014-06-01T13:20:24Z</time>
      </trkpt>
      <trkpt lat="59.8303174" lon="17.6578548">
        <ele>43.8773</ele>
        <time>2014-06-01T13:20:25Z</time>
      </trkpt>
      <trkpt lat="59.8303518" lon="17.6577724">
        <ele>43.8773</ele>
        <time>2014-06-01T13:20:26Z</time>
      </trkpt>
      <trkpt lat="59.8303811" lon="17.6576881">
        <ele>43.3966</ele>
        <time>2014-06-01T13:20:27Z</time>
      </trkpt>
      <trkpt lat="59.8303977" lon="17.6575864">
        <ele>42.916</ele>
        <time>2014-06-01T13:20:28Z</time>
      </trkpt>
      <trkpt lat="59.8304144" lon="17.657469">
        <ele>42.4354</ele>
        <time>2014-06-01T13:20:29Z</time>
      </trkpt>
      <trkpt lat="59.8304261" lon="17.6573352">
        <ele>41.9547</ele>
        <time>2014-06-01T13:20:30Z</time>
      </trkpt>
      <trkpt lat="59.8304238" lon="17.6572083">
        <ele>41.9547</ele>
        <time>2014-06-01T13:20:31Z</time>
      </trkpt>
      <trkpt lat="59.8304095" lon="17.6570885">
        <ele>42.4354</ele>
        <time>2014-06-01T13:20:32Z</time>
      </trkpt>
      <trkpt lat="59.8303889" lon="17.6569824">
        <ele>42.4354</ele>
        <time>2014-06-01T13:20:33Z</time>
      </trkpt>
      <trkpt lat="59.830361" lon="17.6568747">
        <ele>41.474</ele>
        <time>2014-06-01T13:20:34Z</time>
      </trkpt>
      <trkpt lat="59.8303292" lon="17.6567714">
        <ele>40.5128</ele>
        <time>2014-06-01T13:20:35Z</time>
      </trkpt>
      <trkpt lat="59.8302919" lon="17.6566602">
        <ele>40.9934</ele>
        <time>2014-06-01T13:20:36Z</time>
      </trkpt>
      <trkpt lat="59.8302557" lon="17.6565504">
        <ele>40.0321</ele>
        <time>2014-06-01T13:20:37Z</time>
      </trkpt>
      <trkpt lat="59.8302097" lon="17.6564044">
        <ele>40.0321</ele>
        <time>2014-06-01T13:20:38Z</time>
      </trkpt>
      <trkpt lat="59.8301642" lon="17.6562526">
        <ele>39.0707</ele>
        <time>2014-06-01T13:20:39Z</time>
      </trkpt>
      <trkpt lat="59.8301119" lon="17.6560926">
        <ele>39.5513</ele>
        <time>2014-06-01T13:20:40Z</time>
      </trkpt>
      <trkpt lat="59.8300636" lon="17.6559299">
        <ele>38.5901</ele>
        <time>2014-06-01T13:20:41Z</time>
      </trkpt>
      <trkpt lat="59.8300129" lon="17.655779">
        <ele>40.0321</ele>
        <time>2014-06-01T13:20:42Z</time>
      </trkpt>
      <trkpt lat="59.8299697" lon="17.6556506">
        <ele>39.5513</ele>
        <time>2014-06-01T13:20:43Z</time>
      </trkpt>
      <trkpt lat="59.8299269" lon="17.6555315">
        <ele>39.0707</ele>
        <time>2014-06-01T13:20:44Z</time>
      </trkpt>
      <trkpt lat="59.8298833" lon="17.6554072">
        <ele>39.0707</ele>
        <time>2014-06-01T13:20:45Z</time>
      </trkpt>
      <trkpt lat="59.8298398" lon="17.6552863">
        <ele>38.5901</ele>
        <time>2014-06-01T13:20:46Z</time>
      </trkpt>
      <trkpt lat="59.8297985" lon="17.655177">
        <ele>38.1094</ele>
        <time>2014-06-01T13:20:47Z</time>
      </trkpt>
      <trkpt lat="59.8297653" lon="17.6550767">
        <ele>38.1094</ele>
        <time>2014-06-01T13:20:48Z</time>
      </trkpt>
      <trkpt lat="59.8297522" lon="17.6549839">
        <ele>37.6287</ele>
        <time>2014-06-01T13:20:49Z</time>
      </trkpt>
      <trkpt lat="59.8297625" lon="17.6548954">
        <ele>37.1481</ele>
        <time>2014-06-01T13:20:50Z</time>
      </trkpt>
      <trkpt lat="59.829787" lon="17.6548133">
        <ele>37.1481</ele>
        <time>2014-06-01T13:20:51Z</time>
      </trkpt>
      <trkpt lat="59.8298141" lon="17.6547271">
        <ele>36.6675</ele>
        <time>2014-06-01T13:20:52Z</time>
      </trkpt>
      <trkpt lat="59.8298368" lon="17.6546274">
        <ele>36.1868</ele>
        <time>2014-06-01T13:20:53Z</time>
      </trkpt>
      <trkpt lat="59.8298642" lon="17.6545316">
        <ele>36.1868</ele>
        <time>2014-06-01T13:20:54Z</time>
      </trkpt>
      <trkpt lat="59.8299036" lon="17.6544533">
        <ele>36.1868</ele>
        <time>2014-06-01T13:20:55Z</time>
      </trkpt>
      <trkpt lat="59.8299647" lon="17.6544319">
        <ele>35.7061</ele>
        <time>2014-06-01T13:20:56Z</time>
      </trkpt>
      <trkpt lat="59.8300274" lon="17.6544328">
        <ele>35.2255</ele>
        <time>2014-06-01T13:20:57Z</time>
      </trkpt>
      <trkpt lat="59.8300869" lon="17.654459">
        <ele>34.7449</ele>
        <time>2014-06-01T13:20:58Z</time>
      </trkpt>
      <trkpt lat="59.8301413" lon="17.6544908">
        <ele>34.7449</ele>
        <time>2014-06-01T13:20:59Z</time>
      </trkpt>
      <trkpt lat="59.8301981" lon="17.6545267">
        <ele>34.7449</ele>
        <time>2014-06-01T13:21:00Z</time>
      </trkpt>
      <trkpt lat="59.8302572" lon="17.6545571">
        <ele>34.7449</ele>
        <time>2014-06-01T13:21:01Z</time>
      </trkpt>
      <trkpt lat="59.8303195" lon="17.6545864">
        <ele>34.7449</ele>
        <time>2014-06-01T13:21:02Z</time>
      </trkpt>
      <trkpt lat="59.8303812" lon="17.6546069">
        <ele>34.7449</ele>
        <time>2014-06-01T13:21:03Z</time>
      </trkpt>
      <trkpt lat="59.8304418" lon="17.6546383">
        <ele>34.7449</ele>
        <time>2014-06-01T13:21:04Z</time>
      </trkpt>
      <trkpt lat="59.8305035" lon="17.65467">
        <ele>34.2642</ele>
        <time>2014-06-01T13:21:05Z</time>
      </trkpt>
      <trkpt lat="59.8305604" lon="17.6547035">
        <ele>34.2642</ele>
        <time>2014-06-01T13:21:06Z</time>
      </trkpt>
      <trkpt lat="59.8306173" lon="17.6547484">
        <ele>34.2642</ele>
        <time>2014-06-01T13:21:07Z</time>
      </trkpt>
      <trkpt lat="59.8306719" lon="17.6548002">
        <ele>34.2642</ele>
        <time>2014-06-01T13:21:08Z</time>
      </trkpt>
      <trkpt lat="59.8307215" lon="17.6548634">
        <ele>34.2642</ele>
        <time>2014-06-01T13:21:09Z</time>
      </trkpt>
      <trkpt lat="59.8307686" lon="17.6549326">
        <ele>33.7834</ele>
        <time>2014-06-01T13:21:10Z</time>
      </trkpt>
      <trkpt lat="59.8308174" lon="17.6549917">
        <ele>33.7834</ele>
        <time>2014-06-01T13:21:11Z</time>
      </trkpt>
      <trkpt lat="59.8308669" lon="17.6550063">
        <ele>33.7834</ele>
        <time>2014-06-01T13:21:12Z</time>
      </trkpt>
      <trkpt lat="59.8309204" lon="17.6549912">
        <ele>33.7834</ele>
        <time>2014-06-01T13:21:13Z</time>
      </trkpt>
      <trkpt lat="59.8309731" lon="17.6549559">
        <ele>33.7834</ele>
        <time>2014-06-01T13:21:14Z</time>
      </trkpt>
      <trkpt lat="59.8310312" lon="17.6549271">
        <ele>33.7834</ele>
        <time>2014-06-01T13:21:15Z</time>
      </trkpt>
      <trkpt lat="59.8310889" lon="17.6548995">
        <ele>33.7834</ele>
        <time>2014-06-01T13:21:16Z</time>
      </trkpt>
      <trkpt lat="59.831149" lon="17.6548341">
        <ele>32.3416</ele>
        <time>2014-06-01T13:21:17Z</time>
      </trkpt>
      <trkpt lat="59.8312073" lon="17.6547492">
        <ele>32.3416</ele>
        <time>2014-06-01T13:21:18Z</time>
      </trkpt>
      <trkpt lat="59.8312659" lon="17.6546514">
        <ele>31.8607</ele>
        <time>2014-06-01T13:21:19Z</time>
      </trkpt>
      <trkpt lat="59.8313135" lon="17.6545224">
        <ele>31.8607</ele>
        <time>2014-06-01T13:21:20Z</time>
      </trkpt>
      <trkpt lat="59.8313659" lon="17.6543872">
        <ele>31.3801</ele>
        <time>2014-06-01T13:21:21Z</time>
      </trkpt>
      <trkpt lat="59.8314075" lon="17.6542665">
        <ele>31.3801</ele>
        <time>2014-06-01T13:21:22Z</time>
      </trkpt>
      <trkpt lat="59.831465" lon="17.6541825">
        <ele>31.3801</ele>
        <time>2014-06-01T13:21:23Z</time>
      </trkpt>
      <trkpt lat="59.831515" lon="17.6541185">
        <ele>31.3801</ele>
        <time>2014-06-01T13:21:24Z</time>
      </trkpt>
      <trkpt lat="59.8315682" lon="17.6540596">
        <ele>30.8995</ele>
        <time>2014-06-01T13:21:25Z</time>
      </trkpt>
      <trkpt lat="59.8316288" lon="17.6540142">
        <ele>30.4188</ele>
        <time>2014-06-01T13:21:26Z</time>
      </trkpt>
      <trkpt lat="59.8316841" lon="17.6539468">
        <ele>30.4188</ele>
        <time>2014-06-01T13:21:27Z</time>
      </trkpt>
      <trkpt lat="59.8317421" lon="17.6539003">
        <ele>30.8995</ele>
        <time>2014-06-01T13:21:28Z</time>
      </trkpt>
      <trkpt lat="59.831799" lon="17.653877">
        <ele>30.8995</ele>
        <time>2014-06-01T13:21:29Z</time>
      </trkpt>
      <trkpt lat="59.8318555" lon="17.6538081">
        <ele>31.3801</ele>
        <time>2014-06-01T13:21:30Z</time>
      </trkpt>
      <trkpt lat="59.8319217" lon="17.653777">
        <ele>31.3801</ele>
        <time>2014-06-01T13:21:31Z</time>
      </trkpt>
      <trkpt lat="59.8319842" lon="17.6537263">
        <ele>31.8607</ele>
        <time>2014-06-01T13:21:32Z</time>
      </trkpt>
      <trkpt lat="59.8320417" lon="17.6536784">
        <ele>32.3416</ele>
        <time>2014-06-01T13:21:33Z</time>
      </trkpt>
      <trkpt lat="59.8320926" lon="17.6536256">
        <ele>32.3416</ele>
        <time>2014-06-01T13:21:34Z</time>
      </trkpt>
      <trkpt lat="59.832142" lon="17.6535801">
        <ele>32.3416</ele>
        <time>2014-06-01T13:21:35Z</time>
      </trkpt>
      <trkpt lat="59.8321928" lon="17.6535331">
        <ele>32.8223</ele>
        <time>2014-06-01T13:21:36Z</time>
      </trkpt>
      <trkpt lat="59.8322444" lon="17.6534877">
        <ele>32.8223</ele>
        <time>2014-06-01T13:21:37Z</time>
      </trkpt>
      <trkpt lat="59.8322921" lon="17.6534469">
        <ele>32.8223</ele>
        <time>2014-06-01T13:21:38Z</time>
      </trkpt>
      <trkpt lat="59.8323345" lon="17.6534108">
        <ele>32.8223</ele>
        <time>2014-06-01T13:21:39Z</time>
      </trkpt>
      <trkpt lat="59.8323797" lon="17.6533568">
        <ele>32.3416</ele>
        <time>2014-06-01T13:21:40Z</time>
      </trkpt>
      <trkpt lat="59.8324282" lon="17.6533065">
        <ele>32.3416</ele>
        <time>2014-06-01T13:21:41Z</time>
      </trkpt>
      <trkpt lat="59.8324755" lon="17.65326">
        <ele>31.8607</ele>
        <time>2014-06-01T13:21:42Z</time>
      </trkpt>
      <trkpt lat="59.8325206" lon="17.6532267">
        <ele>31.8607</ele>
        <time>2014-06-01T13:21:43Z</time>
      </trkpt>
      <trkpt lat="59.8325651" lon="17.6531909">
        <ele>32.3416</ele>
        <time>2014-06-01T13:21:44Z</time>
      </trkpt>
      <trkpt lat="59.8326107" lon="17.6531527">
        <ele>31.8607</ele>
        <time>2014-06-01T13:21:45Z</time>
      </trkpt>
      <trkpt lat="59.8326796" lon="17.6530994">
        <ele>31.8607</ele>
        <time>2014-06-01T13:21:46Z</time>
      </trkpt>
      <trkpt lat="59.8327479" lon="17.6530417">
        <ele>31.8607</ele>
        <time>2014-06-01T13:21:47Z</time>
      </trkpt>
      <trkpt lat="59.8328266" lon="17.6530035">
        <ele>32.3416</ele>
        <time>2014-06-01T13:21:48Z</time>
      </trkpt>
      <trkpt lat="59.832904" lon="17.6529575">
        <ele>31.8607</ele>
        <time>2014-06-01T13:21:49Z</time>
      </trkpt>
      <trkpt lat="59.832982" lon="17.6529272">
        <ele>31.3801</ele>
        <time>2014-06-01T13:21:50Z</time>
      </trkpt>
      <trkpt lat="59.8330618" lon="17.6529041">
        <ele>31.3801</ele>
        <time>2014-06-01T13:21:51Z</time>
      </trkpt>
      <trkpt lat="59.8331369" lon="17.6528849">
        <ele>30.8995</ele>
        <time>2014-06-01T13:21:52Z</time>
      </trkpt>
      <trkpt lat="59.8332096" lon="17.6528594">
        <ele>30.8995</ele>
        <time>2014-06-01T13:21:53Z</time>
      </trkpt>
      <trkpt lat="59.8332845" lon="17.6528323">
        <ele>30.4188</ele>
        <time>2014-06-01T13:21:54Z</time>
      </trkpt>
      <trkpt lat="59.833357" lon="17.652799">
        <ele>29.9381</ele>
        <time>2014-06-01T13:21:55Z</time>
      </trkpt>
      <trkpt lat="59.8334311" lon="17.6527719">
        <ele>29.9381</ele>
        <time>2014-06-01T13:21:56Z</time>
      </trkpt>
      <trkpt lat="59.8335079" lon="17.6527516">
        <ele>29.4575</ele>
        <time>2014-06-01T13:21:57Z</time>
      </trkpt>
      <trkpt lat="59.8335861" lon="17.6527368">
        <ele>28.9769</ele>
        <time>2014-06-01T13:21:58Z</time>
      </trkpt>
      <trkpt lat="59.8336716" lon="17.65273">
        <ele>28.9769</ele>
        <time>2014-06-01T13:21:59Z</time>
      </trkpt>
      <trkpt lat="59.8337601" lon="17.652727">
        <ele>28.9769</ele>
        <time>2014-06-01T13:22:00Z</time>
      </trkpt>
      <trkpt lat="59.833849" lon="17.6527373">
        <ele>28.9769</ele>
        <time>2014-06-01T13:22:01Z</time>
      </trkpt>
      <trkpt lat="59.833942" lon="17.6527622">
        <ele>28.9769</ele>
        <time>2014-06-01T13:22:02Z</time>
      </trkpt>
      <trkpt lat="59.8340331" lon="17.6527959">
        <ele>28.0155</ele>
        <time>2014-06-01T13:22:03Z</time>
      </trkpt>
      <trkpt lat="59.8341296" lon="17.6528358">
        <ele>27.5349</ele>
        <time>2014-06-01T13:22:04Z</time>
      </trkpt>
      <trkpt lat="59.8342217" lon="17.6528724">
        <ele>26.5736</ele>
        <time>2014-06-01T13:22:05Z</time>
      </trkpt>
      <trkpt lat="59.8343132" lon="17.6529019">
        <ele>26.0929</ele>
        <time>2014-06-01T13:22:06Z</time>
      </trkpt>
      <trkpt lat="59.8344034" lon="17.6529232">
        <ele>25.6123</ele>
        <time>2014-06-01T13:22:07Z</time>
      </trkpt>
      <trkpt lat="59.834492" lon="17.6529374">
        <ele>25.6123</ele>
        <time>2014-06-01T13:22:08Z</time>
      </trkpt>
      <trkpt lat="59.8345776" lon="17.6529404">
        <ele>24.651</ele>
        <time>2014-06-01T13:22:09Z</time>
      </trkpt>
      <trkpt lat="59.8346634" lon="17.6529364">
        <ele>24.651</ele>
        <time>2014-06-01T13:22:10Z</time>
      </trkpt>
      <trkpt lat="59.8347473" lon="17.6529248">
        <ele>24.1703</ele>
        <time>2014-06-01T13:22:11Z</time>
      </trkpt>
      <trkpt lat="59.8348319" lon="17.6529058">
        <ele>23.6896</ele>
        <time>2014-06-01T13:22:12Z</time>
      </trkpt>
      <trkpt lat="59.8349112" lon="17.6528806">
        <ele>23.6896</ele>
        <time>2014-06-01T13:22:13Z</time>
      </trkpt>
      <trkpt lat="59.8349894" lon="17.6528601">
        <ele>23.209</ele>
        <time>2014-06-01T13:22:14Z</time>
      </trkpt>
      <trkpt lat="59.8350658" lon="17.6528385">
        <ele>23.209</ele>
        <time>2014-06-01T13:22:15Z</time>
      </trkpt>
      <trkpt lat="59.8351417" lon="17.652817">
        <ele>22.7283</ele>
        <time>2014-06-01T13:22:16Z</time>
      </trkpt>
      <trkpt lat="59.8352181" lon="17.6527993">
        <ele>22.7283</ele>
        <time>2014-06-01T13:22:17Z</time>
      </trkpt>
      <trkpt lat="59.8352946" lon="17.6527787">
        <ele>22.2476</ele>
        <time>2014-06-01T13:22:18Z</time>
      </trkpt>
      <trkpt lat="59.8353704" lon="17.6527545">
        <ele>21.767</ele>
        <time>2014-06-01T13:22:19Z</time>
      </trkpt>
      <trkpt lat="59.8354416" lon="17.6527288">
        <ele>21.767</ele>
        <time>2014-06-01T13:22:20Z</time>
      </trkpt>
      <trkpt lat="59.8355084" lon="17.6527089">
        <ele>21.767</ele>
        <time>2014-06-01T13:22:21Z</time>
      </trkpt>
      <trkpt lat="59.8355752" lon="17.6526839">
        <ele>21.2864</ele>
        <time>2014-06-01T13:22:22Z</time>
      </trkpt>
      <trkpt lat="59.8356393" lon="17.6526647">
        <ele>21.767</ele>
        <time>2014-06-01T13:22:23Z</time>
      </trkpt>
      <trkpt lat="59.8357027" lon="17.6526591">
        <ele>21.767</ele>
        <time>2014-06-01T13:22:24Z</time>
      </trkpt>
      <trkpt lat="59.8357669" lon="17.6526586">
        <ele>21.767</ele>
        <time>2014-06-01T13:22:25Z</time>
      </trkpt>
      <trkpt lat="59.8358312" lon="17.6526664">
        <ele>22.2476</ele>
        <time>2014-06-01T13:22:26Z</time>
      </trkpt>
      <trkpt lat="59.8358949" lon="17.652686">
        <ele>22.2476</ele>
        <time>2014-06-01T13:22:27Z</time>
      </trkpt>
      <trkpt lat="59.8359582" lon="17.6527254">
        <ele>22.7283</ele>
        <time>2014-06-01T13:22:28Z</time>
      </trkpt>
      <trkpt lat="59.8360197" lon="17.6527762">
        <ele>22.7283</ele>
        <time>2014-06-01T13:22:29Z</time>
      </trkpt>
      <trkpt lat="59.8360822" lon="17.6528312">
        <ele>22.2476</ele>
        <time>2014-06-01T13:22:30Z</time>
      </trkpt>
      <trkpt lat="59.8361461" lon="17.6528875">
        <ele>22.2476</ele>
        <time>2014-06-01T13:22:31Z</time>
      </trkpt>
      <trkpt lat="59.8362118" lon="17.6529414">
        <ele>22.2476</ele>
        <time>2014-06-01T13:22:32Z</time>
      </trkpt>
      <trkpt lat="59.8362791" lon="17.6529907">
        <ele>22.2476</ele>
        <time>2014-06-01T13:22:33Z</time>
      </trkpt>
      <trkpt lat="59.8363476" lon="17.6530341">
        <ele>21.767</ele>
        <time>2014-06-01T13:22:34Z</time>
      </trkpt>
      <trkpt lat="59.8364175" lon="17.6530725">
        <ele>21.767</ele>
        <time>2014-06-01T13:22:35Z</time>
      </trkpt>
      <trkpt lat="59.8364878" lon="17.6531056">
        <ele>21.767</ele>
        <time>2014-06-01T13:22:36Z</time>
      </trkpt>
      <trkpt lat="59.8365591" lon="17.6531355">
        <ele>21.2864</ele>
        <time>2014-06-01T13:22:37Z</time>
      </trkpt>
      <trkpt lat="59.8366297" lon="17.6531631">
        <ele>21.2864</ele>
        <time>2014-06-01T13:22:38Z</time>
      </trkpt>
      <trkpt lat="59.8366993" lon="17.6532006">
        <ele>20.8057</ele>
        <time>2014-06-01T13:22:39Z</time>
      </trkpt>
      <trkpt lat="59.8367665" lon="17.6532267">
        <ele>20.8057</ele>
        <time>2014-06-01T13:22:40Z</time>
      </trkpt>
      <trkpt lat="59.8368349" lon="17.653249">
        <ele>20.325</ele>
        <time>2014-06-01T13:22:41Z</time>
      </trkpt>
      <trkpt lat="59.8369015" lon="17.6532776">
        <ele>20.325</ele>
        <time>2014-06-01T13:22:42Z</time>
      </trkpt>
      <trkpt lat="59.8369641" lon="17.6533025">
        <ele>20.325</ele>
        <time>2014-06-01T13:22:43Z</time>
      </trkpt>
      <trkpt lat="59.8370324" lon="17.6533342">
        <ele>20.325</ele>
        <time>2014-06-01T13:22:44Z</time>
      </trkpt>
      <trkpt lat="59.8370934" lon="17.6533604">
        <ele>20.325</ele>
        <time>2014-06-01T13:22:45Z</time>
      </trkpt>
      <trkpt lat="59.837162" lon="17.6533876">
        <ele>20.8057</ele>
        <time>2014-06-01T13:22:46Z</time>
      </trkpt>
      <trkpt lat="59.8372291" lon="17.6534196">
        <ele>20.8057</ele>
        <time>2014-06-01T13:22:47Z</time>
      </trkpt>
      <trkpt lat="59.8372873" lon="17.6534449">
        <ele>20.8057</ele>
        <time>2014-06-01T13:22:48Z</time>
      </trkpt>
      <trkpt lat="59.8373466" lon="17.653468">
        <ele>20.8057</ele>
        <time>2014-06-01T13:22:49Z</time>
      </trkpt>
      <trkpt lat="59.8374039" lon="17.6534925">
        <ele>20.8057</ele>
        <time>2014-06-01T13:22:50Z</time>
      </trkpt>
      <trkpt lat="59.8374588" lon="17.653514">
        <ele>19.8444</ele>
        <time>2014-06-01T13:22:51Z</time>
      </trkpt>
      <trkpt lat="59.8375157" lon="17.6535365">
        <ele>19.3638</ele>
        <time>2014-06-01T13:22:52Z</time>
      </trkpt>
      <trkpt lat="59.8375743" lon="17.6535651">
        <ele>18.8831</ele>
        <time>2014-06-01T13:22:53Z</time>
      </trkpt>
      <trkpt lat="59.8376373" lon="17.6535963">
        <ele>18.8831</ele>
        <time>2014-06-01T13:22:54Z</time>
      </trkpt>
      <trkpt lat="59.837695" lon="17.6536271">
        <ele>17.9218</ele>
        <time>2014-06-01T13:22:55Z</time>
      </trkpt>
      <trkpt lat="59.8377585" lon="17.6536594">
        <ele>17.9218</ele>
        <time>2014-06-01T13:22:56Z</time>
      </trkpt>
      <trkpt lat="59.8378245" lon="17.6536874">
        <ele>18.4023</ele>
        <time>2014-06-01T13:22:57Z</time>
      </trkpt>
      <trkpt lat="59.8378872" lon="17.6537133">
        <ele>18.4023</ele>
        <time>2014-06-01T13:22:58Z</time>
      </trkpt>
      <trkpt lat="59.8379476" lon="17.6537397">
        <ele>17.9218</ele>
        <time>2014-06-01T13:22:59Z</time>
      </trkpt>
      <trkpt lat="59.8380095" lon="17.6537612">
        <ele>18.4023</ele>
        <time>2014-06-01T13:23:00Z</time>
      </trkpt>
      <trkpt lat="59.8380704" lon="17.6537718">
        <ele>17.9218</ele>
        <time>2014-06-01T13:23:01Z</time>
      </trkpt>
      <trkpt lat="59.8381316" lon="17.6537739">
        <ele>17.9218</ele>
        <time>2014-06-01T13:23:02Z</time>
      </trkpt>
      <trkpt lat="59.8381938" lon="17.6537654">
        <ele>17.9218</ele>
        <time>2014-06-01T13:23:03Z</time>
      </trkpt>
      <trkpt lat="59.8382561" lon="17.6537506">
        <ele>17.9218</ele>
        <time>2014-06-01T13:23:04Z</time>
      </trkpt>
      <trkpt lat="59.8383193" lon="17.6537333">
        <ele>17.9218</ele>
        <time>2014-06-01T13:23:05Z</time>
      </trkpt>
      <trkpt lat="59.8383829" lon="17.6537149">
        <ele>17.9218</ele>
        <time>2014-06-01T13:23:06Z</time>
      </trkpt>
      <trkpt lat="59.8384471" lon="17.6536977">
        <ele>17.9218</ele>
        <time>2014-06-01T13:23:07Z</time>
      </trkpt>
      <trkpt lat="59.8385112" lon="17.6536817">
        <ele>17.9218</ele>
        <time>2014-06-01T13:23:08Z</time>
      </trkpt>
      <trkpt lat="59.8385745" lon="17.6536672">
        <ele>17.9218</ele>
        <time>2014-06-01T13:23:09Z</time>
      </trkpt>
      <trkpt lat="59.8386367" lon="17.6536535">
        <ele>17.9218</ele>
        <time>2014-06-01T13:23:10Z</time>
      </trkpt>
      <trkpt lat="59.8387003" lon="17.6536435">
        <ele>17.4412</ele>
        <time>2014-06-01T13:23:11Z</time>
      </trkpt>
      <trkpt lat="59.8387662" lon="17.6536427">
        <ele>17.4412</ele>
        <time>2014-06-01T13:23:12Z</time>
      </trkpt>
      <trkpt lat="59.8388341" lon="17.6536537">
        <ele>17.4412</ele>
        <time>2014-06-01T13:23:13Z</time>
      </trkpt>
      <trkpt lat="59.8389031" lon="17.6536765">
        <ele>16.9604</ele>
        <time>2014-06-01T13:23:14Z</time>
      </trkpt>
      <trkpt lat="59.8389734" lon="17.6537049">
        <ele>16.9604</ele>
        <time>2014-06-01T13:23:15Z</time>
      </trkpt>
      <trkpt lat="59.8390454" lon="17.6537361">
        <ele>16.4797</ele>
        <time>2014-06-01T13:23:16Z</time>
      </trkpt>
      <trkpt lat="59.8391188" lon="17.6537666">
        <ele>16.4797</ele>
        <time>2014-06-01T13:23:17Z</time>
      </trkpt>
      <trkpt lat="59.8391925" lon="17.6537867">
        <ele>16.4797</ele>
        <time>2014-06-01T13:23:18Z</time>
      </trkpt>
      <trkpt lat="59.839264" lon="17.6537915">
        <ele>16.4797</ele>
        <time>2014-06-01T13:23:19Z</time>
      </trkpt>
      <trkpt lat="59.8393368" lon="17.6537799">
        <ele>16.4797</ele>
        <time>2014-06-01T13:23:20Z</time>
      </trkpt>
      <trkpt lat="59.839424" lon="17.653754">
        <ele>16.4797</ele>
        <time>2014-06-01T13:23:21Z</time>
      </trkpt>
      <trkpt lat="59.8395104" lon="17.6537325">
        <ele>15.999</ele>
        <time>2014-06-01T13:23:22Z</time>
      </trkpt>
      <trkpt lat="59.839585" lon="17.6537106">
        <ele>15.5184</ele>
        <time>2014-06-01T13:23:23Z</time>
      </trkpt>
      <trkpt lat="59.8396647" lon="17.6536879">
        <ele>15.5184</ele>
        <time>2014-06-01T13:23:24Z</time>
      </trkpt>
      <trkpt lat="59.8397395" lon="17.653664">
        <ele>15.0377</ele>
        <time>2014-06-01T13:23:25Z</time>
      </trkpt>
      <trkpt lat="59.8398188" lon="17.6536465">
        <ele>14.557</ele>
        <time>2014-06-01T13:23:26Z</time>
      </trkpt>
      <trkpt lat="59.839902" lon="17.6536167">
        <ele>14.557</ele>
        <time>2014-06-01T13:23:27Z</time>
      </trkpt>
      <trkpt lat="59.8399835" lon="17.6535947">
        <ele>14.0764</ele>
        <time>2014-06-01T13:23:28Z</time>
      </trkpt>
      <trkpt lat="59.8400684" lon="17.6535702">
        <ele>13.5958</ele>
        <time>2014-06-01T13:23:29Z</time>
      </trkpt>
      <trkpt lat="59.8401446" lon="17.6535491">
        <ele>13.1151</ele>
        <time>2014-06-01T13:23:30Z</time>
      </trkpt>
      <trkpt lat="59.8402188" lon="17.6535403">
        <ele>13.1151</ele>
        <time>2014-06-01T13:23:31Z</time>
      </trkpt>
      <trkpt lat="59.8402915" lon="17.6535276">
        <ele>13.1151</ele>
        <time>2014-06-01T13:23:32Z</time>
      </trkpt>
      <trkpt lat="59.8403661" lon="17.6535092">
        <ele>12.6344</ele>
        <time>2014-06-01T13:23:33Z</time>
      </trkpt>
      <trkpt lat="59.8404321" lon="17.6534936">
        <ele>12.6344</ele>
        <time>2014-06-01T13:23:34Z</time>
      </trkpt>
      <trkpt lat="59.8405035" lon="17.6534702">
        <ele>12.6344</ele>
        <time>2014-06-01T13:23:35Z</time>
      </trkpt>
      <trkpt lat="59.8405762" lon="17.6534424">
        <ele>12.6344</ele>
        <time>2014-06-01T13:23:36Z</time>
      </trkpt>
      <trkpt lat="59.8406424" lon="17.6534252">
        <ele>12.1538</ele>
        <time>2014-06-01T13:23:37Z</time>
      </trkpt>
      <trkpt lat="59.8407087" lon="17.6534114">
        <ele>12.1538</ele>
        <time>2014-06-01T13:23:38Z</time>
      </trkpt>
      <trkpt lat="59.8407713" lon="17.653402">
        <ele>11.6732</ele>
        <time>2014-06-01T13:23:39Z</time>
      </trkpt>
      <trkpt lat="59.8408341" lon="17.6533931">
        <ele>11.6732</ele>
        <time>2014-06-01T13:23:40Z</time>
      </trkpt>
      <trkpt lat="59.8408963" lon="17.6533812">
        <ele>11.6732</ele>
        <time>2014-06-01T13:23:41Z</time>
      </trkpt>
      <trkpt lat="59.8409538" lon="17.6533697">
        <ele>11.1925</ele>
        <time>2014-06-01T13:23:42Z</time>
      </trkpt>
      <trkpt lat="59.8410066" lon="17.6533582">
        <ele>10.7118</ele>
        <time>2014-06-01T13:23:43Z</time>
      </trkpt>
      <trkpt lat="59.8410599" lon="17.6533398">
        <ele>10.7118</ele>
        <time>2014-06-01T13:23:44Z</time>
      </trkpt>
      <trkpt lat="59.8411321" lon="17.6533288">
        <ele>9.75061</ele>
        <time>2014-06-01T13:23:45Z</time>
      </trkpt>
      <trkpt lat="59.8411982" lon="17.653317">
        <ele>10.2312</ele>
        <time>2014-06-01T13:23:46Z</time>
      </trkpt>
      <trkpt lat="59.8412664" lon="17.6533014">
        <ele>10.2312</ele>
        <time>2014-06-01T13:23:47Z</time>
      </trkpt>
      <trkpt lat="59.8413351" lon="17.653277">
        <ele>10.7118</ele>
        <time>2014-06-01T13:23:48Z</time>
      </trkpt>
      <trkpt lat="59.8414029" lon="17.6532491">
        <ele>10.7118</ele>
        <time>2014-06-01T13:23:49Z</time>
      </trkpt>
      <trkpt lat="59.8414691" lon="17.6532144">
        <ele>10.7118</ele>
        <time>2014-06-01T13:23:50Z</time>
      </trkpt>
      <trkpt lat="59.8415314" lon="17.6531812">
        <ele>10.7118</ele>
        <time>2014-06-01T13:23:51Z</time>
      </trkpt>
      <trkpt lat="59.8415929" lon="17.6531378">
        <ele>10.7118</ele>
        <time>2014-06-01T13:23:52Z</time>
      </trkpt>
      <trkpt lat="59.8416532" lon="17.653091">
        <ele>11.1925</ele>
        <time>2014-06-01T13:23:53Z</time>
      </trkpt>
      <trkpt lat="59.8417137" lon="17.6530367">
        <ele>11.6732</ele>
        <time>2014-06-01T13:23:54Z</time>
      </trkpt>
      <trkpt lat="59.8417732" lon="17.6529677">
        <ele>11.6732</ele>
        <time>2014-06-01T13:23:55Z</time>
      </trkpt>
      <trkpt lat="59.8418333" lon="17.6528912">
        <ele>11.6732</ele>
        <time>2014-06-01T13:23:56Z</time>
      </trkpt>
      <trkpt lat="59.8418913" lon="17.6528134">
        <ele>12.1538</ele>
        <time>2014-06-01T13:23:57Z</time>
      </trkpt>
      <trkpt lat="59.8419536" lon="17.6527294">
        <ele>12.1538</ele>
        <time>2014-06-01T13:23:58Z</time>
      </trkpt>
      <trkpt lat="59.8420167" lon="17.6526419">
        <ele>11.6732</ele>
        <time>2014-06-01T13:23:59Z</time>
      </trkpt>
      <trkpt lat="59.8420805" lon="17.6525613">
        <ele>11.6732</ele>
        <time>2014-06-01T13:24:00Z</time>
      </trkpt>
      <trkpt lat="59.8421478" lon="17.6524934">
        <ele>11.6732</ele>
        <time>2014-06-01T13:24:01Z</time>
      </trkpt>
      <trkpt lat="59.8422155" lon="17.6524426">
        <ele>11.6732</ele>
        <time>2014-06-01T13:24:02Z</time>
      </trkpt>
      <trkpt lat="59.8422833" lon="17.6524041">
        <ele>12.1538</ele>
        <time>2014-06-01T13:24:03Z</time>
      </trkpt>
      <trkpt lat="59.8423503" lon="17.6523714">
        <ele>12.1538</ele>
        <time>2014-06-01T13:24:04Z</time>
      </trkpt>
      <trkpt lat="59.8424151" lon="17.6523415">
        <ele>12.1538</ele>
        <time>2014-06-01T13:24:05Z</time>
      </trkpt>
      <trkpt lat="59.8424797" lon="17.6523126">
        <ele>12.6344</ele>
        <time>2014-06-01T13:24:06Z</time>
      </trkpt>
      <trkpt lat="59.8425413" lon="17.6522886">
        <ele>12.6344</ele>
        <time>2014-06-01T13:24:07Z</time>
      </trkpt>
      <trkpt lat="59.8425984" lon="17.6522681">
        <ele>13.1151</ele>
        <time>2014-06-01T13:24:08Z</time>
      </trkpt>
      <trkpt lat="59.8426542" lon="17.6522432">
        <ele>13.1151</ele>
        <time>2014-06-01T13:24:09Z</time>
      </trkpt>
      <trkpt lat="59.8427088" lon="17.6522204">
        <ele>13.1151</ele>
        <time>2014-06-01T13:24:10Z</time>
      </trkpt>
      <trkpt lat="59.8427666" lon="17.652196">
        <ele>14.0764</ele>
        <time>2014-06-01T13:24:11Z</time>
      </trkpt>
      <trkpt lat="59.8428274" lon="17.6521701">
        <ele>14.0764</ele>
        <time>2014-06-01T13:24:12Z</time>
      </trkpt>
      <trkpt lat="59.8428859" lon="17.6521458">
        <ele>14.0764</ele>
        <time>2014-06-01T13:24:13Z</time>
      </trkpt>
      <trkpt lat="59.8429451" lon="17.6521161">
        <ele>13.5958</ele>
        <time>2014-06-01T13:24:14Z</time>
      </trkpt>
      <trkpt lat="59.8430077" lon="17.6520878">
        <ele>14.0764</ele>
        <time>2014-06-01T13:24:15Z</time>
      </trkpt>
      <trkpt lat="59.8430682" lon="17.6520551">
        <ele>14.0764</ele>
        <time>2014-06-01T13:24:16Z</time>
      </trkpt>
      <trkpt lat="59.8431278" lon="17.6520071">
        <ele>14.0764</ele>
        <time>2014-06-01T13:24:17Z</time>
      </trkpt>
      <trkpt lat="59.8431874" lon="17.6519475">
        <ele>14.557</ele>
        <time>2014-06-01T13:24:18Z</time>
      </trkpt>
      <trkpt lat="59.8432494" lon="17.6518967">
        <ele>15.0377</ele>
        <time>2014-06-01T13:24:19Z</time>
      </trkpt>
      <trkpt lat="59.8433081" lon="17.6518508">
        <ele>15.0377</ele>
        <time>2014-06-01T13:24:20Z</time>
      </trkpt>
      <trkpt lat="59.8433687" lon="17.6518032">
        <ele>15.0377</ele>
        <time>2014-06-01T13:24:21Z</time>
      </trkpt>
      <trkpt lat="59.8434279" lon="17.6517562">
        <ele>15.0377</ele>
        <time>2014-06-01T13:24:22Z</time>
      </trkpt>
      <trkpt lat="59.8434827" lon="17.6517096">
        <ele>15.5184</ele>
        <time>2014-06-01T13:24:23Z</time>
      </trkpt>
      <trkpt lat="59.843535" lon="17.6516608">
        <ele>16.4797</ele>
        <time>2014-06-01T13:24:24Z</time>
      </trkpt>
      <trkpt lat="59.8435857" lon="17.6516117">
        <ele>17.4412</ele>
        <time>2014-06-01T13:24:25Z</time>
      </trkpt>
      <trkpt lat="59.8436374" lon="17.6515641">
        <ele>18.4023</ele>
        <time>2014-06-01T13:24:26Z</time>
      </trkpt>
      <trkpt lat="59.843678" lon="17.6515257">
        <ele>18.4023</ele>
        <time>2014-06-01T13:24:27Z</time>
      </trkpt>
      <trkpt lat="59.8437236" lon="17.6514874">
        <ele>18.8831</ele>
        <time>2014-06-01T13:24:28Z</time>
      </trkpt>
      <trkpt lat="59.8437681" lon="17.651448">
        <ele>19.3638</ele>
        <time>2014-06-01T13:24:29Z</time>
      </trkpt>
      <trkpt lat="59.8438105" lon="17.6514122">
        <ele>20.325</ele>
        <time>2014-06-01T13:24:30Z</time>
      </trkpt>
      <trkpt lat="59.8438442" lon="17.6513798">
        <ele>19.8444</ele>
        <time>2014-06-01T13:24:31Z</time>
      </trkpt>
      <trkpt lat="59.8438782" lon="17.6513304">
        <ele>19.8444</ele>
        <time>2014-06-01T13:24:32Z</time>
      </trkpt>
      <trkpt lat="59.8439231" lon="17.6512708">
        <ele>19.8444</ele>
        <time>2014-06-01T13:24:33Z</time>
      </trkpt>
      <trkpt lat="59.8439655" lon="17.6512077">
        <ele>20.325</ele>
        <time>2014-06-01T13:24:34Z</time>
      </trkpt>
      <trkpt lat="59.8440093" lon="17.6511365">
        <ele>20.325</ele>
        <time>2014-06-01T13:24:35Z</time>
      </trkpt>
      <trkpt lat="59.8440538" lon="17.6510616">
        <ele>20.325</ele>
        <time>2014-06-01T13:24:36Z</time>
      </trkpt>
      <trkpt lat="59.8440989" lon="17.6509911">
        <ele>20.325</ele>
        <time>2014-06-01T13:24:37Z</time>
      </trkpt>
      <trkpt lat="59.8441396" lon="17.650929">
        <ele>20.325</ele>
        <time>2014-06-01T13:24:38Z</time>
      </trkpt>
      <trkpt lat="59.8441754" lon="17.6508658">
        <ele>19.8444</ele>
        <time>2014-06-01T13:24:39Z</time>
      </trkpt>
      <trkpt lat="59.8442181" lon="17.6507968">
        <ele>20.325</ele>
        <time>2014-06-01T13:24:40Z</time>
      </trkpt>
      <trkpt lat="59.8442638" lon="17.6507218">
        <ele>20.325</ele>
        <time>2014-06-01T13:24:41Z</time>
      </trkpt>
      <trkpt lat="59.8443022" lon="17.6506504">
        <ele>20.325</ele>
        <time>2014-06-01T13:24:42Z</time>
      </trkpt>
      <trkpt lat="59.8443461" lon="17.6505805">
        <ele>20.325</ele>
        <time>2014-06-01T13:24:43Z</time>
      </trkpt>
      <trkpt lat="59.844394" lon="17.6505104">
        <ele>20.8057</ele>
        <time>2014-06-01T13:24:44Z</time>
      </trkpt>
      <trkpt lat="59.844444" lon="17.6504559">
        <ele>20.8057</ele>
        <time>2014-06-01T13:24:45Z</time>
      </trkpt>
      <trkpt lat="59.8444908" lon="17.6504073">
        <ele>20.8057</ele>
        <time>2014-06-01T13:24:46Z</time>
      </trkpt>
      <trkpt lat="59.8445317" lon="17.6503555">
        <ele>20.8057</ele>
        <time>2014-06-01T13:24:47Z</time>
      </trkpt>
      <trkpt lat="59.8445726" lon="17.6502965">
        <ele>20.8057</ele>
        <time>2014-06-01T13:24:48Z</time>
      </trkpt>
      <trkpt lat="59.8446165" lon="17.6502373">
        <ele>20.325</ele>
        <time>2014-06-01T13:24:49Z</time>
      </trkpt>
      <trkpt lat="59.8446632" lon="17.6501806">
        <ele>20.8057</ele>
        <time>2014-06-01T13:24:50Z</time>
      </trkpt>
      <trkpt lat="59.844711" lon="17.6501223">
        <ele>20.325</ele>
        <time>2014-06-01T13:24:51Z</time>
      </trkpt>
      <trkpt lat="59.8447614" lon="17.6500624">
        <ele>20.325</ele>
        <time>2014-06-01T13:24:52Z</time>
      </trkpt>
      <trkpt lat="59.8448149" lon="17.6500067">
        <ele>20.325</ele>
        <time>2014-06-01T13:24:53Z</time>
      </trkpt>
      <trkpt lat="59.8448684" lon="17.6499484">
        <ele>20.325</ele>
        <time>2014-06-01T13:24:54Z</time>
      </trkpt>
      <trkpt lat="59.8449253" lon="17.6498908">
        <ele>20.325</ele>
        <time>2014-06-01T13:24:55Z</time>
      </trkpt>
      <trkpt lat="59.8449809" lon="17.6498234">
        <ele>20.8057</ele>
        <time>2014-06-01T13:24:56Z</time>
      </trkpt>
      <trkpt lat="59.8450347" lon="17.6497546">
        <ele>20.8057</ele>
        <time>2014-06-01T13:24:57Z</time>
      </trkpt>
      <trkpt lat="59.8450873" lon="17.6496909">
        <ele>20.8057</ele>
        <time>2014-06-01T13:24:58Z</time>
      </trkpt>
      <trkpt lat="59.8451411" lon="17.6496338">
        <ele>20.8057</ele>
        <time>2014-06-01T13:24:59Z</time>
      </trkpt>
      <trkpt lat="59.8451912" lon="17.6495785">
        <ele>21.2864</ele>
        <time>2014-06-01T13:25:00Z</time>
      </trkpt>
      <trkpt lat="59.8452413" lon="17.6495196">
        <ele>20.8057</ele>
        <time>2014-06-01T13:25:01Z</time>
      </trkpt>
      <trkpt lat="59.8452911" lon="17.6494651">
        <ele>20.8057</ele>
        <time>2014-06-01T13:25:02Z</time>
      </trkpt>
      <trkpt lat="59.8453414" lon="17.6494097">
        <ele>21.2864</ele>
        <time>2014-06-01T13:25:03Z</time>
      </trkpt>
      <trkpt lat="59.8453953" lon="17.6493447">
        <ele>20.8057</ele>
        <time>2014-06-01T13:25:04Z</time>
      </trkpt>
      <trkpt lat="59.8454466" lon="17.6492781">
        <ele>20.325</ele>
        <time>2014-06-01T13:25:05Z</time>
      </trkpt>
      <trkpt lat="59.8454983" lon="17.6492086">
        <ele>20.325</ele>
        <time>2014-06-01T13:25:06Z</time>
      </trkpt>
      <trkpt lat="59.8455494" lon="17.6491421">
        <ele>19.8444</ele>
        <time>2014-06-01T13:25:07Z</time>
      </trkpt>
      <trkpt lat="59.8456033" lon="17.6490817">
        <ele>19.3638</ele>
        <time>2014-06-01T13:25:08Z</time>
      </trkpt>
      <trkpt lat="59.8456584" lon="17.6490241">
        <ele>18.8831</ele>
        <time>2014-06-01T13:25:09Z</time>
      </trkpt>
      <trkpt lat="59.8457159" lon="17.6489491">
        <ele>17.9218</ele>
        <time>2014-06-01T13:25:10Z</time>
      </trkpt>
      <trkpt lat="59.8457742" lon="17.6488723">
        <ele>16.9604</ele>
        <time>2014-06-01T13:25:11Z</time>
      </trkpt>
      <trkpt lat="59.8458416" lon="17.6488223">
        <ele>16.9604</ele>
        <time>2014-06-01T13:25:12Z</time>
      </trkpt>
      <trkpt lat="59.8459142" lon="17.6487978">
        <ele>16.4797</ele>
        <time>2014-06-01T13:25:13Z</time>
      </trkpt>
      <trkpt lat="59.8459893" lon="17.6487822">
        <ele>15.5184</ele>
        <time>2014-06-01T13:25:14Z</time>
      </trkpt>
      <trkpt lat="59.8460669" lon="17.6487678">
        <ele>15.5184</ele>
        <time>2014-06-01T13:25:15Z</time>
      </trkpt>
      <trkpt lat="59.84614" lon="17.6487624">
        <ele>15.0377</ele>
        <time>2014-06-01T13:25:16Z</time>
      </trkpt>
      <trkpt lat="59.8462099" lon="17.6487817">
        <ele>14.557</ele>
        <time>2014-06-01T13:25:17Z</time>
      </trkpt>
      <trkpt lat="59.8462828" lon="17.6488196">
        <ele>14.0764</ele>
        <time>2014-06-01T13:25:18Z</time>
      </trkpt>
      <trkpt lat="59.8463455" lon="17.6488729">
        <ele>13.5958</ele>
        <time>2014-06-01T13:25:19Z</time>
      </trkpt>
      <trkpt lat="59.8464048" lon="17.6489284">
        <ele>13.1151</ele>
        <time>2014-06-01T13:25:20Z</time>
      </trkpt>
      <trkpt lat="59.8464605" lon="17.6489879">
        <ele>12.6344</ele>
        <time>2014-06-01T13:25:21Z</time>
      </trkpt>
      <trkpt lat="59.8465125" lon="17.6490525">
        <ele>12.6344</ele>
        <time>2014-06-01T13:25:22Z</time>
      </trkpt>
      <trkpt lat="59.8465606" lon="17.6491242">
        <ele>12.1538</ele>
        <time>2014-06-01T13:25:23Z</time>
      </trkpt>
      <trkpt lat="59.8466026" lon="17.6492053">
        <ele>11.6732</ele>
        <time>2014-06-01T13:25:24Z</time>
      </trkpt>
      <trkpt lat="59.8466425" lon="17.6492879">
        <ele>11.6732</ele>
        <time>2014-06-01T13:25:25Z</time>
      </trkpt>
      <trkpt lat="59.8466861" lon="17.6493608">
        <ele>11.1925</ele>
        <time>2014-06-01T13:25:26Z</time>
      </trkpt>
      <trkpt lat="59.8467331" lon="17.6494225">
        <ele>11.1925</ele>
        <time>2014-06-01T13:25:27Z</time>
      </trkpt>
      <trkpt lat="59.8467838" lon="17.6494728">
        <ele>11.1925</ele>
        <time>2014-06-01T13:25:28Z</time>
      </trkpt>
      <trkpt lat="59.8468385" lon="17.6495133">
        <ele>10.7118</ele>
        <time>2014-06-01T13:25:29Z</time>
      </trkpt>
      <trkpt lat="59.846962" lon="17.6495516">
        <ele>10.2312</ele>
        <time>2014-06-01T13:25:30Z</time>
      </trkpt>
      <trkpt lat="59.8470176" lon="17.6495293">
        <ele>10.2312</ele>
        <time>2014-06-01T13:25:31Z</time>
      </trkpt>
      <trkpt lat="59.8470741" lon="17.6494897">
        <ele>9.75061</ele>
        <time>2014-06-01T13:25:32Z</time>
      </trkpt>
      <trkpt lat="59.8471341" lon="17.64943">
        <ele>10.2312</ele>
        <time>2014-06-01T13:25:33Z</time>
      </trkpt>
      <trkpt lat="59.8471914" lon="17.6493616">
        <ele>10.2312</ele>
        <time>2014-06-01T13:25:34Z</time>
      </trkpt>
      <trkpt lat="59.8472461" lon="17.6492901">
        <ele>10.2312</ele>
        <time>2014-06-01T13:25:35Z</time>
      </trkpt>
      <trkpt lat="59.8472987" lon="17.6492107">
        <ele>10.2312</ele>
        <time>2014-06-01T13:25:36Z</time>
      </trkpt>
      <trkpt lat="59.8473533" lon="17.649132">
        <ele>10.2312</ele>
        <time>2014-06-01T13:25:37Z</time>
      </trkpt>
      <trkpt lat="59.8474136" lon="17.6490677">
        <ele>10.2312</ele>
        <time>2014-06-01T13:25:38Z</time>
      </trkpt>
      <trkpt lat="59.8474741" lon="17.6490104">
        <ele>9.75061</ele>
        <time>2014-06-01T13:25:39Z</time>
      </trkpt>
      <trkpt lat="59.8475351" lon="17.6489595">
        <ele>10.2312</ele>
        <time>2014-06-01T13:25:40Z</time>
      </trkpt>
      <trkpt lat="59.8475929" lon="17.6489092">
        <ele>10.2312</ele>
        <time>2014-06-01T13:25:41Z</time>
      </trkpt>
      <trkpt lat="59.847653" lon="17.6488591">
        <ele>10.2312</ele>
        <time>2014-06-01T13:25:42Z</time>
      </trkpt>
      <trkpt lat="59.8477127" lon="17.6488112">
        <ele>10.2312</ele>
        <time>2014-06-01T13:25:43Z</time>
      </trkpt>
      <trkpt lat="59.8477697" lon="17.6487654">
        <ele>10.2312</ele>
        <time>2014-06-01T13:25:44Z</time>
      </trkpt>
      <trkpt lat="59.8478211" lon="17.6487279">
        <ele>10.2312</ele>
        <time>2014-06-01T13:25:45Z</time>
      </trkpt>
      <trkpt lat="59.8478695" lon="17.6486906">
        <ele>10.2312</ele>
        <time>2014-06-01T13:25:46Z</time>
      </trkpt>
      <trkpt lat="59.8479187" lon="17.6486583">
        <ele>10.2312</ele>
        <time>2014-06-01T13:25:47Z</time>
      </trkpt>
      <trkpt lat="59.8479656" lon="17.6486333">
        <ele>10.2312</ele>
        <time>2014-06-01T13:25:48Z</time>
      </trkpt>
      <trkpt lat="59.8480133" lon="17.6486145">
        <ele>10.2312</ele>
        <time>2014-06-01T13:25:49Z</time>
      </trkpt>
      <trkpt lat="59.8480614" lon="17.6485946">
        <ele>10.2312</ele>
        <time>2014-06-01T13:25:50Z</time>
      </trkpt>
      <trkpt lat="59.8481101" lon="17.6485752">
        <ele>10.2312</ele>
        <time>2014-06-01T13:25:51Z</time>
      </trkpt>
      <trkpt lat="59.8481597" lon="17.6485478">
        <ele>10.2312</ele>
        <time>2014-06-01T13:25:52Z</time>
      </trkpt>
      <trkpt lat="59.8482111" lon="17.6485159">
        <ele>10.2312</ele>
        <time>2014-06-01T13:25:53Z</time>
      </trkpt>
      <trkpt lat="59.8482655" lon="17.6484797">
        <ele>10.7118</ele>
        <time>2014-06-01T13:25:54Z</time>
      </trkpt>
      <trkpt lat="59.8483199" lon="17.6484415">
        <ele>10.7118</ele>
        <time>2014-06-01T13:25:55Z</time>
      </trkpt>
      <trkpt lat="59.8483738" lon="17.6484047">
        <ele>10.7118</ele>
        <time>2014-06-01T13:25:56Z</time>
      </trkpt>
      <trkpt lat="59.8484276" lon="17.648366">
        <ele>11.1925</ele>
        <time>2014-06-01T13:25:57Z</time>
      </trkpt>
      <trkpt lat="59.8484837" lon="17.6483221">
        <ele>11.1925</ele>
        <time>2014-06-01T13:25:58Z</time>
      </trkpt>
      <trkpt lat="59.8485357" lon="17.6482808">
        <ele>11.1925</ele>
        <time>2014-06-01T13:25:59Z</time>
      </trkpt>
      <trkpt lat="59.8485866" lon="17.6482342">
        <ele>11.1925</ele>
        <time>2014-06-01T13:26:00Z</time>
      </trkpt>
      <trkpt lat="59.8486394" lon="17.648184">
        <ele>11.6732</ele>
        <time>2014-06-01T13:26:01Z</time>
      </trkpt>
      <trkpt lat="59.8486898" lon="17.6481296">
        <ele>11.6732</ele>
        <time>2014-06-01T13:26:02Z</time>
      </trkpt>
      <trkpt lat="59.8487387" lon="17.6480722">
        <ele>11.6732</ele>
        <time>2014-06-01T13:26:03Z</time>
      </trkpt>
      <trkpt lat="59.8487865" lon="17.6480183">
        <ele>11.6732</ele>
        <time>2014-06-01T13:26:04Z</time>
      </trkpt>
      <trkpt lat="59.848834" lon="17.6479565">
        <ele>11.6732</ele>
        <time>2014-06-01T13:26:05Z</time>
      </trkpt>
      <trkpt lat="59.8488799" lon="17.6478906">
        <ele>11.6732</ele>
        <time>2014-06-01T13:26:06Z</time>
      </trkpt>
      <trkpt lat="59.8489274" lon="17.6478236">
        <ele>11.6732</ele>
        <time>2014-06-01T13:26:07Z</time>
      </trkpt>
      <trkpt lat="59.8489747" lon="17.647758">
        <ele>11.6732</ele>
        <time>2014-06-01T13:26:08Z</time>
      </trkpt>
      <trkpt lat="59.8490223" lon="17.6476918">
        <ele>12.1538</ele>
        <time>2014-06-01T13:26:09Z</time>
      </trkpt>
      <trkpt lat="59.8490677" lon="17.6476314">
        <ele>12.1538</ele>
        <time>2014-06-01T13:26:10Z</time>
      </trkpt>
      <trkpt lat="59.8491155" lon="17.6475693">
        <ele>12.1538</ele>
        <time>2014-06-01T13:26:11Z</time>
      </trkpt>
      <trkpt lat="59.8491651" lon="17.6475013">
        <ele>12.1538</ele>
        <time>2014-06-01T13:26:12Z</time>
      </trkpt>
      <trkpt lat="59.8492114" lon="17.6474349">
        <ele>12.6344</ele>
        <time>2014-06-01T13:26:13Z</time>
      </trkpt>
      <trkpt lat="59.8492579" lon="17.6473727">
        <ele>12.6344</ele>
        <time>2014-06-01T13:26:14Z</time>
      </trkpt>
      <trkpt lat="59.8493034" lon="17.647319">
        <ele>12.6344</ele>
        <time>2014-06-01T13:26:15Z</time>
      </trkpt>
      <trkpt lat="59.8493497" lon="17.6472641">
        <ele>12.6344</ele>
        <time>2014-06-01T13:26:16Z</time>
      </trkpt>
      <trkpt lat="59.8493989" lon="17.6472061">
        <ele>12.6344</ele>
        <time>2014-06-01T13:26:17Z</time>
      </trkpt>
      <trkpt lat="59.8494481" lon="17.6471511">
        <ele>12.6344</ele>
        <time>2014-06-01T13:26:18Z</time>
      </trkpt>
      <trkpt lat="59.8494983" lon="17.6470989">
        <ele>12.6344</ele>
        <time>2014-06-01T13:26:19Z</time>
      </trkpt>
      <trkpt lat="59.84955" lon="17.647049">
        <ele>12.6344</ele>
        <time>2014-06-01T13:26:20Z</time>
      </trkpt>
      <trkpt lat="59.8496029" lon="17.6469953">
        <ele>13.1151</ele>
        <time>2014-06-01T13:26:21Z</time>
      </trkpt>
      <trkpt lat="59.8496553" lon="17.6469416">
        <ele>13.1151</ele>
        <time>2014-06-01T13:26:22Z</time>
      </trkpt>
      <trkpt lat="59.8497075" lon="17.6468844">
        <ele>13.1151</ele>
        <time>2014-06-01T13:26:23Z</time>
      </trkpt>
      <trkpt lat="59.8497614" lon="17.6468262">
        <ele>13.1151</ele>
        <time>2014-06-01T13:26:24Z</time>
      </trkpt>
      <trkpt lat="59.849817" lon="17.6467671">
        <ele>13.1151</ele>
        <time>2014-06-01T13:26:25Z</time>
      </trkpt>
      <trkpt lat="59.8498735" lon="17.6467067">
        <ele>13.1151</ele>
        <time>2014-06-01T13:26:26Z</time>
      </trkpt>
      <trkpt lat="59.8499304" lon="17.6466487">
        <ele>13.1151</ele>
        <time>2014-06-01T13:26:27Z</time>
      </trkpt>
      <trkpt lat="59.8499882" lon="17.6465917">
        <ele>13.5958</ele>
        <time>2014-06-01T13:26:28Z</time>
      </trkpt>
      <trkpt lat="59.8500479" lon="17.6465367">
        <ele>14.0764</ele>
        <time>2014-06-01T13:26:29Z</time>
      </trkpt>
      <trkpt lat="59.8501069" lon="17.6464832">
        <ele>14.557</ele>
        <time>2014-06-01T13:26:30Z</time>
      </trkpt>
      <trkpt lat="59.8501619" lon="17.6464278">
        <ele>14.557</ele>
        <time>2014-06-01T13:26:31Z</time>
      </trkpt>
      <trkpt lat="59.8502178" lon="17.6463672">
        <ele>15.0377</ele>
        <time>2014-06-01T13:26:32Z</time>
      </trkpt>
      <trkpt lat="59.8502752" lon="17.6463077">
        <ele>15.0377</ele>
        <time>2014-06-01T13:26:33Z</time>
      </trkpt>
      <trkpt lat="59.8503334" lon="17.6462504">
        <ele>15.5184</ele>
        <time>2014-06-01T13:26:34Z</time>
      </trkpt>
      <trkpt lat="59.8503914" lon="17.6461965">
        <ele>15.5184</ele>
        <time>2014-06-01T13:26:35Z</time>
      </trkpt>
      <trkpt lat="59.8504508" lon="17.646144">
        <ele>15.999</ele>
        <time>2014-06-01T13:26:36Z</time>
      </trkpt>
      <trkpt lat="59.8505084" lon="17.6460893">
        <ele>15.999</ele>
        <time>2014-06-01T13:26:37Z</time>
      </trkpt>
      <trkpt lat="59.8505665" lon="17.6460364">
        <ele>16.4797</ele>
        <time>2014-06-01T13:26:38Z</time>
      </trkpt>
      <trkpt lat="59.850624" lon="17.6459842">
        <ele>15.999</ele>
        <time>2014-06-01T13:26:39Z</time>
      </trkpt>
      <trkpt lat="59.8506818" lon="17.6459305">
        <ele>15.999</ele>
        <time>2014-06-01T13:26:40Z</time>
      </trkpt>
      <trkpt lat="59.8507395" lon="17.6458785">
        <ele>15.999</ele>
        <time>2014-06-01T13:26:41Z</time>
      </trkpt>
      <trkpt lat="59.8507954" lon="17.6458272">
        <ele>15.5184</ele>
        <time>2014-06-01T13:26:42Z</time>
      </trkpt>
      <trkpt lat="59.8508498" lon="17.6457754">
        <ele>15.5184</ele>
        <time>2014-06-01T13:26:43Z</time>
      </trkpt>
      <trkpt lat="59.8509027" lon="17.6457235">
        <ele>15.5184</ele>
        <time>2014-06-01T13:26:44Z</time>
      </trkpt>
      <trkpt lat="59.8509544" lon="17.6456717">
        <ele>15.999</ele>
        <time>2014-06-01T13:26:45Z</time>
      </trkpt>
      <trkpt lat="59.85101" lon="17.6456218">
        <ele>15.999</ele>
        <time>2014-06-01T13:26:46Z</time>
      </trkpt>
      <trkpt lat="59.8510641" lon="17.6455779">
        <ele>15.999</ele>
        <time>2014-06-01T13:26:47Z</time>
      </trkpt>
      <trkpt lat="59.851117" lon="17.6455375">
        <ele>15.999</ele>
        <time>2014-06-01T13:26:48Z</time>
      </trkpt>
      <trkpt lat="59.851172" lon="17.6454966">
        <ele>15.999</ele>
        <time>2014-06-01T13:26:49Z</time>
      </trkpt>
      <trkpt lat="59.8512274" lon="17.6454496">
        <ele>15.999</ele>
        <time>2014-06-01T13:26:50Z</time>
      </trkpt>
      <trkpt lat="59.8512818" lon="17.6453961">
        <ele>15.999</ele>
        <time>2014-06-01T13:26:51Z</time>
      </trkpt>
      <trkpt lat="59.8513409" lon="17.6453413">
        <ele>15.999</ele>
        <time>2014-06-01T13:26:52Z</time>
      </trkpt>
      <trkpt lat="59.8513985" lon="17.6452859">
        <ele>15.999</ele>
        <time>2014-06-01T13:26:53Z</time>
      </trkpt>
      <trkpt lat="59.8514533" lon="17.6452313">
        <ele>15.5184</ele>
        <time>2014-06-01T13:26:54Z</time>
      </trkpt>
      <trkpt lat="59.8515082" lon="17.6451773">
        <ele>15.0377</ele>
        <time>2014-06-01T13:26:55Z</time>
      </trkpt>
      <trkpt lat="59.8515625" lon="17.6451224">
        <ele>15.0377</ele>
        <time>2014-06-01T13:26:56Z</time>
      </trkpt>
      <trkpt lat="59.851616" lon="17.6450657">
        <ele>14.557</ele>
        <time>2014-06-01T13:26:57Z</time>
      </trkpt>
      <trkpt lat="59.851671" lon="17.6450084">
        <ele>14.557</ele>
        <time>2014-06-01T13:26:58Z</time>
      </trkpt>
      <trkpt lat="59.8517257" lon="17.6449466">
        <ele>14.557</ele>
        <time>2014-06-01T13:26:59Z</time>
      </trkpt>
      <trkpt lat="59.8517834" lon="17.6448806">
        <ele>14.557</ele>
        <time>2014-06-01T13:27:00Z</time>
      </trkpt>
      <trkpt lat="59.8518395" lon="17.6448148">
        <ele>14.0764</ele>
        <time>2014-06-01T13:27:01Z</time>
      </trkpt>
      <trkpt lat="59.8518935" lon="17.6447451">
        <ele>13.5958</ele>
        <time>2014-06-01T13:27:02Z</time>
      </trkpt>
      <trkpt lat="59.8519459" lon="17.6446738">
        <ele>12.6344</ele>
        <time>2014-06-01T13:27:03Z</time>
      </trkpt>
      <trkpt lat="59.8519975" lon="17.6446023">
        <ele>12.1538</ele>
        <time>2014-06-01T13:27:04Z</time>
      </trkpt>
      <trkpt lat="59.8520465" lon="17.6445372">
        <ele>11.6732</ele>
        <time>2014-06-01T13:27:05Z</time>
      </trkpt>
      <trkpt lat="59.8520961" lon="17.6444765">
        <ele>11.6732</ele>
        <time>2014-06-01T13:27:06Z</time>
      </trkpt>
      <trkpt lat="59.8521479" lon="17.644413">
        <ele>11.6732</ele>
        <time>2014-06-01T13:27:07Z</time>
      </trkpt>
      <trkpt lat="59.852199" lon="17.6443477">
        <ele>11.1925</ele>
        <time>2014-06-01T13:27:08Z</time>
      </trkpt>
      <trkpt lat="59.8522515" lon="17.6442803">
        <ele>11.1925</ele>
        <time>2014-06-01T13:27:09Z</time>
      </trkpt>
      <trkpt lat="59.8523029" lon="17.6442119">
        <ele>11.6732</ele>
        <time>2014-06-01T13:27:10Z</time>
      </trkpt>
      <trkpt lat="59.8523522" lon="17.6441456">
        <ele>11.6732</ele>
        <time>2014-06-01T13:27:11Z</time>
      </trkpt>
      <trkpt lat="59.8524027" lon="17.6440808">
        <ele>11.1925</ele>
        <time>2014-06-01T13:27:12Z</time>
      </trkpt>
      <trkpt lat="59.8524539" lon="17.644018">
        <ele>11.1925</ele>
        <time>2014-06-01T13:27:13Z</time>
      </trkpt>
      <trkpt lat="59.8525028" lon="17.6439545">
        <ele>11.1925</ele>
        <time>2014-06-01T13:27:14Z</time>
      </trkpt>
      <trkpt lat="59.8525494" lon="17.6438883">
        <ele>10.7118</ele>
        <time>2014-06-01T13:27:15Z</time>
      </trkpt>
      <trkpt lat="59.852596" lon="17.6438258">
        <ele>10.7118</ele>
        <time>2014-06-01T13:27:16Z</time>
      </trkpt>
      <trkpt lat="59.8526447" lon="17.6437621">
        <ele>10.7118</ele>
        <time>2014-06-01T13:27:17Z</time>
      </trkpt>
      <trkpt lat="59.8526942" lon="17.6436965">
        <ele>10.7118</ele>
        <time>2014-06-01T13:27:18Z</time>
      </trkpt>
      <trkpt lat="59.8527442" lon="17.6436285">
        <ele>10.7118</ele>
        <time>2014-06-01T13:27:19Z</time>
      </trkpt>
      <trkpt lat="59.8527937" lon="17.6435576">
        <ele>11.1925</ele>
        <time>2014-06-01T13:27:20Z</time>
      </trkpt>
      <trkpt lat="59.8528437" lon="17.6434817">
        <ele>11.1925</ele>
        <time>2014-06-01T13:27:21Z</time>
      </trkpt>
      <trkpt lat="59.852895" lon="17.6434076">
        <ele>11.6732</ele>
        <time>2014-06-01T13:27:22Z</time>
      </trkpt>
      <trkpt lat="59.852945" lon="17.6433366">
        <ele>11.6732</ele>
        <time>2014-06-01T13:27:23Z</time>
      </trkpt>
      <trkpt lat="59.8529971" lon="17.6432625">
        <ele>12.1538</ele>
        <time>2014-06-01T13:27:24Z</time>
      </trkpt>
      <trkpt lat="59.8530462" lon="17.6431889">
        <ele>11.6732</ele>
        <time>2014-06-01T13:27:25Z</time>
      </trkpt>
      <trkpt lat="59.8530921" lon="17.643119">
        <ele>11.6732</ele>
        <time>2014-06-01T13:27:26Z</time>
      </trkpt>
      <trkpt lat="59.8531351" lon="17.6430468">
        <ele>11.6732</ele>
        <time>2014-06-01T13:27:27Z</time>
      </trkpt>
      <trkpt lat="59.8531789" lon="17.6429683">
        <ele>11.6732</ele>
        <time>2014-06-01T13:27:28Z</time>
      </trkpt>
      <trkpt lat="59.8532219" lon="17.6428889">
        <ele>11.1925</ele>
        <time>2014-06-01T13:27:29Z</time>
      </trkpt>
      <trkpt lat="59.8532616" lon="17.6428096">
        <ele>11.1925</ele>
        <time>2014-06-01T13:27:30Z</time>
      </trkpt>
      <trkpt lat="59.8532977" lon="17.6427293">
        <ele>11.1925</ele>
        <time>2014-06-01T13:27:31Z</time>
      </trkpt>
      <trkpt lat="59.8533319" lon="17.6426564">
        <ele>11.1925</ele>
        <time>2014-06-01T13:27:32Z</time>
      </trkpt>
      <trkpt lat="59.8533664" lon="17.6425824">
        <ele>11.1925</ele>
        <time>2014-06-01T13:27:33Z</time>
      </trkpt>
      <trkpt lat="59.8533985" lon="17.6425093">
        <ele>11.1925</ele>
        <time>2014-06-01T13:27:34Z</time>
      </trkpt>
      <trkpt lat="59.8534291" lon="17.6424427">
        <ele>11.6732</ele>
        <time>2014-06-01T13:27:35Z</time>
      </trkpt>
      <trkpt lat="59.8534622" lon="17.6423778">
        <ele>11.6732</ele>
        <time>2014-06-01T13:27:36Z</time>
      </trkpt>
      <trkpt lat="59.8535006" lon="17.6423176">
        <ele>11.6732</ele>
        <time>2014-06-01T13:27:37Z</time>
      </trkpt>
      <trkpt lat="59.8535396" lon="17.6422623">
        <ele>11.1925</ele>
        <time>2014-06-01T13:27:38Z</time>
      </trkpt>
      <trkpt lat="59.8535785" lon="17.6422024">
        <ele>11.1925</ele>
        <time>2014-06-01T13:27:39Z</time>
      </trkpt>
      <trkpt lat="59.8536155" lon="17.6421332">
        <ele>11.1925</ele>
        <time>2014-06-01T13:27:40Z</time>
      </trkpt>
      <trkpt lat="59.8536539" lon="17.6420632">
        <ele>11.1925</ele>
        <time>2014-06-01T13:27:41Z</time>
      </trkpt>
      <trkpt lat="59.8536952" lon="17.6419973">
        <ele>11.1925</ele>
        <time>2014-06-01T13:27:42Z</time>
      </trkpt>
      <trkpt lat="59.8537394" lon="17.6419395">
        <ele>11.1925</ele>
        <time>2014-06-01T13:27:43Z</time>
      </trkpt>
      <trkpt lat="59.8537875" lon="17.6418957">
        <ele>10.7118</ele>
        <time>2014-06-01T13:27:44Z</time>
      </trkpt>
      <trkpt lat="59.8538385" lon="17.6418651">
        <ele>10.7118</ele>
        <time>2014-06-01T13:27:45Z</time>
      </trkpt>
      <trkpt lat="59.8538891" lon="17.6418425">
        <ele>10.7118</ele>
        <time>2014-06-01T13:27:46Z</time>
      </trkpt>
      <trkpt lat="59.8539406" lon="17.6418224">
        <ele>10.2312</ele>
        <time>2014-06-01T13:27:47Z</time>
      </trkpt>
      <trkpt lat="59.8539913" lon="17.6417992">
        <ele>10.2312</ele>
        <time>2014-06-01T13:27:48Z</time>
      </trkpt>
      <trkpt lat="59.8540402" lon="17.6417684">
        <ele>9.75061</ele>
        <time>2014-06-01T13:27:49Z</time>
      </trkpt>
      <trkpt lat="59.8540884" lon="17.6417318">
        <ele>9.75061</ele>
        <time>2014-06-01T13:27:50Z</time>
      </trkpt>
      <trkpt lat="59.8541346" lon="17.6416934">
        <ele>9.75061</ele>
        <time>2014-06-01T13:27:51Z</time>
      </trkpt>
      <trkpt lat="59.8541766" lon="17.6416538">
        <ele>9.2699</ele>
        <time>2014-06-01T13:27:52Z</time>
      </trkpt>
      <trkpt lat="59.8542175" lon="17.6416105">
        <ele>9.2699</ele>
        <time>2014-06-01T13:27:53Z</time>
      </trkpt>
      <trkpt lat="59.8542614" lon="17.6415701">
        <ele>9.2699</ele>
        <time>2014-06-01T13:27:54Z</time>
      </trkpt>
      <trkpt lat="59.8543081" lon="17.641538">
        <ele>8.78918</ele>
        <time>2014-06-01T13:27:55Z</time>
      </trkpt>
      <trkpt lat="59.8543537" lon="17.6415072">
        <ele>8.78918</ele>
        <time>2014-06-01T13:27:56Z</time>
      </trkpt>
      <trkpt lat="59.8543933" lon="17.6414775">
        <ele>9.2699</ele>
        <time>2014-06-01T13:27:57Z</time>
      </trkpt>
      <trkpt lat="59.8544301" lon="17.6414397">
        <ele>9.2699</ele>
        <time>2014-06-01T13:27:58Z</time>
      </trkpt>
      <trkpt lat="59.8544692" lon="17.6413966">
        <ele>9.2699</ele>
        <time>2014-06-01T13:27:59Z</time>
      </trkpt>
      <trkpt lat="59.8545106" lon="17.6413537">
        <ele>9.2699</ele>
        <time>2014-06-01T13:28:00Z</time>
      </trkpt>
      <trkpt lat="59.8545526" lon="17.6413131">
        <ele>9.2699</ele>
        <time>2014-06-01T13:28:01Z</time>
      </trkpt>
      <trkpt lat="59.8545948" lon="17.641271">
        <ele>9.75061</ele>
        <time>2014-06-01T13:28:02Z</time>
      </trkpt>
      <trkpt lat="59.854636" lon="17.6412278">
        <ele>9.75061</ele>
        <time>2014-06-01T13:28:03Z</time>
      </trkpt>
      <trkpt lat="59.8546738" lon="17.6411814">
        <ele>9.75061</ele>
        <time>2014-06-01T13:28:04Z</time>
      </trkpt>
      <trkpt lat="59.854711" lon="17.6411392">
        <ele>10.2312</ele>
        <time>2014-06-01T13:28:05Z</time>
      </trkpt>
      <trkpt lat="59.8547476" lon="17.6411163">
        <ele>10.2312</ele>
        <time>2014-06-01T13:28:06Z</time>
      </trkpt>
      <trkpt lat="59.8547803" lon="17.6411179">
        <ele>10.2312</ele>
        <time>2014-06-01T13:28:07Z</time>
      </trkpt>
      <trkpt lat="59.8548113" lon="17.6411297">
        <ele>10.2312</ele>
        <time>2014-06-01T13:28:08Z</time>
      </trkpt>
      <trkpt lat="59.8548463" lon="17.6411332">
        <ele>10.7118</ele>
        <time>2014-06-01T13:28:09Z</time>
      </trkpt>
      <trkpt lat="59.8548863" lon="17.6411312">
        <ele>10.7118</ele>
        <time>2014-06-01T13:28:10Z</time>
      </trkpt>
      <trkpt lat="59.8549308" lon="17.6411282">
        <ele>10.7118</ele>
        <time>2014-06-01T13:28:11Z</time>
      </trkpt>
      <trkpt lat="59.8549789" lon="17.6411174">
        <ele>10.7118</ele>
        <time>2014-06-01T13:28:12Z</time>
      </trkpt>
      <trkpt lat="59.8550295" lon="17.6410904">
        <ele>10.7118</ele>
        <time>2014-06-01T13:28:13Z</time>
      </trkpt>
      <trkpt lat="59.8550809" lon="17.6410467">
        <ele>10.7118</ele>
        <time>2014-06-01T13:28:14Z</time>
      </trkpt>
      <trkpt lat="59.8551326" lon="17.6409925">
        <ele>10.7118</ele>
        <time>2014-06-01T13:28:15Z</time>
      </trkpt>
      <trkpt lat="59.8551845" lon="17.6409315">
        <ele>10.7118</ele>
        <time>2014-06-01T13:28:16Z</time>
      </trkpt>
      <trkpt lat="59.8552358" lon="17.640867">
        <ele>10.7118</ele>
        <time>2014-06-01T13:28:17Z</time>
      </trkpt>
      <trkpt lat="59.8552876" lon="17.6408039">
        <ele>10.7118</ele>
        <time>2014-06-01T13:28:18Z</time>
      </trkpt>
      <trkpt lat="59.8553404" lon="17.6407437">
        <ele>10.7118</ele>
        <time>2014-06-01T13:28:19Z</time>
      </trkpt>
      <trkpt lat="59.8553937" lon="17.6406839">
        <ele>10.7118</ele>
        <time>2014-06-01T13:28:20Z</time>
      </trkpt>
      <trkpt lat="59.8554478" lon="17.6406224">
        <ele>10.7118</ele>
        <time>2014-06-01T13:28:21Z</time>
      </trkpt>
      <trkpt lat="59.8555025" lon="17.6405587">
        <ele>10.7118</ele>
        <time>2014-06-01T13:28:22Z</time>
      </trkpt>
      <trkpt lat="59.8555565" lon="17.6404941">
        <ele>11.1925</ele>
        <time>2014-06-01T13:28:23Z</time>
      </trkpt>
      <trkpt lat="59.8556114" lon="17.6404292">
        <ele>11.1925</ele>
        <time>2014-06-01T13:28:24Z</time>
      </trkpt>
      <trkpt lat="59.8556688" lon="17.6403627">
        <ele>10.7118</ele>
        <time>2014-06-01T13:28:25Z</time>
      </trkpt>
      <trkpt lat="59.8557227" lon="17.6402958">
        <ele>10.7118</ele>
        <time>2014-06-01T13:28:26Z</time>
      </trkpt>
      <trkpt lat="59.8557754" lon="17.6402334">
        <ele>11.1925</ele>
        <time>2014-06-01T13:28:27Z</time>
      </trkpt>
      <trkpt lat="59.8558283" lon="17.6401764">
        <ele>11.6732</ele>
        <time>2014-06-01T13:28:28Z</time>
      </trkpt>
      <trkpt lat="59.8558792" lon="17.6401202">
        <ele>12.1538</ele>
        <time>2014-06-01T13:28:29Z</time>
      </trkpt>
      <trkpt lat="59.8559292" lon="17.6400649">
        <ele>12.1538</ele>
        <time>2014-06-01T13:28:30Z</time>
      </trkpt>
      <trkpt lat="59.8559771" lon="17.6400109">
        <ele>12.1538</ele>
        <time>2014-06-01T13:28:31Z</time>
      </trkpt>
      <trkpt lat="59.8560253" lon="17.6399554">
        <ele>12.1538</ele>
        <time>2014-06-01T13:28:32Z</time>
      </trkpt>
      <trkpt lat="59.8560786" lon="17.639902">
        <ele>13.1151</ele>
        <time>2014-06-01T13:28:33Z</time>
      </trkpt>
      <trkpt lat="59.8561295" lon="17.6398421">
        <ele>13.1151</ele>
        <time>2014-06-01T13:28:34Z</time>
      </trkpt>
      <trkpt lat="59.8561827" lon="17.6397824">
        <ele>13.1151</ele>
        <time>2014-06-01T13:28:35Z</time>
      </trkpt>
      <trkpt lat="59.8562376" lon="17.6397221">
        <ele>13.5958</ele>
        <time>2014-06-01T13:28:36Z</time>
      </trkpt>
      <trkpt lat="59.8562914" lon="17.6396602">
        <ele>13.5958</ele>
        <time>2014-06-01T13:28:37Z</time>
      </trkpt>
      <trkpt lat="59.8563449" lon="17.639597">
        <ele>14.0764</ele>
        <time>2014-06-01T13:28:38Z</time>
      </trkpt>
      <trkpt lat="59.8564016" lon="17.6395351">
        <ele>15.0377</ele>
        <time>2014-06-01T13:28:39Z</time>
      </trkpt>
      <trkpt lat="59.8564565" lon="17.6394721">
        <ele>15.0377</ele>
        <time>2014-06-01T13:28:40Z</time>
      </trkpt>
      <trkpt lat="59.8565105" lon="17.6394085">
        <ele>15.0377</ele>
        <time>2014-06-01T13:28:41Z</time>
      </trkpt>
      <trkpt lat="59.8565594" lon="17.6393452">
        <ele>15.0377</ele>
        <time>2014-06-01T13:28:42Z</time>
      </trkpt>
      <trkpt lat="59.8566167" lon="17.6392919">
        <ele>16.9604</ele>
        <time>2014-06-01T13:28:43Z</time>
      </trkpt>
      <trkpt lat="59.8566707" lon="17.6392326">
        <ele>17.9218</ele>
        <time>2014-06-01T13:28:44Z</time>
      </trkpt>
      <trkpt lat="59.8567245" lon="17.6391706">
        <ele>18.4023</ele>
        <time>2014-06-01T13:28:45Z</time>
      </trkpt>
      <trkpt lat="59.8567751" lon="17.6391101">
        <ele>18.4023</ele>
        <time>2014-06-01T13:28:46Z</time>
      </trkpt>
      <trkpt lat="59.856824" lon="17.6390514">
        <ele>18.4023</ele>
        <time>2014-06-01T13:28:47Z</time>
      </trkpt>
      <trkpt lat="59.8568715" lon="17.6389644">
        <ele>19.3638</ele>
        <time>2014-06-01T13:28:48Z</time>
      </trkpt>
      <trkpt lat="59.8569267" lon="17.6388868">
        <ele>20.325</ele>
        <time>2014-06-01T13:28:49Z</time>
      </trkpt>
      <trkpt lat="59.8569951" lon="17.6388064">
        <ele>21.2864</ele>
        <time>2014-06-01T13:28:50Z</time>
      </trkpt>
      <trkpt lat="59.8570518" lon="17.6387195">
        <ele>21.767</ele>
        <time>2014-06-01T13:28:51Z</time>
      </trkpt>
      <trkpt lat="59.8570973" lon="17.6386287">
        <ele>22.7283</ele>
        <time>2014-06-01T13:28:52Z</time>
      </trkpt>
      <trkpt lat="59.8571412" lon="17.6385491">
        <ele>23.6896</ele>
        <time>2014-06-01T13:28:53Z</time>
      </trkpt>
      <trkpt lat="59.8571908" lon="17.6384686">
        <ele>23.6896</ele>
        <time>2014-06-01T13:28:54Z</time>
      </trkpt>
      <trkpt lat="59.8572421" lon="17.63838">
        <ele>24.1703</ele>
        <time>2014-06-01T13:28:55Z</time>
      </trkpt>
      <trkpt lat="59.8573296" lon="17.638291">
        <ele>27.0543</ele>
        <time>2014-06-01T13:28:56Z</time>
      </trkpt>
      <trkpt lat="59.8573865" lon="17.6382054">
        <ele>28.0155</ele>
        <time>2014-06-01T13:28:57Z</time>
      </trkpt>
      <trkpt lat="59.8574413" lon="17.6381124">
        <ele>28.9769</ele>
        <time>2014-06-01T13:28:58Z</time>
      </trkpt>
      <trkpt lat="59.8574948" lon="17.6380273">
        <ele>29.4575</ele>
        <time>2014-06-01T13:28:59Z</time>
      </trkpt>
      <trkpt lat="59.857577" lon="17.6379449">
        <ele>31.8607</ele>
        <time>2014-06-01T13:29:00Z</time>
      </trkpt>
      <trkpt lat="59.8576393" lon="17.6378636">
        <ele>33.7834</ele>
        <time>2014-06-01T13:29:01Z</time>
      </trkpt>
      <trkpt lat="59.8577072" lon="17.6377837">
        <ele>35.7061</ele>
        <time>2014-06-01T13:29:02Z</time>
      </trkpt>
      <trkpt lat="59.8577933" lon="17.6377068">
        <ele>39.0707</ele>
        <time>2014-06-01T13:29:03Z</time>
      </trkpt>
      <trkpt lat="59.8578586" lon="17.6376444">
        <ele>41.474</ele>
        <time>2014-06-01T13:29:04Z</time>
      </trkpt>
      <trkpt lat="59.8579104" lon="17.6375793">
        <ele>42.4354</ele>
        <time>2014-06-01T13:29:05Z</time>
      </trkpt>
      <trkpt lat="59.857958" lon="17.6375056">
        <ele>43.3966</ele>
        <time>2014-06-01T13:29:06Z</time>
      </trkpt>
      <trkpt lat="59.8580222" lon="17.6374439">
        <ele>46.7612</ele>
        <time>2014-06-01T13:29:07Z</time>
      </trkpt>
      <trkpt lat="59.8580336" lon="17.6373623">
        <ele>45.7999</ele>
        <time>2014-06-01T13:29:08Z</time>
      </trkpt>
      <trkpt lat="59.858056" lon="17.637287">
        <ele>45.7999</ele>
        <time>2014-06-01T13:29:09Z</time>
      </trkpt>
      <trkpt lat="59.8580601" lon="17.6371959">
        <ele>44.8386</ele>
        <time>2014-06-01T13:29:10Z</time>
      </trkpt>
      <trkpt lat="59.8580833" lon="17.6371085">
        <ele>44.358</ele>
        <time>2014-06-01T13:29:11Z</time>
      </trkpt>
      <trkpt lat="59.8581161" lon="17.6370254">
        <ele>44.8386</ele>
        <time>2014-06-01T13:29:12Z</time>
      </trkpt>
      <trkpt lat="59.8581521" lon="17.6369401">
        <ele>45.3192</ele>
        <time>2014-06-01T13:29:13Z</time>
      </trkpt>
      <trkpt lat="59.8581713" lon="17.6368495">
        <ele>44.8386</ele>
        <time>2014-06-01T13:29:14Z</time>
      </trkpt>
      <trkpt lat="59.8581829" lon="17.6367589">
        <ele>43.8773</ele>
        <time>2014-06-01T13:29:15Z</time>
      </trkpt>
      <trkpt lat="59.8581981" lon="17.6366677">
        <ele>43.3966</ele>
        <time>2014-06-01T13:29:16Z</time>
      </trkpt>
      <trkpt lat="59.8582247" lon="17.6365841">
        <ele>43.8773</ele>
        <time>2014-06-01T13:29:17Z</time>
      </trkpt>
      <trkpt lat="59.8582497" lon="17.6364989">
        <ele>43.8773</ele>
        <time>2014-06-01T13:29:18Z</time>
      </trkpt>
      <trkpt lat="59.8582724" lon="17.6364153">
        <ele>42.916</ele>
        <time>2014-06-01T13:29:19Z</time>
      </trkpt>
      <trkpt lat="59.8582952" lon="17.6363273">
        <ele>41.9547</ele>
        <time>2014-06-01T13:29:20Z</time>
      </trkpt>
      <trkpt lat="59.8583098" lon="17.6362357">
        <ele>40.9934</ele>
        <time>2014-06-01T13:29:21Z</time>
      </trkpt>
      <trkpt lat="59.8583323" lon="17.6361513">
        <ele>40.0321</ele>
        <time>2014-06-01T13:29:22Z</time>
      </trkpt>
      <trkpt lat="59.8583604" lon="17.6360697">
        <ele>40.0321</ele>
        <time>2014-06-01T13:29:23Z</time>
      </trkpt>
      <trkpt lat="59.8583849" lon="17.6359897">
        <ele>40.0321</ele>
        <time>2014-06-01T13:29:24Z</time>
      </trkpt>
      <trkpt lat="59.8584117" lon="17.6359196">
        <ele>40.0321</ele>
        <time>2014-06-01T13:29:25Z</time>
      </trkpt>
      <trkpt lat="59.8584431" lon="17.6358605">
        <ele>40.0321</ele>
        <time>2014-06-01T13:29:26Z</time>
      </trkpt>
      <trkpt lat="59.8584861" lon="17.6358298">
        <ele>40.5128</ele>
        <time>2014-06-01T13:29:27Z</time>
      </trkpt>
      <trkpt lat="59.8585193" lon="17.6358133">
        <ele>39.0707</ele>
        <time>2014-06-01T13:29:28Z</time>
      </trkpt>
      <trkpt lat="59.8585529" lon="17.6358166">
        <ele>37.6287</ele>
        <time>2014-06-01T13:29:29Z</time>
      </trkpt>
      <trkpt lat="59.8585866" lon="17.6358394">
        <ele>36.1868</ele>
        <time>2014-06-01T13:29:30Z</time>
      </trkpt>
      <trkpt lat="59.858618" lon="17.6358798">
        <ele>35.2255</ele>
        <time>2014-06-01T13:29:31Z</time>
      </trkpt>
      <trkpt lat="59.8586453" lon="17.6359295">
        <ele>34.2642</ele>
        <time>2014-06-01T13:29:32Z</time>
      </trkpt>
      <trkpt lat="59.8586657" lon="17.6359858">
        <ele>32.8223</ele>
        <time>2014-06-01T13:29:33Z</time>
      </trkpt>
      <trkpt lat="59.8586864" lon="17.6360387">
        <ele>32.3416</ele>
        <time>2014-06-01T13:29:34Z</time>
      </trkpt>
      <trkpt lat="59.8586997" lon="17.6360771">
        <ele>31.3801</ele>
        <time>2014-06-01T13:29:35Z</time>
      </trkpt>
      <trkpt lat="59.8587246" lon="17.636113">
        <ele>31.3801</ele>
        <time>2014-06-01T13:29:36Z</time>
      </trkpt>
      <trkpt lat="59.8587407" lon="17.636143">
        <ele>29.9381</ele>
        <time>2014-06-01T13:29:37Z</time>
      </trkpt>
      <trkpt lat="59.8587627" lon="17.6361692">
        <ele>28.4962</ele>
        <time>2014-06-01T13:29:38Z</time>
      </trkpt>
      <trkpt lat="59.8587919" lon="17.6361786">
        <ele>27.5349</ele>
        <time>2014-06-01T13:29:39Z</time>
      </trkpt>
      <trkpt lat="59.8588239" lon="17.6361656">
        <ele>26.5736</ele>
        <time>2014-06-01T13:29:40Z</time>
      </trkpt>
      <trkpt lat="59.8588557" lon="17.6361263">
        <ele>25.6123</ele>
        <time>2014-06-01T13:29:41Z</time>
      </trkpt>
      <trkpt lat="59.8588862" lon="17.6360699">
        <ele>24.651</ele>
        <time>2014-06-01T13:29:42Z</time>
      </trkpt>
      <trkpt lat="59.8589179" lon="17.6360021">
        <ele>23.6896</ele>
        <time>2014-06-01T13:29:43Z</time>
      </trkpt>
      <trkpt lat="59.8589587" lon="17.6359294">
        <ele>24.1703</ele>
        <time>2014-06-01T13:29:44Z</time>
      </trkpt>
      <trkpt lat="59.8590011" lon="17.6358558">
        <ele>24.1703</ele>
        <time>2014-06-01T13:29:45Z</time>
      </trkpt>
      <trkpt lat="59.8590386" lon="17.6357051">
        <ele>24.1703</ele>
        <time>2014-06-01T13:29:46Z</time>
      </trkpt>
      <trkpt lat="59.8590743" lon="17.6356254">
        <ele>23.6896</ele>
        <time>2014-06-01T13:29:47Z</time>
      </trkpt>
      <trkpt lat="59.8591182" lon="17.6355564">
        <ele>23.209</ele>
        <time>2014-06-01T13:29:48Z</time>
      </trkpt>
      <trkpt lat="59.8591535" lon="17.6354822">
        <ele>22.7283</ele>
        <time>2014-06-01T13:29:49Z</time>
      </trkpt>
      <trkpt lat="59.8591901" lon="17.6353985">
        <ele>21.767</ele>
        <time>2014-06-01T13:29:50Z</time>
      </trkpt>
      <trkpt lat="59.8592291" lon="17.6353198">
        <ele>21.2864</ele>
        <time>2014-06-01T13:29:51Z</time>
      </trkpt>
      <trkpt lat="59.8592706" lon="17.635244">
        <ele>21.2864</ele>
        <time>2014-06-01T13:29:52Z</time>
      </trkpt>
      <trkpt lat="59.8593115" lon="17.6351664">
        <ele>20.8057</ele>
        <time>2014-06-01T13:29:53Z</time>
      </trkpt>
      <trkpt lat="59.8593509" lon="17.6350856">
        <ele>20.325</ele>
        <time>2014-06-01T13:29:54Z</time>
      </trkpt>
      <trkpt lat="59.8593912" lon="17.6350085">
        <ele>20.325</ele>
        <time>2014-06-01T13:29:55Z</time>
      </trkpt>
      <trkpt lat="59.8594312" lon="17.6349313">
        <ele>19.8444</ele>
        <time>2014-06-01T13:29:56Z</time>
      </trkpt>
      <trkpt lat="59.8594705" lon="17.6348442">
        <ele>19.8444</ele>
        <time>2014-06-01T13:29:57Z</time>
      </trkpt>
      <trkpt lat="59.859513" lon="17.634766">
        <ele>19.8444</ele>
        <time>2014-06-01T13:29:58Z</time>
      </trkpt>
      <trkpt lat="59.859557" lon="17.6346892">
        <ele>19.3638</ele>
        <time>2014-06-01T13:29:59Z</time>
      </trkpt>
      <trkpt lat="59.8595958" lon="17.6345827">
        <ele>19.8444</ele>
        <time>2014-06-01T13:30:00Z</time>
      </trkpt>
      <trkpt lat="59.8596367" lon="17.6345135">
        <ele>19.8444</ele>
        <time>2014-06-01T13:30:01Z</time>
      </trkpt>
      <trkpt lat="59.8596839" lon="17.6344494">
        <ele>19.8444</ele>
        <time>2014-06-01T13:30:02Z</time>
      </trkpt>
      <trkpt lat="59.859728" lon="17.6343754">
        <ele>19.8444</ele>
        <time>2014-06-01T13:30:03Z</time>
      </trkpt>
      <trkpt lat="59.8597762" lon="17.63431">
        <ele>19.3638</ele>
        <time>2014-06-01T13:30:04Z</time>
      </trkpt>
      <trkpt lat="59.8598258" lon="17.634253">
        <ele>19.3638</ele>
        <time>2014-06-01T13:30:05Z</time>
      </trkpt>
      <trkpt lat="59.8598721" lon="17.6341996">
        <ele>19.3638</ele>
        <time>2014-06-01T13:30:06Z</time>
      </trkpt>
      <trkpt lat="59.8599177" lon="17.6341532">
        <ele>19.3638</ele>
        <time>2014-06-01T13:30:07Z</time>
      </trkpt>
      <trkpt lat="59.8599601" lon="17.6341054">
        <ele>18.8831</ele>
        <time>2014-06-01T13:30:08Z</time>
      </trkpt>
      <trkpt lat="59.8600019" lon="17.6340531">
        <ele>18.8831</ele>
        <time>2014-06-01T13:30:09Z</time>
      </trkpt>
      <trkpt lat="59.8600435" lon="17.6340046">
        <ele>18.4023</ele>
        <time>2014-06-01T13:30:10Z</time>
      </trkpt>
      <trkpt lat="59.8600844" lon="17.6339523">
        <ele>17.9218</ele>
        <time>2014-06-01T13:30:11Z</time>
      </trkpt>
      <trkpt lat="59.8601209" lon="17.6339107">
        <ele>17.9218</ele>
        <time>2014-06-01T13:30:12Z</time>
      </trkpt>
      <trkpt lat="59.8601532" lon="17.6338973">
        <ele>17.4412</ele>
        <time>2014-06-01T13:30:13Z</time>
      </trkpt>
      <trkpt lat="59.8601914" lon="17.6338884">
        <ele>17.4412</ele>
        <time>2014-06-01T13:30:14Z</time>
      </trkpt>
      <trkpt lat="59.8602332" lon="17.6338824">
        <ele>16.9604</ele>
        <time>2014-06-01T13:30:15Z</time>
      </trkpt>
      <trkpt lat="59.8602817" lon="17.6338683">
        <ele>16.4797</ele>
        <time>2014-06-01T13:30:16Z</time>
      </trkpt>
      <trkpt lat="59.8603336" lon="17.6338424">
        <ele>16.4797</ele>
        <time>2014-06-01T13:30:17Z</time>
      </trkpt>
      <trkpt lat="59.8603812" lon="17.633814">
        <ele>17.4412</ele>
        <time>2014-06-01T13:30:18Z</time>
      </trkpt>
      <trkpt lat="59.8604331" lon="17.6337703">
        <ele>17.4412</ele>
        <time>2014-06-01T13:30:19Z</time>
      </trkpt>
      <trkpt lat="59.8604879" lon="17.6337093">
        <ele>17.4412</ele>
        <time>2014-06-01T13:30:20Z</time>
      </trkpt>
      <trkpt lat="59.8605433" lon="17.6336536">
        <ele>17.4412</ele>
        <time>2014-06-01T13:30:21Z</time>
      </trkpt>
      <trkpt lat="59.8605946" lon="17.6335913">
        <ele>17.4412</ele>
        <time>2014-06-01T13:30:22Z</time>
      </trkpt>
      <trkpt lat="59.8606423" lon="17.6335482">
        <ele>17.9218</ele>
        <time>2014-06-01T13:30:23Z</time>
      </trkpt>
      <trkpt lat="59.8606851" lon="17.6335184">
        <ele>18.4023</ele>
        <time>2014-06-01T13:30:24Z</time>
      </trkpt>
      <trkpt lat="59.8607261" lon="17.6334854">
        <ele>19.3638</ele>
        <time>2014-06-01T13:30:25Z</time>
      </trkpt>
      <trkpt lat="59.8607613" lon="17.6334428">
        <ele>19.8444</ele>
        <time>2014-06-01T13:30:26Z</time>
      </trkpt>
      <trkpt lat="59.8608003" lon="17.6333934">
        <ele>21.2864</ele>
        <time>2014-06-01T13:30:27Z</time>
      </trkpt>
      <trkpt lat="59.8608484" lon="17.6333491">
        <ele>21.767</ele>
        <time>2014-06-01T13:30:28Z</time>
      </trkpt>
      <trkpt lat="59.8609123" lon="17.6332519">
        <ele>22.2476</ele>
        <time>2014-06-01T13:30:29Z</time>
      </trkpt>
      <trkpt lat="59.8609458" lon="17.6331699">
        <ele>23.209</ele>
        <time>2014-06-01T13:30:30Z</time>
      </trkpt>
      <trkpt lat="59.8610042" lon="17.6331543">
        <ele>23.6896</ele>
        <time>2014-06-01T13:30:31Z</time>
      </trkpt>
      <trkpt lat="59.8610597" lon="17.633145">
        <ele>22.7283</ele>
        <time>2014-06-01T13:30:32Z</time>
      </trkpt>
      <trkpt lat="59.8611447" lon="17.6331419">
        <ele>24.1703</ele>
        <time>2014-06-01T13:30:33Z</time>
      </trkpt>
      <trkpt lat="59.8611901" lon="17.6331109">
        <ele>22.2476</ele>
        <time>2014-06-01T13:30:34Z</time>
      </trkpt>
      <trkpt lat="59.8612249" lon="17.6330872">
        <ele>20.8057</ele>
        <time>2014-06-01T13:30:35Z</time>
      </trkpt>
      <trkpt lat="59.8612633" lon="17.6330727">
        <ele>20.325</ele>
        <time>2014-06-01T13:30:36Z</time>
      </trkpt>
      <trkpt lat="59.8612421" lon="17.6330351">
        <ele>18.4023</ele>
        <time>2014-06-01T13:30:37Z</time>
      </trkpt>
      <trkpt lat="59.8612151" lon="17.6329841">
        <ele>17.9218</ele>
        <time>2014-06-01T13:30:38Z</time>
      </trkpt>
      <trkpt lat="59.8611865" lon="17.6329203">
        <ele>17.4412</ele>
        <time>2014-06-01T13:30:39Z</time>
      </trkpt>
      <trkpt lat="59.8611562" lon="17.6328421">
        <ele>16.4797</ele>
        <time>2014-06-01T13:30:40Z</time>
      </trkpt>
      <trkpt lat="59.8611245" lon="17.6327718">
        <ele>15.999</ele>
        <time>2014-06-01T13:30:41Z</time>
      </trkpt>
      <trkpt lat="59.8610898" lon="17.6327002">
        <ele>15.5184</ele>
        <time>2014-06-01T13:30:42Z</time>
      </trkpt>
      <trkpt lat="59.8610581" lon="17.6326381">
        <ele>15.0377</ele>
        <time>2014-06-01T13:30:43Z</time>
      </trkpt>
      <trkpt lat="59.8610378" lon="17.6325767">
        <ele>15.0377</ele>
        <time>2014-06-01T13:30:44Z</time>
      </trkpt>
      <trkpt lat="59.8610397" lon="17.6325167">
        <ele>14.557</ele>
        <time>2014-06-01T13:30:45Z</time>
      </trkpt>
      <trkpt lat="59.8610576" lon="17.632468">
        <ele>14.0764</ele>
        <time>2014-06-01T13:30:46Z</time>
      </trkpt>
      <trkpt lat="59.8610808" lon="17.6324265">
        <ele>14.0764</ele>
        <time>2014-06-01T13:30:47Z</time>
      </trkpt>
      <trkpt lat="59.8611053" lon="17.6323847">
        <ele>13.5958</ele>
        <time>2014-06-01T13:30:48Z</time>
      </trkpt>
      <trkpt lat="59.8611308" lon="17.6323538">
        <ele>13.5958</ele>
        <time>2014-06-01T13:30:49Z</time>
      </trkpt>
      <trkpt lat="59.8611616" lon="17.6323178">
        <ele>13.5958</ele>
        <time>2014-06-01T13:30:50Z</time>
      </trkpt>
      <trkpt lat="59.8611963" lon="17.6322815">
        <ele>13.5958</ele>
        <time>2014-06-01T13:30:51Z</time>
      </trkpt>
      <trkpt lat="59.8612349" lon="17.6322551">
        <ele>13.1151</ele>
        <time>2014-06-01T13:30:52Z</time>
      </trkpt>
      <trkpt lat="59.8612784" lon="17.632241">
        <ele>13.1151</ele>
        <time>2014-06-01T13:30:53Z</time>
      </trkpt>
      <trkpt lat="59.8613227" lon="17.6322222">
        <ele>13.1151</ele>
        <time>2014-06-01T13:30:54Z</time>
      </trkpt>
      <trkpt lat="59.8613665" lon="17.6321856">
        <ele>13.1151</ele>
        <time>2014-06-01T13:30:55Z</time>
      </trkpt>
      <trkpt lat="59.8614115" lon="17.6321455">
        <ele>13.1151</ele>
        <time>2014-06-01T13:30:56Z</time>
      </trkpt>
      <trkpt lat="59.8614579" lon="17.6321165">
        <ele>13.1151</ele>
        <time>2014-06-01T13:30:57Z</time>
      </trkpt>
      <trkpt lat="59.8615049" lon="17.632095">
        <ele>13.1151</ele>
        <time>2014-06-01T13:30:58Z</time>
      </trkpt>
      <trkpt lat="59.8615522" lon="17.6320755">
        <ele>12.6344</ele>
        <time>2014-06-01T13:30:59Z</time>
      </trkpt>
      <trkpt lat="59.8616005" lon="17.632053">
        <ele>13.1151</ele>
        <time>2014-06-01T13:31:00Z</time>
      </trkpt>
      <trkpt lat="59.8616501" lon="17.6320303">
        <ele>13.1151</ele>
        <time>2014-06-01T13:31:01Z</time>
      </trkpt>
      <trkpt lat="59.8616988" lon="17.6320082">
        <ele>13.1151</ele>
        <time>2014-06-01T13:31:02Z</time>
      </trkpt>
      <trkpt lat="59.8617487" lon="17.6319852">
        <ele>13.1151</ele>
        <time>2014-06-01T13:31:03Z</time>
      </trkpt>
      <trkpt lat="59.8617998" lon="17.6319606">
        <ele>13.1151</ele>
        <time>2014-06-01T13:31:04Z</time>
      </trkpt>
      <trkpt lat="59.8618496" lon="17.6319367">
        <ele>13.5958</ele>
        <time>2014-06-01T13:31:05Z</time>
      </trkpt>
      <trkpt lat="59.8618973" lon="17.6319171">
        <ele>13.5958</ele>
        <time>2014-06-01T13:31:06Z</time>
      </trkpt>
      <trkpt lat="59.8619425" lon="17.6318998">
        <ele>14.0764</ele>
        <time>2014-06-01T13:31:07Z</time>
      </trkpt>
      <trkpt lat="59.8619842" lon="17.6318854">
        <ele>14.0764</ele>
        <time>2014-06-01T13:31:08Z</time>
      </trkpt>
      <trkpt lat="59.8620198" lon="17.6318746">
        <ele>14.0764</ele>
        <time>2014-06-01T13:31:09Z</time>
      </trkpt>
      <trkpt lat="59.8620507" lon="17.6318657">
        <ele>14.0764</ele>
        <time>2014-06-01T13:31:10Z</time>
      </trkpt>
      <trkpt lat="59.8620812" lon="17.6318635">
        <ele>14.0764</ele>
        <time>2014-06-01T13:31:11Z</time>
      </trkpt>
      <trkpt lat="59.8621127" lon="17.6318834">
        <ele>14.0764</ele>
        <time>2014-06-01T13:31:12Z</time>
      </trkpt>
      <trkpt lat="59.8621443" lon="17.631923">
        <ele>14.0764</ele>
        <time>2014-06-01T13:31:13Z</time>
      </trkpt>
      <trkpt lat="59.8621759" lon="17.631968">
        <ele>14.0764</ele>
        <time>2014-06-01T13:31:14Z</time>
      </trkpt>
      <trkpt lat="59.8622062" lon="17.6320137">
        <ele>14.0764</ele>
        <time>2014-06-01T13:31:15Z</time>
      </trkpt>
      <trkpt lat="59.8622372" lon="17.6320475">
        <ele>14.0764</ele>
        <time>2014-06-01T13:31:16Z</time>
      </trkpt>
      <trkpt lat="59.8622731" lon="17.6320626">
        <ele>14.0764</ele>
        <time>2014-06-01T13:31:17Z</time>
      </trkpt>
      <trkpt lat="59.8623132" lon="17.6320636">
        <ele>14.557</ele>
        <time>2014-06-01T13:31:18Z</time>
      </trkpt>
      <trkpt lat="59.862356" lon="17.6320535">
        <ele>14.557</ele>
        <time>2014-06-01T13:31:19Z</time>
      </trkpt>
      <trkpt lat="59.8624026" lon="17.6320381">
        <ele>14.557</ele>
        <time>2014-06-01T13:31:20Z</time>
      </trkpt>
      <trkpt lat="59.8624523" lon="17.6320189">
        <ele>14.557</ele>
        <time>2014-06-01T13:31:21Z</time>
      </trkpt>
      <trkpt lat="59.862504" lon="17.6320004">
        <ele>14.557</ele>
        <time>2014-06-01T13:31:22Z</time>
      </trkpt>
      <trkpt lat="59.8625599" lon="17.6319765">
        <ele>14.557</ele>
        <time>2014-06-01T13:31:23Z</time>
      </trkpt>
      <trkpt lat="59.862616" lon="17.6319418">
        <ele>14.557</ele>
        <time>2014-06-01T13:31:24Z</time>
      </trkpt>
      <trkpt lat="59.8626719" lon="17.6319087">
        <ele>14.0764</ele>
        <time>2014-06-01T13:31:25Z</time>
      </trkpt>
      <trkpt lat="59.8627268" lon="17.6318785">
        <ele>14.0764</ele>
        <time>2014-06-01T13:31:26Z</time>
      </trkpt>
      <trkpt lat="59.8627802" lon="17.6318459">
        <ele>14.557</ele>
        <time>2014-06-01T13:31:27Z</time>
      </trkpt>
      <trkpt lat="59.8628335" lon="17.6318069">
        <ele>14.557</ele>
        <time>2014-06-01T13:31:28Z</time>
      </trkpt>
      <trkpt lat="59.8628876" lon="17.6317683">
        <ele>14.557</ele>
        <time>2014-06-01T13:31:29Z</time>
      </trkpt>
      <trkpt lat="59.8629468" lon="17.6317382">
        <ele>15.0377</ele>
        <time>2014-06-01T13:31:30Z</time>
      </trkpt>
      <trkpt lat="59.863007" lon="17.6317082">
        <ele>15.0377</ele>
        <time>2014-06-01T13:31:31Z</time>
      </trkpt>
      <trkpt lat="59.8630627" lon="17.6316694">
        <ele>15.0377</ele>
        <time>2014-06-01T13:31:32Z</time>
      </trkpt>
      <trkpt lat="59.8631179" lon="17.6316291">
        <ele>15.0377</ele>
        <time>2014-06-01T13:31:33Z</time>
      </trkpt>
      <trkpt lat="59.8631765" lon="17.6315823">
        <ele>15.5184</ele>
        <time>2014-06-01T13:31:34Z</time>
      </trkpt>
      <trkpt lat="59.8632344" lon="17.6315467">
        <ele>15.5184</ele>
        <time>2014-06-01T13:31:35Z</time>
      </trkpt>
      <trkpt lat="59.8632898" lon="17.6315109">
        <ele>15.5184</ele>
        <time>2014-06-01T13:31:36Z</time>
      </trkpt>
      <trkpt lat="59.8633446" lon="17.6314819">
        <ele>15.5184</ele>
        <time>2014-06-01T13:31:37Z</time>
      </trkpt>
      <trkpt lat="59.8633987" lon="17.6314446">
        <ele>15.999</ele>
        <time>2014-06-01T13:31:38Z</time>
      </trkpt>
      <trkpt lat="59.8634544" lon="17.6314127">
        <ele>15.999</ele>
        <time>2014-06-01T13:31:39Z</time>
      </trkpt>
      <trkpt lat="59.8635105" lon="17.6313834">
        <ele>15.999</ele>
        <time>2014-06-01T13:31:40Z</time>
      </trkpt>
      <trkpt lat="59.8635675" lon="17.6313481">
        <ele>15.999</ele>
        <time>2014-06-01T13:31:41Z</time>
      </trkpt>
      <trkpt lat="59.8636253" lon="17.6313141">
        <ele>15.999</ele>
        <time>2014-06-01T13:31:42Z</time>
      </trkpt>
      <trkpt lat="59.8636838" lon="17.6312819">
        <ele>15.999</ele>
        <time>2014-06-01T13:31:43Z</time>
      </trkpt>
      <trkpt lat="59.8637413" lon="17.6312506">
        <ele>15.999</ele>
        <time>2014-06-01T13:31:44Z</time>
      </trkpt>
      <trkpt lat="59.8637988" lon="17.6312156">
        <ele>15.999</ele>
        <time>2014-06-01T13:31:45Z</time>
      </trkpt>
      <trkpt lat="59.863856" lon="17.6311791">
        <ele>15.999</ele>
        <time>2014-06-01T13:31:46Z</time>
      </trkpt>
      <trkpt lat="59.8639144" lon="17.6311446">
        <ele>15.999</ele>
        <time>2014-06-01T13:31:47Z</time>
      </trkpt>
      <trkpt lat="59.8639726" lon="17.6311022">
        <ele>15.999</ele>
        <time>2014-06-01T13:31:48Z</time>
      </trkpt>
      <trkpt lat="59.8640316" lon="17.6310709">
        <ele>15.5184</ele>
        <time>2014-06-01T13:31:49Z</time>
      </trkpt>
      <trkpt lat="59.8640908" lon="17.6310369">
        <ele>15.5184</ele>
        <time>2014-06-01T13:31:50Z</time>
      </trkpt>
      <trkpt lat="59.8641492" lon="17.6309944">
        <ele>15.5184</ele>
        <time>2014-06-01T13:31:51Z</time>
      </trkpt>
      <trkpt lat="59.864207" lon="17.6309566">
        <ele>15.5184</ele>
        <time>2014-06-01T13:31:52Z</time>
      </trkpt>
      <trkpt lat="59.8642631" lon="17.6309064">
        <ele>15.5184</ele>
        <time>2014-06-01T13:31:53Z</time>
      </trkpt>
      <trkpt lat="59.8643146" lon="17.6308498">
        <ele>15.5184</ele>
        <time>2014-06-01T13:31:54Z</time>
      </trkpt>
      <trkpt lat="59.8643656" lon="17.630784">
        <ele>15.0377</ele>
        <time>2014-06-01T13:31:55Z</time>
      </trkpt>
      <trkpt lat="59.8644134" lon="17.63071">
        <ele>15.0377</ele>
        <time>2014-06-01T13:31:56Z</time>
      </trkpt>
      <trkpt lat="59.8644551" lon="17.6306121">
        <ele>15.0377</ele>
        <time>2014-06-01T13:31:57Z</time>
      </trkpt>
      <trkpt lat="59.8645108" lon="17.6305421">
        <ele>15.0377</ele>
        <time>2014-06-01T13:31:58Z</time>
      </trkpt>
      <trkpt lat="59.864563" lon="17.6304774">
        <ele>15.0377</ele>
        <time>2014-06-01T13:31:59Z</time>
      </trkpt>
      <trkpt lat="59.8646173" lon="17.6304111">
        <ele>14.557</ele>
        <time>2014-06-01T13:32:00Z</time>
      </trkpt>
      <trkpt lat="59.8646672" lon="17.6303373">
        <ele>14.557</ele>
        <time>2014-06-01T13:32:01Z</time>
      </trkpt>
      <trkpt lat="59.8647209" lon="17.6302594">
        <ele>14.0764</ele>
        <time>2014-06-01T13:32:02Z</time>
      </trkpt>
      <trkpt lat="59.8647801" lon="17.6301758">
        <ele>13.5958</ele>
        <time>2014-06-01T13:32:03Z</time>
      </trkpt>
      <trkpt lat="59.86484" lon="17.6300967">
        <ele>13.1151</ele>
        <time>2014-06-01T13:32:04Z</time>
      </trkpt>
      <trkpt lat="59.8649016" lon="17.6300277">
        <ele>12.6344</ele>
        <time>2014-06-01T13:32:05Z</time>
      </trkpt>
      <trkpt lat="59.8649632" lon="17.6299587">
        <ele>12.6344</ele>
        <time>2014-06-01T13:32:06Z</time>
      </trkpt>
      <trkpt lat="59.8650883" lon="17.629794">
        <ele>12.6344</ele>
        <time>2014-06-01T13:32:10Z</time>
      </trkpt>
      <trkpt lat="59.8651329" lon="17.629745">
        <ele>13.5958</ele>
        <time>2014-06-01T13:32:11Z</time>
      </trkpt>
      <trkpt lat="59.8651629" lon="17.629674">
        <ele>13.5958</ele>
        <time>2014-06-01T13:32:12Z</time>
      </trkpt>
      <trkpt lat="59.8651857" lon="17.6295948">
        <ele>13.5958</ele>
        <time>2014-06-01T13:32:13Z</time>
      </trkpt>
      <trkpt lat="59.8652028" lon="17.629505">
        <ele>14.0764</ele>
        <time>2014-06-01T13:32:14Z</time>
      </trkpt>
      <trkpt lat="59.865222" lon="17.6294243">
        <ele>13.5958</ele>
        <time>2014-06-01T13:32:15Z</time>
      </trkpt>
      <trkpt lat="59.8652536" lon="17.6293477">
        <ele>13.5958</ele>
        <time>2014-06-01T13:32:16Z</time>
      </trkpt>
      <trkpt lat="59.8652851" lon="17.6292793">
        <ele>13.5958</ele>
        <time>2014-06-01T13:32:17Z</time>
      </trkpt>
      <trkpt lat="59.865315" lon="17.6292131">
        <ele>14.0764</ele>
        <time>2014-06-01T13:32:18Z</time>
      </trkpt>
      <trkpt lat="59.8653438" lon="17.6291501">
        <ele>14.0764</ele>
        <time>2014-06-01T13:32:19Z</time>
      </trkpt>
      <trkpt lat="59.8653754" lon="17.6290871">
        <ele>13.5958</ele>
        <time>2014-06-01T13:32:20Z</time>
      </trkpt>
      <trkpt lat="59.8654105" lon="17.6290297">
        <ele>13.5958</ele>
        <time>2014-06-01T13:32:21Z</time>
      </trkpt>
      <trkpt lat="59.8654524" lon="17.6289745">
        <ele>13.5958</ele>
        <time>2014-06-01T13:32:22Z</time>
      </trkpt>
      <trkpt lat="59.8655104" lon="17.6289369">
        <ele>13.5958</ele>
        <time>2014-06-01T13:32:23Z</time>
      </trkpt>
      <trkpt lat="59.8655586" lon="17.6288999">
        <ele>13.5958</ele>
        <time>2014-06-01T13:32:24Z</time>
      </trkpt>
      <trkpt lat="59.8656031" lon="17.6288595">
        <ele>13.5958</ele>
        <time>2014-06-01T13:32:25Z</time>
      </trkpt>
      <trkpt lat="59.8656412" lon="17.6288004">
        <ele>13.5958</ele>
        <time>2014-06-01T13:32:26Z</time>
      </trkpt>
      <trkpt lat="59.8656769" lon="17.628711">
        <ele>13.1151</ele>
        <time>2014-06-01T13:32:27Z</time>
      </trkpt>
      <trkpt lat="59.8657087" lon="17.6286188">
        <ele>13.1151</ele>
        <time>2014-06-01T13:32:28Z</time>
      </trkpt>
      <trkpt lat="59.8657415" lon="17.6285235">
        <ele>12.6344</ele>
        <time>2014-06-01T13:32:29Z</time>
      </trkpt>
      <trkpt lat="59.8657748" lon="17.628434">
        <ele>12.1538</ele>
        <time>2014-06-01T13:32:30Z</time>
      </trkpt>
      <trkpt lat="59.8658136" lon="17.6283432">
        <ele>12.1538</ele>
        <time>2014-06-01T13:32:31Z</time>
      </trkpt>
      <trkpt lat="59.8658559" lon="17.6282541">
        <ele>11.6732</ele>
        <time>2014-06-01T13:32:32Z</time>
      </trkpt>
      <trkpt lat="59.8658992" lon="17.6281692">
        <ele>11.6732</ele>
        <time>2014-06-01T13:32:33Z</time>
      </trkpt>
      <trkpt lat="59.8659423" lon="17.6280903">
        <ele>11.6732</ele>
        <time>2014-06-01T13:32:34Z</time>
      </trkpt>
      <trkpt lat="59.8659871" lon="17.6280227">
        <ele>11.6732</ele>
        <time>2014-06-01T13:32:35Z</time>
      </trkpt>
      <trkpt lat="59.866032" lon="17.6279683">
        <ele>12.1538</ele>
        <time>2014-06-01T13:32:36Z</time>
      </trkpt>
      <trkpt lat="59.8660724" lon="17.6279158">
        <ele>12.1538</ele>
        <time>2014-06-01T13:32:37Z</time>
      </trkpt>
      <trkpt lat="59.8661074" lon="17.6278562">
        <ele>12.1538</ele>
        <time>2014-06-01T13:32:38Z</time>
      </trkpt>
      <trkpt lat="59.8661414" lon="17.6277911">
        <ele>12.1538</ele>
        <time>2014-06-01T13:32:39Z</time>
      </trkpt>
      <trkpt lat="59.8661751" lon="17.6277278">
        <ele>12.1538</ele>
        <time>2014-06-01T13:32:40Z</time>
      </trkpt>
      <trkpt lat="59.8662108" lon="17.6276672">
        <ele>11.6732</ele>
        <time>2014-06-01T13:32:41Z</time>
      </trkpt>
      <trkpt lat="59.8662459" lon="17.6276026">
        <ele>11.1925</ele>
        <time>2014-06-01T13:32:42Z</time>
      </trkpt>
      <trkpt lat="59.8662808" lon="17.6275274">
        <ele>11.1925</ele>
        <time>2014-06-01T13:32:43Z</time>
      </trkpt>
      <trkpt lat="59.866315" lon="17.6274438">
        <ele>10.7118</ele>
        <time>2014-06-01T13:32:44Z</time>
      </trkpt>
      <trkpt lat="59.8663526" lon="17.6273558">
        <ele>10.2312</ele>
        <time>2014-06-01T13:32:45Z</time>
      </trkpt>
      <trkpt lat="59.8663876" lon="17.6272773">
        <ele>9.75061</ele>
        <time>2014-06-01T13:32:46Z</time>
      </trkpt>
      <trkpt lat="59.866416" lon="17.6271821">
        <ele>9.75061</ele>
        <time>2014-06-01T13:32:47Z</time>
      </trkpt>
      <trkpt lat="59.8664859" lon="17.6271232">
        <ele>9.75061</ele>
        <time>2014-06-01T13:32:48Z</time>
      </trkpt>
      <trkpt lat="59.8665303" lon="17.6270493">
        <ele>9.75061</ele>
        <time>2014-06-01T13:32:49Z</time>
      </trkpt>
      <trkpt lat="59.8665725" lon="17.6269991">
        <ele>9.75061</ele>
        <time>2014-06-01T13:32:50Z</time>
      </trkpt>
      <trkpt lat="59.8666075" lon="17.626956">
        <ele>10.7118</ele>
        <time>2014-06-01T13:32:51Z</time>
      </trkpt>
      <trkpt lat="59.8666381" lon="17.626914">
        <ele>11.1925</ele>
        <time>2014-06-01T13:32:52Z</time>
      </trkpt>
      <trkpt lat="59.8666683" lon="17.6268793">
        <ele>11.6732</ele>
        <time>2014-06-01T13:32:53Z</time>
      </trkpt>
      <trkpt lat="59.8667005" lon="17.6268545">
        <ele>12.1538</ele>
        <time>2014-06-01T13:32:54Z</time>
      </trkpt>
      <trkpt lat="59.8667298" lon="17.6268343">
        <ele>12.6344</ele>
        <time>2014-06-01T13:32:55Z</time>
      </trkpt>
      <trkpt lat="59.8667541" lon="17.6268062">
        <ele>12.6344</ele>
        <time>2014-06-01T13:32:56Z</time>
      </trkpt>
      <trkpt lat="59.8667774" lon="17.6267664">
        <ele>12.6344</ele>
        <time>2014-06-01T13:32:57Z</time>
      </trkpt>
      <trkpt lat="59.8667999" lon="17.6267183">
        <ele>13.1151</ele>
        <time>2014-06-01T13:32:58Z</time>
      </trkpt>
      <trkpt lat="59.8668217" lon="17.6266603">
        <ele>13.1151</ele>
        <time>2014-06-01T13:32:59Z</time>
      </trkpt>
      <trkpt lat="59.8668434" lon="17.6265929">
        <ele>13.1151</ele>
        <time>2014-06-01T13:33:00Z</time>
      </trkpt>
      <trkpt lat="59.866865" lon="17.6265204">
        <ele>13.5958</ele>
        <time>2014-06-01T13:33:01Z</time>
      </trkpt>
      <trkpt lat="59.866887" lon="17.6264471">
        <ele>13.5958</ele>
        <time>2014-06-01T13:33:02Z</time>
      </trkpt>
      <trkpt lat="59.8669119" lon="17.6263712">
        <ele>13.5958</ele>
        <time>2014-06-01T13:33:03Z</time>
      </trkpt>
      <trkpt lat="59.8669413" lon="17.626292">
        <ele>13.5958</ele>
        <time>2014-06-01T13:33:04Z</time>
      </trkpt>
      <trkpt lat="59.8669778" lon="17.6262121">
        <ele>13.1151</ele>
        <time>2014-06-01T13:33:05Z</time>
      </trkpt>
      <trkpt lat="59.8670205" lon="17.6261329">
        <ele>13.5958</ele>
        <time>2014-06-01T13:33:06Z</time>
      </trkpt>
      <trkpt lat="59.8670677" lon="17.6260625">
        <ele>13.5958</ele>
        <time>2014-06-01T13:33:07Z</time>
      </trkpt>
      <trkpt lat="59.8671169" lon="17.6260001">
        <ele>13.5958</ele>
        <time>2014-06-01T13:33:08Z</time>
      </trkpt>
      <trkpt lat="59.8671662" lon="17.6259371">
        <ele>13.1151</ele>
        <time>2014-06-01T13:33:09Z</time>
      </trkpt>
      <trkpt lat="59.8672154" lon="17.6258707">
        <ele>13.1151</ele>
        <time>2014-06-01T13:33:10Z</time>
      </trkpt>
      <trkpt lat="59.8672651" lon="17.6258049">
        <ele>13.5958</ele>
        <time>2014-06-01T13:33:11Z</time>
      </trkpt>
      <trkpt lat="59.8673168" lon="17.6257406">
        <ele>13.5958</ele>
        <time>2014-06-01T13:33:12Z</time>
      </trkpt>
      <trkpt lat="59.86737" lon="17.6256773">
        <ele>13.5958</ele>
        <time>2014-06-01T13:33:13Z</time>
      </trkpt>
      <trkpt lat="59.8674236" lon="17.6256144">
        <ele>13.5958</ele>
        <time>2014-06-01T13:33:14Z</time>
      </trkpt>
      <trkpt lat="59.8674765" lon="17.6255494">
        <ele>13.5958</ele>
        <time>2014-06-01T13:33:15Z</time>
      </trkpt>
      <trkpt lat="59.8675366" lon="17.6254962">
        <ele>13.5958</ele>
        <time>2014-06-01T13:33:16Z</time>
      </trkpt>
      <trkpt lat="59.8675914" lon="17.625429">
        <ele>13.5958</ele>
        <time>2014-06-01T13:33:17Z</time>
      </trkpt>
      <trkpt lat="59.867642" lon="17.625364">
        <ele>14.0764</ele>
        <time>2014-06-01T13:33:18Z</time>
      </trkpt>
      <trkpt lat="59.8676914" lon="17.6253127">
        <ele>14.0764</ele>
        <time>2014-06-01T13:33:19Z</time>
      </trkpt>
      <trkpt lat="59.8677402" lon="17.6252645">
        <ele>14.0764</ele>
        <time>2014-06-01T13:33:20Z</time>
      </trkpt>
      <trkpt lat="59.8677751" lon="17.6251719">
        <ele>14.557</ele>
        <time>2014-06-01T13:33:21Z</time>
      </trkpt>
      <trkpt lat="59.8678038" lon="17.62509">
        <ele>14.557</ele>
        <time>2014-06-01T13:33:22Z</time>
      </trkpt>
      <trkpt lat="59.8678064" lon="17.6249697">
        <ele>14.557</ele>
        <time>2014-06-01T13:33:23Z</time>
      </trkpt>
      <trkpt lat="59.8677898" lon="17.6248741">
        <ele>14.557</ele>
        <time>2014-06-01T13:33:24Z</time>
      </trkpt>
      <trkpt lat="59.8677705" lon="17.6247864">
        <ele>15.0377</ele>
        <time>2014-06-01T13:33:25Z</time>
      </trkpt>
      <trkpt lat="59.8677516" lon="17.6246885">
        <ele>15.0377</ele>
        <time>2014-06-01T13:33:26Z</time>
      </trkpt>
      <trkpt lat="59.8677329" lon="17.6245953">
        <ele>15.0377</ele>
        <time>2014-06-01T13:33:27Z</time>
      </trkpt>
      <trkpt lat="59.8677109" lon="17.624496">
        <ele>15.0377</ele>
        <time>2014-06-01T13:33:28Z</time>
      </trkpt>
      <trkpt lat="59.8676893" lon="17.6243992">
        <ele>15.0377</ele>
        <time>2014-06-01T13:33:29Z</time>
      </trkpt>
      <trkpt lat="59.8676687" lon="17.6242981">
        <ele>15.0377</ele>
        <time>2014-06-01T13:33:30Z</time>
      </trkpt>
      <trkpt lat="59.8676537" lon="17.6241924">
        <ele>15.0377</ele>
        <time>2014-06-01T13:33:31Z</time>
      </trkpt>
      <trkpt lat="59.8676509" lon="17.6240856">
        <ele>15.5184</ele>
        <time>2014-06-01T13:33:32Z</time>
      </trkpt>
      <trkpt lat="59.8676723" lon="17.6239858">
        <ele>15.5184</ele>
        <time>2014-06-01T13:33:33Z</time>
      </trkpt>
      <trkpt lat="59.8677312" lon="17.6239516">
        <ele>15.5184</ele>
        <time>2014-06-01T13:33:34Z</time>
      </trkpt>
      <trkpt lat="59.8677893" lon="17.6239301">
        <ele>15.0377</ele>
        <time>2014-06-01T13:33:35Z</time>
      </trkpt>
      <trkpt lat="59.8678447" lon="17.6239194">
        <ele>15.0377</ele>
        <time>2014-06-01T13:33:36Z</time>
      </trkpt>
      <trkpt lat="59.8679007" lon="17.6239043">
        <ele>15.0377</ele>
        <time>2014-06-01T13:33:37Z</time>
      </trkpt>
      <trkpt lat="59.8679554" lon="17.6238749">
        <ele>15.0377</ele>
        <time>2014-06-01T13:33:38Z</time>
      </trkpt>
      <trkpt lat="59.8680136" lon="17.6238457">
        <ele>15.0377</ele>
        <time>2014-06-01T13:33:39Z</time>
      </trkpt>
      <trkpt lat="59.86807" lon="17.6238074">
        <ele>15.0377</ele>
        <time>2014-06-01T13:33:40Z</time>
      </trkpt>
      <trkpt lat="59.8681265" lon="17.6237652">
        <ele>15.0377</ele>
        <time>2014-06-01T13:33:41Z</time>
      </trkpt>
      <trkpt lat="59.8681827" lon="17.6237279">
        <ele>15.0377</ele>
        <time>2014-06-01T13:33:42Z</time>
      </trkpt>
      <trkpt lat="59.8682408" lon="17.6236954">
        <ele>15.0377</ele>
        <time>2014-06-01T13:33:43Z</time>
      </trkpt>
      <trkpt lat="59.8682995" lon="17.6236639">
        <ele>15.0377</ele>
        <time>2014-06-01T13:33:44Z</time>
      </trkpt>
      <trkpt lat="59.8683554" lon="17.6236324">
        <ele>15.5184</ele>
        <time>2014-06-01T13:33:45Z</time>
      </trkpt>
      <trkpt lat="59.8684105" lon="17.6235993">
        <ele>15.5184</ele>
        <time>2014-06-01T13:33:46Z</time>
      </trkpt>
      <trkpt lat="59.8684668" lon="17.6235672">
        <ele>15.5184</ele>
        <time>2014-06-01T13:33:47Z</time>
      </trkpt>
      <trkpt lat="59.8685238" lon="17.6235345">
        <ele>15.999</ele>
        <time>2014-06-01T13:33:48Z</time>
      </trkpt>
      <trkpt lat="59.8685844" lon="17.6235044">
        <ele>15.999</ele>
        <time>2014-06-01T13:33:49Z</time>
      </trkpt>
      <trkpt lat="59.8686458" lon="17.6234742">
        <ele>15.999</ele>
        <time>2014-06-01T13:33:50Z</time>
      </trkpt>
      <trkpt lat="59.8687047" lon="17.6234375">
        <ele>15.999</ele>
        <time>2014-06-01T13:33:51Z</time>
      </trkpt>
      <trkpt lat="59.8687665" lon="17.6233988">
        <ele>15.5184</ele>
        <time>2014-06-01T13:33:52Z</time>
      </trkpt>
      <trkpt lat="59.8688242" lon="17.6233653">
        <ele>15.5184</ele>
        <time>2014-06-01T13:33:53Z</time>
      </trkpt>
      <trkpt lat="59.8688284" lon="17.6234295">
        <ele>16.9604</ele>
        <time>2014-06-01T13:33:54Z</time>
      </trkpt>
      <trkpt lat="59.8688823" lon="17.6233759">
        <ele>16.9604</ele>
        <time>2014-06-01T13:33:55Z</time>
      </trkpt>
      <trkpt lat="59.8689367" lon="17.6233196">
        <ele>16.4797</ele>
        <time>2014-06-01T13:33:56Z</time>
      </trkpt>
      <trkpt lat="59.8689857" lon="17.6232676">
        <ele>16.4797</ele>
        <time>2014-06-01T13:33:57Z</time>
      </trkpt>
      <trkpt lat="59.8690323" lon="17.6232235">
        <ele>15.999</ele>
        <time>2014-06-01T13:33:58Z</time>
      </trkpt>
      <trkpt lat="59.8690711" lon="17.6231864">
        <ele>16.4797</ele>
        <time>2014-06-01T13:33:59Z</time>
      </trkpt>
      <trkpt lat="59.8690905" lon="17.6231481">
        <ele>16.4797</ele>
        <time>2014-06-01T13:34:00Z</time>
      </trkpt>
      <trkpt lat="59.8690942" lon="17.623101">
        <ele>15.999</ele>
        <time>2014-06-01T13:34:01Z</time>
      </trkpt>
      <trkpt lat="59.8691004" lon="17.6230471">
        <ele>15.999</ele>
        <time>2014-06-01T13:34:02Z</time>
      </trkpt>
      <trkpt lat="59.8691193" lon="17.6230024">
        <ele>15.999</ele>
        <time>2014-06-01T13:34:03Z</time>
      </trkpt>
      <trkpt lat="59.8691485" lon="17.6229759">
        <ele>15.999</ele>
        <time>2014-06-01T13:34:04Z</time>
      </trkpt>
      <trkpt lat="59.869182" lon="17.6229519">
        <ele>15.999</ele>
        <time>2014-06-01T13:34:05Z</time>
      </trkpt>
      <trkpt lat="59.8692151" lon="17.6229094">
        <ele>15.5184</ele>
        <time>2014-06-01T13:34:06Z</time>
      </trkpt>
      <trkpt lat="59.8692481" lon="17.6228477">
        <ele>15.5184</ele>
        <time>2014-06-01T13:34:07Z</time>
      </trkpt>
      <trkpt lat="59.8692778" lon="17.6227715">
        <ele>15.5184</ele>
        <time>2014-06-01T13:34:08Z</time>
      </trkpt>
      <trkpt lat="59.8693034" lon="17.6226824">
        <ele>15.0377</ele>
        <time>2014-06-01T13:34:09Z</time>
      </trkpt>
      <trkpt lat="59.8693278" lon="17.6225892">
        <ele>15.0377</ele>
        <time>2014-06-01T13:34:10Z</time>
      </trkpt>
      <trkpt lat="59.8693547" lon="17.6224921">
        <ele>15.0377</ele>
        <time>2014-06-01T13:34:11Z</time>
      </trkpt>
      <trkpt lat="59.8693868" lon="17.6223959">
        <ele>14.557</ele>
        <time>2014-06-01T13:34:12Z</time>
      </trkpt>
      <trkpt lat="59.8694232" lon="17.6223031">
        <ele>14.557</ele>
        <time>2014-06-01T13:34:13Z</time>
      </trkpt>
      <trkpt lat="59.869457" lon="17.622213">
        <ele>14.557</ele>
        <time>2014-06-01T13:34:14Z</time>
      </trkpt>
      <trkpt lat="59.8694826" lon="17.6221254">
        <ele>14.557</ele>
        <time>2014-06-01T13:34:15Z</time>
      </trkpt>
      <trkpt lat="59.8695029" lon="17.6220287">
        <ele>14.0764</ele>
        <time>2014-06-01T13:34:16Z</time>
      </trkpt>
      <trkpt lat="59.8695276" lon="17.6219329">
        <ele>14.0764</ele>
        <time>2014-06-01T13:34:17Z</time>
      </trkpt>
      <trkpt lat="59.869562" lon="17.6218485">
        <ele>14.0764</ele>
        <time>2014-06-01T13:34:18Z</time>
      </trkpt>
      <trkpt lat="59.8696007" lon="17.6217689">
        <ele>13.5958</ele>
        <time>2014-06-01T13:34:19Z</time>
      </trkpt>
      <trkpt lat="59.869638" lon="17.6216655">
        <ele>13.5958</ele>
        <time>2014-06-01T13:34:20Z</time>
      </trkpt>
      <trkpt lat="59.8696677" lon="17.6215574">
        <ele>13.5958</ele>
        <time>2014-06-01T13:34:21Z</time>
      </trkpt>
      <trkpt lat="59.8696924" lon="17.6214502">
        <ele>13.5958</ele>
        <time>2014-06-01T13:34:22Z</time>
      </trkpt>
      <trkpt lat="59.8697147" lon="17.6213371">
        <ele>13.5958</ele>
        <time>2014-06-01T13:34:23Z</time>
      </trkpt>
      <trkpt lat="59.8697355" lon="17.6212226">
        <ele>13.5958</ele>
        <time>2014-06-01T13:34:24Z</time>
      </trkpt>
      <trkpt lat="59.8697557" lon="17.6211091">
        <ele>13.5958</ele>
        <time>2014-06-01T13:34:25Z</time>
      </trkpt>
      <trkpt lat="59.8697753" lon="17.6209937">
        <ele>13.1151</ele>
        <time>2014-06-01T13:34:26Z</time>
      </trkpt>
      <trkpt lat="59.869794" lon="17.6208757">
        <ele>13.1151</ele>
        <time>2014-06-01T13:34:27Z</time>
      </trkpt>
      <trkpt lat="59.8698122" lon="17.6207547">
        <ele>13.1151</ele>
        <time>2014-06-01T13:34:28Z</time>
      </trkpt>
      <trkpt lat="59.8698281" lon="17.6206357">
        <ele>13.1151</ele>
        <time>2014-06-01T13:34:29Z</time>
      </trkpt>
      <trkpt lat="59.8698432" lon="17.6205175">
        <ele>13.1151</ele>
        <time>2014-06-01T13:34:30Z</time>
      </trkpt>
      <trkpt lat="59.8698571" lon="17.6204031">
        <ele>13.5958</ele>
        <time>2014-06-01T13:34:31Z</time>
      </trkpt>
      <trkpt lat="59.8698706" lon="17.6202895">
        <ele>13.5958</ele>
        <time>2014-06-01T13:34:32Z</time>
      </trkpt>
      <trkpt lat="59.8698787" lon="17.6201857">
        <ele>13.5958</ele>
        <time>2014-06-01T13:34:33Z</time>
      </trkpt>
      <trkpt lat="59.8698766" lon="17.6200886">
        <ele>14.0764</ele>
        <time>2014-06-01T13:34:34Z</time>
      </trkpt>
      <trkpt lat="59.8698758" lon="17.6199908">
        <ele>14.0764</ele>
        <time>2014-06-01T13:34:35Z</time>
      </trkpt>
      <trkpt lat="59.8698834" lon="17.6198884">
        <ele>14.0764</ele>
        <time>2014-06-01T13:34:36Z</time>
      </trkpt>
      <trkpt lat="59.869892" lon="17.6197825">
        <ele>14.557</ele>
        <time>2014-06-01T13:34:37Z</time>
      </trkpt>
      <trkpt lat="59.8699012" lon="17.6196763">
        <ele>14.557</ele>
        <time>2014-06-01T13:34:38Z</time>
      </trkpt>
      <trkpt lat="59.869911" lon="17.6195695">
        <ele>15.0377</ele>
        <time>2014-06-01T13:34:39Z</time>
      </trkpt>
      <trkpt lat="59.8699213" lon="17.6194598">
        <ele>14.557</ele>
        <time>2014-06-01T13:34:40Z</time>
      </trkpt>
      <trkpt lat="59.8699295" lon="17.6193493">
        <ele>15.0377</ele>
        <time>2014-06-01T13:34:41Z</time>
      </trkpt>
      <trkpt lat="59.8699322" lon="17.6192418">
        <ele>15.0377</ele>
        <time>2014-06-01T13:34:42Z</time>
      </trkpt>
      <trkpt lat="59.8699266" lon="17.6191329">
        <ele>15.0377</ele>
        <time>2014-06-01T13:34:43Z</time>
      </trkpt>
      <trkpt lat="59.8699181" lon="17.61902">
        <ele>15.0377</ele>
        <time>2014-06-01T13:34:44Z</time>
      </trkpt>
      <trkpt lat="59.8699106" lon="17.6189056">
        <ele>15.5184</ele>
        <time>2014-06-01T13:34:45Z</time>
      </trkpt>
      <trkpt lat="59.8699103" lon="17.6187863">
        <ele>15.5184</ele>
        <time>2014-06-01T13:34:46Z</time>
      </trkpt>
      <trkpt lat="59.8699236" lon="17.6186745">
        <ele>15.5184</ele>
        <time>2014-06-01T13:34:47Z</time>
      </trkpt>
      <trkpt lat="59.8699533" lon="17.6185704">
        <ele>15.999</ele>
        <time>2014-06-01T13:34:48Z</time>
      </trkpt>
      <trkpt lat="59.8699813" lon="17.6184544">
        <ele>15.999</ele>
        <time>2014-06-01T13:34:49Z</time>
      </trkpt>
      <trkpt lat="59.8700079" lon="17.6183389">
        <ele>15.999</ele>
        <time>2014-06-01T13:34:50Z</time>
      </trkpt>
      <trkpt lat="59.8700342" lon="17.6182097">
        <ele>15.5184</ele>
        <time>2014-06-01T13:34:51Z</time>
      </trkpt>
      <trkpt lat="59.8700593" lon="17.6180492">
        <ele>15.999</ele>
        <time>2014-06-01T13:34:52Z</time>
      </trkpt>
      <trkpt lat="59.8700823" lon="17.6179206">
        <ele>16.9604</ele>
        <time>2014-06-01T13:34:53Z</time>
      </trkpt>
      <trkpt lat="59.8701058" lon="17.6177906">
        <ele>16.9604</ele>
        <time>2014-06-01T13:34:54Z</time>
      </trkpt>
      <trkpt lat="59.8701306" lon="17.6176594">
        <ele>16.9604</ele>
        <time>2014-06-01T13:34:55Z</time>
      </trkpt>
      <trkpt lat="59.8701663" lon="17.6175374">
        <ele>17.4412</ele>
        <time>2014-06-01T13:34:56Z</time>
      </trkpt>
      <trkpt lat="59.8701703" lon="17.617382">
        <ele>17.4412</ele>
        <time>2014-06-01T13:34:57Z</time>
      </trkpt>
      <trkpt lat="59.8701546" lon="17.6172077">
        <ele>18.4023</ele>
        <time>2014-06-01T13:34:58Z</time>
      </trkpt>
      <trkpt lat="59.8701871" lon="17.6170744">
        <ele>18.4023</ele>
        <time>2014-06-01T13:34:59Z</time>
      </trkpt>
      <trkpt lat="59.8702197" lon="17.6169412">
        <ele>18.4023</ele>
        <time>2014-06-01T13:35:00Z</time>
      </trkpt>
      <trkpt lat="59.8702436" lon="17.6167815">
        <ele>19.3638</ele>
        <time>2014-06-01T13:35:01Z</time>
      </trkpt>
      <trkpt lat="59.8702682" lon="17.6166498">
        <ele>19.8444</ele>
        <time>2014-06-01T13:35:02Z</time>
      </trkpt>
      <trkpt lat="59.8703455" lon="17.6165683">
        <ele>21.2864</ele>
        <time>2014-06-01T13:35:03Z</time>
      </trkpt>
      <trkpt lat="59.8703637" lon="17.6164381">
        <ele>21.767</ele>
        <time>2014-06-01T13:35:04Z</time>
      </trkpt>
      <trkpt lat="59.8703798" lon="17.6162921">
        <ele>21.767</ele>
        <time>2014-06-01T13:35:05Z</time>
      </trkpt>
      <trkpt lat="59.8704283" lon="17.6161695">
        <ele>22.2476</ele>
        <time>2014-06-01T13:35:06Z</time>
      </trkpt>
      <trkpt lat="59.8704309" lon="17.615996">
        <ele>21.767</ele>
        <time>2014-06-01T13:35:07Z</time>
      </trkpt>
      <trkpt lat="59.8704467" lon="17.6158504">
        <ele>21.767</ele>
        <time>2014-06-01T13:35:08Z</time>
      </trkpt>
      <trkpt lat="59.8704729" lon="17.615716">
        <ele>21.2864</ele>
        <time>2014-06-01T13:35:09Z</time>
      </trkpt>
      <trkpt lat="59.8705021" lon="17.6155822">
        <ele>20.8057</ele>
        <time>2014-06-01T13:35:10Z</time>
      </trkpt>
      <trkpt lat="59.870528" lon="17.6154541">
        <ele>20.8057</ele>
        <time>2014-06-01T13:35:11Z</time>
      </trkpt>
      <trkpt lat="59.8705571" lon="17.6153246">
        <ele>20.325</ele>
        <time>2014-06-01T13:35:12Z</time>
      </trkpt>
      <trkpt lat="59.8705897" lon="17.6152101">
        <ele>20.325</ele>
        <time>2014-06-01T13:35:13Z</time>
      </trkpt>
      <trkpt lat="59.8706213" lon="17.6151056">
        <ele>19.8444</ele>
        <time>2014-06-01T13:35:14Z</time>
      </trkpt>
      <trkpt lat="59.8706544" lon="17.6150032">
        <ele>19.8444</ele>
        <time>2014-06-01T13:35:15Z</time>
      </trkpt>
      <trkpt lat="59.8706855" lon="17.6149022">
        <ele>19.8444</ele>
        <time>2014-06-01T13:35:16Z</time>
      </trkpt>
      <trkpt lat="59.8707163" lon="17.614803">
        <ele>19.8444</ele>
        <time>2014-06-01T13:35:17Z</time>
      </trkpt>
      <trkpt lat="59.8707491" lon="17.6147109">
        <ele>19.3638</ele>
        <time>2014-06-01T13:35:18Z</time>
      </trkpt>
      <trkpt lat="59.8707803" lon="17.6146194">
        <ele>19.3638</ele>
        <time>2014-06-01T13:35:19Z</time>
      </trkpt>
      <trkpt lat="59.8708086" lon="17.6145225">
        <ele>19.3638</ele>
        <time>2014-06-01T13:35:20Z</time>
      </trkpt>
      <trkpt lat="59.8708357" lon="17.6144242">
        <ele>18.8831</ele>
        <time>2014-06-01T13:35:21Z</time>
      </trkpt>
      <trkpt lat="59.8708621" lon="17.6143217">
        <ele>18.8831</ele>
        <time>2014-06-01T13:35:22Z</time>
      </trkpt>
      <trkpt lat="59.8708864" lon="17.6142208">
        <ele>18.4023</ele>
        <time>2014-06-01T13:35:23Z</time>
      </trkpt>
      <trkpt lat="59.8709071" lon="17.6141108">
        <ele>18.4023</ele>
        <time>2014-06-01T13:35:24Z</time>
      </trkpt>
      <trkpt lat="59.8709285" lon="17.6139944">
        <ele>18.4023</ele>
        <time>2014-06-01T13:35:25Z</time>
      </trkpt>
      <trkpt lat="59.8709496" lon="17.6138725">
        <ele>18.4023</ele>
        <time>2014-06-01T13:35:26Z</time>
      </trkpt>
      <trkpt lat="59.8709724" lon="17.6137492">
        <ele>17.9218</ele>
        <time>2014-06-01T13:35:27Z</time>
      </trkpt>
      <trkpt lat="59.8709938" lon="17.6136282">
        <ele>18.4023</ele>
        <time>2014-06-01T13:35:28Z</time>
      </trkpt>
      <trkpt lat="59.8710128" lon="17.6135036">
        <ele>18.4023</ele>
        <time>2014-06-01T13:35:29Z</time>
      </trkpt>
      <trkpt lat="59.8710345" lon="17.6133371">
        <ele>17.9218</ele>
        <time>2014-06-01T13:35:30Z</time>
      </trkpt>
      <trkpt lat="59.871062" lon="17.6131949">
        <ele>17.4412</ele>
        <time>2014-06-01T13:35:31Z</time>
      </trkpt>
      <trkpt lat="59.8710943" lon="17.6130847">
        <ele>17.4412</ele>
        <time>2014-06-01T13:35:32Z</time>
      </trkpt>
      <trkpt lat="59.8711328" lon="17.6129743">
        <ele>16.9604</ele>
        <time>2014-06-01T13:35:33Z</time>
      </trkpt>
      <trkpt lat="59.8711711" lon="17.6128693">
        <ele>16.4797</ele>
        <time>2014-06-01T13:35:34Z</time>
      </trkpt>
      <trkpt lat="59.8712129" lon="17.6127691">
        <ele>16.4797</ele>
        <time>2014-06-01T13:35:35Z</time>
      </trkpt>
      <trkpt lat="59.8712558" lon="17.6126764">
        <ele>15.999</ele>
        <time>2014-06-01T13:35:36Z</time>
      </trkpt>
      <trkpt lat="59.8713035" lon="17.6125781">
        <ele>15.999</ele>
        <time>2014-06-01T13:35:37Z</time>
      </trkpt>
      <trkpt lat="59.8713483" lon="17.6124834">
        <ele>15.5184</ele>
        <time>2014-06-01T13:35:38Z</time>
      </trkpt>
      <trkpt lat="59.8713914" lon="17.6123783">
        <ele>15.5184</ele>
        <time>2014-06-01T13:35:39Z</time>
      </trkpt>
      <trkpt lat="59.8714396" lon="17.612272">
        <ele>15.5184</ele>
        <time>2014-06-01T13:35:40Z</time>
      </trkpt>
      <trkpt lat="59.8714858" lon="17.6121683">
        <ele>15.5184</ele>
        <time>2014-06-01T13:35:41Z</time>
      </trkpt>
      <trkpt lat="59.8715317" lon="17.6120689">
        <ele>15.5184</ele>
        <time>2014-06-01T13:35:42Z</time>
      </trkpt>
      <trkpt lat="59.8715784" lon="17.6119726">
        <ele>15.5184</ele>
        <time>2014-06-01T13:35:43Z</time>
      </trkpt>
      <trkpt lat="59.8716241" lon="17.6118797">
        <ele>15.5184</ele>
        <time>2014-06-01T13:35:44Z</time>
      </trkpt>
      <trkpt lat="59.8716717" lon="17.6117897">
        <ele>15.0377</ele>
        <time>2014-06-01T13:35:45Z</time>
      </trkpt>
      <trkpt lat="59.8717207" lon="17.6117041">
        <ele>15.0377</ele>
        <time>2014-06-01T13:35:46Z</time>
      </trkpt>
      <trkpt lat="59.8717671" lon="17.6116294">
        <ele>15.0377</ele>
        <time>2014-06-01T13:35:47Z</time>
      </trkpt>
      <trkpt lat="59.8718147" lon="17.6115487">
        <ele>15.0377</ele>
        <time>2014-06-01T13:35:48Z</time>
      </trkpt>
      <trkpt lat="59.871866" lon="17.6114618">
        <ele>15.0377</ele>
        <time>2014-06-01T13:35:49Z</time>
      </trkpt>
      <trkpt lat="59.8719225" lon="17.6113771">
        <ele>15.0377</ele>
        <time>2014-06-01T13:35:50Z</time>
      </trkpt>
      <trkpt lat="59.87198" lon="17.6112906">
        <ele>14.557</ele>
        <time>2014-06-01T13:35:51Z</time>
      </trkpt>
      <trkpt lat="59.8720369" lon="17.6111953">
        <ele>14.557</ele>
        <time>2014-06-01T13:35:52Z</time>
      </trkpt>
      <trkpt lat="59.8720913" lon="17.6110991">
        <ele>14.557</ele>
        <time>2014-06-01T13:35:53Z</time>
      </trkpt>
      <trkpt lat="59.8721415" lon="17.6110043">
        <ele>14.557</ele>
        <time>2014-06-01T13:35:54Z</time>
      </trkpt>
      <trkpt lat="59.8721929" lon="17.6109064">
        <ele>14.0764</ele>
        <time>2014-06-01T13:35:55Z</time>
      </trkpt>
      <trkpt lat="59.8722445" lon="17.6108107">
        <ele>14.0764</ele>
        <time>2014-06-01T13:35:56Z</time>
      </trkpt>
      <trkpt lat="59.8722931" lon="17.6107167">
        <ele>13.5958</ele>
        <time>2014-06-01T13:35:57Z</time>
      </trkpt>
      <trkpt lat="59.8723418" lon="17.6106287">
        <ele>13.5958</ele>
        <time>2014-06-01T13:35:58Z</time>
      </trkpt>
      <trkpt lat="59.8723952" lon="17.6105352">
        <ele>13.5958</ele>
        <time>2014-06-01T13:35:59Z</time>
      </trkpt>
      <trkpt lat="59.8724519" lon="17.6104183">
        <ele>13.5958</ele>
        <time>2014-06-01T13:36:00Z</time>
      </trkpt>
      <trkpt lat="59.8725161" lon="17.6103087">
        <ele>13.5958</ele>
        <time>2014-06-01T13:36:01Z</time>
      </trkpt>
      <trkpt lat="59.8725688" lon="17.6102054">
        <ele>13.5958</ele>
        <time>2014-06-01T13:36:02Z</time>
      </trkpt>
      <trkpt lat="59.872615" lon="17.6101082">
        <ele>13.5958</ele>
        <time>2014-06-01T13:36:03Z</time>
      </trkpt>
      <trkpt lat="59.8726637" lon="17.6100269">
        <ele>14.0764</ele>
        <time>2014-06-01T13:36:04Z</time>
      </trkpt>
      <trkpt lat="59.872716" lon="17.6099448">
        <ele>14.0764</ele>
        <time>2014-06-01T13:36:05Z</time>
      </trkpt>
      <trkpt lat="59.8727631" lon="17.609862">
        <ele>14.0764</ele>
        <time>2014-06-01T13:36:06Z</time>
      </trkpt>
      <trkpt lat="59.8728032" lon="17.6097682">
        <ele>14.0764</ele>
        <time>2014-06-01T13:36:07Z</time>
      </trkpt>
      <trkpt lat="59.8728348" lon="17.6096621">
        <ele>14.0764</ele>
        <time>2014-06-01T13:36:08Z</time>
      </trkpt>
      <trkpt lat="59.8728625" lon="17.6095471">
        <ele>14.0764</ele>
        <time>2014-06-01T13:36:09Z</time>
      </trkpt>
      <trkpt lat="59.8728937" lon="17.6094338">
        <ele>14.0764</ele>
        <time>2014-06-01T13:36:10Z</time>
      </trkpt>
      <trkpt lat="59.8729351" lon="17.6093328">
        <ele>14.0764</ele>
        <time>2014-06-01T13:36:11Z</time>
      </trkpt>
      <trkpt lat="59.8729889" lon="17.6092554">
        <ele>14.0764</ele>
        <time>2014-06-01T13:36:12Z</time>
      </trkpt>
      <trkpt lat="59.8730491" lon="17.6091941">
        <ele>13.5958</ele>
        <time>2014-06-01T13:36:13Z</time>
      </trkpt>
      <trkpt lat="59.8731096" lon="17.6091411">
        <ele>13.5958</ele>
        <time>2014-06-01T13:36:14Z</time>
      </trkpt>
      <trkpt lat="59.8731702" lon="17.6090976">
        <ele>13.5958</ele>
        <time>2014-06-01T13:36:15Z</time>
      </trkpt>
      <trkpt lat="59.8732333" lon="17.6090834">
        <ele>14.0764</ele>
        <time>2014-06-01T13:36:16Z</time>
      </trkpt>
      <trkpt lat="59.8732857" lon="17.6090464">
        <ele>13.5958</ele>
        <time>2014-06-01T13:36:17Z</time>
      </trkpt>
      <trkpt lat="59.8733349" lon="17.6089951">
        <ele>14.0764</ele>
        <time>2014-06-01T13:36:18Z</time>
      </trkpt>
      <trkpt lat="59.8733841" lon="17.6089389">
        <ele>14.0764</ele>
        <time>2014-06-01T13:36:19Z</time>
      </trkpt>
      <trkpt lat="59.8734273" lon="17.6089053">
        <ele>14.0764</ele>
        <time>2014-06-01T13:36:20Z</time>
      </trkpt>
      <trkpt lat="59.8734701" lon="17.6088681">
        <ele>14.0764</ele>
        <time>2014-06-01T13:36:21Z</time>
      </trkpt>
      <trkpt lat="59.873511" lon="17.6088257">
        <ele>14.557</ele>
        <time>2014-06-01T13:36:22Z</time>
      </trkpt>
      <trkpt lat="59.8735577" lon="17.6087806">
        <ele>14.557</ele>
        <time>2014-06-01T13:36:23Z</time>
      </trkpt>
      <trkpt lat="59.8736055" lon="17.608737">
        <ele>14.557</ele>
        <time>2014-06-01T13:36:24Z</time>
      </trkpt>
      <trkpt lat="59.8736509" lon="17.6086863">
        <ele>14.557</ele>
        <time>2014-06-01T13:36:25Z</time>
      </trkpt>
      <trkpt lat="59.8736931" lon="17.6086256">
        <ele>14.557</ele>
        <time>2014-06-01T13:36:26Z</time>
      </trkpt>
      <trkpt lat="59.8737379" lon="17.6085666">
        <ele>15.0377</ele>
        <time>2014-06-01T13:36:27Z</time>
      </trkpt>
      <trkpt lat="59.8737843" lon="17.6085108">
        <ele>15.0377</ele>
        <time>2014-06-01T13:36:28Z</time>
      </trkpt>
      <trkpt lat="59.8738306" lon="17.6084551">
        <ele>15.0377</ele>
        <time>2014-06-01T13:36:29Z</time>
      </trkpt>
      <trkpt lat="59.8738785" lon="17.6084091">
        <ele>15.5184</ele>
        <time>2014-06-01T13:36:30Z</time>
      </trkpt>
      <trkpt lat="59.8739293" lon="17.6083786">
        <ele>15.5184</ele>
        <time>2014-06-01T13:36:31Z</time>
      </trkpt>
      <trkpt lat="59.8739829" lon="17.608359">
        <ele>15.5184</ele>
        <time>2014-06-01T13:36:32Z</time>
      </trkpt>
      <trkpt lat="59.8740371" lon="17.6083406">
        <ele>15.5184</ele>
        <time>2014-06-01T13:36:33Z</time>
      </trkpt>
      <trkpt lat="59.8740913" lon="17.6083194">
        <ele>15.5184</ele>
        <time>2014-06-01T13:36:34Z</time>
      </trkpt>
      <trkpt lat="59.8741454" lon="17.6082998">
        <ele>15.5184</ele>
        <time>2014-06-01T13:36:35Z</time>
      </trkpt>
      <trkpt lat="59.8741992" lon="17.6082772">
        <ele>15.5184</ele>
        <time>2014-06-01T13:36:36Z</time>
      </trkpt>
      <trkpt lat="59.874253" lon="17.6082471">
        <ele>15.999</ele>
        <time>2014-06-01T13:36:37Z</time>
      </trkpt>
      <trkpt lat="59.874307" lon="17.6082133">
        <ele>15.999</ele>
        <time>2014-06-01T13:36:38Z</time>
      </trkpt>
      <trkpt lat="59.8743622" lon="17.6081785">
        <ele>15.999</ele>
        <time>2014-06-01T13:36:39Z</time>
      </trkpt>
      <trkpt lat="59.8744191" lon="17.6081445">
        <ele>15.999</ele>
        <time>2014-06-01T13:36:40Z</time>
      </trkpt>
      <trkpt lat="59.8744763" lon="17.6081139">
        <ele>15.999</ele>
        <time>2014-06-01T13:36:41Z</time>
      </trkpt>
      <trkpt lat="59.8745352" lon="17.6080849">
        <ele>15.999</ele>
        <time>2014-06-01T13:36:42Z</time>
      </trkpt>
      <trkpt lat="59.874595" lon="17.6080554">
        <ele>15.999</ele>
        <time>2014-06-01T13:36:43Z</time>
      </trkpt>
      <trkpt lat="59.8746546" lon="17.6080199">
        <ele>15.999</ele>
        <time>2014-06-01T13:36:44Z</time>
      </trkpt>
      <trkpt lat="59.874714" lon="17.6079793">
        <ele>15.999</ele>
        <time>2014-06-01T13:36:45Z</time>
      </trkpt>
      <trkpt lat="59.8747742" lon="17.6079373">
        <ele>16.4797</ele>
        <time>2014-06-01T13:36:46Z</time>
      </trkpt>
      <trkpt lat="59.8748347" lon="17.6078892">
        <ele>15.999</ele>
        <time>2014-06-01T13:36:47Z</time>
      </trkpt>
      <trkpt lat="59.8748964" lon="17.6078394">
        <ele>15.999</ele>
        <time>2014-06-01T13:36:48Z</time>
      </trkpt>
      <trkpt lat="59.8749554" lon="17.6077875">
        <ele>15.999</ele>
        <time>2014-06-01T13:36:49Z</time>
      </trkpt>
      <trkpt lat="59.8750128" lon="17.6077301">
        <ele>15.999</ele>
        <time>2014-06-01T13:36:50Z</time>
      </trkpt>
      <trkpt lat="59.8750677" lon="17.6076679">
        <ele>15.5184</ele>
        <time>2014-06-01T13:36:51Z</time>
      </trkpt>
      <trkpt lat="59.8751221" lon="17.6076006">
        <ele>15.5184</ele>
        <time>2014-06-01T13:36:52Z</time>
      </trkpt>
      <trkpt lat="59.875175" lon="17.6075254">
        <ele>15.5184</ele>
        <time>2014-06-01T13:36:53Z</time>
      </trkpt>
      <trkpt lat="59.8752244" lon="17.6074406">
        <ele>15.5184</ele>
        <time>2014-06-01T13:36:54Z</time>
      </trkpt>
      <trkpt lat="59.8752688" lon="17.6073453">
        <ele>15.5184</ele>
        <time>2014-06-01T13:36:55Z</time>
      </trkpt>
      <trkpt lat="59.8753077" lon="17.6072386">
        <ele>15.0377</ele>
        <time>2014-06-01T13:36:56Z</time>
      </trkpt>
      <trkpt lat="59.8753442" lon="17.6071218">
        <ele>14.557</ele>
        <time>2014-06-01T13:36:57Z</time>
      </trkpt>
      <trkpt lat="59.8753801" lon="17.6069979">
        <ele>14.557</ele>
        <time>2014-06-01T13:36:58Z</time>
      </trkpt>
      <trkpt lat="59.8754175" lon="17.6068722">
        <ele>14.0764</ele>
        <time>2014-06-01T13:36:59Z</time>
      </trkpt>
      <trkpt lat="59.875461" lon="17.6067516">
        <ele>13.5958</ele>
        <time>2014-06-01T13:37:00Z</time>
      </trkpt>
      <trkpt lat="59.8755115" lon="17.6066391">
        <ele>13.1151</ele>
        <time>2014-06-01T13:37:01Z</time>
      </trkpt>
      <trkpt lat="59.8755645" lon="17.6065317">
        <ele>12.6344</ele>
        <time>2014-06-01T13:37:02Z</time>
      </trkpt>
      <trkpt lat="59.8756174" lon="17.6064317">
        <ele>12.6344</ele>
        <time>2014-06-01T13:37:03Z</time>
      </trkpt>
      <trkpt lat="59.8756692" lon="17.6063371">
        <ele>12.1538</ele>
        <time>2014-06-01T13:37:04Z</time>
      </trkpt>
      <trkpt lat="59.8757211" lon="17.6062426">
        <ele>11.6732</ele>
        <time>2014-06-01T13:37:05Z</time>
      </trkpt>
      <trkpt lat="59.8757659" lon="17.6061774">
        <ele>12.1538</ele>
        <time>2014-06-01T13:37:08Z</time>
      </trkpt>
      <trkpt lat="59.8758089" lon="17.606088">
        <ele>12.1538</ele>
        <time>2014-06-01T13:37:09Z</time>
      </trkpt>
      <trkpt lat="59.8758541" lon="17.6060165">
        <ele>11.6732</ele>
        <time>2014-06-01T13:37:10Z</time>
      </trkpt>
      <trkpt lat="59.8758972" lon="17.6059522">
        <ele>11.1925</ele>
        <time>2014-06-01T13:37:11Z</time>
      </trkpt>
      <trkpt lat="59.8759411" lon="17.6058858">
        <ele>10.7118</ele>
        <time>2014-06-01T13:37:12Z</time>
      </trkpt>
      <trkpt lat="59.8759837" lon="17.6058133">
        <ele>11.1925</ele>
        <time>2014-06-01T13:37:13Z</time>
      </trkpt>
      <trkpt lat="59.8760264" lon="17.6057402">
        <ele>11.1925</ele>
        <time>2014-06-01T13:37:14Z</time>
      </trkpt>
      <trkpt lat="59.8760665" lon="17.6056654">
        <ele>11.6732</ele>
        <time>2014-06-01T13:37:15Z</time>
      </trkpt>
      <trkpt lat="59.876105" lon="17.6055943">
        <ele>11.6732</ele>
        <time>2014-06-01T13:37:16Z</time>
      </trkpt>
      <trkpt lat="59.8761384" lon="17.6055218">
        <ele>12.1538</ele>
        <time>2014-06-01T13:37:17Z</time>
      </trkpt>
      <trkpt lat="59.876172" lon="17.6054592">
        <ele>12.1538</ele>
        <time>2014-06-01T13:37:18Z</time>
      </trkpt>
      <trkpt lat="59.8762121" lon="17.6054327">
        <ele>12.6344</ele>
        <time>2014-06-01T13:37:19Z</time>
      </trkpt>
      <trkpt lat="59.8762478" lon="17.6054544">
        <ele>12.6344</ele>
        <time>2014-06-01T13:37:20Z</time>
      </trkpt>
      <trkpt lat="59.8762722" lon="17.6054985">
        <ele>12.6344</ele>
        <time>2014-06-01T13:37:21Z</time>
      </trkpt>
      <trkpt lat="59.8763028" lon="17.6055563">
        <ele>13.1151</ele>
        <time>2014-06-01T13:37:22Z</time>
      </trkpt>
      <trkpt lat="59.8763261" lon="17.6056153">
        <ele>13.1151</ele>
        <time>2014-06-01T13:37:23Z</time>
      </trkpt>
      <trkpt lat="59.87635" lon="17.6056715">
        <ele>13.1151</ele>
        <time>2014-06-01T13:37:24Z</time>
      </trkpt>
      <trkpt lat="59.8763754" lon="17.6057342">
        <ele>13.1151</ele>
        <time>2014-06-01T13:37:25Z</time>
      </trkpt>
      <trkpt lat="59.8764027" lon="17.6057994">
        <ele>13.1151</ele>
        <time>2014-06-01T13:37:26Z</time>
      </trkpt>
      <trkpt lat="59.8764332" lon="17.6058673">
        <ele>13.1151</ele>
        <time>2014-06-01T13:37:27Z</time>
      </trkpt>
      <trkpt lat="59.8764639" lon="17.6059425">
        <ele>12.6344</ele>
        <time>2014-06-01T13:37:28Z</time>
      </trkpt>
      <trkpt lat="59.8764966" lon="17.6060294">
        <ele>12.6344</ele>
        <time>2014-06-01T13:37:29Z</time>
      </trkpt>
      <trkpt lat="59.8765233" lon="17.606122">
        <ele>12.6344</ele>
        <time>2014-06-01T13:37:30Z</time>
      </trkpt>
      <trkpt lat="59.8765508" lon="17.6062181">
        <ele>12.6344</ele>
        <time>2014-06-01T13:37:31Z</time>
      </trkpt>
      <trkpt lat="59.8765769" lon="17.6063178">
        <ele>12.1538</ele>
        <time>2014-06-01T13:37:32Z</time>
      </trkpt>
      <trkpt lat="59.8765971" lon="17.6064183">
        <ele>12.1538</ele>
        <time>2014-06-01T13:37:33Z</time>
      </trkpt>
      <trkpt lat="59.8766185" lon="17.6065371">
        <ele>12.1538</ele>
        <time>2014-06-01T13:37:34Z</time>
      </trkpt>
      <trkpt lat="59.87664" lon="17.6066456">
        <ele>12.1538</ele>
        <time>2014-06-01T13:37:35Z</time>
      </trkpt>
      <trkpt lat="59.876668" lon="17.606752">
        <ele>11.6732</ele>
        <time>2014-06-01T13:37:36Z</time>
      </trkpt>
      <trkpt lat="59.8767004" lon="17.6068628">
        <ele>12.1538</ele>
        <time>2014-06-01T13:37:37Z</time>
      </trkpt>
      <trkpt lat="59.8767313" lon="17.6069674">
        <ele>12.6344</ele>
        <time>2014-06-01T13:37:38Z</time>
      </trkpt>
      <trkpt lat="59.8767611" lon="17.6070671">
        <ele>12.6344</ele>
        <time>2014-06-01T13:37:39Z</time>
      </trkpt>
      <trkpt lat="59.8767907" lon="17.6071652">
        <ele>12.6344</ele>
        <time>2014-06-01T13:37:40Z</time>
      </trkpt>
      <trkpt lat="59.8768187" lon="17.6072622">
        <ele>12.6344</ele>
        <time>2014-06-01T13:37:41Z</time>
      </trkpt>
      <trkpt lat="59.8768466" lon="17.6073597">
        <ele>12.6344</ele>
        <time>2014-06-01T13:37:42Z</time>
      </trkpt>
      <trkpt lat="59.8768765" lon="17.6074581">
        <ele>12.6344</ele>
        <time>2014-06-01T13:37:43Z</time>
      </trkpt>
      <trkpt lat="59.8769056" lon="17.6075573">
        <ele>12.6344</ele>
        <time>2014-06-01T13:37:44Z</time>
      </trkpt>
      <trkpt lat="59.8769345" lon="17.607657">
        <ele>12.6344</ele>
        <time>2014-06-01T13:37:45Z</time>
      </trkpt>
      <trkpt lat="59.8769627" lon="17.607758">
        <ele>13.1151</ele>
        <time>2014-06-01T13:37:46Z</time>
      </trkpt>
      <trkpt lat="59.876991" lon="17.6078593">
        <ele>13.1151</ele>
        <time>2014-06-01T13:37:47Z</time>
      </trkpt>
      <trkpt lat="59.8770203" lon="17.6079604">
        <ele>13.1151</ele>
        <time>2014-06-01T13:37:48Z</time>
      </trkpt>
      <trkpt lat="59.8770509" lon="17.6080617">
        <ele>13.1151</ele>
        <time>2014-06-01T13:37:49Z</time>
      </trkpt>
      <trkpt lat="59.877082" lon="17.6081624">
        <ele>13.1151</ele>
        <time>2014-06-01T13:37:50Z</time>
      </trkpt>
      <trkpt lat="59.8771115" lon="17.6082618">
        <ele>13.1151</ele>
        <time>2014-06-01T13:37:51Z</time>
      </trkpt>
      <trkpt lat="59.8771407" lon="17.6083618">
        <ele>13.1151</ele>
        <time>2014-06-01T13:37:52Z</time>
      </trkpt>
      <trkpt lat="59.8771704" lon="17.6084614">
        <ele>13.1151</ele>
        <time>2014-06-01T13:37:53Z</time>
      </trkpt>
      <trkpt lat="59.8772005" lon="17.6085599">
        <ele>13.1151</ele>
        <time>2014-06-01T13:37:54Z</time>
      </trkpt>
      <trkpt lat="59.8772305" lon="17.6086583">
        <ele>13.1151</ele>
        <time>2014-06-01T13:37:55Z</time>
      </trkpt>
      <trkpt lat="59.8772601" lon="17.6087578">
        <ele>13.1151</ele>
        <time>2014-06-01T13:37:56Z</time>
      </trkpt>
      <trkpt lat="59.8772897" lon="17.6088584">
        <ele>13.1151</ele>
        <time>2014-06-01T13:37:57Z</time>
      </trkpt>
      <trkpt lat="59.8773202" lon="17.6089599">
        <ele>13.5958</ele>
        <time>2014-06-01T13:37:58Z</time>
      </trkpt>
      <trkpt lat="59.8773507" lon="17.6090638">
        <ele>13.5958</ele>
        <time>2014-06-01T13:37:59Z</time>
      </trkpt>
      <trkpt lat="59.8773823" lon="17.609167">
        <ele>13.5958</ele>
        <time>2014-06-01T13:38:00Z</time>
      </trkpt>
      <trkpt lat="59.8774138" lon="17.609269">
        <ele>13.5958</ele>
        <time>2014-06-01T13:38:01Z</time>
      </trkpt>
      <trkpt lat="59.8774463" lon="17.6093678">
        <ele>13.5958</ele>
        <time>2014-06-01T13:38:02Z</time>
      </trkpt>
      <trkpt lat="59.8774792" lon="17.609466">
        <ele>14.0764</ele>
        <time>2014-06-01T13:38:03Z</time>
      </trkpt>
      <trkpt lat="59.8775137" lon="17.6095717">
        <ele>14.0764</ele>
        <time>2014-06-01T13:38:04Z</time>
      </trkpt>
      <trkpt lat="59.8775437" lon="17.6096634">
        <ele>14.557</ele>
        <time>2014-06-01T13:38:05Z</time>
      </trkpt>
      <trkpt lat="59.8775709" lon="17.6097477">
        <ele>14.557</ele>
        <time>2014-06-01T13:38:06Z</time>
      </trkpt>
      <trkpt lat="59.877593" lon="17.6098179">
        <ele>15.0377</ele>
        <time>2014-06-01T13:38:07Z</time>
      </trkpt>
      <trkpt lat="59.8776127" lon="17.6098812">
        <ele>15.0377</ele>
        <time>2014-06-01T13:38:08Z</time>
      </trkpt>
      <trkpt lat="59.8776315" lon="17.6099433">
        <ele>15.0377</ele>
        <time>2014-06-01T13:38:09Z</time>
      </trkpt>
      <trkpt lat="59.8776465" lon="17.6100053">
        <ele>15.0377</ele>
        <time>2014-06-01T13:38:10Z</time>
      </trkpt>
      <trkpt lat="59.8776592" lon="17.6100669">
        <ele>15.0377</ele>
        <time>2014-06-01T13:38:11Z</time>
      </trkpt>
      <trkpt lat="59.8776727" lon="17.6101253">
        <ele>15.0377</ele>
        <time>2014-06-01T13:38:12Z</time>
      </trkpt>
      <trkpt lat="59.8776843" lon="17.6101823">
        <ele>15.0377</ele>
        <time>2014-06-01T13:38:13Z</time>
      </trkpt>
      <trkpt lat="59.8776952" lon="17.6102362">
        <ele>14.557</ele>
        <time>2014-06-01T13:38:14Z</time>
      </trkpt>
      <trkpt lat="59.8777064" lon="17.6102894">
        <ele>14.0764</ele>
        <time>2014-06-01T13:38:15Z</time>
      </trkpt>
      <trkpt lat="59.8777181" lon="17.6103414">
        <ele>13.5958</ele>
        <time>2014-06-01T13:38:16Z</time>
      </trkpt>
      <trkpt lat="59.8777288" lon="17.6103952">
        <ele>13.5958</ele>
        <time>2014-06-01T13:38:17Z</time>
      </trkpt>
      <trkpt lat="59.8777395" lon="17.6104509">
        <ele>12.6344</ele>
        <time>2014-06-01T13:38:18Z</time>
      </trkpt>
      <trkpt lat="59.8777495" lon="17.6105045">
        <ele>12.1538</ele>
        <time>2014-06-01T13:38:19Z</time>
      </trkpt>
      <trkpt lat="59.87776" lon="17.6105608">
        <ele>11.6732</ele>
        <time>2014-06-01T13:38:20Z</time>
      </trkpt>
      <trkpt lat="59.8777791" lon="17.6106133">
        <ele>11.6732</ele>
        <time>2014-06-01T13:38:21Z</time>
      </trkpt>
      <trkpt lat="59.8778029" lon="17.6106654">
        <ele>11.6732</ele>
        <time>2014-06-01T13:38:22Z</time>
      </trkpt>
      <trkpt lat="59.8778281" lon="17.6107164">
        <ele>12.1538</ele>
        <time>2014-06-01T13:38:23Z</time>
      </trkpt>
      <trkpt lat="59.8778447" lon="17.6107727">
        <ele>12.1538</ele>
        <time>2014-06-01T13:38:24Z</time>
      </trkpt>
      <trkpt lat="59.8778553" lon="17.6108291">
        <ele>11.6732</ele>
        <time>2014-06-01T13:38:25Z</time>
      </trkpt>
      <trkpt lat="59.8778494" lon="17.6108773">
        <ele>12.1538</ele>
        <time>2014-06-01T13:38:26Z</time>
      </trkpt>
      <trkpt lat="59.8778345" lon="17.6109164">
        <ele>12.1538</ele>
        <time>2014-06-01T13:38:27Z</time>
      </trkpt>
      <trkpt lat="59.8778169" lon="17.6109498">
        <ele>12.6344</ele>
        <time>2014-06-01T13:38:28Z</time>
      </trkpt>
      <trkpt lat="59.8777972" lon="17.6109744">
        <ele>12.6344</ele>
        <time>2014-06-01T13:38:29Z</time>
      </trkpt>
      <trkpt lat="59.8777832" lon="17.6109918">
        <ele>12.6344</ele>
        <time>2014-06-01T13:38:30Z</time>
      </trkpt>
      <trkpt lat="59.8777792" lon="17.6109981">
        <ele>13.1151</ele>
        <time>2014-06-01T13:38:31Z</time>
      </trkpt>
      <trkpt lat="59.8777797" lon="17.6109992">
        <ele>13.5958</ele>
        <time>2014-06-01T13:38:32Z</time>
      </trkpt>
      <trkpt lat="59.877781" lon="17.6109986">
        <ele>13.5958</ele>
        <time>2014-06-01T13:38:33Z</time>
      </trkpt>
      <trkpt lat="59.8777604" lon="17.6109935">
        <ele>22.2476</ele>
        <time>2014-06-01T13:40:00Z</time>
      </trkpt>
      <trkpt lat="59.8777335" lon="17.6110106">
        <ele>21.767</ele>
        <time>2014-06-01T13:40:01Z</time>
      </trkpt>
      <trkpt lat="59.8776996" lon="17.6110373">
        <ele>21.767</ele>
        <time>2014-06-01T13:40:02Z</time>
      </trkpt>
      <trkpt lat="59.8776616" lon="17.6110728">
        <ele>21.767</ele>
        <time>2014-06-01T13:40:03Z</time>
      </trkpt>
      <trkpt lat="59.8776238" lon="17.6111182">
        <ele>21.767</ele>
        <time>2014-06-01T13:40:04Z</time>
      </trkpt>
      <trkpt lat="59.8775854" lon="17.6111689">
        <ele>21.2864</ele>
        <time>2014-06-01T13:40:05Z</time>
      </trkpt>
      <trkpt lat="59.8775437" lon="17.6112176">
        <ele>21.2864</ele>
        <time>2014-06-01T13:40:06Z</time>
      </trkpt>
      <trkpt lat="59.8774994" lon="17.6112638">
        <ele>20.8057</ele>
        <time>2014-06-01T13:40:07Z</time>
      </trkpt>
      <trkpt lat="59.8774558" lon="17.6113075">
        <ele>20.325</ele>
        <time>2014-06-01T13:40:08Z</time>
      </trkpt>
      <trkpt lat="59.8774119" lon="17.611345">
        <ele>19.8444</ele>
        <time>2014-06-01T13:40:09Z</time>
      </trkpt>
      <trkpt lat="59.8773687" lon="17.6113793">
        <ele>19.8444</ele>
        <time>2014-06-01T13:40:10Z</time>
      </trkpt>
      <trkpt lat="59.8773326" lon="17.6114254">
        <ele>19.3638</ele>
        <time>2014-06-01T13:40:11Z</time>
      </trkpt>
      <trkpt lat="59.8773148" lon="17.6114899">
        <ele>18.8831</ele>
        <time>2014-06-01T13:40:12Z</time>
      </trkpt>
      <trkpt lat="59.8773247" lon="17.6115752">
        <ele>18.4023</ele>
        <time>2014-06-01T13:40:13Z</time>
      </trkpt>
      <trkpt lat="59.8773551" lon="17.6116317">
        <ele>17.9218</ele>
        <time>2014-06-01T13:40:14Z</time>
      </trkpt>
      <trkpt lat="59.8773947" lon="17.6116825">
        <ele>17.9218</ele>
        <time>2014-06-01T13:40:15Z</time>
      </trkpt>
      <trkpt lat="59.8774362" lon="17.6117357">
        <ele>17.9218</ele>
        <time>2014-06-01T13:40:16Z</time>
      </trkpt>
      <trkpt lat="59.8774771" lon="17.6117907">
        <ele>17.9218</ele>
        <time>2014-06-01T13:40:17Z</time>
      </trkpt>
      <trkpt lat="59.877517" lon="17.6118506">
        <ele>17.9218</ele>
        <time>2014-06-01T13:40:18Z</time>
      </trkpt>
      <trkpt lat="59.8775562" lon="17.611913">
        <ele>17.9218</ele>
        <time>2014-06-01T13:40:19Z</time>
      </trkpt>
      <trkpt lat="59.8775942" lon="17.6119798">
        <ele>17.9218</ele>
        <time>2014-06-01T13:40:20Z</time>
      </trkpt>
      <trkpt lat="59.87763" lon="17.6120533">
        <ele>17.9218</ele>
        <time>2014-06-01T13:40:21Z</time>
      </trkpt>
      <trkpt lat="59.8776636" lon="17.6121325">
        <ele>17.9218</ele>
        <time>2014-06-01T13:40:22Z</time>
      </trkpt>
      <trkpt lat="59.8776968" lon="17.6122155">
        <ele>17.9218</ele>
        <time>2014-06-01T13:40:23Z</time>
      </trkpt>
      <trkpt lat="59.8777313" lon="17.6123015">
        <ele>17.9218</ele>
        <time>2014-06-01T13:40:24Z</time>
      </trkpt>
      <trkpt lat="59.8777656" lon="17.6123926">
        <ele>17.9218</ele>
        <time>2014-06-01T13:40:25Z</time>
      </trkpt>
      <trkpt lat="59.8777991" lon="17.6124894">
        <ele>17.9218</ele>
        <time>2014-06-01T13:40:26Z</time>
      </trkpt>
      <trkpt lat="59.8778319" lon="17.6125895">
        <ele>17.9218</ele>
        <time>2014-06-01T13:40:27Z</time>
      </trkpt>
      <trkpt lat="59.877864" lon="17.6126917">
        <ele>17.9218</ele>
        <time>2014-06-01T13:40:28Z</time>
      </trkpt>
      <trkpt lat="59.8778959" lon="17.6127939">
        <ele>17.9218</ele>
        <time>2014-06-01T13:40:29Z</time>
      </trkpt>
      <trkpt lat="59.8779279" lon="17.6128956">
        <ele>17.4412</ele>
        <time>2014-06-01T13:40:30Z</time>
      </trkpt>
      <trkpt lat="59.8779625" lon="17.6129926">
        <ele>17.4412</ele>
        <time>2014-06-01T13:40:31Z</time>
      </trkpt>
      <trkpt lat="59.8779986" lon="17.6130841">
        <ele>17.4412</ele>
        <time>2014-06-01T13:40:32Z</time>
      </trkpt>
      <trkpt lat="59.8780319" lon="17.6131764">
        <ele>17.9218</ele>
        <time>2014-06-01T13:40:33Z</time>
      </trkpt>
      <trkpt lat="59.8780603" lon="17.6132696">
        <ele>17.9218</ele>
        <time>2014-06-01T13:40:34Z</time>
      </trkpt>
      <trkpt lat="59.8780858" lon="17.6133609">
        <ele>17.9218</ele>
        <time>2014-06-01T13:40:35Z</time>
      </trkpt>
      <trkpt lat="59.8781122" lon="17.6134499">
        <ele>17.9218</ele>
        <time>2014-06-01T13:40:36Z</time>
      </trkpt>
      <trkpt lat="59.8781384" lon="17.6135391">
        <ele>17.9218</ele>
        <time>2014-06-01T13:40:37Z</time>
      </trkpt>
      <trkpt lat="59.8781635" lon="17.6136298">
        <ele>17.9218</ele>
        <time>2014-06-01T13:40:38Z</time>
      </trkpt>
      <trkpt lat="59.8781874" lon="17.6137223">
        <ele>17.9218</ele>
        <time>2014-06-01T13:40:39Z</time>
      </trkpt>
      <trkpt lat="59.8782126" lon="17.6138149">
        <ele>17.9218</ele>
        <time>2014-06-01T13:40:40Z</time>
      </trkpt>
      <trkpt lat="59.8782383" lon="17.6139077">
        <ele>17.9218</ele>
        <time>2014-06-01T13:40:41Z</time>
      </trkpt>
      <trkpt lat="59.878265" lon="17.6140016">
        <ele>17.9218</ele>
        <time>2014-06-01T13:40:42Z</time>
      </trkpt>
      <trkpt lat="59.8782904" lon="17.6140954">
        <ele>17.9218</ele>
        <time>2014-06-01T13:40:43Z</time>
      </trkpt>
      <trkpt lat="59.8783155" lon="17.6141902">
        <ele>17.9218</ele>
        <time>2014-06-01T13:40:44Z</time>
      </trkpt>
      <trkpt lat="59.8783396" lon="17.6142843">
        <ele>17.9218</ele>
        <time>2014-06-01T13:40:45Z</time>
      </trkpt>
      <trkpt lat="59.8783647" lon="17.6143787">
        <ele>17.9218</ele>
        <time>2014-06-01T13:40:46Z</time>
      </trkpt>
      <trkpt lat="59.8783902" lon="17.6144745">
        <ele>17.9218</ele>
        <time>2014-06-01T13:40:47Z</time>
      </trkpt>
      <trkpt lat="59.8784157" lon="17.6145712">
        <ele>17.9218</ele>
        <time>2014-06-01T13:40:48Z</time>
      </trkpt>
      <trkpt lat="59.8784399" lon="17.6146688">
        <ele>17.9218</ele>
        <time>2014-06-01T13:40:49Z</time>
      </trkpt>
      <trkpt lat="59.8784694" lon="17.614766">
        <ele>18.4023</ele>
        <time>2014-06-01T13:40:50Z</time>
      </trkpt>
      <trkpt lat="59.878496" lon="17.6148649">
        <ele>18.4023</ele>
        <time>2014-06-01T13:40:51Z</time>
      </trkpt>
      <trkpt lat="59.8785209" lon="17.6149662">
        <ele>18.4023</ele>
        <time>2014-06-01T13:40:52Z</time>
      </trkpt>
      <trkpt lat="59.8785437" lon="17.6150695">
        <ele>17.9218</ele>
        <time>2014-06-01T13:40:53Z</time>
      </trkpt>
      <trkpt lat="59.878567" lon="17.6151723">
        <ele>17.9218</ele>
        <time>2014-06-01T13:40:54Z</time>
      </trkpt>
      <trkpt lat="59.8785892" lon="17.6152759">
        <ele>17.9218</ele>
        <time>2014-06-01T13:40:55Z</time>
      </trkpt>
      <trkpt lat="59.8786104" lon="17.6153814">
        <ele>17.9218</ele>
        <time>2014-06-01T13:40:56Z</time>
      </trkpt>
      <trkpt lat="59.8786328" lon="17.6154871">
        <ele>17.9218</ele>
        <time>2014-06-01T13:40:57Z</time>
      </trkpt>
      <trkpt lat="59.8786571" lon="17.6155941">
        <ele>17.9218</ele>
        <time>2014-06-01T13:40:58Z</time>
      </trkpt>
      <trkpt lat="59.8786814" lon="17.6157038">
        <ele>17.9218</ele>
        <time>2014-06-01T13:40:59Z</time>
      </trkpt>
      <trkpt lat="59.8787053" lon="17.6158141">
        <ele>17.9218</ele>
        <time>2014-06-01T13:41:00Z</time>
      </trkpt>
      <trkpt lat="59.8787285" lon="17.6159255">
        <ele>17.4412</ele>
        <time>2014-06-01T13:41:01Z</time>
      </trkpt>
      <trkpt lat="59.8787531" lon="17.6160377">
        <ele>17.4412</ele>
        <time>2014-06-01T13:41:02Z</time>
      </trkpt>
      <trkpt lat="59.8787788" lon="17.6161493">
        <ele>17.4412</ele>
        <time>2014-06-01T13:41:03Z</time>
      </trkpt>
      <trkpt lat="59.8788047" lon="17.6162591">
        <ele>17.4412</ele>
        <time>2014-06-01T13:41:04Z</time>
      </trkpt>
      <trkpt lat="59.8788316" lon="17.6163673">
        <ele>17.9218</ele>
        <time>2014-06-01T13:41:05Z</time>
      </trkpt>
      <trkpt lat="59.8788591" lon="17.6164745">
        <ele>17.9218</ele>
        <time>2014-06-01T13:41:06Z</time>
      </trkpt>
      <trkpt lat="59.8788862" lon="17.6165823">
        <ele>17.9218</ele>
        <time>2014-06-01T13:41:07Z</time>
      </trkpt>
      <trkpt lat="59.8789098" lon="17.6166902">
        <ele>17.9218</ele>
        <time>2014-06-01T13:41:08Z</time>
      </trkpt>
      <trkpt lat="59.8789294" lon="17.6167994">
        <ele>17.9218</ele>
        <time>2014-06-01T13:41:09Z</time>
      </trkpt>
      <trkpt lat="59.8789496" lon="17.6169079">
        <ele>17.9218</ele>
        <time>2014-06-01T13:41:10Z</time>
      </trkpt>
      <trkpt lat="59.8789711" lon="17.6170128">
        <ele>17.9218</ele>
        <time>2014-06-01T13:41:11Z</time>
      </trkpt>
      <trkpt lat="59.8789929" lon="17.6171142">
        <ele>17.9218</ele>
        <time>2014-06-01T13:41:12Z</time>
      </trkpt>
      <trkpt lat="59.8790133" lon="17.6172141">
        <ele>17.9218</ele>
        <time>2014-06-01T13:41:13Z</time>
      </trkpt>
      <trkpt lat="59.8790338" lon="17.6173118">
        <ele>18.4023</ele>
        <time>2014-06-01T13:41:14Z</time>
      </trkpt>
      <trkpt lat="59.8790569" lon="17.6174057">
        <ele>17.9218</ele>
        <time>2014-06-01T13:41:15Z</time>
      </trkpt>
      <trkpt lat="59.8790824" lon="17.6174993">
        <ele>17.9218</ele>
        <time>2014-06-01T13:41:16Z</time>
      </trkpt>
      <trkpt lat="59.8791073" lon="17.6175965">
        <ele>17.9218</ele>
        <time>2014-06-01T13:41:17Z</time>
      </trkpt>
      <trkpt lat="59.8791304" lon="17.6176961">
        <ele>17.9218</ele>
        <time>2014-06-01T13:41:18Z</time>
      </trkpt>
      <trkpt lat="59.8791526" lon="17.6177951">
        <ele>18.4023</ele>
        <time>2014-06-01T13:41:19Z</time>
      </trkpt>
      <trkpt lat="59.8791734" lon="17.6178928">
        <ele>18.4023</ele>
        <time>2014-06-01T13:41:20Z</time>
      </trkpt>
      <trkpt lat="59.8791943" lon="17.6179893">
        <ele>18.4023</ele>
        <time>2014-06-01T13:41:21Z</time>
      </trkpt>
      <trkpt lat="59.8792148" lon="17.6180845">
        <ele>18.4023</ele>
        <time>2014-06-01T13:41:22Z</time>
      </trkpt>
      <trkpt lat="59.8792342" lon="17.6181793">
        <ele>18.4023</ele>
        <time>2014-06-01T13:41:23Z</time>
      </trkpt>
      <trkpt lat="59.8792528" lon="17.6182743">
        <ele>18.4023</ele>
        <time>2014-06-01T13:41:24Z</time>
      </trkpt>
      <trkpt lat="59.8792708" lon="17.6183699">
        <ele>18.4023</ele>
        <time>2014-06-01T13:41:25Z</time>
      </trkpt>
      <trkpt lat="59.879287" lon="17.6184678">
        <ele>18.4023</ele>
        <time>2014-06-01T13:41:26Z</time>
      </trkpt>
      <trkpt lat="59.879299" lon="17.6185679">
        <ele>18.4023</ele>
        <time>2014-06-01T13:41:27Z</time>
      </trkpt>
      <trkpt lat="59.8793088" lon="17.6186682">
        <ele>18.4023</ele>
        <time>2014-06-01T13:41:28Z</time>
      </trkpt>
      <trkpt lat="59.8793215" lon="17.6187627">
        <ele>18.8831</ele>
        <time>2014-06-01T13:41:29Z</time>
      </trkpt>
      <trkpt lat="59.8793398" lon="17.6188541">
        <ele>18.8831</ele>
        <time>2014-06-01T13:41:30Z</time>
      </trkpt>
      <trkpt lat="59.8793643" lon="17.6189427">
        <ele>18.8831</ele>
        <time>2014-06-01T13:41:31Z</time>
      </trkpt>
      <trkpt lat="59.8793854" lon="17.6190311">
        <ele>18.8831</ele>
        <time>2014-06-01T13:41:32Z</time>
      </trkpt>
      <trkpt lat="59.8794061" lon="17.6191225">
        <ele>18.8831</ele>
        <time>2014-06-01T13:41:33Z</time>
      </trkpt>
      <trkpt lat="59.8794264" lon="17.6192138">
        <ele>18.8831</ele>
        <time>2014-06-01T13:41:34Z</time>
      </trkpt>
      <trkpt lat="59.8794482" lon="17.6193063">
        <ele>18.4023</ele>
        <time>2014-06-01T13:41:35Z</time>
      </trkpt>
      <trkpt lat="59.8794692" lon="17.6194013">
        <ele>18.4023</ele>
        <time>2014-06-01T13:41:36Z</time>
      </trkpt>
      <trkpt lat="59.8794894" lon="17.6194972">
        <ele>18.4023</ele>
        <time>2014-06-01T13:41:37Z</time>
      </trkpt>
      <trkpt lat="59.8795116" lon="17.619595">
        <ele>18.4023</ele>
        <time>2014-06-01T13:41:38Z</time>
      </trkpt>
      <trkpt lat="59.8795352" lon="17.6196934">
        <ele>18.4023</ele>
        <time>2014-06-01T13:41:39Z</time>
      </trkpt>
      <trkpt lat="59.879559" lon="17.6197915">
        <ele>18.4023</ele>
        <time>2014-06-01T13:41:40Z</time>
      </trkpt>
      <trkpt lat="59.8795839" lon="17.6198906">
        <ele>18.8831</ele>
        <time>2014-06-01T13:41:41Z</time>
      </trkpt>
      <trkpt lat="59.8796088" lon="17.6199889">
        <ele>18.8831</ele>
        <time>2014-06-01T13:41:42Z</time>
      </trkpt>
      <trkpt lat="59.8796329" lon="17.6200872">
        <ele>19.3638</ele>
        <time>2014-06-01T13:41:43Z</time>
      </trkpt>
      <trkpt lat="59.8796543" lon="17.6201862">
        <ele>19.3638</ele>
        <time>2014-06-01T13:41:44Z</time>
      </trkpt>
      <trkpt lat="59.8796787" lon="17.620288">
        <ele>19.8444</ele>
        <time>2014-06-01T13:41:45Z</time>
      </trkpt>
      <trkpt lat="59.8797045" lon="17.6203895">
        <ele>19.8444</ele>
        <time>2014-06-01T13:41:46Z</time>
      </trkpt>
      <trkpt lat="59.8797315" lon="17.6204884">
        <ele>20.325</ele>
        <time>2014-06-01T13:41:47Z</time>
      </trkpt>
      <trkpt lat="59.8797574" lon="17.6205848">
        <ele>20.325</ele>
        <time>2014-06-01T13:41:48Z</time>
      </trkpt>
      <trkpt lat="59.8797842" lon="17.6206792">
        <ele>20.325</ele>
        <time>2014-06-01T13:41:49Z</time>
      </trkpt>
      <trkpt lat="59.8798081" lon="17.6207733">
        <ele>20.325</ele>
        <time>2014-06-01T13:41:50Z</time>
      </trkpt>
      <trkpt lat="59.8798294" lon="17.6208632">
        <ele>20.325</ele>
        <time>2014-06-01T13:41:51Z</time>
      </trkpt>
      <trkpt lat="59.8798371" lon="17.6209492">
        <ele>20.325</ele>
        <time>2014-06-01T13:41:52Z</time>
      </trkpt>
      <trkpt lat="59.8798235" lon="17.6210284">
        <ele>20.325</ele>
        <time>2014-06-01T13:41:53Z</time>
      </trkpt>
      <trkpt lat="59.8797946" lon="17.6210942">
        <ele>20.325</ele>
        <time>2014-06-01T13:41:54Z</time>
      </trkpt>
      <trkpt lat="59.8797589" lon="17.6211466">
        <ele>20.325</ele>
        <time>2014-06-01T13:41:55Z</time>
      </trkpt>
      <trkpt lat="59.8797206" lon="17.6212095">
        <ele>20.325</ele>
        <time>2014-06-01T13:41:56Z</time>
      </trkpt>
      <trkpt lat="59.8796816" lon="17.6212744">
        <ele>20.325</ele>
        <time>2014-06-01T13:41:57Z</time>
      </trkpt>
      <trkpt lat="59.8796397" lon="17.6213367">
        <ele>20.325</ele>
        <time>2014-06-01T13:41:58Z</time>
      </trkpt>
      <trkpt lat="59.8795961" lon="17.621395">
        <ele>20.8057</ele>
        <time>2014-06-01T13:41:59Z</time>
      </trkpt>
      <trkpt lat="59.8795544" lon="17.6214567">
        <ele>21.2864</ele>
        <time>2014-06-01T13:42:00Z</time>
      </trkpt>
      <trkpt lat="59.8795186" lon="17.6215222">
        <ele>21.2864</ele>
        <time>2014-06-01T13:42:01Z</time>
      </trkpt>
      <trkpt lat="59.8794744" lon="17.6215884">
        <ele>21.767</ele>
        <time>2014-06-01T13:42:02Z</time>
      </trkpt>
      <trkpt lat="59.8794274" lon="17.6216562">
        <ele>21.767</ele>
        <time>2014-06-01T13:42:03Z</time>
      </trkpt>
      <trkpt lat="59.8793777" lon="17.6217231">
        <ele>21.767</ele>
        <time>2014-06-01T13:42:04Z</time>
      </trkpt>
      <trkpt lat="59.879328" lon="17.621792">
        <ele>21.767</ele>
        <time>2014-06-01T13:42:05Z</time>
      </trkpt>
      <trkpt lat="59.8792816" lon="17.6218572">
        <ele>21.767</ele>
        <time>2014-06-01T13:42:06Z</time>
      </trkpt>
      <trkpt lat="59.8792412" lon="17.6219187">
        <ele>22.2476</ele>
        <time>2014-06-01T13:42:07Z</time>
      </trkpt>
      <trkpt lat="59.879203" lon="17.6219805">
        <ele>22.2476</ele>
        <time>2014-06-01T13:42:08Z</time>
      </trkpt>
      <trkpt lat="59.8791643" lon="17.6220419">
        <ele>22.2476</ele>
        <time>2014-06-01T13:42:09Z</time>
      </trkpt>
      <trkpt lat="59.879132" lon="17.6221007">
        <ele>22.2476</ele>
        <time>2014-06-01T13:42:10Z</time>
      </trkpt>
      <trkpt lat="59.8791057" lon="17.6221607">
        <ele>22.2476</ele>
        <time>2014-06-01T13:42:11Z</time>
      </trkpt>
      <trkpt lat="59.8790835" lon="17.6222202">
        <ele>22.7283</ele>
        <time>2014-06-01T13:42:12Z</time>
      </trkpt>
      <trkpt lat="59.8790679" lon="17.6222643">
        <ele>22.2476</ele>
        <time>2014-06-01T13:42:13Z</time>
      </trkpt>
      <trkpt lat="59.8790595" lon="17.6222964">
        <ele>22.7283</ele>
        <time>2014-06-01T13:42:14Z</time>
      </trkpt>
      <trkpt lat="59.8790533" lon="17.622326">
        <ele>22.7283</ele>
        <time>2014-06-01T13:42:15Z</time>
      </trkpt>
      <trkpt lat="59.8790513" lon="17.6223497">
        <ele>22.7283</ele>
        <time>2014-06-01T13:42:16Z</time>
      </trkpt>
      <trkpt lat="59.8790554" lon="17.6223694">
        <ele>23.209</ele>
        <time>2014-06-01T13:42:17Z</time>
      </trkpt>
      <trkpt lat="59.8790663" lon="17.6223685">
        <ele>22.7283</ele>
        <time>2014-06-01T13:42:18Z</time>
      </trkpt>
      <trkpt lat="59.8790761" lon="17.622346">
        <ele>23.209</ele>
        <time>2014-06-01T13:42:19Z</time>
      </trkpt>
      <trkpt lat="59.8790719" lon="17.6223189">
        <ele>23.209</ele>
        <time>2014-06-01T13:42:20Z</time>
      </trkpt>
      <trkpt lat="59.8790559" lon="17.6223058">
        <ele>23.209</ele>
        <time>2014-06-01T13:42:21Z</time>
      </trkpt>
      <trkpt lat="59.8790435" lon="17.6223296">
        <ele>23.209</ele>
        <time>2014-06-01T13:42:22Z</time>
      </trkpt>
      <trkpt lat="59.8790424" lon="17.6223678">
        <ele>23.209</ele>
        <time>2014-06-01T13:42:23Z</time>
      </trkpt>
      <trkpt lat="59.8790445" lon="17.6224136">
        <ele>23.209</ele>
        <time>2014-06-01T13:42:24Z</time>
      </trkpt>
      <trkpt lat="59.8790475" lon="17.6224715">
        <ele>23.209</ele>
        <time>2014-06-01T13:42:25Z</time>
      </trkpt>
      <trkpt lat="59.8790509" lon="17.622541">
        <ele>23.6896</ele>
        <time>2014-06-01T13:42:26Z</time>
      </trkpt>
      <trkpt lat="59.879055" lon="17.6226175">
        <ele>23.6896</ele>
        <time>2014-06-01T13:42:27Z</time>
      </trkpt>
      <trkpt lat="59.8790672" lon="17.6226838">
        <ele>24.1703</ele>
        <time>2014-06-01T13:42:28Z</time>
      </trkpt>
      <trkpt lat="59.8790807" lon="17.6227547">
        <ele>23.6896</ele>
        <time>2014-06-01T13:42:29Z</time>
      </trkpt>
      <trkpt lat="59.8790948" lon="17.6228387">
        <ele>23.209</ele>
        <time>2014-06-01T13:42:30Z</time>
      </trkpt>
      <trkpt lat="59.87911" lon="17.622933">
        <ele>23.6896</ele>
        <time>2014-06-01T13:42:31Z</time>
      </trkpt>
      <trkpt lat="59.8791264" lon="17.6230228">
        <ele>23.6896</ele>
        <time>2014-06-01T13:42:32Z</time>
      </trkpt>
      <trkpt lat="59.8791384" lon="17.6231041">
        <ele>23.209</ele>
        <time>2014-06-01T13:42:33Z</time>
      </trkpt>
      <trkpt lat="59.8791488" lon="17.6231864">
        <ele>23.209</ele>
        <time>2014-06-01T13:42:34Z</time>
      </trkpt>
      <trkpt lat="59.8791601" lon="17.623272">
        <ele>23.209</ele>
        <time>2014-06-01T13:42:35Z</time>
      </trkpt>
      <trkpt lat="59.8791735" lon="17.6233528">
        <ele>23.209</ele>
        <time>2014-06-01T13:42:36Z</time>
      </trkpt>
      <trkpt lat="59.8791762" lon="17.6234495">
        <ele>23.6896</ele>
        <time>2014-06-01T13:42:37Z</time>
      </trkpt>
      <trkpt lat="59.8791777" lon="17.6235371">
        <ele>24.1703</ele>
        <time>2014-06-01T13:42:38Z</time>
      </trkpt>
      <trkpt lat="59.8791791" lon="17.6236204">
        <ele>24.651</ele>
        <time>2014-06-01T13:42:39Z</time>
      </trkpt>
      <trkpt lat="59.8791806" lon="17.6237059">
        <ele>25.1317</ele>
        <time>2014-06-01T13:42:40Z</time>
      </trkpt>
      <trkpt lat="59.8791864" lon="17.623803">
        <ele>25.6123</ele>
        <time>2014-06-01T13:42:41Z</time>
      </trkpt>
      <trkpt lat="59.8791905" lon="17.6239023">
        <ele>25.6123</ele>
        <time>2014-06-01T13:42:42Z</time>
      </trkpt>
      <trkpt lat="59.8791899" lon="17.623994">
        <ele>25.1317</ele>
        <time>2014-06-01T13:42:43Z</time>
      </trkpt>
      <trkpt lat="59.8791982" lon="17.6240815">
        <ele>24.651</ele>
        <time>2014-06-01T13:42:44Z</time>
      </trkpt>
      <trkpt lat="59.8792128" lon="17.6241738">
        <ele>24.1703</ele>
        <time>2014-06-01T13:42:45Z</time>
      </trkpt>
      <trkpt lat="59.8792226" lon="17.6242664">
        <ele>24.1703</ele>
        <time>2014-06-01T13:42:46Z</time>
      </trkpt>
      <trkpt lat="59.8792358" lon="17.6243567">
        <ele>24.1703</ele>
        <time>2014-06-01T13:42:47Z</time>
      </trkpt>
      <trkpt lat="59.8792606" lon="17.6244483">
        <ele>25.1317</ele>
        <time>2014-06-01T13:42:48Z</time>
      </trkpt>
      <trkpt lat="59.8792768" lon="17.6245439">
        <ele>26.0929</ele>
        <time>2014-06-01T13:42:49Z</time>
      </trkpt>
      <trkpt lat="59.8792926" lon="17.624644">
        <ele>26.5736</ele>
        <time>2014-06-01T13:42:50Z</time>
      </trkpt>
      <trkpt lat="59.8793083" lon="17.6247426">
        <ele>27.0543</ele>
        <time>2014-06-01T13:42:51Z</time>
      </trkpt>
      <trkpt lat="59.8793217" lon="17.6248418">
        <ele>27.5349</ele>
        <time>2014-06-01T13:42:52Z</time>
      </trkpt>
      <trkpt lat="59.8793269" lon="17.6249446">
        <ele>27.5349</ele>
        <time>2014-06-01T13:42:53Z</time>
      </trkpt>
      <trkpt lat="59.8793241" lon="17.6250476">
        <ele>28.0155</ele>
        <time>2014-06-01T13:42:54Z</time>
      </trkpt>
      <trkpt lat="59.8793223" lon="17.6251486">
        <ele>28.0155</ele>
        <time>2014-06-01T13:42:55Z</time>
      </trkpt>
      <trkpt lat="59.8793208" lon="17.6252466">
        <ele>28.0155</ele>
        <time>2014-06-01T13:42:56Z</time>
      </trkpt>
      <trkpt lat="59.8793192" lon="17.6253463">
        <ele>27.5349</ele>
        <time>2014-06-01T13:42:57Z</time>
      </trkpt>
      <trkpt lat="59.8793145" lon="17.6254447">
        <ele>27.5349</ele>
        <time>2014-06-01T13:42:58Z</time>
      </trkpt>
      <trkpt lat="59.8793008" lon="17.6255299">
        <ele>27.5349</ele>
        <time>2014-06-01T13:42:59Z</time>
      </trkpt>
      <trkpt lat="59.8792786" lon="17.6255894">
        <ele>27.0543</ele>
        <time>2014-06-01T13:43:00Z</time>
      </trkpt>
      <trkpt lat="59.8792486" lon="17.6256339">
        <ele>27.0543</ele>
        <time>2014-06-01T13:43:01Z</time>
      </trkpt>
      <trkpt lat="59.879215" lon="17.6256843">
        <ele>26.5736</ele>
        <time>2014-06-01T13:43:02Z</time>
      </trkpt>
      <trkpt lat="59.8791788" lon="17.6257459">
        <ele>26.0929</ele>
        <time>2014-06-01T13:43:03Z</time>
      </trkpt>
      <trkpt lat="59.8791412" lon="17.6258248">
        <ele>25.6123</ele>
        <time>2014-06-01T13:43:04Z</time>
      </trkpt>
      <trkpt lat="59.8791052" lon="17.6259459">
        <ele>25.6123</ele>
        <time>2014-06-01T13:43:05Z</time>
      </trkpt>
      <trkpt lat="59.8790723" lon="17.6260951">
        <ele>25.1317</ele>
        <time>2014-06-01T13:43:06Z</time>
      </trkpt>
      <trkpt lat="59.8790649" lon="17.626258">
        <ele>25.1317</ele>
        <time>2014-06-01T13:43:07Z</time>
      </trkpt>
      <trkpt lat="59.8790592" lon="17.62642">
        <ele>25.1317</ele>
        <time>2014-06-01T13:43:08Z</time>
      </trkpt>
      <trkpt lat="59.8790897" lon="17.6265316">
        <ele>26.0929</ele>
        <time>2014-06-01T13:43:09Z</time>
      </trkpt>
      <trkpt lat="59.8791048" lon="17.6266368">
        <ele>25.6123</ele>
        <time>2014-06-01T13:43:10Z</time>
      </trkpt>
      <trkpt lat="59.8791087" lon="17.6267465">
        <ele>26.0929</ele>
        <time>2014-06-01T13:43:11Z</time>
      </trkpt>
      <trkpt lat="59.8791154" lon="17.6268486">
        <ele>26.5736</ele>
        <time>2014-06-01T13:43:12Z</time>
      </trkpt>
      <trkpt lat="59.8791133" lon="17.6269421">
        <ele>26.5736</ele>
        <time>2014-06-01T13:43:13Z</time>
      </trkpt>
      <trkpt lat="59.8791016" lon="17.6270399">
        <ele>26.5736</ele>
        <time>2014-06-01T13:43:14Z</time>
      </trkpt>
      <trkpt lat="59.8791012" lon="17.62713">
        <ele>26.0929</ele>
        <time>2014-06-01T13:43:15Z</time>
      </trkpt>
      <trkpt lat="59.8791042" lon="17.6272202">
        <ele>26.0929</ele>
        <time>2014-06-01T13:43:16Z</time>
      </trkpt>
      <trkpt lat="59.8791083" lon="17.6273186">
        <ele>25.6123</ele>
        <time>2014-06-01T13:43:17Z</time>
      </trkpt>
      <trkpt lat="59.8791239" lon="17.6273899">
        <ele>25.6123</ele>
        <time>2014-06-01T13:43:18Z</time>
      </trkpt>
      <trkpt lat="59.8791454" lon="17.6274321">
        <ele>25.6123</ele>
        <time>2014-06-01T13:43:19Z</time>
      </trkpt>
      <trkpt lat="59.8791599" lon="17.6274373">
        <ele>25.1317</ele>
        <time>2014-06-01T13:43:20Z</time>
      </trkpt>
      <trkpt lat="59.8791991" lon="17.627417">
        <ele>25.1317</ele>
        <time>2014-06-01T13:43:21Z</time>
      </trkpt>
      <trkpt lat="59.8792404" lon="17.6273909">
        <ele>24.651</ele>
        <time>2014-06-01T13:43:22Z</time>
      </trkpt>
      <trkpt lat="59.8792813" lon="17.6273589">
        <ele>24.651</ele>
        <time>2014-06-01T13:43:23Z</time>
      </trkpt>
      <trkpt lat="59.8793174" lon="17.6273298">
        <ele>24.1703</ele>
        <time>2014-06-01T13:43:24Z</time>
      </trkpt>
      <trkpt lat="59.87936" lon="17.6273021">
        <ele>23.6896</ele>
        <time>2014-06-01T13:43:25Z</time>
      </trkpt>
      <trkpt lat="59.8794085" lon="17.6272621">
        <ele>22.7283</ele>
        <time>2014-06-01T13:43:26Z</time>
      </trkpt>
      <trkpt lat="59.8794591" lon="17.6272255">
        <ele>21.767</ele>
        <time>2014-06-01T13:43:27Z</time>
      </trkpt>
      <trkpt lat="59.8795116" lon="17.6271882">
        <ele>20.8057</ele>
        <time>2014-06-01T13:43:28Z</time>
      </trkpt>
      <trkpt lat="59.8795684" lon="17.6271537">
        <ele>20.325</ele>
        <time>2014-06-01T13:43:29Z</time>
      </trkpt>
      <trkpt lat="59.8796235" lon="17.6271216">
        <ele>20.325</ele>
        <time>2014-06-01T13:43:30Z</time>
      </trkpt>
      <trkpt lat="59.8796751" lon="17.6270891">
        <ele>20.325</ele>
        <time>2014-06-01T13:43:31Z</time>
      </trkpt>
      <trkpt lat="59.8797289" lon="17.6270495">
        <ele>20.325</ele>
        <time>2014-06-01T13:43:32Z</time>
      </trkpt>
      <trkpt lat="59.8797817" lon="17.6270024">
        <ele>19.8444</ele>
        <time>2014-06-01T13:43:33Z</time>
      </trkpt>
      <trkpt lat="59.8798418" lon="17.6269491">
        <ele>20.325</ele>
        <time>2014-06-01T13:43:34Z</time>
      </trkpt>
      <trkpt lat="59.8799033" lon="17.6269017">
        <ele>20.8057</ele>
        <time>2014-06-01T13:43:35Z</time>
      </trkpt>
      <trkpt lat="59.8799644" lon="17.6268576">
        <ele>21.2864</ele>
        <time>2014-06-01T13:43:36Z</time>
      </trkpt>
      <trkpt lat="59.8800237" lon="17.6268198">
        <ele>21.767</ele>
        <time>2014-06-01T13:43:37Z</time>
      </trkpt>
      <trkpt lat="59.8800805" lon="17.6267856">
        <ele>21.767</ele>
        <time>2014-06-01T13:43:38Z</time>
      </trkpt>
      <trkpt lat="59.880137" lon="17.626745">
        <ele>22.2476</ele>
        <time>2014-06-01T13:43:39Z</time>
      </trkpt>
      <trkpt lat="59.8801892" lon="17.6266922">
        <ele>22.2476</ele>
        <time>2014-06-01T13:43:40Z</time>
      </trkpt>
      <trkpt lat="59.8802433" lon="17.6266305">
        <ele>22.7283</ele>
        <time>2014-06-01T13:43:41Z</time>
      </trkpt>
      <trkpt lat="59.8802993" lon="17.6265662">
        <ele>22.7283</ele>
        <time>2014-06-01T13:43:42Z</time>
      </trkpt>
      <trkpt lat="59.8803588" lon="17.6265013">
        <ele>22.2476</ele>
        <time>2014-06-01T13:43:43Z</time>
      </trkpt>
      <trkpt lat="59.8804223" lon="17.6264437">
        <ele>22.2476</ele>
        <time>2014-06-01T13:43:44Z</time>
      </trkpt>
      <trkpt lat="59.8804852" lon="17.6263809">
        <ele>22.2476</ele>
        <time>2014-06-01T13:43:45Z</time>
      </trkpt>
      <trkpt lat="59.8805503" lon="17.6263395">
        <ele>21.767</ele>
        <time>2014-06-01T13:43:46Z</time>
      </trkpt>
      <trkpt lat="59.8806154" lon="17.626298">
        <ele>21.767</ele>
        <time>2014-06-01T13:43:47Z</time>
      </trkpt>
      <trkpt lat="59.8807747" lon="17.6263307">
        <ele>20.8057</ele>
        <time>2014-06-01T13:43:50Z</time>
      </trkpt>
      <trkpt lat="59.8808793" lon="17.626388">
        <ele>21.767</ele>
        <time>2014-06-01T13:43:51Z</time>
      </trkpt>
      <trkpt lat="59.8809037" lon="17.6263844">
        <ele>21.767</ele>
        <time>2014-06-01T13:43:52Z</time>
      </trkpt>
      <trkpt lat="59.8809771" lon="17.626368">
        <ele>22.2476</ele>
        <time>2014-06-01T13:43:53Z</time>
      </trkpt>
      <trkpt lat="59.8810367" lon="17.626357">
        <ele>23.209</ele>
        <time>2014-06-01T13:43:54Z</time>
      </trkpt>
      <trkpt lat="59.8810929" lon="17.626344">
        <ele>23.209</ele>
        <time>2014-06-01T13:43:55Z</time>
      </trkpt>
      <trkpt lat="59.8811385" lon="17.626324">
        <ele>24.1703</ele>
        <time>2014-06-01T13:43:56Z</time>
      </trkpt>
      <trkpt lat="59.8811834" lon="17.6262995">
        <ele>24.1703</ele>
        <time>2014-06-01T13:43:57Z</time>
      </trkpt>
      <trkpt lat="59.8812281" lon="17.6262872">
        <ele>24.651</ele>
        <time>2014-06-01T13:43:58Z</time>
      </trkpt>
      <trkpt lat="59.8812699" lon="17.6262778">
        <ele>25.1317</ele>
        <time>2014-06-01T13:43:59Z</time>
      </trkpt>
      <trkpt lat="59.8813065" lon="17.6262717">
        <ele>25.6123</ele>
        <time>2014-06-01T13:44:00Z</time>
      </trkpt>
      <trkpt lat="59.8813394" lon="17.6262684">
        <ele>25.6123</ele>
        <time>2014-06-01T13:44:01Z</time>
      </trkpt>
      <trkpt lat="59.8813737" lon="17.6262666">
        <ele>26.0929</ele>
        <time>2014-06-01T13:44:02Z</time>
      </trkpt>
      <trkpt lat="59.8814087" lon="17.6262682">
        <ele>26.0929</ele>
        <time>2014-06-01T13:44:03Z</time>
      </trkpt>
      <trkpt lat="59.8814391" lon="17.6262717">
        <ele>26.5736</ele>
        <time>2014-06-01T13:44:04Z</time>
      </trkpt>
      <trkpt lat="59.8814699" lon="17.6262687">
        <ele>27.0543</ele>
        <time>2014-06-01T13:44:05Z</time>
      </trkpt>
      <trkpt lat="59.8815041" lon="17.6262707">
        <ele>27.5349</ele>
        <time>2014-06-01T13:44:06Z</time>
      </trkpt>
      <trkpt lat="59.8815399" lon="17.6262801">
        <ele>28.0155</ele>
        <time>2014-06-01T13:44:07Z</time>
      </trkpt>
      <trkpt lat="59.881579" lon="17.6262788">
        <ele>28.0155</ele>
        <time>2014-06-01T13:44:08Z</time>
      </trkpt>
      <trkpt lat="59.8816166" lon="17.6262774">
        <ele>28.4962</ele>
        <time>2014-06-01T13:44:09Z</time>
      </trkpt>
      <trkpt lat="59.8816526" lon="17.6262801">
        <ele>28.9769</ele>
        <time>2014-06-01T13:44:10Z</time>
      </trkpt>
      <trkpt lat="59.8816802" lon="17.6262712">
        <ele>28.4962</ele>
        <time>2014-06-01T13:44:11Z</time>
      </trkpt>
      <trkpt lat="59.8817121" lon="17.6262629">
        <ele>28.4962</ele>
        <time>2014-06-01T13:44:12Z</time>
      </trkpt>
      <trkpt lat="59.8817496" lon="17.6262502">
        <ele>28.4962</ele>
        <time>2014-06-01T13:44:13Z</time>
      </trkpt>
      <trkpt lat="59.8817811" lon="17.62623">
        <ele>28.4962</ele>
        <time>2014-06-01T13:44:14Z</time>
      </trkpt>
      <trkpt lat="59.8818138" lon="17.6261975">
        <ele>28.9769</ele>
        <time>2014-06-01T13:44:15Z</time>
      </trkpt>
      <trkpt lat="59.8818526" lon="17.6261519">
        <ele>29.4575</ele>
        <time>2014-06-01T13:44:16Z</time>
      </trkpt>
      <trkpt lat="59.8818936" lon="17.6260961">
        <ele>28.9769</ele>
        <time>2014-06-01T13:44:17Z</time>
      </trkpt>
      <trkpt lat="59.8819361" lon="17.6260384">
        <ele>28.4962</ele>
        <time>2014-06-01T13:44:18Z</time>
      </trkpt>
      <trkpt lat="59.8819795" lon="17.6259773">
        <ele>28.4962</ele>
        <time>2014-06-01T13:44:19Z</time>
      </trkpt>
      <trkpt lat="59.8820211" lon="17.6259045">
        <ele>28.4962</ele>
        <time>2014-06-01T13:44:20Z</time>
      </trkpt>
      <trkpt lat="59.8820623" lon="17.625855">
        <ele>28.9769</ele>
        <time>2014-06-01T13:44:21Z</time>
      </trkpt>
      <trkpt lat="59.8821085" lon="17.6258309">
        <ele>28.9769</ele>
        <time>2014-06-01T13:44:22Z</time>
      </trkpt>
      <trkpt lat="59.8821576" lon="17.6258272">
        <ele>28.9769</ele>
        <time>2014-06-01T13:44:23Z</time>
      </trkpt>
      <trkpt lat="59.8822074" lon="17.6258381">
        <ele>29.4575</ele>
        <time>2014-06-01T13:44:24Z</time>
      </trkpt>
      <trkpt lat="59.8822557" lon="17.6258569">
        <ele>28.9769</ele>
        <time>2014-06-01T13:44:25Z</time>
      </trkpt>
      <trkpt lat="59.8823038" lon="17.6258705">
        <ele>28.9769</ele>
        <time>2014-06-01T13:44:26Z</time>
      </trkpt>
      <trkpt lat="59.882351" lon="17.6258903">
        <ele>28.9769</ele>
        <time>2014-06-01T13:44:27Z</time>
      </trkpt>
      <trkpt lat="59.8823965" lon="17.6259165">
        <ele>28.4962</ele>
        <time>2014-06-01T13:44:28Z</time>
      </trkpt>
      <trkpt lat="59.8824405" lon="17.6259443">
        <ele>28.4962</ele>
        <time>2014-06-01T13:44:29Z</time>
      </trkpt>
      <trkpt lat="59.8824824" lon="17.6259706">
        <ele>28.0155</ele>
        <time>2014-06-01T13:44:30Z</time>
      </trkpt>
      <trkpt lat="59.8825261" lon="17.6259947">
        <ele>28.0155</ele>
        <time>2014-06-01T13:44:31Z</time>
      </trkpt>
      <trkpt lat="59.8825701" lon="17.6260101">
        <ele>28.0155</ele>
        <time>2014-06-01T13:44:32Z</time>
      </trkpt>
      <trkpt lat="59.882613" lon="17.6260203">
        <ele>27.5349</ele>
        <time>2014-06-01T13:44:33Z</time>
      </trkpt>
      <trkpt lat="59.8826554" lon="17.626023">
        <ele>27.0543</ele>
        <time>2014-06-01T13:44:34Z</time>
      </trkpt>
      <trkpt lat="59.8826959" lon="17.6260152">
        <ele>27.0543</ele>
        <time>2014-06-01T13:44:35Z</time>
      </trkpt>
      <trkpt lat="59.8827336" lon="17.6260019">
        <ele>27.0543</ele>
        <time>2014-06-01T13:44:36Z</time>
      </trkpt>
      <trkpt lat="59.8827666" lon="17.6259879">
        <ele>27.0543</ele>
        <time>2014-06-01T13:44:37Z</time>
      </trkpt>
      <trkpt lat="59.882796" lon="17.6259623">
        <ele>26.5736</ele>
        <time>2014-06-01T13:44:38Z</time>
      </trkpt>
      <trkpt lat="59.8828194" lon="17.6259252">
        <ele>26.5736</ele>
        <time>2014-06-01T13:44:39Z</time>
      </trkpt>
      <trkpt lat="59.8828333" lon="17.6258982">
        <ele>26.5736</ele>
        <time>2014-06-01T13:44:40Z</time>
      </trkpt>
      <trkpt lat="59.8828385" lon="17.6258897">
        <ele>26.5736</ele>
        <time>2014-06-01T13:44:41Z</time>
      </trkpt>
      <trkpt lat="59.882838" lon="17.625891">
        <ele>26.5736</ele>
        <time>2014-06-01T13:44:42Z</time>
      </trkpt>
      <trkpt lat="59.882836" lon="17.6258918">
        <ele>26.5736</ele>
        <time>2014-06-01T13:44:43Z</time>
      </trkpt>
      <trkpt lat="59.8828155" lon="17.6259914">
        <ele>23.6896</ele>
        <time>2014-06-01T13:45:26Z</time>
      </trkpt>
      <trkpt lat="59.8828367" lon="17.6259802">
        <ele>23.6896</ele>
        <time>2014-06-01T13:45:27Z</time>
      </trkpt>
      <trkpt lat="59.8828628" lon="17.6259617">
        <ele>23.6896</ele>
        <time>2014-06-01T13:45:28Z</time>
      </trkpt>
      <trkpt lat="59.8828917" lon="17.6259469">
        <ele>23.6896</ele>
        <time>2014-06-01T13:45:29Z</time>
      </trkpt>
      <trkpt lat="59.8829197" lon="17.6259355">
        <ele>23.6896</ele>
        <time>2014-06-01T13:45:30Z</time>
      </trkpt>
      <trkpt lat="59.8829499" lon="17.6259241">
        <ele>23.6896</ele>
        <time>2014-06-01T13:45:31Z</time>
      </trkpt>
      <trkpt lat="59.8829844" lon="17.6259078">
        <ele>23.6896</ele>
        <time>2014-06-01T13:45:32Z</time>
      </trkpt>
      <trkpt lat="59.8830215" lon="17.6258866">
        <ele>23.6896</ele>
        <time>2014-06-01T13:45:33Z</time>
      </trkpt>
      <trkpt lat="59.8830622" lon="17.6258647">
        <ele>23.6896</ele>
        <time>2014-06-01T13:45:34Z</time>
      </trkpt>
      <trkpt lat="59.8831074" lon="17.6258396">
        <ele>23.6896</ele>
        <time>2014-06-01T13:45:35Z</time>
      </trkpt>
      <trkpt lat="59.8831546" lon="17.6258139">
        <ele>23.6896</ele>
        <time>2014-06-01T13:45:36Z</time>
      </trkpt>
      <trkpt lat="59.8831996" lon="17.6257889">
        <ele>23.209</ele>
        <time>2014-06-01T13:45:37Z</time>
      </trkpt>
      <trkpt lat="59.8832441" lon="17.6257657">
        <ele>23.209</ele>
        <time>2014-06-01T13:45:38Z</time>
      </trkpt>
      <trkpt lat="59.8832886" lon="17.6257465">
        <ele>22.7283</ele>
        <time>2014-06-01T13:45:39Z</time>
      </trkpt>
      <trkpt lat="59.8833317" lon="17.6257262">
        <ele>22.7283</ele>
        <time>2014-06-01T13:45:40Z</time>
      </trkpt>
      <trkpt lat="59.8833753" lon="17.6257002">
        <ele>22.7283</ele>
        <time>2014-06-01T13:45:41Z</time>
      </trkpt>
      <trkpt lat="59.8834222" lon="17.625676">
        <ele>22.7283</ele>
        <time>2014-06-01T13:45:42Z</time>
      </trkpt>
      <trkpt lat="59.8834694" lon="17.6256604">
        <ele>22.7283</ele>
        <time>2014-06-01T13:45:43Z</time>
      </trkpt>
      <trkpt lat="59.8835156" lon="17.6256496">
        <ele>22.7283</ele>
        <time>2014-06-01T13:45:44Z</time>
      </trkpt>
      <trkpt lat="59.8835623" lon="17.6256387">
        <ele>22.7283</ele>
        <time>2014-06-01T13:45:45Z</time>
      </trkpt>
      <trkpt lat="59.8836123" lon="17.6256267">
        <ele>22.7283</ele>
        <time>2014-06-01T13:45:46Z</time>
      </trkpt>
      <trkpt lat="59.8836625" lon="17.6256134">
        <ele>22.7283</ele>
        <time>2014-06-01T13:45:47Z</time>
      </trkpt>
      <trkpt lat="59.8837134" lon="17.6256019">
        <ele>22.7283</ele>
        <time>2014-06-01T13:45:48Z</time>
      </trkpt>
      <trkpt lat="59.8837648" lon="17.625593">
        <ele>22.7283</ele>
        <time>2014-06-01T13:45:49Z</time>
      </trkpt>
      <trkpt lat="59.8838175" lon="17.6255839">
        <ele>22.7283</ele>
        <time>2014-06-01T13:45:50Z</time>
      </trkpt>
      <trkpt lat="59.8838715" lon="17.6255789">
        <ele>22.7283</ele>
        <time>2014-06-01T13:45:51Z</time>
      </trkpt>
      <trkpt lat="59.8839257" lon="17.6255797">
        <ele>22.2476</ele>
        <time>2014-06-01T13:45:52Z</time>
      </trkpt>
      <trkpt lat="59.8839792" lon="17.6255807">
        <ele>22.2476</ele>
        <time>2014-06-01T13:45:53Z</time>
      </trkpt>
      <trkpt lat="59.8840329" lon="17.6255789">
        <ele>22.2476</ele>
        <time>2014-06-01T13:45:54Z</time>
      </trkpt>
      <trkpt lat="59.8840864" lon="17.6255758">
        <ele>22.7283</ele>
        <time>2014-06-01T13:45:55Z</time>
      </trkpt>
      <trkpt lat="59.8841396" lon="17.6255713">
        <ele>22.7283</ele>
        <time>2014-06-01T13:45:56Z</time>
      </trkpt>
      <trkpt lat="59.884193" lon="17.625564">
        <ele>22.7283</ele>
        <time>2014-06-01T13:45:57Z</time>
      </trkpt>
      <trkpt lat="59.8842474" lon="17.6255579">
        <ele>22.7283</ele>
        <time>2014-06-01T13:45:58Z</time>
      </trkpt>
      <trkpt lat="59.8843027" lon="17.6255558">
        <ele>22.7283</ele>
        <time>2014-06-01T13:45:59Z</time>
      </trkpt>
      <trkpt lat="59.8843588" lon="17.6255559">
        <ele>22.2476</ele>
        <time>2014-06-01T13:46:00Z</time>
      </trkpt>
      <trkpt lat="59.8844163" lon="17.6255572">
        <ele>22.2476</ele>
        <time>2014-06-01T13:46:01Z</time>
      </trkpt>
      <trkpt lat="59.8844747" lon="17.6255575">
        <ele>22.7283</ele>
        <time>2014-06-01T13:46:02Z</time>
      </trkpt>
      <trkpt lat="59.884533" lon="17.625557">
        <ele>22.2476</ele>
        <time>2014-06-01T13:46:03Z</time>
      </trkpt>
      <trkpt lat="59.8845917" lon="17.625554">
        <ele>22.7283</ele>
        <time>2014-06-01T13:46:04Z</time>
      </trkpt>
      <trkpt lat="59.88465" lon="17.6255481">
        <ele>22.7283</ele>
        <time>2014-06-01T13:46:05Z</time>
      </trkpt>
      <trkpt lat="59.8847081" lon="17.6255434">
        <ele>22.7283</ele>
        <time>2014-06-01T13:46:06Z</time>
      </trkpt>
      <trkpt lat="59.8847666" lon="17.6255383">
        <ele>22.7283</ele>
        <time>2014-06-01T13:46:07Z</time>
      </trkpt>
      <trkpt lat="59.8848256" lon="17.6255338">
        <ele>22.7283</ele>
        <time>2014-06-01T13:46:08Z</time>
      </trkpt>
      <trkpt lat="59.8848847" lon="17.6255318">
        <ele>22.7283</ele>
        <time>2014-06-01T13:46:09Z</time>
      </trkpt>
      <trkpt lat="59.8849428" lon="17.625533">
        <ele>22.7283</ele>
        <time>2014-06-01T13:46:10Z</time>
      </trkpt>
      <trkpt lat="59.8850006" lon="17.6255366">
        <ele>22.7283</ele>
        <time>2014-06-01T13:46:11Z</time>
      </trkpt>
      <trkpt lat="59.8850575" lon="17.6255403">
        <ele>22.7283</ele>
        <time>2014-06-01T13:46:12Z</time>
      </trkpt>
      <trkpt lat="59.885114" lon="17.6255413">
        <ele>22.2476</ele>
        <time>2014-06-01T13:46:13Z</time>
      </trkpt>
      <trkpt lat="59.8851694" lon="17.6255341">
        <ele>22.2476</ele>
        <time>2014-06-01T13:46:14Z</time>
      </trkpt>
      <trkpt lat="59.8852234" lon="17.6255184">
        <ele>22.2476</ele>
        <time>2014-06-01T13:46:15Z</time>
      </trkpt>
      <trkpt lat="59.8852763" lon="17.6254983">
        <ele>22.2476</ele>
        <time>2014-06-01T13:46:16Z</time>
      </trkpt>
      <trkpt lat="59.8853295" lon="17.6254738">
        <ele>21.767</ele>
        <time>2014-06-01T13:46:17Z</time>
      </trkpt>
      <trkpt lat="59.8853854" lon="17.6254442">
        <ele>21.2864</ele>
        <time>2014-06-01T13:46:18Z</time>
      </trkpt>
      <trkpt lat="59.8854437" lon="17.6254154">
        <ele>21.2864</ele>
        <time>2014-06-01T13:46:19Z</time>
      </trkpt>
      <trkpt lat="59.8855026" lon="17.6253952">
        <ele>21.2864</ele>
        <time>2014-06-01T13:46:20Z</time>
      </trkpt>
      <trkpt lat="59.8855611" lon="17.6253812">
        <ele>21.2864</ele>
        <time>2014-06-01T13:46:21Z</time>
      </trkpt>
      <trkpt lat="59.8856186" lon="17.6253698">
        <ele>21.2864</ele>
        <time>2014-06-01T13:46:22Z</time>
      </trkpt>
      <trkpt lat="59.8856798" lon="17.6253556">
        <ele>21.2864</ele>
        <time>2014-06-01T13:46:23Z</time>
      </trkpt>
      <trkpt lat="59.8857365" lon="17.6253418">
        <ele>21.2864</ele>
        <time>2014-06-01T13:46:24Z</time>
      </trkpt>
      <trkpt lat="59.8857943" lon="17.6253513">
        <ele>21.767</ele>
        <time>2014-06-01T13:46:25Z</time>
      </trkpt>
      <trkpt lat="59.8858407" lon="17.6253988">
        <ele>22.2476</ele>
        <time>2014-06-01T13:46:26Z</time>
      </trkpt>
      <trkpt lat="59.8858713" lon="17.625462">
        <ele>22.2476</ele>
        <time>2014-06-01T13:46:27Z</time>
      </trkpt>
      <trkpt lat="59.8858957" lon="17.6255279">
        <ele>22.7283</ele>
        <time>2014-06-01T13:46:28Z</time>
      </trkpt>
      <trkpt lat="59.8859263" lon="17.6255817">
        <ele>22.7283</ele>
        <time>2014-06-01T13:46:29Z</time>
      </trkpt>
      <trkpt lat="59.8859661" lon="17.6256159">
        <ele>22.7283</ele>
        <time>2014-06-01T13:46:30Z</time>
      </trkpt>
      <trkpt lat="59.8860116" lon="17.6256314">
        <ele>22.7283</ele>
        <time>2014-06-01T13:46:31Z</time>
      </trkpt>
      <trkpt lat="59.8860605" lon="17.6256362">
        <ele>22.7283</ele>
        <time>2014-06-01T13:46:32Z</time>
      </trkpt>
      <trkpt lat="59.8861133" lon="17.6256351">
        <ele>23.209</ele>
        <time>2014-06-01T13:46:33Z</time>
      </trkpt>
      <trkpt lat="59.8861658" lon="17.6256317">
        <ele>23.209</ele>
        <time>2014-06-01T13:46:34Z</time>
      </trkpt>
      <trkpt lat="59.8862169" lon="17.6256274">
        <ele>23.209</ele>
        <time>2014-06-01T13:46:35Z</time>
      </trkpt>
      <trkpt lat="59.8862689" lon="17.6256237">
        <ele>23.6896</ele>
        <time>2014-06-01T13:46:36Z</time>
      </trkpt>
      <trkpt lat="59.8863211" lon="17.6256221">
        <ele>23.6896</ele>
        <time>2014-06-01T13:46:37Z</time>
      </trkpt>
      <trkpt lat="59.886373" lon="17.6256199">
        <ele>23.6896</ele>
        <time>2014-06-01T13:46:38Z</time>
      </trkpt>
      <trkpt lat="59.8864257" lon="17.6256157">
        <ele>23.6896</ele>
        <time>2014-06-01T13:46:39Z</time>
      </trkpt>
      <trkpt lat="59.8864774" lon="17.6256119">
        <ele>23.6896</ele>
        <time>2014-06-01T13:46:40Z</time>
      </trkpt>
      <trkpt lat="59.8865283" lon="17.6256076">
        <ele>24.1703</ele>
        <time>2014-06-01T13:46:41Z</time>
      </trkpt>
      <trkpt lat="59.886579" lon="17.6256035">
        <ele>24.1703</ele>
        <time>2014-06-01T13:46:42Z</time>
      </trkpt>
      <trkpt lat="59.8866297" lon="17.6255998">
        <ele>24.1703</ele>
        <time>2014-06-01T13:46:43Z</time>
      </trkpt>
      <trkpt lat="59.8866801" lon="17.6255937">
        <ele>24.1703</ele>
        <time>2014-06-01T13:46:44Z</time>
      </trkpt>
      <trkpt lat="59.8867304" lon="17.6255877">
        <ele>24.651</ele>
        <time>2014-06-01T13:46:45Z</time>
      </trkpt>
      <trkpt lat="59.8867798" lon="17.6255833">
        <ele>24.651</ele>
        <time>2014-06-01T13:46:46Z</time>
      </trkpt>
      <trkpt lat="59.8868281" lon="17.6255796">
        <ele>25.1317</ele>
        <time>2014-06-01T13:46:47Z</time>
      </trkpt>
      <trkpt lat="59.8868753" lon="17.625577">
        <ele>25.1317</ele>
        <time>2014-06-01T13:46:48Z</time>
      </trkpt>
      <trkpt lat="59.8869202" lon="17.6255746">
        <ele>25.6123</ele>
        <time>2014-06-01T13:46:49Z</time>
      </trkpt>
      <trkpt lat="59.8869628" lon="17.6255657">
        <ele>26.0929</ele>
        <time>2014-06-01T13:46:50Z</time>
      </trkpt>
      <trkpt lat="59.8870018" lon="17.6255486">
        <ele>26.5736</ele>
        <time>2014-06-01T13:46:51Z</time>
      </trkpt>
      <trkpt lat="59.8870374" lon="17.6255299">
        <ele>26.5736</ele>
        <time>2014-06-01T13:46:52Z</time>
      </trkpt>
      <trkpt lat="59.8870728" lon="17.6255154">
        <ele>27.0543</ele>
        <time>2014-06-01T13:46:53Z</time>
      </trkpt>
      <trkpt lat="59.887109" lon="17.625505">
        <ele>27.5349</ele>
        <time>2014-06-01T13:46:54Z</time>
      </trkpt>
      <trkpt lat="59.8871448" lon="17.6254981">
        <ele>27.5349</ele>
        <time>2014-06-01T13:46:55Z</time>
      </trkpt>
      <trkpt lat="59.8871813" lon="17.6254916">
        <ele>28.0155</ele>
        <time>2014-06-01T13:46:56Z</time>
      </trkpt>
      <trkpt lat="59.8872209" lon="17.6254836">
        <ele>28.0155</ele>
        <time>2014-06-01T13:46:57Z</time>
      </trkpt>
      <trkpt lat="59.8872649" lon="17.6254734">
        <ele>28.0155</ele>
        <time>2014-06-01T13:46:58Z</time>
      </trkpt>
      <trkpt lat="59.8873136" lon="17.6254574">
        <ele>28.0155</ele>
        <time>2014-06-01T13:46:59Z</time>
      </trkpt>
      <trkpt lat="59.8873664" lon="17.6254385">
        <ele>28.0155</ele>
        <time>2014-06-01T13:47:00Z</time>
      </trkpt>
      <trkpt lat="59.8874193" lon="17.6254144">
        <ele>27.5349</ele>
        <time>2014-06-01T13:47:01Z</time>
      </trkpt>
      <trkpt lat="59.8874708" lon="17.6253893">
        <ele>27.5349</ele>
        <time>2014-06-01T13:47:02Z</time>
      </trkpt>
      <trkpt lat="59.8875238" lon="17.6253703">
        <ele>27.5349</ele>
        <time>2014-06-01T13:47:03Z</time>
      </trkpt>
      <trkpt lat="59.8875778" lon="17.6253526">
        <ele>27.0543</ele>
        <time>2014-06-01T13:47:04Z</time>
      </trkpt>
      <trkpt lat="59.8876332" lon="17.6253345">
        <ele>27.0543</ele>
        <time>2014-06-01T13:47:05Z</time>
      </trkpt>
      <trkpt lat="59.8876907" lon="17.6253158">
        <ele>27.0543</ele>
        <time>2014-06-01T13:47:06Z</time>
      </trkpt>
      <trkpt lat="59.8877475" lon="17.6253008">
        <ele>27.0543</ele>
        <time>2014-06-01T13:47:07Z</time>
      </trkpt>
      <trkpt lat="59.887805" lon="17.6252833">
        <ele>27.0543</ele>
        <time>2014-06-01T13:47:08Z</time>
      </trkpt>
      <trkpt lat="59.887859" lon="17.6252636">
        <ele>27.0543</ele>
        <time>2014-06-01T13:47:09Z</time>
      </trkpt>
      <trkpt lat="59.8879133" lon="17.6252413">
        <ele>27.0543</ele>
        <time>2014-06-01T13:47:10Z</time>
      </trkpt>
      <trkpt lat="59.8879682" lon="17.6252135">
        <ele>27.5349</ele>
        <time>2014-06-01T13:47:11Z</time>
      </trkpt>
      <trkpt lat="59.8880184" lon="17.6251745">
        <ele>27.5349</ele>
        <time>2014-06-01T13:47:12Z</time>
      </trkpt>
      <trkpt lat="59.8880678" lon="17.6251313">
        <ele>27.5349</ele>
        <time>2014-06-01T13:47:13Z</time>
      </trkpt>
      <trkpt lat="59.8881195" lon="17.6251036">
        <ele>27.0543</ele>
        <time>2014-06-01T13:47:14Z</time>
      </trkpt>
      <trkpt lat="59.8881755" lon="17.6250973">
        <ele>27.5349</ele>
        <time>2014-06-01T13:47:15Z</time>
      </trkpt>
      <trkpt lat="59.8882305" lon="17.6251015">
        <ele>27.5349</ele>
        <time>2014-06-01T13:47:16Z</time>
      </trkpt>
      <trkpt lat="59.8882862" lon="17.6251067">
        <ele>28.0155</ele>
        <time>2014-06-01T13:47:17Z</time>
      </trkpt>
      <trkpt lat="59.8883408" lon="17.6251055">
        <ele>28.4962</ele>
        <time>2014-06-01T13:47:18Z</time>
      </trkpt>
      <trkpt lat="59.8883947" lon="17.6251015">
        <ele>28.4962</ele>
        <time>2014-06-01T13:47:19Z</time>
      </trkpt>
      <trkpt lat="59.8884478" lon="17.6250968">
        <ele>28.4962</ele>
        <time>2014-06-01T13:47:20Z</time>
      </trkpt>
      <trkpt lat="59.8885003" lon="17.625089">
        <ele>28.4962</ele>
        <time>2014-06-01T13:47:21Z</time>
      </trkpt>
      <trkpt lat="59.8885525" lon="17.6250773">
        <ele>28.0155</ele>
        <time>2014-06-01T13:47:22Z</time>
      </trkpt>
      <trkpt lat="59.8886065" lon="17.6250607">
        <ele>28.0155</ele>
        <time>2014-06-01T13:47:23Z</time>
      </trkpt>
      <trkpt lat="59.8886631" lon="17.6250373">
        <ele>27.5349</ele>
        <time>2014-06-01T13:47:24Z</time>
      </trkpt>
      <trkpt lat="59.8887211" lon="17.6250078">
        <ele>27.5349</ele>
        <time>2014-06-01T13:47:25Z</time>
      </trkpt>
      <trkpt lat="59.8887807" lon="17.6249714">
        <ele>27.0543</ele>
        <time>2014-06-01T13:47:26Z</time>
      </trkpt>
      <trkpt lat="59.8888406" lon="17.6249314">
        <ele>27.0543</ele>
        <time>2014-06-01T13:47:27Z</time>
      </trkpt>
      <trkpt lat="59.8889007" lon="17.6248884">
        <ele>27.0543</ele>
        <time>2014-06-01T13:47:28Z</time>
      </trkpt>
      <trkpt lat="59.8889588" lon="17.6248398">
        <ele>27.0543</ele>
        <time>2014-06-01T13:47:29Z</time>
      </trkpt>
      <trkpt lat="59.8890157" lon="17.6247892">
        <ele>26.5736</ele>
        <time>2014-06-01T13:47:30Z</time>
      </trkpt>
      <trkpt lat="59.8890718" lon="17.6247415">
        <ele>27.0543</ele>
        <time>2014-06-01T13:47:31Z</time>
      </trkpt>
      <trkpt lat="59.889128" lon="17.6246958">
        <ele>27.0543</ele>
        <time>2014-06-01T13:47:32Z</time>
      </trkpt>
      <trkpt lat="59.8891819" lon="17.6246498">
        <ele>27.0543</ele>
        <time>2014-06-01T13:47:33Z</time>
      </trkpt>
      <trkpt lat="59.8892317" lon="17.6246051">
        <ele>27.5349</ele>
        <time>2014-06-01T13:47:34Z</time>
      </trkpt>
      <trkpt lat="59.8892771" lon="17.624561">
        <ele>27.0543</ele>
        <time>2014-06-01T13:47:35Z</time>
      </trkpt>
      <trkpt lat="59.8893223" lon="17.6245137">
        <ele>27.0543</ele>
        <time>2014-06-01T13:47:36Z</time>
      </trkpt>
      <trkpt lat="59.889368" lon="17.6244581">
        <ele>27.0543</ele>
        <time>2014-06-01T13:47:37Z</time>
      </trkpt>
      <trkpt lat="59.889414" lon="17.6243883">
        <ele>27.0543</ele>
        <time>2014-06-01T13:47:38Z</time>
      </trkpt>
      <trkpt lat="59.8894598" lon="17.6243072">
        <ele>27.0543</ele>
        <time>2014-06-01T13:47:39Z</time>
      </trkpt>
      <trkpt lat="59.8895084" lon="17.6242271">
        <ele>26.5736</ele>
        <time>2014-06-01T13:47:40Z</time>
      </trkpt>
      <trkpt lat="59.8895597" lon="17.6241613">
        <ele>26.5736</ele>
        <time>2014-06-01T13:47:41Z</time>
      </trkpt>
      <trkpt lat="59.8896135" lon="17.6241188">
        <ele>26.5736</ele>
        <time>2014-06-01T13:47:42Z</time>
      </trkpt>
      <trkpt lat="59.8896659" lon="17.6241059">
        <ele>26.0929</ele>
        <time>2014-06-01T13:47:43Z</time>
      </trkpt>
      <trkpt lat="59.8897187" lon="17.6241124">
        <ele>25.6123</ele>
        <time>2014-06-01T13:47:44Z</time>
      </trkpt>
      <trkpt lat="59.8897727" lon="17.6241219">
        <ele>25.6123</ele>
        <time>2014-06-01T13:47:45Z</time>
      </trkpt>
      <trkpt lat="59.8898255" lon="17.624125">
        <ele>25.6123</ele>
        <time>2014-06-01T13:47:46Z</time>
      </trkpt>
      <trkpt lat="59.8898762" lon="17.6241233">
        <ele>25.6123</ele>
        <time>2014-06-01T13:47:47Z</time>
      </trkpt>
      <trkpt lat="59.8899248" lon="17.6241215">
        <ele>25.1317</ele>
        <time>2014-06-01T13:47:48Z</time>
      </trkpt>
      <trkpt lat="59.8899715" lon="17.6241217">
        <ele>25.1317</ele>
        <time>2014-06-01T13:47:49Z</time>
      </trkpt>
      <trkpt lat="59.8900176" lon="17.6241245">
        <ele>25.1317</ele>
        <time>2014-06-01T13:47:50Z</time>
      </trkpt>
      <trkpt lat="59.8900633" lon="17.6241285">
        <ele>25.1317</ele>
        <time>2014-06-01T13:47:51Z</time>
      </trkpt>
      <trkpt lat="59.8901089" lon="17.6241302">
        <ele>25.1317</ele>
        <time>2014-06-01T13:47:52Z</time>
      </trkpt>
      <trkpt lat="59.8901544" lon="17.6241318">
        <ele>25.1317</ele>
        <time>2014-06-01T13:47:53Z</time>
      </trkpt>
      <trkpt lat="59.8902003" lon="17.6241371">
        <ele>25.1317</ele>
        <time>2014-06-01T13:47:54Z</time>
      </trkpt>
      <trkpt lat="59.890245" lon="17.6241454">
        <ele>25.1317</ele>
        <time>2014-06-01T13:47:55Z</time>
      </trkpt>
      <trkpt lat="59.8902893" lon="17.6241487">
        <ele>25.1317</ele>
        <time>2014-06-01T13:47:56Z</time>
      </trkpt>
      <trkpt lat="59.8903336" lon="17.6241416">
        <ele>25.1317</ele>
        <time>2014-06-01T13:47:57Z</time>
      </trkpt>
      <trkpt lat="59.8903777" lon="17.6241317">
        <ele>25.1317</ele>
        <time>2014-06-01T13:47:58Z</time>
      </trkpt>
      <trkpt lat="59.890422" lon="17.6241327">
        <ele>25.1317</ele>
        <time>2014-06-01T13:47:59Z</time>
      </trkpt>
      <trkpt lat="59.8904658" lon="17.6241416">
        <ele>25.1317</ele>
        <time>2014-06-01T13:48:00Z</time>
      </trkpt>
      <trkpt lat="59.8905092" lon="17.6241518">
        <ele>25.1317</ele>
        <time>2014-06-01T13:48:01Z</time>
      </trkpt>
      <trkpt lat="59.8905516" lon="17.624159">
        <ele>25.1317</ele>
        <time>2014-06-01T13:48:02Z</time>
      </trkpt>
      <trkpt lat="59.8905925" lon="17.6241612">
        <ele>25.6123</ele>
        <time>2014-06-01T13:48:03Z</time>
      </trkpt>
      <trkpt lat="59.8906304" lon="17.6241612">
        <ele>25.6123</ele>
        <time>2014-06-01T13:48:04Z</time>
      </trkpt>
      <trkpt lat="59.8906672" lon="17.6241619">
        <ele>25.1317</ele>
        <time>2014-06-01T13:48:05Z</time>
      </trkpt>
      <trkpt lat="59.8907039" lon="17.6241622">
        <ele>25.6123</ele>
        <time>2014-06-01T13:48:06Z</time>
      </trkpt>
      <trkpt lat="59.8907397" lon="17.6241611">
        <ele>25.6123</ele>
        <time>2014-06-01T13:48:07Z</time>
      </trkpt>
      <trkpt lat="59.8907748" lon="17.6241637">
        <ele>25.6123</ele>
        <time>2014-06-01T13:48:08Z</time>
      </trkpt>
      <trkpt lat="59.890807" lon="17.6241624">
        <ele>26.0929</ele>
        <time>2014-06-01T13:48:09Z</time>
      </trkpt>
      <trkpt lat="59.8908365" lon="17.6241556">
        <ele>26.0929</ele>
        <time>2014-06-01T13:48:10Z</time>
      </trkpt>
      <trkpt lat="59.8908646" lon="17.6241573">
        <ele>26.0929</ele>
        <time>2014-06-01T13:48:11Z</time>
      </trkpt>
      <trkpt lat="59.8908919" lon="17.6241676">
        <ele>26.5736</ele>
        <time>2014-06-01T13:48:12Z</time>
      </trkpt>
      <trkpt lat="59.8909195" lon="17.6241753">
        <ele>26.5736</ele>
        <time>2014-06-01T13:48:13Z</time>
      </trkpt>
      <trkpt lat="59.8909478" lon="17.6241779">
        <ele>26.5736</ele>
        <time>2014-06-01T13:48:14Z</time>
      </trkpt>
      <trkpt lat="59.8909759" lon="17.6241789">
        <ele>26.5736</ele>
        <time>2014-06-01T13:48:15Z</time>
      </trkpt>
      <trkpt lat="59.8910034" lon="17.624178">
        <ele>26.5736</ele>
        <time>2014-06-01T13:48:16Z</time>
      </trkpt>
      <trkpt lat="59.8910316" lon="17.6241731">
        <ele>27.0543</ele>
        <time>2014-06-01T13:48:17Z</time>
      </trkpt>
      <trkpt lat="59.8910602" lon="17.6241684">
        <ele>27.0543</ele>
        <time>2014-06-01T13:48:18Z</time>
      </trkpt>
      <trkpt lat="59.8910895" lon="17.6241687">
        <ele>26.5736</ele>
        <time>2014-06-01T13:48:19Z</time>
      </trkpt>
      <trkpt lat="59.8911239" lon="17.6241694">
        <ele>26.5736</ele>
        <time>2014-06-01T13:48:20Z</time>
      </trkpt>
      <trkpt lat="59.891164" lon="17.6241689">
        <ele>26.5736</ele>
        <time>2014-06-01T13:48:21Z</time>
      </trkpt>
      <trkpt lat="59.8912069" lon="17.6241665">
        <ele>26.5736</ele>
        <time>2014-06-01T13:48:22Z</time>
      </trkpt>
      <trkpt lat="59.891252" lon="17.6241632">
        <ele>26.5736</ele>
        <time>2014-06-01T13:48:23Z</time>
      </trkpt>
      <trkpt lat="59.8912986" lon="17.6241608">
        <ele>26.5736</ele>
        <time>2014-06-01T13:48:24Z</time>
      </trkpt>
      <trkpt lat="59.8913452" lon="17.6241582">
        <ele>26.5736</ele>
        <time>2014-06-01T13:48:25Z</time>
      </trkpt>
      <trkpt lat="59.8913908" lon="17.6241554">
        <ele>26.5736</ele>
        <time>2014-06-01T13:48:26Z</time>
      </trkpt>
      <trkpt lat="59.8914354" lon="17.624153">
        <ele>26.5736</ele>
        <time>2014-06-01T13:48:27Z</time>
      </trkpt>
      <trkpt lat="59.8914782" lon="17.624152">
        <ele>26.5736</ele>
        <time>2014-06-01T13:48:28Z</time>
      </trkpt>
      <trkpt lat="59.8915177" lon="17.624152">
        <ele>26.5736</ele>
        <time>2014-06-01T13:48:29Z</time>
      </trkpt>
      <trkpt lat="59.8915529" lon="17.6241508">
        <ele>26.5736</ele>
        <time>2014-06-01T13:48:30Z</time>
      </trkpt>
      <trkpt lat="59.8915866" lon="17.6241477">
        <ele>26.5736</ele>
        <time>2014-06-01T13:48:31Z</time>
      </trkpt>
      <trkpt lat="59.8916208" lon="17.624144">
        <ele>27.0543</ele>
        <time>2014-06-01T13:48:32Z</time>
      </trkpt>
      <trkpt lat="59.891655" lon="17.6241421">
        <ele>27.0543</ele>
        <time>2014-06-01T13:48:33Z</time>
      </trkpt>
      <trkpt lat="59.8916897" lon="17.62414">
        <ele>27.0543</ele>
        <time>2014-06-01T13:48:34Z</time>
      </trkpt>
      <trkpt lat="59.891727" lon="17.6241404">
        <ele>27.0543</ele>
        <time>2014-06-01T13:48:35Z</time>
      </trkpt>
      <trkpt lat="59.8917673" lon="17.624143">
        <ele>27.0543</ele>
        <time>2014-06-01T13:48:36Z</time>
      </trkpt>
      <trkpt lat="59.8918088" lon="17.6241442">
        <ele>27.5349</ele>
        <time>2014-06-01T13:48:37Z</time>
      </trkpt>
      <trkpt lat="59.8918533" lon="17.6241462">
        <ele>27.5349</ele>
        <time>2014-06-01T13:48:38Z</time>
      </trkpt>
      <trkpt lat="59.8918991" lon="17.6241484">
        <ele>27.5349</ele>
        <time>2014-06-01T13:48:39Z</time>
      </trkpt>
      <trkpt lat="59.8919455" lon="17.6241509">
        <ele>27.5349</ele>
        <time>2014-06-01T13:48:40Z</time>
      </trkpt>
      <trkpt lat="59.8919952" lon="17.6241471">
        <ele>27.5349</ele>
        <time>2014-06-01T13:48:41Z</time>
      </trkpt>
      <trkpt lat="59.8920477" lon="17.6241314">
        <ele>27.0543</ele>
        <time>2014-06-01T13:48:42Z</time>
      </trkpt>
      <trkpt lat="59.892101" lon="17.6240945">
        <ele>26.5736</ele>
        <time>2014-06-01T13:48:43Z</time>
      </trkpt>
      <trkpt lat="59.8921488" lon="17.6240345">
        <ele>26.5736</ele>
        <time>2014-06-01T13:48:44Z</time>
      </trkpt>
      <trkpt lat="59.8921834" lon="17.6239617">
        <ele>25.6123</ele>
        <time>2014-06-01T13:48:45Z</time>
      </trkpt>
      <trkpt lat="59.8922032" lon="17.6238887">
        <ele>24.651</ele>
        <time>2014-06-01T13:48:46Z</time>
      </trkpt>
      <trkpt lat="59.8922285" lon="17.6238157">
        <ele>24.1703</ele>
        <time>2014-06-01T13:48:47Z</time>
      </trkpt>
      <trkpt lat="59.8922575" lon="17.6237377">
        <ele>23.6896</ele>
        <time>2014-06-01T13:48:48Z</time>
      </trkpt>
      <trkpt lat="59.8922828" lon="17.6236511">
        <ele>23.209</ele>
        <time>2014-06-01T13:48:49Z</time>
      </trkpt>
      <trkpt lat="59.8923116" lon="17.6235636">
        <ele>23.209</ele>
        <time>2014-06-01T13:48:50Z</time>
      </trkpt>
      <trkpt lat="59.8923417" lon="17.623481">
        <ele>23.209</ele>
        <time>2014-06-01T13:48:51Z</time>
      </trkpt>
      <trkpt lat="59.8923745" lon="17.623402">
        <ele>24.1703</ele>
        <time>2014-06-01T13:48:52Z</time>
      </trkpt>
      <trkpt lat="59.8924123" lon="17.623329">
        <ele>25.1317</ele>
        <time>2014-06-01T13:48:53Z</time>
      </trkpt>
      <trkpt lat="59.8924572" lon="17.623266">
        <ele>26.0929</ele>
        <time>2014-06-01T13:48:54Z</time>
      </trkpt>
      <trkpt lat="59.892495" lon="17.6232039">
        <ele>26.5736</ele>
        <time>2014-06-01T13:48:55Z</time>
      </trkpt>
      <trkpt lat="59.8925362" lon="17.6231585">
        <ele>27.0543</ele>
        <time>2014-06-01T13:48:56Z</time>
      </trkpt>
      <trkpt lat="59.8925718" lon="17.6231257">
        <ele>27.0543</ele>
        <time>2014-06-01T13:48:57Z</time>
      </trkpt>
      <trkpt lat="59.8926107" lon="17.6231083">
        <ele>27.5349</ele>
        <time>2014-06-01T13:48:58Z</time>
      </trkpt>
      <trkpt lat="59.8926532" lon="17.6231233">
        <ele>27.0543</ele>
        <time>2014-06-01T13:48:59Z</time>
      </trkpt>
      <trkpt lat="59.8926992" lon="17.6231377">
        <ele>26.5736</ele>
        <time>2014-06-01T13:49:00Z</time>
      </trkpt>
      <trkpt lat="59.8927474" lon="17.6231534">
        <ele>26.0929</ele>
        <time>2014-06-01T13:49:01Z</time>
      </trkpt>
      <trkpt lat="59.8927949" lon="17.6231878">
        <ele>25.6123</ele>
        <time>2014-06-01T13:49:02Z</time>
      </trkpt>
      <trkpt lat="59.8928429" lon="17.6232366">
        <ele>25.1317</ele>
        <time>2014-06-01T13:49:03Z</time>
      </trkpt>
      <trkpt lat="59.8929002" lon="17.623288">
        <ele>26.0929</ele>
        <time>2014-06-01T13:49:04Z</time>
      </trkpt>
      <trkpt lat="59.8929402" lon="17.6233496">
        <ele>26.0929</ele>
        <time>2014-06-01T13:49:05Z</time>
      </trkpt>
      <trkpt lat="59.8929796" lon="17.6234191">
        <ele>26.0929</ele>
        <time>2014-06-01T13:49:06Z</time>
      </trkpt>
      <trkpt lat="59.8930195" lon="17.6234868">
        <ele>26.0929</ele>
        <time>2014-06-01T13:49:07Z</time>
      </trkpt>
      <trkpt lat="59.8930618" lon="17.6235541">
        <ele>25.6123</ele>
        <time>2014-06-01T13:49:08Z</time>
      </trkpt>
      <trkpt lat="59.8931148" lon="17.6236209">
        <ele>26.5736</ele>
        <time>2014-06-01T13:49:09Z</time>
      </trkpt>
      <trkpt lat="59.8931589" lon="17.6236954">
        <ele>26.0929</ele>
        <time>2014-06-01T13:49:10Z</time>
      </trkpt>
      <trkpt lat="59.8932052" lon="17.6237723">
        <ele>26.0929</ele>
        <time>2014-06-01T13:49:11Z</time>
      </trkpt>
      <trkpt lat="59.8932555" lon="17.6238501">
        <ele>26.0929</ele>
        <time>2014-06-01T13:49:12Z</time>
      </trkpt>
      <trkpt lat="59.8932988" lon="17.623925">
        <ele>25.6123</ele>
        <time>2014-06-01T13:49:13Z</time>
      </trkpt>
      <trkpt lat="59.8933489" lon="17.6239922">
        <ele>26.0929</ele>
        <time>2014-06-01T13:49:14Z</time>
      </trkpt>
      <trkpt lat="59.8933995" lon="17.6240581">
        <ele>26.0929</ele>
        <time>2014-06-01T13:49:15Z</time>
      </trkpt>
      <trkpt lat="59.8934505" lon="17.6241287">
        <ele>26.0929</ele>
        <time>2014-06-01T13:49:16Z</time>
      </trkpt>
      <trkpt lat="59.8935059" lon="17.6242048">
        <ele>26.5736</ele>
        <time>2014-06-01T13:49:17Z</time>
      </trkpt>
      <trkpt lat="59.8935538" lon="17.6242836">
        <ele>26.5736</ele>
        <time>2014-06-01T13:49:18Z</time>
      </trkpt>
      <trkpt lat="59.8935919" lon="17.6243689">
        <ele>27.0543</ele>
        <time>2014-06-01T13:49:19Z</time>
      </trkpt>
      <trkpt lat="59.8936189" lon="17.6244613">
        <ele>27.0543</ele>
        <time>2014-06-01T13:49:20Z</time>
      </trkpt>
      <trkpt lat="59.8936374" lon="17.6245571">
        <ele>27.0543</ele>
        <time>2014-06-01T13:49:21Z</time>
      </trkpt>
      <trkpt lat="59.8936509" lon="17.624651">
        <ele>27.0543</ele>
        <time>2014-06-01T13:49:22Z</time>
      </trkpt>
      <trkpt lat="59.8936633" lon="17.6247399">
        <ele>27.0543</ele>
        <time>2014-06-01T13:49:23Z</time>
      </trkpt>
      <trkpt lat="59.8936759" lon="17.6248229">
        <ele>27.5349</ele>
        <time>2014-06-01T13:49:24Z</time>
      </trkpt>
      <trkpt lat="59.8936875" lon="17.6249019">
        <ele>27.5349</ele>
        <time>2014-06-01T13:49:25Z</time>
      </trkpt>
      <trkpt lat="59.8936985" lon="17.6249782">
        <ele>27.5349</ele>
        <time>2014-06-01T13:49:26Z</time>
      </trkpt>
      <trkpt lat="59.8937094" lon="17.6250544">
        <ele>28.0155</ele>
        <time>2014-06-01T13:49:27Z</time>
      </trkpt>
      <trkpt lat="59.8937198" lon="17.6251298">
        <ele>28.0155</ele>
        <time>2014-06-01T13:49:28Z</time>
      </trkpt>
      <trkpt lat="59.893729" lon="17.6252037">
        <ele>28.4962</ele>
        <time>2014-06-01T13:49:29Z</time>
      </trkpt>
      <trkpt lat="59.8937377" lon="17.6252751">
        <ele>28.4962</ele>
        <time>2014-06-01T13:49:30Z</time>
      </trkpt>
      <trkpt lat="59.8937473" lon="17.6253408">
        <ele>28.9769</ele>
        <time>2014-06-01T13:49:31Z</time>
      </trkpt>
      <trkpt lat="59.8937587" lon="17.6254003">
        <ele>29.4575</ele>
        <time>2014-06-01T13:49:32Z</time>
      </trkpt>
      <trkpt lat="59.8937707" lon="17.6254553">
        <ele>29.9381</ele>
        <time>2014-06-01T13:49:33Z</time>
      </trkpt>
      <trkpt lat="59.8937838" lon="17.6255046">
        <ele>29.9381</ele>
        <time>2014-06-01T13:49:34Z</time>
      </trkpt>
      <trkpt lat="59.8937983" lon="17.6255486">
        <ele>30.4188</ele>
        <time>2014-06-01T13:49:35Z</time>
      </trkpt>
      <trkpt lat="59.8938137" lon="17.6255905">
        <ele>30.4188</ele>
        <time>2014-06-01T13:49:36Z</time>
      </trkpt>
      <trkpt lat="59.8938281" lon="17.6256339">
        <ele>30.8995</ele>
        <time>2014-06-01T13:49:37Z</time>
      </trkpt>
      <trkpt lat="59.8938406" lon="17.6256764">
        <ele>30.8995</ele>
        <time>2014-06-01T13:49:38Z</time>
      </trkpt>
      <trkpt lat="59.8938538" lon="17.6257181">
        <ele>30.8995</ele>
        <time>2014-06-01T13:49:39Z</time>
      </trkpt>
      <trkpt lat="59.8938667" lon="17.6257649">
        <ele>30.8995</ele>
        <time>2014-06-01T13:49:40Z</time>
      </trkpt>
      <trkpt lat="59.8938814" lon="17.6258184">
        <ele>30.8995</ele>
        <time>2014-06-01T13:49:41Z</time>
      </trkpt>
      <trkpt lat="59.8939001" lon="17.6258773">
        <ele>30.8995</ele>
        <time>2014-06-01T13:49:42Z</time>
      </trkpt>
      <trkpt lat="59.8939208" lon="17.6259406">
        <ele>30.8995</ele>
        <time>2014-06-01T13:49:43Z</time>
      </trkpt>
      <trkpt lat="59.8939434" lon="17.6260064">
        <ele>30.8995</ele>
        <time>2014-06-01T13:49:44Z</time>
      </trkpt>
      <trkpt lat="59.89397" lon="17.6260707">
        <ele>30.8995</ele>
        <time>2014-06-01T13:49:45Z</time>
      </trkpt>
      <trkpt lat="59.8940032" lon="17.6261334">
        <ele>30.8995</ele>
        <time>2014-06-01T13:49:46Z</time>
      </trkpt>
      <trkpt lat="59.8940368" lon="17.6261931">
        <ele>31.3801</ele>
        <time>2014-06-01T13:49:47Z</time>
      </trkpt>
      <trkpt lat="59.8940718" lon="17.6262503">
        <ele>31.3801</ele>
        <time>2014-06-01T13:49:48Z</time>
      </trkpt>
      <trkpt lat="59.8941072" lon="17.6263068">
        <ele>31.8607</ele>
        <time>2014-06-01T13:49:49Z</time>
      </trkpt>
      <trkpt lat="59.8941418" lon="17.6263642">
        <ele>31.8607</ele>
        <time>2014-06-01T13:49:50Z</time>
      </trkpt>
      <trkpt lat="59.8941771" lon="17.6264202">
        <ele>31.8607</ele>
        <time>2014-06-01T13:49:51Z</time>
      </trkpt>
      <trkpt lat="59.8942122" lon="17.6264753">
        <ele>32.3416</ele>
        <time>2014-06-01T13:49:52Z</time>
      </trkpt>
      <trkpt lat="59.8942465" lon="17.6265321">
        <ele>32.3416</ele>
        <time>2014-06-01T13:49:53Z</time>
      </trkpt>
      <trkpt lat="59.8942803" lon="17.6265882">
        <ele>32.8223</ele>
        <time>2014-06-01T13:49:54Z</time>
      </trkpt>
      <trkpt lat="59.8943138" lon="17.6266435">
        <ele>32.8223</ele>
        <time>2014-06-01T13:49:55Z</time>
      </trkpt>
      <trkpt lat="59.8943469" lon="17.6266968">
        <ele>32.8223</ele>
        <time>2014-06-01T13:49:56Z</time>
      </trkpt>
      <trkpt lat="59.8943804" lon="17.6267462">
        <ele>33.3029</ele>
        <time>2014-06-01T13:49:57Z</time>
      </trkpt>
      <trkpt lat="59.8944142" lon="17.626794">
        <ele>33.3029</ele>
        <time>2014-06-01T13:49:58Z</time>
      </trkpt>
      <trkpt lat="59.8944495" lon="17.6268366">
        <ele>33.7834</ele>
        <time>2014-06-01T13:49:59Z</time>
      </trkpt>
      <trkpt lat="59.8944874" lon="17.6268716">
        <ele>33.7834</ele>
        <time>2014-06-01T13:50:00Z</time>
      </trkpt>
      <trkpt lat="59.8945278" lon="17.6269051">
        <ele>34.2642</ele>
        <time>2014-06-01T13:50:01Z</time>
      </trkpt>
      <trkpt lat="59.8945674" lon="17.6269418">
        <ele>34.2642</ele>
        <time>2014-06-01T13:50:02Z</time>
      </trkpt>
      <trkpt lat="59.8946067" lon="17.6269799">
        <ele>34.2642</ele>
        <time>2014-06-01T13:50:03Z</time>
      </trkpt>
      <trkpt lat="59.8946472" lon="17.6270169">
        <ele>34.7449</ele>
        <time>2014-06-01T13:50:04Z</time>
      </trkpt>
      <trkpt lat="59.894689" lon="17.6270507">
        <ele>34.7449</ele>
        <time>2014-06-01T13:50:05Z</time>
      </trkpt>
      <trkpt lat="59.8947314" lon="17.6270822">
        <ele>34.7449</ele>
        <time>2014-06-01T13:50:06Z</time>
      </trkpt>
      <trkpt lat="59.8947739" lon="17.6271133">
        <ele>34.7449</ele>
        <time>2014-06-01T13:50:07Z</time>
      </trkpt>
      <trkpt lat="59.8948169" lon="17.6271444">
        <ele>35.2255</ele>
        <time>2014-06-01T13:50:08Z</time>
      </trkpt>
      <trkpt lat="59.8948599" lon="17.6271744">
        <ele>35.2255</ele>
        <time>2014-06-01T13:50:09Z</time>
      </trkpt>
      <trkpt lat="59.8949035" lon="17.6272026">
        <ele>35.2255</ele>
        <time>2014-06-01T13:50:10Z</time>
      </trkpt>
      <trkpt lat="59.8949479" lon="17.627227">
        <ele>35.2255</ele>
        <time>2014-06-01T13:50:11Z</time>
      </trkpt>
      <trkpt lat="59.8949932" lon="17.6272472">
        <ele>35.7061</ele>
        <time>2014-06-01T13:50:12Z</time>
      </trkpt>
      <trkpt lat="59.8950388" lon="17.6272663">
        <ele>35.7061</ele>
        <time>2014-06-01T13:50:13Z</time>
      </trkpt>
      <trkpt lat="59.8950844" lon="17.6272873">
        <ele>35.7061</ele>
        <time>2014-06-01T13:50:14Z</time>
      </trkpt>
      <trkpt lat="59.8951298" lon="17.6273109">
        <ele>36.1868</ele>
        <time>2014-06-01T13:50:15Z</time>
      </trkpt>
      <trkpt lat="59.8951752" lon="17.6273376">
        <ele>36.1868</ele>
        <time>2014-06-01T13:50:16Z</time>
      </trkpt>
      <trkpt lat="59.8952203" lon="17.6273673">
        <ele>36.1868</ele>
        <time>2014-06-01T13:50:17Z</time>
      </trkpt>
      <trkpt lat="59.8952653" lon="17.6274016">
        <ele>36.1868</ele>
        <time>2014-06-01T13:50:18Z</time>
      </trkpt>
      <trkpt lat="59.8953104" lon="17.6274383">
        <ele>36.6675</ele>
        <time>2014-06-01T13:50:19Z</time>
      </trkpt>
      <trkpt lat="59.8953551" lon="17.6274722">
        <ele>36.6675</ele>
        <time>2014-06-01T13:50:20Z</time>
      </trkpt>
      <trkpt lat="59.8954005" lon="17.6275012">
        <ele>36.6675</ele>
        <time>2014-06-01T13:50:21Z</time>
      </trkpt>
      <trkpt lat="59.8954474" lon="17.6275267">
        <ele>36.6675</ele>
        <time>2014-06-01T13:50:22Z</time>
      </trkpt>
      <trkpt lat="59.8954945" lon="17.6275523">
        <ele>36.6675</ele>
        <time>2014-06-01T13:50:23Z</time>
      </trkpt>
      <trkpt lat="59.8955416" lon="17.627578">
        <ele>37.1481</ele>
        <time>2014-06-01T13:50:24Z</time>
      </trkpt>
      <trkpt lat="59.8955897" lon="17.6275981">
        <ele>37.1481</ele>
        <time>2014-06-01T13:50:25Z</time>
      </trkpt>
      <trkpt lat="59.895639" lon="17.6276124">
        <ele>37.1481</ele>
        <time>2014-06-01T13:50:26Z</time>
      </trkpt>
      <trkpt lat="59.8956902" lon="17.6276259">
        <ele>37.1481</ele>
        <time>2014-06-01T13:50:27Z</time>
      </trkpt>
      <trkpt lat="59.8957437" lon="17.6276402">
        <ele>37.1481</ele>
        <time>2014-06-01T13:50:28Z</time>
      </trkpt>
      <trkpt lat="59.8957992" lon="17.6276561">
        <ele>36.6675</ele>
        <time>2014-06-01T13:50:29Z</time>
      </trkpt>
      <trkpt lat="59.8958567" lon="17.627677">
        <ele>36.6675</ele>
        <time>2014-06-01T13:50:30Z</time>
      </trkpt>
      <trkpt lat="59.8959156" lon="17.6277024">
        <ele>36.1868</ele>
        <time>2014-06-01T13:50:31Z</time>
      </trkpt>
      <trkpt lat="59.8959755" lon="17.6277299">
        <ele>36.1868</ele>
        <time>2014-06-01T13:50:32Z</time>
      </trkpt>
      <trkpt lat="59.8960354" lon="17.6277615">
        <ele>36.1868</ele>
        <time>2014-06-01T13:50:33Z</time>
      </trkpt>
      <trkpt lat="59.8960944" lon="17.6277996">
        <ele>36.1868</ele>
        <time>2014-06-01T13:50:34Z</time>
      </trkpt>
      <trkpt lat="59.8961519" lon="17.6278428">
        <ele>36.1868</ele>
        <time>2014-06-01T13:50:35Z</time>
      </trkpt>
      <trkpt lat="59.8962067" lon="17.6278918">
        <ele>36.1868</ele>
        <time>2014-06-01T13:50:36Z</time>
      </trkpt>
      <trkpt lat="59.8962596" lon="17.627941">
        <ele>36.1868</ele>
        <time>2014-06-01T13:50:37Z</time>
      </trkpt>
      <trkpt lat="59.8963118" lon="17.6279867">
        <ele>36.1868</ele>
        <time>2014-06-01T13:50:38Z</time>
      </trkpt>
      <trkpt lat="59.8963635" lon="17.6280328">
        <ele>36.1868</ele>
        <time>2014-06-01T13:50:39Z</time>
      </trkpt>
      <trkpt lat="59.8964145" lon="17.6280786">
        <ele>36.6675</ele>
        <time>2014-06-01T13:50:40Z</time>
      </trkpt>
      <trkpt lat="59.8964661" lon="17.6281226">
        <ele>36.6675</ele>
        <time>2014-06-01T13:50:41Z</time>
      </trkpt>
      <trkpt lat="59.8965186" lon="17.6281653">
        <ele>36.6675</ele>
        <time>2014-06-01T13:50:42Z</time>
      </trkpt>
      <trkpt lat="59.8965705" lon="17.6282094">
        <ele>36.6675</ele>
        <time>2014-06-01T13:50:43Z</time>
      </trkpt>
      <trkpt lat="59.8966222" lon="17.6282567">
        <ele>36.6675</ele>
        <time>2014-06-01T13:50:44Z</time>
      </trkpt>
      <trkpt lat="59.8966745" lon="17.628304">
        <ele>36.6675</ele>
        <time>2014-06-01T13:50:45Z</time>
      </trkpt>
      <trkpt lat="59.8967279" lon="17.6283503">
        <ele>36.1868</ele>
        <time>2014-06-01T13:50:46Z</time>
      </trkpt>
      <trkpt lat="59.8967812" lon="17.6283997">
        <ele>36.1868</ele>
        <time>2014-06-01T13:50:47Z</time>
      </trkpt>
      <trkpt lat="59.896833" lon="17.6284566">
        <ele>36.1868</ele>
        <time>2014-06-01T13:50:48Z</time>
      </trkpt>
      <trkpt lat="59.8968833" lon="17.6285188">
        <ele>36.6675</ele>
        <time>2014-06-01T13:50:49Z</time>
      </trkpt>
      <trkpt lat="59.8969328" lon="17.6285849">
        <ele>36.6675</ele>
        <time>2014-06-01T13:50:50Z</time>
      </trkpt>
      <trkpt lat="59.8969817" lon="17.6286534">
        <ele>36.6675</ele>
        <time>2014-06-01T13:50:51Z</time>
      </trkpt>
      <trkpt lat="59.8970312" lon="17.6287215">
        <ele>36.6675</ele>
        <time>2014-06-01T13:50:52Z</time>
      </trkpt>
      <trkpt lat="59.8970804" lon="17.6287902">
        <ele>36.6675</ele>
        <time>2014-06-01T13:50:53Z</time>
      </trkpt>
      <trkpt lat="59.8971284" lon="17.6288617">
        <ele>36.6675</ele>
        <time>2014-06-01T13:50:54Z</time>
      </trkpt>
      <trkpt lat="59.8971743" lon="17.6289373">
        <ele>36.6675</ele>
        <time>2014-06-01T13:50:55Z</time>
      </trkpt>
      <trkpt lat="59.8972185" lon="17.6290177">
        <ele>36.6675</ele>
        <time>2014-06-01T13:50:56Z</time>
      </trkpt>
      <trkpt lat="59.8972624" lon="17.6291027">
        <ele>36.6675</ele>
        <time>2014-06-01T13:50:57Z</time>
      </trkpt>
      <trkpt lat="59.8973049" lon="17.6291918">
        <ele>36.6675</ele>
        <time>2014-06-01T13:50:58Z</time>
      </trkpt>
      <trkpt lat="59.8973454" lon="17.6292849">
        <ele>36.6675</ele>
        <time>2014-06-01T13:50:59Z</time>
      </trkpt>
      <trkpt lat="59.8973856" lon="17.6293782">
        <ele>36.6675</ele>
        <time>2014-06-01T13:51:00Z</time>
      </trkpt>
      <trkpt lat="59.8974268" lon="17.6294704">
        <ele>36.6675</ele>
        <time>2014-06-01T13:51:01Z</time>
      </trkpt>
      <trkpt lat="59.897469" lon="17.6295638">
        <ele>36.6675</ele>
        <time>2014-06-01T13:51:02Z</time>
      </trkpt>
      <trkpt lat="59.8975112" lon="17.6296585">
        <ele>36.6675</ele>
        <time>2014-06-01T13:51:03Z</time>
      </trkpt>
      <trkpt lat="59.8975525" lon="17.6297549">
        <ele>36.6675</ele>
        <time>2014-06-01T13:51:04Z</time>
      </trkpt>
      <trkpt lat="59.8975914" lon="17.6298564">
        <ele>36.6675</ele>
        <time>2014-06-01T13:51:05Z</time>
      </trkpt>
      <trkpt lat="59.8976273" lon="17.6299636">
        <ele>36.6675</ele>
        <time>2014-06-01T13:51:06Z</time>
      </trkpt>
      <trkpt lat="59.8976619" lon="17.6300739">
        <ele>36.6675</ele>
        <time>2014-06-01T13:51:07Z</time>
      </trkpt>
      <trkpt lat="59.8976962" lon="17.6301856">
        <ele>36.6675</ele>
        <time>2014-06-01T13:51:08Z</time>
      </trkpt>
      <trkpt lat="59.8977303" lon="17.6302964">
        <ele>36.6675</ele>
        <time>2014-06-01T13:51:09Z</time>
      </trkpt>
      <trkpt lat="59.897764" lon="17.6304063">
        <ele>37.1481</ele>
        <time>2014-06-01T13:51:10Z</time>
      </trkpt>
      <trkpt lat="59.8977963" lon="17.6305173">
        <ele>37.1481</ele>
        <time>2014-06-01T13:51:11Z</time>
      </trkpt>
      <trkpt lat="59.8978274" lon="17.630629">
        <ele>37.1481</ele>
        <time>2014-06-01T13:51:12Z</time>
      </trkpt>
      <trkpt lat="59.8978572" lon="17.6307401">
        <ele>37.1481</ele>
        <time>2014-06-01T13:51:13Z</time>
      </trkpt>
      <trkpt lat="59.8978866" lon="17.63085">
        <ele>37.1481</ele>
        <time>2014-06-01T13:51:14Z</time>
      </trkpt>
      <trkpt lat="59.8979136" lon="17.6309608">
        <ele>37.6287</ele>
        <time>2014-06-01T13:51:15Z</time>
      </trkpt>
      <trkpt lat="59.8979373" lon="17.6310735">
        <ele>37.6287</ele>
        <time>2014-06-01T13:51:16Z</time>
      </trkpt>
      <trkpt lat="59.8979593" lon="17.6311866">
        <ele>37.6287</ele>
        <time>2014-06-01T13:51:17Z</time>
      </trkpt>
      <trkpt lat="59.8979799" lon="17.6313019">
        <ele>37.6287</ele>
        <time>2014-06-01T13:51:18Z</time>
      </trkpt>
      <trkpt lat="59.8979995" lon="17.6314212">
        <ele>37.1481</ele>
        <time>2014-06-01T13:51:19Z</time>
      </trkpt>
      <trkpt lat="59.8980176" lon="17.6315453">
        <ele>37.1481</ele>
        <time>2014-06-01T13:51:20Z</time>
      </trkpt>
      <trkpt lat="59.8980358" lon="17.6316719">
        <ele>37.1481</ele>
        <time>2014-06-01T13:51:21Z</time>
      </trkpt>
      <trkpt lat="59.8980571" lon="17.6317968">
        <ele>36.6675</ele>
        <time>2014-06-01T13:51:22Z</time>
      </trkpt>
      <trkpt lat="59.8980844" lon="17.6319154">
        <ele>36.6675</ele>
        <time>2014-06-01T13:51:23Z</time>
      </trkpt>
      <trkpt lat="59.8981168" lon="17.6320237">
        <ele>36.6675</ele>
        <time>2014-06-01T13:51:24Z</time>
      </trkpt>
      <trkpt lat="59.8981528" lon="17.6321186">
        <ele>36.6675</ele>
        <time>2014-06-01T13:51:25Z</time>
      </trkpt>
      <trkpt lat="59.8981916" lon="17.6322001">
        <ele>36.6675</ele>
        <time>2014-06-01T13:51:26Z</time>
      </trkpt>
      <trkpt lat="59.8982312" lon="17.6322717">
        <ele>36.6675</ele>
        <time>2014-06-01T13:51:27Z</time>
      </trkpt>
      <trkpt lat="59.8982701" lon="17.6323371">
        <ele>36.6675</ele>
        <time>2014-06-01T13:51:28Z</time>
      </trkpt>
      <trkpt lat="59.8983107" lon="17.6323986">
        <ele>36.6675</ele>
        <time>2014-06-01T13:51:29Z</time>
      </trkpt>
      <trkpt lat="59.8983498" lon="17.6324664">
        <ele>36.6675</ele>
        <time>2014-06-01T13:51:30Z</time>
      </trkpt>
      <trkpt lat="59.8983753" lon="17.6325531">
        <ele>36.6675</ele>
        <time>2014-06-01T13:51:31Z</time>
      </trkpt>
      <trkpt lat="59.8983789" lon="17.6326509">
        <ele>36.6675</ele>
        <time>2014-06-01T13:51:32Z</time>
      </trkpt>
      <trkpt lat="59.8983617" lon="17.6327418">
        <ele>36.1868</ele>
        <time>2014-06-01T13:51:33Z</time>
      </trkpt>
      <trkpt lat="59.8983357" lon="17.6328234">
        <ele>36.1868</ele>
        <time>2014-06-01T13:51:34Z</time>
      </trkpt>
      <trkpt lat="59.8983092" lon="17.6329036">
        <ele>35.7061</ele>
        <time>2014-06-01T13:51:35Z</time>
      </trkpt>
      <trkpt lat="59.8982865" lon="17.6329863">
        <ele>35.7061</ele>
        <time>2014-06-01T13:51:36Z</time>
      </trkpt>
      <trkpt lat="59.898269" lon="17.6330711">
        <ele>35.7061</ele>
        <time>2014-06-01T13:51:37Z</time>
      </trkpt>
      <trkpt lat="59.8982529" lon="17.6331561">
        <ele>35.2255</ele>
        <time>2014-06-01T13:51:38Z</time>
      </trkpt>
      <trkpt lat="59.8982394" lon="17.6332441">
        <ele>34.7449</ele>
        <time>2014-06-01T13:51:39Z</time>
      </trkpt>
      <trkpt lat="59.8982294" lon="17.6333368">
        <ele>34.7449</ele>
        <time>2014-06-01T13:51:40Z</time>
      </trkpt>
      <trkpt lat="59.8982207" lon="17.6334331">
        <ele>34.2642</ele>
        <time>2014-06-01T13:51:41Z</time>
      </trkpt>
      <trkpt lat="59.8982045" lon="17.6335262">
        <ele>34.2642</ele>
        <time>2014-06-01T13:51:42Z</time>
      </trkpt>
      <trkpt lat="59.8981851" lon="17.6336233">
        <ele>34.2642</ele>
        <time>2014-06-01T13:51:43Z</time>
      </trkpt>
      <trkpt lat="59.8981757" lon="17.6337143">
        <ele>34.2642</ele>
        <time>2014-06-01T13:51:44Z</time>
      </trkpt>
      <trkpt lat="59.898172" lon="17.6338092">
        <ele>34.2642</ele>
        <time>2014-06-01T13:51:45Z</time>
      </trkpt>
      <trkpt lat="59.8981658" lon="17.6339003">
        <ele>34.2642</ele>
        <time>2014-06-01T13:51:46Z</time>
      </trkpt>
      <trkpt lat="59.898152" lon="17.6339896">
        <ele>33.7834</ele>
        <time>2014-06-01T13:51:47Z</time>
      </trkpt>
      <trkpt lat="59.898138" lon="17.6340791">
        <ele>33.7834</ele>
        <time>2014-06-01T13:51:48Z</time>
      </trkpt>
      <trkpt lat="59.8981242" lon="17.6341698">
        <ele>33.7834</ele>
        <time>2014-06-01T13:51:49Z</time>
      </trkpt>
      <trkpt lat="59.8981054" lon="17.6342613">
        <ele>33.7834</ele>
        <time>2014-06-01T13:51:50Z</time>
      </trkpt>
      <trkpt lat="59.8980895" lon="17.6343431">
        <ele>33.3029</ele>
        <time>2014-06-01T13:51:51Z</time>
      </trkpt>
      <trkpt lat="59.8980742" lon="17.6344122">
        <ele>33.3029</ele>
        <time>2014-06-01T13:51:52Z</time>
      </trkpt>
      <trkpt lat="59.8980588" lon="17.6344703">
        <ele>33.3029</ele>
        <time>2014-06-01T13:51:53Z</time>
      </trkpt>
      <trkpt lat="59.898051" lon="17.634508">
        <ele>33.3029</ele>
        <time>2014-06-01T13:51:54Z</time>
      </trkpt>
      <trkpt lat="59.8980451" lon="17.634531">
        <ele>33.3029</ele>
        <time>2014-06-01T13:51:55Z</time>
      </trkpt>
      <trkpt lat="59.8980415" lon="17.6345547">
        <ele>33.3029</ele>
        <time>2014-06-01T13:51:56Z</time>
      </trkpt>
      <trkpt lat="59.8980388" lon="17.6345643">
        <ele>33.7834</ele>
        <time>2014-06-01T13:51:57Z</time>
      </trkpt>
      <trkpt lat="59.8980384" lon="17.6345707">
        <ele>33.7834</ele>
        <time>2014-06-01T13:51:58Z</time>
      </trkpt>
      <trkpt lat="59.8980398" lon="17.6345695">
        <ele>33.7834</ele>
        <time>2014-06-01T13:51:59Z</time>
      </trkpt>
      <trkpt lat="59.8980452" lon="17.6346358">
        <ele>33.7834</ele>
        <time>2014-06-01T13:52:14Z</time>
      </trkpt>
      <trkpt lat="59.8980378" lon="17.6346814">
        <ele>33.3029</ele>
        <time>2014-06-01T13:52:15Z</time>
      </trkpt>
      <trkpt lat="59.8980317" lon="17.6347402">
        <ele>33.3029</ele>
        <time>2014-06-01T13:52:16Z</time>
      </trkpt>
      <trkpt lat="59.8980147" lon="17.6348261">
        <ele>33.3029</ele>
        <time>2014-06-01T13:52:17Z</time>
      </trkpt>
      <trkpt lat="59.8979807" lon="17.6349166">
        <ele>32.8223</ele>
        <time>2014-06-01T13:52:18Z</time>
      </trkpt>
      <trkpt lat="59.8979451" lon="17.6349876">
        <ele>32.3416</ele>
        <time>2014-06-01T13:52:19Z</time>
      </trkpt>
      <trkpt lat="59.8979093" lon="17.6350503">
        <ele>32.3416</ele>
        <time>2014-06-01T13:52:20Z</time>
      </trkpt>
      <trkpt lat="59.8978758" lon="17.6351022">
        <ele>32.3416</ele>
        <time>2014-06-01T13:52:21Z</time>
      </trkpt>
      <trkpt lat="59.8978453" lon="17.6351473">
        <ele>31.8607</ele>
        <time>2014-06-01T13:52:22Z</time>
      </trkpt>
      <trkpt lat="59.897814" lon="17.6351937">
        <ele>31.8607</ele>
        <time>2014-06-01T13:52:23Z</time>
      </trkpt>
      <trkpt lat="59.897785" lon="17.6352441">
        <ele>30.8995</ele>
        <time>2014-06-01T13:52:24Z</time>
      </trkpt>
      <trkpt lat="59.8977603" lon="17.6352921">
        <ele>31.3801</ele>
        <time>2014-06-01T13:52:25Z</time>
      </trkpt>
      <trkpt lat="59.8977334" lon="17.6353493">
        <ele>31.3801</ele>
        <time>2014-06-01T13:52:26Z</time>
      </trkpt>
      <trkpt lat="59.897707" lon="17.6354107">
        <ele>31.3801</ele>
        <time>2014-06-01T13:52:27Z</time>
      </trkpt>
      <trkpt lat="59.897679" lon="17.6354848">
        <ele>30.8995</ele>
        <time>2014-06-01T13:52:28Z</time>
      </trkpt>
      <trkpt lat="59.8976487" lon="17.6355726">
        <ele>30.8995</ele>
        <time>2014-06-01T13:52:29Z</time>
      </trkpt>
      <trkpt lat="59.8976162" lon="17.6356674">
        <ele>30.8995</ele>
        <time>2014-06-01T13:52:30Z</time>
      </trkpt>
      <trkpt lat="59.8975869" lon="17.6357591">
        <ele>30.8995</ele>
        <time>2014-06-01T13:52:31Z</time>
      </trkpt>
      <trkpt lat="59.8975582" lon="17.6358528">
        <ele>31.3801</ele>
        <time>2014-06-01T13:52:32Z</time>
      </trkpt>
      <trkpt lat="59.8975273" lon="17.6359482">
        <ele>31.3801</ele>
        <time>2014-06-01T13:52:33Z</time>
      </trkpt>
      <trkpt lat="59.8974967" lon="17.6360434">
        <ele>31.3801</ele>
        <time>2014-06-01T13:52:34Z</time>
      </trkpt>
      <trkpt lat="59.8974672" lon="17.6361346">
        <ele>31.3801</ele>
        <time>2014-06-01T13:52:35Z</time>
      </trkpt>
      <trkpt lat="59.8974389" lon="17.6362175">
        <ele>31.8607</ele>
        <time>2014-06-01T13:52:36Z</time>
      </trkpt>
      <trkpt lat="59.897411" lon="17.6362989">
        <ele>31.8607</ele>
        <time>2014-06-01T13:52:37Z</time>
      </trkpt>
      <trkpt lat="59.8973842" lon="17.636376">
        <ele>32.3416</ele>
        <time>2014-06-01T13:52:38Z</time>
      </trkpt>
      <trkpt lat="59.8973588" lon="17.6364407">
        <ele>32.3416</ele>
        <time>2014-06-01T13:52:39Z</time>
      </trkpt>
      <trkpt lat="59.8973364" lon="17.6364993">
        <ele>32.3416</ele>
        <time>2014-06-01T13:52:40Z</time>
      </trkpt>
      <trkpt lat="59.8973153" lon="17.6365581">
        <ele>32.3416</ele>
        <time>2014-06-01T13:52:41Z</time>
      </trkpt>
      <trkpt lat="59.8972946" lon="17.6366174">
        <ele>32.3416</ele>
        <time>2014-06-01T13:52:42Z</time>
      </trkpt>
      <trkpt lat="59.8972708" lon="17.6366775">
        <ele>32.3416</ele>
        <time>2014-06-01T13:52:43Z</time>
      </trkpt>
      <trkpt lat="59.8972412" lon="17.6367364">
        <ele>32.3416</ele>
        <time>2014-06-01T13:52:44Z</time>
      </trkpt>
      <trkpt lat="59.897203" lon="17.6367764">
        <ele>32.3416</ele>
        <time>2014-06-01T13:52:45Z</time>
      </trkpt>
      <trkpt lat="59.8971605" lon="17.6367884">
        <ele>32.3416</ele>
        <time>2014-06-01T13:52:46Z</time>
      </trkpt>
      <trkpt lat="59.8971184" lon="17.6367827">
        <ele>32.3416</ele>
        <time>2014-06-01T13:52:47Z</time>
      </trkpt>
      <trkpt lat="59.8970773" lon="17.6367712">
        <ele>32.3416</ele>
        <time>2014-06-01T13:52:48Z</time>
      </trkpt>
      <trkpt lat="59.8970401" lon="17.6367701">
        <ele>31.8607</ele>
        <time>2014-06-01T13:52:49Z</time>
      </trkpt>
      <trkpt lat="59.8970096" lon="17.6367955">
        <ele>31.8607</ele>
        <time>2014-06-01T13:52:50Z</time>
      </trkpt>
      <trkpt lat="59.8969879" lon="17.6368654">
        <ele>31.8607</ele>
        <time>2014-06-01T13:52:51Z</time>
      </trkpt>
      <trkpt lat="59.8969741" lon="17.6369546">
        <ele>31.8607</ele>
        <time>2014-06-01T13:52:52Z</time>
      </trkpt>
      <trkpt lat="59.8969719" lon="17.6370603">
        <ele>32.3416</ele>
        <time>2014-06-01T13:52:53Z</time>
      </trkpt>
      <trkpt lat="59.8969651" lon="17.6371547">
        <ele>32.8223</ele>
        <time>2014-06-01T13:52:54Z</time>
      </trkpt>
      <trkpt lat="59.8969682" lon="17.6372509">
        <ele>33.3029</ele>
        <time>2014-06-01T13:52:55Z</time>
      </trkpt>
      <trkpt lat="59.8969567" lon="17.6373286">
        <ele>33.3029</ele>
        <time>2014-06-01T13:52:56Z</time>
      </trkpt>
      <trkpt lat="59.8969425" lon="17.6374037">
        <ele>33.7834</ele>
        <time>2014-06-01T13:52:57Z</time>
      </trkpt>
      <trkpt lat="59.8969294" lon="17.6374768">
        <ele>34.2642</ele>
        <time>2014-06-01T13:52:58Z</time>
      </trkpt>
      <trkpt lat="59.8969179" lon="17.6375477">
        <ele>34.2642</ele>
        <time>2014-06-01T13:52:59Z</time>
      </trkpt>
      <trkpt lat="59.8969025" lon="17.6376172">
        <ele>34.7449</ele>
        <time>2014-06-01T13:53:00Z</time>
      </trkpt>
      <trkpt lat="59.8968843" lon="17.6376901">
        <ele>34.7449</ele>
        <time>2014-06-01T13:53:01Z</time>
      </trkpt>
      <trkpt lat="59.8968613" lon="17.6377637">
        <ele>34.7449</ele>
        <time>2014-06-01T13:53:02Z</time>
      </trkpt>
      <trkpt lat="59.8968439" lon="17.6378392">
        <ele>34.7449</ele>
        <time>2014-06-01T13:53:03Z</time>
      </trkpt>
      <trkpt lat="59.8968271" lon="17.6379166">
        <ele>34.7449</ele>
        <time>2014-06-01T13:53:04Z</time>
      </trkpt>
      <trkpt lat="59.8968093" lon="17.6379922">
        <ele>34.7449</ele>
        <time>2014-06-01T13:53:05Z</time>
      </trkpt>
      <trkpt lat="59.8967942" lon="17.638069">
        <ele>34.7449</ele>
        <time>2014-06-01T13:53:06Z</time>
      </trkpt>
      <trkpt lat="59.8967802" lon="17.638144">
        <ele>34.7449</ele>
        <time>2014-06-01T13:53:07Z</time>
      </trkpt>
      <trkpt lat="59.8967652" lon="17.6382159">
        <ele>34.7449</ele>
        <time>2014-06-01T13:53:08Z</time>
      </trkpt>
      <trkpt lat="59.8967515" lon="17.6382841">
        <ele>34.7449</ele>
        <time>2014-06-01T13:53:09Z</time>
      </trkpt>
      <trkpt lat="59.8967387" lon="17.6383528">
        <ele>35.2255</ele>
        <time>2014-06-01T13:53:10Z</time>
      </trkpt>
      <trkpt lat="59.8967235" lon="17.6384309">
        <ele>35.2255</ele>
        <time>2014-06-01T13:53:11Z</time>
      </trkpt>
      <trkpt lat="59.8967108" lon="17.6385175">
        <ele>35.2255</ele>
        <time>2014-06-01T13:53:12Z</time>
      </trkpt>
      <trkpt lat="59.8966953" lon="17.6386134">
        <ele>35.7061</ele>
        <time>2014-06-01T13:53:13Z</time>
      </trkpt>
      <trkpt lat="59.896677" lon="17.6386915">
        <ele>35.7061</ele>
        <time>2014-06-01T13:53:14Z</time>
      </trkpt>
      <trkpt lat="59.8966506" lon="17.6387553">
        <ele>35.7061</ele>
        <time>2014-06-01T13:53:15Z</time>
      </trkpt>
      <trkpt lat="59.8966087" lon="17.6387949">
        <ele>36.1868</ele>
        <time>2014-06-01T13:53:16Z</time>
      </trkpt>
      <trkpt lat="59.8965669" lon="17.6387991">
        <ele>35.7061</ele>
        <time>2014-06-01T13:53:17Z</time>
      </trkpt>
      <trkpt lat="59.8965263" lon="17.6387801">
        <ele>35.2255</ele>
        <time>2014-06-01T13:53:18Z</time>
      </trkpt>
      <trkpt lat="59.8964865" lon="17.6387521">
        <ele>35.2255</ele>
        <time>2014-06-01T13:53:19Z</time>
      </trkpt>
      <trkpt lat="59.8964487" lon="17.6387257">
        <ele>35.7061</ele>
        <time>2014-06-01T13:53:20Z</time>
      </trkpt>
      <trkpt lat="59.8964099" lon="17.6386977">
        <ele>35.7061</ele>
        <time>2014-06-01T13:53:21Z</time>
      </trkpt>
      <trkpt lat="59.8963736" lon="17.6386743">
        <ele>36.1868</ele>
        <time>2014-06-01T13:53:22Z</time>
      </trkpt>
      <trkpt lat="59.8963368" lon="17.6386502">
        <ele>36.1868</ele>
        <time>2014-06-01T13:53:23Z</time>
      </trkpt>
      <trkpt lat="59.8963001" lon="17.6386283">
        <ele>36.6675</ele>
        <time>2014-06-01T13:53:24Z</time>
      </trkpt>
      <trkpt lat="59.8962641" lon="17.6386174">
        <ele>37.1481</ele>
        <time>2014-06-01T13:53:25Z</time>
      </trkpt>
      <trkpt lat="59.8962284" lon="17.6386066">
        <ele>37.1481</ele>
        <time>2014-06-01T13:53:26Z</time>
      </trkpt>
      <trkpt lat="59.8961926" lon="17.6385967">
        <ele>37.1481</ele>
        <time>2014-06-01T13:53:27Z</time>
      </trkpt>
      <trkpt lat="59.8961569" lon="17.6385857">
        <ele>37.6287</ele>
        <time>2014-06-01T13:53:28Z</time>
      </trkpt>
      <trkpt lat="59.8961219" lon="17.6385734">
        <ele>37.6287</ele>
        <time>2014-06-01T13:53:29Z</time>
      </trkpt>
      <trkpt lat="59.8960874" lon="17.6385843">
        <ele>37.6287</ele>
        <time>2014-06-01T13:53:30Z</time>
      </trkpt>
      <trkpt lat="59.8960559" lon="17.6386269">
        <ele>38.1094</ele>
        <time>2014-06-01T13:53:31Z</time>
      </trkpt>
      <trkpt lat="59.8960349" lon="17.6386822">
        <ele>38.5901</ele>
        <time>2014-06-01T13:53:32Z</time>
      </trkpt>
      <trkpt lat="59.8960188" lon="17.6387498">
        <ele>38.5901</ele>
        <time>2014-06-01T13:53:33Z</time>
      </trkpt>
      <trkpt lat="59.8960053" lon="17.6388303">
        <ele>38.5901</ele>
        <time>2014-06-01T13:53:34Z</time>
      </trkpt>
      <trkpt lat="59.8959928" lon="17.6389225">
        <ele>38.5901</ele>
        <time>2014-06-01T13:53:35Z</time>
      </trkpt>
      <trkpt lat="59.8959783" lon="17.6390277">
        <ele>38.1094</ele>
        <time>2014-06-01T13:53:36Z</time>
      </trkpt>
      <trkpt lat="59.8959643" lon="17.6391407">
        <ele>37.6287</ele>
        <time>2014-06-01T13:53:37Z</time>
      </trkpt>
      <trkpt lat="59.8959457" lon="17.6392644">
        <ele>37.6287</ele>
        <time>2014-06-01T13:53:38Z</time>
      </trkpt>
      <trkpt lat="59.8959244" lon="17.6393913">
        <ele>37.1481</ele>
        <time>2014-06-01T13:53:39Z</time>
      </trkpt>
      <trkpt lat="59.8959016" lon="17.639515">
        <ele>37.1481</ele>
        <time>2014-06-01T13:53:40Z</time>
      </trkpt>
      <trkpt lat="59.8958778" lon="17.6396369">
        <ele>37.1481</ele>
        <time>2014-06-01T13:53:41Z</time>
      </trkpt>
      <trkpt lat="59.8958561" lon="17.6397574">
        <ele>37.6287</ele>
        <time>2014-06-01T13:53:42Z</time>
      </trkpt>
      <trkpt lat="59.8958364" lon="17.6398724">
        <ele>37.6287</ele>
        <time>2014-06-01T13:53:43Z</time>
      </trkpt>
      <trkpt lat="59.8958163" lon="17.639983">
        <ele>37.6287</ele>
        <time>2014-06-01T13:53:44Z</time>
      </trkpt>
      <trkpt lat="59.8957976" lon="17.6400904">
        <ele>37.6287</ele>
        <time>2014-06-01T13:53:45Z</time>
      </trkpt>
      <trkpt lat="59.8957788" lon="17.6401917">
        <ele>37.6287</ele>
        <time>2014-06-01T13:53:46Z</time>
      </trkpt>
      <trkpt lat="59.8957597" lon="17.6402878">
        <ele>37.6287</ele>
        <time>2014-06-01T13:53:47Z</time>
      </trkpt>
      <trkpt lat="59.895745" lon="17.6403751">
        <ele>37.6287</ele>
        <time>2014-06-01T13:53:48Z</time>
      </trkpt>
      <trkpt lat="59.8957331" lon="17.6404641">
        <ele>37.6287</ele>
        <time>2014-06-01T13:53:49Z</time>
      </trkpt>
      <trkpt lat="59.8957219" lon="17.6405621">
        <ele>37.1481</ele>
        <time>2014-06-01T13:53:50Z</time>
      </trkpt>
      <trkpt lat="59.89571" lon="17.6406656">
        <ele>36.6675</ele>
        <time>2014-06-01T13:53:51Z</time>
      </trkpt>
      <trkpt lat="59.8956961" lon="17.6407719">
        <ele>36.1868</ele>
        <time>2014-06-01T13:53:52Z</time>
      </trkpt>
      <trkpt lat="59.8956818" lon="17.6408868">
        <ele>35.7061</ele>
        <time>2014-06-01T13:53:53Z</time>
      </trkpt>
      <trkpt lat="59.8956731" lon="17.6409964">
        <ele>35.2255</ele>
        <time>2014-06-01T13:53:54Z</time>
      </trkpt>
      <trkpt lat="59.8956648" lon="17.6411054">
        <ele>34.7449</ele>
        <time>2014-06-01T13:53:55Z</time>
      </trkpt>
      <trkpt lat="59.895657" lon="17.6412154">
        <ele>34.2642</ele>
        <time>2014-06-01T13:53:56Z</time>
      </trkpt>
      <trkpt lat="59.8956487" lon="17.6413292">
        <ele>34.2642</ele>
        <time>2014-06-01T13:53:57Z</time>
      </trkpt>
      <trkpt lat="59.8956405" lon="17.6414414">
        <ele>33.7834</ele>
        <time>2014-06-01T13:53:58Z</time>
      </trkpt>
      <trkpt lat="59.8956328" lon="17.6415519">
        <ele>33.3029</ele>
        <time>2014-06-01T13:53:59Z</time>
      </trkpt>
      <trkpt lat="59.8956243" lon="17.6416622">
        <ele>33.3029</ele>
        <time>2014-06-01T13:54:00Z</time>
      </trkpt>
      <trkpt lat="59.8956155" lon="17.6417668">
        <ele>32.8223</ele>
        <time>2014-06-01T13:54:01Z</time>
      </trkpt>
      <trkpt lat="59.8956081" lon="17.6418709">
        <ele>32.8223</ele>
        <time>2014-06-01T13:54:02Z</time>
      </trkpt>
      <trkpt lat="59.8955987" lon="17.6419752">
        <ele>32.8223</ele>
        <time>2014-06-01T13:54:03Z</time>
      </trkpt>
      <trkpt lat="59.8955893" lon="17.6420752">
        <ele>32.8223</ele>
        <time>2014-06-01T13:54:04Z</time>
      </trkpt>
      <trkpt lat="59.8955821" lon="17.6421736">
        <ele>32.8223</ele>
        <time>2014-06-01T13:54:05Z</time>
      </trkpt>
      <trkpt lat="59.8955737" lon="17.6422741">
        <ele>32.8223</ele>
        <time>2014-06-01T13:54:06Z</time>
      </trkpt>
      <trkpt lat="59.8955655" lon="17.6423743">
        <ele>32.3416</ele>
        <time>2014-06-01T13:54:07Z</time>
      </trkpt>
      <trkpt lat="59.8955594" lon="17.642476">
        <ele>32.8223</ele>
        <time>2014-06-01T13:54:08Z</time>
      </trkpt>
      <trkpt lat="59.8955536" lon="17.64258">
        <ele>32.8223</ele>
        <time>2014-06-01T13:54:09Z</time>
      </trkpt>
      <trkpt lat="59.8955454" lon="17.6426862">
        <ele>32.8223</ele>
        <time>2014-06-01T13:54:10Z</time>
      </trkpt>
      <trkpt lat="59.8955349" lon="17.6427952">
        <ele>32.8223</ele>
        <time>2014-06-01T13:54:11Z</time>
      </trkpt>
      <trkpt lat="59.8955229" lon="17.6429056">
        <ele>32.8223</ele>
        <time>2014-06-01T13:54:12Z</time>
      </trkpt>
      <trkpt lat="59.8955106" lon="17.6430129">
        <ele>32.3416</ele>
        <time>2014-06-01T13:54:13Z</time>
      </trkpt>
      <trkpt lat="59.8954992" lon="17.6431173">
        <ele>32.8223</ele>
        <time>2014-06-01T13:54:14Z</time>
      </trkpt>
      <trkpt lat="59.8954924" lon="17.6432198">
        <ele>32.8223</ele>
        <time>2014-06-01T13:54:15Z</time>
      </trkpt>
      <trkpt lat="59.8954841" lon="17.6433184">
        <ele>32.8223</ele>
        <time>2014-06-01T13:54:16Z</time>
      </trkpt>
      <trkpt lat="59.8954756" lon="17.6434111">
        <ele>32.8223</ele>
        <time>2014-06-01T13:54:17Z</time>
      </trkpt>
      <trkpt lat="59.8954663" lon="17.6434997">
        <ele>33.3029</ele>
        <time>2014-06-01T13:54:18Z</time>
      </trkpt>
      <trkpt lat="59.8954583" lon="17.6435844">
        <ele>33.3029</ele>
        <time>2014-06-01T13:54:19Z</time>
      </trkpt>
      <trkpt lat="59.8954531" lon="17.6436659">
        <ele>33.3029</ele>
        <time>2014-06-01T13:54:20Z</time>
      </trkpt>
      <trkpt lat="59.8954468" lon="17.6437548">
        <ele>32.8223</ele>
        <time>2014-06-01T13:54:21Z</time>
      </trkpt>
      <trkpt lat="59.8954391" lon="17.6438497">
        <ele>32.3416</ele>
        <time>2014-06-01T13:54:22Z</time>
      </trkpt>
      <trkpt lat="59.8954352" lon="17.6439498">
        <ele>32.3416</ele>
        <time>2014-06-01T13:54:23Z</time>
      </trkpt>
      <trkpt lat="59.8954306" lon="17.6440493">
        <ele>31.8607</ele>
        <time>2014-06-01T13:54:24Z</time>
      </trkpt>
      <trkpt lat="59.8954224" lon="17.6441487">
        <ele>31.8607</ele>
        <time>2014-06-01T13:54:25Z</time>
      </trkpt>
      <trkpt lat="59.8954131" lon="17.6442521">
        <ele>31.8607</ele>
        <time>2014-06-01T13:54:26Z</time>
      </trkpt>
      <trkpt lat="59.8954049" lon="17.6443501">
        <ele>31.8607</ele>
        <time>2014-06-01T13:54:27Z</time>
      </trkpt>
      <trkpt lat="59.8953972" lon="17.6444537">
        <ele>32.3416</ele>
        <time>2014-06-01T13:54:28Z</time>
      </trkpt>
      <trkpt lat="59.8953918" lon="17.6445621">
        <ele>32.3416</ele>
        <time>2014-06-01T13:54:29Z</time>
      </trkpt>
      <trkpt lat="59.8953871" lon="17.6446739">
        <ele>32.3416</ele>
        <time>2014-06-01T13:54:30Z</time>
      </trkpt>
      <trkpt lat="59.8953806" lon="17.6447906">
        <ele>32.8223</ele>
        <time>2014-06-01T13:54:31Z</time>
      </trkpt>
      <trkpt lat="59.8953759" lon="17.6449075">
        <ele>32.8223</ele>
        <time>2014-06-01T13:54:32Z</time>
      </trkpt>
      <trkpt lat="59.8953743" lon="17.645034">
        <ele>32.8223</ele>
        <time>2014-06-01T13:54:33Z</time>
      </trkpt>
      <trkpt lat="59.8953681" lon="17.6451408">
        <ele>32.8223</ele>
        <time>2014-06-01T13:54:34Z</time>
      </trkpt>
      <trkpt lat="59.8953575" lon="17.64524">
        <ele>32.8223</ele>
        <time>2014-06-01T13:54:35Z</time>
      </trkpt>
      <trkpt lat="59.8953478" lon="17.6453337">
        <ele>32.8223</ele>
        <time>2014-06-01T13:54:36Z</time>
      </trkpt>
      <trkpt lat="59.89534" lon="17.6454205">
        <ele>33.3029</ele>
        <time>2014-06-01T13:54:37Z</time>
      </trkpt>
      <trkpt lat="59.8953313" lon="17.6455032">
        <ele>33.3029</ele>
        <time>2014-06-01T13:54:38Z</time>
      </trkpt>
      <trkpt lat="59.895323" lon="17.6455905">
        <ele>33.7834</ele>
        <time>2014-06-01T13:54:39Z</time>
      </trkpt>
      <trkpt lat="59.8953189" lon="17.6456789">
        <ele>33.7834</ele>
        <time>2014-06-01T13:54:40Z</time>
      </trkpt>
      <trkpt lat="59.895319" lon="17.645765">
        <ele>34.2642</ele>
        <time>2014-06-01T13:54:41Z</time>
      </trkpt>
      <trkpt lat="59.8953142" lon="17.6458421">
        <ele>34.2642</ele>
        <time>2014-06-01T13:54:42Z</time>
      </trkpt>
      <trkpt lat="59.8952997" lon="17.6458965">
        <ele>34.2642</ele>
        <time>2014-06-01T13:54:43Z</time>
      </trkpt>
      <trkpt lat="59.8952814" lon="17.6459381">
        <ele>34.2642</ele>
        <time>2014-06-01T13:54:44Z</time>
      </trkpt>
      <trkpt lat="59.8952625" lon="17.6459472">
        <ele>34.2642</ele>
        <time>2014-06-01T13:54:45Z</time>
      </trkpt>
      <trkpt lat="59.8952405" lon="17.6459302">
        <ele>34.2642</ele>
        <time>2014-06-01T13:54:46Z</time>
      </trkpt>
      <trkpt lat="59.8952131" lon="17.6459105">
        <ele>33.7834</ele>
        <time>2014-06-01T13:54:47Z</time>
      </trkpt>
      <trkpt lat="59.8951796" lon="17.6458968">
        <ele>33.7834</ele>
        <time>2014-06-01T13:54:48Z</time>
      </trkpt>
      <trkpt lat="59.8951421" lon="17.6458867">
        <ele>33.3029</ele>
        <time>2014-06-01T13:54:49Z</time>
      </trkpt>
      <trkpt lat="59.8950986" lon="17.6458748">
        <ele>32.8223</ele>
        <time>2014-06-01T13:54:50Z</time>
      </trkpt>
      <trkpt lat="59.8950528" lon="17.6458624">
        <ele>32.8223</ele>
        <time>2014-06-01T13:54:51Z</time>
      </trkpt>
      <trkpt lat="59.8950066" lon="17.6458507">
        <ele>32.3416</ele>
        <time>2014-06-01T13:54:52Z</time>
      </trkpt>
      <trkpt lat="59.8949608" lon="17.6458422">
        <ele>32.3416</ele>
        <time>2014-06-01T13:54:53Z</time>
      </trkpt>
      <trkpt lat="59.8949133" lon="17.6458281">
        <ele>32.3416</ele>
        <time>2014-06-01T13:54:54Z</time>
      </trkpt>
      <trkpt lat="59.8948651" lon="17.6458134">
        <ele>32.3416</ele>
        <time>2014-06-01T13:54:55Z</time>
      </trkpt>
      <trkpt lat="59.8948185" lon="17.6457938">
        <ele>32.3416</ele>
        <time>2014-06-01T13:54:56Z</time>
      </trkpt>
      <trkpt lat="59.8947708" lon="17.6457758">
        <ele>32.3416</ele>
        <time>2014-06-01T13:54:57Z</time>
      </trkpt>
      <trkpt lat="59.8947225" lon="17.6457653">
        <ele>32.3416</ele>
        <time>2014-06-01T13:54:58Z</time>
      </trkpt>
      <trkpt lat="59.8946739" lon="17.6457679">
        <ele>31.8607</ele>
        <time>2014-06-01T13:54:59Z</time>
      </trkpt>
      <trkpt lat="59.8946335" lon="17.6457939">
        <ele>31.8607</ele>
        <time>2014-06-01T13:55:00Z</time>
      </trkpt>
      <trkpt lat="59.8946132" lon="17.6458679">
        <ele>31.3801</ele>
        <time>2014-06-01T13:55:01Z</time>
      </trkpt>
      <trkpt lat="59.8946018" lon="17.6459551">
        <ele>31.8607</ele>
        <time>2014-06-01T13:55:02Z</time>
      </trkpt>
      <trkpt lat="59.8945921" lon="17.6460487">
        <ele>31.8607</ele>
        <time>2014-06-01T13:55:03Z</time>
      </trkpt>
      <trkpt lat="59.8945828" lon="17.6461476">
        <ele>31.8607</ele>
        <time>2014-06-01T13:55:04Z</time>
      </trkpt>
      <trkpt lat="59.8945735" lon="17.6462447">
        <ele>31.3801</ele>
        <time>2014-06-01T13:55:05Z</time>
      </trkpt>
      <trkpt lat="59.8945684" lon="17.6463808">
        <ele>31.3801</ele>
        <time>2014-06-01T13:55:06Z</time>
      </trkpt>
      <trkpt lat="59.894544" lon="17.6464735">
        <ele>31.3801</ele>
        <time>2014-06-01T13:55:07Z</time>
      </trkpt>
      <trkpt lat="59.8945258" lon="17.6465724">
        <ele>31.8607</ele>
        <time>2014-06-01T13:55:08Z</time>
      </trkpt>
      <trkpt lat="59.8945112" lon="17.6466448">
        <ele>31.8607</ele>
        <time>2014-06-01T13:55:09Z</time>
      </trkpt>
      <trkpt lat="59.8944974" lon="17.6467243">
        <ele>32.3416</ele>
        <time>2014-06-01T13:55:10Z</time>
      </trkpt>
      <trkpt lat="59.894489" lon="17.6468003">
        <ele>32.3416</ele>
        <time>2014-06-01T13:55:11Z</time>
      </trkpt>
      <trkpt lat="59.8944767" lon="17.6468834">
        <ele>32.3416</ele>
        <time>2014-06-01T13:55:12Z</time>
      </trkpt>
      <trkpt lat="59.89446" lon="17.6469786">
        <ele>32.3416</ele>
        <time>2014-06-01T13:55:13Z</time>
      </trkpt>
      <trkpt lat="59.894444" lon="17.6470789">
        <ele>32.8223</ele>
        <time>2014-06-01T13:55:14Z</time>
      </trkpt>
      <trkpt lat="59.8944332" lon="17.6471864">
        <ele>33.3029</ele>
        <time>2014-06-01T13:55:15Z</time>
      </trkpt>
      <trkpt lat="59.8944191" lon="17.6472714">
        <ele>33.3029</ele>
        <time>2014-06-01T13:55:16Z</time>
      </trkpt>
      <trkpt lat="59.8944077" lon="17.6473583">
        <ele>33.3029</ele>
        <time>2014-06-01T13:55:17Z</time>
      </trkpt>
      <trkpt lat="59.8943953" lon="17.6474463">
        <ele>33.7834</ele>
        <time>2014-06-01T13:55:18Z</time>
      </trkpt>
      <trkpt lat="59.8943759" lon="17.6475308">
        <ele>34.2642</ele>
        <time>2014-06-01T13:55:19Z</time>
      </trkpt>
      <trkpt lat="59.8943518" lon="17.6476131">
        <ele>34.2642</ele>
        <time>2014-06-01T13:55:20Z</time>
      </trkpt>
      <trkpt lat="59.8943215" lon="17.6476986">
        <ele>33.7834</ele>
        <time>2014-06-01T13:55:21Z</time>
      </trkpt>
      <trkpt lat="59.8942839" lon="17.6477861">
        <ele>33.7834</ele>
        <time>2014-06-01T13:55:22Z</time>
      </trkpt>
      <trkpt lat="59.8942487" lon="17.6478768">
        <ele>33.7834</ele>
        <time>2014-06-01T13:55:23Z</time>
      </trkpt>
      <trkpt lat="59.8942036" lon="17.6479692">
        <ele>33.7834</ele>
        <time>2014-06-01T13:55:24Z</time>
      </trkpt>
      <trkpt lat="59.8941673" lon="17.6480545">
        <ele>33.7834</ele>
        <time>2014-06-01T13:55:25Z</time>
      </trkpt>
      <trkpt lat="59.8941314" lon="17.6481369">
        <ele>33.7834</ele>
        <time>2014-06-01T13:55:26Z</time>
      </trkpt>
      <trkpt lat="59.8940963" lon="17.648216">
        <ele>33.7834</ele>
        <time>2014-06-01T13:55:27Z</time>
      </trkpt>
      <trkpt lat="59.8940631" lon="17.6482943">
        <ele>33.7834</ele>
        <time>2014-06-01T13:55:28Z</time>
      </trkpt>
      <trkpt lat="59.8940317" lon="17.6483734">
        <ele>34.2642</ele>
        <time>2014-06-01T13:55:29Z</time>
      </trkpt>
      <trkpt lat="59.8940001" lon="17.6484576">
        <ele>33.7834</ele>
        <time>2014-06-01T13:55:30Z</time>
      </trkpt>
      <trkpt lat="59.8939649" lon="17.6485464">
        <ele>33.7834</ele>
        <time>2014-06-01T13:55:31Z</time>
      </trkpt>
      <trkpt lat="59.8939276" lon="17.6486383">
        <ele>33.7834</ele>
        <time>2014-06-01T13:55:32Z</time>
      </trkpt>
      <trkpt lat="59.8938895" lon="17.6487284">
        <ele>33.7834</ele>
        <time>2014-06-01T13:55:33Z</time>
      </trkpt>
      <trkpt lat="59.8938519" lon="17.6488139">
        <ele>33.7834</ele>
        <time>2014-06-01T13:55:34Z</time>
      </trkpt>
      <trkpt lat="59.8938154" lon="17.6488994">
        <ele>33.3029</ele>
        <time>2014-06-01T13:55:35Z</time>
      </trkpt>
      <trkpt lat="59.8937808" lon="17.6489858">
        <ele>33.3029</ele>
        <time>2014-06-01T13:55:36Z</time>
      </trkpt>
      <trkpt lat="59.8937473" lon="17.6490684">
        <ele>33.3029</ele>
        <time>2014-06-01T13:55:37Z</time>
      </trkpt>
      <trkpt lat="59.8937118" lon="17.6491484">
        <ele>33.3029</ele>
        <time>2014-06-01T13:55:38Z</time>
      </trkpt>
      <trkpt lat="59.8936792" lon="17.6492377">
        <ele>33.3029</ele>
        <time>2014-06-01T13:55:39Z</time>
      </trkpt>
      <trkpt lat="59.8936487" lon="17.6493387">
        <ele>33.3029</ele>
        <time>2014-06-01T13:55:40Z</time>
      </trkpt>
      <trkpt lat="59.8936135" lon="17.6494194">
        <ele>32.8223</ele>
        <time>2014-06-01T13:55:41Z</time>
      </trkpt>
      <trkpt lat="59.893581" lon="17.6495086">
        <ele>32.8223</ele>
        <time>2014-06-01T13:55:42Z</time>
      </trkpt>
      <trkpt lat="59.8935639" lon="17.6496017">
        <ele>32.3416</ele>
        <time>2014-06-01T13:55:43Z</time>
      </trkpt>
      <trkpt lat="59.8935582" lon="17.6497018">
        <ele>32.3416</ele>
        <time>2014-06-01T13:55:44Z</time>
      </trkpt>
      <trkpt lat="59.8935528" lon="17.6497925">
        <ele>32.3416</ele>
        <time>2014-06-01T13:55:45Z</time>
      </trkpt>
      <trkpt lat="59.8935312" lon="17.6498448">
        <ele>31.8607</ele>
        <time>2014-06-01T13:55:46Z</time>
      </trkpt>
      <trkpt lat="59.8935022" lon="17.6498746">
        <ele>31.8607</ele>
        <time>2014-06-01T13:55:47Z</time>
      </trkpt>
      <trkpt lat="59.8934785" lon="17.6499189">
        <ele>31.3801</ele>
        <time>2014-06-01T13:55:48Z</time>
      </trkpt>
      <trkpt lat="59.8934613" lon="17.6499824">
        <ele>31.3801</ele>
        <time>2014-06-01T13:55:49Z</time>
      </trkpt>
      <trkpt lat="59.8934435" lon="17.6500625">
        <ele>31.3801</ele>
        <time>2014-06-01T13:55:50Z</time>
      </trkpt>
      <trkpt lat="59.8934243" lon="17.6501479">
        <ele>31.3801</ele>
        <time>2014-06-01T13:55:51Z</time>
      </trkpt>
      <trkpt lat="59.8934041" lon="17.6502389">
        <ele>31.3801</ele>
        <time>2014-06-01T13:55:52Z</time>
      </trkpt>
      <trkpt lat="59.8933813" lon="17.6503419">
        <ele>30.8995</ele>
        <time>2014-06-01T13:55:53Z</time>
      </trkpt>
      <trkpt lat="59.8933573" lon="17.650444">
        <ele>30.8995</ele>
        <time>2014-06-01T13:55:54Z</time>
      </trkpt>
      <trkpt lat="59.8933329" lon="17.6505389">
        <ele>30.8995</ele>
        <time>2014-06-01T13:55:55Z</time>
      </trkpt>
      <trkpt lat="59.8933088" lon="17.6506311">
        <ele>30.8995</ele>
        <time>2014-06-01T13:55:56Z</time>
      </trkpt>
      <trkpt lat="59.8932842" lon="17.6507236">
        <ele>30.8995</ele>
        <time>2014-06-01T13:55:57Z</time>
      </trkpt>
      <trkpt lat="59.8932596" lon="17.6508143">
        <ele>31.3801</ele>
        <time>2014-06-01T13:55:58Z</time>
      </trkpt>
      <trkpt lat="59.8932316" lon="17.6508979">
        <ele>31.3801</ele>
        <time>2014-06-01T13:55:59Z</time>
      </trkpt>
      <trkpt lat="59.8932085" lon="17.6509695">
        <ele>31.3801</ele>
        <time>2014-06-01T13:56:00Z</time>
      </trkpt>
      <trkpt lat="59.8931812" lon="17.6510361">
        <ele>30.8995</ele>
        <time>2014-06-01T13:56:01Z</time>
      </trkpt>
      <trkpt lat="59.8931521" lon="17.6511106">
        <ele>31.3801</ele>
        <time>2014-06-01T13:56:02Z</time>
      </trkpt>
      <trkpt lat="59.8931234" lon="17.6511967">
        <ele>31.3801</ele>
        <time>2014-06-01T13:56:03Z</time>
      </trkpt>
      <trkpt lat="59.8930941" lon="17.6512898">
        <ele>31.3801</ele>
        <time>2014-06-01T13:56:04Z</time>
      </trkpt>
      <trkpt lat="59.893066" lon="17.6513869">
        <ele>31.3801</ele>
        <time>2014-06-01T13:56:05Z</time>
      </trkpt>
      <trkpt lat="59.8930387" lon="17.6514858">
        <ele>30.8995</ele>
        <time>2014-06-01T13:56:06Z</time>
      </trkpt>
      <trkpt lat="59.8930118" lon="17.6515853">
        <ele>30.8995</ele>
        <time>2014-06-01T13:56:07Z</time>
      </trkpt>
      <trkpt lat="59.8929879" lon="17.6516862">
        <ele>30.8995</ele>
        <time>2014-06-01T13:56:08Z</time>
      </trkpt>
      <trkpt lat="59.8929677" lon="17.6517851">
        <ele>31.3801</ele>
        <time>2014-06-01T13:56:09Z</time>
      </trkpt>
      <trkpt lat="59.8929506" lon="17.6518791">
        <ele>31.3801</ele>
        <time>2014-06-01T13:56:10Z</time>
      </trkpt>
      <trkpt lat="59.8929355" lon="17.6519724">
        <ele>31.3801</ele>
        <time>2014-06-01T13:56:11Z</time>
      </trkpt>
      <trkpt lat="59.8929216" lon="17.6520681">
        <ele>31.3801</ele>
        <time>2014-06-01T13:56:12Z</time>
      </trkpt>
      <trkpt lat="59.8929074" lon="17.6521634">
        <ele>30.8995</ele>
        <time>2014-06-01T13:56:13Z</time>
      </trkpt>
      <trkpt lat="59.8928972" lon="17.6522591">
        <ele>31.3801</ele>
        <time>2014-06-01T13:56:14Z</time>
      </trkpt>
      <trkpt lat="59.89289" lon="17.6523562">
        <ele>31.3801</ele>
        <time>2014-06-01T13:56:15Z</time>
      </trkpt>
      <trkpt lat="59.8928787" lon="17.6524515">
        <ele>31.3801</ele>
        <time>2014-06-01T13:56:16Z</time>
      </trkpt>
      <trkpt lat="59.8928642" lon="17.6525426">
        <ele>30.8995</ele>
        <time>2014-06-01T13:56:17Z</time>
      </trkpt>
      <trkpt lat="59.8928538" lon="17.6526302">
        <ele>31.3801</ele>
        <time>2014-06-01T13:56:18Z</time>
      </trkpt>
      <trkpt lat="59.8928509" lon="17.6527203">
        <ele>31.3801</ele>
        <time>2014-06-01T13:56:19Z</time>
      </trkpt>
      <trkpt lat="59.8928488" lon="17.6528067">
        <ele>31.3801</ele>
        <time>2014-06-01T13:56:20Z</time>
      </trkpt>
      <trkpt lat="59.8928458" lon="17.6528875">
        <ele>31.3801</ele>
        <time>2014-06-01T13:56:21Z</time>
      </trkpt>
      <trkpt lat="59.8928459" lon="17.6529638">
        <ele>30.8995</ele>
        <time>2014-06-01T13:56:22Z</time>
      </trkpt>
      <trkpt lat="59.892848" lon="17.6530391">
        <ele>30.8995</ele>
        <time>2014-06-01T13:56:23Z</time>
      </trkpt>
      <trkpt lat="59.8928469" lon="17.6531137">
        <ele>30.8995</ele>
        <time>2014-06-01T13:56:24Z</time>
      </trkpt>
      <trkpt lat="59.8928457" lon="17.6531857">
        <ele>30.8995</ele>
        <time>2014-06-01T13:56:25Z</time>
      </trkpt>
      <trkpt lat="59.8928514" lon="17.6532533">
        <ele>30.8995</ele>
        <time>2014-06-01T13:56:26Z</time>
      </trkpt>
      <trkpt lat="59.8928641" lon="17.653316">
        <ele>30.4188</ele>
        <time>2014-06-01T13:56:27Z</time>
      </trkpt>
      <trkpt lat="59.8928734" lon="17.6533775">
        <ele>30.4188</ele>
        <time>2014-06-01T13:56:28Z</time>
      </trkpt>
      <trkpt lat="59.8928797" lon="17.6534372">
        <ele>30.4188</ele>
        <time>2014-06-01T13:56:29Z</time>
      </trkpt>
      <trkpt lat="59.8928858" lon="17.6534966">
        <ele>30.4188</ele>
        <time>2014-06-01T13:56:30Z</time>
      </trkpt>
      <trkpt lat="59.8928921" lon="17.6535571">
        <ele>30.4188</ele>
        <time>2014-06-01T13:56:31Z</time>
      </trkpt>
      <trkpt lat="59.8929004" lon="17.6536174">
        <ele>30.4188</ele>
        <time>2014-06-01T13:56:32Z</time>
      </trkpt>
      <trkpt lat="59.8929102" lon="17.6536773">
        <ele>30.4188</ele>
        <time>2014-06-01T13:56:33Z</time>
      </trkpt>
      <trkpt lat="59.8929211" lon="17.6537351">
        <ele>30.4188</ele>
        <time>2014-06-01T13:56:34Z</time>
      </trkpt>
      <trkpt lat="59.892935" lon="17.6537893">
        <ele>30.4188</ele>
        <time>2014-06-01T13:56:35Z</time>
      </trkpt>
      <trkpt lat="59.8929501" lon="17.653841">
        <ele>30.4188</ele>
        <time>2014-06-01T13:56:36Z</time>
      </trkpt>
      <trkpt lat="59.8929651" lon="17.6538915">
        <ele>30.4188</ele>
        <time>2014-06-01T13:56:37Z</time>
      </trkpt>
      <trkpt lat="59.8929785" lon="17.6539433">
        <ele>30.4188</ele>
        <time>2014-06-01T13:56:38Z</time>
      </trkpt>
      <trkpt lat="59.8929934" lon="17.6539903">
        <ele>30.4188</ele>
        <time>2014-06-01T13:56:39Z</time>
      </trkpt>
      <trkpt lat="59.8930106" lon="17.6540344">
        <ele>30.4188</ele>
        <time>2014-06-01T13:56:40Z</time>
      </trkpt>
      <trkpt lat="59.8930261" lon="17.6540814">
        <ele>30.4188</ele>
        <time>2014-06-01T13:56:41Z</time>
      </trkpt>
      <trkpt lat="59.893038" lon="17.6541285">
        <ele>30.4188</ele>
        <time>2014-06-01T13:56:42Z</time>
      </trkpt>
      <trkpt lat="59.89305" lon="17.6541764">
        <ele>29.9381</ele>
        <time>2014-06-01T13:56:43Z</time>
      </trkpt>
      <trkpt lat="59.8930672" lon="17.6542199">
        <ele>29.9381</ele>
        <time>2014-06-01T13:56:44Z</time>
      </trkpt>
      <trkpt lat="59.8930889" lon="17.654252">
        <ele>29.9381</ele>
        <time>2014-06-01T13:56:45Z</time>
      </trkpt>
      <trkpt lat="59.8931117" lon="17.6542791">
        <ele>29.9381</ele>
        <time>2014-06-01T13:56:46Z</time>
      </trkpt>
      <trkpt lat="59.8931322" lon="17.65431">
        <ele>29.9381</ele>
        <time>2014-06-01T13:56:47Z</time>
      </trkpt>
      <trkpt lat="59.8931501" lon="17.6543454">
        <ele>29.9381</ele>
        <time>2014-06-01T13:56:48Z</time>
      </trkpt>
      <trkpt lat="59.8931684" lon="17.6543815">
        <ele>29.9381</ele>
        <time>2014-06-01T13:56:49Z</time>
      </trkpt>
      <trkpt lat="59.8931909" lon="17.6544136">
        <ele>29.9381</ele>
        <time>2014-06-01T13:56:50Z</time>
      </trkpt>
      <trkpt lat="59.8932171" lon="17.6544421">
        <ele>29.9381</ele>
        <time>2014-06-01T13:56:51Z</time>
      </trkpt>
      <trkpt lat="59.8932453" lon="17.6544697">
        <ele>29.9381</ele>
        <time>2014-06-01T13:56:52Z</time>
      </trkpt>
      <trkpt lat="59.8932754" lon="17.6544981">
        <ele>29.9381</ele>
        <time>2014-06-01T13:56:53Z</time>
      </trkpt>
      <trkpt lat="59.893305" lon="17.654523">
        <ele>29.9381</ele>
        <time>2014-06-01T13:56:54Z</time>
      </trkpt>
      <trkpt lat="59.8933354" lon="17.6545385">
        <ele>29.9381</ele>
        <time>2014-06-01T13:56:55Z</time>
      </trkpt>
      <trkpt lat="59.8933638" lon="17.6545538">
        <ele>29.9381</ele>
        <time>2014-06-01T13:56:56Z</time>
      </trkpt>
      <trkpt lat="59.8933914" lon="17.6545809">
        <ele>30.4188</ele>
        <time>2014-06-01T13:56:57Z</time>
      </trkpt>
      <trkpt lat="59.8934146" lon="17.6546175">
        <ele>30.4188</ele>
        <time>2014-06-01T13:56:58Z</time>
      </trkpt>
      <trkpt lat="59.8934288" lon="17.6546618">
        <ele>30.4188</ele>
        <time>2014-06-01T13:56:59Z</time>
      </trkpt>
      <trkpt lat="59.8934433" lon="17.6547067">
        <ele>30.4188</ele>
        <time>2014-06-01T13:57:00Z</time>
      </trkpt>
      <trkpt lat="59.8934531" lon="17.6547545">
        <ele>30.4188</ele>
        <time>2014-06-01T13:57:01Z</time>
      </trkpt>
      <trkpt lat="59.8934591" lon="17.6548052">
        <ele>29.9381</ele>
        <time>2014-06-01T13:57:02Z</time>
      </trkpt>
      <trkpt lat="59.8934655" lon="17.6548572">
        <ele>29.9381</ele>
        <time>2014-06-01T13:57:03Z</time>
      </trkpt>
      <trkpt lat="59.8934746" lon="17.6549071">
        <ele>29.9381</ele>
        <time>2014-06-01T13:57:04Z</time>
      </trkpt>
      <trkpt lat="59.8934857" lon="17.6549542">
        <ele>29.9381</ele>
        <time>2014-06-01T13:57:05Z</time>
      </trkpt>
      <trkpt lat="59.8934992" lon="17.6549965">
        <ele>29.9381</ele>
        <time>2014-06-01T13:57:06Z</time>
      </trkpt>
      <trkpt lat="59.8935135" lon="17.6550342">
        <ele>29.4575</ele>
        <time>2014-06-01T13:57:07Z</time>
      </trkpt>
      <trkpt lat="59.8935248" lon="17.6550687">
        <ele>29.4575</ele>
        <time>2014-06-01T13:57:08Z</time>
      </trkpt>
      <trkpt lat="59.8935306" lon="17.6550975">
        <ele>28.9769</ele>
        <time>2014-06-01T13:57:09Z</time>
      </trkpt>
      <trkpt lat="59.8935329" lon="17.6551135">
        <ele>28.4962</ele>
        <time>2014-06-01T13:57:10Z</time>
      </trkpt>
      <trkpt lat="59.8935295" lon="17.6551185">
        <ele>28.4962</ele>
        <time>2014-06-01T13:57:11Z</time>
      </trkpt>
      <trkpt lat="59.8935276" lon="17.6551212">
        <ele>28.4962</ele>
        <time>2014-06-01T13:57:12Z</time>
      </trkpt>
      <trkpt lat="59.8935286" lon="17.6551234">
        <ele>28.4962</ele>
        <time>2014-06-01T13:57:13Z</time>
      </trkpt>
      <trkpt lat="59.8935652" lon="17.6552172">
        <ele>28.0155</ele>
        <time>2014-06-01T13:59:24Z</time>
      </trkpt>
      <trkpt lat="59.8935685" lon="17.6552523">
        <ele>28.4962</ele>
        <time>2014-06-01T13:59:25Z</time>
      </trkpt>
      <trkpt lat="59.893567" lon="17.6552885">
        <ele>28.4962</ele>
        <time>2014-06-01T13:59:26Z</time>
      </trkpt>
      <trkpt lat="59.8935622" lon="17.655322">
        <ele>28.4962</ele>
        <time>2014-06-01T13:59:27Z</time>
      </trkpt>
      <trkpt lat="59.8935555" lon="17.655359">
        <ele>28.4962</ele>
        <time>2014-06-01T13:59:28Z</time>
      </trkpt>
      <trkpt lat="59.8935458" lon="17.6553964">
        <ele>28.9769</ele>
        <time>2014-06-01T13:59:29Z</time>
      </trkpt>
      <trkpt lat="59.8935313" lon="17.6554382">
        <ele>28.4962</ele>
        <time>2014-06-01T13:59:30Z</time>
      </trkpt>
      <trkpt lat="59.8935099" lon="17.6554828">
        <ele>28.4962</ele>
        <time>2014-06-01T13:59:31Z</time>
      </trkpt>
      <trkpt lat="59.893484" lon="17.6555275">
        <ele>28.0155</ele>
        <time>2014-06-01T13:59:32Z</time>
      </trkpt>
      <trkpt lat="59.8934573" lon="17.6555771">
        <ele>28.0155</ele>
        <time>2014-06-01T13:59:33Z</time>
      </trkpt>
      <trkpt lat="59.8934355" lon="17.6556269">
        <ele>28.0155</ele>
        <time>2014-06-01T13:59:34Z</time>
      </trkpt>
      <trkpt lat="59.8934177" lon="17.6556774">
        <ele>28.0155</ele>
        <time>2014-06-01T13:59:35Z</time>
      </trkpt>
      <trkpt lat="59.8933981" lon="17.6557305">
        <ele>28.0155</ele>
        <time>2014-06-01T13:59:36Z</time>
      </trkpt>
      <trkpt lat="59.8933774" lon="17.6557858">
        <ele>28.0155</ele>
        <time>2014-06-01T13:59:37Z</time>
      </trkpt>
      <trkpt lat="59.8933577" lon="17.6558491">
        <ele>28.0155</ele>
        <time>2014-06-01T13:59:38Z</time>
      </trkpt>
      <trkpt lat="59.8933387" lon="17.6559174">
        <ele>28.0155</ele>
        <time>2014-06-01T13:59:39Z</time>
      </trkpt>
      <trkpt lat="59.8933209" lon="17.655989">
        <ele>28.0155</ele>
        <time>2014-06-01T13:59:40Z</time>
      </trkpt>
      <trkpt lat="59.8933037" lon="17.6560666">
        <ele>27.5349</ele>
        <time>2014-06-01T13:59:41Z</time>
      </trkpt>
      <trkpt lat="59.893284" lon="17.6561421">
        <ele>28.0155</ele>
        <time>2014-06-01T13:59:42Z</time>
      </trkpt>
      <trkpt lat="59.8932623" lon="17.6562106">
        <ele>28.0155</ele>
        <time>2014-06-01T13:59:43Z</time>
      </trkpt>
      <trkpt lat="59.8932396" lon="17.6562758">
        <ele>27.5349</ele>
        <time>2014-06-01T13:59:44Z</time>
      </trkpt>
      <trkpt lat="59.8932177" lon="17.6563392">
        <ele>27.5349</ele>
        <time>2014-06-01T13:59:45Z</time>
      </trkpt>
      <trkpt lat="59.8932034" lon="17.6564033">
        <ele>28.0155</ele>
        <time>2014-06-01T13:59:46Z</time>
      </trkpt>
      <trkpt lat="59.8932023" lon="17.6564675">
        <ele>28.0155</ele>
        <time>2014-06-01T13:59:47Z</time>
      </trkpt>
      <trkpt lat="59.8932147" lon="17.65653">
        <ele>28.0155</ele>
        <time>2014-06-01T13:59:48Z</time>
      </trkpt>
      <trkpt lat="59.8932347" lon="17.6565944">
        <ele>28.0155</ele>
        <time>2014-06-01T13:59:49Z</time>
      </trkpt>
      <trkpt lat="59.8932562" lon="17.6566643">
        <ele>28.0155</ele>
        <time>2014-06-01T13:59:50Z</time>
      </trkpt>
      <trkpt lat="59.893281" lon="17.6567412">
        <ele>28.0155</ele>
        <time>2014-06-01T13:59:51Z</time>
      </trkpt>
      <trkpt lat="59.893311" lon="17.656825">
        <ele>27.5349</ele>
        <time>2014-06-01T13:59:52Z</time>
      </trkpt>
      <trkpt lat="59.8933449" lon="17.6569134">
        <ele>27.5349</ele>
        <time>2014-06-01T13:59:53Z</time>
      </trkpt>
      <trkpt lat="59.89338" lon="17.6570036">
        <ele>27.0543</ele>
        <time>2014-06-01T13:59:54Z</time>
      </trkpt>
      <trkpt lat="59.8934137" lon="17.6570983">
        <ele>27.0543</ele>
        <time>2014-06-01T13:59:55Z</time>
      </trkpt>
      <trkpt lat="59.8934468" lon="17.6571994">
        <ele>26.5736</ele>
        <time>2014-06-01T13:59:56Z</time>
      </trkpt>
      <trkpt lat="59.8934814" lon="17.6573032">
        <ele>26.5736</ele>
        <time>2014-06-01T13:59:57Z</time>
      </trkpt>
      <trkpt lat="59.8935192" lon="17.6574078">
        <ele>26.0929</ele>
        <time>2014-06-01T13:59:58Z</time>
      </trkpt>
      <trkpt lat="59.8935585" lon="17.6575155">
        <ele>26.0929</ele>
        <time>2014-06-01T13:59:59Z</time>
      </trkpt>
      <trkpt lat="59.893599" lon="17.6576268">
        <ele>25.6123</ele>
        <time>2014-06-01T14:00:00Z</time>
      </trkpt>
      <trkpt lat="59.8936414" lon="17.6577402">
        <ele>25.1317</ele>
        <time>2014-06-01T14:00:01Z</time>
      </trkpt>
      <trkpt lat="59.8936851" lon="17.6578563">
        <ele>24.651</ele>
        <time>2014-06-01T14:00:02Z</time>
      </trkpt>
      <trkpt lat="59.8937296" lon="17.657976">
        <ele>24.651</ele>
        <time>2014-06-01T14:00:03Z</time>
      </trkpt>
      <trkpt lat="59.8937742" lon="17.6580992">
        <ele>24.1703</ele>
        <time>2014-06-01T14:00:04Z</time>
      </trkpt>
      <trkpt lat="59.8938188" lon="17.6582251">
        <ele>23.6896</ele>
        <time>2014-06-01T14:00:05Z</time>
      </trkpt>
      <trkpt lat="59.8938639" lon="17.6583524">
        <ele>23.209</ele>
        <time>2014-06-01T14:00:06Z</time>
      </trkpt>
      <trkpt lat="59.89391" lon="17.6584806">
        <ele>22.7283</ele>
        <time>2014-06-01T14:00:07Z</time>
      </trkpt>
      <trkpt lat="59.8939568" lon="17.6586085">
        <ele>22.2476</ele>
        <time>2014-06-01T14:00:08Z</time>
      </trkpt>
      <trkpt lat="59.8940055" lon="17.6587424">
        <ele>22.2476</ele>
        <time>2014-06-01T14:00:09Z</time>
      </trkpt>
      <trkpt lat="59.8940538" lon="17.6588742">
        <ele>21.767</ele>
        <time>2014-06-01T14:00:10Z</time>
      </trkpt>
      <trkpt lat="59.8941068" lon="17.6590063">
        <ele>21.2864</ele>
        <time>2014-06-01T14:00:11Z</time>
      </trkpt>
      <trkpt lat="59.8941511" lon="17.6591337">
        <ele>21.2864</ele>
        <time>2014-06-01T14:00:12Z</time>
      </trkpt>
      <trkpt lat="59.8941943" lon="17.6592561">
        <ele>22.2476</ele>
        <time>2014-06-01T14:00:13Z</time>
      </trkpt>
      <trkpt lat="59.8942322" lon="17.6593652">
        <ele>22.7283</ele>
        <time>2014-06-01T14:00:14Z</time>
      </trkpt>
      <trkpt lat="59.8942682" lon="17.6594678">
        <ele>22.7283</ele>
        <time>2014-06-01T14:00:15Z</time>
      </trkpt>
      <trkpt lat="59.8943029" lon="17.6595672">
        <ele>23.209</ele>
        <time>2014-06-01T14:00:16Z</time>
      </trkpt>
      <trkpt lat="59.8943345" lon="17.6596657">
        <ele>23.209</ele>
        <time>2014-06-01T14:00:17Z</time>
      </trkpt>
      <trkpt lat="59.8943653" lon="17.6597594">
        <ele>23.6896</ele>
        <time>2014-06-01T14:00:18Z</time>
      </trkpt>
      <trkpt lat="59.8943967" lon="17.6598477">
        <ele>24.1703</ele>
        <time>2014-06-01T14:00:19Z</time>
      </trkpt>
      <trkpt lat="59.8944253" lon="17.6599341">
        <ele>24.1703</ele>
        <time>2014-06-01T14:00:20Z</time>
      </trkpt>
      <trkpt lat="59.8944538" lon="17.6600185">
        <ele>24.651</ele>
        <time>2014-06-01T14:00:21Z</time>
      </trkpt>
      <trkpt lat="59.8944838" lon="17.6600986">
        <ele>25.1317</ele>
        <time>2014-06-01T14:00:22Z</time>
      </trkpt>
      <trkpt lat="59.8945129" lon="17.660176">
        <ele>25.1317</ele>
        <time>2014-06-01T14:00:23Z</time>
      </trkpt>
      <trkpt lat="59.8945407" lon="17.660253">
        <ele>25.6123</ele>
        <time>2014-06-01T14:00:24Z</time>
      </trkpt>
      <trkpt lat="59.8945692" lon="17.6603314">
        <ele>25.6123</ele>
        <time>2014-06-01T14:00:25Z</time>
      </trkpt>
      <trkpt lat="59.8945979" lon="17.660411">
        <ele>26.0929</ele>
        <time>2014-06-01T14:00:26Z</time>
      </trkpt>
      <trkpt lat="59.8946274" lon="17.6604919">
        <ele>26.0929</ele>
        <time>2014-06-01T14:00:27Z</time>
      </trkpt>
      <trkpt lat="59.8946569" lon="17.660576">
        <ele>26.0929</ele>
        <time>2014-06-01T14:00:28Z</time>
      </trkpt>
      <trkpt lat="59.8946878" lon="17.6606634">
        <ele>26.0929</ele>
        <time>2014-06-01T14:00:29Z</time>
      </trkpt>
      <trkpt lat="59.8947195" lon="17.6607537">
        <ele>26.0929</ele>
        <time>2014-06-01T14:00:30Z</time>
      </trkpt>
      <trkpt lat="59.8947532" lon="17.6608447">
        <ele>26.5736</ele>
        <time>2014-06-01T14:00:31Z</time>
      </trkpt>
      <trkpt lat="59.8947874" lon="17.6609375">
        <ele>26.0929</ele>
        <time>2014-06-01T14:00:32Z</time>
      </trkpt>
      <trkpt lat="59.8948217" lon="17.6610353">
        <ele>26.0929</ele>
        <time>2014-06-01T14:00:33Z</time>
      </trkpt>
      <trkpt lat="59.8948566" lon="17.6611347">
        <ele>26.0929</ele>
        <time>2014-06-01T14:00:34Z</time>
      </trkpt>
      <trkpt lat="59.8948904" lon="17.6612331">
        <ele>26.0929</ele>
        <time>2014-06-01T14:00:35Z</time>
      </trkpt>
      <trkpt lat="59.8949241" lon="17.6613281">
        <ele>26.0929</ele>
        <time>2014-06-01T14:00:36Z</time>
      </trkpt>
      <trkpt lat="59.8949577" lon="17.6614192">
        <ele>26.0929</ele>
        <time>2014-06-01T14:00:37Z</time>
      </trkpt>
      <trkpt lat="59.8949905" lon="17.6615077">
        <ele>26.0929</ele>
        <time>2014-06-01T14:00:38Z</time>
      </trkpt>
      <trkpt lat="59.8950211" lon="17.6615947">
        <ele>26.0929</ele>
        <time>2014-06-01T14:00:39Z</time>
      </trkpt>
      <trkpt lat="59.895051" lon="17.6616796">
        <ele>26.0929</ele>
        <time>2014-06-01T14:00:40Z</time>
      </trkpt>
      <trkpt lat="59.8950822" lon="17.6617589">
        <ele>26.0929</ele>
        <time>2014-06-01T14:00:41Z</time>
      </trkpt>
      <trkpt lat="59.8951138" lon="17.6618337">
        <ele>26.0929</ele>
        <time>2014-06-01T14:00:42Z</time>
      </trkpt>
      <trkpt lat="59.8951464" lon="17.6619134">
        <ele>26.0929</ele>
        <time>2014-06-01T14:00:43Z</time>
      </trkpt>
      <trkpt lat="59.8951783" lon="17.6619973">
        <ele>26.0929</ele>
        <time>2014-06-01T14:00:44Z</time>
      </trkpt>
      <trkpt lat="59.89521" lon="17.6620838">
        <ele>26.0929</ele>
        <time>2014-06-01T14:00:45Z</time>
      </trkpt>
      <trkpt lat="59.8952438" lon="17.6621719">
        <ele>26.0929</ele>
        <time>2014-06-01T14:00:46Z</time>
      </trkpt>
      <trkpt lat="59.8952819" lon="17.6622608">
        <ele>26.0929</ele>
        <time>2014-06-01T14:00:47Z</time>
      </trkpt>
      <trkpt lat="59.8953205" lon="17.6623531">
        <ele>26.0929</ele>
        <time>2014-06-01T14:00:48Z</time>
      </trkpt>
      <trkpt lat="59.8953562" lon="17.6624472">
        <ele>26.0929</ele>
        <time>2014-06-01T14:00:49Z</time>
      </trkpt>
      <trkpt lat="59.8953904" lon="17.6625377">
        <ele>26.0929</ele>
        <time>2014-06-01T14:00:50Z</time>
      </trkpt>
      <trkpt lat="59.8954225" lon="17.6626256">
        <ele>26.5736</ele>
        <time>2014-06-01T14:00:51Z</time>
      </trkpt>
      <trkpt lat="59.895453" lon="17.6627111">
        <ele>26.5736</ele>
        <time>2014-06-01T14:00:52Z</time>
      </trkpt>
      <trkpt lat="59.8954825" lon="17.662793">
        <ele>26.5736</ele>
        <time>2014-06-01T14:00:53Z</time>
      </trkpt>
      <trkpt lat="59.8955111" lon="17.6628722">
        <ele>26.5736</ele>
        <time>2014-06-01T14:00:54Z</time>
      </trkpt>
      <trkpt lat="59.8955389" lon="17.6629504">
        <ele>26.5736</ele>
        <time>2014-06-01T14:00:55Z</time>
      </trkpt>
      <trkpt lat="59.8955655" lon="17.6630279">
        <ele>26.5736</ele>
        <time>2014-06-01T14:00:56Z</time>
      </trkpt>
      <trkpt lat="59.8955932" lon="17.6631053">
        <ele>26.5736</ele>
        <time>2014-06-01T14:00:57Z</time>
      </trkpt>
      <trkpt lat="59.8956219" lon="17.6631846">
        <ele>27.0543</ele>
        <time>2014-06-01T14:00:58Z</time>
      </trkpt>
      <trkpt lat="59.895651" lon="17.6632664">
        <ele>27.0543</ele>
        <time>2014-06-01T14:00:59Z</time>
      </trkpt>
      <trkpt lat="59.8956811" lon="17.6633499">
        <ele>27.0543</ele>
        <time>2014-06-01T14:01:00Z</time>
      </trkpt>
      <trkpt lat="59.895712" lon="17.6634357">
        <ele>27.0543</ele>
        <time>2014-06-01T14:01:01Z</time>
      </trkpt>
      <trkpt lat="59.8957431" lon="17.6635232">
        <ele>27.0543</ele>
        <time>2014-06-01T14:01:02Z</time>
      </trkpt>
      <trkpt lat="59.8957745" lon="17.6636115">
        <ele>27.0543</ele>
        <time>2014-06-01T14:01:03Z</time>
      </trkpt>
      <trkpt lat="59.8958059" lon="17.6637003">
        <ele>27.0543</ele>
        <time>2014-06-01T14:01:04Z</time>
      </trkpt>
      <trkpt lat="59.8958378" lon="17.6637904">
        <ele>27.0543</ele>
        <time>2014-06-01T14:01:05Z</time>
      </trkpt>
      <trkpt lat="59.8958701" lon="17.6638826">
        <ele>27.0543</ele>
        <time>2014-06-01T14:01:06Z</time>
      </trkpt>
      <trkpt lat="59.8959032" lon="17.6639755">
        <ele>27.5349</ele>
        <time>2014-06-01T14:01:07Z</time>
      </trkpt>
      <trkpt lat="59.8959369" lon="17.6640687">
        <ele>27.5349</ele>
        <time>2014-06-01T14:01:08Z</time>
      </trkpt>
      <trkpt lat="59.8959707" lon="17.6641627">
        <ele>27.5349</ele>
        <time>2014-06-01T14:01:09Z</time>
      </trkpt>
      <trkpt lat="59.8960051" lon="17.6642575">
        <ele>27.5349</ele>
        <time>2014-06-01T14:01:10Z</time>
      </trkpt>
      <trkpt lat="59.8960389" lon="17.6643527">
        <ele>27.5349</ele>
        <time>2014-06-01T14:01:11Z</time>
      </trkpt>
      <trkpt lat="59.8960722" lon="17.664449">
        <ele>27.5349</ele>
        <time>2014-06-01T14:01:12Z</time>
      </trkpt>
      <trkpt lat="59.8961055" lon="17.6645447">
        <ele>28.0155</ele>
        <time>2014-06-01T14:01:13Z</time>
      </trkpt>
      <trkpt lat="59.8961388" lon="17.6646397">
        <ele>28.0155</ele>
        <time>2014-06-01T14:01:14Z</time>
      </trkpt>
      <trkpt lat="59.8961711" lon="17.6647338">
        <ele>28.0155</ele>
        <time>2014-06-01T14:01:15Z</time>
      </trkpt>
      <trkpt lat="59.8962031" lon="17.6648265">
        <ele>28.0155</ele>
        <time>2014-06-01T14:01:16Z</time>
      </trkpt>
      <trkpt lat="59.8962345" lon="17.6649178">
        <ele>28.0155</ele>
        <time>2014-06-01T14:01:17Z</time>
      </trkpt>
      <trkpt lat="59.8962654" lon="17.6650074">
        <ele>28.0155</ele>
        <time>2014-06-01T14:01:18Z</time>
      </trkpt>
      <trkpt lat="59.8962952" lon="17.6650932">
        <ele>28.0155</ele>
        <time>2014-06-01T14:01:19Z</time>
      </trkpt>
      <trkpt lat="59.8963249" lon="17.6651764">
        <ele>28.0155</ele>
        <time>2014-06-01T14:01:20Z</time>
      </trkpt>
      <trkpt lat="59.8963532" lon="17.6652598">
        <ele>28.0155</ele>
        <time>2014-06-01T14:01:21Z</time>
      </trkpt>
      <trkpt lat="59.8963802" lon="17.6653419">
        <ele>28.0155</ele>
        <time>2014-06-01T14:01:22Z</time>
      </trkpt>
      <trkpt lat="59.8964073" lon="17.6654197">
        <ele>28.4962</ele>
        <time>2014-06-01T14:01:23Z</time>
      </trkpt>
      <trkpt lat="59.8964347" lon="17.6654959">
        <ele>28.4962</ele>
        <time>2014-06-01T14:01:24Z</time>
      </trkpt>
      <trkpt lat="59.8964612" lon="17.6655722">
        <ele>28.9769</ele>
        <time>2014-06-01T14:01:25Z</time>
      </trkpt>
      <trkpt lat="59.8964865" lon="17.6656467">
        <ele>28.9769</ele>
        <time>2014-06-01T14:01:26Z</time>
      </trkpt>
      <trkpt lat="59.8965103" lon="17.6657182">
        <ele>29.4575</ele>
        <time>2014-06-01T14:01:27Z</time>
      </trkpt>
      <trkpt lat="59.8965346" lon="17.6657876">
        <ele>29.4575</ele>
        <time>2014-06-01T14:01:28Z</time>
      </trkpt>
      <trkpt lat="59.8965609" lon="17.6658539">
        <ele>29.9381</ele>
        <time>2014-06-01T14:01:29Z</time>
      </trkpt>
      <trkpt lat="59.8965832" lon="17.665916">
        <ele>30.4188</ele>
        <time>2014-06-01T14:01:30Z</time>
      </trkpt>
      <trkpt lat="59.8966" lon="17.665972">
        <ele>30.4188</ele>
        <time>2014-06-01T14:01:31Z</time>
      </trkpt>
      <trkpt lat="59.8966125" lon="17.6660175">
        <ele>30.8995</ele>
        <time>2014-06-01T14:01:32Z</time>
      </trkpt>
      <trkpt lat="59.8966186" lon="17.6660451">
        <ele>31.8607</ele>
        <time>2014-06-01T14:01:33Z</time>
      </trkpt>
      <trkpt lat="59.8966249" lon="17.6660713">
        <ele>32.3416</ele>
        <time>2014-06-01T14:01:34Z</time>
      </trkpt>
      <trkpt lat="59.896627" lon="17.6660983">
        <ele>32.8223</ele>
        <time>2014-06-01T14:01:35Z</time>
      </trkpt>
      <trkpt lat="59.8966326" lon="17.6661218">
        <ele>33.3029</ele>
        <time>2014-06-01T14:01:36Z</time>
      </trkpt>
      <trkpt lat="59.8966432" lon="17.6661434">
        <ele>33.3029</ele>
        <time>2014-06-01T14:01:37Z</time>
      </trkpt>
      <trkpt lat="59.8966585" lon="17.6661668">
        <ele>33.7834</ele>
        <time>2014-06-01T14:01:38Z</time>
      </trkpt>
      <trkpt lat="59.8966761" lon="17.6661878">
        <ele>34.2642</ele>
        <time>2014-06-01T14:01:39Z</time>
      </trkpt>
      <trkpt lat="59.8966925" lon="17.666207">
        <ele>33.7834</ele>
        <time>2014-06-01T14:01:40Z</time>
      </trkpt>
      <trkpt lat="59.8967093" lon="17.666231">
        <ele>33.7834</ele>
        <time>2014-06-01T14:01:41Z</time>
      </trkpt>
      <trkpt lat="59.8967227" lon="17.6662598">
        <ele>34.2642</ele>
        <time>2014-06-01T14:01:42Z</time>
      </trkpt>
      <trkpt lat="59.8967329" lon="17.6662958">
        <ele>34.7449</ele>
        <time>2014-06-01T14:01:43Z</time>
      </trkpt>
      <trkpt lat="59.8967445" lon="17.6663269">
        <ele>35.2255</ele>
        <time>2014-06-01T14:01:44Z</time>
      </trkpt>
      <trkpt lat="59.8967626" lon="17.6663387">
        <ele>35.7061</ele>
        <time>2014-06-01T14:01:45Z</time>
      </trkpt>
      <trkpt lat="59.8967818" lon="17.666344">
        <ele>36.1868</ele>
        <time>2014-06-01T14:01:46Z</time>
      </trkpt>
      <trkpt lat="59.8968014" lon="17.6663558">
        <ele>35.7061</ele>
        <time>2014-06-01T14:01:47Z</time>
      </trkpt>
      <trkpt lat="59.896831" lon="17.6663709">
        <ele>36.1868</ele>
        <time>2014-06-01T14:01:48Z</time>
      </trkpt>
      <trkpt lat="59.8968636" lon="17.6663776">
        <ele>36.6675</ele>
        <time>2014-06-01T14:01:49Z</time>
      </trkpt>
      <trkpt lat="59.8968911" lon="17.6663754">
        <ele>36.6675</ele>
        <time>2014-06-01T14:01:50Z</time>
      </trkpt>
      <trkpt lat="59.8969196" lon="17.6663739">
        <ele>37.1481</ele>
        <time>2014-06-01T14:01:51Z</time>
      </trkpt>
      <trkpt lat="59.8969484" lon="17.6663807">
        <ele>37.1481</ele>
        <time>2014-06-01T14:01:52Z</time>
      </trkpt>
      <trkpt lat="59.8969764" lon="17.6663838">
        <ele>37.1481</ele>
        <time>2014-06-01T14:01:53Z</time>
      </trkpt>
      <trkpt lat="59.8970204" lon="17.6663859">
        <ele>37.6287</ele>
        <time>2014-06-01T14:01:54Z</time>
      </trkpt>
      <trkpt lat="59.8970682" lon="17.6663906">
        <ele>37.6287</ele>
        <time>2014-06-01T14:01:55Z</time>
      </trkpt>
      <trkpt lat="59.8971157" lon="17.6663886">
        <ele>37.1481</ele>
        <time>2014-06-01T14:01:56Z</time>
      </trkpt>
      <trkpt lat="59.8971692" lon="17.6663843">
        <ele>36.6675</ele>
        <time>2014-06-01T14:01:57Z</time>
      </trkpt>
      <trkpt lat="59.8972248" lon="17.666375">
        <ele>36.6675</ele>
        <time>2014-06-01T14:01:58Z</time>
      </trkpt>
      <trkpt lat="59.8972774" lon="17.6663657">
        <ele>36.6675</ele>
        <time>2014-06-01T14:01:59Z</time>
      </trkpt>
      <trkpt lat="59.8973301" lon="17.6663616">
        <ele>35.7061</ele>
        <time>2014-06-01T14:02:00Z</time>
      </trkpt>
      <trkpt lat="59.8973843" lon="17.6663589">
        <ele>35.2255</ele>
        <time>2014-06-01T14:02:01Z</time>
      </trkpt>
      <trkpt lat="59.8974384" lon="17.6663565">
        <ele>34.7449</ele>
        <time>2014-06-01T14:02:02Z</time>
      </trkpt>
      <trkpt lat="59.8974925" lon="17.6663556">
        <ele>34.2642</ele>
        <time>2014-06-01T14:02:03Z</time>
      </trkpt>
      <trkpt lat="59.8975501" lon="17.6663487">
        <ele>34.2642</ele>
        <time>2014-06-01T14:02:04Z</time>
      </trkpt>
      <trkpt lat="59.8976049" lon="17.6663407">
        <ele>34.2642</ele>
        <time>2014-06-01T14:02:05Z</time>
      </trkpt>
      <trkpt lat="59.8976567" lon="17.6663344">
        <ele>34.2642</ele>
        <time>2014-06-01T14:02:06Z</time>
      </trkpt>
      <trkpt lat="59.8977048" lon="17.6663299">
        <ele>34.2642</ele>
        <time>2014-06-01T14:02:07Z</time>
      </trkpt>
      <trkpt lat="59.89775" lon="17.6663274">
        <ele>34.2642</ele>
        <time>2014-06-01T14:02:08Z</time>
      </trkpt>
      <trkpt lat="59.8977929" lon="17.6663288">
        <ele>33.7834</ele>
        <time>2014-06-01T14:02:09Z</time>
      </trkpt>
      <trkpt lat="59.8978324" lon="17.6663279">
        <ele>33.7834</ele>
        <time>2014-06-01T14:02:10Z</time>
      </trkpt>
      <trkpt lat="59.8978701" lon="17.6663245">
        <ele>33.7834</ele>
        <time>2014-06-01T14:02:11Z</time>
      </trkpt>
      <trkpt lat="59.8979062" lon="17.6663197">
        <ele>33.7834</ele>
        <time>2014-06-01T14:02:12Z</time>
      </trkpt>
      <trkpt lat="59.8979424" lon="17.666317">
        <ele>33.7834</ele>
        <time>2014-06-01T14:02:13Z</time>
      </trkpt>
      <trkpt lat="59.8979785" lon="17.6663169">
        <ele>33.7834</ele>
        <time>2014-06-01T14:02:14Z</time>
      </trkpt>
      <trkpt lat="59.8980089" lon="17.6663113">
        <ele>33.7834</ele>
        <time>2014-06-01T14:02:15Z</time>
      </trkpt>
      <trkpt lat="59.8980348" lon="17.6663004">
        <ele>33.7834</ele>
        <time>2014-06-01T14:02:16Z</time>
      </trkpt>
      <trkpt lat="59.8980595" lon="17.6662941">
        <ele>34.2642</ele>
        <time>2014-06-01T14:02:17Z</time>
      </trkpt>
      <trkpt lat="59.898085" lon="17.6662909">
        <ele>34.7449</ele>
        <time>2014-06-01T14:02:18Z</time>
      </trkpt>
      <trkpt lat="59.898109" lon="17.6662864">
        <ele>35.2255</ele>
        <time>2014-06-01T14:02:19Z</time>
      </trkpt>
      <trkpt lat="59.8981296" lon="17.6662821">
        <ele>35.2255</ele>
        <time>2014-06-01T14:02:20Z</time>
      </trkpt>
      <trkpt lat="59.8981571" lon="17.6662729">
        <ele>35.7061</ele>
        <time>2014-06-01T14:02:21Z</time>
      </trkpt>
      <trkpt lat="59.8981786" lon="17.6662762">
        <ele>36.1868</ele>
        <time>2014-06-01T14:02:22Z</time>
      </trkpt>
      <trkpt lat="59.8982068" lon="17.6662833">
        <ele>35.7061</ele>
        <time>2014-06-01T14:02:23Z</time>
      </trkpt>
      <trkpt lat="59.8982389" lon="17.6662914">
        <ele>36.1868</ele>
        <time>2014-06-01T14:02:24Z</time>
      </trkpt>
      <trkpt lat="59.8982752" lon="17.6662983">
        <ele>36.6675</ele>
        <time>2014-06-01T14:02:25Z</time>
      </trkpt>
      <trkpt lat="59.8983172" lon="17.6663119">
        <ele>37.6287</ele>
        <time>2014-06-01T14:02:26Z</time>
      </trkpt>
      <trkpt lat="59.8983539" lon="17.6663261">
        <ele>38.5901</ele>
        <time>2014-06-01T14:02:27Z</time>
      </trkpt>
      <trkpt lat="59.898388" lon="17.6663337">
        <ele>39.5513</ele>
        <time>2014-06-01T14:02:28Z</time>
      </trkpt>
      <trkpt lat="59.8984185" lon="17.6663451">
        <ele>40.9934</ele>
        <time>2014-06-01T14:02:29Z</time>
      </trkpt>
      <trkpt lat="59.8984637" lon="17.6663622">
        <ele>43.8773</ele>
        <time>2014-06-01T14:02:30Z</time>
      </trkpt>
      <trkpt lat="59.8984923" lon="17.6663822">
        <ele>44.358</ele>
        <time>2014-06-01T14:02:31Z</time>
      </trkpt>
      <trkpt lat="59.8985156" lon="17.6664083">
        <ele>45.3192</ele>
        <time>2014-06-01T14:02:32Z</time>
      </trkpt>
      <trkpt lat="59.8985408" lon="17.6664336">
        <ele>46.2806</ele>
        <time>2014-06-01T14:02:33Z</time>
      </trkpt>
      <trkpt lat="59.8985588" lon="17.6664574">
        <ele>46.2806</ele>
        <time>2014-06-01T14:02:34Z</time>
      </trkpt>
      <trkpt lat="59.8985851" lon="17.6664823">
        <ele>47.2418</ele>
        <time>2014-06-01T14:02:35Z</time>
      </trkpt>
      <trkpt lat="59.8986228" lon="17.6665086">
        <ele>50.126</ele>
        <time>2014-06-01T14:02:36Z</time>
      </trkpt>
      <trkpt lat="59.898644" lon="17.6665321">
        <ele>51.0872</ele>
        <time>2014-06-01T14:02:37Z</time>
      </trkpt>
      <trkpt lat="59.8986609" lon="17.6665523">
        <ele>52.0486</ele>
        <time>2014-06-01T14:02:38Z</time>
      </trkpt>
      <trkpt lat="59.8986772" lon="17.6665832">
        <ele>53.0098</ele>
        <time>2014-06-01T14:02:39Z</time>
      </trkpt>
      <trkpt lat="59.8986927" lon="17.6666167">
        <ele>53.9712</ele>
        <time>2014-06-01T14:02:40Z</time>
      </trkpt>
      <trkpt lat="59.8987068" lon="17.6666526">
        <ele>54.9324</ele>
        <time>2014-06-01T14:02:41Z</time>
      </trkpt>
      <trkpt lat="59.8987218" lon="17.6666873">
        <ele>55.4131</ele>
        <time>2014-06-01T14:02:42Z</time>
      </trkpt>
      <trkpt lat="59.8987391" lon="17.6667241">
        <ele>56.8551</ele>
        <time>2014-06-01T14:02:43Z</time>
      </trkpt>
      <trkpt lat="59.8987481" lon="17.666764">
        <ele>57.8165</ele>
        <time>2014-06-01T14:02:44Z</time>
      </trkpt>
      <trkpt lat="59.8987486" lon="17.6668039">
        <ele>58.7777</ele>
        <time>2014-06-01T14:02:45Z</time>
      </trkpt>
      <trkpt lat="59.8987512" lon="17.6668477">
        <ele>59.2584</ele>
        <time>2014-06-01T14:02:46Z</time>
      </trkpt>
      <trkpt lat="59.8987532" lon="17.6669054">
        <ele>59.7391</ele>
        <time>2014-06-01T14:02:47Z</time>
      </trkpt>
      <trkpt lat="59.8987526" lon="17.6669728">
        <ele>59.2584</ele>
        <time>2014-06-01T14:02:48Z</time>
      </trkpt>
      <trkpt lat="59.8987445" lon="17.6670489">
        <ele>58.7777</ele>
        <time>2014-06-01T14:02:49Z</time>
      </trkpt>
      <trkpt lat="59.8987424" lon="17.667106">
        <ele>57.8165</ele>
        <time>2014-06-01T14:02:50Z</time>
      </trkpt>
      <trkpt lat="59.898741" lon="17.6671789">
        <ele>56.8551</ele>
        <time>2014-06-01T14:02:51Z</time>
      </trkpt>
      <trkpt lat="59.8987339" lon="17.6672836">
        <ele>56.3745</ele>
        <time>2014-06-01T14:02:52Z</time>
      </trkpt>
      <trkpt lat="59.898732" lon="17.667371">
        <ele>56.3745</ele>
        <time>2014-06-01T14:02:53Z</time>
      </trkpt>
      <trkpt lat="59.8987419" lon="17.6674461">
        <ele>56.8551</ele>
        <time>2014-06-01T14:02:54Z</time>
      </trkpt>
      <trkpt lat="59.8987506" lon="17.6675291">
        <ele>55.8938</ele>
        <time>2014-06-01T14:02:55Z</time>
      </trkpt>
      <trkpt lat="59.8987559" lon="17.6676149">
        <ele>54.4518</ele>
        <time>2014-06-01T14:02:56Z</time>
      </trkpt>
      <trkpt lat="59.8987548" lon="17.6676866">
        <ele>53.4905</ele>
        <time>2014-06-01T14:02:57Z</time>
      </trkpt>
      <trkpt lat="59.8987522" lon="17.6677643">
        <ele>52.5292</ele>
        <time>2014-06-01T14:02:58Z</time>
      </trkpt>
      <trkpt lat="59.8987578" lon="17.6678431">
        <ele>51.0872</ele>
        <time>2014-06-01T14:02:59Z</time>
      </trkpt>
      <trkpt lat="59.898763" lon="17.6679057">
        <ele>49.6453</ele>
        <time>2014-06-01T14:03:00Z</time>
      </trkpt>
      <trkpt lat="59.8987663" lon="17.667973">
        <ele>49.6453</ele>
        <time>2014-06-01T14:03:01Z</time>
      </trkpt>
      <trkpt lat="59.8987736" lon="17.6680521">
        <ele>50.126</ele>
        <time>2014-06-01T14:03:02Z</time>
      </trkpt>
      <trkpt lat="59.898774" lon="17.6681415">
        <ele>49.1646</ele>
        <time>2014-06-01T14:03:03Z</time>
      </trkpt>
      <trkpt lat="59.8987759" lon="17.6682244">
        <ele>48.684</ele>
        <time>2014-06-01T14:03:04Z</time>
      </trkpt>
      <trkpt lat="59.8987761" lon="17.6683087">
        <ele>47.7225</ele>
        <time>2014-06-01T14:03:05Z</time>
      </trkpt>
      <trkpt lat="59.8987708" lon="17.6684019">
        <ele>47.2418</ele>
        <time>2014-06-01T14:03:06Z</time>
      </trkpt>
      <trkpt lat="59.8987795" lon="17.6684681">
        <ele>47.7225</ele>
        <time>2014-06-01T14:03:07Z</time>
      </trkpt>
      <trkpt lat="59.8987891" lon="17.6685107">
        <ele>46.7612</ele>
        <time>2014-06-01T14:03:08Z</time>
      </trkpt>
      <trkpt lat="59.8988036" lon="17.6685501">
        <ele>44.8386</ele>
        <time>2014-06-01T14:03:09Z</time>
      </trkpt>
      <trkpt lat="59.8988225" lon="17.6685696">
        <ele>43.3966</ele>
        <time>2014-06-01T14:03:10Z</time>
      </trkpt>
      <trkpt lat="59.8988471" lon="17.6685728">
        <ele>41.474</ele>
        <time>2014-06-01T14:03:11Z</time>
      </trkpt>
      <trkpt lat="59.8988786" lon="17.6685703">
        <ele>40.9934</ele>
        <time>2014-06-01T14:03:12Z</time>
      </trkpt>
      <trkpt lat="59.8988932" lon="17.6685777">
        <ele>40.0321</ele>
        <time>2014-06-01T14:03:13Z</time>
      </trkpt>
      <trkpt lat="59.8989144" lon="17.6685785">
        <ele>40.5128</ele>
        <time>2014-06-01T14:03:14Z</time>
      </trkpt>
      <trkpt lat="59.8989356" lon="17.6685868">
        <ele>39.5513</ele>
        <time>2014-06-01T14:03:15Z</time>
      </trkpt>
      <trkpt lat="59.8989815" lon="17.6685771">
        <ele>40.9934</ele>
        <time>2014-06-01T14:03:16Z</time>
      </trkpt>
      <trkpt lat="59.8990113" lon="17.6685697">
        <ele>41.9547</ele>
        <time>2014-06-01T14:03:17Z</time>
      </trkpt>
      <trkpt lat="59.8990417" lon="17.6685666">
        <ele>42.916</ele>
        <time>2014-06-01T14:03:18Z</time>
      </trkpt>
      <trkpt lat="59.899073" lon="17.6685708">
        <ele>43.3966</ele>
        <time>2014-06-01T14:03:19Z</time>
      </trkpt>
      <trkpt lat="59.8991096" lon="17.6685849">
        <ele>43.8773</ele>
        <time>2014-06-01T14:03:20Z</time>
      </trkpt>
      <trkpt lat="59.8991512" lon="17.6686059">
        <ele>44.358</ele>
        <time>2014-06-01T14:03:21Z</time>
      </trkpt>
      <trkpt lat="59.8991999" lon="17.6686283">
        <ele>44.358</ele>
        <time>2014-06-01T14:03:22Z</time>
      </trkpt>
      <trkpt lat="59.8992553" lon="17.6686453">
        <ele>45.3192</ele>
        <time>2014-06-01T14:03:23Z</time>
      </trkpt>
      <trkpt lat="59.8993081" lon="17.6686862">
        <ele>46.2806</ele>
        <time>2014-06-01T14:03:24Z</time>
      </trkpt>
      <trkpt lat="59.899363" lon="17.6687382">
        <ele>47.2418</ele>
        <time>2014-06-01T14:03:25Z</time>
      </trkpt>
      <trkpt lat="59.8994076" lon="17.6687946">
        <ele>48.2034</ele>
        <time>2014-06-01T14:03:26Z</time>
      </trkpt>
      <trkpt lat="59.8994267" lon="17.6688692">
        <ele>47.7225</ele>
        <time>2014-06-01T14:03:27Z</time>
      </trkpt>
      <trkpt lat="59.8994479" lon="17.6689401">
        <ele>47.2418</ele>
        <time>2014-06-01T14:03:28Z</time>
      </trkpt>
      <trkpt lat="59.8994665" lon="17.6690006">
        <ele>47.2418</ele>
        <time>2014-06-01T14:03:29Z</time>
      </trkpt>
      <trkpt lat="59.8994692" lon="17.6690749">
        <ele>46.7612</ele>
        <time>2014-06-01T14:03:30Z</time>
      </trkpt>
      <trkpt lat="59.8994696" lon="17.6691458">
        <ele>46.7612</ele>
        <time>2014-06-01T14:03:31Z</time>
      </trkpt>
      <trkpt lat="59.899491" lon="17.6691956">
        <ele>48.2034</ele>
        <time>2014-06-01T14:03:32Z</time>
      </trkpt>
      <trkpt lat="59.8995102" lon="17.6692498">
        <ele>48.684</ele>
        <time>2014-06-01T14:03:33Z</time>
      </trkpt>
      <trkpt lat="59.8995203" lon="17.6693194">
        <ele>49.1646</ele>
        <time>2014-06-01T14:03:34Z</time>
      </trkpt>
      <trkpt lat="59.8995457" lon="17.6693742">
        <ele>49.6453</ele>
        <time>2014-06-01T14:03:35Z</time>
      </trkpt>
      <trkpt lat="59.8995667" lon="17.6694348">
        <ele>50.6066</ele>
        <time>2014-06-01T14:03:36Z</time>
      </trkpt>
      <trkpt lat="59.8995804" lon="17.6695017">
        <ele>51.5679</ele>
        <time>2014-06-01T14:03:37Z</time>
      </trkpt>
      <trkpt lat="59.8995982" lon="17.6695557">
        <ele>51.5679</ele>
        <time>2014-06-01T14:03:38Z</time>
      </trkpt>
      <trkpt lat="59.8995863" lon="17.6696199">
        <ele>50.126</ele>
        <time>2014-06-01T14:03:39Z</time>
      </trkpt>
      <trkpt lat="59.8995852" lon="17.6696825">
        <ele>50.126</ele>
        <time>2014-06-01T14:03:40Z</time>
      </trkpt>
      <trkpt lat="59.8995605" lon="17.6697574">
        <ele>49.6453</ele>
        <time>2014-06-01T14:03:41Z</time>
      </trkpt>
      <trkpt lat="59.899537" lon="17.6698317">
        <ele>48.2034</ele>
        <time>2014-06-01T14:03:42Z</time>
      </trkpt>
      <trkpt lat="59.8995225" lon="17.6699064">
        <ele>47.7225</ele>
        <time>2014-06-01T14:03:43Z</time>
      </trkpt>
      <trkpt lat="59.8995156" lon="17.6699696">
        <ele>47.2418</ele>
        <time>2014-06-01T14:03:44Z</time>
      </trkpt>
      <trkpt lat="59.8995112" lon="17.6700295">
        <ele>47.7225</ele>
        <time>2014-06-01T14:03:45Z</time>
      </trkpt>
      <trkpt lat="59.899506" lon="17.6700928">
        <ele>48.684</ele>
        <time>2014-06-01T14:03:46Z</time>
      </trkpt>
      <trkpt lat="59.8994946" lon="17.6701604">
        <ele>49.1646</ele>
        <time>2014-06-01T14:03:47Z</time>
      </trkpt>
      <trkpt lat="59.8994718" lon="17.6702272">
        <ele>48.684</ele>
        <time>2014-06-01T14:03:48Z</time>
      </trkpt>
      <trkpt lat="59.8994413" lon="17.6702823">
        <ele>47.7225</ele>
        <time>2014-06-01T14:03:49Z</time>
      </trkpt>
      <trkpt lat="59.8994095" lon="17.6703539">
        <ele>47.7225</ele>
        <time>2014-06-01T14:03:50Z</time>
      </trkpt>
      <trkpt lat="59.8993889" lon="17.6704406">
        <ele>48.2034</ele>
        <time>2014-06-01T14:03:51Z</time>
      </trkpt>
      <trkpt lat="59.8993686" lon="17.6705362">
        <ele>47.7225</ele>
        <time>2014-06-01T14:03:52Z</time>
      </trkpt>
      <trkpt lat="59.899354" lon="17.6706424">
        <ele>47.7225</ele>
        <time>2014-06-01T14:03:53Z</time>
      </trkpt>
      <trkpt lat="59.8993375" lon="17.6707423">
        <ele>46.2806</ele>
        <time>2014-06-01T14:03:54Z</time>
      </trkpt>
      <trkpt lat="59.8993313" lon="17.6708426">
        <ele>44.358</ele>
        <time>2014-06-01T14:03:55Z</time>
      </trkpt>
      <trkpt lat="59.8993256" lon="17.6709578">
        <ele>43.8773</ele>
        <time>2014-06-01T14:03:56Z</time>
      </trkpt>
      <trkpt lat="59.8993247" lon="17.6710924">
        <ele>43.8773</ele>
        <time>2014-06-01T14:03:57Z</time>
      </trkpt>
      <trkpt lat="59.899316" lon="17.6712268">
        <ele>43.3966</ele>
        <time>2014-06-01T14:03:58Z</time>
      </trkpt>
      <trkpt lat="59.899312" lon="17.6713563">
        <ele>42.916</ele>
        <time>2014-06-01T14:03:59Z</time>
      </trkpt>
      <trkpt lat="59.8993133" lon="17.6714841">
        <ele>43.3966</ele>
        <time>2014-06-01T14:04:00Z</time>
      </trkpt>
      <trkpt lat="59.8993239" lon="17.671608">
        <ele>44.358</ele>
        <time>2014-06-01T14:04:01Z</time>
      </trkpt>
      <trkpt lat="59.8993296" lon="17.671728">
        <ele>44.358</ele>
        <time>2014-06-01T14:04:02Z</time>
      </trkpt>
      <trkpt lat="59.8993226" lon="17.6718544">
        <ele>43.3966</ele>
        <time>2014-06-01T14:04:03Z</time>
      </trkpt>
      <trkpt lat="59.8993147" lon="17.6719695">
        <ele>42.4354</ele>
        <time>2014-06-01T14:04:04Z</time>
      </trkpt>
      <trkpt lat="59.8993054" lon="17.6720736">
        <ele>42.916</ele>
        <time>2014-06-01T14:04:05Z</time>
      </trkpt>
      <trkpt lat="59.8992905" lon="17.6721834">
        <ele>42.4354</ele>
        <time>2014-06-01T14:04:06Z</time>
      </trkpt>
      <trkpt lat="59.8992743" lon="17.672287">
        <ele>42.4354</ele>
        <time>2014-06-01T14:04:07Z</time>
      </trkpt>
      <trkpt lat="59.8992568" lon="17.6723839">
        <ele>41.9547</ele>
        <time>2014-06-01T14:04:08Z</time>
      </trkpt>
      <trkpt lat="59.8992382" lon="17.6724804">
        <ele>42.4354</ele>
        <time>2014-06-01T14:04:09Z</time>
      </trkpt>
      <trkpt lat="59.89922" lon="17.6725746">
        <ele>41.9547</ele>
        <time>2014-06-01T14:04:10Z</time>
      </trkpt>
      <trkpt lat="59.8991982" lon="17.6726707">
        <ele>41.9547</ele>
        <time>2014-06-01T14:04:11Z</time>
      </trkpt>
      <trkpt lat="59.8991756" lon="17.672758">
        <ele>41.474</ele>
        <time>2014-06-01T14:04:12Z</time>
      </trkpt>
      <trkpt lat="59.8991582" lon="17.6728495">
        <ele>40.9934</ele>
        <time>2014-06-01T14:04:13Z</time>
      </trkpt>
      <trkpt lat="59.8991433" lon="17.67294">
        <ele>40.9934</ele>
        <time>2014-06-01T14:04:14Z</time>
      </trkpt>
      <trkpt lat="59.8991284" lon="17.6730371">
        <ele>41.474</ele>
        <time>2014-06-01T14:04:15Z</time>
      </trkpt>
      <trkpt lat="59.8991174" lon="17.6731278">
        <ele>41.474</ele>
        <time>2014-06-01T14:04:16Z</time>
      </trkpt>
      <trkpt lat="59.8991077" lon="17.6732165">
        <ele>41.474</ele>
        <time>2014-06-01T14:04:17Z</time>
      </trkpt>
      <trkpt lat="59.8990988" lon="17.6733037">
        <ele>41.474</ele>
        <time>2014-06-01T14:04:18Z</time>
      </trkpt>
      <trkpt lat="59.8990962" lon="17.6733886">
        <ele>41.9547</ele>
        <time>2014-06-01T14:04:19Z</time>
      </trkpt>
      <trkpt lat="59.8990916" lon="17.6734842">
        <ele>41.9547</ele>
        <time>2014-06-01T14:04:20Z</time>
      </trkpt>
      <trkpt lat="59.8990875" lon="17.6735872">
        <ele>42.4354</ele>
        <time>2014-06-01T14:04:21Z</time>
      </trkpt>
      <trkpt lat="59.8990839" lon="17.6736953">
        <ele>42.4354</ele>
        <time>2014-06-01T14:04:22Z</time>
      </trkpt>
      <trkpt lat="59.8990817" lon="17.6738038">
        <ele>42.4354</ele>
        <time>2014-06-01T14:04:23Z</time>
      </trkpt>
      <trkpt lat="59.8990767" lon="17.6739168">
        <ele>42.916</ele>
        <time>2014-06-01T14:04:24Z</time>
      </trkpt>
      <trkpt lat="59.8990662" lon="17.6740265">
        <ele>42.916</ele>
        <time>2014-06-01T14:04:25Z</time>
      </trkpt>
      <trkpt lat="59.8990501" lon="17.6741209">
        <ele>42.4354</ele>
        <time>2014-06-01T14:04:26Z</time>
      </trkpt>
      <trkpt lat="59.8990276" lon="17.6742053">
        <ele>41.9547</ele>
        <time>2014-06-01T14:04:27Z</time>
      </trkpt>
      <trkpt lat="59.8990021" lon="17.6742748">
        <ele>40.9934</ele>
        <time>2014-06-01T14:04:28Z</time>
      </trkpt>
      <trkpt lat="59.8989668" lon="17.6743534">
        <ele>40.5128</ele>
        <time>2014-06-01T14:04:29Z</time>
      </trkpt>
      <trkpt lat="59.8989236" lon="17.6744223">
        <ele>40.0321</ele>
        <time>2014-06-01T14:04:30Z</time>
      </trkpt>
      <trkpt lat="59.8988827" lon="17.6744689">
        <ele>38.5901</ele>
        <time>2014-06-01T14:04:31Z</time>
      </trkpt>
      <trkpt lat="59.8988481" lon="17.6745101">
        <ele>38.1094</ele>
        <time>2014-06-01T14:04:32Z</time>
      </trkpt>
      <trkpt lat="59.8988082" lon="17.6745539">
        <ele>37.1481</ele>
        <time>2014-06-01T14:04:33Z</time>
      </trkpt>
      <trkpt lat="59.8987569" lon="17.6746263">
        <ele>37.1481</ele>
        <time>2014-06-01T14:04:34Z</time>
      </trkpt>
      <trkpt lat="59.8987128" lon="17.674685">
        <ele>35.7061</ele>
        <time>2014-06-01T14:04:35Z</time>
      </trkpt>
      <trkpt lat="59.8986697" lon="17.6747404">
        <ele>34.7449</ele>
        <time>2014-06-01T14:04:36Z</time>
      </trkpt>
      <trkpt lat="59.8986233" lon="17.6748165">
        <ele>33.7834</ele>
        <time>2014-06-01T14:04:37Z</time>
      </trkpt>
      <trkpt lat="59.8985799" lon="17.6749092">
        <ele>33.3029</ele>
        <time>2014-06-01T14:04:38Z</time>
      </trkpt>
      <trkpt lat="59.8985382" lon="17.6750202">
        <ele>33.7834</ele>
        <time>2014-06-01T14:04:39Z</time>
      </trkpt>
      <trkpt lat="59.8984985" lon="17.6751454">
        <ele>33.7834</ele>
        <time>2014-06-01T14:04:40Z</time>
      </trkpt>
      <trkpt lat="59.8984683" lon="17.6752708">
        <ele>34.2642</ele>
        <time>2014-06-01T14:04:41Z</time>
      </trkpt>
      <trkpt lat="59.8984433" lon="17.675397">
        <ele>34.2642</ele>
        <time>2014-06-01T14:04:42Z</time>
      </trkpt>
      <trkpt lat="59.8984237" lon="17.6755218">
        <ele>34.2642</ele>
        <time>2014-06-01T14:04:43Z</time>
      </trkpt>
      <trkpt lat="59.8984114" lon="17.6756473">
        <ele>34.7449</ele>
        <time>2014-06-01T14:04:44Z</time>
      </trkpt>
      <trkpt lat="59.8984" lon="17.6757791">
        <ele>34.7449</ele>
        <time>2014-06-01T14:04:45Z</time>
      </trkpt>
      <trkpt lat="59.8983886" lon="17.6759136">
        <ele>34.7449</ele>
        <time>2014-06-01T14:04:46Z</time>
      </trkpt>
      <trkpt lat="59.8983765" lon="17.6760524">
        <ele>35.2255</ele>
        <time>2014-06-01T14:04:47Z</time>
      </trkpt>
      <trkpt lat="59.8983622" lon="17.6761918">
        <ele>34.7449</ele>
        <time>2014-06-01T14:04:48Z</time>
      </trkpt>
      <trkpt lat="59.8983483" lon="17.6763306">
        <ele>34.7449</ele>
        <time>2014-06-01T14:04:49Z</time>
      </trkpt>
      <trkpt lat="59.8983333" lon="17.676471">
        <ele>34.7449</ele>
        <time>2014-06-01T14:04:50Z</time>
      </trkpt>
      <trkpt lat="59.8983173" lon="17.6766108">
        <ele>34.7449</ele>
        <time>2014-06-01T14:04:51Z</time>
      </trkpt>
      <trkpt lat="59.8983033" lon="17.6767508">
        <ele>34.2642</ele>
        <time>2014-06-01T14:04:52Z</time>
      </trkpt>
      <trkpt lat="59.8982912" lon="17.6768958">
        <ele>34.2642</ele>
        <time>2014-06-01T14:04:53Z</time>
      </trkpt>
      <trkpt lat="59.8982771" lon="17.6770449">
        <ele>33.7834</ele>
        <time>2014-06-01T14:04:54Z</time>
      </trkpt>
      <trkpt lat="59.8982585" lon="17.6771935">
        <ele>33.3029</ele>
        <time>2014-06-01T14:04:55Z</time>
      </trkpt>
      <trkpt lat="59.8982366" lon="17.6773396">
        <ele>33.3029</ele>
        <time>2014-06-01T14:04:56Z</time>
      </trkpt>
      <trkpt lat="59.8982114" lon="17.6774837">
        <ele>33.3029</ele>
        <time>2014-06-01T14:04:57Z</time>
      </trkpt>
      <trkpt lat="59.8981844" lon="17.6776236">
        <ele>33.3029</ele>
        <time>2014-06-01T14:04:58Z</time>
      </trkpt>
      <trkpt lat="59.8981559" lon="17.677762">
        <ele>33.3029</ele>
        <time>2014-06-01T14:04:59Z</time>
      </trkpt>
      <trkpt lat="59.8981249" lon="17.6778984">
        <ele>33.7834</ele>
        <time>2014-06-01T14:05:00Z</time>
      </trkpt>
      <trkpt lat="59.8980902" lon="17.6780333">
        <ele>33.7834</ele>
        <time>2014-06-01T14:05:01Z</time>
      </trkpt>
      <trkpt lat="59.898054" lon="17.6781648">
        <ele>33.7834</ele>
        <time>2014-06-01T14:05:02Z</time>
      </trkpt>
      <trkpt lat="59.8980173" lon="17.6782935">
        <ele>33.7834</ele>
        <time>2014-06-01T14:05:03Z</time>
      </trkpt>
      <trkpt lat="59.8979784" lon="17.6784177">
        <ele>34.2642</ele>
        <time>2014-06-01T14:05:04Z</time>
      </trkpt>
      <trkpt lat="59.8979359" lon="17.6785363">
        <ele>34.2642</ele>
        <time>2014-06-01T14:05:05Z</time>
      </trkpt>
      <trkpt lat="59.8978918" lon="17.6786521">
        <ele>34.2642</ele>
        <time>2014-06-01T14:05:06Z</time>
      </trkpt>
      <trkpt lat="59.8978472" lon="17.6787675">
        <ele>34.2642</ele>
        <time>2014-06-01T14:05:07Z</time>
      </trkpt>
      <trkpt lat="59.8978023" lon="17.6788843">
        <ele>34.2642</ele>
        <time>2014-06-01T14:05:08Z</time>
      </trkpt>
      <trkpt lat="59.897757" lon="17.6790016">
        <ele>34.2642</ele>
        <time>2014-06-01T14:05:09Z</time>
      </trkpt>
      <trkpt lat="59.8977105" lon="17.6791196">
        <ele>34.2642</ele>
        <time>2014-06-01T14:05:10Z</time>
      </trkpt>
      <trkpt lat="59.8976634" lon="17.6792393">
        <ele>34.7449</ele>
        <time>2014-06-01T14:05:11Z</time>
      </trkpt>
      <trkpt lat="59.8976159" lon="17.679361">
        <ele>34.7449</ele>
        <time>2014-06-01T14:05:12Z</time>
      </trkpt>
      <trkpt lat="59.8975681" lon="17.6794843">
        <ele>34.7449</ele>
        <time>2014-06-01T14:05:13Z</time>
      </trkpt>
      <trkpt lat="59.8975204" lon="17.6796096">
        <ele>34.7449</ele>
        <time>2014-06-01T14:05:14Z</time>
      </trkpt>
      <trkpt lat="59.8974723" lon="17.6797353">
        <ele>34.7449</ele>
        <time>2014-06-01T14:05:15Z</time>
      </trkpt>
      <trkpt lat="59.8974237" lon="17.6798603">
        <ele>34.7449</ele>
        <time>2014-06-01T14:05:16Z</time>
      </trkpt>
      <trkpt lat="59.8973768" lon="17.679984">
        <ele>34.7449</ele>
        <time>2014-06-01T14:05:17Z</time>
      </trkpt>
      <trkpt lat="59.8973313" lon="17.6801054">
        <ele>34.7449</ele>
        <time>2014-06-01T14:05:18Z</time>
      </trkpt>
      <trkpt lat="59.8972861" lon="17.680225">
        <ele>34.7449</ele>
        <time>2014-06-01T14:05:19Z</time>
      </trkpt>
      <trkpt lat="59.8972412" lon="17.6803462">
        <ele>34.7449</ele>
        <time>2014-06-01T14:05:20Z</time>
      </trkpt>
      <trkpt lat="59.8971958" lon="17.6804683">
        <ele>34.7449</ele>
        <time>2014-06-01T14:05:21Z</time>
      </trkpt>
      <trkpt lat="59.8971474" lon="17.680588">
        <ele>34.7449</ele>
        <time>2014-06-01T14:05:22Z</time>
      </trkpt>
      <trkpt lat="59.8970973" lon="17.6807089">
        <ele>34.7449</ele>
        <time>2014-06-01T14:05:23Z</time>
      </trkpt>
      <trkpt lat="59.8970475" lon="17.6808325">
        <ele>34.7449</ele>
        <time>2014-06-01T14:05:24Z</time>
      </trkpt>
      <trkpt lat="59.8969961" lon="17.680955">
        <ele>34.7449</ele>
        <time>2014-06-01T14:05:25Z</time>
      </trkpt>
      <trkpt lat="59.896943" lon="17.6810757">
        <ele>34.7449</ele>
        <time>2014-06-01T14:05:26Z</time>
      </trkpt>
      <trkpt lat="59.8968885" lon="17.681194">
        <ele>34.7449</ele>
        <time>2014-06-01T14:05:27Z</time>
      </trkpt>
      <trkpt lat="59.896833" lon="17.6813087">
        <ele>34.7449</ele>
        <time>2014-06-01T14:05:28Z</time>
      </trkpt>
      <trkpt lat="59.8967762" lon="17.6814175">
        <ele>35.2255</ele>
        <time>2014-06-01T14:05:29Z</time>
      </trkpt>
      <trkpt lat="59.8967178" lon="17.681517">
        <ele>35.2255</ele>
        <time>2014-06-01T14:05:30Z</time>
      </trkpt>
      <trkpt lat="59.896658" lon="17.6816101">
        <ele>35.2255</ele>
        <time>2014-06-01T14:05:31Z</time>
      </trkpt>
      <trkpt lat="59.8965979" lon="17.6816982">
        <ele>35.2255</ele>
        <time>2014-06-01T14:05:32Z</time>
      </trkpt>
      <trkpt lat="59.8965372" lon="17.6817848">
        <ele>35.2255</ele>
        <time>2014-06-01T14:05:33Z</time>
      </trkpt>
      <trkpt lat="59.8964757" lon="17.6818695">
        <ele>35.2255</ele>
        <time>2014-06-01T14:05:34Z</time>
      </trkpt>
      <trkpt lat="59.8964138" lon="17.6819514">
        <ele>35.2255</ele>
        <time>2014-06-01T14:05:35Z</time>
      </trkpt>
      <trkpt lat="59.8963523" lon="17.6820298">
        <ele>35.2255</ele>
        <time>2014-06-01T14:05:36Z</time>
      </trkpt>
      <trkpt lat="59.8962939" lon="17.6821">
        <ele>35.2255</ele>
        <time>2014-06-01T14:05:37Z</time>
      </trkpt>
      <trkpt lat="59.8962347" lon="17.6821676">
        <ele>35.2255</ele>
        <time>2014-06-01T14:05:38Z</time>
      </trkpt>
      <trkpt lat="59.8961753" lon="17.6822324">
        <ele>35.2255</ele>
        <time>2014-06-01T14:05:39Z</time>
      </trkpt>
      <trkpt lat="59.8961154" lon="17.6822984">
        <ele>35.2255</ele>
        <time>2014-06-01T14:05:40Z</time>
      </trkpt>
      <trkpt lat="59.8960498" lon="17.682359">
        <ele>35.7061</ele>
        <time>2014-06-01T14:05:41Z</time>
      </trkpt>
      <trkpt lat="59.8959836" lon="17.682424">
        <ele>35.7061</ele>
        <time>2014-06-01T14:05:42Z</time>
      </trkpt>
      <trkpt lat="59.8959136" lon="17.6824904">
        <ele>36.1868</ele>
        <time>2014-06-01T14:05:43Z</time>
      </trkpt>
      <trkpt lat="59.8958476" lon="17.6825544">
        <ele>36.1868</ele>
        <time>2014-06-01T14:05:44Z</time>
      </trkpt>
      <trkpt lat="59.8957798" lon="17.6826144">
        <ele>36.1868</ele>
        <time>2014-06-01T14:05:45Z</time>
      </trkpt>
      <trkpt lat="59.8957054" lon="17.6826705">
        <ele>36.6675</ele>
        <time>2014-06-01T14:05:46Z</time>
      </trkpt>
      <trkpt lat="59.8956314" lon="17.6827139">
        <ele>37.1481</ele>
        <time>2014-06-01T14:05:47Z</time>
      </trkpt>
      <trkpt lat="59.8955664" lon="17.6827523">
        <ele>37.1481</ele>
        <time>2014-06-01T14:05:48Z</time>
      </trkpt>
      <trkpt lat="59.8955045" lon="17.6827939">
        <ele>37.6287</ele>
        <time>2014-06-01T14:05:49Z</time>
      </trkpt>
      <trkpt lat="59.8954535" lon="17.6828434">
        <ele>37.1481</ele>
        <time>2014-06-01T14:05:50Z</time>
      </trkpt>
      <trkpt lat="59.8954018" lon="17.6829052">
        <ele>36.1868</ele>
        <time>2014-06-01T14:05:51Z</time>
      </trkpt>
      <trkpt lat="59.8953472" lon="17.682975">
        <ele>36.1868</ele>
        <time>2014-06-01T14:05:52Z</time>
      </trkpt>
      <trkpt lat="59.8952908" lon="17.6830547">
        <ele>35.7061</ele>
        <time>2014-06-01T14:05:53Z</time>
      </trkpt>
      <trkpt lat="59.8952333" lon="17.6831275">
        <ele>35.7061</ele>
        <time>2014-06-01T14:05:54Z</time>
      </trkpt>
      <trkpt lat="59.8951755" lon="17.6831999">
        <ele>35.2255</ele>
        <time>2014-06-01T14:05:55Z</time>
      </trkpt>
      <trkpt lat="59.8951252" lon="17.6832705">
        <ele>35.2255</ele>
        <time>2014-06-01T14:05:56Z</time>
      </trkpt>
      <trkpt lat="59.8950837" lon="17.6833337">
        <ele>34.7449</ele>
        <time>2014-06-01T14:05:57Z</time>
      </trkpt>
      <trkpt lat="59.8950398" lon="17.6833968">
        <ele>33.7834</ele>
        <time>2014-06-01T14:05:58Z</time>
      </trkpt>
      <trkpt lat="59.8949921" lon="17.6834791">
        <ele>33.3029</ele>
        <time>2014-06-01T14:05:59Z</time>
      </trkpt>
      <trkpt lat="59.8949492" lon="17.6835719">
        <ele>33.3029</ele>
        <time>2014-06-01T14:06:00Z</time>
      </trkpt>
      <trkpt lat="59.8949118" lon="17.6836748">
        <ele>33.3029</ele>
        <time>2014-06-01T14:06:01Z</time>
      </trkpt>
      <trkpt lat="59.8948801" lon="17.6837873">
        <ele>33.7834</ele>
        <time>2014-06-01T14:06:02Z</time>
      </trkpt>
      <trkpt lat="59.8948528" lon="17.6839043">
        <ele>33.7834</ele>
        <time>2014-06-01T14:06:03Z</time>
      </trkpt>
      <trkpt lat="59.894834" lon="17.6840127">
        <ele>33.3029</ele>
        <time>2014-06-01T14:06:04Z</time>
      </trkpt>
      <trkpt lat="59.8948176" lon="17.6841234">
        <ele>33.3029</ele>
        <time>2014-06-01T14:06:05Z</time>
      </trkpt>
      <trkpt lat="59.8948051" lon="17.6842385">
        <ele>33.3029</ele>
        <time>2014-06-01T14:06:06Z</time>
      </trkpt>
      <trkpt lat="59.8947963" lon="17.6843613">
        <ele>32.3416</ele>
        <time>2014-06-01T14:06:07Z</time>
      </trkpt>
      <trkpt lat="59.8947874" lon="17.6844834">
        <ele>32.3416</ele>
        <time>2014-06-01T14:06:08Z</time>
      </trkpt>
      <trkpt lat="59.8947749" lon="17.6846163">
        <ele>31.8607</ele>
        <time>2014-06-01T14:06:09Z</time>
      </trkpt>
      <trkpt lat="59.8947609" lon="17.6847569">
        <ele>31.8607</ele>
        <time>2014-06-01T14:06:10Z</time>
      </trkpt>
      <trkpt lat="59.8947497" lon="17.6848957">
        <ele>31.8607</ele>
        <time>2014-06-01T14:06:11Z</time>
      </trkpt>
      <trkpt lat="59.8947404" lon="17.6850378">
        <ele>31.8607</ele>
        <time>2014-06-01T14:06:12Z</time>
      </trkpt>
      <trkpt lat="59.894732" lon="17.6851777">
        <ele>31.8607</ele>
        <time>2014-06-01T14:06:13Z</time>
      </trkpt>
      <trkpt lat="59.8947233" lon="17.6853127">
        <ele>31.8607</ele>
        <time>2014-06-01T14:06:14Z</time>
      </trkpt>
      <trkpt lat="59.8947124" lon="17.6854756">
        <ele>31.8607</ele>
        <time>2014-06-01T14:06:15Z</time>
      </trkpt>
      <trkpt lat="59.894703" lon="17.6856164">
        <ele>31.8607</ele>
        <time>2014-06-01T14:06:16Z</time>
      </trkpt>
      <trkpt lat="59.8946907" lon="17.6857708">
        <ele>31.3801</ele>
        <time>2014-06-01T14:06:17Z</time>
      </trkpt>
      <trkpt lat="59.8946854" lon="17.6859128">
        <ele>31.3801</ele>
        <time>2014-06-01T14:06:18Z</time>
      </trkpt>
      <trkpt lat="59.8946749" lon="17.6860583">
        <ele>30.8995</ele>
        <time>2014-06-01T14:06:19Z</time>
      </trkpt>
      <trkpt lat="59.8946605" lon="17.6862063">
        <ele>30.8995</ele>
        <time>2014-06-01T14:06:20Z</time>
      </trkpt>
      <trkpt lat="59.8946439" lon="17.6863552">
        <ele>30.8995</ele>
        <time>2014-06-01T14:06:21Z</time>
      </trkpt>
      <trkpt lat="59.8946256" lon="17.6865049">
        <ele>30.8995</ele>
        <time>2014-06-01T14:06:22Z</time>
      </trkpt>
      <trkpt lat="59.8946064" lon="17.6866518">
        <ele>30.8995</ele>
        <time>2014-06-01T14:06:23Z</time>
      </trkpt>
      <trkpt lat="59.894585" lon="17.6867969">
        <ele>30.8995</ele>
        <time>2014-06-01T14:06:24Z</time>
      </trkpt>
      <trkpt lat="59.8945622" lon="17.686939">
        <ele>30.8995</ele>
        <time>2014-06-01T14:06:25Z</time>
      </trkpt>
      <trkpt lat="59.8945367" lon="17.6870788">
        <ele>30.8995</ele>
        <time>2014-06-01T14:06:26Z</time>
      </trkpt>
      <trkpt lat="59.8945102" lon="17.6872174">
        <ele>30.8995</ele>
        <time>2014-06-01T14:06:27Z</time>
      </trkpt>
      <trkpt lat="59.8944837" lon="17.6873552">
        <ele>30.8995</ele>
        <time>2014-06-01T14:06:28Z</time>
      </trkpt>
      <trkpt lat="59.8944569" lon="17.6874923">
        <ele>31.3801</ele>
        <time>2014-06-01T14:06:29Z</time>
      </trkpt>
      <trkpt lat="59.8944288" lon="17.6876275">
        <ele>31.3801</ele>
        <time>2014-06-01T14:06:30Z</time>
      </trkpt>
      <trkpt lat="59.8943994" lon="17.6877611">
        <ele>31.3801</ele>
        <time>2014-06-01T14:06:31Z</time>
      </trkpt>
      <trkpt lat="59.8943699" lon="17.6878936">
        <ele>31.3801</ele>
        <time>2014-06-01T14:06:32Z</time>
      </trkpt>
      <trkpt lat="59.8943384" lon="17.6880233">
        <ele>31.8607</ele>
        <time>2014-06-01T14:06:33Z</time>
      </trkpt>
      <trkpt lat="59.8943067" lon="17.6881521">
        <ele>31.8607</ele>
        <time>2014-06-01T14:06:34Z</time>
      </trkpt>
      <trkpt lat="59.8942772" lon="17.6882799">
        <ele>32.3416</ele>
        <time>2014-06-01T14:06:35Z</time>
      </trkpt>
      <trkpt lat="59.8942504" lon="17.6884059">
        <ele>32.3416</ele>
        <time>2014-06-01T14:06:36Z</time>
      </trkpt>
      <trkpt lat="59.8942276" lon="17.6885285">
        <ele>32.8223</ele>
        <time>2014-06-01T14:06:37Z</time>
      </trkpt>
      <trkpt lat="59.8942087" lon="17.6886487">
        <ele>32.8223</ele>
        <time>2014-06-01T14:06:38Z</time>
      </trkpt>
      <trkpt lat="59.8941938" lon="17.6887702">
        <ele>33.3029</ele>
        <time>2014-06-01T14:06:39Z</time>
      </trkpt>
      <trkpt lat="59.8941812" lon="17.6888948">
        <ele>33.3029</ele>
        <time>2014-06-01T14:06:40Z</time>
      </trkpt>
      <trkpt lat="59.8941678" lon="17.6890209">
        <ele>33.3029</ele>
        <time>2014-06-01T14:06:41Z</time>
      </trkpt>
      <trkpt lat="59.8941542" lon="17.6891455">
        <ele>33.7834</ele>
        <time>2014-06-01T14:06:42Z</time>
      </trkpt>
      <trkpt lat="59.8941402" lon="17.6892672">
        <ele>33.7834</ele>
        <time>2014-06-01T14:06:43Z</time>
      </trkpt>
      <trkpt lat="59.8941263" lon="17.6893854">
        <ele>33.7834</ele>
        <time>2014-06-01T14:06:44Z</time>
      </trkpt>
      <trkpt lat="59.8941129" lon="17.6894996">
        <ele>34.2642</ele>
        <time>2014-06-01T14:06:45Z</time>
      </trkpt>
      <trkpt lat="59.8941001" lon="17.6896089">
        <ele>34.2642</ele>
        <time>2014-06-01T14:06:46Z</time>
      </trkpt>
      <trkpt lat="59.8940877" lon="17.6897108">
        <ele>34.2642</ele>
        <time>2014-06-01T14:06:47Z</time>
      </trkpt>
      <trkpt lat="59.8940747" lon="17.6898072">
        <ele>34.7449</ele>
        <time>2014-06-01T14:06:48Z</time>
      </trkpt>
      <trkpt lat="59.8940612" lon="17.6899033">
        <ele>34.7449</ele>
        <time>2014-06-01T14:06:49Z</time>
      </trkpt>
      <trkpt lat="59.8940467" lon="17.6900009">
        <ele>34.7449</ele>
        <time>2014-06-01T14:06:50Z</time>
      </trkpt>
      <trkpt lat="59.8940316" lon="17.6900976">
        <ele>34.7449</ele>
        <time>2014-06-01T14:06:51Z</time>
      </trkpt>
      <trkpt lat="59.8940154" lon="17.6901994">
        <ele>34.7449</ele>
        <time>2014-06-01T14:06:52Z</time>
      </trkpt>
      <trkpt lat="59.8939967" lon="17.6903051">
        <ele>35.2255</ele>
        <time>2014-06-01T14:06:53Z</time>
      </trkpt>
      <trkpt lat="59.8939763" lon="17.6904258">
        <ele>34.7449</ele>
        <time>2014-06-01T14:06:54Z</time>
      </trkpt>
      <trkpt lat="59.8939584" lon="17.6905527">
        <ele>34.7449</ele>
        <time>2014-06-01T14:06:55Z</time>
      </trkpt>
      <trkpt lat="59.8939394" lon="17.6906835">
        <ele>34.7449</ele>
        <time>2014-06-01T14:06:56Z</time>
      </trkpt>
      <trkpt lat="59.8939192" lon="17.6908188">
        <ele>34.7449</ele>
        <time>2014-06-01T14:06:57Z</time>
      </trkpt>
      <trkpt lat="59.8938981" lon="17.6909596">
        <ele>34.2642</ele>
        <time>2014-06-01T14:06:58Z</time>
      </trkpt>
      <trkpt lat="59.8938772" lon="17.6910996">
        <ele>34.2642</ele>
        <time>2014-06-01T14:06:59Z</time>
      </trkpt>
      <trkpt lat="59.8938566" lon="17.6912405">
        <ele>34.2642</ele>
        <time>2014-06-01T14:07:00Z</time>
      </trkpt>
      <trkpt lat="59.8938418" lon="17.6913818">
        <ele>34.7449</ele>
        <time>2014-06-01T14:07:01Z</time>
      </trkpt>
      <trkpt lat="59.8938317" lon="17.691527">
        <ele>34.7449</ele>
        <time>2014-06-01T14:07:02Z</time>
      </trkpt>
      <trkpt lat="59.8938255" lon="17.6916736">
        <ele>34.7449</ele>
        <time>2014-06-01T14:07:03Z</time>
      </trkpt>
      <trkpt lat="59.8938224" lon="17.6918217">
        <ele>34.2642</ele>
        <time>2014-06-01T14:07:04Z</time>
      </trkpt>
      <trkpt lat="59.8938243" lon="17.6919673">
        <ele>33.7834</ele>
        <time>2014-06-01T14:07:05Z</time>
      </trkpt>
      <trkpt lat="59.8938334" lon="17.692132">
        <ele>33.3029</ele>
        <time>2014-06-01T14:07:06Z</time>
      </trkpt>
      <trkpt lat="59.8938413" lon="17.6922947">
        <ele>32.8223</ele>
        <time>2014-06-01T14:07:07Z</time>
      </trkpt>
      <trkpt lat="59.8938391" lon="17.6924526">
        <ele>32.8223</ele>
        <time>2014-06-01T14:07:08Z</time>
      </trkpt>
      <trkpt lat="59.8938369" lon="17.6926081">
        <ele>32.8223</ele>
        <time>2014-06-01T14:07:09Z</time>
      </trkpt>
      <trkpt lat="59.8938318" lon="17.6927613">
        <ele>32.3416</ele>
        <time>2014-06-01T14:07:10Z</time>
      </trkpt>
      <trkpt lat="59.8938275" lon="17.6929142">
        <ele>32.3416</ele>
        <time>2014-06-01T14:07:11Z</time>
      </trkpt>
      <trkpt lat="59.8938222" lon="17.6930649">
        <ele>32.3416</ele>
        <time>2014-06-01T14:07:12Z</time>
      </trkpt>
      <trkpt lat="59.8938154" lon="17.6932129">
        <ele>31.8607</ele>
        <time>2014-06-01T14:07:13Z</time>
      </trkpt>
      <trkpt lat="59.8938093" lon="17.6933571">
        <ele>31.8607</ele>
        <time>2014-06-01T14:07:14Z</time>
      </trkpt>
      <trkpt lat="59.8938037" lon="17.693497">
        <ele>31.8607</ele>
        <time>2014-06-01T14:07:15Z</time>
      </trkpt>
      <trkpt lat="59.8937978" lon="17.6936359">
        <ele>31.8607</ele>
        <time>2014-06-01T14:07:16Z</time>
      </trkpt>
      <trkpt lat="59.8937932" lon="17.6937763">
        <ele>31.8607</ele>
        <time>2014-06-01T14:07:17Z</time>
      </trkpt>
      <trkpt lat="59.8937903" lon="17.6939181">
        <ele>31.8607</ele>
        <time>2014-06-01T14:07:18Z</time>
      </trkpt>
      <trkpt lat="59.8937875" lon="17.6940609">
        <ele>31.8607</ele>
        <time>2014-06-01T14:07:19Z</time>
      </trkpt>
      <trkpt lat="59.8937838" lon="17.6942035">
        <ele>31.8607</ele>
        <time>2014-06-01T14:07:20Z</time>
      </trkpt>
      <trkpt lat="59.8937798" lon="17.6943456">
        <ele>31.8607</ele>
        <time>2014-06-01T14:07:21Z</time>
      </trkpt>
      <trkpt lat="59.8937763" lon="17.6944887">
        <ele>31.8607</ele>
        <time>2014-06-01T14:07:22Z</time>
      </trkpt>
      <trkpt lat="59.893773" lon="17.6946324">
        <ele>31.8607</ele>
        <time>2014-06-01T14:07:23Z</time>
      </trkpt>
      <trkpt lat="59.8937694" lon="17.6947773">
        <ele>31.8607</ele>
        <time>2014-06-01T14:07:24Z</time>
      </trkpt>
      <trkpt lat="59.8937654" lon="17.6949223">
        <ele>32.3416</ele>
        <time>2014-06-01T14:07:25Z</time>
      </trkpt>
      <trkpt lat="59.8937614" lon="17.6950676">
        <ele>32.3416</ele>
        <time>2014-06-01T14:07:26Z</time>
      </trkpt>
      <trkpt lat="59.8937576" lon="17.6952129">
        <ele>32.3416</ele>
        <time>2014-06-01T14:07:27Z</time>
      </trkpt>
      <trkpt lat="59.893754" lon="17.6953571">
        <ele>32.3416</ele>
        <time>2014-06-01T14:07:28Z</time>
      </trkpt>
      <trkpt lat="59.8937503" lon="17.695498">
        <ele>32.8223</ele>
        <time>2014-06-01T14:07:29Z</time>
      </trkpt>
      <trkpt lat="59.8937471" lon="17.6956348">
        <ele>32.8223</ele>
        <time>2014-06-01T14:07:30Z</time>
      </trkpt>
      <trkpt lat="59.893743" lon="17.6957673">
        <ele>33.3029</ele>
        <time>2014-06-01T14:07:31Z</time>
      </trkpt>
      <trkpt lat="59.8937386" lon="17.6958953">
        <ele>33.3029</ele>
        <time>2014-06-01T14:07:32Z</time>
      </trkpt>
      <trkpt lat="59.8937342" lon="17.6960196">
        <ele>33.3029</ele>
        <time>2014-06-01T14:07:33Z</time>
      </trkpt>
      <trkpt lat="59.89373" lon="17.6961408">
        <ele>33.7834</ele>
        <time>2014-06-01T14:07:34Z</time>
      </trkpt>
      <trkpt lat="59.8937277" lon="17.6962579">
        <ele>33.7834</ele>
        <time>2014-06-01T14:07:35Z</time>
      </trkpt>
      <trkpt lat="59.8937276" lon="17.6963719">
        <ele>34.2642</ele>
        <time>2014-06-01T14:07:36Z</time>
      </trkpt>
      <trkpt lat="59.8937295" lon="17.6964853">
        <ele>34.7449</ele>
        <time>2014-06-01T14:07:37Z</time>
      </trkpt>
      <trkpt lat="59.8937332" lon="17.6966019">
        <ele>34.7449</ele>
        <time>2014-06-01T14:07:38Z</time>
      </trkpt>
      <trkpt lat="59.8937364" lon="17.6967216">
        <ele>34.7449</ele>
        <time>2014-06-01T14:07:39Z</time>
      </trkpt>
      <trkpt lat="59.8937355" lon="17.6968512">
        <ele>34.7449</ele>
        <time>2014-06-01T14:07:40Z</time>
      </trkpt>
      <trkpt lat="59.8937364" lon="17.6969867">
        <ele>34.7449</ele>
        <time>2014-06-01T14:07:41Z</time>
      </trkpt>
      <trkpt lat="59.8937348" lon="17.6971225">
        <ele>34.2642</ele>
        <time>2014-06-01T14:07:42Z</time>
      </trkpt>
      <trkpt lat="59.89373" lon="17.6972588">
        <ele>33.7834</ele>
        <time>2014-06-01T14:07:43Z</time>
      </trkpt>
      <trkpt lat="59.8937134" lon="17.6974033">
        <ele>33.3029</ele>
        <time>2014-06-01T14:07:44Z</time>
      </trkpt>
      <trkpt lat="59.8936898" lon="17.697551">
        <ele>32.8223</ele>
        <time>2014-06-01T14:07:45Z</time>
      </trkpt>
      <trkpt lat="59.8936576" lon="17.6976965">
        <ele>32.8223</ele>
        <time>2014-06-01T14:07:46Z</time>
      </trkpt>
      <trkpt lat="59.8936217" lon="17.6978343">
        <ele>32.3416</ele>
        <time>2014-06-01T14:07:47Z</time>
      </trkpt>
      <trkpt lat="59.8935859" lon="17.6979653">
        <ele>32.3416</ele>
        <time>2014-06-01T14:07:48Z</time>
      </trkpt>
      <trkpt lat="59.8935489" lon="17.6980902">
        <ele>32.3416</ele>
        <time>2014-06-01T14:07:49Z</time>
      </trkpt>
      <trkpt lat="59.8935124" lon="17.6982114">
        <ele>32.3416</ele>
        <time>2014-06-01T14:07:50Z</time>
      </trkpt>
      <trkpt lat="59.8934722" lon="17.6983267">
        <ele>32.3416</ele>
        <time>2014-06-01T14:07:51Z</time>
      </trkpt>
      <trkpt lat="59.893427" lon="17.6984346">
        <ele>32.3416</ele>
        <time>2014-06-01T14:07:52Z</time>
      </trkpt>
      <trkpt lat="59.8933762" lon="17.6985367">
        <ele>32.3416</ele>
        <time>2014-06-01T14:07:53Z</time>
      </trkpt>
      <trkpt lat="59.8933226" lon="17.6986321">
        <ele>31.8607</ele>
        <time>2014-06-01T14:07:54Z</time>
      </trkpt>
      <trkpt lat="59.8932717" lon="17.6987335">
        <ele>31.8607</ele>
        <time>2014-06-01T14:07:55Z</time>
      </trkpt>
      <trkpt lat="59.8932351" lon="17.6988526">
        <ele>31.8607</ele>
        <time>2014-06-01T14:07:56Z</time>
      </trkpt>
      <trkpt lat="59.8932148" lon="17.6989879">
        <ele>31.8607</ele>
        <time>2014-06-01T14:07:57Z</time>
      </trkpt>
      <trkpt lat="59.893198" lon="17.6991341">
        <ele>31.8607</ele>
        <time>2014-06-01T14:07:58Z</time>
      </trkpt>
      <trkpt lat="59.8931729" lon="17.6992755">
        <ele>31.8607</ele>
        <time>2014-06-01T14:07:59Z</time>
      </trkpt>
      <trkpt lat="59.893135" lon="17.6994038">
        <ele>31.8607</ele>
        <time>2014-06-01T14:08:00Z</time>
      </trkpt>
      <trkpt lat="59.8930897" lon="17.6995186">
        <ele>31.8607</ele>
        <time>2014-06-01T14:08:01Z</time>
      </trkpt>
      <trkpt lat="59.8930402" lon="17.6996275">
        <ele>31.3801</ele>
        <time>2014-06-01T14:08:02Z</time>
      </trkpt>
      <trkpt lat="59.8929899" lon="17.6997358">
        <ele>31.3801</ele>
        <time>2014-06-01T14:08:03Z</time>
      </trkpt>
      <trkpt lat="59.8929415" lon="17.6998453">
        <ele>31.3801</ele>
        <time>2014-06-01T14:08:04Z</time>
      </trkpt>
      <trkpt lat="59.8928947" lon="17.6999546">
        <ele>31.3801</ele>
        <time>2014-06-01T14:08:05Z</time>
      </trkpt>
      <trkpt lat="59.8928496" lon="17.7000601">
        <ele>31.3801</ele>
        <time>2014-06-01T14:08:06Z</time>
      </trkpt>
      <trkpt lat="59.892806" lon="17.7001612">
        <ele>31.3801</ele>
        <time>2014-06-01T14:08:07Z</time>
      </trkpt>
      <trkpt lat="59.8927633" lon="17.7002579">
        <ele>31.3801</ele>
        <time>2014-06-01T14:08:08Z</time>
      </trkpt>
      <trkpt lat="59.892723" lon="17.7003509">
        <ele>31.3801</ele>
        <time>2014-06-01T14:08:09Z</time>
      </trkpt>
      <trkpt lat="59.8926836" lon="17.7004435">
        <ele>31.3801</ele>
        <time>2014-06-01T14:08:10Z</time>
      </trkpt>
      <trkpt lat="59.8926459" lon="17.7005321">
        <ele>30.8995</ele>
        <time>2014-06-01T14:08:11Z</time>
      </trkpt>
      <trkpt lat="59.8926108" lon="17.7006192">
        <ele>30.8995</ele>
        <time>2014-06-01T14:08:12Z</time>
      </trkpt>
      <trkpt lat="59.8925772" lon="17.700701">
        <ele>30.8995</ele>
        <time>2014-06-01T14:08:13Z</time>
      </trkpt>
      <trkpt lat="59.8925465" lon="17.7007775">
        <ele>30.4188</ele>
        <time>2014-06-01T14:08:14Z</time>
      </trkpt>
      <trkpt lat="59.8925226" lon="17.7008494">
        <ele>30.4188</ele>
        <time>2014-06-01T14:08:15Z</time>
      </trkpt>
      <trkpt lat="59.8925025" lon="17.7009113">
        <ele>29.9381</ele>
        <time>2014-06-01T14:08:16Z</time>
      </trkpt>
      <trkpt lat="59.8924852" lon="17.7009562">
        <ele>29.9381</ele>
        <time>2014-06-01T14:08:17Z</time>
      </trkpt>
      <trkpt lat="59.8924705" lon="17.7009701">
        <ele>29.9381</ele>
        <time>2014-06-01T14:08:18Z</time>
      </trkpt>
      <trkpt lat="59.8924582" lon="17.7009718">
        <ele>29.4575</ele>
        <time>2014-06-01T14:08:19Z</time>
      </trkpt>
      <trkpt lat="59.892448" lon="17.7009771">
        <ele>29.9381</ele>
        <time>2014-06-01T14:08:20Z</time>
      </trkpt>
      <trkpt lat="59.8924392" lon="17.7009937">
        <ele>29.9381</ele>
        <time>2014-06-01T14:08:21Z</time>
      </trkpt>
      <trkpt lat="59.89243" lon="17.701018">
        <ele>29.4575</ele>
        <time>2014-06-01T14:08:22Z</time>
      </trkpt>
      <trkpt lat="59.8924204" lon="17.7010493">
        <ele>29.4575</ele>
        <time>2014-06-01T14:08:23Z</time>
      </trkpt>
      <trkpt lat="59.8924158" lon="17.701091">
        <ele>29.9381</ele>
        <time>2014-06-01T14:08:24Z</time>
      </trkpt>
      <trkpt lat="59.8924144" lon="17.7011416">
        <ele>29.9381</ele>
        <time>2014-06-01T14:08:25Z</time>
      </trkpt>
      <trkpt lat="59.8924066" lon="17.7011971">
        <ele>30.4188</ele>
        <time>2014-06-01T14:08:26Z</time>
      </trkpt>
      <trkpt lat="59.8923883" lon="17.7012481">
        <ele>29.9381</ele>
        <time>2014-06-01T14:08:27Z</time>
      </trkpt>
      <trkpt lat="59.8923678" lon="17.7013006">
        <ele>29.9381</ele>
        <time>2014-06-01T14:08:28Z</time>
      </trkpt>
      <trkpt lat="59.8923611" lon="17.701364">
        <ele>29.9381</ele>
        <time>2014-06-01T14:08:29Z</time>
      </trkpt>
      <trkpt lat="59.8923719" lon="17.7014261">
        <ele>29.9381</ele>
        <time>2014-06-01T14:08:30Z</time>
      </trkpt>
      <trkpt lat="59.8923942" lon="17.7014774">
        <ele>29.9381</ele>
        <time>2014-06-01T14:08:31Z</time>
      </trkpt>
      <trkpt lat="59.8924217" lon="17.7015199">
        <ele>29.9381</ele>
        <time>2014-06-01T14:08:32Z</time>
      </trkpt>
      <trkpt lat="59.8924496" lon="17.7015608">
        <ele>29.9381</ele>
        <time>2014-06-01T14:08:33Z</time>
      </trkpt>
      <trkpt lat="59.8924781" lon="17.701607">
        <ele>29.9381</ele>
        <time>2014-06-01T14:08:34Z</time>
      </trkpt>
      <trkpt lat="59.8925069" lon="17.7016592">
        <ele>29.9381</ele>
        <time>2014-06-01T14:08:35Z</time>
      </trkpt>
      <trkpt lat="59.8925381" lon="17.7017136">
        <ele>29.9381</ele>
        <time>2014-06-01T14:08:36Z</time>
      </trkpt>
      <trkpt lat="59.8925749" lon="17.7017712">
        <ele>29.9381</ele>
        <time>2014-06-01T14:08:37Z</time>
      </trkpt>
      <trkpt lat="59.892617" lon="17.7018295">
        <ele>29.9381</ele>
        <time>2014-06-01T14:08:38Z</time>
      </trkpt>
      <trkpt lat="59.8926614" lon="17.7018866">
        <ele>30.4188</ele>
        <time>2014-06-01T14:08:39Z</time>
      </trkpt>
      <trkpt lat="59.8927054" lon="17.7019421">
        <ele>30.4188</ele>
        <time>2014-06-01T14:08:40Z</time>
      </trkpt>
      <trkpt lat="59.8927516" lon="17.7019934">
        <ele>30.4188</ele>
        <time>2014-06-01T14:08:41Z</time>
      </trkpt>
      <trkpt lat="59.8928013" lon="17.7020403">
        <ele>30.4188</ele>
        <time>2014-06-01T14:08:42Z</time>
      </trkpt>
      <trkpt lat="59.8928516" lon="17.7020913">
        <ele>30.4188</ele>
        <time>2014-06-01T14:08:43Z</time>
      </trkpt>
      <trkpt lat="59.8929012" lon="17.7021508">
        <ele>30.4188</ele>
        <time>2014-06-01T14:08:44Z</time>
      </trkpt>
      <trkpt lat="59.8929512" lon="17.7022133">
        <ele>30.4188</ele>
        <time>2014-06-01T14:08:45Z</time>
      </trkpt>
      <trkpt lat="59.8930023" lon="17.702276">
        <ele>30.8995</ele>
        <time>2014-06-01T14:08:46Z</time>
      </trkpt>
      <trkpt lat="59.893054" lon="17.7023394">
        <ele>30.8995</ele>
        <time>2014-06-01T14:08:47Z</time>
      </trkpt>
      <trkpt lat="59.8931054" lon="17.7024045">
        <ele>30.8995</ele>
        <time>2014-06-01T14:08:48Z</time>
      </trkpt>
      <trkpt lat="59.8931568" lon="17.7024714">
        <ele>30.8995</ele>
        <time>2014-06-01T14:08:49Z</time>
      </trkpt>
      <trkpt lat="59.8932073" lon="17.7025389">
        <ele>30.4188</ele>
        <time>2014-06-01T14:08:50Z</time>
      </trkpt>
      <trkpt lat="59.8932567" lon="17.7026056">
        <ele>30.4188</ele>
        <time>2014-06-01T14:08:51Z</time>
      </trkpt>
      <trkpt lat="59.893305" lon="17.7026702">
        <ele>30.4188</ele>
        <time>2014-06-01T14:08:52Z</time>
      </trkpt>
      <trkpt lat="59.8933528" lon="17.7027336">
        <ele>30.4188</ele>
        <time>2014-06-01T14:08:53Z</time>
      </trkpt>
      <trkpt lat="59.893401" lon="17.7027978">
        <ele>30.4188</ele>
        <time>2014-06-01T14:08:54Z</time>
      </trkpt>
      <trkpt lat="59.8934497" lon="17.7028651">
        <ele>30.4188</ele>
        <time>2014-06-01T14:08:55Z</time>
      </trkpt>
      <trkpt lat="59.8934985" lon="17.7029354">
        <ele>30.4188</ele>
        <time>2014-06-01T14:08:56Z</time>
      </trkpt>
      <trkpt lat="59.8935483" lon="17.7030066">
        <ele>30.4188</ele>
        <time>2014-06-01T14:08:57Z</time>
      </trkpt>
      <trkpt lat="59.8936002" lon="17.7030766">
        <ele>29.9381</ele>
        <time>2014-06-01T14:08:58Z</time>
      </trkpt>
      <trkpt lat="59.8936534" lon="17.7031485">
        <ele>29.9381</ele>
        <time>2014-06-01T14:08:59Z</time>
      </trkpt>
      <trkpt lat="59.8937072" lon="17.7032224">
        <ele>29.9381</ele>
        <time>2014-06-01T14:09:00Z</time>
      </trkpt>
      <trkpt lat="59.8937655" lon="17.7032981">
        <ele>29.9381</ele>
        <time>2014-06-01T14:09:01Z</time>
      </trkpt>
      <trkpt lat="59.8938233" lon="17.7033705">
        <ele>29.9381</ele>
        <time>2014-06-01T14:09:02Z</time>
      </trkpt>
      <trkpt lat="59.8938804" lon="17.7034443">
        <ele>30.4188</ele>
        <time>2014-06-01T14:09:03Z</time>
      </trkpt>
      <trkpt lat="59.8939388" lon="17.7035204">
        <ele>30.4188</ele>
        <time>2014-06-01T14:09:04Z</time>
      </trkpt>
      <trkpt lat="59.8939969" lon="17.7036001">
        <ele>30.4188</ele>
        <time>2014-06-01T14:09:05Z</time>
      </trkpt>
      <trkpt lat="59.894056" lon="17.7036806">
        <ele>30.4188</ele>
        <time>2014-06-01T14:09:06Z</time>
      </trkpt>
      <trkpt lat="59.8941161" lon="17.7037606">
        <ele>30.4188</ele>
        <time>2014-06-01T14:09:07Z</time>
      </trkpt>
      <trkpt lat="59.8941765" lon="17.7038421">
        <ele>30.4188</ele>
        <time>2014-06-01T14:09:08Z</time>
      </trkpt>
      <trkpt lat="59.8942355" lon="17.7039282">
        <ele>30.4188</ele>
        <time>2014-06-01T14:09:09Z</time>
      </trkpt>
      <trkpt lat="59.8942949" lon="17.7040168">
        <ele>29.9381</ele>
        <time>2014-06-01T14:09:10Z</time>
      </trkpt>
      <trkpt lat="59.8943563" lon="17.704104">
        <ele>29.9381</ele>
        <time>2014-06-01T14:09:11Z</time>
      </trkpt>
      <trkpt lat="59.8944196" lon="17.7041883">
        <ele>29.9381</ele>
        <time>2014-06-01T14:09:12Z</time>
      </trkpt>
      <trkpt lat="59.8944828" lon="17.7042726">
        <ele>29.9381</ele>
        <time>2014-06-01T14:09:13Z</time>
      </trkpt>
      <trkpt lat="59.8945453" lon="17.7043568">
        <ele>29.9381</ele>
        <time>2014-06-01T14:09:14Z</time>
      </trkpt>
      <trkpt lat="59.8946078" lon="17.7044398">
        <ele>29.9381</ele>
        <time>2014-06-01T14:09:15Z</time>
      </trkpt>
      <trkpt lat="59.8946714" lon="17.7045238">
        <ele>29.9381</ele>
        <time>2014-06-01T14:09:16Z</time>
      </trkpt>
      <trkpt lat="59.8947356" lon="17.7046109">
        <ele>29.9381</ele>
        <time>2014-06-01T14:09:17Z</time>
      </trkpt>
      <trkpt lat="59.8947996" lon="17.7047023">
        <ele>29.9381</ele>
        <time>2014-06-01T14:09:18Z</time>
      </trkpt>
      <trkpt lat="59.8948637" lon="17.7047954">
        <ele>29.4575</ele>
        <time>2014-06-01T14:09:19Z</time>
      </trkpt>
      <trkpt lat="59.8949297" lon="17.7048852">
        <ele>29.4575</ele>
        <time>2014-06-01T14:09:20Z</time>
      </trkpt>
      <trkpt lat="59.894996" lon="17.7049744">
        <ele>29.4575</ele>
        <time>2014-06-01T14:09:21Z</time>
      </trkpt>
      <trkpt lat="59.8950602" lon="17.7050666">
        <ele>29.4575</ele>
        <time>2014-06-01T14:09:22Z</time>
      </trkpt>
      <trkpt lat="59.8951216" lon="17.70516">
        <ele>29.4575</ele>
        <time>2014-06-01T14:09:23Z</time>
      </trkpt>
      <trkpt lat="59.895181" lon="17.7052522">
        <ele>29.4575</ele>
        <time>2014-06-01T14:09:24Z</time>
      </trkpt>
      <trkpt lat="59.8952416" lon="17.7053372">
        <ele>29.4575</ele>
        <time>2014-06-01T14:09:25Z</time>
      </trkpt>
      <trkpt lat="59.8953047" lon="17.7054137">
        <ele>29.4575</ele>
        <time>2014-06-01T14:09:26Z</time>
      </trkpt>
      <trkpt lat="59.8953698" lon="17.7054835">
        <ele>29.9381</ele>
        <time>2014-06-01T14:09:27Z</time>
      </trkpt>
      <trkpt lat="59.8955002" lon="17.7056317">
        <ele>29.9381</ele>
        <time>2014-06-01T14:09:28Z</time>
      </trkpt>
      <trkpt lat="59.8955635" lon="17.7057142">
        <ele>29.9381</ele>
        <time>2014-06-01T14:09:29Z</time>
      </trkpt>
      <trkpt lat="59.8956269" lon="17.7057972">
        <ele>29.9381</ele>
        <time>2014-06-01T14:09:30Z</time>
      </trkpt>
      <trkpt lat="59.8956898" lon="17.7058834">
        <ele>29.9381</ele>
        <time>2014-06-01T14:09:31Z</time>
      </trkpt>
      <trkpt lat="59.8957523" lon="17.7059712">
        <ele>29.9381</ele>
        <time>2014-06-01T14:09:32Z</time>
      </trkpt>
      <trkpt lat="59.8958152" lon="17.7060582">
        <ele>29.9381</ele>
        <time>2014-06-01T14:09:33Z</time>
      </trkpt>
      <trkpt lat="59.8958792" lon="17.7061414">
        <ele>29.9381</ele>
        <time>2014-06-01T14:09:34Z</time>
      </trkpt>
      <trkpt lat="59.8959431" lon="17.7062219">
        <ele>30.4188</ele>
        <time>2014-06-01T14:09:35Z</time>
      </trkpt>
      <trkpt lat="59.8960059" lon="17.706303">
        <ele>30.4188</ele>
        <time>2014-06-01T14:09:36Z</time>
      </trkpt>
      <trkpt lat="59.8960674" lon="17.7063849">
        <ele>30.4188</ele>
        <time>2014-06-01T14:09:37Z</time>
      </trkpt>
      <trkpt lat="59.896128" lon="17.7064672">
        <ele>30.4188</ele>
        <time>2014-06-01T14:09:38Z</time>
      </trkpt>
      <trkpt lat="59.8961891" lon="17.7065498">
        <ele>30.4188</ele>
        <time>2014-06-01T14:09:39Z</time>
      </trkpt>
      <trkpt lat="59.8962509" lon="17.7066338">
        <ele>30.4188</ele>
        <time>2014-06-01T14:09:40Z</time>
      </trkpt>
      <trkpt lat="59.896313" lon="17.7067197">
        <ele>30.4188</ele>
        <time>2014-06-01T14:09:41Z</time>
      </trkpt>
      <trkpt lat="59.8963756" lon="17.7068061">
        <ele>30.4188</ele>
        <time>2014-06-01T14:09:42Z</time>
      </trkpt>
      <trkpt lat="59.8964395" lon="17.7068917">
        <ele>30.4188</ele>
        <time>2014-06-01T14:09:43Z</time>
      </trkpt>
      <trkpt lat="59.896504" lon="17.706977">
        <ele>30.4188</ele>
        <time>2014-06-01T14:09:44Z</time>
      </trkpt>
      <trkpt lat="59.8965684" lon="17.7070631">
        <ele>30.4188</ele>
        <time>2014-06-01T14:09:45Z</time>
      </trkpt>
      <trkpt lat="59.8966331" lon="17.7071491">
        <ele>30.8995</ele>
        <time>2014-06-01T14:09:46Z</time>
      </trkpt>
      <trkpt lat="59.8966979" lon="17.7072341">
        <ele>30.8995</ele>
        <time>2014-06-01T14:09:47Z</time>
      </trkpt>
      <trkpt lat="59.8967631" lon="17.7073201">
        <ele>30.8995</ele>
        <time>2014-06-01T14:09:48Z</time>
      </trkpt>
      <trkpt lat="59.8968277" lon="17.7074081">
        <ele>30.8995</ele>
        <time>2014-06-01T14:09:49Z</time>
      </trkpt>
      <trkpt lat="59.8968921" lon="17.7074965">
        <ele>30.8995</ele>
        <time>2014-06-01T14:09:50Z</time>
      </trkpt>
      <trkpt lat="59.8969572" lon="17.7075826">
        <ele>30.8995</ele>
        <time>2014-06-01T14:09:51Z</time>
      </trkpt>
      <trkpt lat="59.8970212" lon="17.7076678">
        <ele>30.8995</ele>
        <time>2014-06-01T14:09:52Z</time>
      </trkpt>
      <trkpt lat="59.8970837" lon="17.7077522">
        <ele>30.8995</ele>
        <time>2014-06-01T14:09:53Z</time>
      </trkpt>
      <trkpt lat="59.8971459" lon="17.7078339">
        <ele>30.8995</ele>
        <time>2014-06-01T14:09:54Z</time>
      </trkpt>
      <trkpt lat="59.8972081" lon="17.7079167">
        <ele>30.8995</ele>
        <time>2014-06-01T14:09:55Z</time>
      </trkpt>
      <trkpt lat="59.8972704" lon="17.7080023">
        <ele>30.8995</ele>
        <time>2014-06-01T14:09:56Z</time>
      </trkpt>
      <trkpt lat="59.8973325" lon="17.7080909">
        <ele>30.8995</ele>
        <time>2014-06-01T14:09:57Z</time>
      </trkpt>
      <trkpt lat="59.897393" lon="17.7081858">
        <ele>30.8995</ele>
        <time>2014-06-01T14:09:58Z</time>
      </trkpt>
      <trkpt lat="59.897452" lon="17.7082861">
        <ele>30.8995</ele>
        <time>2014-06-01T14:09:59Z</time>
      </trkpt>
      <trkpt lat="59.8975114" lon="17.7083851">
        <ele>30.8995</ele>
        <time>2014-06-01T14:10:00Z</time>
      </trkpt>
      <trkpt lat="59.8975737" lon="17.708476">
        <ele>30.8995</ele>
        <time>2014-06-01T14:10:01Z</time>
      </trkpt>
      <trkpt lat="59.8976404" lon="17.7085538">
        <ele>30.8995</ele>
        <time>2014-06-01T14:10:02Z</time>
      </trkpt>
      <trkpt lat="59.8977096" lon="17.7086222">
        <ele>31.3801</ele>
        <time>2014-06-01T14:10:03Z</time>
      </trkpt>
      <trkpt lat="59.8977778" lon="17.7086942">
        <ele>31.3801</ele>
        <time>2014-06-01T14:10:04Z</time>
      </trkpt>
      <trkpt lat="59.8978427" lon="17.7087732">
        <ele>31.3801</ele>
        <time>2014-06-01T14:10:05Z</time>
      </trkpt>
      <trkpt lat="59.897906" lon="17.7088547">
        <ele>31.3801</ele>
        <time>2014-06-01T14:10:06Z</time>
      </trkpt>
      <trkpt lat="59.8979679" lon="17.7089381">
        <ele>31.3801</ele>
        <time>2014-06-01T14:10:07Z</time>
      </trkpt>
      <trkpt lat="59.8980286" lon="17.7090211">
        <ele>31.3801</ele>
        <time>2014-06-01T14:10:08Z</time>
      </trkpt>
      <trkpt lat="59.8980892" lon="17.7091008">
        <ele>31.3801</ele>
        <time>2014-06-01T14:10:09Z</time>
      </trkpt>
      <trkpt lat="59.8981494" lon="17.7091802">
        <ele>31.3801</ele>
        <time>2014-06-01T14:10:10Z</time>
      </trkpt>
      <trkpt lat="59.898209" lon="17.7092612">
        <ele>31.3801</ele>
        <time>2014-06-01T14:10:11Z</time>
      </trkpt>
      <trkpt lat="59.898269" lon="17.7093411">
        <ele>31.3801</ele>
        <time>2014-06-01T14:10:12Z</time>
      </trkpt>
      <trkpt lat="59.8983291" lon="17.7094186">
        <ele>31.8607</ele>
        <time>2014-06-01T14:10:13Z</time>
      </trkpt>
      <trkpt lat="59.8983891" lon="17.709496">
        <ele>31.8607</ele>
        <time>2014-06-01T14:10:14Z</time>
      </trkpt>
      <trkpt lat="59.8984482" lon="17.7095747">
        <ele>31.8607</ele>
        <time>2014-06-01T14:10:15Z</time>
      </trkpt>
      <trkpt lat="59.8985066" lon="17.7096532">
        <ele>31.8607</ele>
        <time>2014-06-01T14:10:16Z</time>
      </trkpt>
      <trkpt lat="59.8985645" lon="17.7097304">
        <ele>31.8607</ele>
        <time>2014-06-01T14:10:17Z</time>
      </trkpt>
      <trkpt lat="59.8986221" lon="17.7098058">
        <ele>31.8607</ele>
        <time>2014-06-01T14:10:18Z</time>
      </trkpt>
      <trkpt lat="59.8986795" lon="17.709878">
        <ele>31.8607</ele>
        <time>2014-06-01T14:10:19Z</time>
      </trkpt>
      <trkpt lat="59.8987365" lon="17.7099484">
        <ele>31.8607</ele>
        <time>2014-06-01T14:10:20Z</time>
      </trkpt>
      <trkpt lat="59.8987931" lon="17.7100189">
        <ele>31.8607</ele>
        <time>2014-06-01T14:10:21Z</time>
      </trkpt>
      <trkpt lat="59.8988496" lon="17.7100914">
        <ele>31.8607</ele>
        <time>2014-06-01T14:10:22Z</time>
      </trkpt>
      <trkpt lat="59.8989062" lon="17.7101648">
        <ele>31.8607</ele>
        <time>2014-06-01T14:10:23Z</time>
      </trkpt>
      <trkpt lat="59.8989632" lon="17.7102389">
        <ele>31.8607</ele>
        <time>2014-06-01T14:10:24Z</time>
      </trkpt>
      <trkpt lat="59.899017" lon="17.7103028">
        <ele>31.8607</ele>
        <time>2014-06-01T14:10:25Z</time>
      </trkpt>
      <trkpt lat="59.8990724" lon="17.7103754">
        <ele>31.8607</ele>
        <time>2014-06-01T14:10:26Z</time>
      </trkpt>
      <trkpt lat="59.8991287" lon="17.7104504">
        <ele>31.8607</ele>
        <time>2014-06-01T14:10:27Z</time>
      </trkpt>
      <trkpt lat="59.8991853" lon="17.7105255">
        <ele>32.3416</ele>
        <time>2014-06-01T14:10:28Z</time>
      </trkpt>
      <trkpt lat="59.8992426" lon="17.7105984">
        <ele>32.3416</ele>
        <time>2014-06-01T14:10:29Z</time>
      </trkpt>
      <trkpt lat="59.8993008" lon="17.7106686">
        <ele>32.3416</ele>
        <time>2014-06-01T14:10:30Z</time>
      </trkpt>
      <trkpt lat="59.8993589" lon="17.7107387">
        <ele>32.3416</ele>
        <time>2014-06-01T14:10:31Z</time>
      </trkpt>
      <trkpt lat="59.8994169" lon="17.7108081">
        <ele>32.3416</ele>
        <time>2014-06-01T14:10:32Z</time>
      </trkpt>
      <trkpt lat="59.8994742" lon="17.7108762">
        <ele>32.3416</ele>
        <time>2014-06-01T14:10:33Z</time>
      </trkpt>
      <trkpt lat="59.8995312" lon="17.7109428">
        <ele>32.3416</ele>
        <time>2014-06-01T14:10:34Z</time>
      </trkpt>
      <trkpt lat="59.8995873" lon="17.7110098">
        <ele>32.3416</ele>
        <time>2014-06-01T14:10:35Z</time>
      </trkpt>
      <trkpt lat="59.8996427" lon="17.7110766">
        <ele>32.3416</ele>
        <time>2014-06-01T14:10:36Z</time>
      </trkpt>
      <trkpt lat="59.8996982" lon="17.7111399">
        <ele>32.8223</ele>
        <time>2014-06-01T14:10:37Z</time>
      </trkpt>
      <trkpt lat="59.8997537" lon="17.7112011">
        <ele>32.8223</ele>
        <time>2014-06-01T14:10:38Z</time>
      </trkpt>
      <trkpt lat="59.8998086" lon="17.7112631">
        <ele>32.8223</ele>
        <time>2014-06-01T14:10:39Z</time>
      </trkpt>
      <trkpt lat="59.8998627" lon="17.7113274">
        <ele>32.8223</ele>
        <time>2014-06-01T14:10:40Z</time>
      </trkpt>
      <trkpt lat="59.8999163" lon="17.7113927">
        <ele>32.8223</ele>
        <time>2014-06-01T14:10:41Z</time>
      </trkpt>
      <trkpt lat="59.8999702" lon="17.711458">
        <ele>32.8223</ele>
        <time>2014-06-01T14:10:42Z</time>
      </trkpt>
      <trkpt lat="59.9000251" lon="17.7115221">
        <ele>32.8223</ele>
        <time>2014-06-01T14:10:43Z</time>
      </trkpt>
      <trkpt lat="59.9000806" lon="17.7115839">
        <ele>33.3029</ele>
        <time>2014-06-01T14:10:44Z</time>
      </trkpt>
      <trkpt lat="59.9001359" lon="17.7116465">
        <ele>33.3029</ele>
        <time>2014-06-01T14:10:45Z</time>
      </trkpt>
      <trkpt lat="59.9001903" lon="17.7117103">
        <ele>33.3029</ele>
        <time>2014-06-01T14:10:46Z</time>
      </trkpt>
      <trkpt lat="59.9002451" lon="17.7117721">
        <ele>33.3029</ele>
        <time>2014-06-01T14:10:47Z</time>
      </trkpt>
      <trkpt lat="59.9003001" lon="17.7118309">
        <ele>33.3029</ele>
        <time>2014-06-01T14:10:48Z</time>
      </trkpt>
      <trkpt lat="59.900355" lon="17.711891">
        <ele>33.3029</ele>
        <time>2014-06-01T14:10:49Z</time>
      </trkpt>
      <trkpt lat="59.9004092" lon="17.7119521">
        <ele>33.3029</ele>
        <time>2014-06-01T14:10:50Z</time>
      </trkpt>
      <trkpt lat="59.9004631" lon="17.7120101">
        <ele>33.3029</ele>
        <time>2014-06-01T14:10:51Z</time>
      </trkpt>
      <trkpt lat="59.9005155" lon="17.7120674">
        <ele>33.3029</ele>
        <time>2014-06-01T14:10:52Z</time>
      </trkpt>
      <trkpt lat="59.9005668" lon="17.7121268">
        <ele>33.3029</ele>
        <time>2014-06-01T14:10:53Z</time>
      </trkpt>
      <trkpt lat="59.9006185" lon="17.7121869">
        <ele>33.3029</ele>
        <time>2014-06-01T14:10:54Z</time>
      </trkpt>
      <trkpt lat="59.9006705" lon="17.7122489">
        <ele>33.3029</ele>
        <time>2014-06-01T14:10:55Z</time>
      </trkpt>
      <trkpt lat="59.9007233" lon="17.7123095">
        <ele>33.3029</ele>
        <time>2014-06-01T14:10:56Z</time>
      </trkpt>
      <trkpt lat="59.9007761" lon="17.7123674">
        <ele>33.3029</ele>
        <time>2014-06-01T14:10:57Z</time>
      </trkpt>
      <trkpt lat="59.9008278" lon="17.7124254">
        <ele>33.3029</ele>
        <time>2014-06-01T14:10:58Z</time>
      </trkpt>
      <trkpt lat="59.9008785" lon="17.7124815">
        <ele>33.3029</ele>
        <time>2014-06-01T14:10:59Z</time>
      </trkpt>
      <trkpt lat="59.9009284" lon="17.7125358">
        <ele>33.3029</ele>
        <time>2014-06-01T14:11:00Z</time>
      </trkpt>
      <trkpt lat="59.900976" lon="17.7125893">
        <ele>33.3029</ele>
        <time>2014-06-01T14:11:01Z</time>
      </trkpt>
      <trkpt lat="59.9010206" lon="17.7126427">
        <ele>33.3029</ele>
        <time>2014-06-01T14:11:02Z</time>
      </trkpt>
      <trkpt lat="59.901047" lon="17.7127139">
        <ele>33.3029</ele>
        <time>2014-06-01T14:11:03Z</time>
      </trkpt>
      <trkpt lat="59.901046" lon="17.7128104">
        <ele>33.3029</ele>
        <time>2014-06-01T14:11:04Z</time>
      </trkpt>
      <trkpt lat="59.9010233" lon="17.7129057">
        <ele>32.8223</ele>
        <time>2014-06-01T14:11:05Z</time>
      </trkpt>
      <trkpt lat="59.9009886" lon="17.712995">
        <ele>32.8223</ele>
        <time>2014-06-01T14:11:06Z</time>
      </trkpt>
      <trkpt lat="59.9009511" lon="17.7130845">
        <ele>32.3416</ele>
        <time>2014-06-01T14:11:07Z</time>
      </trkpt>
      <trkpt lat="59.9009142" lon="17.7131804">
        <ele>32.3416</ele>
        <time>2014-06-01T14:11:08Z</time>
      </trkpt>
      <trkpt lat="59.9008787" lon="17.7132842">
        <ele>31.8607</ele>
        <time>2014-06-01T14:11:09Z</time>
      </trkpt>
      <trkpt lat="59.9008431" lon="17.7133938">
        <ele>31.8607</ele>
        <time>2014-06-01T14:11:10Z</time>
      </trkpt>
      <trkpt lat="59.900806" lon="17.7135072">
        <ele>31.8607</ele>
        <time>2014-06-01T14:11:11Z</time>
      </trkpt>
      <trkpt lat="59.9007669" lon="17.7136236">
        <ele>31.8607</ele>
        <time>2014-06-01T14:11:12Z</time>
      </trkpt>
      <trkpt lat="59.9007268" lon="17.7137418">
        <ele>31.8607</ele>
        <time>2014-06-01T14:11:13Z</time>
      </trkpt>
      <trkpt lat="59.900686" lon="17.7138609">
        <ele>31.3801</ele>
        <time>2014-06-01T14:11:14Z</time>
      </trkpt>
      <trkpt lat="59.900645" lon="17.7139786">
        <ele>31.3801</ele>
        <time>2014-06-01T14:11:15Z</time>
      </trkpt>
      <trkpt lat="59.9006032" lon="17.7140956">
        <ele>31.3801</ele>
        <time>2014-06-01T14:11:16Z</time>
      </trkpt>
      <trkpt lat="59.9005627" lon="17.7142143">
        <ele>31.8607</ele>
        <time>2014-06-01T14:11:17Z</time>
      </trkpt>
      <trkpt lat="59.9005237" lon="17.7143329">
        <ele>31.8607</ele>
        <time>2014-06-01T14:11:18Z</time>
      </trkpt>
      <trkpt lat="59.9004855" lon="17.7144511">
        <ele>31.8607</ele>
        <time>2014-06-01T14:11:19Z</time>
      </trkpt>
      <trkpt lat="59.9004476" lon="17.7145691">
        <ele>31.8607</ele>
        <time>2014-06-01T14:11:20Z</time>
      </trkpt>
      <trkpt lat="59.9004099" lon="17.7146876">
        <ele>31.8607</ele>
        <time>2014-06-01T14:11:21Z</time>
      </trkpt>
      <trkpt lat="59.9003736" lon="17.7148084">
        <ele>31.8607</ele>
        <time>2014-06-01T14:11:22Z</time>
      </trkpt>
      <trkpt lat="59.9003395" lon="17.7149333">
        <ele>32.3416</ele>
        <time>2014-06-01T14:11:23Z</time>
      </trkpt>
      <trkpt lat="59.9003073" lon="17.7150626">
        <ele>32.3416</ele>
        <time>2014-06-01T14:11:24Z</time>
      </trkpt>
      <trkpt lat="59.9002761" lon="17.7151948">
        <ele>32.3416</ele>
        <time>2014-06-01T14:11:25Z</time>
      </trkpt>
      <trkpt lat="59.9002448" lon="17.7153283">
        <ele>32.3416</ele>
        <time>2014-06-01T14:11:26Z</time>
      </trkpt>
      <trkpt lat="59.9002146" lon="17.7154625">
        <ele>32.3416</ele>
        <time>2014-06-01T14:11:27Z</time>
      </trkpt>
      <trkpt lat="59.9001861" lon="17.7155952">
        <ele>32.3416</ele>
        <time>2014-06-01T14:11:28Z</time>
      </trkpt>
      <trkpt lat="59.9001614" lon="17.7157251">
        <ele>32.3416</ele>
        <time>2014-06-01T14:11:29Z</time>
      </trkpt>
      <trkpt lat="59.9001436" lon="17.7158532">
        <ele>32.3416</ele>
        <time>2014-06-01T14:11:30Z</time>
      </trkpt>
      <trkpt lat="59.9001307" lon="17.715981">
        <ele>32.3416</ele>
        <time>2014-06-01T14:11:31Z</time>
      </trkpt>
      <trkpt lat="59.9001199" lon="17.716108">
        <ele>32.3416</ele>
        <time>2014-06-01T14:11:32Z</time>
      </trkpt>
      <trkpt lat="59.9001096" lon="17.7162335">
        <ele>32.3416</ele>
        <time>2014-06-01T14:11:33Z</time>
      </trkpt>
      <trkpt lat="59.9000994" lon="17.7163583">
        <ele>31.8607</ele>
        <time>2014-06-01T14:11:34Z</time>
      </trkpt>
      <trkpt lat="59.9000913" lon="17.716482">
        <ele>31.8607</ele>
        <time>2014-06-01T14:11:35Z</time>
      </trkpt>
      <trkpt lat="59.9000857" lon="17.7166049">
        <ele>31.8607</ele>
        <time>2014-06-01T14:11:36Z</time>
      </trkpt>
      <trkpt lat="59.9000804" lon="17.7167264">
        <ele>31.8607</ele>
        <time>2014-06-01T14:11:37Z</time>
      </trkpt>
      <trkpt lat="59.9000753" lon="17.7168452">
        <ele>31.8607</ele>
        <time>2014-06-01T14:11:38Z</time>
      </trkpt>
      <trkpt lat="59.9000709" lon="17.7169618">
        <ele>31.8607</ele>
        <time>2014-06-01T14:11:39Z</time>
      </trkpt>
      <trkpt lat="59.9000653" lon="17.717075">
        <ele>31.8607</ele>
        <time>2014-06-01T14:11:40Z</time>
      </trkpt>
      <trkpt lat="59.9000582" lon="17.7171859">
        <ele>31.8607</ele>
        <time>2014-06-01T14:11:41Z</time>
      </trkpt>
      <trkpt lat="59.9000489" lon="17.7172957">
        <ele>31.8607</ele>
        <time>2014-06-01T14:11:42Z</time>
      </trkpt>
      <trkpt lat="59.9000368" lon="17.7174031">
        <ele>31.8607</ele>
        <time>2014-06-01T14:11:43Z</time>
      </trkpt>
      <trkpt lat="59.9000233" lon="17.7175115">
        <ele>32.3416</ele>
        <time>2014-06-01T14:11:44Z</time>
      </trkpt>
      <trkpt lat="59.9000105" lon="17.7176217">
        <ele>32.3416</ele>
        <time>2014-06-01T14:11:45Z</time>
      </trkpt>
      <trkpt lat="59.8999959" lon="17.717732">
        <ele>32.3416</ele>
        <time>2014-06-01T14:11:46Z</time>
      </trkpt>
      <trkpt lat="59.8999774" lon="17.7178413">
        <ele>32.8223</ele>
        <time>2014-06-01T14:11:47Z</time>
      </trkpt>
      <trkpt lat="59.899957" lon="17.71795">
        <ele>32.8223</ele>
        <time>2014-06-01T14:11:48Z</time>
      </trkpt>
      <trkpt lat="59.8999333" lon="17.7180579">
        <ele>33.3029</ele>
        <time>2014-06-01T14:11:49Z</time>
      </trkpt>
      <trkpt lat="59.8999052" lon="17.7181621">
        <ele>33.3029</ele>
        <time>2014-06-01T14:11:50Z</time>
      </trkpt>
      <trkpt lat="59.8998744" lon="17.7182629">
        <ele>33.3029</ele>
        <time>2014-06-01T14:11:51Z</time>
      </trkpt>
      <trkpt lat="59.899843" lon="17.718362">
        <ele>33.7834</ele>
        <time>2014-06-01T14:11:52Z</time>
      </trkpt>
      <trkpt lat="59.8998109" lon="17.7184598">
        <ele>33.7834</ele>
        <time>2014-06-01T14:11:53Z</time>
      </trkpt>
      <trkpt lat="59.8997789" lon="17.7185588">
        <ele>33.7834</ele>
        <time>2014-06-01T14:11:54Z</time>
      </trkpt>
      <trkpt lat="59.8997464" lon="17.7186602">
        <ele>33.7834</ele>
        <time>2014-06-01T14:11:55Z</time>
      </trkpt>
      <trkpt lat="59.8997132" lon="17.7187618">
        <ele>33.7834</ele>
        <time>2014-06-01T14:11:56Z</time>
      </trkpt>
      <trkpt lat="59.8996816" lon="17.7188629">
        <ele>33.7834</ele>
        <time>2014-06-01T14:11:57Z</time>
      </trkpt>
      <trkpt lat="59.8996504" lon="17.7189648">
        <ele>33.7834</ele>
        <time>2014-06-01T14:11:58Z</time>
      </trkpt>
      <trkpt lat="59.8996199" lon="17.7190659">
        <ele>33.7834</ele>
        <time>2014-06-01T14:11:59Z</time>
      </trkpt>
      <trkpt lat="59.8995921" lon="17.719169">
        <ele>33.7834</ele>
        <time>2014-06-01T14:12:00Z</time>
      </trkpt>
      <trkpt lat="59.8995666" lon="17.7192768">
        <ele>33.7834</ele>
        <time>2014-06-01T14:12:01Z</time>
      </trkpt>
      <trkpt lat="59.8995427" lon="17.7193891">
        <ele>33.7834</ele>
        <time>2014-06-01T14:12:02Z</time>
      </trkpt>
      <trkpt lat="59.89952" lon="17.7194999">
        <ele>33.7834</ele>
        <time>2014-06-01T14:12:03Z</time>
      </trkpt>
      <trkpt lat="59.8994977" lon="17.7196109">
        <ele>33.3029</ele>
        <time>2014-06-01T14:12:04Z</time>
      </trkpt>
      <trkpt lat="59.8994749" lon="17.719722">
        <ele>33.3029</ele>
        <time>2014-06-01T14:12:05Z</time>
      </trkpt>
      <trkpt lat="59.8994504" lon="17.7198365">
        <ele>33.3029</ele>
        <time>2014-06-01T14:12:06Z</time>
      </trkpt>
      <trkpt lat="59.8994266" lon="17.7199527">
        <ele>33.3029</ele>
        <time>2014-06-01T14:12:07Z</time>
      </trkpt>
      <trkpt lat="59.8994024" lon="17.7200707">
        <ele>33.3029</ele>
        <time>2014-06-01T14:12:08Z</time>
      </trkpt>
      <trkpt lat="59.899379" lon="17.7201869">
        <ele>33.3029</ele>
        <time>2014-06-01T14:12:09Z</time>
      </trkpt>
      <trkpt lat="59.8993573" lon="17.7203018">
        <ele>33.3029</ele>
        <time>2014-06-01T14:12:10Z</time>
      </trkpt>
      <trkpt lat="59.899338" lon="17.7204154">
        <ele>33.3029</ele>
        <time>2014-06-01T14:12:11Z</time>
      </trkpt>
      <trkpt lat="59.8993201" lon="17.7205289">
        <ele>33.3029</ele>
        <time>2014-06-01T14:12:12Z</time>
      </trkpt>
      <trkpt lat="59.8993025" lon="17.7206438">
        <ele>33.3029</ele>
        <time>2014-06-01T14:12:13Z</time>
      </trkpt>
      <trkpt lat="59.8992836" lon="17.7207609">
        <ele>33.3029</ele>
        <time>2014-06-01T14:12:14Z</time>
      </trkpt>
      <trkpt lat="59.8992625" lon="17.72088">
        <ele>33.3029</ele>
        <time>2014-06-01T14:12:15Z</time>
      </trkpt>
      <trkpt lat="59.8992403" lon="17.7210018">
        <ele>33.3029</ele>
        <time>2014-06-01T14:12:16Z</time>
      </trkpt>
      <trkpt lat="59.8992172" lon="17.7211253">
        <ele>33.3029</ele>
        <time>2014-06-01T14:12:17Z</time>
      </trkpt>
      <trkpt lat="59.899193" lon="17.7212497">
        <ele>33.3029</ele>
        <time>2014-06-01T14:12:18Z</time>
      </trkpt>
      <trkpt lat="59.8991697" lon="17.7213757">
        <ele>33.3029</ele>
        <time>2014-06-01T14:12:19Z</time>
      </trkpt>
      <trkpt lat="59.8991473" lon="17.7215033">
        <ele>33.3029</ele>
        <time>2014-06-01T14:12:20Z</time>
      </trkpt>
      <trkpt lat="59.8991267" lon="17.7216316">
        <ele>33.3029</ele>
        <time>2014-06-01T14:12:21Z</time>
      </trkpt>
      <trkpt lat="59.8991076" lon="17.7217579">
        <ele>33.3029</ele>
        <time>2014-06-01T14:12:22Z</time>
      </trkpt>
      <trkpt lat="59.8990877" lon="17.7218799">
        <ele>33.3029</ele>
        <time>2014-06-01T14:12:23Z</time>
      </trkpt>
      <trkpt lat="59.8990675" lon="17.7220004">
        <ele>33.3029</ele>
        <time>2014-06-01T14:12:24Z</time>
      </trkpt>
      <trkpt lat="59.8990479" lon="17.7221225">
        <ele>33.3029</ele>
        <time>2014-06-01T14:12:25Z</time>
      </trkpt>
      <trkpt lat="59.8990287" lon="17.7222476">
        <ele>33.3029</ele>
        <time>2014-06-01T14:12:26Z</time>
      </trkpt>
      <trkpt lat="59.8990093" lon="17.7223738">
        <ele>33.3029</ele>
        <time>2014-06-01T14:12:27Z</time>
      </trkpt>
      <trkpt lat="59.8989907" lon="17.7225018">
        <ele>33.3029</ele>
        <time>2014-06-01T14:12:28Z</time>
      </trkpt>
      <trkpt lat="59.898972" lon="17.7226335">
        <ele>32.8223</ele>
        <time>2014-06-01T14:12:29Z</time>
      </trkpt>
      <trkpt lat="59.8989523" lon="17.7227687">
        <ele>32.8223</ele>
        <time>2014-06-01T14:12:30Z</time>
      </trkpt>
      <trkpt lat="59.8989313" lon="17.722905">
        <ele>32.8223</ele>
        <time>2014-06-01T14:12:31Z</time>
      </trkpt>
      <trkpt lat="59.8989092" lon="17.7230417">
        <ele>32.8223</ele>
        <time>2014-06-01T14:12:32Z</time>
      </trkpt>
      <trkpt lat="59.8988873" lon="17.7231782">
        <ele>32.8223</ele>
        <time>2014-06-01T14:12:33Z</time>
      </trkpt>
      <trkpt lat="59.8988655" lon="17.7233166">
        <ele>32.8223</ele>
        <time>2014-06-01T14:12:34Z</time>
      </trkpt>
      <trkpt lat="59.8988439" lon="17.7234586">
        <ele>32.3416</ele>
        <time>2014-06-01T14:12:35Z</time>
      </trkpt>
      <trkpt lat="59.8988208" lon="17.7236036">
        <ele>32.3416</ele>
        <time>2014-06-01T14:12:36Z</time>
      </trkpt>
      <trkpt lat="59.8987974" lon="17.7237512">
        <ele>32.3416</ele>
        <time>2014-06-01T14:12:37Z</time>
      </trkpt>
      <trkpt lat="59.8987731" lon="17.7239001">
        <ele>31.8607</ele>
        <time>2014-06-01T14:12:38Z</time>
      </trkpt>
      <trkpt lat="59.8987479" lon="17.7240491">
        <ele>31.8607</ele>
        <time>2014-06-01T14:12:39Z</time>
      </trkpt>
      <trkpt lat="59.8987229" lon="17.724198">
        <ele>31.3801</ele>
        <time>2014-06-01T14:12:40Z</time>
      </trkpt>
      <trkpt lat="59.8986989" lon="17.7243474">
        <ele>31.3801</ele>
        <time>2014-06-01T14:12:41Z</time>
      </trkpt>
      <trkpt lat="59.8986755" lon="17.7244961">
        <ele>30.8995</ele>
        <time>2014-06-01T14:12:42Z</time>
      </trkpt>
      <trkpt lat="59.8986513" lon="17.7246445">
        <ele>30.8995</ele>
        <time>2014-06-01T14:12:43Z</time>
      </trkpt>
      <trkpt lat="59.8986264" lon="17.7247936">
        <ele>30.8995</ele>
        <time>2014-06-01T14:12:44Z</time>
      </trkpt>
      <trkpt lat="59.8986021" lon="17.7249452">
        <ele>30.4188</ele>
        <time>2014-06-01T14:12:45Z</time>
      </trkpt>
      <trkpt lat="59.8985773" lon="17.7250998">
        <ele>30.4188</ele>
        <time>2014-06-01T14:12:46Z</time>
      </trkpt>
      <trkpt lat="59.8985513" lon="17.7252573">
        <ele>30.4188</ele>
        <time>2014-06-01T14:12:47Z</time>
      </trkpt>
      <trkpt lat="59.898525" lon="17.7254178">
        <ele>29.9381</ele>
        <time>2014-06-01T14:12:48Z</time>
      </trkpt>
      <trkpt lat="59.8984972" lon="17.725579">
        <ele>29.9381</ele>
        <time>2014-06-01T14:12:49Z</time>
      </trkpt>
      <trkpt lat="59.8984674" lon="17.7257394">
        <ele>29.9381</ele>
        <time>2014-06-01T14:12:50Z</time>
      </trkpt>
      <trkpt lat="59.8984367" lon="17.7258984">
        <ele>29.4575</ele>
        <time>2014-06-01T14:12:51Z</time>
      </trkpt>
      <trkpt lat="59.8984036" lon="17.7260534">
        <ele>29.4575</ele>
        <time>2014-06-01T14:12:52Z</time>
      </trkpt>
      <trkpt lat="59.8983679" lon="17.7262058">
        <ele>29.4575</ele>
        <time>2014-06-01T14:12:53Z</time>
      </trkpt>
      <trkpt lat="59.8983302" lon="17.7263576">
        <ele>29.4575</ele>
        <time>2014-06-01T14:12:54Z</time>
      </trkpt>
      <trkpt lat="59.8982919" lon="17.7265098">
        <ele>29.4575</ele>
        <time>2014-06-01T14:12:55Z</time>
      </trkpt>
      <trkpt lat="59.8982534" lon="17.7266618">
        <ele>28.9769</ele>
        <time>2014-06-01T14:12:56Z</time>
      </trkpt>
      <trkpt lat="59.8982124" lon="17.7268092">
        <ele>28.9769</ele>
        <time>2014-06-01T14:12:57Z</time>
      </trkpt>
      <trkpt lat="59.8981691" lon="17.7269524">
        <ele>28.9769</ele>
        <time>2014-06-01T14:12:58Z</time>
      </trkpt>
      <trkpt lat="59.8981237" lon="17.7270925">
        <ele>28.9769</ele>
        <time>2014-06-01T14:12:59Z</time>
      </trkpt>
      <trkpt lat="59.8980758" lon="17.7272293">
        <ele>28.9769</ele>
        <time>2014-06-01T14:13:00Z</time>
      </trkpt>
      <trkpt lat="59.8980271" lon="17.7273629">
        <ele>28.9769</ele>
        <time>2014-06-01T14:13:01Z</time>
      </trkpt>
      <trkpt lat="59.8979776" lon="17.7274933">
        <ele>28.9769</ele>
        <time>2014-06-01T14:13:02Z</time>
      </trkpt>
      <trkpt lat="59.8979281" lon="17.7276223">
        <ele>28.9769</ele>
        <time>2014-06-01T14:13:03Z</time>
      </trkpt>
      <trkpt lat="59.8978799" lon="17.7277525">
        <ele>28.9769</ele>
        <time>2014-06-01T14:13:04Z</time>
      </trkpt>
      <trkpt lat="59.8978328" lon="17.7278851">
        <ele>28.9769</ele>
        <time>2014-06-01T14:13:05Z</time>
      </trkpt>
      <trkpt lat="59.8977891" lon="17.7280222">
        <ele>28.9769</ele>
        <time>2014-06-01T14:13:06Z</time>
      </trkpt>
      <trkpt lat="59.8977494" lon="17.7281632">
        <ele>28.9769</ele>
        <time>2014-06-01T14:13:07Z</time>
      </trkpt>
      <trkpt lat="59.8977137" lon="17.7283078">
        <ele>28.9769</ele>
        <time>2014-06-01T14:13:08Z</time>
      </trkpt>
      <trkpt lat="59.8976813" lon="17.7284553">
        <ele>28.9769</ele>
        <time>2014-06-01T14:13:09Z</time>
      </trkpt>
      <trkpt lat="59.8976505" lon="17.728604">
        <ele>28.9769</ele>
        <time>2014-06-01T14:13:10Z</time>
      </trkpt>
      <trkpt lat="59.8976202" lon="17.7287533">
        <ele>28.9769</ele>
        <time>2014-06-01T14:13:11Z</time>
      </trkpt>
      <trkpt lat="59.8975904" lon="17.7289025">
        <ele>29.4575</ele>
        <time>2014-06-01T14:13:12Z</time>
      </trkpt>
      <trkpt lat="59.8975613" lon="17.7290499">
        <ele>29.4575</ele>
        <time>2014-06-01T14:13:13Z</time>
      </trkpt>
      <trkpt lat="59.8975329" lon="17.7291964">
        <ele>29.4575</ele>
        <time>2014-06-01T14:13:14Z</time>
      </trkpt>
      <trkpt lat="59.8975063" lon="17.7293442">
        <ele>29.4575</ele>
        <time>2014-06-01T14:13:15Z</time>
      </trkpt>
      <trkpt lat="59.8974831" lon="17.729494">
        <ele>29.4575</ele>
        <time>2014-06-01T14:13:16Z</time>
      </trkpt>
      <trkpt lat="59.8974641" lon="17.7296457">
        <ele>29.4575</ele>
        <time>2014-06-01T14:13:17Z</time>
      </trkpt>
      <trkpt lat="59.897449" lon="17.7297991">
        <ele>29.9381</ele>
        <time>2014-06-01T14:13:18Z</time>
      </trkpt>
      <trkpt lat="59.8974374" lon="17.7299527">
        <ele>30.4188</ele>
        <time>2014-06-01T14:13:19Z</time>
      </trkpt>
      <trkpt lat="59.8974299" lon="17.7301048">
        <ele>30.4188</ele>
        <time>2014-06-01T14:13:20Z</time>
      </trkpt>
      <trkpt lat="59.8974363" lon="17.73027">
        <ele>30.8995</ele>
        <time>2014-06-01T14:13:21Z</time>
      </trkpt>
      <trkpt lat="59.8974303" lon="17.7304502">
        <ele>31.3801</ele>
        <time>2014-06-01T14:13:22Z</time>
      </trkpt>
      <trkpt lat="59.8974416" lon="17.7305982">
        <ele>31.3801</ele>
        <time>2014-06-01T14:13:23Z</time>
      </trkpt>
      <trkpt lat="59.8974658" lon="17.7307464">
        <ele>31.8607</ele>
        <time>2014-06-01T14:13:24Z</time>
      </trkpt>
      <trkpt lat="59.8974842" lon="17.7308736">
        <ele>31.8607</ele>
        <time>2014-06-01T14:13:25Z</time>
      </trkpt>
      <trkpt lat="59.8974985" lon="17.7309864">
        <ele>32.3416</ele>
        <time>2014-06-01T14:13:26Z</time>
      </trkpt>
      <trkpt lat="59.8975115" lon="17.7311134">
        <ele>31.8607</ele>
        <time>2014-06-01T14:13:27Z</time>
      </trkpt>
      <trkpt lat="59.8975223" lon="17.7312355">
        <ele>32.3416</ele>
        <time>2014-06-01T14:13:28Z</time>
      </trkpt>
      <trkpt lat="59.8975378" lon="17.73136">
        <ele>31.8607</ele>
        <time>2014-06-01T14:13:29Z</time>
      </trkpt>
      <trkpt lat="59.8975395" lon="17.7314918">
        <ele>32.3416</ele>
        <time>2014-06-01T14:13:30Z</time>
      </trkpt>
      <trkpt lat="59.8975355" lon="17.7316265">
        <ele>31.8607</ele>
        <time>2014-06-01T14:13:31Z</time>
      </trkpt>
      <trkpt lat="59.8975282" lon="17.731763">
        <ele>31.8607</ele>
        <time>2014-06-01T14:13:32Z</time>
      </trkpt>
      <trkpt lat="59.8975193" lon="17.7319025">
        <ele>31.8607</ele>
        <time>2014-06-01T14:13:33Z</time>
      </trkpt>
      <trkpt lat="59.8975143" lon="17.7320377">
        <ele>31.3801</ele>
        <time>2014-06-01T14:13:34Z</time>
      </trkpt>
      <trkpt lat="59.8975083" lon="17.7321752">
        <ele>31.8607</ele>
        <time>2014-06-01T14:13:35Z</time>
      </trkpt>
      <trkpt lat="59.8975028" lon="17.7323119">
        <ele>31.8607</ele>
        <time>2014-06-01T14:13:36Z</time>
      </trkpt>
      <trkpt lat="59.897497" lon="17.7324488">
        <ele>31.8607</ele>
        <time>2014-06-01T14:13:37Z</time>
      </trkpt>
      <trkpt lat="59.8974903" lon="17.7325845">
        <ele>31.8607</ele>
        <time>2014-06-01T14:13:38Z</time>
      </trkpt>
      <trkpt lat="59.897484" lon="17.7327203">
        <ele>31.8607</ele>
        <time>2014-06-01T14:13:39Z</time>
      </trkpt>
      <trkpt lat="59.897477" lon="17.7328558">
        <ele>31.8607</ele>
        <time>2014-06-01T14:13:40Z</time>
      </trkpt>
      <trkpt lat="59.8974664" lon="17.7329919">
        <ele>32.3416</ele>
        <time>2014-06-01T14:13:41Z</time>
      </trkpt>
      <trkpt lat="59.8974547" lon="17.7331268">
        <ele>32.3416</ele>
        <time>2014-06-01T14:13:42Z</time>
      </trkpt>
      <trkpt lat="59.8974427" lon="17.7332614">
        <ele>32.3416</ele>
        <time>2014-06-01T14:13:43Z</time>
      </trkpt>
      <trkpt lat="59.8974298" lon="17.7333947">
        <ele>32.3416</ele>
        <time>2014-06-01T14:13:44Z</time>
      </trkpt>
      <trkpt lat="59.8974163" lon="17.7335221">
        <ele>32.3416</ele>
        <time>2014-06-01T14:13:45Z</time>
      </trkpt>
      <trkpt lat="59.8974004" lon="17.7336493">
        <ele>32.3416</ele>
        <time>2014-06-01T14:13:46Z</time>
      </trkpt>
      <trkpt lat="59.8973811" lon="17.7337774">
        <ele>32.8223</ele>
        <time>2014-06-01T14:13:47Z</time>
      </trkpt>
      <trkpt lat="59.8973586" lon="17.7339054">
        <ele>32.3416</ele>
        <time>2014-06-01T14:13:48Z</time>
      </trkpt>
      <trkpt lat="59.8973323" lon="17.7340302">
        <ele>32.3416</ele>
        <time>2014-06-01T14:13:49Z</time>
      </trkpt>
      <trkpt lat="59.8972998" lon="17.7341556">
        <ele>32.3416</ele>
        <time>2014-06-01T14:13:50Z</time>
      </trkpt>
      <trkpt lat="59.8972657" lon="17.7342799">
        <ele>32.3416</ele>
        <time>2014-06-01T14:13:51Z</time>
      </trkpt>
      <trkpt lat="59.8972324" lon="17.7344079">
        <ele>32.8223</ele>
        <time>2014-06-01T14:13:52Z</time>
      </trkpt>
      <trkpt lat="59.8972019" lon="17.7345424">
        <ele>32.3416</ele>
        <time>2014-06-01T14:13:53Z</time>
      </trkpt>
      <trkpt lat="59.8971759" lon="17.734684">
        <ele>32.3416</ele>
        <time>2014-06-01T14:13:54Z</time>
      </trkpt>
      <trkpt lat="59.8971562" lon="17.7348331">
        <ele>32.3416</ele>
        <time>2014-06-01T14:13:55Z</time>
      </trkpt>
      <trkpt lat="59.8971429" lon="17.7349886">
        <ele>32.3416</ele>
        <time>2014-06-01T14:13:56Z</time>
      </trkpt>
      <trkpt lat="59.8971334" lon="17.73515">
        <ele>31.8607</ele>
        <time>2014-06-01T14:13:57Z</time>
      </trkpt>
      <trkpt lat="59.8971261" lon="17.7353178">
        <ele>31.8607</ele>
        <time>2014-06-01T14:13:58Z</time>
      </trkpt>
      <trkpt lat="59.8971225" lon="17.7354901">
        <ele>31.3801</ele>
        <time>2014-06-01T14:13:59Z</time>
      </trkpt>
      <trkpt lat="59.89712" lon="17.7356666">
        <ele>30.8995</ele>
        <time>2014-06-01T14:14:00Z</time>
      </trkpt>
      <trkpt lat="59.8971175" lon="17.7358434">
        <ele>30.8995</ele>
        <time>2014-06-01T14:14:01Z</time>
      </trkpt>
      <trkpt lat="59.8971132" lon="17.7360181">
        <ele>30.4188</ele>
        <time>2014-06-01T14:14:02Z</time>
      </trkpt>
      <trkpt lat="59.8971024" lon="17.7361893">
        <ele>30.4188</ele>
        <time>2014-06-01T14:14:03Z</time>
      </trkpt>
      <trkpt lat="59.8970858" lon="17.7363559">
        <ele>30.4188</ele>
        <time>2014-06-01T14:14:04Z</time>
      </trkpt>
      <trkpt lat="59.8970628" lon="17.7365171">
        <ele>30.4188</ele>
        <time>2014-06-01T14:14:05Z</time>
      </trkpt>
      <trkpt lat="59.8970314" lon="17.7366703">
        <ele>30.4188</ele>
        <time>2014-06-01T14:14:06Z</time>
      </trkpt>
      <trkpt lat="59.8969935" lon="17.7368135">
        <ele>30.4188</ele>
        <time>2014-06-01T14:14:07Z</time>
      </trkpt>
      <trkpt lat="59.8969513" lon="17.736949">
        <ele>30.8995</ele>
        <time>2014-06-01T14:14:08Z</time>
      </trkpt>
      <trkpt lat="59.8969082" lon="17.7370806">
        <ele>30.8995</ele>
        <time>2014-06-01T14:14:09Z</time>
      </trkpt>
      <trkpt lat="59.896865" lon="17.7372082">
        <ele>31.3801</ele>
        <time>2014-06-01T14:14:10Z</time>
      </trkpt>
      <trkpt lat="59.8968199" lon="17.7373294">
        <ele>31.3801</ele>
        <time>2014-06-01T14:14:11Z</time>
      </trkpt>
      <trkpt lat="59.8967728" lon="17.7374449">
        <ele>31.8607</ele>
        <time>2014-06-01T14:14:12Z</time>
      </trkpt>
      <trkpt lat="59.8967263" lon="17.7375604">
        <ele>31.8607</ele>
        <time>2014-06-01T14:14:13Z</time>
      </trkpt>
      <trkpt lat="59.8966828" lon="17.7376818">
        <ele>31.8607</ele>
        <time>2014-06-01T14:14:14Z</time>
      </trkpt>
      <trkpt lat="59.8966423" lon="17.7378091">
        <ele>31.8607</ele>
        <time>2014-06-01T14:14:15Z</time>
      </trkpt>
      <trkpt lat="59.8966049" lon="17.737942">
        <ele>31.3801</ele>
        <time>2014-06-01T14:14:16Z</time>
      </trkpt>
      <trkpt lat="59.8965704" lon="17.7380821">
        <ele>31.3801</ele>
        <time>2014-06-01T14:14:17Z</time>
      </trkpt>
      <trkpt lat="59.8965378" lon="17.7382286">
        <ele>31.3801</ele>
        <time>2014-06-01T14:14:18Z</time>
      </trkpt>
      <trkpt lat="59.8965063" lon="17.7383784">
        <ele>31.3801</ele>
        <time>2014-06-01T14:14:19Z</time>
      </trkpt>
      <trkpt lat="59.8964716" lon="17.7385219">
        <ele>31.3801</ele>
        <time>2014-06-01T14:14:20Z</time>
      </trkpt>
      <trkpt lat="59.8964234" lon="17.7386509">
        <ele>31.3801</ele>
        <time>2014-06-01T14:14:21Z</time>
      </trkpt>
      <trkpt lat="59.8963446" lon="17.7387602">
        <ele>31.8607</ele>
        <time>2014-06-01T14:14:22Z</time>
      </trkpt>
      <trkpt lat="59.89626" lon="17.7388317">
        <ele>31.3801</ele>
        <time>2014-06-01T14:14:23Z</time>
      </trkpt>
      <trkpt lat="59.8961767" lon="17.7388718">
        <ele>31.3801</ele>
        <time>2014-06-01T14:14:24Z</time>
      </trkpt>
      <trkpt lat="59.8960887" lon="17.7389037">
        <ele>30.8995</ele>
        <time>2014-06-01T14:14:25Z</time>
      </trkpt>
      <trkpt lat="59.8959975" lon="17.7389358">
        <ele>30.4188</ele>
        <time>2014-06-01T14:14:26Z</time>
      </trkpt>
      <trkpt lat="59.8959042" lon="17.7389647">
        <ele>29.9381</ele>
        <time>2014-06-01T14:14:27Z</time>
      </trkpt>
      <trkpt lat="59.8958098" lon="17.7389892">
        <ele>29.9381</ele>
        <time>2014-06-01T14:14:28Z</time>
      </trkpt>
      <trkpt lat="59.8957152" lon="17.7390114">
        <ele>29.9381</ele>
        <time>2014-06-01T14:14:29Z</time>
      </trkpt>
      <trkpt lat="59.8956209" lon="17.7390324">
        <ele>29.4575</ele>
        <time>2014-06-01T14:14:30Z</time>
      </trkpt>
      <trkpt lat="59.8955266" lon="17.7390539">
        <ele>29.4575</ele>
        <time>2014-06-01T14:14:31Z</time>
      </trkpt>
      <trkpt lat="59.8954324" lon="17.7390793">
        <ele>29.4575</ele>
        <time>2014-06-01T14:14:32Z</time>
      </trkpt>
      <trkpt lat="59.8953381" lon="17.7391062">
        <ele>29.4575</ele>
        <time>2014-06-01T14:14:33Z</time>
      </trkpt>
      <trkpt lat="59.8952443" lon="17.7391319">
        <ele>29.4575</ele>
        <time>2014-06-01T14:14:34Z</time>
      </trkpt>
      <trkpt lat="59.895152" lon="17.7391601">
        <ele>29.4575</ele>
        <time>2014-06-01T14:14:35Z</time>
      </trkpt>
      <trkpt lat="59.8950628" lon="17.7391936">
        <ele>29.4575</ele>
        <time>2014-06-01T14:14:36Z</time>
      </trkpt>
      <trkpt lat="59.8949775" lon="17.7392308">
        <ele>29.4575</ele>
        <time>2014-06-01T14:14:37Z</time>
      </trkpt>
      <trkpt lat="59.8948961" lon="17.7392684">
        <ele>29.9381</ele>
        <time>2014-06-01T14:14:38Z</time>
      </trkpt>
      <trkpt lat="59.894819" lon="17.739302">
        <ele>29.9381</ele>
        <time>2014-06-01T14:14:39Z</time>
      </trkpt>
      <trkpt lat="59.8947474" lon="17.739337">
        <ele>30.4188</ele>
        <time>2014-06-01T14:14:40Z</time>
      </trkpt>
      <trkpt lat="59.8946838" lon="17.7393798">
        <ele>30.4188</ele>
        <time>2014-06-01T14:14:41Z</time>
      </trkpt>
      <trkpt lat="59.8946235" lon="17.739428">
        <ele>30.8995</ele>
        <time>2014-06-01T14:14:42Z</time>
      </trkpt>
      <trkpt lat="59.8945679" lon="17.7394709">
        <ele>31.3801</ele>
        <time>2014-06-01T14:14:43Z</time>
      </trkpt>
      <trkpt lat="59.8945194" lon="17.7395097">
        <ele>31.8607</ele>
        <time>2014-06-01T14:14:44Z</time>
      </trkpt>
      <trkpt lat="59.8944772" lon="17.7395487">
        <ele>32.3416</ele>
        <time>2014-06-01T14:14:45Z</time>
      </trkpt>
      <trkpt lat="59.8944412" lon="17.7395865">
        <ele>32.8223</ele>
        <time>2014-06-01T14:14:46Z</time>
      </trkpt>
      <trkpt lat="59.8944076" lon="17.7396237">
        <ele>33.3029</ele>
        <time>2014-06-01T14:14:47Z</time>
      </trkpt>
      <trkpt lat="59.8943803" lon="17.7396667">
        <ele>33.7834</ele>
        <time>2014-06-01T14:14:48Z</time>
      </trkpt>
      <trkpt lat="59.89437" lon="17.7397242">
        <ele>33.7834</ele>
        <time>2014-06-01T14:14:49Z</time>
      </trkpt>
      <trkpt lat="59.8943744" lon="17.7397822">
        <ele>33.3029</ele>
        <time>2014-06-01T14:14:50Z</time>
      </trkpt>
      <trkpt lat="59.894385" lon="17.7398163">
        <ele>33.3029</ele>
        <time>2014-06-01T14:14:51Z</time>
      </trkpt>
      <trkpt lat="59.8943913" lon="17.7398229">
        <ele>33.3029</ele>
        <time>2014-06-01T14:14:52Z</time>
      </trkpt>
      <trkpt lat="59.8943922" lon="17.7398221">
        <ele>33.3029</ele>
        <time>2014-06-01T14:14:53Z</time>
      </trkpt>
      <trkpt lat="59.8943915" lon="17.7398219">
        <ele>33.3029</ele>
        <time>2014-06-01T14:14:54Z</time>
      </trkpt>
    </trkseg>
  </trk>
</gpx>